<?xml version='1.0' encoding='UTF-8'?><gpx version="1.1" creator="JPX - https://github.com/jenetics/jpx" xmlns="http://www.topografix.com/GPX/1/1"><trk><trkseg><trkpt lat="45.65285301589538" lon="11.303416430628825"><ele>268.0</ele><time>2026-03-28T12:32:48Z</time></trkpt><trkpt lat="45.65288126523146" lon="11.303557493450855"><ele>268.0</ele><time>2026-03-28T12:32:50Z</time></trkpt><trkpt lat="45.652928219776946" lon="11.303720376214509"><ele>268.0</ele><time>2026-03-28T12:32:52Z</time></trkpt><trkpt lat="45.65296356598699" lon="11.303830097521555"><ele>268.0</ele><time>2026-03-28T12:32:53Z</time></trkpt><trkpt lat="45.65299369905815" lon="11.303935794332974"><ele>268.0</ele><time>2026-03-28T12:32:54Z</time></trkpt><trkpt lat="45.653014592835774" lon="11.304072529466728"><ele>268.0</ele><time>2026-03-28T12:32:55Z</time></trkpt><trkpt lat="45.65300060195217" lon="11.304204356331446"><ele>268.0</ele><time>2026-03-28T12:32:56Z</time></trkpt><trkpt lat="45.65302376707082" lon="11.304335382146292"><ele>268.0</ele><time>2026-03-28T12:32:57Z</time></trkpt><trkpt lat="45.653052538227605" lon="11.304469804361677"><ele>268.0</ele><time>2026-03-28T12:32:58Z</time></trkpt><trkpt lat="45.65309170672926" lon="11.304602810185472"><ele>268.0</ele><time>2026-03-28T12:32:59Z</time></trkpt><trkpt lat="45.653125310312866" lon="11.304756603697331"><ele>268.25</ele><time>2026-03-28T12:33:00Z</time></trkpt><trkpt lat="45.65307175510187" lon="11.304922448508362"><ele>268.5</ele><time>2026-03-28T12:33:01Z</time></trkpt><trkpt lat="45.653094772601385" lon="11.30509836400319"><ele>268.75</ele><time>2026-03-28T12:33:02Z</time></trkpt><trkpt lat="45.65306674162295" lon="11.30528389324299"><ele>269.0</ele><time>2026-03-28T12:33:03Z</time></trkpt><trkpt lat="45.65303721433898" lon="11.305477535668214"><ele>269.75</ele><time>2026-03-28T12:33:04Z</time></trkpt><trkpt lat="45.65300169702961" lon="11.305660329726537"><ele>270.5</ele><time>2026-03-28T12:33:05Z</time></trkpt><trkpt lat="45.65295178042243" lon="11.305851686243978"><ele>271.25</ele><time>2026-03-28T12:33:06Z</time></trkpt><trkpt lat="45.65292472762721" lon="11.306056210947144"><ele>272.0</ele><time>2026-03-28T12:33:07Z</time></trkpt><trkpt lat="45.65291053109985" lon="11.306269194814474"><ele>272.33333333333337</ele><time>2026-03-28T12:33:08Z</time></trkpt><trkpt lat="45.652909167663616" lon="11.3064917320122"><ele>272.6666666666667</ele><time>2026-03-28T12:33:09Z</time></trkpt><trkpt lat="45.65292138603146" lon="11.306720526302934"><ele>273.0</ele><time>2026-03-28T12:33:10Z</time></trkpt><trkpt lat="45.652958799903004" lon="11.30693666027426"><ele>273.0</ele><time>2026-03-28T12:33:11Z</time></trkpt><trkpt lat="45.653019658004574" lon="11.307138454733249"><ele>273.0</ele><time>2026-03-28T12:33:11.999Z</time></trkpt><trkpt lat="45.65308768159933" lon="11.30732657784676"><ele>273.0</ele><time>2026-03-28T12:33:12.999Z</time></trkpt><trkpt lat="45.65315420168611" lon="11.307515151944415"><ele>273.0</ele><time>2026-03-28T12:33:13.999Z</time></trkpt><trkpt lat="45.653215820389306" lon="11.307708987521893"><ele>278.6666666666667</ele><time>2026-03-28T12:33:15.014Z</time></trkpt><trkpt lat="45.65327792880139" lon="11.307905138422505"><ele>284.33333333333337</ele><time>2026-03-28T12:33:16.021Z</time></trkpt><trkpt lat="45.65334064538637" lon="11.308099826811334"><ele>290.0</ele><time>2026-03-28T12:33:17.016Z</time></trkpt><trkpt lat="45.653404643510044" lon="11.308295015316574"><ele>303.5</ele><time>2026-03-28T12:33:18.018Z</time></trkpt><trkpt lat="45.65348814245698" lon="11.308473562797301"><ele>317.0</ele><time>2026-03-28T12:33:19.022Z</time></trkpt><trkpt lat="45.653733677464" lon="11.309030588674325"><ele>325.0</ele><time>2026-03-28T12:33:22.116Z</time></trkpt><trkpt lat="45.65382798729099" lon="11.30919525543293"><ele>333.0</ele><time>2026-03-28T12:33:23.116Z</time></trkpt><trkpt lat="45.65389431318754" lon="11.309385629801593"><ele>341.0</ele><time>2026-03-28T12:33:24.116Z</time></trkpt><trkpt lat="45.65399879574079" lon="11.309539992930159"><ele>349.0</ele><time>2026-03-28T12:33:25.116Z</time></trkpt><trkpt lat="45.65409068206907" lon="11.309705665705923"><ele>354.5</ele><time>2026-03-28T12:33:26.116Z</time></trkpt><trkpt lat="45.65418463247726" lon="11.309867886744067"><ele>360.0</ele><time>2026-03-28T12:33:27.111Z</time></trkpt><trkpt lat="45.65428048593897" lon="11.310030030331745"><ele>365.5</ele><time>2026-03-28T12:33:28.116Z</time></trkpt><trkpt lat="45.65438213178592" lon="11.310183173529602"><ele>371.0</ele><time>2026-03-28T12:33:29.114Z</time></trkpt><trkpt lat="45.65447281561248" lon="11.310353416995099"><ele>371.0</ele><time>2026-03-28T12:33:30.116Z</time></trkpt><trkpt lat="45.65457856017572" lon="11.310501390923578"><ele>371.0</ele><time>2026-03-28T12:33:31.116Z</time></trkpt><trkpt lat="45.68045828030042" lon="11.352430209528052"><ele>325.0</ele><time>2026-03-28T12:36:17.998Z</time></trkpt><trkpt lat="45.680475879324696" lon="11.352721769621184"><ele>279.0</ele><time>2026-03-28T12:36:18.998Z</time></trkpt><trkpt lat="45.68043111487539" lon="11.35288445061799"><ele>233.0</ele><time>2026-03-28T12:36:19.998Z</time></trkpt><trkpt lat="45.680546973271746" lon="11.353237341290702"><ele>231.33333333333334</ele><time>2026-03-28T12:36:20.998Z</time></trkpt><trkpt lat="45.680548015411986" lon="11.353538714572396"><ele>229.66666666666669</ele><time>2026-03-28T12:36:21.998Z</time></trkpt><trkpt lat="45.680571874171044" lon="11.353827918192897"><ele>228.0</ele><time>2026-03-28T12:36:22.998Z</time></trkpt><trkpt lat="45.68059622648988" lon="11.354123104393702"><ele>226.33333333333331</ele><time>2026-03-28T12:36:23.999Z</time></trkpt><trkpt lat="45.68062094384411" lon="11.354413938637956"><ele>224.66666666666666</ele><time>2026-03-28T12:36:24.999Z</time></trkpt><trkpt lat="45.68065026544513" lon="11.354699169825373"><ele>223.0</ele><time>2026-03-28T12:36:25.999Z</time></trkpt><trkpt lat="45.68068551621118" lon="11.354990443122487"><ele>222.33333333333331</ele><time>2026-03-28T12:36:26.999Z</time></trkpt><trkpt lat="45.68073289160972" lon="11.355282179086654"><ele>221.66666666666669</ele><time>2026-03-28T12:36:27.999Z</time></trkpt><trkpt lat="45.68078824947892" lon="11.355574853679643"><ele>221.0</ele><time>2026-03-28T12:36:28.999Z</time></trkpt><trkpt lat="45.68084925078986" lon="11.355863758842846"><ele>220.0</ele><time>2026-03-28T12:36:29.999Z</time></trkpt><trkpt lat="45.680919544401895" lon="11.356147058707899"><ele>219.0</ele><time>2026-03-28T12:36:30.999Z</time></trkpt><trkpt lat="45.68099276883711" lon="11.356407283848974"><ele>218.0</ele><time>2026-03-28T12:36:31.999Z</time></trkpt><trkpt lat="45.68108643679207" lon="11.356662349448085"><ele>218.66666666666669</ele><time>2026-03-28T12:36:32.999Z</time></trkpt><trkpt lat="45.6811653203932" lon="11.356910562302257"><ele>219.33333333333331</ele><time>2026-03-28T12:36:34Z</time></trkpt><trkpt lat="45.681255910742706" lon="11.357158929649712"><ele>220.0</ele><time>2026-03-28T12:36:35Z</time></trkpt><trkpt lat="45.68135478632917" lon="11.357411014914762"><ele>217.33333333333331</ele><time>2026-03-28T12:36:36Z</time></trkpt><trkpt lat="45.68144707516149" lon="11.357661163864337"><ele>214.66666666666669</ele><time>2026-03-28T12:36:37Z</time></trkpt><trkpt lat="45.6815259081641" lon="11.357922991672188"><ele>212.0</ele><time>2026-03-28T12:36:38Z</time></trkpt><trkpt lat="45.68161072151312" lon="11.358135660630682"><ele>210.0</ele><time>2026-03-28T12:36:39Z</time></trkpt><trkpt lat="45.681692654521164" lon="11.358347340336076"><ele>208.0</ele><time>2026-03-28T12:36:40Z</time></trkpt><trkpt lat="45.681763264353116" lon="11.35852829750672"><ele>206.0</ele><time>2026-03-28T12:36:41Z</time></trkpt><trkpt lat="45.681834879894645" lon="11.358709380432352"><ele>206.20000000000002</ele><time>2026-03-28T12:36:42Z</time></trkpt><trkpt lat="45.6819041121251" lon="11.358883083653707"><ele>206.4</ele><time>2026-03-28T12:36:43Z</time></trkpt><trkpt lat="45.68195840578437" lon="11.359018985113316"><ele>206.6</ele><time>2026-03-28T12:36:44Z</time></trkpt><trkpt lat="45.68201526520306" lon="11.359159388689894"><ele>206.8</ele><time>2026-03-28T12:36:45Z</time></trkpt><trkpt lat="45.682048874407684" lon="11.359242380310999"><ele>207.0</ele><time>2026-03-28T12:36:46Z</time></trkpt><trkpt lat="45.68209468764046" lon="11.359353125052461"><ele>207.0</ele><time>2026-03-28T12:36:47Z</time></trkpt><trkpt lat="45.68214884152018" lon="11.359484293933074"><ele>207.0</ele><time>2026-03-28T12:36:48Z</time></trkpt><trkpt lat="45.68221521307487" lon="11.359644951863284"><ele>207.0</ele><time>2026-03-28T12:36:49Z</time></trkpt><trkpt lat="45.6822849266026" lon="11.359814304494297"><ele>207.0</ele><time>2026-03-28T12:36:50Z</time></trkpt><trkpt lat="45.68235907267241" lon="11.359987579001437"><ele>205.0</ele><time>2026-03-28T12:36:51Z</time></trkpt><trkpt lat="45.682440077706914" lon="11.360171709146694"><ele>203.0</ele><time>2026-03-28T12:36:52Z</time></trkpt><trkpt lat="45.68252168382153" lon="11.360350872342703"><ele>201.0</ele><time>2026-03-28T12:36:53Z</time></trkpt><trkpt lat="45.682609936589984" lon="11.3605319668615"><ele>202.0</ele><time>2026-03-28T12:36:54Z</time></trkpt><trkpt lat="45.682702887579985" lon="11.360727387027048"><ele>203.0</ele><time>2026-03-28T12:36:55Z</time></trkpt><trkpt lat="45.68281086990723" lon="11.360899940239946"><ele>204.0</ele><time>2026-03-28T12:36:56Z</time></trkpt><trkpt lat="45.68291834031818" lon="11.361065475222468"><ele>204.0</ele><time>2026-03-28T12:36:57Z</time></trkpt><trkpt lat="45.68302623791957" lon="11.361227146160994"><ele>204.0</ele><time>2026-03-28T12:36:58Z</time></trkpt><trkpt lat="45.68313369227122" lon="11.361389913363048"><ele>204.0</ele><time>2026-03-28T12:36:59Z</time></trkpt><trkpt lat="45.68324521430974" lon="11.36155504134797"><ele>201.33333333333331</ele><time>2026-03-28T12:37:00Z</time></trkpt><trkpt lat="45.6833608477787" lon="11.361712835582415"><ele>198.66666666666666</ele><time>2026-03-28T12:37:01Z</time></trkpt><trkpt lat="45.68348452499022" lon="11.361869876913618"><ele>196.0</ele><time>2026-03-28T12:37:02Z</time></trkpt><trkpt lat="45.68361681821449" lon="11.362019507230142"><ele>196.0</ele><time>2026-03-28T12:37:03Z</time></trkpt><trkpt lat="45.68375047324213" lon="11.362169400848247"><ele>196.0</ele><time>2026-03-28T12:37:04Z</time></trkpt><trkpt lat="45.6838879640137" lon="11.362320912188698"><ele>196.0</ele><time>2026-03-28T12:37:05Z</time></trkpt><trkpt lat="45.68403422990449" lon="11.362457793621665"><ele>194.0</ele><time>2026-03-28T12:37:06Z</time></trkpt><trkpt lat="45.68418411979277" lon="11.362580617014647"><ele>192.0</ele><time>2026-03-28T12:37:07Z</time></trkpt><trkpt lat="45.684336009290405" lon="11.362709589931956"><ele>190.0</ele><time>2026-03-28T12:37:08Z</time></trkpt><trkpt lat="45.68448453049681" lon="11.362838005398"><ele>187.33333333333334</ele><time>2026-03-28T12:37:09Z</time></trkpt><trkpt lat="45.68463181275969" lon="11.362957648040636"><ele>184.66666666666666</ele><time>2026-03-28T12:37:10Z</time></trkpt><trkpt lat="45.684779275850985" lon="11.363091324164891"><ele>182.0</ele><time>2026-03-28T12:37:11Z</time></trkpt><trkpt lat="45.684919568328944" lon="11.3632230690539"><ele>182.0</ele><time>2026-03-28T12:37:12Z</time></trkpt><trkpt lat="45.68506084255318" lon="11.36336380844839"><ele>182.0</ele><time>2026-03-28T12:37:13Z</time></trkpt><trkpt lat="45.68520225780871" lon="11.363505809185865"><ele>182.0</ele><time>2026-03-28T12:37:14Z</time></trkpt><trkpt lat="45.68534117603666" lon="11.363648624797655"><ele>181.66666666666666</ele><time>2026-03-28T12:37:15Z</time></trkpt><trkpt lat="45.685484091276415" lon="11.363796408272723"><ele>181.33333333333334</ele><time>2026-03-28T12:37:16Z</time></trkpt><trkpt lat="45.68562659818919" lon="11.363943386719486"><ele>181.0</ele><time>2026-03-28T12:37:17Z</time></trkpt><trkpt lat="45.68577130643362" lon="11.36408642779756"><ele>181.0</ele><time>2026-03-28T12:37:18Z</time></trkpt><trkpt lat="45.68591870702458" lon="11.364232847026821"><ele>181.0</ele><time>2026-03-28T12:37:19Z</time></trkpt><trkpt lat="45.686063229922574" lon="11.364378160075068"><ele>181.0</ele><time>2026-03-28T12:37:20Z</time></trkpt><trkpt lat="45.686214480230674" lon="11.364512554644216"><ele>180.66666666666669</ele><time>2026-03-28T12:37:21Z</time></trkpt><trkpt lat="45.68636613358971" lon="11.364641138517026"><ele>180.33333333333334</ele><time>2026-03-28T12:37:22Z</time></trkpt><trkpt lat="45.68652334907573" lon="11.364754278566835"><ele>180.0</ele><time>2026-03-28T12:37:23Z</time></trkpt><trkpt lat="45.68668268402234" lon="11.364854348947524"><ele>180.0</ele><time>2026-03-28T12:37:24Z</time></trkpt><trkpt lat="45.68684014216556" lon="11.364939780847088"><ele>180.0</ele><time>2026-03-28T12:37:25Z</time></trkpt><trkpt lat="45.68700170817524" lon="11.365008002578737"><ele>180.0</ele><time>2026-03-28T12:37:26Z</time></trkpt><trkpt lat="45.687161127115836" lon="11.365064409703887"><ele>179.33333333333334</ele><time>2026-03-28T12:37:27Z</time></trkpt><trkpt lat="45.68732086270303" lon="11.365112047713113"><ele>178.66666666666669</ele><time>2026-03-28T12:37:28Z</time></trkpt><trkpt lat="45.6874838350203" lon="11.365155962033539"><ele>178.0</ele><time>2026-03-28T12:37:29Z</time></trkpt><trkpt lat="45.687646392199035" lon="11.365197933903058"><ele>177.33333333333334</ele><time>2026-03-28T12:37:30Z</time></trkpt><trkpt lat="45.68780372019432" lon="11.365232650897566"><ele>176.66666666666666</ele><time>2026-03-28T12:37:31Z</time></trkpt><trkpt lat="45.68795911294845" lon="11.36526496104349"><ele>176.0</ele><time>2026-03-28T12:37:31.999Z</time></trkpt><trkpt lat="45.68811594271695" lon="11.365295694476734"><ele>176.0</ele><time>2026-03-28T12:37:32.999Z</time></trkpt><trkpt lat="45.68827052075012" lon="11.365350186989426"><ele>176.0</ele><time>2026-03-28T12:37:33.999Z</time></trkpt><trkpt lat="45.68843751136447" lon="11.36535217080619"><ele>176.0</ele><time>2026-03-28T12:37:34.999Z</time></trkpt><trkpt lat="45.68859949393813" lon="11.36537036810017"><ele>176.0</ele><time>2026-03-28T12:37:35.999Z</time></trkpt><trkpt lat="45.68876030954548" lon="11.365382399016593"><ele>176.0</ele><time>2026-03-28T12:37:36.999Z</time></trkpt><trkpt lat="45.6889262597672" lon="11.365382658366304"><ele>176.0</ele><time>2026-03-28T12:37:37.999Z</time></trkpt><trkpt lat="45.68909380866521" lon="11.365377658265016"><ele>176.0</ele><time>2026-03-28T12:37:38.999Z</time></trkpt><trkpt lat="45.68926846421019" lon="11.365396594275621"><ele>176.0</ele><time>2026-03-28T12:37:39.999Z</time></trkpt><trkpt lat="45.68945432337471" lon="11.365394854606707"><ele>176.0</ele><time>2026-03-28T12:37:40.999Z</time></trkpt><trkpt lat="45.689644642687" lon="11.365393073195564"><ele>176.0</ele><time>2026-03-28T12:37:41.999Z</time></trkpt><trkpt lat="45.68984612393861" lon="11.365391189364958"><ele>176.0</ele><time>2026-03-28T12:37:42.999Z</time></trkpt><trkpt lat="45.690057963893246" lon="11.365389094437319"><ele>176.0</ele><time>2026-03-28T12:37:43.999Z</time></trkpt><trkpt lat="45.690281814692504" lon="11.36538677384806"><ele>179.66666666666666</ele><time>2026-03-28T12:37:44.999Z</time></trkpt><trkpt lat="45.690505557967434" lon="11.365369062037981"><ele>183.33333333333334</ele><time>2026-03-28T12:37:45.999Z</time></trkpt><trkpt lat="45.69071919347646" lon="11.365373072397333"><ele>187.0</ele><time>2026-03-28T12:37:46.999Z</time></trkpt><trkpt lat="45.69094518422669" lon="11.365368535303162"><ele>195.0</ele><time>2026-03-28T12:37:47.999Z</time></trkpt><trkpt lat="45.69116503024597" lon="11.36536622155099"><ele>203.0</ele><time>2026-03-28T12:37:48.999Z</time></trkpt><trkpt lat="45.69138519167765" lon="11.3653662908022"><ele>211.0</ele><time>2026-03-28T12:37:49.999Z</time></trkpt><trkpt lat="45.691608990044514" lon="11.365366370120734"><ele>211.0</ele><time>2026-03-28T12:37:51.016Z</time></trkpt><trkpt lat="45.69183184426718" lon="11.365369020823435"><ele>211.0</ele><time>2026-03-28T12:37:52.026Z</time></trkpt><trkpt lat="45.692054349188524" lon="11.365383909347688"><ele>211.0</ele><time>2026-03-28T12:37:53.026Z</time></trkpt><trkpt lat="45.6922667915407" lon="11.365335621434902"><ele>205.0</ele><time>2026-03-28T12:37:54.024Z</time></trkpt><trkpt lat="45.69247483791954" lon="11.365281694344059"><ele>199.0</ele><time>2026-03-28T12:37:55.018Z</time></trkpt><trkpt lat="45.69318142258161" lon="11.36493458413646"><ele>201.66666666666666</ele><time>2026-03-28T12:37:57.999Z</time></trkpt><trkpt lat="45.693383500835054" lon="11.364783818459706"><ele>204.33333333333331</ele><time>2026-03-28T12:37:58.999Z</time></trkpt><trkpt lat="45.693558837929345" lon="11.364632355607002"><ele>207.0</ele><time>2026-03-28T12:37:59.999Z</time></trkpt><trkpt lat="45.6937438327741" lon="11.364429279639298"><ele>195.0</ele><time>2026-03-28T12:38:00.999Z</time></trkpt><trkpt lat="45.6939493421977" lon="11.364227517290503"><ele>183.0</ele><time>2026-03-28T12:38:01.999Z</time></trkpt><trkpt lat="45.694152870842345" lon="11.364022515968541"><ele>186.0</ele><time>2026-03-28T12:38:02.999Z</time></trkpt><trkpt lat="45.69435972660913" lon="11.363807457989507"><ele>189.0</ele><time>2026-03-28T12:38:03.999Z</time></trkpt><trkpt lat="45.694565794118844" lon="11.363589033089479"><ele>189.0</ele><time>2026-03-28T12:38:04.999Z</time></trkpt><trkpt lat="45.69476700165261" lon="11.363367414830563"><ele>189.0</ele><time>2026-03-28T12:38:05.999Z</time></trkpt><trkpt lat="45.6949739789142" lon="11.363148086575137"><ele>188.0</ele><time>2026-03-28T12:38:06.999Z</time></trkpt><trkpt lat="45.69517902942114" lon="11.362929101724184"><ele>187.0</ele><time>2026-03-28T12:38:07.999Z</time></trkpt><trkpt lat="45.69535021127567" lon="11.362685258482161"><ele>187.0</ele><time>2026-03-28T12:38:08.999Z</time></trkpt><trkpt lat="45.695547803996156" lon="11.362487968885784"><ele>187.0</ele><time>2026-03-28T12:38:09.999Z</time></trkpt><trkpt lat="45.69574070632755" lon="11.362301344398027"><ele>185.5</ele><time>2026-03-28T12:38:10.999Z</time></trkpt><trkpt lat="45.695934951373225" lon="11.362101858386877"><ele>184.0</ele><time>2026-03-28T12:38:11.999Z</time></trkpt><trkpt lat="45.69613227551202" lon="11.361925737615467"><ele>184.0</ele><time>2026-03-28T12:38:12.999Z</time></trkpt><trkpt lat="45.69634156941003" lon="11.361786090665705"><ele>184.0</ele><time>2026-03-28T12:38:13.999Z</time></trkpt><trkpt lat="45.69655331690266" lon="11.361692976017837"><ele>184.0</ele><time>2026-03-28T12:38:14.999Z</time></trkpt><trkpt lat="45.696753149905916" lon="11.3616359754545"><ele>184.0</ele><time>2026-03-28T12:38:15.999Z</time></trkpt><trkpt lat="45.69696830021987" lon="11.361604764996015"><ele>184.0</ele><time>2026-03-28T12:38:16.999Z</time></trkpt><trkpt lat="45.6971836414487" lon="11.361617004251118"><ele>185.0</ele><time>2026-03-28T12:38:17.999Z</time></trkpt><trkpt lat="45.697405731978144" lon="11.361662684957553"><ele>186.0</ele><time>2026-03-28T12:38:18.999Z</time></trkpt><trkpt lat="45.69762076156765" lon="11.361742995253493"><ele>187.0</ele><time>2026-03-28T12:38:19.999Z</time></trkpt><trkpt lat="45.697827383814634" lon="11.361867901723862"><ele>188.0</ele><time>2026-03-28T12:38:20.999Z</time></trkpt><trkpt lat="45.698021725985704" lon="11.362017474031017"><ele>189.0</ele><time>2026-03-28T12:38:21.999Z</time></trkpt><trkpt lat="45.69820184446032" lon="11.362194192989614"><ele>190.0</ele><time>2026-03-28T12:38:22.999Z</time></trkpt><trkpt lat="45.69837710131376" lon="11.362402211719834"><ele>190.0</ele><time>2026-03-28T12:38:23.999Z</time></trkpt><trkpt lat="45.6985461791082" lon="11.362627488507846"><ele>190.0</ele><time>2026-03-28T12:38:24.999Z</time></trkpt><trkpt lat="45.698713795157" lon="11.362862865068866"><ele>190.5</ele><time>2026-03-28T12:38:25.999Z</time></trkpt><trkpt lat="45.698889070151395" lon="11.36310646668408"><ele>191.0</ele><time>2026-03-28T12:38:26.999Z</time></trkpt><trkpt lat="45.6990690939618" lon="11.363352978604297"><ele>191.0</ele><time>2026-03-28T12:38:27.999Z</time></trkpt><trkpt lat="45.69926607774514" lon="11.363579471275218"><ele>191.0</ele><time>2026-03-28T12:38:28.999Z</time></trkpt><trkpt lat="45.69946373811253" lon="11.363812220245508"><ele>190.5</ele><time>2026-03-28T12:38:30Z</time></trkpt><trkpt lat="45.699668509137254" lon="11.364043870228429"><ele>190.0</ele><time>2026-03-28T12:38:31Z</time></trkpt><trkpt lat="45.6998722527534" lon="11.364267425220389"><ele>190.0</ele><time>2026-03-28T12:38:32Z</time></trkpt><trkpt lat="45.70008027608766" lon="11.364478602385601"><ele>190.0</ele><time>2026-03-28T12:38:33Z</time></trkpt><trkpt lat="45.700292288996366" lon="11.364684575781244"><ele>190.5</ele><time>2026-03-28T12:38:34Z</time></trkpt><trkpt lat="45.70051077204817" lon="11.364885548419846"><ele>191.0</ele><time>2026-03-28T12:38:35Z</time></trkpt><trkpt lat="45.700730948136496" lon="11.365081219739155"><ele>191.0</ele><time>2026-03-28T12:38:36Z</time></trkpt><trkpt lat="45.700953769634324" lon="11.36527107842836"><ele>191.0</ele><time>2026-03-28T12:38:37Z</time></trkpt><trkpt lat="45.70118048985289" lon="11.365448774151725"><ele>190.0</ele><time>2026-03-28T12:38:38Z</time></trkpt><trkpt lat="45.70140335761284" lon="11.365618413912072"><ele>189.0</ele><time>2026-03-28T12:38:39Z</time></trkpt><trkpt lat="45.70161822072064" lon="11.365784529307588"><ele>189.0</ele><time>2026-03-28T12:38:40Z</time></trkpt><trkpt lat="45.70182732201113" lon="11.365949769365637"><ele>189.0</ele><time>2026-03-28T12:38:41Z</time></trkpt><trkpt lat="45.70202966179768" lon="11.366116070211795"><ele>188.33333333333334</ele><time>2026-03-28T12:38:42Z</time></trkpt><trkpt lat="45.70219850244716" lon="11.366275279181854"><ele>187.66666666666669</ele><time>2026-03-28T12:38:43Z</time></trkpt><trkpt lat="45.702364962194125" lon="11.366423556251252"><ele>187.0</ele><time>2026-03-28T12:38:44Z</time></trkpt><trkpt lat="45.702510174930204" lon="11.3665899816567"><ele>187.0</ele><time>2026-03-28T12:38:45Z</time></trkpt><trkpt lat="45.702653400104765" lon="11.36674308528861"><ele>187.0</ele><time>2026-03-28T12:38:46Z</time></trkpt><trkpt lat="45.70279236878481" lon="11.366897800093682"><ele>187.0</ele><time>2026-03-28T12:38:47Z</time></trkpt><trkpt lat="45.702943336155464" lon="11.367038693947668"><ele>186.66666666666669</ele><time>2026-03-28T12:38:48Z</time></trkpt><trkpt lat="45.70308608734692" lon="11.367202389463406"><ele>186.33333333333334</ele><time>2026-03-28T12:38:49Z</time></trkpt><trkpt lat="45.70323074537913" lon="11.36736560950099"><ele>186.0</ele><time>2026-03-28T12:38:50Z</time></trkpt><trkpt lat="45.7033761556113" lon="11.367525377327551"><ele>186.0</ele><time>2026-03-28T12:38:51Z</time></trkpt><trkpt lat="45.70351725585899" lon="11.367673914233547"><ele>186.0</ele><time>2026-03-28T12:38:52Z</time></trkpt><trkpt lat="45.70363670912742" lon="11.367811832672881"><ele>186.0</ele><time>2026-03-28T12:38:53Z</time></trkpt><trkpt lat="45.703727498241975" lon="11.367939431603087"><ele>185.60000000000002</ele><time>2026-03-28T12:38:54Z</time></trkpt><trkpt lat="45.70380325300658" lon="11.368047908351775"><ele>185.2</ele><time>2026-03-28T12:38:55Z</time></trkpt><trkpt lat="45.70380510349943" lon="11.36821846394798"><ele>184.8</ele><time>2026-03-28T12:38:56Z</time></trkpt><trkpt lat="45.703790017765876" lon="11.368369970566127"><ele>184.39999999999998</ele><time>2026-03-28T12:38:57Z</time></trkpt><trkpt lat="45.70377039886512" lon="11.36850649083832"><ele>184.0</ele><time>2026-03-28T12:38:58Z</time></trkpt><trkpt lat="45.703819790722676" lon="11.368634209723949"><ele>184.0</ele><time>2026-03-28T12:38:59Z</time></trkpt><trkpt lat="45.7038838440321" lon="11.368728267298561"><ele>184.0</ele><time>2026-03-28T12:39:00Z</time></trkpt><trkpt lat="45.703963061606146" lon="11.368764286974498"><ele>184.0</ele><time>2026-03-28T12:39:01Z</time></trkpt><trkpt lat="45.704048040390305" lon="11.368747437085396"><ele>184.0</ele><time>2026-03-28T12:39:02Z</time></trkpt><trkpt lat="45.70414361351766" lon="11.3686840081133"><ele>184.0</ele><time>2026-03-28T12:39:03Z</time></trkpt><trkpt lat="45.7042298801212" lon="11.36862306413362"><ele>184.0</ele><time>2026-03-28T12:39:04Z</time></trkpt><trkpt lat="45.70433470870432" lon="11.3686138694089"><ele>184.0</ele><time>2026-03-28T12:39:05Z</time></trkpt><trkpt lat="45.70445870040621" lon="11.368647107727934"><ele>184.0</ele><time>2026-03-28T12:39:06Z</time></trkpt><trkpt lat="45.70458056839648" lon="11.368752453478477"><ele>184.0</ele><time>2026-03-28T12:39:07Z</time></trkpt><trkpt lat="45.704702633018634" lon="11.368888853716326"><ele>182.75</ele><time>2026-03-28T12:39:08Z</time></trkpt><trkpt lat="45.70482016287323" lon="11.369022995970129"><ele>181.5</ele><time>2026-03-28T12:39:09Z</time></trkpt><trkpt lat="45.70494467967858" lon="11.369137379137696"><ele>180.25</ele><time>2026-03-28T12:39:10Z</time></trkpt><trkpt lat="45.70507010081058" lon="11.369251336002037"><ele>179.0</ele><time>2026-03-28T12:39:11Z</time></trkpt><trkpt lat="45.70520332703092" lon="11.369371972089189"><ele>179.25</ele><time>2026-03-28T12:39:12Z</time></trkpt><trkpt lat="45.70533245170966" lon="11.369480523228836"><ele>179.5</ele><time>2026-03-28T12:39:13Z</time></trkpt><trkpt lat="45.70546374063199" lon="11.369570584994678"><ele>179.75</ele><time>2026-03-28T12:39:14Z</time></trkpt><trkpt lat="45.705589957390934" lon="11.369640604518624"><ele>180.0</ele><time>2026-03-28T12:39:15Z</time></trkpt><trkpt lat="45.70570861169478" lon="11.369697297784354"><ele>180.0</ele><time>2026-03-28T12:39:16Z</time></trkpt><trkpt lat="45.70581622575484" lon="11.369746715220895"><ele>180.0</ele><time>2026-03-28T12:39:17Z</time></trkpt><trkpt lat="45.70591197717358" lon="11.36979943659648"><ele>180.0</ele><time>2026-03-28T12:39:18Z</time></trkpt><trkpt lat="45.705999203485206" lon="11.369863190168951"><ele>180.0</ele><time>2026-03-28T12:39:19Z</time></trkpt><trkpt lat="45.70606869021108" lon="11.36994479871805"><ele>180.0</ele><time>2026-03-28T12:39:20Z</time></trkpt><trkpt lat="45.70612094079528" lon="11.370043206261917"><ele>180.33333333333334</ele><time>2026-03-28T12:39:21Z</time></trkpt><trkpt lat="45.706170732698745" lon="11.3701267966203"><ele>180.66666666666666</ele><time>2026-03-28T12:39:22Z</time></trkpt><trkpt lat="45.70623838925668" lon="11.370175008224253"><ele>181.0</ele><time>2026-03-28T12:39:23Z</time></trkpt><trkpt lat="45.706311607411074" lon="11.37017440148428"><ele>181.33333333333331</ele><time>2026-03-28T12:39:24Z</time></trkpt><trkpt lat="45.70638018095288" lon="11.370120219295545"><ele>181.66666666666666</ele><time>2026-03-28T12:39:25Z</time></trkpt><trkpt lat="45.70642015019851" lon="11.370033674480995"><ele>182.0</ele><time>2026-03-28T12:39:26Z</time></trkpt><trkpt lat="45.706440615810976" lon="11.369817401098633"><ele>182.0</ele><time>2026-03-28T12:39:28Z</time></trkpt><trkpt lat="45.70642496920994" lon="11.369700255483604"><ele>182.0</ele><time>2026-03-28T12:39:29Z</time></trkpt><trkpt lat="45.70643744063832" lon="11.369572554823105"><ele>182.0</ele><time>2026-03-28T12:39:30Z</time></trkpt><trkpt lat="45.706484193923025" lon="11.369435324247249"><ele>182.0</ele><time>2026-03-28T12:39:31Z</time></trkpt><trkpt lat="45.7065488084045" lon="11.36930366796908"><ele>182.0</ele><time>2026-03-28T12:39:32Z</time></trkpt><trkpt lat="45.70661263637871" lon="11.369153464738101"><ele>182.0</ele><time>2026-03-28T12:39:33Z</time></trkpt><trkpt lat="45.7066841565663" lon="11.368995705942355"><ele>182.0</ele><time>2026-03-28T12:39:34Z</time></trkpt><trkpt lat="45.70675228621341" lon="11.368844163693996"><ele>182.0</ele><time>2026-03-28T12:39:35Z</time></trkpt><trkpt lat="45.70682294478882" lon="11.368682660240585"><ele>182.0</ele><time>2026-03-28T12:39:36Z</time></trkpt><trkpt lat="45.706891807805334" lon="11.368508693553892"><ele>182.0</ele><time>2026-03-28T12:39:37Z</time></trkpt><trkpt lat="45.70696492326086" lon="11.368326337331169"><ele>182.0</ele><time>2026-03-28T12:39:38Z</time></trkpt><trkpt lat="45.70704151136355" lon="11.368142480002403"><ele>182.0</ele><time>2026-03-28T12:39:39Z</time></trkpt><trkpt lat="45.70711628511943" lon="11.367964155535734"><ele>182.0</ele><time>2026-03-28T12:39:40Z</time></trkpt><trkpt lat="45.70719351650547" lon="11.367773346562181"><ele>182.33333333333331</ele><time>2026-03-28T12:39:41Z</time></trkpt><trkpt lat="45.70727384861631" lon="11.36757562961686"><ele>182.66666666666666</ele><time>2026-03-28T12:39:42Z</time></trkpt><trkpt lat="45.70735731708228" lon="11.36737150768634"><ele>183.0</ele><time>2026-03-28T12:39:43Z</time></trkpt><trkpt lat="45.70744918220327" lon="11.36716028974876"><ele>183.33333333333334</ele><time>2026-03-28T12:39:44Z</time></trkpt><trkpt lat="45.70754203482447" lon="11.366943386850249"><ele>183.66666666666669</ele><time>2026-03-28T12:39:45Z</time></trkpt><trkpt lat="45.707631382935475" lon="11.366729814026769"><ele>184.0</ele><time>2026-03-28T12:39:46Z</time></trkpt><trkpt lat="45.707716473603696" lon="11.366526788773761"><ele>184.66666666666669</ele><time>2026-03-28T12:39:47Z</time></trkpt><trkpt lat="45.7077972437025" lon="11.36633469399665"><ele>185.33333333333334</ele><time>2026-03-28T12:39:48Z</time></trkpt><trkpt lat="45.70789617835408" lon="11.366168048210914"><ele>186.0</ele><time>2026-03-28T12:39:49Z</time></trkpt><trkpt lat="45.70797193874501" lon="11.365995318161334"><ele>186.0</ele><time>2026-03-28T12:39:50Z</time></trkpt><trkpt lat="45.70804055065366" lon="11.365825232814185"><ele>186.0</ele><time>2026-03-28T12:39:50.999Z</time></trkpt><trkpt lat="45.708123001330435" lon="11.36568237999212"><ele>186.0</ele><time>2026-03-28T12:39:51.999Z</time></trkpt><trkpt lat="45.708201720192406" lon="11.365550991407805"><ele>186.0</ele><time>2026-03-28T12:39:52.999Z</time></trkpt><trkpt lat="45.708281411310054" lon="11.365439489096003"><ele>186.20000000000002</ele><time>2026-03-28T12:39:53.999Z</time></trkpt><trkpt lat="45.70836340892586" lon="11.36534963734645"><ele>186.4</ele><time>2026-03-28T12:39:54.999Z</time></trkpt><trkpt lat="45.708432435324376" lon="11.365262096316343"><ele>186.6</ele><time>2026-03-28T12:39:55.999Z</time></trkpt><trkpt lat="45.70846924548197" lon="11.36515067733722"><ele>186.8</ele><time>2026-03-28T12:39:56.999Z</time></trkpt><trkpt lat="45.708472990098315" lon="11.365023606836733"><ele>187.0</ele><time>2026-03-28T12:39:57.999Z</time></trkpt><trkpt lat="45.708462069051784" lon="11.364897720270857"><ele>187.0</ele><time>2026-03-28T12:39:58.999Z</time></trkpt><trkpt lat="45.708454817400764" lon="11.36477160621371"><ele>187.0</ele><time>2026-03-28T12:39:59.999Z</time></trkpt><trkpt lat="45.708484898468875" lon="11.364641621551202"><ele>187.0</ele><time>2026-03-28T12:40:00.999Z</time></trkpt><trkpt lat="45.708523955815785" lon="11.364503105478258"><ele>187.0</ele><time>2026-03-28T12:40:01.999Z</time></trkpt><trkpt lat="45.70856441210786" lon="11.36434485864179"><ele>187.0</ele><time>2026-03-28T12:40:02.999Z</time></trkpt><trkpt lat="45.70861155709701" lon="11.364172518095328"><ele>187.25</ele><time>2026-03-28T12:40:03.999Z</time></trkpt><trkpt lat="45.708660332544184" lon="11.364001471745354"><ele>187.5</ele><time>2026-03-28T12:40:04.999Z</time></trkpt><trkpt lat="45.70871345322156" lon="11.36383233110256"><ele>187.75</ele><time>2026-03-28T12:40:05.999Z</time></trkpt><trkpt lat="45.70876782863035" lon="11.36365597276358"><ele>188.0</ele><time>2026-03-28T12:40:06.999Z</time></trkpt><trkpt lat="45.70882516924188" lon="11.363485255318603"><ele>188.0</ele><time>2026-03-28T12:40:07.999Z</time></trkpt><trkpt lat="45.70889488343008" lon="11.363324052561591"><ele>188.0</ele><time>2026-03-28T12:40:08.999Z</time></trkpt><trkpt lat="45.70895610250189" lon="11.363152981135139"><ele>188.0</ele><time>2026-03-28T12:40:09.999Z</time></trkpt><trkpt lat="45.70901713823644" lon="11.362982673338207"><ele>188.0</ele><time>2026-03-28T12:40:10.999Z</time></trkpt><trkpt lat="45.70907886395202" lon="11.362809645880882"><ele>188.25</ele><time>2026-03-28T12:40:11.999Z</time></trkpt><trkpt lat="45.709147568979034" lon="11.362640250553866"><ele>188.5</ele><time>2026-03-28T12:40:12.999Z</time></trkpt><trkpt lat="45.70921939210217" lon="11.36248383677707"><ele>188.75</ele><time>2026-03-28T12:40:13.999Z</time></trkpt><trkpt lat="45.70930964721879" lon="11.36234949989849"><ele>189.0</ele><time>2026-03-28T12:40:14.999Z</time></trkpt><trkpt lat="45.709404426113146" lon="11.362230824099417"><ele>189.0</ele><time>2026-03-28T12:40:15.999Z</time></trkpt><trkpt lat="45.70950147699724" lon="11.362156722383082"><ele>189.0</ele><time>2026-03-28T12:40:16.999Z</time></trkpt><trkpt lat="45.70959989470368" lon="11.362121828038719"><ele>189.0</ele><time>2026-03-28T12:40:17.999Z</time></trkpt><trkpt lat="45.70967968029372" lon="11.362121830948505"><ele>189.0</ele><time>2026-03-28T12:40:18.999Z</time></trkpt><trkpt lat="45.70978089804835" lon="11.36220758173837"><ele>189.0</ele><time>2026-03-28T12:40:20.999Z</time></trkpt><trkpt lat="45.70984236244266" lon="11.362250511737026"><ele>189.0</ele><time>2026-03-28T12:40:21.999Z</time></trkpt><trkpt lat="45.70991539035482" lon="11.362256990514041"><ele>189.0</ele><time>2026-03-28T12:40:22.999Z</time></trkpt><trkpt lat="45.709980897467695" lon="11.362217989290516"><ele>189.0</ele><time>2026-03-28T12:40:23.999Z</time></trkpt><trkpt lat="45.71002881586745" lon="11.362143037024774"><ele>189.0</ele><time>2026-03-28T12:40:24.999Z</time></trkpt><trkpt lat="45.710037872697804" lon="11.362051856345264"><ele>189.0</ele><time>2026-03-28T12:40:25.999Z</time></trkpt><trkpt lat="45.71002477015214" lon="11.361960537015332"><ele>189.0</ele><time>2026-03-28T12:40:26.999Z</time></trkpt><trkpt lat="45.70997929323322" lon="11.361878239655155"><ele>189.0</ele><time>2026-03-28T12:40:27.999Z</time></trkpt><trkpt lat="45.70992020135222" lon="11.361795872139984"><ele>189.0</ele><time>2026-03-28T12:40:28.999Z</time></trkpt><trkpt lat="45.709863967716316" lon="11.361701101999175"><ele>189.0</ele><time>2026-03-28T12:40:29.999Z</time></trkpt><trkpt lat="45.709831075062986" lon="11.361573673176572"><ele>189.0</ele><time>2026-03-28T12:40:30.999Z</time></trkpt><trkpt lat="45.70983160720086" lon="11.361434134504133"><ele>189.0</ele><time>2026-03-28T12:40:31.999Z</time></trkpt><trkpt lat="45.70987518521496" lon="11.361301044321259"><ele>189.0</ele><time>2026-03-28T12:40:32.999Z</time></trkpt><trkpt lat="45.709910642739956" lon="11.361160300422009"><ele>189.2</ele><time>2026-03-28T12:40:33.999Z</time></trkpt><trkpt lat="45.70993785550068" lon="11.361004963861967"><ele>189.39999999999998</ele><time>2026-03-28T12:40:34.999Z</time></trkpt><trkpt lat="45.70997552104991" lon="11.360852986756372"><ele>189.6</ele><time>2026-03-28T12:40:36Z</time></trkpt><trkpt lat="45.71001501931732" lon="11.360717810166593"><ele>189.8</ele><time>2026-03-28T12:40:37Z</time></trkpt><trkpt lat="45.710055482753724" lon="11.360571644157028"><ele>190.0</ele><time>2026-03-28T12:40:38Z</time></trkpt><trkpt lat="45.71009093043614" lon="11.360434117615466"><ele>190.0</ele><time>2026-03-28T12:40:39Z</time></trkpt><trkpt lat="45.71012230922815" lon="11.360306419919183"><ele>190.0</ele><time>2026-03-28T12:40:40Z</time></trkpt><trkpt lat="45.71015454512523" lon="11.360191138732096"><ele>190.0</ele><time>2026-03-28T12:40:41Z</time></trkpt><trkpt lat="45.71018530048151" lon="11.360080650369191"><ele>190.0</ele><time>2026-03-28T12:40:42Z</time></trkpt><trkpt lat="45.71021510224602" lon="11.359973834708677"><ele>190.0</ele><time>2026-03-28T12:40:43Z</time></trkpt><trkpt lat="45.71024755371755" lon="11.3598736726131"><ele>190.0</ele><time>2026-03-28T12:40:44Z</time></trkpt><trkpt lat="45.71028488655206" lon="11.35977989093633"><ele>190.0</ele><time>2026-03-28T12:40:45Z</time></trkpt><trkpt lat="45.71033351653304" lon="11.359700763905733"><ele>190.0</ele><time>2026-03-28T12:40:46Z</time></trkpt><trkpt lat="45.71039988495265" lon="11.359658969951395"><ele>190.0</ele><time>2026-03-28T12:40:47Z</time></trkpt><trkpt lat="45.71046549543322" lon="11.359557219631679"><ele>190.0</ele><time>2026-03-28T12:40:49Z</time></trkpt><trkpt lat="45.71054989097983" lon="11.359515356840088"><ele>190.0</ele><time>2026-03-28T12:40:51Z</time></trkpt><trkpt lat="45.710673751933626" lon="11.35951823480361"><ele>190.28571428571428</ele><time>2026-03-28T12:40:53Z</time></trkpt><trkpt lat="45.71073964662259" lon="11.359492972791369"><ele>190.57142857142858</ele><time>2026-03-28T12:40:54Z</time></trkpt><trkpt lat="45.710780216411855" lon="11.35938967692963"><ele>190.85714285714283</ele><time>2026-03-28T12:40:55Z</time></trkpt><trkpt lat="45.71081274754503" lon="11.359292888734567"><ele>191.14285714285714</ele><time>2026-03-28T12:40:56Z</time></trkpt><trkpt lat="45.71084055907846" lon="11.359191442939952"><ele>191.42857142857142</ele><time>2026-03-28T12:40:57Z</time></trkpt><trkpt lat="45.710862559951835" lon="11.359094280448181"><ele>191.7142857142857</ele><time>2026-03-28T12:40:58Z</time></trkpt><trkpt lat="45.71087836227625" lon="11.359001649890129"><ele>192.0</ele><time>2026-03-28T12:40:59Z</time></trkpt><trkpt lat="45.71087908245622" lon="11.358907822520038"><ele>192.16666666666666</ele><time>2026-03-28T12:41:00Z</time></trkpt><trkpt lat="45.710856764682724" lon="11.358821779011597"><ele>192.33333333333331</ele><time>2026-03-28T12:41:01Z</time></trkpt><trkpt lat="45.71076770014071" lon="11.358696211812063"><ele>192.5</ele><time>2026-03-28T12:41:03Z</time></trkpt><trkpt lat="45.7107210746562" lon="11.358631874095275"><ele>192.66666666666666</ele><time>2026-03-28T12:41:04Z</time></trkpt><trkpt lat="45.71065629018422" lon="11.358622778397438"><ele>192.83333333333331</ele><time>2026-03-28T12:41:05Z</time></trkpt><trkpt lat="45.710682820002305" lon="11.358441698748726"><ele>193.0</ele><time>2026-03-28T12:41:06Z</time></trkpt><trkpt lat="45.71069484866701" lon="11.358328487576305"><ele>193.0</ele><time>2026-03-28T12:41:07Z</time></trkpt><trkpt lat="45.71073333377177" lon="11.358239921384781"><ele>193.0</ele><time>2026-03-28T12:41:08Z</time></trkpt><trkpt lat="45.71077673260592" lon="11.358081504596123"><ele>193.0</ele><time>2026-03-28T12:41:10Z</time></trkpt><trkpt lat="45.710810491538055" lon="11.357958301523949"><ele>193.0</ele><time>2026-03-28T12:41:12Z</time></trkpt><trkpt lat="45.71082424444838" lon="11.357764542141592"><ele>193.0</ele><time>2026-03-28T12:41:14Z</time></trkpt><trkpt lat="45.71086071998099" lon="11.357639295239165"><ele>193.60000000000002</ele><time>2026-03-28T12:41:15Z</time></trkpt><trkpt lat="45.710890875957986" lon="11.357501950254905"><ele>194.20000000000002</ele><time>2026-03-28T12:41:16Z</time></trkpt><trkpt lat="45.71091114278299" lon="11.357361884626023"><ele>194.8</ele><time>2026-03-28T12:41:17Z</time></trkpt><trkpt lat="45.71095511290272" lon="11.3572230538537"><ele>195.4</ele><time>2026-03-28T12:41:18Z</time></trkpt><trkpt lat="45.71098727702168" lon="11.35707080520071"><ele>196.0</ele><time>2026-03-28T12:41:19Z</time></trkpt><trkpt lat="45.711014282684964" lon="11.356913493632675"><ele>195.75</ele><time>2026-03-28T12:41:20Z</time></trkpt><trkpt lat="45.71104999153664" lon="11.356752800839606"><ele>195.5</ele><time>2026-03-28T12:41:21Z</time></trkpt><trkpt lat="45.71108566472481" lon="11.35659704527912"><ele>195.25</ele><time>2026-03-28T12:41:22Z</time></trkpt><trkpt lat="45.71111759517053" lon="11.356436513517421"><ele>195.0</ele><time>2026-03-28T12:41:23Z</time></trkpt><trkpt lat="45.71114309014133" lon="11.3562808476193"><ele>195.8</ele><time>2026-03-28T12:41:24Z</time></trkpt><trkpt lat="45.71117155010733" lon="11.35613219468466"><ele>196.6</ele><time>2026-03-28T12:41:25Z</time></trkpt><trkpt lat="45.711202216138936" lon="11.355996742684267"><ele>197.39999999999998</ele><time>2026-03-28T12:41:26Z</time></trkpt><trkpt lat="45.71123507445957" lon="11.355868812173112"><ele>198.2</ele><time>2026-03-28T12:41:27Z</time></trkpt><trkpt lat="45.711264579332344" lon="11.355749501021085"><ele>199.0</ele><time>2026-03-28T12:41:28Z</time></trkpt><trkpt lat="45.71129115142437" lon="11.35563353803879"><ele>199.2</ele><time>2026-03-28T12:41:29Z</time></trkpt><trkpt lat="45.711315522791615" lon="11.355511869669714"><ele>199.39999999999998</ele><time>2026-03-28T12:41:30Z</time></trkpt><trkpt lat="45.71134051309688" lon="11.355386802276065"><ele>199.6</ele><time>2026-03-28T12:41:31Z</time></trkpt><trkpt lat="45.711372085185346" lon="11.355256933562236"><ele>199.8</ele><time>2026-03-28T12:41:32Z</time></trkpt><trkpt lat="45.71141241903482" lon="11.355126465226858"><ele>200.0</ele><time>2026-03-28T12:41:33Z</time></trkpt><trkpt lat="45.71145679516364" lon="11.354988773736103"><ele>200.0</ele><time>2026-03-28T12:41:34Z</time></trkpt><trkpt lat="45.711504130507436" lon="11.35484849988217"><ele>200.0</ele><time>2026-03-28T12:41:35Z</time></trkpt><trkpt lat="45.711549149328704" lon="11.354702364364593"><ele>200.0</ele><time>2026-03-28T12:41:36Z</time></trkpt><trkpt lat="45.71159437007375" lon="11.354556181601223"><ele>200.0</ele><time>2026-03-28T12:41:37Z</time></trkpt><trkpt lat="45.711643631010354" lon="11.354414621959235"><ele>200.0</ele><time>2026-03-28T12:41:38Z</time></trkpt><trkpt lat="45.711688210607974" lon="11.354274586294519"><ele>199.8</ele><time>2026-03-28T12:41:39Z</time></trkpt><trkpt lat="45.711731725048615" lon="11.354133483071776"><ele>199.6</ele><time>2026-03-28T12:41:40Z</time></trkpt><trkpt lat="45.711780429050464" lon="11.353999163318413"><ele>199.39999999999998</ele><time>2026-03-28T12:41:41Z</time></trkpt><trkpt lat="45.71182180418523" lon="11.353873513499899"><ele>199.2</ele><time>2026-03-28T12:41:42Z</time></trkpt><trkpt lat="45.711865913427175" lon="11.353756089297933"><ele>199.0</ele><time>2026-03-28T12:41:43Z</time></trkpt><trkpt lat="45.7119100639578" lon="11.353656450312394"><ele>198.99999999999997</ele><time>2026-03-28T12:41:44Z</time></trkpt><trkpt lat="45.71196793802327" lon="11.353569922981869"><ele>199.0</ele><time>2026-03-28T12:41:45Z</time></trkpt><trkpt lat="45.7120224897061" lon="11.353482919931439"><ele>199.0</ele><time>2026-03-28T12:41:46Z</time></trkpt><trkpt lat="45.712048892899304" lon="11.353387627682373"><ele>199.0</ele><time>2026-03-28T12:41:47Z</time></trkpt><trkpt lat="45.71204897738374" lon="11.353254363988732"><ele>198.99999999999997</ele><time>2026-03-28T12:41:48Z</time></trkpt><trkpt lat="45.71206158732683" lon="11.353122006723641"><ele>199.0</ele><time>2026-03-28T12:41:49Z</time></trkpt><trkpt lat="45.71210552643785" lon="11.352993001645212"><ele>199.0</ele><time>2026-03-28T12:41:50Z</time></trkpt><trkpt lat="45.71215414379184" lon="11.352859165515923"><ele>199.0</ele><time>2026-03-28T12:41:51Z</time></trkpt><trkpt lat="45.71220498608108" lon="11.352705830126718"><ele>199.0</ele><time>2026-03-28T12:41:52Z</time></trkpt><trkpt lat="45.7122621280366" lon="11.35254413361097"><ele>199.0</ele><time>2026-03-28T12:41:53Z</time></trkpt><trkpt lat="45.71231536752152" lon="11.352369387449313"><ele>199.5</ele><time>2026-03-28T12:41:54Z</time></trkpt><trkpt lat="45.712365675114945" lon="11.352204384618906"><ele>200.0</ele><time>2026-03-28T12:41:55Z</time></trkpt><trkpt lat="45.71241641271098" lon="11.352044232514137"><ele>200.5</ele><time>2026-03-28T12:41:56Z</time></trkpt><trkpt lat="45.71247028579506" lon="11.351899284614708"><ele>201.0</ele><time>2026-03-28T12:41:57Z</time></trkpt><trkpt lat="45.712521663926964" lon="11.35175801923543"><ele>201.0</ele><time>2026-03-28T12:41:58Z</time></trkpt><trkpt lat="45.712582165536794" lon="11.351623019905734"><ele>201.0</ele><time>2026-03-28T12:41:59Z</time></trkpt><trkpt lat="45.71263229096239" lon="11.351469513910171"><ele>201.0</ele><time>2026-03-28T12:42:00Z</time></trkpt><trkpt lat="45.712680410904326" lon="11.351303130947446"><ele>201.0</ele><time>2026-03-28T12:42:01Z</time></trkpt><trkpt lat="45.7127348137187" lon="11.351129174595759"><ele>201.0</ele><time>2026-03-28T12:42:02Z</time></trkpt><trkpt lat="45.71279155071187" lon="11.350945302262433"><ele>201.0</ele><time>2026-03-28T12:42:03Z</time></trkpt><trkpt lat="45.71284777207395" lon="11.350754071831378"><ele>201.0</ele><time>2026-03-28T12:42:04Z</time></trkpt><trkpt lat="45.712904896084964" lon="11.350564383410761"><ele>201.0</ele><time>2026-03-28T12:42:05Z</time></trkpt><trkpt lat="45.71295964357767" lon="11.350385765861633"><ele>201.5</ele><time>2026-03-28T12:42:06Z</time></trkpt><trkpt lat="45.71301887911576" lon="11.350204122142863"><ele>202.0</ele><time>2026-03-28T12:42:07Z</time></trkpt><trkpt lat="45.71308803472435" lon="11.350022660599503"><ele>202.5</ele><time>2026-03-28T12:42:08Z</time></trkpt><trkpt lat="45.71314942438181" lon="11.349831554532026"><ele>203.0</ele><time>2026-03-28T12:42:09Z</time></trkpt><trkpt lat="45.71320980681941" lon="11.349641616065696"><ele>203.25</ele><time>2026-03-28T12:42:10Z</time></trkpt><trkpt lat="45.71326974995207" lon="11.349442061439964"><ele>203.5</ele><time>2026-03-28T12:42:11Z</time></trkpt><trkpt lat="45.713334233245504" lon="11.349245572274102"><ele>203.75</ele><time>2026-03-28T12:42:12Z</time></trkpt><trkpt lat="45.71339583710262" lon="11.349057709942217"><ele>204.0</ele><time>2026-03-28T12:42:13Z</time></trkpt><trkpt lat="45.71345663069062" lon="11.348874676080385"><ele>204.25</ele><time>2026-03-28T12:42:14Z</time></trkpt><trkpt lat="45.713520535778905" lon="11.348694795048438"><ele>204.5</ele><time>2026-03-28T12:42:15Z</time></trkpt><trkpt lat="45.71358469408738" lon="11.348523763472784"><ele>204.75</ele><time>2026-03-28T12:42:15.999Z</time></trkpt><trkpt lat="45.71364619179743" lon="11.348347858124022"><ele>205.0</ele><time>2026-03-28T12:42:16.999Z</time></trkpt><trkpt lat="45.71370047145459" lon="11.348178690910615"><ele>205.25</ele><time>2026-03-28T12:42:17.999Z</time></trkpt><trkpt lat="45.71375319004261" lon="11.348020748522242"><ele>205.5</ele><time>2026-03-28T12:42:18.999Z</time></trkpt><trkpt lat="45.71380736163431" lon="11.347862522170333"><ele>205.75</ele><time>2026-03-28T12:42:19.999Z</time></trkpt><trkpt lat="45.7138666553052" lon="11.347715917614007"><ele>206.0</ele><time>2026-03-28T12:42:20.999Z</time></trkpt><trkpt lat="45.71391236635995" lon="11.347568315328285"><ele>206.00000000000003</ele><time>2026-03-28T12:42:21.999Z</time></trkpt><trkpt lat="45.713951529624374" lon="11.347431963414312"><ele>206.0</ele><time>2026-03-28T12:42:22.999Z</time></trkpt><trkpt lat="45.71398821845786" lon="11.347305175217018"><ele>206.0</ele><time>2026-03-28T12:42:23.999Z</time></trkpt><trkpt lat="45.71402318340695" lon="11.34719044305956"><ele>206.0</ele><time>2026-03-28T12:42:24.999Z</time></trkpt><trkpt lat="45.71405474445002" lon="11.347085353080494"><ele>206.00000000000003</ele><time>2026-03-28T12:42:25.999Z</time></trkpt><trkpt lat="45.714087105349016" lon="11.346983989206791"><ele>206.0</ele><time>2026-03-28T12:42:26.999Z</time></trkpt><trkpt lat="45.71412660787587" lon="11.346892437906872"><ele>206.16666666666669</ele><time>2026-03-28T12:42:27.999Z</time></trkpt><trkpt lat="45.71415599925703" lon="11.346791387907412"><ele>206.33333333333334</ele><time>2026-03-28T12:42:28.999Z</time></trkpt><trkpt lat="45.71419102203988" lon="11.346667862136767"><ele>206.5</ele><time>2026-03-28T12:42:29.999Z</time></trkpt><trkpt lat="45.714227295997375" lon="11.346549374916162"><ele>206.66666666666669</ele><time>2026-03-28T12:42:30.999Z</time></trkpt><trkpt lat="45.71427965579609" lon="11.346440698943159"><ele>206.83333333333334</ele><time>2026-03-28T12:42:31.999Z</time></trkpt><trkpt lat="45.71431572114607" lon="11.346330598511132"><ele>207.0</ele><time>2026-03-28T12:42:32.999Z</time></trkpt><trkpt lat="45.714349062596476" lon="11.346228813870612"><ele>207.0</ele><time>2026-03-28T12:42:33.999Z</time></trkpt><trkpt lat="45.71438164111977" lon="11.346129358134501"><ele>207.0</ele><time>2026-03-28T12:42:34.999Z</time></trkpt><trkpt lat="45.71441693919799" lon="11.346021600203434"><ele>207.0</ele><time>2026-03-28T12:42:35.999Z</time></trkpt><trkpt lat="45.71445575965105" lon="11.345903089719235"><ele>207.0</ele><time>2026-03-28T12:42:36.999Z</time></trkpt><trkpt lat="45.714499129325176" lon="11.34576951573175"><ele>207.0</ele><time>2026-03-28T12:42:37.999Z</time></trkpt><trkpt lat="45.714542570451755" lon="11.34563652584146"><ele>207.0</ele><time>2026-03-28T12:42:38.999Z</time></trkpt><trkpt lat="45.71458811164357" lon="11.345497106913239"><ele>207.0</ele><time>2026-03-28T12:42:39.999Z</time></trkpt><trkpt lat="45.714634217408474" lon="11.345355960584467"><ele>207.0</ele><time>2026-03-28T12:42:40.999Z</time></trkpt><trkpt lat="45.71467049780666" lon="11.345200473215485"><ele>207.0</ele><time>2026-03-28T12:42:42Z</time></trkpt><trkpt lat="45.71472449578658" lon="11.345047466017729"><ele>207.0</ele><time>2026-03-28T12:42:43Z</time></trkpt><trkpt lat="45.71478074650792" lon="11.344888379528738"><ele>207.0</ele><time>2026-03-28T12:42:44Z</time></trkpt><trkpt lat="45.71483175185681" lon="11.34472794846758"><ele>207.0</ele><time>2026-03-28T12:42:45Z</time></trkpt><trkpt lat="45.71488589428893" lon="11.34455470966424"><ele>207.0</ele><time>2026-03-28T12:42:46Z</time></trkpt><trkpt lat="45.71494404997366" lon="11.344375555491272"><ele>207.25</ele><time>2026-03-28T12:42:47Z</time></trkpt><trkpt lat="45.71500533766901" lon="11.34419147174938"><ele>207.5</ele><time>2026-03-28T12:42:48Z</time></trkpt><trkpt lat="45.71506848431803" lon="11.3440065587502"><ele>207.75</ele><time>2026-03-28T12:42:49Z</time></trkpt><trkpt lat="45.71513112994217" lon="11.343810991697069"><ele>208.0</ele><time>2026-03-28T12:42:50Z</time></trkpt><trkpt lat="45.71519812240692" lon="11.343618032775149"><ele>208.75</ele><time>2026-03-28T12:42:51Z</time></trkpt><trkpt lat="45.715263556387" lon="11.343424762817964"><ele>209.5</ele><time>2026-03-28T12:42:52Z</time></trkpt><trkpt lat="45.71533446175442" lon="11.343239546068146"><ele>210.25</ele><time>2026-03-28T12:42:53Z</time></trkpt><trkpt lat="45.71539519120259" lon="11.343048460572023"><ele>211.0</ele><time>2026-03-28T12:42:54Z</time></trkpt><trkpt lat="45.715453094986884" lon="11.342858329054629"><ele>211.0</ele><time>2026-03-28T12:42:55Z</time></trkpt><trkpt lat="45.71550569420007" lon="11.342669417363243"><ele>211.0</ele><time>2026-03-28T12:42:56Z</time></trkpt><trkpt lat="45.71555606294539" lon="11.3424803456941"><ele>211.0</ele><time>2026-03-28T12:42:57Z</time></trkpt><trkpt lat="45.71560789187674" lon="11.342305969379199"><ele>211.0</ele><time>2026-03-28T12:42:58Z</time></trkpt><trkpt lat="45.715649009276724" lon="11.342128888536708"><ele>211.0</ele><time>2026-03-28T12:42:59Z</time></trkpt><trkpt lat="45.715671739024856" lon="11.341953649947422"><ele>211.0</ele><time>2026-03-28T12:43:00Z</time></trkpt><trkpt lat="45.71567135453317" lon="11.341762961792256"><ele>211.0</ele><time>2026-03-28T12:43:01Z</time></trkpt><trkpt lat="45.71566050564846" lon="11.341556218341164"><ele>211.0</ele><time>2026-03-28T12:43:02Z</time></trkpt><trkpt lat="45.71564090678778" lon="11.341339404024163"><ele>212.0</ele><time>2026-03-28T12:43:03Z</time></trkpt><trkpt lat="45.715618693422776" lon="11.341106814211724"><ele>213.0</ele><time>2026-03-28T12:43:04Z</time></trkpt><trkpt lat="45.71559983197329" lon="11.340865441925569"><ele>214.0</ele><time>2026-03-28T12:43:05Z</time></trkpt><trkpt lat="45.71558177055304" lon="11.340613655061437"><ele>213.66666666666666</ele><time>2026-03-28T12:43:06Z</time></trkpt><trkpt lat="45.71555195020011" lon="11.3403788808559"><ele>213.33333333333331</ele><time>2026-03-28T12:43:07Z</time></trkpt><trkpt lat="45.71553965632852" lon="11.340146606463108"><ele>213.0</ele><time>2026-03-28T12:43:08Z</time></trkpt><trkpt lat="45.71552291932737" lon="11.33991881099644"><ele>214.0</ele><time>2026-03-28T12:43:09Z</time></trkpt><trkpt lat="45.71550579901733" lon="11.339685799610075"><ele>215.0</ele><time>2026-03-28T12:43:10Z</time></trkpt><trkpt lat="45.71547286634743" lon="11.339451669149037"><ele>216.0</ele><time>2026-03-28T12:43:11Z</time></trkpt><trkpt lat="45.71545856764652" lon="11.339214497207479"><ele>216.0</ele><time>2026-03-28T12:43:12Z</time></trkpt><trkpt lat="45.71544332554272" lon="11.338975331047479"><ele>216.0</ele><time>2026-03-28T12:43:13Z</time></trkpt><trkpt lat="45.71542803730324" lon="11.338734660681563"><ele>216.0</ele><time>2026-03-28T12:43:14Z</time></trkpt><trkpt lat="45.71541325226881" lon="11.338495714289449"><ele>217.0</ele><time>2026-03-28T12:43:15Z</time></trkpt><trkpt lat="45.715394763227145" lon="11.338260936895306"><ele>218.0</ele><time>2026-03-28T12:43:16Z</time></trkpt><trkpt lat="45.71537540112195" lon="11.338039057342625"><ele>219.0</ele><time>2026-03-28T12:43:17Z</time></trkpt><trkpt lat="45.71535900340353" lon="11.33782800992128"><ele>219.25</ele><time>2026-03-28T12:43:18Z</time></trkpt><trkpt lat="45.71534711918161" lon="11.337627590550671"><ele>219.5</ele><time>2026-03-28T12:43:19Z</time></trkpt><trkpt lat="45.7153363313794" lon="11.337439579105903"><ele>219.75</ele><time>2026-03-28T12:43:20Z</time></trkpt><trkpt lat="45.715325187904114" lon="11.337254584614195"><ele>220.0</ele><time>2026-03-28T12:43:21Z</time></trkpt><trkpt lat="45.71531261533691" lon="11.337071788862525"><ele>220.5</ele><time>2026-03-28T12:43:22Z</time></trkpt><trkpt lat="45.71529794578539" lon="11.336893858587285"><ele>221.0</ele><time>2026-03-28T12:43:23Z</time></trkpt><trkpt lat="45.715282493512326" lon="11.336727920291077"><ele>221.5</ele><time>2026-03-28T12:43:24Z</time></trkpt><trkpt lat="45.7152680320976" lon="11.336569343039459"><ele>222.0</ele><time>2026-03-28T12:43:25Z</time></trkpt><trkpt lat="45.71525343666766" lon="11.336421095092877"><ele>222.16666666666666</ele><time>2026-03-28T12:43:26Z</time></trkpt><trkpt lat="45.71524766270333" lon="11.33628536936297"><ele>222.33333333333331</ele><time>2026-03-28T12:43:27Z</time></trkpt><trkpt lat="45.71525081802208" lon="11.336156394210214"><ele>222.5</ele><time>2026-03-28T12:43:28Z</time></trkpt><trkpt lat="45.7152366028048" lon="11.336029532795035"><ele>222.66666666666666</ele><time>2026-03-28T12:43:29Z</time></trkpt><trkpt lat="45.715237205486076" lon="11.335903025377661"><ele>222.83333333333331</ele><time>2026-03-28T12:43:30Z</time></trkpt><trkpt lat="45.715238803072616" lon="11.335784179639823"><ele>223.0</ele><time>2026-03-28T12:43:31Z</time></trkpt><trkpt lat="45.715240228515455" lon="11.335671684775223"><ele>223.0</ele><time>2026-03-28T12:43:32Z</time></trkpt><trkpt lat="45.71523820399343" lon="11.335552816007173"><ele>223.0</ele><time>2026-03-28T12:43:33Z</time></trkpt><trkpt lat="45.715233980022724" lon="11.335421940576419"><ele>223.0</ele><time>2026-03-28T12:43:34Z</time></trkpt><trkpt lat="45.7152292722221" lon="11.335274402745771"><ele>223.0</ele><time>2026-03-28T12:43:35Z</time></trkpt><trkpt lat="45.71521814614749" lon="11.33511075461729"><ele>223.0</ele><time>2026-03-28T12:43:36Z</time></trkpt><trkpt lat="45.71520366333157" lon="11.334940834388197"><ele>222.75</ele><time>2026-03-28T12:43:37Z</time></trkpt><trkpt lat="45.7151895631317" lon="11.33476511678806"><ele>222.5</ele><time>2026-03-28T12:43:38Z</time></trkpt><trkpt lat="45.7151772884789" lon="11.334587328263373"><ele>222.25</ele><time>2026-03-28T12:43:39Z</time></trkpt><trkpt lat="45.715165902324166" lon="11.334409860020306"><ele>222.0</ele><time>2026-03-28T12:43:40Z</time></trkpt><trkpt lat="45.71516497713705" lon="11.334223172552962"><ele>221.39999999999998</ele><time>2026-03-28T12:43:41Z</time></trkpt><trkpt lat="45.71515356396037" lon="11.33405720866027"><ele>220.79999999999998</ele><time>2026-03-28T12:43:42Z</time></trkpt><trkpt lat="45.715141312058904" lon="11.33389772115583"><ele>220.2</ele><time>2026-03-28T12:43:43Z</time></trkpt><trkpt lat="45.71512679868466" lon="11.333752729344344"><ele>219.6</ele><time>2026-03-28T12:43:44Z</time></trkpt><trkpt lat="45.71511092289074" lon="11.333613642035138"><ele>219.0</ele><time>2026-03-28T12:43:45Z</time></trkpt><trkpt lat="45.71509431335416" lon="11.333477432419597"><ele>218.83333333333334</ele><time>2026-03-28T12:43:46Z</time></trkpt><trkpt lat="45.715094706505106" lon="11.333350232208579"><ele>218.66666666666669</ele><time>2026-03-28T12:43:47Z</time></trkpt><trkpt lat="45.71511275815256" lon="11.333226849737242"><ele>218.5</ele><time>2026-03-28T12:43:48Z</time></trkpt><trkpt lat="45.71512156062259" lon="11.333110373937417"><ele>218.33333333333334</ele><time>2026-03-28T12:43:49Z</time></trkpt><trkpt lat="45.71510330020253" lon="11.333011527600355"><ele>218.16666666666669</ele><time>2026-03-28T12:43:50Z</time></trkpt><trkpt lat="45.71505567986423" lon="11.332944683089973"><ele>218.0</ele><time>2026-03-28T12:43:51Z</time></trkpt><trkpt lat="45.714994042678825" lon="11.332918927790876"><ele>218.0</ele><time>2026-03-28T12:43:52Z</time></trkpt><trkpt lat="45.714921563266046" lon="11.33293594103023"><ele>218.0</ele><time>2026-03-28T12:43:53Z</time></trkpt><trkpt lat="45.71485040943602" lon="11.332993113104807"><ele>218.0</ele><time>2026-03-28T12:43:54Z</time></trkpt><trkpt lat="45.71476145594802" lon="11.333037001081566"><ele>218.0</ele><time>2026-03-28T12:43:55Z</time></trkpt><trkpt lat="45.714653356335205" lon="11.333052404927376"><ele>218.0</ele><time>2026-03-28T12:43:56Z</time></trkpt><trkpt lat="45.714542259909955" lon="11.3330572968928"><ele>218.0</ele><time>2026-03-28T12:43:57Z</time></trkpt><trkpt lat="45.71444354377813" lon="11.333057640090233"><ele>218.0</ele><time>2026-03-28T12:43:58Z</time></trkpt><trkpt lat="45.714349351871" lon="11.333051906944599"><ele>218.0</ele><time>2026-03-28T12:43:59Z</time></trkpt><trkpt lat="45.71425451431514" lon="11.333041413015026"><ele>218.0</ele><time>2026-03-28T12:44:00Z</time></trkpt><trkpt lat="45.71415963786158" lon="11.333023600609152"><ele>218.0</ele><time>2026-03-28T12:44:01Z</time></trkpt><trkpt lat="45.71406608157331" lon="11.333006395252823"><ele>217.8</ele><time>2026-03-28T12:44:02Z</time></trkpt><trkpt lat="45.71397505390267" lon="11.332967674060841"><ele>217.60000000000002</ele><time>2026-03-28T12:44:03Z</time></trkpt><trkpt lat="45.71388894577842" lon="11.332907300363928"><ele>217.39999999999998</ele><time>2026-03-28T12:44:04Z</time></trkpt><trkpt lat="45.713810626492304" lon="11.332829497841196"><ele>217.2</ele><time>2026-03-28T12:44:05Z</time></trkpt><trkpt lat="45.71373211393975" lon="11.332746666481444"><ele>217.0</ele><time>2026-03-28T12:44:05.999Z</time></trkpt><trkpt lat="45.713640897866966" lon="11.33267773056176"><ele>216.8</ele><time>2026-03-28T12:44:06.999Z</time></trkpt><trkpt lat="45.71355513678868" lon="11.332606753368083"><ele>216.6</ele><time>2026-03-28T12:44:07.999Z</time></trkpt><trkpt lat="45.71349046465037" lon="11.332501345958322"><ele>216.40000000000003</ele><time>2026-03-28T12:44:08.999Z</time></trkpt><trkpt lat="45.713451164191675" lon="11.332371527084431"><ele>216.20000000000002</ele><time>2026-03-28T12:44:09.999Z</time></trkpt><trkpt lat="45.7134421362319" lon="11.332227491453464"><ele>216.0</ele><time>2026-03-28T12:44:10.999Z</time></trkpt><trkpt lat="45.71345271060055" lon="11.332067024493313"><ele>216.0</ele><time>2026-03-28T12:44:11.999Z</time></trkpt><trkpt lat="45.713490356723895" lon="11.331887157810765"><ele>216.0</ele><time>2026-03-28T12:44:12.999Z</time></trkpt><trkpt lat="45.7135166384923" lon="11.331677547509397"><ele>216.0</ele><time>2026-03-28T12:44:13.999Z</time></trkpt><trkpt lat="45.71354435340805" lon="11.331444504212559"><ele>216.0</ele><time>2026-03-28T12:44:14.999Z</time></trkpt><trkpt lat="45.71357426230955" lon="11.33119072464002"><ele>217.0</ele><time>2026-03-28T12:44:15.999Z</time></trkpt><trkpt lat="45.713603095948294" lon="11.330915937133478"><ele>218.0</ele><time>2026-03-28T12:44:16.999Z</time></trkpt><trkpt lat="45.7136140568221" lon="11.33062550699112"><ele>219.0</ele><time>2026-03-28T12:44:17.999Z</time></trkpt><trkpt lat="45.713631044305814" lon="11.33034587801458"><ele>219.66666666666669</ele><time>2026-03-28T12:44:18.999Z</time></trkpt><trkpt lat="45.71363431024277" lon="11.330049718799955"><ele>220.33333333333334</ele><time>2026-03-28T12:44:19.999Z</time></trkpt><trkpt lat="45.713625385858116" lon="11.329742534261326"><ele>221.0</ele><time>2026-03-28T12:44:20.999Z</time></trkpt><trkpt lat="45.71361278970181" lon="11.3294280878538"><ele>221.0</ele><time>2026-03-28T12:44:21.999Z</time></trkpt><trkpt lat="45.71360699972117" lon="11.329119894339804"><ele>221.0</ele><time>2026-03-28T12:44:22.999Z</time></trkpt><trkpt lat="45.71360591492135" lon="11.32881718961002"><ele>221.0</ele><time>2026-03-28T12:44:23.999Z</time></trkpt><trkpt lat="45.713612776676364" lon="11.328516456906396"><ele>221.0</ele><time>2026-03-28T12:44:24.999Z</time></trkpt><trkpt lat="45.713647122588576" lon="11.328211695939054"><ele>221.0</ele><time>2026-03-28T12:44:25.999Z</time></trkpt><trkpt lat="45.713672144288815" lon="11.327898147766598"><ele>221.0</ele><time>2026-03-28T12:44:26.999Z</time></trkpt><trkpt lat="45.713699993069184" lon="11.32757148775388"><ele>221.0</ele><time>2026-03-28T12:44:27.999Z</time></trkpt><trkpt lat="45.71372974659239" lon="11.327234886974212"><ele>221.0</ele><time>2026-03-28T12:44:28.999Z</time></trkpt><trkpt lat="45.71375893507304" lon="11.326893870672595"><ele>221.0</ele><time>2026-03-28T12:44:29.999Z</time></trkpt><trkpt lat="45.71376806715433" lon="11.326546892854102"><ele>221.0</ele><time>2026-03-28T12:44:30.999Z</time></trkpt><trkpt lat="45.71378708401592" lon="11.326213289450447"><ele>222.0</ele><time>2026-03-28T12:44:31.999Z</time></trkpt><trkpt lat="45.71380060720333" lon="11.325877975004211"><ele>223.0</ele><time>2026-03-28T12:44:32.999Z</time></trkpt><trkpt lat="45.71379745933939" lon="11.325541607833891"><ele>224.0</ele><time>2026-03-28T12:44:33.999Z</time></trkpt><trkpt lat="45.71378800948658" lon="11.325204487615254"><ele>225.0</ele><time>2026-03-28T12:44:34.999Z</time></trkpt><trkpt lat="45.713778018131734" lon="11.32485991508512"><ele>225.5</ele><time>2026-03-28T12:44:35.999Z</time></trkpt><trkpt lat="45.71376640605026" lon="11.324508917378898"><ele>226.0</ele><time>2026-03-28T12:44:36.999Z</time></trkpt><trkpt lat="45.71375905123933" lon="11.324149935409242"><ele>227.0</ele><time>2026-03-28T12:44:37.999Z</time></trkpt><trkpt lat="45.7137553447863" lon="11.323781823532027"><ele>228.0</ele><time>2026-03-28T12:44:38.999Z</time></trkpt><trkpt lat="45.71375355276637" lon="11.323410864527226"><ele>227.0</ele><time>2026-03-28T12:44:39.999Z</time></trkpt><trkpt lat="45.71375096319125" lon="11.323032839600149"><ele>226.0</ele><time>2026-03-28T12:44:40.999Z</time></trkpt><trkpt lat="45.7137398568854" lon="11.322655179566379"><ele>226.0</ele><time>2026-03-28T12:44:41.999Z</time></trkpt><trkpt lat="45.713717484677346" lon="11.322281202895475"><ele>226.0</ele><time>2026-03-28T12:44:42.999Z</time></trkpt><trkpt lat="45.71369104134546" lon="11.32191136944372"><ele>226.5</ele><time>2026-03-28T12:44:43.999Z</time></trkpt><trkpt lat="45.71366485492145" lon="11.321546911336837"><ele>227.0</ele><time>2026-03-28T12:44:44.999Z</time></trkpt><trkpt lat="45.713645557422424" lon="11.321187169105833"><ele>227.0</ele><time>2026-03-28T12:44:45.999Z</time></trkpt><trkpt lat="45.71363854874622" lon="11.32083091057111"><ele>227.0</ele><time>2026-03-28T12:44:46.999Z</time></trkpt><trkpt lat="45.71364022557066" lon="11.320481576980992"><ele>227.5</ele><time>2026-03-28T12:44:48Z</time></trkpt><trkpt lat="45.71365991468251" lon="11.320139013730762"><ele>228.0</ele><time>2026-03-28T12:44:49Z</time></trkpt><trkpt lat="45.713700888002165" lon="11.31980298898907"><ele>230.5</ele><time>2026-03-28T12:44:50Z</time></trkpt><trkpt lat="45.71375304446656" lon="11.319470570895785"><ele>233.0</ele><time>2026-03-28T12:44:51Z</time></trkpt><trkpt lat="45.71380779961861" lon="11.319150848946176"><ele>234.0</ele><time>2026-03-28T12:44:52Z</time></trkpt><trkpt lat="45.71383465071777" lon="11.318844741835697"><ele>235.0</ele><time>2026-03-28T12:44:53Z</time></trkpt><trkpt lat="45.71383543817661" lon="11.318540587862806"><ele>236.0</ele><time>2026-03-28T12:44:54Z</time></trkpt><trkpt lat="45.71380920737689" lon="11.31823076134896"><ele>237.0</ele><time>2026-03-28T12:44:55Z</time></trkpt><trkpt lat="45.71376058286195" lon="11.317923080139911"><ele>238.0</ele><time>2026-03-28T12:44:56Z</time></trkpt><trkpt lat="45.71369321305822" lon="11.317614997699412"><ele>239.0</ele><time>2026-03-28T12:44:57Z</time></trkpt><trkpt lat="45.71362267659866" lon="11.317315612174761"><ele>236.66666666666669</ele><time>2026-03-28T12:44:58Z</time></trkpt><trkpt lat="45.713565377699815" lon="11.317029295629764"><ele>234.33333333333331</ele><time>2026-03-28T12:44:59Z</time></trkpt><trkpt lat="45.71353411298448" lon="11.31675337590707"><ele>232.0</ele><time>2026-03-28T12:45:00Z</time></trkpt><trkpt lat="45.713520884229006" lon="11.316467134892536"><ele>231.66666666666666</ele><time>2026-03-28T12:45:01Z</time></trkpt><trkpt lat="45.71352167593391" lon="11.316175677196803"><ele>231.33333333333331</ele><time>2026-03-28T12:45:02Z</time></trkpt><trkpt lat="45.713537639935154" lon="11.315881082729458"><ele>231.0</ele><time>2026-03-28T12:45:03Z</time></trkpt><trkpt lat="45.71356898732414" lon="11.315584192394844"><ele>232.33333333333331</ele><time>2026-03-28T12:45:04Z</time></trkpt><trkpt lat="45.713618993532116" lon="11.315293178937917"><ele>233.66666666666666</ele><time>2026-03-28T12:45:05Z</time></trkpt><trkpt lat="45.71365613096088" lon="11.315014476280393"><ele>235.0</ele><time>2026-03-28T12:45:06Z</time></trkpt><trkpt lat="45.71378633374578" lon="11.314749226817053"><ele>235.0</ele><time>2026-03-28T12:45:07Z</time></trkpt><trkpt lat="45.71388357370762" lon="11.314476132575818"><ele>235.0</ele><time>2026-03-28T12:45:08Z</time></trkpt><trkpt lat="45.71398005180444" lon="11.31419557185265"><ele>235.0</ele><time>2026-03-28T12:45:09Z</time></trkpt><trkpt lat="45.71406807176859" lon="11.313901257362472"><ele>235.0</ele><time>2026-03-28T12:45:10Z</time></trkpt><trkpt lat="45.714139129436724" lon="11.313597781986319"><ele>235.0</ele><time>2026-03-28T12:45:11Z</time></trkpt><trkpt lat="45.71420609828447" lon="11.31329132797244"><ele>235.0</ele><time>2026-03-28T12:45:12Z</time></trkpt><trkpt lat="45.71427287558664" lon="11.312976769654876"><ele>235.66666666666666</ele><time>2026-03-28T12:45:13Z</time></trkpt><trkpt lat="45.71434186850051" lon="11.312666994065122"><ele>236.33333333333331</ele><time>2026-03-28T12:45:14Z</time></trkpt><trkpt lat="45.714402563957464" lon="11.312403856087425"><ele>237.0</ele><time>2026-03-28T12:45:15Z</time></trkpt><trkpt lat="45.71445812836846" lon="11.312179932739225"><ele>237.0</ele><time>2026-03-28T12:45:16Z</time></trkpt><trkpt lat="45.714517960138764" lon="11.31195344933477"><ele>237.0</ele><time>2026-03-28T12:45:17Z</time></trkpt><trkpt lat="45.71458169249594" lon="11.31171862663936"><ele>237.0</ele><time>2026-03-28T12:45:18Z</time></trkpt><trkpt lat="45.71464076807647" lon="11.311469838680084"><ele>237.66666666666669</ele><time>2026-03-28T12:45:19Z</time></trkpt><trkpt lat="45.714691275200174" lon="11.311208361114039"><ele>238.33333333333334</ele><time>2026-03-28T12:45:20Z</time></trkpt><trkpt lat="45.71474189367261" lon="11.31094355378975"><ele>239.0</ele><time>2026-03-28T12:45:21Z</time></trkpt><trkpt lat="45.71480202989372" lon="11.310686012892146"><ele>239.66666666666669</ele><time>2026-03-28T12:45:22Z</time></trkpt><trkpt lat="45.71487013609134" lon="11.310437165946999"><ele>240.33333333333331</ele><time>2026-03-28T12:45:23Z</time></trkpt><trkpt lat="45.71494796292093" lon="11.31018934099954"><ele>241.0</ele><time>2026-03-28T12:45:24Z</time></trkpt><trkpt lat="45.71504463467564" lon="11.30995009918971"><ele>241.33333333333331</ele><time>2026-03-28T12:45:25Z</time></trkpt><trkpt lat="45.71516029582375" lon="11.309735421214056"><ele>241.66666666666669</ele><time>2026-03-28T12:45:26Z</time></trkpt><trkpt lat="45.71530287252322" lon="11.30956526535868"><ele>242.0</ele><time>2026-03-28T12:45:27Z</time></trkpt><trkpt lat="45.715452068792686" lon="11.309397050148275"><ele>242.0</ele><time>2026-03-28T12:45:28Z</time></trkpt><trkpt lat="45.715604994667515" lon="11.309226955746814"><ele>242.0</ele><time>2026-03-28T12:45:29Z</time></trkpt><trkpt lat="45.715762339401635" lon="11.309054870658878"><ele>242.0</ele><time>2026-03-28T12:45:30Z</time></trkpt><trkpt lat="45.71591581110922" lon="11.308864638123675"><ele>242.0</ele><time>2026-03-28T12:45:31Z</time></trkpt><trkpt lat="45.71606925920662" lon="11.30866292383226"><ele>242.0</ele><time>2026-03-28T12:45:32Z</time></trkpt><trkpt lat="45.7162231235702" lon="11.30845421244395"><ele>242.0</ele><time>2026-03-28T12:45:33Z</time></trkpt><trkpt lat="45.71637102635855" lon="11.30823997844579"><ele>243.33333333333334</ele><time>2026-03-28T12:45:34Z</time></trkpt><trkpt lat="45.71651781344108" lon="11.30803258931288"><ele>244.66666666666669</ele><time>2026-03-28T12:45:35Z</time></trkpt><trkpt lat="45.716655724022544" lon="11.307831182550037"><ele>246.0</ele><time>2026-03-28T12:45:36Z</time></trkpt><trkpt lat="45.71678501305949" lon="11.307636163207492"><ele>246.0</ele><time>2026-03-28T12:45:37Z</time></trkpt><trkpt lat="45.71690182368412" lon="11.307441873738956"><ele>246.0</ele><time>2026-03-28T12:45:38Z</time></trkpt><trkpt lat="45.71700621622491" lon="11.30724789919123"><ele>246.0</ele><time>2026-03-28T12:45:39Z</time></trkpt><trkpt lat="45.71710448734931" lon="11.30705997436505"><ele>246.0</ele><time>2026-03-28T12:45:40Z</time></trkpt><trkpt lat="45.71720146767304" lon="11.306873713540016"><ele>246.0</ele><time>2026-03-28T12:45:41Z</time></trkpt><trkpt lat="45.71730548133661" lon="11.306695002176559"><ele>246.0</ele><time>2026-03-28T12:45:42Z</time></trkpt><trkpt lat="45.7174158952465" lon="11.30652015371712"><ele>247.0</ele><time>2026-03-28T12:45:43Z</time></trkpt><trkpt lat="45.71754085239088" lon="11.306369071349234"><ele>248.0</ele><time>2026-03-28T12:45:44Z</time></trkpt><trkpt lat="45.71768053640751" lon="11.306243804987707"><ele>249.0</ele><time>2026-03-28T12:45:45Z</time></trkpt><trkpt lat="45.71782649320224" lon="11.306128178496662"><ele>250.66666666666669</ele><time>2026-03-28T12:45:46Z</time></trkpt><trkpt lat="45.71796808658347" lon="11.306008253757984"><ele>252.33333333333334</ele><time>2026-03-28T12:45:47Z</time></trkpt><trkpt lat="45.71809914720994" lon="11.30586301271939"><ele>254.0</ele><time>2026-03-28T12:45:48Z</time></trkpt><trkpt lat="45.71821314549976" lon="11.305690853724823"><ele>254.33333333333334</ele><time>2026-03-28T12:45:49Z</time></trkpt><trkpt lat="45.718302198542574" lon="11.305494302002613"><ele>254.66666666666669</ele><time>2026-03-28T12:45:50Z</time></trkpt><trkpt lat="45.718358610030826" lon="11.305290804313254"><ele>255.0</ele><time>2026-03-28T12:45:51Z</time></trkpt><trkpt lat="45.71840063546596" lon="11.30506630367842"><ele>255.0</ele><time>2026-03-28T12:45:52Z</time></trkpt><trkpt lat="45.718447592867406" lon="11.304834417645463"><ele>255.0</ele><time>2026-03-28T12:45:53Z</time></trkpt><trkpt lat="45.71849850562061" lon="11.30459570116619"><ele>255.0</ele><time>2026-03-28T12:45:54Z</time></trkpt><trkpt lat="45.7185596185166" lon="11.304352853182085"><ele>259.3333333333333</ele><time>2026-03-28T12:45:55Z</time></trkpt><trkpt lat="45.71862584916623" lon="11.304104524318106"><ele>263.66666666666663</ele><time>2026-03-28T12:45:56Z</time></trkpt><trkpt lat="45.71869324686423" lon="11.30385108998713"><ele>268.0</ele><time>2026-03-28T12:45:57Z</time></trkpt><trkpt lat="45.71875820075813" lon="11.303591872428253"><ele>268.0</ele><time>2026-03-28T12:45:58Z</time></trkpt><trkpt lat="45.71882173000844" lon="11.303335968883994"><ele>268.0</ele><time>2026-03-28T12:45:59Z</time></trkpt><trkpt lat="45.71888228505431" lon="11.303089981379678"><ele>268.0</ele><time>2026-03-28T12:46:00Z</time></trkpt><trkpt lat="45.71894333957869" lon="11.302858263747213"><ele>268.66666666666663</ele><time>2026-03-28T12:46:01Z</time></trkpt><trkpt lat="45.719000762070564" lon="11.302641531015029"><ele>269.3333333333333</ele><time>2026-03-28T12:46:02Z</time></trkpt><trkpt lat="45.71905589232415" lon="11.302440112156619"><ele>270.0</ele><time>2026-03-28T12:46:03Z</time></trkpt><trkpt lat="45.719112718255666" lon="11.302256542304901"><ele>270.25</ele><time>2026-03-28T12:46:04Z</time></trkpt><trkpt lat="45.71916923199994" lon="11.302088557435686"><ele>270.5</ele><time>2026-03-28T12:46:05Z</time></trkpt><trkpt lat="45.719212075831265" lon="11.301912755730207"><ele>270.75</ele><time>2026-03-28T12:46:06Z</time></trkpt><trkpt lat="45.71923295630123" lon="11.301728570649919"><ele>271.0</ele><time>2026-03-28T12:46:07Z</time></trkpt><trkpt lat="45.71923573279442" lon="11.30153081919438"><ele>271.0</ele><time>2026-03-28T12:46:08Z</time></trkpt><trkpt lat="45.71922364950563" lon="11.301311193717831"><ele>271.0</ele><time>2026-03-28T12:46:09Z</time></trkpt><trkpt lat="45.719200519394406" lon="11.301082579839015"><ele>271.0</ele><time>2026-03-28T12:46:10Z</time></trkpt><trkpt lat="45.719165719613926" lon="11.300837003643236"><ele>271.66666666666663</ele><time>2026-03-28T12:46:11Z</time></trkpt><trkpt lat="45.719127599429015" lon="11.300580866186555"><ele>272.3333333333333</ele><time>2026-03-28T12:46:12Z</time></trkpt><trkpt lat="45.71909906118418" lon="11.300310769597104"><ele>273.0</ele><time>2026-03-28T12:46:13Z</time></trkpt><trkpt lat="45.71908421178713" lon="11.300024031876234"><ele>274.6666666666667</ele><time>2026-03-28T12:46:14Z</time></trkpt><trkpt lat="45.71907872227122" lon="11.2997308962138"><ele>276.33333333333337</ele><time>2026-03-28T12:46:15Z</time></trkpt><trkpt lat="45.71907630954406" lon="11.299432099365132"><ele>278.0</ele><time>2026-03-28T12:46:16Z</time></trkpt><trkpt lat="45.71906855173412" lon="11.299125641409903"><ele>278.33333333333337</ele><time>2026-03-28T12:46:17Z</time></trkpt><trkpt lat="45.71905056467351" lon="11.298814341712365"><ele>278.6666666666667</ele><time>2026-03-28T12:46:17.999Z</time></trkpt><trkpt lat="45.71903749283543" lon="11.298516446419297"><ele>279.0</ele><time>2026-03-28T12:46:18.999Z</time></trkpt><trkpt lat="45.71898418094505" lon="11.298245228272394"><ele>281.3333333333333</ele><time>2026-03-28T12:46:19.999Z</time></trkpt><trkpt lat="45.71895279997501" lon="11.297974347282834"><ele>283.66666666666663</ele><time>2026-03-28T12:46:20.999Z</time></trkpt><trkpt lat="45.7189442131176" lon="11.297710263634098"><ele>286.0</ele><time>2026-03-28T12:46:21.999Z</time></trkpt><trkpt lat="45.718964863535106" lon="11.29745309368571"><ele>286.0</ele><time>2026-03-28T12:46:22.999Z</time></trkpt><trkpt lat="45.718974083611855" lon="11.297199432360417"><ele>286.0</ele><time>2026-03-28T12:46:23.999Z</time></trkpt><trkpt lat="45.71894062289614" lon="11.296953624625852"><ele>286.0</ele><time>2026-03-28T12:46:24.999Z</time></trkpt><trkpt lat="45.718884540869965" lon="11.29671010606874"><ele>286.0</ele><time>2026-03-28T12:46:25.999Z</time></trkpt><trkpt lat="45.718825172984786" lon="11.296455301688667"><ele>286.0</ele><time>2026-03-28T12:46:26.999Z</time></trkpt><trkpt lat="45.71878405895895" lon="11.296203082208125"><ele>286.0</ele><time>2026-03-28T12:46:27.999Z</time></trkpt><trkpt lat="45.71871782027132" lon="11.295971637440793"><ele>286.3333333333333</ele><time>2026-03-28T12:46:28.999Z</time></trkpt><trkpt lat="45.71867853181176" lon="11.295743295061497"><ele>286.6666666666667</ele><time>2026-03-28T12:46:29.999Z</time></trkpt><trkpt lat="45.71865357802104" lon="11.295510231459392"><ele>287.0</ele><time>2026-03-28T12:46:30.999Z</time></trkpt><trkpt lat="45.718651881134186" lon="11.29527046716916"><ele>288.33333333333337</ele><time>2026-03-28T12:46:31.999Z</time></trkpt><trkpt lat="45.71865932839769" lon="11.295017671330635"><ele>289.6666666666667</ele><time>2026-03-28T12:46:32.999Z</time></trkpt><trkpt lat="45.718668226923306" lon="11.294755830426876"><ele>291.0</ele><time>2026-03-28T12:46:33.999Z</time></trkpt><trkpt lat="45.718677958103235" lon="11.294484432073471"><ele>291.0</ele><time>2026-03-28T12:46:34.999Z</time></trkpt><trkpt lat="45.71868985044047" lon="11.294204883952032"><ele>291.0</ele><time>2026-03-28T12:46:35.999Z</time></trkpt><trkpt lat="45.718698807623646" lon="11.293914857557292"><ele>291.0</ele><time>2026-03-28T12:46:36.999Z</time></trkpt><trkpt lat="45.71870955298992" lon="11.293616219995167"><ele>288.3333333333333</ele><time>2026-03-28T12:46:37.999Z</time></trkpt><trkpt lat="45.71872189794409" lon="11.293308474618764"><ele>285.66666666666663</ele><time>2026-03-28T12:46:38.999Z</time></trkpt><trkpt lat="45.71873644105934" lon="11.29300119178447"><ele>283.0</ele><time>2026-03-28T12:46:39.999Z</time></trkpt><trkpt lat="45.71874789230203" lon="11.292702063962517"><ele>281.66666666666663</ele><time>2026-03-28T12:46:40.999Z</time></trkpt><trkpt lat="45.718759102650125" lon="11.29240706938652"><ele>280.3333333333333</ele><time>2026-03-28T12:46:41.999Z</time></trkpt><trkpt lat="45.71877969413609" lon="11.29212213769222"><ele>279.0</ele><time>2026-03-28T12:46:42.999Z</time></trkpt><trkpt lat="45.71881142347067" lon="11.291841079514155"><ele>278.0</ele><time>2026-03-28T12:46:43.999Z</time></trkpt><trkpt lat="45.718854120208064" lon="11.291569656775913"><ele>277.0</ele><time>2026-03-28T12:46:44.999Z</time></trkpt><trkpt lat="45.718907739910044" lon="11.291312311708447"><ele>276.0</ele><time>2026-03-28T12:46:45.999Z</time></trkpt><trkpt lat="45.718974316354995" lon="11.2910851794649"><ele>275.0</ele><time>2026-03-28T12:46:46.999Z</time></trkpt><trkpt lat="45.71906378834527" lon="11.290888982884637"><ele>274.0</ele><time>2026-03-28T12:46:47.999Z</time></trkpt><trkpt lat="45.71917667774752" lon="11.29070753402665"><ele>273.0</ele><time>2026-03-28T12:46:48.999Z</time></trkpt><trkpt lat="45.71930152453949" lon="11.290522152244018"><ele>274.3333333333333</ele><time>2026-03-28T12:46:49.999Z</time></trkpt><trkpt lat="45.71943453789227" lon="11.290333923848031"><ele>275.66666666666663</ele><time>2026-03-28T12:46:50.999Z</time></trkpt><trkpt lat="45.719577408704644" lon="11.29014775428647"><ele>277.0</ele><time>2026-03-28T12:46:51.999Z</time></trkpt><trkpt lat="45.71972665842728" lon="11.28995194541001"><ele>276.0</ele><time>2026-03-28T12:46:52.999Z</time></trkpt><trkpt lat="45.71988255656158" lon="11.289754905297434"><ele>275.0</ele><time>2026-03-28T12:46:54Z</time></trkpt><trkpt lat="45.72004155231201" lon="11.289544106069277"><ele>274.0</ele><time>2026-03-28T12:46:55Z</time></trkpt><trkpt lat="45.72020806223702" lon="11.289325325276304"><ele>275.0</ele><time>2026-03-28T12:46:56Z</time></trkpt><trkpt lat="45.7203794377219" lon="11.28911081243799"><ele>276.0</ele><time>2026-03-28T12:46:57Z</time></trkpt><trkpt lat="45.720540822826386" lon="11.288902081671358"><ele>277.0</ele><time>2026-03-28T12:46:58Z</time></trkpt><trkpt lat="45.72068163695637" lon="11.288690100956286"><ele>277.0</ele><time>2026-03-28T12:46:59Z</time></trkpt><trkpt lat="45.72080069940281" lon="11.288463058210613"><ele>277.0</ele><time>2026-03-28T12:47:00Z</time></trkpt><trkpt lat="45.72091910677914" lon="11.288222731048366"><ele>277.0</ele><time>2026-03-28T12:47:01Z</time></trkpt><trkpt lat="45.72103259113508" lon="11.287962324513613"><ele>285.5</ele><time>2026-03-28T12:47:02Z</time></trkpt><trkpt lat="45.72114814671922" lon="11.287687695136823"><ele>294.0</ele><time>2026-03-28T12:47:03Z</time></trkpt><trkpt lat="45.72127018246384" lon="11.28740431896731"><ele>290.0</ele><time>2026-03-28T12:47:04Z</time></trkpt><trkpt lat="45.72139026589051" lon="11.287119118317445"><ele>286.0</ele><time>2026-03-28T12:47:05Z</time></trkpt><trkpt lat="45.72150677872629" lon="11.28684976675547"><ele>286.0</ele><time>2026-03-28T12:47:06Z</time></trkpt><trkpt lat="45.72161745966924" lon="11.286586857015998"><ele>286.0</ele><time>2026-03-28T12:47:07Z</time></trkpt><trkpt lat="45.72171979534016" lon="11.286332589906477"><ele>286.0</ele><time>2026-03-28T12:47:08Z</time></trkpt><trkpt lat="45.72181566778126" lon="11.286086987165001"><ele>285.66666666666663</ele><time>2026-03-28T12:47:09Z</time></trkpt><trkpt lat="45.72189389632105" lon="11.285841130649821"><ele>285.3333333333333</ele><time>2026-03-28T12:47:10Z</time></trkpt><trkpt lat="45.721956762238555" lon="11.285590010322021"><ele>285.0</ele><time>2026-03-28T12:47:11Z</time></trkpt><trkpt lat="45.72200858931299" lon="11.28533443376312"><ele>294.6666666666667</ele><time>2026-03-28T12:47:12Z</time></trkpt><trkpt lat="45.72204803108499" lon="11.285081268875473"><ele>304.33333333333337</ele><time>2026-03-28T12:47:13Z</time></trkpt><trkpt lat="45.72208048212493" lon="11.284819902074727"><ele>314.0</ele><time>2026-03-28T12:47:14Z</time></trkpt><trkpt lat="45.722120956564424" lon="11.284552362034404"><ele>314.0</ele><time>2026-03-28T12:47:15Z</time></trkpt><trkpt lat="45.72216774285073" lon="11.284293329410854"><ele>314.0</ele><time>2026-03-28T12:47:16Z</time></trkpt><trkpt lat="45.72222336095021" lon="11.284039597239577"><ele>314.0</ele><time>2026-03-28T12:47:17Z</time></trkpt><trkpt lat="45.72229177198805" lon="11.28379617582547"><ele>309.6666666666667</ele><time>2026-03-28T12:47:18Z</time></trkpt><trkpt lat="45.72236541610476" lon="11.283562778622377"><ele>305.3333333333333</ele><time>2026-03-28T12:47:19Z</time></trkpt><trkpt lat="45.722433707141185" lon="11.283348776953483"><ele>301.0</ele><time>2026-03-28T12:47:20Z</time></trkpt><trkpt lat="45.722497718876795" lon="11.28315994115963"><ele>301.25</ele><time>2026-03-28T12:47:21Z</time></trkpt><trkpt lat="45.72257392181488" lon="11.282991895735455"><ele>301.5</ele><time>2026-03-28T12:47:22Z</time></trkpt><trkpt lat="45.722675636472864" lon="11.28285276344468"><ele>301.75</ele><time>2026-03-28T12:47:23Z</time></trkpt><trkpt lat="45.72279580310613" lon="11.282733679731937"><ele>302.0</ele><time>2026-03-28T12:47:24Z</time></trkpt><trkpt lat="45.72290526463771" lon="11.282617402392367"><ele>302.0</ele><time>2026-03-28T12:47:25Z</time></trkpt><trkpt lat="45.72300274077515" lon="11.282505842702495"><ele>302.0</ele><time>2026-03-28T12:47:26Z</time></trkpt><trkpt lat="45.72309122391639" lon="11.282416930331081"><ele>302.0</ele><time>2026-03-28T12:47:27Z</time></trkpt><trkpt lat="45.72315769498657" lon="11.282315686779995"><ele>302.0</ele><time>2026-03-28T12:47:28Z</time></trkpt><trkpt lat="45.72319153307945" lon="11.282188418466227"><ele>302.0</ele><time>2026-03-28T12:47:29Z</time></trkpt><trkpt lat="45.72319477924425" lon="11.282060509022793"><ele>299.2</ele><time>2026-03-28T12:47:30Z</time></trkpt><trkpt lat="45.72319150630532" lon="11.281920521635568"><ele>296.4</ele><time>2026-03-28T12:47:31Z</time></trkpt><trkpt lat="45.72321831349595" lon="11.28177775889439"><ele>293.6</ele><time>2026-03-28T12:47:32Z</time></trkpt><trkpt lat="45.7232816613197" lon="11.281644720109044"><ele>290.8</ele><time>2026-03-28T12:47:33Z</time></trkpt><trkpt lat="45.72337707553883" lon="11.28152994113537"><ele>288.0</ele><time>2026-03-28T12:47:34Z</time></trkpt><trkpt lat="45.72349881342105" lon="11.281447581217368"><ele>290.3333333333333</ele><time>2026-03-28T12:47:35Z</time></trkpt><trkpt lat="45.723635353605445" lon="11.28137213097803"><ele>292.66666666666663</ele><time>2026-03-28T12:47:36Z</time></trkpt><trkpt lat="45.72378211606838" lon="11.28128924545941"><ele>295.0</ele><time>2026-03-28T12:47:37Z</time></trkpt><trkpt lat="45.72393367625489" lon="11.281199482575682"><ele>295.0</ele><time>2026-03-28T12:47:38Z</time></trkpt><trkpt lat="45.724087754209" lon="11.281107701598428"><ele>295.0</ele><time>2026-03-28T12:47:39Z</time></trkpt><trkpt lat="45.72423339565191" lon="11.281013854895669"><ele>295.0</ele><time>2026-03-28T12:47:40Z</time></trkpt><trkpt lat="45.724384497880344" lon="11.280912658372776"><ele>296.66666666666663</ele><time>2026-03-28T12:47:41Z</time></trkpt><trkpt lat="45.72453888280657" lon="11.280795942296706"><ele>298.3333333333333</ele><time>2026-03-28T12:47:42Z</time></trkpt><trkpt lat="45.724706968809585" lon="11.280692666607212"><ele>300.0</ele><time>2026-03-28T12:47:43Z</time></trkpt><trkpt lat="45.72487204327006" lon="11.28057162997872"><ele>300.0</ele><time>2026-03-28T12:47:44Z</time></trkpt><trkpt lat="45.725042502154494" lon="11.280443838000863"><ele>300.0</ele><time>2026-03-28T12:47:45Z</time></trkpt><trkpt lat="45.72521442614402" lon="11.280338188367853"><ele>300.0</ele><time>2026-03-28T12:47:46Z</time></trkpt><trkpt lat="45.72539071504206" lon="11.28025574632589"><ele>298.3333333333333</ele><time>2026-03-28T12:47:47Z</time></trkpt><trkpt lat="45.72556570324011" lon="11.280191206165052"><ele>296.66666666666663</ele><time>2026-03-28T12:47:48Z</time></trkpt><trkpt lat="45.72574085787744" lon="11.280128880084058"><ele>295.0</ele><time>2026-03-28T12:47:49Z</time></trkpt><trkpt lat="45.725916716661764" lon="11.280066315209275"><ele>295.3333333333333</ele><time>2026-03-28T12:47:50Z</time></trkpt><trkpt lat="45.72609941386898" lon="11.280010539964282"><ele>295.6666666666667</ele><time>2026-03-28T12:47:51Z</time></trkpt><trkpt lat="45.72628578550241" lon="11.279980303523844"><ele>296.0</ele><time>2026-03-28T12:47:52Z</time></trkpt><trkpt lat="45.72647353347257" lon="11.27996980480416"><ele>296.0</ele><time>2026-03-28T12:47:53Z</time></trkpt><trkpt lat="45.72666111352247" lon="11.279956812061782"><ele>296.0</ele><time>2026-03-28T12:47:54Z</time></trkpt><trkpt lat="45.726843275619395" lon="11.279943150941953"><ele>296.0</ele><time>2026-03-28T12:47:55Z</time></trkpt><trkpt lat="45.727014610271354" lon="11.279922924259635"><ele>296.6666666666667</ele><time>2026-03-28T12:47:56Z</time></trkpt><trkpt lat="45.72717589151801" lon="11.279889260579553"><ele>297.3333333333333</ele><time>2026-03-28T12:47:57Z</time></trkpt><trkpt lat="45.727317390955484" lon="11.279823900428024"><ele>298.0</ele><time>2026-03-28T12:47:58Z</time></trkpt><trkpt lat="45.72744313281958" lon="11.279718469293858"><ele>299.0</ele><time>2026-03-28T12:47:59Z</time></trkpt><trkpt lat="45.72755136867856" lon="11.27957224326721"><ele>300.0</ele><time>2026-03-28T12:48:00Z</time></trkpt><trkpt lat="45.72764705900445" lon="11.27940872194818"><ele>301.0</ele><time>2026-03-28T12:48:01Z</time></trkpt><trkpt lat="45.72773582248337" lon="11.279246637166784"><ele>302.0</ele><time>2026-03-28T12:48:02Z</time></trkpt><trkpt lat="45.72782354165377" lon="11.279111853527029"><ele>302.0</ele><time>2026-03-28T12:48:03Z</time></trkpt><trkpt lat="45.7279256603324" lon="11.279010069700734"><ele>302.0</ele><time>2026-03-28T12:48:04Z</time></trkpt><trkpt lat="45.72803370373758" lon="11.278955180382738"><ele>302.0</ele><time>2026-03-28T12:48:05Z</time></trkpt><trkpt lat="45.72813500646695" lon="11.278962302553138"><ele>302.0</ele><time>2026-03-28T12:48:06Z</time></trkpt><trkpt lat="45.72822020060802" lon="11.279059720524364"><ele>302.0</ele><time>2026-03-28T12:48:07Z</time></trkpt><trkpt lat="45.72831917810063" lon="11.279117364287378"><ele>302.0</ele><time>2026-03-28T12:48:08Z</time></trkpt><trkpt lat="45.728424140996935" lon="11.27913884512844"><ele>302.0</ele><time>2026-03-28T12:48:09Z</time></trkpt><trkpt lat="45.72853492967082" lon="11.279099273807955"><ele>302.0</ele><time>2026-03-28T12:48:10Z</time></trkpt><trkpt lat="45.72864188034105" lon="11.279016669068433"><ele>302.0</ele><time>2026-03-28T12:48:11Z</time></trkpt><trkpt lat="45.72875390068816" lon="11.278915949811571"><ele>303.25</ele><time>2026-03-28T12:48:12Z</time></trkpt><trkpt lat="45.728873685209095" lon="11.278813472506442"><ele>304.5</ele><time>2026-03-28T12:48:13Z</time></trkpt><trkpt lat="45.72900094983329" lon="11.278704196684744"><ele>305.75</ele><time>2026-03-28T12:48:14Z</time></trkpt><trkpt lat="45.729132880538735" lon="11.278580220645523"><ele>307.0</ele><time>2026-03-28T12:48:15Z</time></trkpt><trkpt lat="45.72927378366397" lon="11.278453198374917"><ele>307.3333333333333</ele><time>2026-03-28T12:48:16Z</time></trkpt><trkpt lat="45.72941614476619" lon="11.278325511271785"><ele>307.6666666666667</ele><time>2026-03-28T12:48:17Z</time></trkpt><trkpt lat="45.72955691570117" lon="11.278200358321063"><ele>308.0</ele><time>2026-03-28T12:48:18Z</time></trkpt><trkpt lat="45.72969520256726" lon="11.27807742342476"><ele>308.0</ele><time>2026-03-28T12:48:19Z</time></trkpt><trkpt lat="45.729833604482735" lon="11.27795985114584"><ele>308.0</ele><time>2026-03-28T12:48:20Z</time></trkpt><trkpt lat="45.72997311974277" lon="11.277836110723046"><ele>308.0</ele><time>2026-03-28T12:48:21Z</time></trkpt><trkpt lat="45.7301043517353" lon="11.277692619584162"><ele>309.33333333333337</ele><time>2026-03-28T12:48:22Z</time></trkpt><trkpt lat="45.730227477888874" lon="11.277537329592311"><ele>310.6666666666667</ele><time>2026-03-28T12:48:23Z</time></trkpt><trkpt lat="45.730351839428785" lon="11.277379641893386"><ele>312.0</ele><time>2026-03-28T12:48:23.999Z</time></trkpt><trkpt lat="45.73047648476908" lon="11.277218439096725"><ele>312.0</ele><time>2026-03-28T12:48:24.999Z</time></trkpt><trkpt lat="45.730595948608496" lon="11.277046384848148"><ele>312.0</ele><time>2026-03-28T12:48:25.999Z</time></trkpt><trkpt lat="45.73070563268207" lon="11.276855680992277"><ele>312.0</ele><time>2026-03-28T12:48:26.999Z</time></trkpt><trkpt lat="45.73081282290354" lon="11.27665459875165"><ele>312.0</ele><time>2026-03-28T12:48:27.999Z</time></trkpt><trkpt lat="45.73092428491971" lon="11.276456807466085"><ele>312.0</ele><time>2026-03-28T12:48:28.999Z</time></trkpt><trkpt lat="45.73104694010792" lon="11.276281199554742"><ele>312.0</ele><time>2026-03-28T12:48:29.999Z</time></trkpt><trkpt lat="45.73117460754801" lon="11.276114579551505"><ele>312.3333333333333</ele><time>2026-03-28T12:48:30.999Z</time></trkpt><trkpt lat="45.73130146122038" lon="11.275942306157113"><ele>312.66666666666663</ele><time>2026-03-28T12:48:31.999Z</time></trkpt><trkpt lat="45.731435119346465" lon="11.275771913261"><ele>313.0</ele><time>2026-03-28T12:48:32.999Z</time></trkpt><trkpt lat="45.73156882718298" lon="11.275601898305418"><ele>313.0</ele><time>2026-03-28T12:48:33.999Z</time></trkpt><trkpt lat="45.73168843854093" lon="11.275426174752084"><ele>313.0</ele><time>2026-03-28T12:48:34.999Z</time></trkpt><trkpt lat="45.7317914720414" lon="11.275243650487612"><ele>313.0</ele><time>2026-03-28T12:48:35.999Z</time></trkpt><trkpt lat="45.73187756419075" lon="11.275059194625607"><ele>313.0</ele><time>2026-03-28T12:48:36.999Z</time></trkpt><trkpt lat="45.73194643001493" lon="11.274873099440477"><ele>313.0</ele><time>2026-03-28T12:48:37.999Z</time></trkpt><trkpt lat="45.73203088471069" lon="11.274716863060947"><ele>313.0</ele><time>2026-03-28T12:48:38.999Z</time></trkpt><trkpt lat="45.73213797194873" lon="11.274594545416306"><ele>313.0</ele><time>2026-03-28T12:48:39.999Z</time></trkpt><trkpt lat="45.73225046764567" lon="11.27448343147019"><ele>313.0</ele><time>2026-03-28T12:48:40.999Z</time></trkpt><trkpt lat="45.732362497336595" lon="11.274375629641245"><ele>313.0</ele><time>2026-03-28T12:48:41.999Z</time></trkpt><trkpt lat="45.732470709078505" lon="11.274255364073126"><ele>313.0</ele><time>2026-03-28T12:48:42.999Z</time></trkpt><trkpt lat="45.732577643154485" lon="11.27412057422196"><ele>313.0</ele><time>2026-03-28T12:48:43.999Z</time></trkpt><trkpt lat="45.732688543095364" lon="11.273984025432057"><ele>314.66666666666663</ele><time>2026-03-28T12:48:44.999Z</time></trkpt><trkpt lat="45.73279429386475" lon="11.27384188827846"><ele>316.3333333333333</ele><time>2026-03-28T12:48:45.999Z</time></trkpt><trkpt lat="45.732886067885325" lon="11.273669430537023"><ele>318.0</ele><time>2026-03-28T12:48:46.999Z</time></trkpt><trkpt lat="45.73297341103715" lon="11.273478413272377"><ele>318.0</ele><time>2026-03-28T12:48:47.999Z</time></trkpt><trkpt lat="45.7330539606848" lon="11.273287737829646"><ele>318.0</ele><time>2026-03-28T12:48:48.999Z</time></trkpt><trkpt lat="45.7331166318455" lon="11.2730966708251"><ele>318.0</ele><time>2026-03-28T12:48:49.999Z</time></trkpt><trkpt lat="45.733168476785046" lon="11.272909676585241"><ele>318.0</ele><time>2026-03-28T12:48:50.999Z</time></trkpt><trkpt lat="45.73320905442546" lon="11.27272916879634"><ele>317.0</ele><time>2026-03-28T12:48:51.999Z</time></trkpt><trkpt lat="45.733252752556375" lon="11.272551232525226"><ele>316.0</ele><time>2026-03-28T12:48:52.999Z</time></trkpt><trkpt lat="45.73331182337626" lon="11.272388777690711"><ele>315.0</ele><time>2026-03-28T12:48:53.999Z</time></trkpt><trkpt lat="45.73339533639547" lon="11.272259022457597"><ele>314.0</ele><time>2026-03-28T12:48:54.999Z</time></trkpt><trkpt lat="45.73350844056389" lon="11.272148263270747"><ele>316.0</ele><time>2026-03-28T12:48:55.999Z</time></trkpt><trkpt lat="45.73362612292444" lon="11.272026531220428"><ele>318.0</ele><time>2026-03-28T12:48:56.999Z</time></trkpt><trkpt lat="45.73374721250294" lon="11.2718977693975"><ele>320.0</ele><time>2026-03-28T12:48:57.999Z</time></trkpt><trkpt lat="45.73387643725509" lon="11.271767427597391"><ele>320.0</ele><time>2026-03-28T12:48:58.999Z</time></trkpt><trkpt lat="45.73400559531748" lon="11.271631500730825"><ele>320.0</ele><time>2026-03-28T12:49:00Z</time></trkpt><trkpt lat="45.734141832229625" lon="11.271483674577054"><ele>320.0</ele><time>2026-03-28T12:49:01Z</time></trkpt><trkpt lat="45.73428140174029" lon="11.271344023101866"><ele>321.33333333333337</ele><time>2026-03-28T12:49:02Z</time></trkpt><trkpt lat="45.734413406018696" lon="11.271207331222497"><ele>322.6666666666667</ele><time>2026-03-28T12:49:03Z</time></trkpt><trkpt lat="45.734540083202816" lon="11.271084787529539"><ele>324.0</ele><time>2026-03-28T12:49:04Z</time></trkpt><trkpt lat="45.73466243888389" lon="11.27095386405517"><ele>324.0</ele><time>2026-03-28T12:49:05Z</time></trkpt><trkpt lat="45.73477427048677" lon="11.270820080826931"><ele>324.0</ele><time>2026-03-28T12:49:06Z</time></trkpt><trkpt lat="45.734866768186386" lon="11.270667282423089"><ele>324.0</ele><time>2026-03-28T12:49:07Z</time></trkpt><trkpt lat="45.73494610825446" lon="11.27047675285446"><ele>324.0</ele><time>2026-03-28T12:49:08Z</time></trkpt><trkpt lat="45.73503806821389" lon="11.27028749971502"><ele>323.6666666666667</ele><time>2026-03-28T12:49:09Z</time></trkpt><trkpt lat="45.73516195255904" lon="11.270130899420481"><ele>323.33333333333337</ele><time>2026-03-28T12:49:10Z</time></trkpt><trkpt lat="45.735280614264745" lon="11.269940568001228"><ele>323.0</ele><time>2026-03-28T12:49:11Z</time></trkpt><trkpt lat="45.73541692461575" lon="11.269763708546419"><ele>326.6666666666667</ele><time>2026-03-28T12:49:12Z</time></trkpt><trkpt lat="45.73555176804497" lon="11.269591664610333"><ele>330.3333333333333</ele><time>2026-03-28T12:49:13Z</time></trkpt><trkpt lat="45.735680735993306" lon="11.269433189616745"><ele>334.0</ele><time>2026-03-28T12:49:14Z</time></trkpt><trkpt lat="45.735808454044694" lon="11.269284655677435"><ele>334.0</ele><time>2026-03-28T12:49:15Z</time></trkpt><trkpt lat="45.73592399323893" lon="11.269121928301912"><ele>334.0</ele><time>2026-03-28T12:49:16Z</time></trkpt><trkpt lat="45.73602744303329" lon="11.268960295952674"><ele>334.0</ele><time>2026-03-28T12:49:17Z</time></trkpt><trkpt lat="45.73612008014432" lon="11.268804933940016"><ele>335.75</ele><time>2026-03-28T12:49:18Z</time></trkpt><trkpt lat="45.7362080647633" lon="11.268638325543076"><ele>337.5</ele><time>2026-03-28T12:49:19Z</time></trkpt><trkpt lat="45.73628815429356" lon="11.268466248136164"><ele>339.25</ele><time>2026-03-28T12:49:20Z</time></trkpt><trkpt lat="45.73636557639015" lon="11.268298625455586"><ele>341.0</ele><time>2026-03-28T12:49:21Z</time></trkpt><trkpt lat="45.736443193812875" lon="11.268132053784502"><ele>340.25</ele><time>2026-03-28T12:49:22Z</time></trkpt><trkpt lat="45.73653436921087" lon="11.267981129057906"><ele>339.5</ele><time>2026-03-28T12:49:23Z</time></trkpt><trkpt lat="45.73664265447423" lon="11.267865330726949"><ele>338.75</ele><time>2026-03-28T12:49:24Z</time></trkpt><trkpt lat="45.73674853793066" lon="11.267757708054315"><ele>338.0</ele><time>2026-03-28T12:49:25Z</time></trkpt><trkpt lat="45.7368320632274" lon="11.267632986121779"><ele>339.5</ele><time>2026-03-28T12:49:26Z</time></trkpt><trkpt lat="45.736928838906735" lon="11.267515229793194"><ele>341.0</ele><time>2026-03-28T12:49:27Z</time></trkpt><trkpt lat="45.73701341647817" lon="11.267366725769364"><ele>342.5</ele><time>2026-03-28T12:49:28Z</time></trkpt><trkpt lat="45.73710311307858" lon="11.267203556146534"><ele>344.0</ele><time>2026-03-28T12:49:29Z</time></trkpt><trkpt lat="45.73719656595239" lon="11.267020108812599"><ele>344.0</ele><time>2026-03-28T12:49:30Z</time></trkpt><trkpt lat="45.737297308276375" lon="11.266831253994237"><ele>344.0</ele><time>2026-03-28T12:49:31Z</time></trkpt><trkpt lat="45.73740491963277" lon="11.266629269208257"><ele>344.0</ele><time>2026-03-28T12:49:32Z</time></trkpt><trkpt lat="45.7375100246311" lon="11.266430314185916"><ele>343.6666666666667</ele><time>2026-03-28T12:49:33Z</time></trkpt><trkpt lat="45.73761299958089" lon="11.266249896139382"><ele>343.3333333333333</ele><time>2026-03-28T12:49:34Z</time></trkpt><trkpt lat="45.7377153578725" lon="11.266083125882991"><ele>343.0</ele><time>2026-03-28T12:49:35Z</time></trkpt><trkpt lat="45.73782999605948" lon="11.265935899091332"><ele>343.0</ele><time>2026-03-28T12:49:36Z</time></trkpt><trkpt lat="45.73796216661678" lon="11.265823797275589"><ele>343.0</ele><time>2026-03-28T12:49:37Z</time></trkpt><trkpt lat="45.73810478816736" lon="11.265767230780812"><ele>343.0</ele><time>2026-03-28T12:49:38Z</time></trkpt><trkpt lat="45.738245169167996" lon="11.26574873146172"><ele>343.0</ele><time>2026-03-28T12:49:39Z</time></trkpt><trkpt lat="45.73838221363253" lon="11.265763504915927"><ele>343.0</ele><time>2026-03-28T12:49:40Z</time></trkpt><trkpt lat="45.73851319698601" lon="11.265772061583387"><ele>343.0</ele><time>2026-03-28T12:49:41Z</time></trkpt><trkpt lat="45.73863611071517" lon="11.265747410795134"><ele>343.0</ele><time>2026-03-28T12:49:42Z</time></trkpt><trkpt lat="45.738757230566954" lon="11.265674896244887"><ele>343.0</ele><time>2026-03-28T12:49:43Z</time></trkpt><trkpt lat="45.73886246342162" lon="11.265560075840266"><ele>343.0</ele><time>2026-03-28T12:49:44Z</time></trkpt><trkpt lat="45.73897375451123" lon="11.265440560847669"><ele>343.0</ele><time>2026-03-28T12:49:45Z</time></trkpt><trkpt lat="45.73908466569447" lon="11.265319442384385"><ele>343.0</ele><time>2026-03-28T12:49:46Z</time></trkpt><trkpt lat="45.73918593778637" lon="11.26519688515496"><ele>343.0</ele><time>2026-03-28T12:49:47Z</time></trkpt><trkpt lat="45.739262949184834" lon="11.265048812880357"><ele>343.0</ele><time>2026-03-28T12:49:48Z</time></trkpt><trkpt lat="45.73930449917385" lon="11.264871219173788"><ele>343.0</ele><time>2026-03-28T12:49:49Z</time></trkpt><trkpt lat="45.73932863107656" lon="11.264677282133032"><ele>343.0</ele><time>2026-03-28T12:49:50Z</time></trkpt><trkpt lat="45.73936039327697" lon="11.264476536850976"><ele>343.0</ele><time>2026-03-28T12:49:51Z</time></trkpt><trkpt lat="45.73940332858434" lon="11.264268283367509"><ele>344.3333333333333</ele><time>2026-03-28T12:49:52Z</time></trkpt><trkpt lat="45.73944442416043" lon="11.264054776226583"><ele>345.6666666666667</ele><time>2026-03-28T12:49:53Z</time></trkpt><trkpt lat="45.73948496893837" lon="11.263841147519774"><ele>347.0</ele><time>2026-03-28T12:49:54Z</time></trkpt><trkpt lat="45.73952665008528" lon="11.263629226925469"><ele>345.33333333333337</ele><time>2026-03-28T12:49:55Z</time></trkpt><trkpt lat="45.73958331035078" lon="11.26342742480636"><ele>343.6666666666667</ele><time>2026-03-28T12:49:56Z</time></trkpt><trkpt lat="45.739656003052616" lon="11.263238048681966"><ele>342.0</ele><time>2026-03-28T12:49:57Z</time></trkpt><trkpt lat="45.739728378542615" lon="11.263045959883662"><ele>342.0</ele><time>2026-03-28T12:49:58Z</time></trkpt><trkpt lat="45.739792476365295" lon="11.262877137289896"><ele>342.0</ele><time>2026-03-28T12:49:59Z</time></trkpt><trkpt lat="45.73984237604818" lon="11.262735200033013"><ele>342.0</ele><time>2026-03-28T12:50:00Z</time></trkpt><trkpt lat="45.73988776694887" lon="11.262606540641539"><ele>342.0</ele><time>2026-03-28T12:50:01Z</time></trkpt><trkpt lat="45.73993566762578" lon="11.262472147040727"><ele>342.0</ele><time>2026-03-28T12:50:02Z</time></trkpt><trkpt lat="45.73998517382056" lon="11.262310254595201"><ele>342.0</ele><time>2026-03-28T12:50:03Z</time></trkpt><trkpt lat="45.74003968094159" lon="11.262147298811934"><ele>342.0</ele><time>2026-03-28T12:50:04Z</time></trkpt><trkpt lat="45.740113083413746" lon="11.261998221990618"><ele>342.0</ele><time>2026-03-28T12:50:05Z</time></trkpt><trkpt lat="45.74014828042745" lon="11.261847012981809"><ele>342.0</ele><time>2026-03-28T12:50:06Z</time></trkpt><trkpt lat="45.74019598692639" lon="11.261716685686695"><ele>342.0</ele><time>2026-03-28T12:50:07Z</time></trkpt><trkpt lat="45.74024802392595" lon="11.261585757536826"><ele>342.0</ele><time>2026-03-28T12:50:08Z</time></trkpt><trkpt lat="45.740310266998634" lon="11.261440055309794"><ele>342.0</ele><time>2026-03-28T12:50:09Z</time></trkpt><trkpt lat="45.74038263779219" lon="11.261290763172331"><ele>343.0</ele><time>2026-03-28T12:50:10Z</time></trkpt><trkpt lat="45.740465161347146" lon="11.261130312314858"><ele>344.0</ele><time>2026-03-28T12:50:11Z</time></trkpt><trkpt lat="45.740548995247536" lon="11.260967692073793"><ele>345.0</ele><time>2026-03-28T12:50:12Z</time></trkpt><trkpt lat="45.740642390210134" lon="11.260804209938547"><ele>346.0</ele><time>2026-03-28T12:50:13Z</time></trkpt><trkpt lat="45.7407320060099" lon="11.260627475409352"><ele>347.0</ele><time>2026-03-28T12:50:14Z</time></trkpt><trkpt lat="45.7408187711571" lon="11.26046164599561"><ele>348.0</ele><time>2026-03-28T12:50:15Z</time></trkpt><trkpt lat="45.74090660524017" lon="11.260307085991197"><ele>349.0</ele><time>2026-03-28T12:50:16Z</time></trkpt><trkpt lat="45.741011101205" lon="11.260174416902187"><ele>350.0</ele><time>2026-03-28T12:50:17Z</time></trkpt><trkpt lat="45.741132953389865" lon="11.260055057721067"><ele>350.0</ele><time>2026-03-28T12:50:18Z</time></trkpt><trkpt lat="45.74126185949076" lon="11.259936999532242"><ele>350.0</ele><time>2026-03-28T12:50:19Z</time></trkpt><trkpt lat="45.74140534454935" lon="11.259844926468714"><ele>350.0</ele><time>2026-03-28T12:50:20Z</time></trkpt><trkpt lat="45.741546667439025" lon="11.25976500858958"><ele>352.0</ele><time>2026-03-28T12:50:21Z</time></trkpt><trkpt lat="45.74167360175022" lon="11.259683855938654"><ele>354.0</ele><time>2026-03-28T12:50:22Z</time></trkpt><trkpt lat="45.74178019423126" lon="11.259606645573756"><ele>356.0</ele><time>2026-03-28T12:50:23Z</time></trkpt><trkpt lat="45.74186205400376" lon="11.259559955121853"><ele>358.0</ele><time>2026-03-28T12:50:24Z</time></trkpt><trkpt lat="45.7419351346974" lon="11.259518072566857"><ele>360.0</ele><time>2026-03-28T12:50:25Z</time></trkpt><trkpt lat="45.74200478291417" lon="11.25945089821456"><ele>360.0</ele><time>2026-03-28T12:50:26Z</time></trkpt><trkpt lat="45.74209303017452" lon="11.259378224028262"><ele>360.0</ele><time>2026-03-28T12:50:27Z</time></trkpt><trkpt lat="45.74220176208604" lon="11.259316152614312"><ele>360.0</ele><time>2026-03-28T12:50:28Z</time></trkpt><trkpt lat="45.74231955002822" lon="11.259244029343881"><ele>360.0</ele><time>2026-03-28T12:50:29Z</time></trkpt><trkpt lat="45.7424128200703" lon="11.259170352364723"><ele>360.0</ele><time>2026-03-28T12:50:30Z</time></trkpt><trkpt lat="45.74252101237109" lon="11.259125850006539"><ele>360.0</ele><time>2026-03-28T12:50:31Z</time></trkpt><trkpt lat="45.742622962912556" lon="11.259026958625526"><ele>360.0</ele><time>2026-03-28T12:50:32Z</time></trkpt><trkpt lat="45.74273098327566" lon="11.258928897568486"><ele>360.0</ele><time>2026-03-28T12:50:33Z</time></trkpt><trkpt lat="45.742811846061215" lon="11.258808186816063"><ele>358.0</ele><time>2026-03-28T12:50:34Z</time></trkpt><trkpt lat="45.7428728919859" lon="11.258647754852783"><ele>356.0</ele><time>2026-03-28T12:50:35Z</time></trkpt><trkpt lat="45.742931208397366" lon="11.258443470193846"><ele>354.0</ele><time>2026-03-28T12:50:36Z</time></trkpt><trkpt lat="45.74299347292873" lon="11.25821168968463"><ele>357.0</ele><time>2026-03-28T12:50:36.999Z</time></trkpt><trkpt lat="45.743079909469074" lon="11.25797794040515"><ele>360.0</ele><time>2026-03-28T12:50:37.999Z</time></trkpt><trkpt lat="45.74316647202964" lon="11.257757862793046"><ele>363.0</ele><time>2026-03-28T12:50:38.999Z</time></trkpt><trkpt lat="45.74325918058249" lon="11.257515689640893"><ele>366.3333333333333</ele><time>2026-03-28T12:50:39.999Z</time></trkpt><trkpt lat="45.74333918717789" lon="11.257254321882787"><ele>369.66666666666663</ele><time>2026-03-28T12:50:40.999Z</time></trkpt><trkpt lat="45.743404673239276" lon="11.257005578223048"><ele>373.0</ele><time>2026-03-28T12:50:41.999Z</time></trkpt><trkpt lat="45.74345826746547" lon="11.256759696628562"><ele>373.0</ele><time>2026-03-28T12:50:42.999Z</time></trkpt><trkpt lat="45.743505686383884" lon="11.256503453261793"><ele>373.0</ele><time>2026-03-28T12:50:43.999Z</time></trkpt><trkpt lat="45.74357338233123" lon="11.256282781621213"><ele>373.0</ele><time>2026-03-28T12:50:44.999Z</time></trkpt><trkpt lat="45.743636960347494" lon="11.256092016611756"><ele>372.0</ele><time>2026-03-28T12:50:45.999Z</time></trkpt><trkpt lat="45.74366203158868" lon="11.255905448917956"><ele>371.0</ele><time>2026-03-28T12:50:46.999Z</time></trkpt><trkpt lat="45.74365367386992" lon="11.25571512428896"><ele>370.0</ele><time>2026-03-28T12:50:47.999Z</time></trkpt><trkpt lat="45.743610050145584" lon="11.255518582983218"><ele>369.0</ele><time>2026-03-28T12:50:48.999Z</time></trkpt><trkpt lat="45.74354801022461" lon="11.255307079019971"><ele>373.6666666666667</ele><time>2026-03-28T12:50:49.999Z</time></trkpt><trkpt lat="45.74349933829726" lon="11.255082103658651"><ele>378.33333333333337</ele><time>2026-03-28T12:50:50.999Z</time></trkpt><trkpt lat="45.74345178804865" lon="11.25484037779044"><ele>383.0</ele><time>2026-03-28T12:50:51.999Z</time></trkpt><trkpt lat="45.74342217362948" lon="11.254583668203132"><ele>383.0</ele><time>2026-03-28T12:50:52.999Z</time></trkpt><trkpt lat="45.74341123468114" lon="11.254308730420975"><ele>383.0</ele><time>2026-03-28T12:50:53.999Z</time></trkpt><trkpt lat="45.74338395345238" lon="11.254030194534868"><ele>383.0</ele><time>2026-03-28T12:50:54.999Z</time></trkpt><trkpt lat="45.74334744620889" lon="11.253761667051258"><ele>383.33333333333337</ele><time>2026-03-28T12:50:55.999Z</time></trkpt><trkpt lat="45.743320222470544" lon="11.25350084863577"><ele>383.6666666666667</ele><time>2026-03-28T12:50:56.999Z</time></trkpt><trkpt lat="45.743314377971764" lon="11.253235082453006"><ele>384.0</ele><time>2026-03-28T12:50:57.999Z</time></trkpt><trkpt lat="45.7433218586921" lon="11.252960810751892"><ele>386.0</ele><time>2026-03-28T12:50:58.999Z</time></trkpt><trkpt lat="45.743363607289375" lon="11.25267993016255"><ele>388.0</ele><time>2026-03-28T12:50:59.999Z</time></trkpt><trkpt lat="45.743404237286164" lon="11.252383256554271"><ele>390.0</ele><time>2026-03-28T12:51:00.999Z</time></trkpt><trkpt lat="45.74340204749748" lon="11.252104148414409"><ele>390.0</ele><time>2026-03-28T12:51:01.999Z</time></trkpt><trkpt lat="45.743437163631455" lon="11.25185233500054"><ele>390.0</ele><time>2026-03-28T12:51:02.999Z</time></trkpt><trkpt lat="45.74348922162492" lon="11.251599330978001"><ele>390.0</ele><time>2026-03-28T12:51:03.999Z</time></trkpt><trkpt lat="45.74355903847855" lon="11.251340385289534"><ele>388.66666666666663</ele><time>2026-03-28T12:51:04.999Z</time></trkpt><trkpt lat="45.7436439020154" lon="11.251077656246377"><ele>387.3333333333333</ele><time>2026-03-28T12:51:06Z</time></trkpt><trkpt lat="45.7437333960117" lon="11.250814422858856"><ele>386.0</ele><time>2026-03-28T12:51:07Z</time></trkpt><trkpt lat="45.74381901358019" lon="11.250549924115075"><ele>386.0</ele><time>2026-03-28T12:51:08Z</time></trkpt><trkpt lat="45.74389150747077" lon="11.25027924149822"><ele>386.0</ele><time>2026-03-28T12:51:09Z</time></trkpt><trkpt lat="45.74395041636427" lon="11.250000379442184"><ele>386.0</ele><time>2026-03-28T12:51:10Z</time></trkpt><trkpt lat="45.74401748079047" lon="11.249712058977245"><ele>387.66666666666663</ele><time>2026-03-28T12:51:11Z</time></trkpt><trkpt lat="45.74404980636684" lon="11.249406785080247"><ele>389.33333333333337</ele><time>2026-03-28T12:51:12Z</time></trkpt><trkpt lat="45.744111879177446" lon="11.249107339572923"><ele>391.0</ele><time>2026-03-28T12:51:13Z</time></trkpt><trkpt lat="45.74415199101961" lon="11.248833593885239"><ele>391.6666666666667</ele><time>2026-03-28T12:51:14Z</time></trkpt><trkpt lat="45.74417317352508" lon="11.248584290212795"><ele>392.33333333333337</ele><time>2026-03-28T12:51:15Z</time></trkpt><trkpt lat="45.74420618170391" lon="11.24834963277304"><ele>393.0</ele><time>2026-03-28T12:51:16Z</time></trkpt><trkpt lat="45.74422396826545" lon="11.24812389054852"><ele>394.33333333333337</ele><time>2026-03-28T12:51:17Z</time></trkpt><trkpt lat="45.74421845338171" lon="11.247897154208625"><ele>395.6666666666667</ele><time>2026-03-28T12:51:18Z</time></trkpt><trkpt lat="45.74419257690827" lon="11.247675018323786"><ele>397.0</ele><time>2026-03-28T12:51:19Z</time></trkpt><trkpt lat="45.744145963968094" lon="11.247465049780521"><ele>397.25</ele><time>2026-03-28T12:51:20Z</time></trkpt><trkpt lat="45.74408637903632" lon="11.247270735855121"><ele>397.5</ele><time>2026-03-28T12:51:21Z</time></trkpt><trkpt lat="45.74402219423089" lon="11.247087390416166"><ele>397.75</ele><time>2026-03-28T12:51:22Z</time></trkpt><trkpt lat="45.74397010209505" lon="11.246896662248123"><ele>398.0</ele><time>2026-03-28T12:51:23Z</time></trkpt><trkpt lat="45.743942039988994" lon="11.2466882776956"><ele>398.66666666666663</ele><time>2026-03-28T12:51:24Z</time></trkpt><trkpt lat="45.74394205332899" lon="11.246460525277781"><ele>399.33333333333337</ele><time>2026-03-28T12:51:25Z</time></trkpt><trkpt lat="45.743953136236996" lon="11.246238242638533"><ele>400.0</ele><time>2026-03-28T12:51:26Z</time></trkpt><trkpt lat="45.743946694109866" lon="11.246010274232566"><ele>400.0</ele><time>2026-03-28T12:51:27Z</time></trkpt><trkpt lat="45.74392381321716" lon="11.245768366986876"><ele>400.0</ele><time>2026-03-28T12:51:28Z</time></trkpt><trkpt lat="45.74389948214743" lon="11.24551843737679"><ele>400.0</ele><time>2026-03-28T12:51:29Z</time></trkpt><trkpt lat="45.7438677836862" lon="11.245260586264234"><ele>399.6666666666667</ele><time>2026-03-28T12:51:30Z</time></trkpt><trkpt lat="45.74384130393262" lon="11.244986106239574"><ele>399.33333333333337</ele><time>2026-03-28T12:51:31Z</time></trkpt><trkpt lat="45.74384417366189" lon="11.24470377793983"><ele>399.0</ele><time>2026-03-28T12:51:32Z</time></trkpt><trkpt lat="45.74385841785246" lon="11.244435435157234"><ele>399.0</ele><time>2026-03-28T12:51:33Z</time></trkpt><trkpt lat="45.74386378819417" lon="11.244176731871692"><ele>399.0</ele><time>2026-03-28T12:51:34Z</time></trkpt><trkpt lat="45.74384628962138" lon="11.243933451604962"><ele>399.0</ele><time>2026-03-28T12:51:35Z</time></trkpt><trkpt lat="45.743807239029685" lon="11.24371629317066"><ele>399.33333333333337</ele><time>2026-03-28T12:51:36Z</time></trkpt><trkpt lat="45.743759738503556" lon="11.24350694548393"><ele>399.6666666666667</ele><time>2026-03-28T12:51:37Z</time></trkpt><trkpt lat="45.74373997310027" lon="11.24328244035391"><ele>400.0</ele><time>2026-03-28T12:51:38Z</time></trkpt><trkpt lat="45.74375503882871" lon="11.243044635048266"><ele>401.0</ele><time>2026-03-28T12:51:39Z</time></trkpt><trkpt lat="45.743819960578364" lon="11.242817099401735"><ele>402.0</ele><time>2026-03-28T12:51:40Z</time></trkpt><trkpt lat="45.743875747358054" lon="11.242583491932752"><ele>403.0</ele><time>2026-03-28T12:51:41Z</time></trkpt><trkpt lat="45.743942869493345" lon="11.24234207986109"><ele>404.6666666666667</ele><time>2026-03-28T12:51:42Z</time></trkpt><trkpt lat="45.743996040491744" lon="11.242081040317906"><ele>406.33333333333337</ele><time>2026-03-28T12:51:43Z</time></trkpt><trkpt lat="45.74404747915829" lon="11.241811051400393"><ele>408.0</ele><time>2026-03-28T12:51:44Z</time></trkpt><trkpt lat="45.74409751251375" lon="11.241537262660776"><ele>407.66666666666663</ele><time>2026-03-28T12:51:45Z</time></trkpt><trkpt lat="45.744148113505226" lon="11.24127758541683"><ele>407.3333333333333</ele><time>2026-03-28T12:51:46Z</time></trkpt><trkpt lat="45.744196074948974" lon="11.241030501403754"><ele>407.0</ele><time>2026-03-28T12:51:47Z</time></trkpt><trkpt lat="45.74423912622169" lon="11.240794243826816"><ele>407.66666666666663</ele><time>2026-03-28T12:51:48Z</time></trkpt><trkpt lat="45.7442850783278" lon="11.240567728970516"><ele>408.33333333333337</ele><time>2026-03-28T12:51:49Z</time></trkpt><trkpt lat="45.74433493184975" lon="11.240345785189172"><ele>409.0</ele><time>2026-03-28T12:51:50Z</time></trkpt><trkpt lat="45.74439886305104" lon="11.240131854754786"><ele>409.0</ele><time>2026-03-28T12:51:51Z</time></trkpt><trkpt lat="45.74448010559706" lon="11.23992657526917"><ele>409.0</ele><time>2026-03-28T12:51:52Z</time></trkpt><trkpt lat="45.74456968755802" lon="11.23973758961138"><ele>409.0</ele><time>2026-03-28T12:51:53Z</time></trkpt><trkpt lat="45.74463760799106" lon="11.239572335409218"><ele>409.25</ele><time>2026-03-28T12:51:54Z</time></trkpt><trkpt lat="45.74468405219283" lon="11.239406400053147"><ele>409.5</ele><time>2026-03-28T12:51:55Z</time></trkpt><trkpt lat="45.74470906336806" lon="11.239222918719447"><ele>409.75</ele><time>2026-03-28T12:51:56Z</time></trkpt><trkpt lat="45.74472336014152" lon="11.239043786109681"><ele>410.0</ele><time>2026-03-28T12:51:57Z</time></trkpt><trkpt lat="45.74474250842232" lon="11.238881318846548"><ele>410.6</ele><time>2026-03-28T12:51:58Z</time></trkpt><trkpt lat="45.74477049249677" lon="11.238725684574515"><ele>411.2</ele><time>2026-03-28T12:51:59Z</time></trkpt><trkpt lat="45.74481550496663" lon="11.238588100042659"><ele>411.79999999999995</ele><time>2026-03-28T12:52:00Z</time></trkpt><trkpt lat="45.744884460637884" lon="11.238469720368247"><ele>412.4</ele><time>2026-03-28T12:52:01Z</time></trkpt><trkpt lat="45.74499293614553" lon="11.238399120065697"><ele>413.0</ele><time>2026-03-28T12:52:02Z</time></trkpt><trkpt lat="45.74511179567585" lon="11.238305960585722"><ele>413.66666666666663</ele><time>2026-03-28T12:52:03Z</time></trkpt><trkpt lat="45.74523453193862" lon="11.238207354069631"><ele>414.33333333333337</ele><time>2026-03-28T12:52:04Z</time></trkpt><trkpt lat="45.745356561760005" lon="11.238074117798702"><ele>415.0</ele><time>2026-03-28T12:52:05Z</time></trkpt><trkpt lat="45.74548514266056" lon="11.237944423362066"><ele>417.6666666666667</ele><time>2026-03-28T12:52:06Z</time></trkpt><trkpt lat="45.74561162784724" lon="11.23779652472788"><ele>420.33333333333337</ele><time>2026-03-28T12:52:07Z</time></trkpt><trkpt lat="45.74574006740241" lon="11.237645774878727"><ele>423.0</ele><time>2026-03-28T12:52:08Z</time></trkpt><trkpt lat="45.745884179210115" lon="11.237518465966895"><ele>423.0</ele><time>2026-03-28T12:52:09Z</time></trkpt><trkpt lat="45.746042417384935" lon="11.237409811753189"><ele>423.0</ele><time>2026-03-28T12:52:10Z</time></trkpt><trkpt lat="45.74621028781422" lon="11.237303974166961"><ele>423.0</ele><time>2026-03-28T12:52:11Z</time></trkpt><trkpt lat="45.74636945049782" lon="11.237192845497923"><ele>429.0</ele><time>2026-03-28T12:52:12Z</time></trkpt><trkpt lat="45.74651676035328" lon="11.237076750074715"><ele>435.0</ele><time>2026-03-28T12:52:13Z</time></trkpt><trkpt lat="45.74665853713898" lon="11.236966836673162"><ele>441.0</ele><time>2026-03-28T12:52:14Z</time></trkpt><trkpt lat="45.74680591749625" lon="11.236914327889018"><ele>442.0</ele><time>2026-03-28T12:52:15Z</time></trkpt><trkpt lat="45.746947832807415" lon="11.236888662417963"><ele>443.0</ele><time>2026-03-28T12:52:16Z</time></trkpt><trkpt lat="45.74712404855694" lon="11.236881723790736"><ele>444.0</ele><time>2026-03-28T12:52:17Z</time></trkpt><trkpt lat="45.74730329320839" lon="11.236902011146956"><ele>444.0</ele><time>2026-03-28T12:52:18Z</time></trkpt><trkpt lat="45.747490731254445" lon="11.236933113090943"><ele>444.0</ele><time>2026-03-28T12:52:19Z</time></trkpt><trkpt lat="45.74766373754935" lon="11.236937270762516"><ele>444.0</ele><time>2026-03-28T12:52:20Z</time></trkpt><trkpt lat="45.74782156501374" lon="11.236910890711053"><ele>441.75</ele><time>2026-03-28T12:52:21Z</time></trkpt><trkpt lat="45.74793947515711" lon="11.236828920837164"><ele>439.5</ele><time>2026-03-28T12:52:22Z</time></trkpt><trkpt lat="45.74805261426403" lon="11.236731806064563"><ele>437.25</ele><time>2026-03-28T12:52:23Z</time></trkpt><trkpt lat="45.748179468404146" lon="11.23664180533576"><ele>435.0</ele><time>2026-03-28T12:52:24Z</time></trkpt><trkpt lat="45.74831193532659" lon="11.236549019589802"><ele>437.33333333333337</ele><time>2026-03-28T12:52:25Z</time></trkpt><trkpt lat="45.748455767741675" lon="11.236449933524783"><ele>439.6666666666667</ele><time>2026-03-28T12:52:26Z</time></trkpt><trkpt lat="45.748599663674426" lon="11.236334020187622"><ele>442.0</ele><time>2026-03-28T12:52:27Z</time></trkpt><trkpt lat="45.74872863541535" lon="11.236235466822764"><ele>442.0</ele><time>2026-03-28T12:52:28Z</time></trkpt><trkpt lat="45.74884422639935" lon="11.236132884206643"><ele>442.0</ele><time>2026-03-28T12:52:29Z</time></trkpt><trkpt lat="45.748950187906296" lon="11.235979440503865"><ele>442.0</ele><time>2026-03-28T12:52:30Z</time></trkpt><trkpt lat="45.74904298826507" lon="11.235794273833864"><ele>442.0</ele><time>2026-03-28T12:52:31Z</time></trkpt><trkpt lat="45.74913533904672" lon="11.23558786651518"><ele>440.0</ele><time>2026-03-28T12:52:32Z</time></trkpt><trkpt lat="45.74923257722856" lon="11.235366075233092"><ele>438.0</ele><time>2026-03-28T12:52:33Z</time></trkpt><trkpt lat="45.74932385664297" lon="11.235120925176705"><ele>436.0</ele><time>2026-03-28T12:52:34Z</time></trkpt><trkpt lat="45.749407708573344" lon="11.234848491759983"><ele>439.0</ele><time>2026-03-28T12:52:35Z</time></trkpt><trkpt lat="45.74950247146925" lon="11.234606772087444"><ele>442.0</ele><time>2026-03-28T12:52:36Z</time></trkpt><trkpt lat="45.74958945263945" lon="11.234426701091834"><ele>445.0</ele><time>2026-03-28T12:52:37Z</time></trkpt><trkpt lat="45.74966679941748" lon="11.234271178873966"><ele>445.0</ele><time>2026-03-28T12:52:38Z</time></trkpt><trkpt lat="45.74972194763255" lon="11.234091368450292"><ele>445.0</ele><time>2026-03-28T12:52:39Z</time></trkpt><trkpt lat="45.74975922155433" lon="11.233874120613772"><ele>445.0</ele><time>2026-03-28T12:52:40Z</time></trkpt><trkpt lat="45.7497930829584" lon="11.233636086395128"><ele>446.6666666666667</ele><time>2026-03-28T12:52:41Z</time></trkpt><trkpt lat="45.74982433241141" lon="11.233377737856072"><ele>448.33333333333337</ele><time>2026-03-28T12:52:42Z</time></trkpt><trkpt lat="45.74985290004263" lon="11.233099673311509"><ele>450.0</ele><time>2026-03-28T12:52:42.999Z</time></trkpt><trkpt lat="45.7498870145216" lon="11.23281025873224"><ele>452.33333333333337</ele><time>2026-03-28T12:52:43.999Z</time></trkpt><trkpt lat="45.74992516303215" lon="11.2325112927255"><ele>454.6666666666667</ele><time>2026-03-28T12:52:44.999Z</time></trkpt><trkpt lat="45.74996675010615" lon="11.23220363522714"><ele>457.0</ele><time>2026-03-28T12:52:45.999Z</time></trkpt><trkpt lat="45.750008406531066" lon="11.231897630010284"><ele>459.6666666666667</ele><time>2026-03-28T12:52:46.999Z</time></trkpt><trkpt lat="45.750040346383564" lon="11.231604998590992"><ele>462.33333333333337</ele><time>2026-03-28T12:52:47.999Z</time></trkpt><trkpt lat="45.75007635800839" lon="11.231318012251043"><ele>465.0</ele><time>2026-03-28T12:52:48.999Z</time></trkpt><trkpt lat="45.75011918310021" lon="11.231033040369446"><ele>467.0</ele><time>2026-03-28T12:52:49.999Z</time></trkpt><trkpt lat="45.75017107209331" lon="11.230743948426879"><ele>469.0</ele><time>2026-03-28T12:52:50.999Z</time></trkpt><trkpt lat="45.75024411946837" lon="11.230456324611364"><ele>471.0</ele><time>2026-03-28T12:52:51.999Z</time></trkpt><trkpt lat="45.75033537285583" lon="11.230176822912313"><ele>471.0</ele><time>2026-03-28T12:52:52.999Z</time></trkpt><trkpt lat="45.75042234175269" lon="11.229905316719112"><ele>471.0</ele><time>2026-03-28T12:52:53.999Z</time></trkpt><trkpt lat="45.750507235096094" lon="11.229628274702177"><ele>471.0</ele><time>2026-03-28T12:52:54.999Z</time></trkpt><trkpt lat="45.7505874544228" lon="11.229350038641742"><ele>473.33333333333337</ele><time>2026-03-28T12:52:55.999Z</time></trkpt><trkpt lat="45.75067006501536" lon="11.229068667242602"><ele>475.6666666666667</ele><time>2026-03-28T12:52:56.999Z</time></trkpt><trkpt lat="45.750761797064165" lon="11.228784561383337"><ele>478.0</ele><time>2026-03-28T12:52:57.999Z</time></trkpt><trkpt lat="45.75086297448864" lon="11.228498977085481"><ele>479.6666666666667</ele><time>2026-03-28T12:52:58.999Z</time></trkpt><trkpt lat="45.75096226701342" lon="11.228230220674083"><ele>481.33333333333337</ele><time>2026-03-28T12:52:59.999Z</time></trkpt><trkpt lat="45.751065572753646" lon="11.22799432523761"><ele>483.0</ele><time>2026-03-28T12:53:00.999Z</time></trkpt><trkpt lat="45.751184115999536" lon="11.227778771424319"><ele>483.0</ele><time>2026-03-28T12:53:01.999Z</time></trkpt><trkpt lat="45.751321277029696" lon="11.227570556640327"><ele>483.0</ele><time>2026-03-28T12:53:02.999Z</time></trkpt><trkpt lat="45.75146619048957" lon="11.227353293926392"><ele>483.0</ele><time>2026-03-28T12:53:03.999Z</time></trkpt><trkpt lat="45.75162484046131" lon="11.227130567204675"><ele>485.5</ele><time>2026-03-28T12:53:04.999Z</time></trkpt><trkpt lat="45.75179048409474" lon="11.22689797396039"><ele>488.0</ele><time>2026-03-28T12:53:05.999Z</time></trkpt><trkpt lat="45.75195600770626" lon="11.226665238104784"><ele>490.0</ele><time>2026-03-28T12:53:06.999Z</time></trkpt><trkpt lat="45.752116376729816" lon="11.226436924902279"><ele>492.0</ele><time>2026-03-28T12:53:07.999Z</time></trkpt><trkpt lat="45.7522710467025" lon="11.226216230244466"><ele>494.0</ele><time>2026-03-28T12:53:08.999Z</time></trkpt><trkpt lat="45.75241978133275" lon="11.226002954442816"><ele>494.0</ele><time>2026-03-28T12:53:09.999Z</time></trkpt><trkpt lat="45.752566401588155" lon="11.225796405609477"><ele>494.0</ele><time>2026-03-28T12:53:10.999Z</time></trkpt><trkpt lat="45.75271704632995" lon="11.225590486941721"><ele>494.0</ele><time>2026-03-28T12:53:12Z</time></trkpt><trkpt lat="45.75285979822567" lon="11.225391569102936"><ele>495.0</ele><time>2026-03-28T12:53:13Z</time></trkpt><trkpt lat="45.75299018011292" lon="11.225205390239918"><ele>496.0</ele><time>2026-03-28T12:53:14Z</time></trkpt><trkpt lat="45.753117537686244" lon="11.225038591642761"><ele>497.0</ele><time>2026-03-28T12:53:15Z</time></trkpt><trkpt lat="45.753240554421964" lon="11.224899130660093"><ele>499.5</ele><time>2026-03-28T12:53:16Z</time></trkpt><trkpt lat="45.753349422800596" lon="11.22476600961927"><ele>502.0</ele><time>2026-03-28T12:53:17Z</time></trkpt><trkpt lat="45.75345215627373" lon="11.224622004300178"><ele>504.5</ele><time>2026-03-28T12:53:18Z</time></trkpt><trkpt lat="45.7535473777264" lon="11.224457501836818"><ele>507.0</ele><time>2026-03-28T12:53:19Z</time></trkpt><trkpt lat="45.75362921000806" lon="11.22427086728314"><ele>507.0</ele><time>2026-03-28T12:53:20Z</time></trkpt><trkpt lat="45.753697402577075" lon="11.224074212366144"><ele>507.0</ele><time>2026-03-28T12:53:21Z</time></trkpt><trkpt lat="45.7537558186241" lon="11.223863518574252"><ele>507.0</ele><time>2026-03-28T12:53:22Z</time></trkpt><trkpt lat="45.75378652406801" lon="11.223626559703865"><ele>507.66666666666663</ele><time>2026-03-28T12:53:23Z</time></trkpt><trkpt lat="45.75380106705984" lon="11.223375055872744"><ele>508.3333333333333</ele><time>2026-03-28T12:53:24Z</time></trkpt><trkpt lat="45.75385113444594" lon="11.223121364061067"><ele>509.0</ele><time>2026-03-28T12:53:25Z</time></trkpt><trkpt lat="45.75392934552722" lon="11.222891160581238"><ele>511.66666666666663</ele><time>2026-03-28T12:53:26Z</time></trkpt><trkpt lat="45.754034582229245" lon="11.22267640119041"><ele>514.3333333333334</ele><time>2026-03-28T12:53:27Z</time></trkpt><trkpt lat="45.75412086000707" lon="11.222430471993844"><ele>517.0</ele><time>2026-03-28T12:53:28Z</time></trkpt><trkpt lat="45.754190348925896" lon="11.222173325035024"><ele>519.0</ele><time>2026-03-28T12:53:29Z</time></trkpt><trkpt lat="45.754287089067205" lon="11.221952402520392"><ele>521.0</ele><time>2026-03-28T12:53:30Z</time></trkpt><trkpt lat="45.75436200180101" lon="11.221748658014553"><ele>523.0</ele><time>2026-03-28T12:53:31Z</time></trkpt><trkpt lat="45.75443330844838" lon="11.221563414064207"><ele>527.3333333333334</ele><time>2026-03-28T12:53:32Z</time></trkpt><trkpt lat="45.754516899261915" lon="11.221393456743012"><ele>531.6666666666666</ele><time>2026-03-28T12:53:33Z</time></trkpt><trkpt lat="45.75462095805077" lon="11.22123674698764"><ele>536.0</ele><time>2026-03-28T12:53:34Z</time></trkpt><trkpt lat="45.75474294516503" lon="11.22109377252416"><ele>536.0</ele><time>2026-03-28T12:53:35Z</time></trkpt><trkpt lat="45.754866219399034" lon="11.220945865638619"><ele>536.0</ele><time>2026-03-28T12:53:36Z</time></trkpt><trkpt lat="45.754974593368246" lon="11.220807483880137"><ele>536.0</ele><time>2026-03-28T12:53:37Z</time></trkpt><trkpt lat="45.75506647047805" lon="11.220685598215665"><ele>536.0</ele><time>2026-03-28T12:53:38Z</time></trkpt><trkpt lat="45.755127886568594" lon="11.220560892775007"><ele>538.25</ele><time>2026-03-28T12:53:39Z</time></trkpt><trkpt lat="45.755151028741345" lon="11.2204177430453"><ele>540.5</ele><time>2026-03-28T12:53:40Z</time></trkpt><trkpt lat="45.75514390521962" lon="11.220261725195545"><ele>542.75</ele><time>2026-03-28T12:53:41Z</time></trkpt><trkpt lat="45.75511843492136" lon="11.220089983507872"><ele>545.0</ele><time>2026-03-28T12:53:42Z</time></trkpt><trkpt lat="45.75508787000407" lon="11.219909567742446"><ele>547.6</ele><time>2026-03-28T12:53:43Z</time></trkpt><trkpt lat="45.75504379312331" lon="11.219733135036517"><ele>550.2</ele><time>2026-03-28T12:53:44Z</time></trkpt><trkpt lat="45.75497306427232" lon="11.219593608822004"><ele>552.8</ele><time>2026-03-28T12:53:45Z</time></trkpt><trkpt lat="45.7548988925944" lon="11.219493201473766"><ele>555.4</ele><time>2026-03-28T12:53:46Z</time></trkpt><trkpt lat="45.754830980850286" lon="11.219416659256138"><ele>558.0</ele><time>2026-03-28T12:53:47Z</time></trkpt><trkpt lat="45.754773532836374" lon="11.219339814298113"><ele>558.0</ele><time>2026-03-28T12:53:48Z</time></trkpt><trkpt lat="45.754746292152575" lon="11.219242856193302"><ele>558.0</ele><time>2026-03-28T12:53:49Z</time></trkpt><trkpt lat="45.754771099010235" lon="11.219111751665581"><ele>558.0</ele><time>2026-03-28T12:53:50Z</time></trkpt><trkpt lat="45.75483199074495" lon="11.218985925941887"><ele>558.0</ele><time>2026-03-28T12:53:51Z</time></trkpt><trkpt lat="45.754896560225106" lon="11.218855632825788"><ele>558.0</ele><time>2026-03-28T12:53:52Z</time></trkpt><trkpt lat="45.75495108385463" lon="11.218700783887705"><ele>560.25</ele><time>2026-03-28T12:53:53Z</time></trkpt><trkpt lat="45.75501462339857" lon="11.218539799202835"><ele>562.5</ele><time>2026-03-28T12:53:54Z</time></trkpt><trkpt lat="45.755058765034846" lon="11.21837804227874"><ele>564.75</ele><time>2026-03-28T12:53:55Z</time></trkpt><trkpt lat="45.75510311493995" lon="11.2182147951605"><ele>567.0</ele><time>2026-03-28T12:53:56Z</time></trkpt><trkpt lat="45.755140166821" lon="11.21804761514831"><ele>567.75</ele><time>2026-03-28T12:53:57Z</time></trkpt><trkpt lat="45.75513752225973" lon="11.217856261024993"><ele>568.5</ele><time>2026-03-28T12:53:58Z</time></trkpt><trkpt lat="45.75515144320845" lon="11.217651263404708"><ele>569.25</ele><time>2026-03-28T12:53:59Z</time></trkpt><trkpt lat="45.75513823116653" lon="11.217429275277771"><ele>570.0</ele><time>2026-03-28T12:54:00Z</time></trkpt><trkpt lat="45.75514845401843" lon="11.217193049304946"><ele>571.6666666666666</ele><time>2026-03-28T12:54:01Z</time></trkpt><trkpt lat="45.755156992950255" lon="11.216947094074529"><ele>573.3333333333333</ele><time>2026-03-28T12:54:02Z</time></trkpt><trkpt lat="45.75515652174006" lon="11.21670817448968"><ele>575.0</ele><time>2026-03-28T12:54:03Z</time></trkpt><trkpt lat="45.7551540641129" lon="11.216484373945857"><ele>578.0</ele><time>2026-03-28T12:54:04Z</time></trkpt><trkpt lat="45.7551587359675" lon="11.216266754281959"><ele>581.0</ele><time>2026-03-28T12:54:05Z</time></trkpt><trkpt lat="45.755178416596166" lon="11.216043952449052"><ele>584.0</ele><time>2026-03-28T12:54:06Z</time></trkpt><trkpt lat="45.75520367526631" lon="11.215823167486933"><ele>582.0</ele><time>2026-03-28T12:54:07Z</time></trkpt><trkpt lat="45.75527012315636" lon="11.215600528664803"><ele>580.0</ele><time>2026-03-28T12:54:08Z</time></trkpt><trkpt lat="45.755313908054006" lon="11.215355190132422"><ele>578.0</ele><time>2026-03-28T12:54:09Z</time></trkpt><trkpt lat="45.75538257778227" lon="11.215153121494428"><ele>578.0</ele><time>2026-03-28T12:54:10Z</time></trkpt><trkpt lat="45.75543316924686" lon="11.214946183506214"><ele>578.0</ele><time>2026-03-28T12:54:11Z</time></trkpt><trkpt lat="45.75548025427524" lon="11.214775529204864"><ele>578.0</ele><time>2026-03-28T12:54:12Z</time></trkpt><trkpt lat="45.755519729470606" lon="11.214647774668776"><ele>578.0</ele><time>2026-03-28T12:54:13Z</time></trkpt><trkpt lat="45.755533788013594" lon="11.214548186170575"><ele>578.0</ele><time>2026-03-28T12:54:14Z</time></trkpt><trkpt lat="45.75550928035303" lon="11.2144568726579"><ele>580.8</ele><time>2026-03-28T12:54:15Z</time></trkpt><trkpt lat="45.75539363797873" lon="11.214443317678052"><ele>583.5999999999999</ele><time>2026-03-28T12:54:17Z</time></trkpt><trkpt lat="45.75533398544918" lon="11.21454208648791"><ele>586.4000000000001</ele><time>2026-03-28T12:54:18Z</time></trkpt><trkpt lat="45.75528089412787" lon="11.214670704154749"><ele>589.2</ele><time>2026-03-28T12:54:19Z</time></trkpt><trkpt lat="45.7552079672835" lon="11.214812391861027"><ele>592.0</ele><time>2026-03-28T12:54:20Z</time></trkpt><trkpt lat="45.75511864665346" lon="11.214980399809857"><ele>592.3333333333334</ele><time>2026-03-28T12:54:21Z</time></trkpt><trkpt lat="45.75504347503648" lon="11.215151847253232"><ele>592.6666666666666</ele><time>2026-03-28T12:54:22Z</time></trkpt><trkpt lat="45.754948438147615" lon="11.215320818517672"><ele>593.0</ele><time>2026-03-28T12:54:23Z</time></trkpt><trkpt lat="45.75485865691854" lon="11.215540067622946"><ele>590.0</ele><time>2026-03-28T12:54:24Z</time></trkpt><trkpt lat="45.754787882391206" lon="11.215757372866015"><ele>587.0</ele><time>2026-03-28T12:54:25Z</time></trkpt><trkpt lat="45.754713874042714" lon="11.215950830144141"><ele>584.0</ele><time>2026-03-28T12:54:26Z</time></trkpt><trkpt lat="45.75465723112357" lon="11.216139546312931"><ele>584.0</ele><time>2026-03-28T12:54:27Z</time></trkpt><trkpt lat="45.75458959513511" lon="11.216293041141785"><ele>584.0</ele><time>2026-03-28T12:54:28Z</time></trkpt><trkpt lat="45.75453790017054" lon="11.216437647243124"><ele>584.0</ele><time>2026-03-28T12:54:29Z</time></trkpt><trkpt lat="45.7544951979977" lon="11.216548572487323"><ele>584.0</ele><time>2026-03-28T12:54:30Z</time></trkpt><trkpt lat="45.754430302933365" lon="11.216617601217704"><ele>584.0</ele><time>2026-03-28T12:54:32Z</time></trkpt><trkpt lat="45.75437931782987" lon="11.216468011107436"><ele>584.0</ele><time>2026-03-28T12:54:34Z</time></trkpt><trkpt lat="45.75441066857571" lon="11.216332294840212"><ele>584.0</ele><time>2026-03-28T12:54:35Z</time></trkpt><trkpt lat="45.75443359950937" lon="11.216190500348722"><ele>584.0</ele><time>2026-03-28T12:54:36Z</time></trkpt><trkpt lat="45.75444557564533" lon="11.216032718846975"><ele>584.0</ele><time>2026-03-28T12:54:37Z</time></trkpt><trkpt lat="45.754454880611746" lon="11.215881988822106"><ele>584.0</ele><time>2026-03-28T12:54:38Z</time></trkpt><trkpt lat="45.75447166487213" lon="11.215703529455519"><ele>587.0</ele><time>2026-03-28T12:54:38.999Z</time></trkpt><trkpt lat="45.75449187856103" lon="11.215506445063223"><ele>590.0</ele><time>2026-03-28T12:54:39.999Z</time></trkpt><trkpt lat="45.75451640223318" lon="11.215285975432923"><ele>593.0</ele><time>2026-03-28T12:54:40.999Z</time></trkpt><trkpt lat="45.754541515382876" lon="11.215055796314727"><ele>593.0</ele><time>2026-03-28T12:54:41.999Z</time></trkpt><trkpt lat="45.75456256062903" lon="11.214830787084486"><ele>593.0</ele><time>2026-03-28T12:54:42.999Z</time></trkpt><trkpt lat="45.754604954879625" lon="11.214598955977927"><ele>593.0</ele><time>2026-03-28T12:54:43.999Z</time></trkpt><trkpt lat="45.75465312099364" lon="11.214366362088542"><ele>598.3333333333333</ele><time>2026-03-28T12:54:44.999Z</time></trkpt><trkpt lat="45.754709808452695" lon="11.214139599739458"><ele>603.6666666666666</ele><time>2026-03-28T12:54:45.999Z</time></trkpt><trkpt lat="45.754804413199395" lon="11.213944755969724"><ele>609.0</ele><time>2026-03-28T12:54:46.999Z</time></trkpt><trkpt lat="45.754916945578785" lon="11.213773707934838"><ele>614.3333333333334</ele><time>2026-03-28T12:54:47.999Z</time></trkpt><trkpt lat="45.75504102274291" lon="11.213627254504871"><ele>619.6666666666667</ele><time>2026-03-28T12:54:48.999Z</time></trkpt><trkpt lat="45.755191261535074" lon="11.21355034374705"><ele>625.0</ele><time>2026-03-28T12:54:49.999Z</time></trkpt><trkpt lat="45.75531853812211" lon="11.213442999275356"><ele>625.0</ele><time>2026-03-28T12:54:50.999Z</time></trkpt><trkpt lat="45.755441501073555" lon="11.213329859778245"><ele>625.0</ele><time>2026-03-28T12:54:51.999Z</time></trkpt><trkpt lat="45.75554599749676" lon="11.21317962149377"><ele>625.0</ele><time>2026-03-28T12:54:52.999Z</time></trkpt><trkpt lat="45.75565442681279" lon="11.21302222929466"><ele>625.0</ele><time>2026-03-28T12:54:53.999Z</time></trkpt><trkpt lat="45.7557849152624" lon="11.212888024643945"><ele>628.3333333333334</ele><time>2026-03-28T12:54:54.999Z</time></trkpt><trkpt lat="45.75591975716833" lon="11.212752994436581"><ele>631.6666666666666</ele><time>2026-03-28T12:54:55.999Z</time></trkpt><trkpt lat="45.756069493911326" lon="11.212662854066382"><ele>635.0</ele><time>2026-03-28T12:54:56.999Z</time></trkpt><trkpt lat="45.756215648783794" lon="11.212535957811077"><ele>635.0</ele><time>2026-03-28T12:54:57.999Z</time></trkpt><trkpt lat="45.75634309600005" lon="11.212391943951795"><ele>635.0</ele><time>2026-03-28T12:54:58.999Z</time></trkpt><trkpt lat="45.75645630834374" lon="11.212248940822489"><ele>635.0</ele><time>2026-03-28T12:54:59.999Z</time></trkpt><trkpt lat="45.75653911567456" lon="11.212110586084323"><ele>635.0</ele><time>2026-03-28T12:55:00.999Z</time></trkpt><trkpt lat="45.756613274016225" lon="11.211967966462648"><ele>640.5</ele><time>2026-03-28T12:55:01.999Z</time></trkpt><trkpt lat="45.756734756646246" lon="11.211885140414855"><ele>646.0</ele><time>2026-03-28T12:55:02.999Z</time></trkpt><trkpt lat="45.75687537275709" lon="11.211815782732735"><ele>651.5</ele><time>2026-03-28T12:55:03.999Z</time></trkpt><trkpt lat="45.75703135662406" lon="11.211752785900915"><ele>657.0</ele><time>2026-03-28T12:55:04.999Z</time></trkpt><trkpt lat="45.75718724017322" lon="11.211674119837513"><ele>657.0</ele><time>2026-03-28T12:55:05.999Z</time></trkpt><trkpt lat="45.757344593004966" lon="11.21161046749701"><ele>657.0</ele><time>2026-03-28T12:55:06.999Z</time></trkpt><trkpt lat="45.75749327405508" lon="11.21155427860244"><ele>657.0</ele><time>2026-03-28T12:55:07.999Z</time></trkpt><trkpt lat="45.75763645166056" lon="11.211469578486458"><ele>662.3333333333334</ele><time>2026-03-28T12:55:08.999Z</time></trkpt><trkpt lat="45.75777864787452" lon="11.211361448189967"><ele>667.6666666666667</ele><time>2026-03-28T12:55:09.999Z</time></trkpt><trkpt lat="45.757921358699285" lon="11.211229478837426"><ele>673.0</ele><time>2026-03-28T12:55:10.999Z</time></trkpt><trkpt lat="45.75803463156626" lon="11.211116730496299"><ele>673.0</ele><time>2026-03-28T12:55:11.999Z</time></trkpt><trkpt lat="45.75814653354763" lon="11.211032092771816"><ele>673.0</ele><time>2026-03-28T12:55:12.999Z</time></trkpt><trkpt lat="45.758270250807364" lon="11.210991223773956"><ele>673.0</ele><time>2026-03-28T12:55:13.999Z</time></trkpt><trkpt lat="45.758392860490936" lon="11.210967958770008"><ele>673.0</ele><time>2026-03-28T12:55:14.999Z</time></trkpt><trkpt lat="45.75849786293149" lon="11.21090046919309"><ele>669.25</ele><time>2026-03-28T12:55:15.999Z</time></trkpt><trkpt lat="45.7585934127741" lon="11.210790352474818"><ele>665.5</ele><time>2026-03-28T12:55:16.999Z</time></trkpt><trkpt lat="45.75868486725402" lon="11.210645323864608"><ele>661.75</ele><time>2026-03-28T12:55:18Z</time></trkpt><trkpt lat="45.7587497426987" lon="11.21050679527803"><ele>658.0</ele><time>2026-03-28T12:55:19Z</time></trkpt><trkpt lat="45.75878279007178" lon="11.210373499546582"><ele>658.0</ele><time>2026-03-28T12:55:20Z</time></trkpt><trkpt lat="45.758783826486244" lon="11.210218544081348"><ele>658.0</ele><time>2026-03-28T12:55:21Z</time></trkpt><trkpt lat="45.758789081570335" lon="11.210049834673582"><ele>658.0</ele><time>2026-03-28T12:55:22Z</time></trkpt><trkpt lat="45.758804065157534" lon="11.209864672264178"><ele>658.0</ele><time>2026-03-28T12:55:23Z</time></trkpt><trkpt lat="45.75881256054353" lon="11.209654368664822"><ele>662.6666666666667</ele><time>2026-03-28T12:55:24Z</time></trkpt><trkpt lat="45.7587982635865" lon="11.20942825935816"><ele>667.3333333333334</ele><time>2026-03-28T12:55:25Z</time></trkpt><trkpt lat="45.758805452487145" lon="11.209198462733404"><ele>672.0</ele><time>2026-03-28T12:55:26Z</time></trkpt><trkpt lat="45.758831583832986" lon="11.208988601550875"><ele>675.5</ele><time>2026-03-28T12:55:27Z</time></trkpt><trkpt lat="45.75886013821461" lon="11.20879677175482"><ele>679.0</ele><time>2026-03-28T12:55:28Z</time></trkpt><trkpt lat="45.75889366991675" lon="11.20862578787997"><ele>682.5</ele><time>2026-03-28T12:55:29Z</time></trkpt><trkpt lat="45.75896346778272" lon="11.208468186360243"><ele>686.0</ele><time>2026-03-28T12:55:30Z</time></trkpt><trkpt lat="45.759062886611176" lon="11.2083284096965"><ele>686.0</ele><time>2026-03-28T12:55:31Z</time></trkpt><trkpt lat="45.75916596478941" lon="11.208169679536006"><ele>686.0</ele><time>2026-03-28T12:55:32Z</time></trkpt><trkpt lat="45.75926049071677" lon="11.207993335795981"><ele>686.0</ele><time>2026-03-28T12:55:33Z</time></trkpt><trkpt lat="45.75933757490154" lon="11.20779372449522"><ele>688.0</ele><time>2026-03-28T12:55:34Z</time></trkpt><trkpt lat="45.75941080158953" lon="11.207582916560467"><ele>690.0</ele><time>2026-03-28T12:55:35Z</time></trkpt><trkpt lat="45.75946597134935" lon="11.207366014881208"><ele>692.0</ele><time>2026-03-28T12:55:36Z</time></trkpt><trkpt lat="45.759506493712045" lon="11.207150618899758"><ele>692.0</ele><time>2026-03-28T12:55:37Z</time></trkpt><trkpt lat="45.75955234143491" lon="11.206956835259227"><ele>692.0</ele><time>2026-03-28T12:55:38Z</time></trkpt><trkpt lat="45.75960059287399" lon="11.206786435591964"><ele>692.0</ele><time>2026-03-28T12:55:39Z</time></trkpt><trkpt lat="45.759635570640576" lon="11.206623693025268"><ele>692.0</ele><time>2026-03-28T12:55:40Z</time></trkpt><trkpt lat="45.75965290548723" lon="11.206457546366586"><ele>695.0</ele><time>2026-03-28T12:55:41Z</time></trkpt><trkpt lat="45.75963044512961" lon="11.206304578541848"><ele>698.0</ele><time>2026-03-28T12:55:42Z</time></trkpt><trkpt lat="45.75957108230529" lon="11.206158294993005"><ele>701.0</ele><time>2026-03-28T12:55:43Z</time></trkpt><trkpt lat="45.7595265011812" lon="11.205983194756795"><ele>704.0</ele><time>2026-03-28T12:55:44Z</time></trkpt><trkpt lat="45.75948160332841" lon="11.205808650950166"><ele>707.25</ele><time>2026-03-28T12:55:45Z</time></trkpt><trkpt lat="45.75946869109525" lon="11.205639528477379"><ele>710.5</ele><time>2026-03-28T12:55:46Z</time></trkpt><trkpt lat="45.75951903231726" lon="11.205469642482816"><ele>713.75</ele><time>2026-03-28T12:55:47Z</time></trkpt><trkpt lat="45.759589973352774" lon="11.205307525145708"><ele>717.0</ele><time>2026-03-28T12:55:48Z</time></trkpt><trkpt lat="45.759684972811776" lon="11.205147255917991"><ele>717.0</ele><time>2026-03-28T12:55:49Z</time></trkpt><trkpt lat="45.75978612569706" lon="11.205012956445401"><ele>717.0</ele><time>2026-03-28T12:55:50Z</time></trkpt><trkpt lat="45.759879043958854" lon="11.204921039242766"><ele>717.0</ele><time>2026-03-28T12:55:51Z</time></trkpt><trkpt lat="45.759944858867904" lon="11.204846393554998"><ele>717.0</ele><time>2026-03-28T12:55:52Z</time></trkpt><trkpt lat="45.75999481778285" lon="11.204773617689076"><ele>717.0</ele><time>2026-03-28T12:55:53Z</time></trkpt><trkpt lat="45.760025789546596" lon="11.204685223971914"><ele>722.0</ele><time>2026-03-28T12:55:54Z</time></trkpt><trkpt lat="45.759974792429944" lon="11.204544385796412"><ele>727.0</ele><time>2026-03-28T12:55:56Z</time></trkpt><trkpt lat="45.7598390736513" lon="11.20456304503805"><ele>732.0</ele><time>2026-03-28T12:55:58Z</time></trkpt><trkpt lat="45.759758304847324" lon="11.204648919550783"><ele>737.0</ele><time>2026-03-28T12:55:59Z</time></trkpt><trkpt lat="45.759671845722394" lon="11.204764902032482"><ele>737.0</ele><time>2026-03-28T12:56:00Z</time></trkpt><trkpt lat="45.75955892598559" lon="11.204902892194374"><ele>737.0</ele><time>2026-03-28T12:56:01Z</time></trkpt><trkpt lat="45.759433827762905" lon="11.205054519942443"><ele>737.0</ele><time>2026-03-28T12:56:02Z</time></trkpt><trkpt lat="45.75931189103862" lon="11.205204077780547"><ele>737.0</ele><time>2026-03-28T12:56:03Z</time></trkpt><trkpt lat="45.759181631584326" lon="11.205371317969686"><ele>737.0</ele><time>2026-03-28T12:56:04Z</time></trkpt><trkpt lat="45.75904222889357" lon="11.20555293752567"><ele>737.0</ele><time>2026-03-28T12:56:05Z</time></trkpt><trkpt lat="45.758912470219705" lon="11.205730584781502"><ele>730.6666666666666</ele><time>2026-03-28T12:56:06Z</time></trkpt><trkpt lat="45.758785991761776" lon="11.20589547784865"><ele>724.3333333333334</ele><time>2026-03-28T12:56:07Z</time></trkpt><trkpt lat="45.758660814818434" lon="11.206053295923148"><ele>718.0</ele><time>2026-03-28T12:56:08Z</time></trkpt><trkpt lat="45.758536419205704" lon="11.206197710176044"><ele>720.5999999999999</ele><time>2026-03-28T12:56:09Z</time></trkpt><trkpt lat="45.758422016862596" lon="11.206331493525965"><ele>723.1999999999999</ele><time>2026-03-28T12:56:10Z</time></trkpt><trkpt lat="45.758317845242736" lon="11.206429762139047"><ele>725.8</ele><time>2026-03-28T12:56:11Z</time></trkpt><trkpt lat="45.75824683149969" lon="11.20651509468466"><ele>728.4</ele><time>2026-03-28T12:56:12Z</time></trkpt><trkpt lat="45.758193220122436" lon="11.206577704133402"><ele>731.0</ele><time>2026-03-28T12:56:13Z</time></trkpt><trkpt lat="45.7581128433997" lon="11.2065147431373"><ele>733.5999999999999</ele><time>2026-03-28T12:56:15Z</time></trkpt><trkpt lat="45.75816143574105" lon="11.206360594511894"><ele>736.2</ele><time>2026-03-28T12:56:17Z</time></trkpt><trkpt lat="45.75822772428987" lon="11.206278640893304"><ele>738.8</ele><time>2026-03-28T12:56:18Z</time></trkpt><trkpt lat="45.75830545085635" lon="11.206181492010408"><ele>741.4000000000001</ele><time>2026-03-28T12:56:19Z</time></trkpt><trkpt lat="45.75837974249532" lon="11.206056046678414"><ele>744.0</ele><time>2026-03-28T12:56:20Z</time></trkpt><trkpt lat="45.75845859064246" lon="11.205906323178596"><ele>742.25</ele><time>2026-03-28T12:56:21Z</time></trkpt><trkpt lat="45.758554433482" lon="11.205761167517945"><ele>740.5</ele><time>2026-03-28T12:56:22Z</time></trkpt><trkpt lat="45.758627803972296" lon="11.205601618328368"><ele>738.75</ele><time>2026-03-28T12:56:23Z</time></trkpt><trkpt lat="45.75871087331523" lon="11.205430271592501"><ele>737.0</ele><time>2026-03-28T12:56:24Z</time></trkpt><trkpt lat="45.75878839649886" lon="11.205240105583055"><ele>737.0</ele><time>2026-03-28T12:56:25Z</time></trkpt><trkpt lat="45.7588684428564" lon="11.205046306135939"><ele>737.0</ele><time>2026-03-28T12:56:26Z</time></trkpt><trkpt lat="45.75895273245223" lon="11.204842916008989"><ele>737.0</ele><time>2026-03-28T12:56:27Z</time></trkpt><trkpt lat="45.75906841558012" lon="11.204661603174726"><ele>737.0</ele><time>2026-03-28T12:56:28Z</time></trkpt><trkpt lat="45.759192508089356" lon="11.204479087306606"><ele>737.0</ele><time>2026-03-28T12:56:29Z</time></trkpt><trkpt lat="45.7593349128798" lon="11.204303719256343"><ele>737.0</ele><time>2026-03-28T12:56:30Z</time></trkpt><trkpt lat="45.75946206075512" lon="11.20412808867403"><ele>745.6666666666666</ele><time>2026-03-28T12:56:31Z</time></trkpt><trkpt lat="45.75960590432396" lon="11.203962675722957"><ele>754.3333333333334</ele><time>2026-03-28T12:56:32Z</time></trkpt><trkpt lat="45.75973908223277" lon="11.203774721576663"><ele>763.0</ele><time>2026-03-28T12:56:33Z</time></trkpt><trkpt lat="45.759856680042674" lon="11.20357925381148"><ele>763.0</ele><time>2026-03-28T12:56:34Z</time></trkpt><trkpt lat="45.75996818974145" lon="11.203370488556448"><ele>763.0</ele><time>2026-03-28T12:56:35Z</time></trkpt><trkpt lat="45.760080916812655" lon="11.203171007958769"><ele>763.0</ele><time>2026-03-28T12:56:36Z</time></trkpt><trkpt lat="45.76014439637311" lon="11.202958572354529"><ele>762.6666666666667</ele><time>2026-03-28T12:56:37Z</time></trkpt><trkpt lat="45.7601944063793" lon="11.202755030239775"><ele>762.3333333333334</ele><time>2026-03-28T12:56:38Z</time></trkpt><trkpt lat="45.760224143605036" lon="11.202537588506754"><ele>762.0</ele><time>2026-03-28T12:56:39Z</time></trkpt><trkpt lat="45.76026957960139" lon="11.20230371931449"><ele>762.0</ele><time>2026-03-28T12:56:40Z</time></trkpt><trkpt lat="45.76032605093669" lon="11.20208222803636"><ele>762.0</ele><time>2026-03-28T12:56:41Z</time></trkpt><trkpt lat="45.76037125438324" lon="11.201877627820258"><ele>762.0</ele><time>2026-03-28T12:56:42Z</time></trkpt><trkpt lat="45.76038275389283" lon="11.201669793970911"><ele>766.3333333333333</ele><time>2026-03-28T12:56:42.999Z</time></trkpt><trkpt lat="45.76036547794771" lon="11.201455229024617"><ele>770.6666666666666</ele><time>2026-03-28T12:56:43.999Z</time></trkpt><trkpt lat="45.76034855580882" lon="11.201228128669628"><ele>775.0</ele><time>2026-03-28T12:56:44.999Z</time></trkpt><trkpt lat="45.760363851925995" lon="11.20101649972966"><ele>775.0</ele><time>2026-03-28T12:56:45.999Z</time></trkpt><trkpt lat="45.76045017345703" lon="11.200856617119543"><ele>775.0</ele><time>2026-03-28T12:56:46.999Z</time></trkpt><trkpt lat="45.76049487187655" lon="11.20067517685194"><ele>775.0</ele><time>2026-03-28T12:56:47.999Z</time></trkpt><trkpt lat="45.760549360607484" lon="11.20049783325234"><ele>775.0</ele><time>2026-03-28T12:56:48.999Z</time></trkpt><trkpt lat="45.76057856242806" lon="11.200300496897636"><ele>778.25</ele><time>2026-03-28T12:56:49.999Z</time></trkpt><trkpt lat="45.760581314380985" lon="11.200091824041763"><ele>781.5</ele><time>2026-03-28T12:56:50.999Z</time></trkpt><trkpt lat="45.760604945644396" lon="11.199883298718186"><ele>784.75</ele><time>2026-03-28T12:56:51.999Z</time></trkpt><trkpt lat="45.7606413974446" lon="11.199678341003926"><ele>788.0</ele><time>2026-03-28T12:56:52.999Z</time></trkpt><trkpt lat="45.760705734711536" lon="11.199489894064689"><ele>790.0</ele><time>2026-03-28T12:56:53.999Z</time></trkpt><trkpt lat="45.760793813221845" lon="11.19933534826082"><ele>792.0</ele><time>2026-03-28T12:56:54.999Z</time></trkpt><trkpt lat="45.76088173411988" lon="11.199196291136003"><ele>794.0</ele><time>2026-03-28T12:56:55.999Z</time></trkpt><trkpt lat="45.760989042664285" lon="11.199116021997032"><ele>796.0</ele><time>2026-03-28T12:56:56.999Z</time></trkpt><trkpt lat="45.761086665077286" lon="11.199064261715183"><ele>798.2857142857142</ele><time>2026-03-28T12:56:57.999Z</time></trkpt><trkpt lat="45.761144684323824" lon="11.199003813129828"><ele>800.5714285714286</ele><time>2026-03-28T12:56:58.999Z</time></trkpt><trkpt lat="45.76115531586704" lon="11.198902951701301"><ele>802.8571428571429</ele><time>2026-03-28T12:56:59.999Z</time></trkpt><trkpt lat="45.76114871397053" lon="11.198793732148287"><ele>805.1428571428571</ele><time>2026-03-28T12:57:00.999Z</time></trkpt><trkpt lat="45.76112827275884" lon="11.198682006175282"><ele>807.4285714285714</ele><time>2026-03-28T12:57:01.999Z</time></trkpt><trkpt lat="45.761094545091424" lon="11.19857929164006"><ele>809.7142857142857</ele><time>2026-03-28T12:57:02.999Z</time></trkpt><trkpt lat="45.76103931741636" lon="11.198519560563978"><ele>812.0</ele><time>2026-03-28T12:57:03.999Z</time></trkpt><trkpt lat="45.76097415804051" lon="11.198465348434256"><ele>812.0</ele><time>2026-03-28T12:57:04.999Z</time></trkpt><trkpt lat="45.760862409930716" lon="11.198535268894181"><ele>812.0</ele><time>2026-03-28T12:57:05.999Z</time></trkpt><trkpt lat="45.760771910992446" lon="11.19861898399229"><ele>812.0</ele><time>2026-03-28T12:57:06.999Z</time></trkpt><trkpt lat="45.760682473509206" lon="11.198733307181376"><ele>812.0</ele><time>2026-03-28T12:57:07.999Z</time></trkpt><trkpt lat="45.76059050345375" lon="11.198864468263828"><ele>812.0</ele><time>2026-03-28T12:57:08.999Z</time></trkpt><trkpt lat="45.760492251895215" lon="11.198995690136483"><ele>812.0</ele><time>2026-03-28T12:57:09.999Z</time></trkpt><trkpt lat="45.760408193395804" lon="11.199145096066685"><ele>812.0</ele><time>2026-03-28T12:57:10.999Z</time></trkpt><trkpt lat="45.76036470509739" lon="11.199301533976593"><ele>812.0</ele><time>2026-03-28T12:57:11.999Z</time></trkpt><trkpt lat="45.76032856113976" lon="11.199407094652843"><ele>809.3333333333334</ele><time>2026-03-28T12:57:12.999Z</time></trkpt><trkpt lat="45.7602991852597" lon="11.19949908062506"><ele>806.6666666666667</ele><time>2026-03-28T12:57:13.999Z</time></trkpt><trkpt lat="45.76019790097475" lon="11.199525182975114"><ele>804.0</ele><time>2026-03-28T12:57:16.999Z</time></trkpt><trkpt lat="45.76017477287228" lon="11.199407405735723"><ele>801.3333333333333</ele><time>2026-03-28T12:57:17.999Z</time></trkpt><trkpt lat="45.76018837420756" lon="11.199306835900432"><ele>798.6666666666666</ele><time>2026-03-28T12:57:18.999Z</time></trkpt><trkpt lat="45.76026039160925" lon="11.199218803575043"><ele>796.0</ele><time>2026-03-28T12:57:19.999Z</time></trkpt><trkpt lat="45.7603042130099" lon="11.199084145762656"><ele>800.0</ele><time>2026-03-28T12:57:20.999Z</time></trkpt><trkpt lat="45.760378673706306" lon="11.198941761910692"><ele>804.0</ele><time>2026-03-28T12:57:21.999Z</time></trkpt><trkpt lat="45.7604354108763" lon="11.198746728885277"><ele>808.0</ele><time>2026-03-28T12:57:22.999Z</time></trkpt><trkpt lat="45.76046590444677" lon="11.19855463776336"><ele>812.0</ele><time>2026-03-28T12:57:24Z</time></trkpt><trkpt lat="45.76051661406422" lon="11.198358366791245"><ele>817.0</ele><time>2026-03-28T12:57:25Z</time></trkpt><trkpt lat="45.76056291852616" lon="11.198139243029283"><ele>822.0</ele><time>2026-03-28T12:57:26Z</time></trkpt><trkpt lat="45.7606232185572" lon="11.197912975856218"><ele>827.0</ele><time>2026-03-28T12:57:27Z</time></trkpt><trkpt lat="45.760633774535606" lon="11.19768332642403"><ele>827.0</ele><time>2026-03-28T12:57:28Z</time></trkpt><trkpt lat="45.76062834505267" lon="11.197476753725088"><ele>827.0</ele><time>2026-03-28T12:57:29Z</time></trkpt><trkpt lat="45.76065276252027" lon="11.197305623754085"><ele>827.0</ele><time>2026-03-28T12:57:30Z</time></trkpt><trkpt lat="45.76066086273887" lon="11.197136041865615"><ele>827.0</ele><time>2026-03-28T12:57:31Z</time></trkpt><trkpt lat="45.760719029453796" lon="11.196994976415187"><ele>837.0</ele><time>2026-03-28T12:57:32Z</time></trkpt><trkpt lat="45.7607982328879" lon="11.196898603361616"><ele>847.0</ele><time>2026-03-28T12:57:33Z</time></trkpt><trkpt lat="45.76091646904307" lon="11.196860314903988"><ele>857.0</ele><time>2026-03-28T12:57:34Z</time></trkpt><trkpt lat="45.76103840399924" lon="11.196817658106978"><ele>867.0</ele><time>2026-03-28T12:57:35Z</time></trkpt><trkpt lat="45.76116134190472" lon="11.196767815640362"><ele>869.75</ele><time>2026-03-28T12:57:36Z</time></trkpt><trkpt lat="45.76127998868453" lon="11.196771765173592"><ele>872.5</ele><time>2026-03-28T12:57:37Z</time></trkpt><trkpt lat="45.761401185978976" lon="11.196843514917692"><ele>875.25</ele><time>2026-03-28T12:57:38Z</time></trkpt><trkpt lat="45.761488553830475" lon="11.196970173074751"><ele>878.0</ele><time>2026-03-28T12:57:39Z</time></trkpt><trkpt lat="45.761571652862685" lon="11.19707712754926"><ele>878.0000000000001</ele><time>2026-03-28T12:57:40Z</time></trkpt><trkpt lat="45.761646800779374" lon="11.197129074804787"><ele>878.0</ele><time>2026-03-28T12:57:41Z</time></trkpt><trkpt lat="45.76172665991264" lon="11.19711971314362"><ele>878.0</ele><time>2026-03-28T12:57:42Z</time></trkpt><trkpt lat="45.76179621535856" lon="11.19706218279193"><ele>878.0</ele><time>2026-03-28T12:57:43Z</time></trkpt><trkpt lat="45.76186312974379" lon="11.196967549433312"><ele>878.0000000000001</ele><time>2026-03-28T12:57:44Z</time></trkpt><trkpt lat="45.76195978383745" lon="11.196898392578492"><ele>878.0</ele><time>2026-03-28T12:57:45Z</time></trkpt><trkpt lat="45.762067418245515" lon="11.196831407028682"><ele>880.5</ele><time>2026-03-28T12:57:46Z</time></trkpt><trkpt lat="45.76218228777146" lon="11.19675333613084"><ele>883.0</ele><time>2026-03-28T12:57:47Z</time></trkpt><trkpt lat="45.762296945151576" lon="11.196641514610143"><ele>885.5</ele><time>2026-03-28T12:57:48Z</time></trkpt><trkpt lat="45.7623958803181" lon="11.1965157966702"><ele>888.0</ele><time>2026-03-28T12:57:49Z</time></trkpt><trkpt lat="45.76248693280439" lon="11.196411194423888"><ele>888.0</ele><time>2026-03-28T12:57:50Z</time></trkpt><trkpt lat="45.76258360178076" lon="11.196345233392"><ele>888.0</ele><time>2026-03-28T12:57:51Z</time></trkpt><trkpt lat="45.76267626587223" lon="11.196308972379116"><ele>888.0</ele><time>2026-03-28T12:57:52Z</time></trkpt><trkpt lat="45.762757655749674" lon="11.196318295678694"><ele>888.0</ele><time>2026-03-28T12:57:53Z</time></trkpt><trkpt lat="45.76282499473538" lon="11.196379892184575"><ele>888.0</ele><time>2026-03-28T12:57:54Z</time></trkpt><trkpt lat="45.762879987962016" lon="11.196431884156125"><ele>888.0</ele><time>2026-03-28T12:57:55Z</time></trkpt><trkpt lat="45.76286174655992" lon="11.19655233369691"><ele>886.0</ele><time>2026-03-28T12:57:56Z</time></trkpt><trkpt lat="45.762832038362404" lon="11.196674625298591"><ele>884.0</ele><time>2026-03-28T12:57:57Z</time></trkpt><trkpt lat="45.76281471623343" lon="11.196835731392923"><ele>882.0</ele><time>2026-03-28T12:57:58Z</time></trkpt><trkpt lat="45.76280013750625" lon="11.19699917163691"><ele>880.0</ele><time>2026-03-28T12:57:59Z</time></trkpt><trkpt lat="45.76280782031216" lon="11.197171048306302"><ele>878.0</ele><time>2026-03-28T12:58:00Z</time></trkpt><trkpt lat="45.762827841670486" lon="11.197344435347857"><ele>878.0</ele><time>2026-03-28T12:58:01Z</time></trkpt><trkpt lat="45.76284646014518" lon="11.197496459784144"><ele>878.0</ele><time>2026-03-28T12:58:02Z</time></trkpt><trkpt lat="45.762878944040104" lon="11.197581268058082"><ele>878.0</ele><time>2026-03-28T12:58:03Z</time></trkpt><trkpt lat="45.76293941799285" lon="11.197606446822174"><ele>878.0</ele><time>2026-03-28T12:58:04Z</time></trkpt><trkpt lat="45.76304626110095" lon="11.197507005482318"><ele>878.0</ele><time>2026-03-28T12:58:06Z</time></trkpt><trkpt lat="45.76305783306997" lon="11.19738177300105"><ele>877.5999999999999</ele><time>2026-03-28T12:58:07Z</time></trkpt><trkpt lat="45.763039432409656" lon="11.197239125537097"><ele>877.1999999999999</ele><time>2026-03-28T12:58:08Z</time></trkpt><trkpt lat="45.76304931210878" lon="11.197081895720222"><ele>876.8</ele><time>2026-03-28T12:58:09Z</time></trkpt><trkpt lat="45.76309253705186" lon="11.196934702612994"><ele>876.4</ele><time>2026-03-28T12:58:10Z</time></trkpt><trkpt lat="45.76313681980326" lon="11.196781785101434"><ele>876.0</ele><time>2026-03-28T12:58:11Z</time></trkpt><trkpt lat="45.7631686765309" lon="11.196616602624973"><ele>877.6666666666666</ele><time>2026-03-28T12:58:12Z</time></trkpt><trkpt lat="45.763195005120984" lon="11.196470282887798"><ele>879.3333333333333</ele><time>2026-03-28T12:58:13Z</time></trkpt><trkpt lat="45.76321665024" lon="11.196358108773817"><ele>881.0</ele><time>2026-03-28T12:58:14Z</time></trkpt><trkpt lat="45.76325044448797" lon="11.196253653593422"><ele>882.6666666666666</ele><time>2026-03-28T12:58:15Z</time></trkpt><trkpt lat="45.763320162010075" lon="11.196150615843122"><ele>884.3333333333333</ele><time>2026-03-28T12:58:17Z</time></trkpt><trkpt lat="45.76338031568377" lon="11.196199517377268"><ele>886.0</ele><time>2026-03-28T12:58:18Z</time></trkpt><trkpt lat="45.763411015543134" lon="11.196305295366901"><ele>886.0</ele><time>2026-03-28T12:58:19Z</time></trkpt><trkpt lat="45.76334245059023" lon="11.19642376759085"><ele>885.9999999999999</ele><time>2026-03-28T12:58:20Z</time></trkpt><trkpt lat="45.76332849975075" lon="11.196563891381599"><ele>885.9999999999999</ele><time>2026-03-28T12:58:21Z</time></trkpt><trkpt lat="45.763315229409564" lon="11.196726742363987"><ele>886.0</ele><time>2026-03-28T12:58:22Z</time></trkpt><trkpt lat="45.76330724471397" lon="11.19690126476668"><ele>886.0</ele><time>2026-03-28T12:58:23Z</time></trkpt><trkpt lat="45.76330987191795" lon="11.197039467504142"><ele>884.0</ele><time>2026-03-28T12:58:24Z</time></trkpt><trkpt lat="45.76332705584015" lon="11.197142029550932"><ele>881.9999999999999</ele><time>2026-03-28T12:58:25Z</time></trkpt><trkpt lat="45.763424060344775" lon="11.197258379669295"><ele>879.9999999999999</ele><time>2026-03-28T12:58:27Z</time></trkpt><trkpt lat="45.76350747783946" lon="11.197240405918597"><ele>878.0</ele><time>2026-03-28T12:58:28Z</time></trkpt><trkpt lat="45.76358735207164" lon="11.197171127006406"><ele>876.0</ele><time>2026-03-28T12:58:29Z</time></trkpt><trkpt lat="45.763670724177636" lon="11.197086255466678"><ele>885.25</ele><time>2026-03-28T12:58:30Z</time></trkpt><trkpt lat="45.76375861501686" lon="11.196982028547424"><ele>894.5</ele><time>2026-03-28T12:58:31Z</time></trkpt><trkpt lat="45.763839894062215" lon="11.196855706473391"><ele>903.75</ele><time>2026-03-28T12:58:32Z</time></trkpt><trkpt lat="45.76389723665166" lon="11.196702759506174"><ele>913.0</ele><time>2026-03-28T12:58:33Z</time></trkpt><trkpt lat="45.763922970091" lon="11.196540653327183"><ele>916.8</ele><time>2026-03-28T12:58:34Z</time></trkpt><trkpt lat="45.76391192136226" lon="11.196372634955152"><ele>920.5999999999999</ele><time>2026-03-28T12:58:35Z</time></trkpt><trkpt lat="45.763874615915775" lon="11.19622409624354"><ele>924.4000000000001</ele><time>2026-03-28T12:58:36Z</time></trkpt><trkpt lat="45.76380731180671" lon="11.196103223306556"><ele>928.2</ele><time>2026-03-28T12:58:37Z</time></trkpt><trkpt lat="45.76373093897743" lon="11.196036769172961"><ele>932.0</ele><time>2026-03-28T12:58:38Z</time></trkpt><trkpt lat="45.76365049556148" lon="11.195951059547099"><ele>932.0</ele><time>2026-03-28T12:58:39Z</time></trkpt><trkpt lat="45.76359390717432" lon="11.19583273557926"><ele>932.0</ele><time>2026-03-28T12:58:40Z</time></trkpt><trkpt lat="45.76357623223172" lon="11.195701950556215"><ele>932.0</ele><time>2026-03-28T12:58:41Z</time></trkpt><trkpt lat="45.76359516913396" lon="11.195576803484274"><ele>932.0</ele><time>2026-03-28T12:58:42Z</time></trkpt><trkpt lat="45.76363995085547" lon="11.195442468596637"><ele>932.0</ele><time>2026-03-28T12:58:43Z</time></trkpt><trkpt lat="45.763688550835326" lon="11.19528658697494"><ele>932.25</ele><time>2026-03-28T12:58:44Z</time></trkpt><trkpt lat="45.76372702897767" lon="11.195109625264829"><ele>932.5</ele><time>2026-03-28T12:58:45Z</time></trkpt><trkpt lat="45.76375790334843" lon="11.194934708257165"><ele>932.75</ele><time>2026-03-28T12:58:46Z</time></trkpt><trkpt lat="45.763775709379274" lon="11.19478517539399"><ele>933.0</ele><time>2026-03-28T12:58:47Z</time></trkpt><trkpt lat="45.76376786073066" lon="11.194643537527304"><ele>933.0</ele><time>2026-03-28T12:58:48Z</time></trkpt><trkpt lat="45.76373562569087" lon="11.194498542949797"><ele>933.0</ele><time>2026-03-28T12:58:49Z</time></trkpt><trkpt lat="45.76368129226907" lon="11.194351786112911"><ele>933.0</ele><time>2026-03-28T12:58:50Z</time></trkpt><trkpt lat="45.76361318213422" lon="11.194222610338116"><ele>933.0</ele><time>2026-03-28T12:58:51Z</time></trkpt><trkpt lat="45.76352773335642" lon="11.194113536420092"><ele>933.0</ele><time>2026-03-28T12:58:52Z</time></trkpt><trkpt lat="45.76342726837322" lon="11.194047882708617"><ele>935.0</ele><time>2026-03-28T12:58:53Z</time></trkpt><trkpt lat="45.763310269770905" lon="11.194006466489094"><ele>937.0</ele><time>2026-03-28T12:58:54Z</time></trkpt><trkpt lat="45.763189098302384" lon="11.193990000689428"><ele>939.0</ele><time>2026-03-28T12:58:55Z</time></trkpt><trkpt lat="45.76307230335356" lon="11.193988918916016"><ele>941.0</ele><time>2026-03-28T12:58:56Z</time></trkpt><trkpt lat="45.762973349808604" lon="11.194045515225893"><ele>940.0</ele><time>2026-03-28T12:58:57Z</time></trkpt><trkpt lat="45.76286347872358" lon="11.19411890717372"><ele>939.0</ele><time>2026-03-28T12:58:57.999Z</time></trkpt><trkpt lat="45.76275924622999" lon="11.194245345859724"><ele>938.0</ele><time>2026-03-28T12:58:58.999Z</time></trkpt><trkpt lat="45.7626771257822" lon="11.194405938634267"><ele>937.0</ele><time>2026-03-28T12:58:59.999Z</time></trkpt><trkpt lat="45.76260175304019" lon="11.194614048778986"><ele>937.0</ele><time>2026-03-28T12:59:00.999Z</time></trkpt><trkpt lat="45.76253629119783" lon="11.194758268748206"><ele>937.0</ele><time>2026-03-28T12:59:01.999Z</time></trkpt><trkpt lat="45.76249884837835" lon="11.194907941436947"><ele>937.0</ele><time>2026-03-28T12:59:02.999Z</time></trkpt><trkpt lat="45.76244688487984" lon="11.194980798643268"><ele>937.0</ele><time>2026-03-28T12:59:03.999Z</time></trkpt><trkpt lat="45.76235311424819" lon="11.19502726829534"><ele>937.0</ele><time>2026-03-28T12:59:04.999Z</time></trkpt><trkpt lat="45.76223202287448" lon="11.19505272152213"><ele>935.25</ele><time>2026-03-28T12:59:05.999Z</time></trkpt><trkpt lat="45.76211024994756" lon="11.195108102096405"><ele>933.5</ele><time>2026-03-28T12:59:06.999Z</time></trkpt><trkpt lat="45.76199569202718" lon="11.195168073213527"><ele>931.75</ele><time>2026-03-28T12:59:07.999Z</time></trkpt><trkpt lat="45.76189256270687" lon="11.195183789590367"><ele>930.0</ele><time>2026-03-28T12:59:08.999Z</time></trkpt><trkpt lat="45.761781359804615" lon="11.19513587993153"><ele>930.0</ele><time>2026-03-28T12:59:09.999Z</time></trkpt><trkpt lat="45.76165140507745" lon="11.19510690779796"><ele>930.0</ele><time>2026-03-28T12:59:10.999Z</time></trkpt><trkpt lat="45.761511877356156" lon="11.195077561051118"><ele>930.0</ele><time>2026-03-28T12:59:11.999Z</time></trkpt><trkpt lat="45.76136509077126" lon="11.195061700612797"><ele>930.0</ele><time>2026-03-28T12:59:12.999Z</time></trkpt><trkpt lat="45.761229068150165" lon="11.195067422395923"><ele>930.0</ele><time>2026-03-28T12:59:13.999Z</time></trkpt><trkpt lat="45.76109259398679" lon="11.195042657465297"><ele>930.0</ele><time>2026-03-28T12:59:14.999Z</time></trkpt><trkpt lat="45.760955399005375" lon="11.194980390703087"><ele>930.0</ele><time>2026-03-28T12:59:15.999Z</time></trkpt><trkpt lat="45.76082003236662" lon="11.194874400595713"><ele>930.0</ele><time>2026-03-28T12:59:16.999Z</time></trkpt><trkpt lat="45.7606976900729" lon="11.194750470583935"><ele>933.2</ele><time>2026-03-28T12:59:17.999Z</time></trkpt><trkpt lat="45.76059542447407" lon="11.19463629223579"><ele>936.4</ele><time>2026-03-28T12:59:18.999Z</time></trkpt><trkpt lat="45.76050670226913" lon="11.194522443316211"><ele>939.5999999999999</ele><time>2026-03-28T12:59:19.999Z</time></trkpt><trkpt lat="45.76045353327038" lon="11.19440178900317"><ele>942.8</ele><time>2026-03-28T12:59:20.999Z</time></trkpt><trkpt lat="45.760413953092744" lon="11.194273117073076"><ele>946.0</ele><time>2026-03-28T12:59:21.999Z</time></trkpt><trkpt lat="45.76042746477245" lon="11.194114464421576"><ele>950.75</ele><time>2026-03-28T12:59:22.999Z</time></trkpt><trkpt lat="45.76047563867484" lon="11.193975323955511"><ele>955.5</ele><time>2026-03-28T12:59:23.999Z</time></trkpt><trkpt lat="45.76057687351278" lon="11.193895783658643"><ele>960.25</ele><time>2026-03-28T12:59:24.999Z</time></trkpt><trkpt lat="45.76068424341918" lon="11.193842650608513"><ele>965.0</ele><time>2026-03-28T12:59:25.999Z</time></trkpt><trkpt lat="45.76080813898467" lon="11.193799479470723"><ele>965.0</ele><time>2026-03-28T12:59:26.999Z</time></trkpt><trkpt lat="45.76094537429392" lon="11.19381742396747"><ele>965.0</ele><time>2026-03-28T12:59:27.999Z</time></trkpt><trkpt lat="45.76110086022662" lon="11.193880820385896"><ele>965.0</ele><time>2026-03-28T12:59:28.999Z</time></trkpt><trkpt lat="45.76126001305865" lon="11.193951373385007"><ele>966.6666666666667</ele><time>2026-03-28T12:59:30Z</time></trkpt><trkpt lat="45.76142040296267" lon="11.193998629085774"><ele>968.3333333333333</ele><time>2026-03-28T12:59:31Z</time></trkpt><trkpt lat="45.76156570237315" lon="11.194056111160757"><ele>970.0</ele><time>2026-03-28T12:59:32Z</time></trkpt><trkpt lat="45.761696449714385" lon="11.19410487927311"><ele>968.2</ele><time>2026-03-28T12:59:33Z</time></trkpt><trkpt lat="45.76180961864327" lon="11.194146555187746"><ele>966.4</ele><time>2026-03-28T12:59:34Z</time></trkpt><trkpt lat="45.76190796641998" lon="11.19418346335306"><ele>964.5999999999999</ele><time>2026-03-28T12:59:35Z</time></trkpt><trkpt lat="45.76199274734045" lon="11.194204289138925"><ele>962.8</ele><time>2026-03-28T12:59:36Z</time></trkpt><trkpt lat="45.762082368188715" lon="11.194115919336022"><ele>961.0</ele><time>2026-03-28T12:59:38Z</time></trkpt><trkpt lat="45.76203273745315" lon="11.193947590462496"><ele>961.0</ele><time>2026-03-28T12:59:40Z</time></trkpt><trkpt lat="45.76195206242055" lon="11.19389845388078"><ele>960.9999999999999</ele><time>2026-03-28T12:59:41Z</time></trkpt><trkpt lat="45.76186674472977" lon="11.193851201399973"><ele>960.9999999999999</ele><time>2026-03-28T12:59:42Z</time></trkpt><trkpt lat="45.761775471830106" lon="11.193782868101685"><ele>961.0</ele><time>2026-03-28T12:59:43Z</time></trkpt><trkpt lat="45.76167448472264" lon="11.193710218533726"><ele>961.0</ele><time>2026-03-28T12:59:44Z</time></trkpt><trkpt lat="45.7615678329381" lon="11.193634553886964"><ele>963.25</ele><time>2026-03-28T12:59:45Z</time></trkpt><trkpt lat="45.761458926702616" lon="11.193546691888116"><ele>965.5</ele><time>2026-03-28T12:59:46Z</time></trkpt><trkpt lat="45.76134072964937" lon="11.193456614557139"><ele>967.75</ele><time>2026-03-28T12:59:47Z</time></trkpt><trkpt lat="45.761223529916464" lon="11.193351866174362"><ele>970.0</ele><time>2026-03-28T12:59:48Z</time></trkpt><trkpt lat="45.76110579092013" lon="11.193239559613312"><ele>976.0</ele><time>2026-03-28T12:59:49Z</time></trkpt><trkpt lat="45.76098428959703" lon="11.19313416308979"><ele>982.0</ele><time>2026-03-28T12:59:50Z</time></trkpt><trkpt lat="45.76085750890118" lon="11.193044749086807"><ele>988.0</ele><time>2026-03-28T12:59:51Z</time></trkpt><trkpt lat="45.7607328559655" lon="11.1929882234977"><ele>994.0</ele><time>2026-03-28T12:59:52Z</time></trkpt><trkpt lat="45.76059512609127" lon="11.192966206989004"><ele>994.0</ele><time>2026-03-28T12:59:53Z</time></trkpt><trkpt lat="45.760448946094115" lon="11.192974728599495"><ele>994.0</ele><time>2026-03-28T12:59:54Z</time></trkpt><trkpt lat="45.760299918501595" lon="11.193005824897604"><ele>994.0</ele><time>2026-03-28T12:59:55Z</time></trkpt><trkpt lat="45.76015365020759" lon="11.193059683145446"><ele>994.0</ele><time>2026-03-28T12:59:56Z</time></trkpt><trkpt lat="45.760004769273344" lon="11.193099146996326"><ele>994.3333333333333</ele><time>2026-03-28T12:59:57Z</time></trkpt><trkpt lat="45.75984265027924" lon="11.193104794196511"><ele>994.6666666666667</ele><time>2026-03-28T12:59:58Z</time></trkpt><trkpt lat="45.75969046540907" lon="11.19309083507151"><ele>995.0</ele><time>2026-03-28T12:59:59Z</time></trkpt><trkpt lat="45.759529286263316" lon="11.193080657035697"><ele>997.3333333333334</ele><time>2026-03-28T13:00:00Z</time></trkpt><trkpt lat="45.75936085896954" lon="11.193095831885698"><ele>999.6666666666667</ele><time>2026-03-28T13:00:01Z</time></trkpt><trkpt lat="45.759198190477285" lon="11.193125091388698"><ele>1002.0</ele><time>2026-03-28T13:00:02Z</time></trkpt><trkpt lat="45.75907154747231" lon="11.19312802886952"><ele>1002.0</ele><time>2026-03-28T13:00:03Z</time></trkpt><trkpt lat="45.758981851726034" lon="11.193135922626215"><ele>1002.0</ele><time>2026-03-28T13:00:04Z</time></trkpt><trkpt lat="45.758909505300686" lon="11.19311764703638"><ele>1002.0</ele><time>2026-03-28T13:00:05Z</time></trkpt><trkpt lat="45.758860787403904" lon="11.193013226401508"><ele>1002.0</ele><time>2026-03-28T13:00:06Z</time></trkpt><trkpt lat="45.758830281401295" lon="11.192869480082688"><ele>1002.0</ele><time>2026-03-28T13:00:07Z</time></trkpt><trkpt lat="45.75879976287087" lon="11.192709550140972"><ele>1002.0</ele><time>2026-03-28T13:00:08Z</time></trkpt><trkpt lat="45.75875967039595" lon="11.19253998038356"><ele>1002.0</ele><time>2026-03-28T13:00:09Z</time></trkpt><trkpt lat="45.75871950159357" lon="11.192356219803164"><ele>1002.0</ele><time>2026-03-28T13:00:10Z</time></trkpt><trkpt lat="45.75871064670742" lon="11.192159342891516"><ele>1002.0</ele><time>2026-03-28T13:00:11Z</time></trkpt><trkpt lat="45.75869871027304" lon="11.191969339212596"><ele>1004.0</ele><time>2026-03-28T13:00:12Z</time></trkpt><trkpt lat="45.75870456018309" lon="11.19180271612463"><ele>1006.0</ele><time>2026-03-28T13:00:13Z</time></trkpt><trkpt lat="45.75868782944132" lon="11.19165026605963"><ele>1008.0</ele><time>2026-03-28T13:00:14Z</time></trkpt><trkpt lat="45.75863854001048" lon="11.19150564028175"><ele>1010.0</ele><time>2026-03-28T13:00:15Z</time></trkpt><trkpt lat="45.758558365672286" lon="11.19138323569252"><ele>1014.75</ele><time>2026-03-28T13:00:16Z</time></trkpt><trkpt lat="45.75845587929452" lon="11.191292197935867"><ele>1019.5</ele><time>2026-03-28T13:00:17Z</time></trkpt><trkpt lat="45.75834259477146" lon="11.191219065201144"><ele>1024.25</ele><time>2026-03-28T13:00:18Z</time></trkpt><trkpt lat="45.75822581217686" lon="11.191145741574724"><ele>1029.0</ele><time>2026-03-28T13:00:19Z</time></trkpt><trkpt lat="45.75812506177948" lon="11.191019949703222"><ele>1029.0</ele><time>2026-03-28T13:00:20Z</time></trkpt><trkpt lat="45.75800955337122" lon="11.190885504530428"><ele>1029.0</ele><time>2026-03-28T13:00:21Z</time></trkpt><trkpt lat="45.75791445980408" lon="11.190720439454843"><ele>1029.0</ele><time>2026-03-28T13:00:22Z</time></trkpt><trkpt lat="45.75783175684473" lon="11.190554773251153"><ele>1029.0</ele><time>2026-03-28T13:00:23Z</time></trkpt><trkpt lat="45.7577586092478" lon="11.190379553242026"><ele>1028.75</ele><time>2026-03-28T13:00:24Z</time></trkpt><trkpt lat="45.75770212393499" lon="11.190217553311774"><ele>1028.5</ele><time>2026-03-28T13:00:25Z</time></trkpt><trkpt lat="45.75768163581105" lon="11.190054890671462"><ele>1028.25</ele><time>2026-03-28T13:00:26Z</time></trkpt><trkpt lat="45.75769921904707" lon="11.189873997706206"><ele>1028.0</ele><time>2026-03-28T13:00:27Z</time></trkpt><trkpt lat="45.757675571848594" lon="11.189689659956262"><ele>1031.6666666666667</ele><time>2026-03-28T13:00:28Z</time></trkpt><trkpt lat="45.75763508430328" lon="11.189497258206064"><ele>1035.3333333333333</ele><time>2026-03-28T13:00:29Z</time></trkpt><trkpt lat="45.75757029163382" lon="11.189299159382658"><ele>1039.0</ele><time>2026-03-28T13:00:30Z</time></trkpt><trkpt lat="45.75749016243214" lon="11.189091214683216"><ele>1046.0</ele><time>2026-03-28T13:00:31Z</time></trkpt><trkpt lat="45.75740056598288" lon="11.188870663622986"><ele>1053.0</ele><time>2026-03-28T13:00:32Z</time></trkpt><trkpt lat="45.75730679683759" lon="11.188640394364656"><ele>1060.0</ele><time>2026-03-28T13:00:33Z</time></trkpt><trkpt lat="45.75722424204" lon="11.188431907868555"><ele>1060.0</ele><time>2026-03-28T13:00:34Z</time></trkpt><trkpt lat="45.757139991207154" lon="11.18824805122952"><ele>1060.0</ele><time>2026-03-28T13:00:35Z</time></trkpt><trkpt lat="45.75704256648297" lon="11.188072173922386"><ele>1060.0</ele><time>2026-03-28T13:00:36Z</time></trkpt><trkpt lat="45.75692093202644" lon="11.187943556537176"><ele>1057.5</ele><time>2026-03-28T13:00:37Z</time></trkpt><trkpt lat="45.75680960443362" lon="11.18783460780478"><ele>1055.0</ele><time>2026-03-28T13:00:38Z</time></trkpt><trkpt lat="45.75674657388921" lon="11.187693949400437"><ele>1052.5</ele><time>2026-03-28T13:00:39Z</time></trkpt><trkpt lat="45.75672042202382" lon="11.187538784580223"><ele>1050.0</ele><time>2026-03-28T13:00:40Z</time></trkpt><trkpt lat="45.75668303014651" lon="11.187388057228244"><ele>1052.6</ele><time>2026-03-28T13:00:41Z</time></trkpt><trkpt lat="45.75660399426109" lon="11.187263737744578"><ele>1055.2</ele><time>2026-03-28T13:00:42Z</time></trkpt><trkpt lat="45.75650176617308" lon="11.187181494985094"><ele>1057.8</ele><time>2026-03-28T13:00:43Z</time></trkpt><trkpt lat="45.75639628337966" lon="11.18715409200343"><ele>1060.4</ele><time>2026-03-28T13:00:44Z</time></trkpt><trkpt lat="45.75631075891323" lon="11.187111302702952"><ele>1063.0</ele><time>2026-03-28T13:00:45Z</time></trkpt><trkpt lat="45.75626318465556" lon="11.187014955285026"><ele>1063.0</ele><time>2026-03-28T13:00:46Z</time></trkpt><trkpt lat="45.756245575728386" lon="11.186885753934874"><ele>1063.0</ele><time>2026-03-28T13:00:47Z</time></trkpt><trkpt lat="45.75626243990753" lon="11.186741542298824"><ele>1063.0</ele><time>2026-03-28T13:00:48Z</time></trkpt><trkpt lat="45.75625350386096" lon="11.186582777826057"><ele>1063.0</ele><time>2026-03-28T13:00:49Z</time></trkpt><trkpt lat="45.75624389721812" lon="11.186411577686762"><ele>1063.0</ele><time>2026-03-28T13:00:50Z</time></trkpt><trkpt lat="45.756255023787965" lon="11.18623384821664"><ele>1063.8</ele><time>2026-03-28T13:00:51Z</time></trkpt><trkpt lat="45.75626058643506" lon="11.186081011315473"><ele>1064.6</ele><time>2026-03-28T13:00:52Z</time></trkpt><trkpt lat="45.75629493630046" lon="11.185978126721464"><ele>1065.4</ele><time>2026-03-28T13:00:53Z</time></trkpt><trkpt lat="45.75636065486922" lon="11.18593268196352"><ele>1066.2</ele><time>2026-03-28T13:00:54Z</time></trkpt><trkpt lat="45.75643339689505" lon="11.185934533638681"><ele>1067.0</ele><time>2026-03-28T13:00:55Z</time></trkpt><trkpt lat="45.75655479033153" lon="11.185868962911123"><ele>1067.0</ele><time>2026-03-28T13:00:57Z</time></trkpt><trkpt lat="45.75678340947852" lon="11.186108816373064"><ele>1067.0</ele><time>2026-03-28T13:00:58Z</time></trkpt><trkpt lat="45.75691787501027" lon="11.186143118261798"><ele>1067.0</ele><time>2026-03-28T13:00:59Z</time></trkpt><trkpt lat="45.75704979217111" lon="11.186163416708116"><ele>1069.8</ele><time>2026-03-28T13:01:00Z</time></trkpt><trkpt lat="45.757163073126094" lon="11.186120739744828"><ele>1072.6</ele><time>2026-03-28T13:01:01Z</time></trkpt><trkpt lat="45.757243292103716" lon="11.186036181587369"><ele>1075.3999999999999</ele><time>2026-03-28T13:01:02Z</time></trkpt><trkpt lat="45.75730181993294" lon="11.185912663420064"><ele>1078.2</ele><time>2026-03-28T13:01:03Z</time></trkpt><trkpt lat="45.757341751755284" lon="11.185760442158859"><ele>1081.0</ele><time>2026-03-28T13:01:04Z</time></trkpt><trkpt lat="45.75736189903122" lon="11.185595689293873"><ele>1081.0</ele><time>2026-03-28T13:01:05Z</time></trkpt><trkpt lat="45.75737897888973" lon="11.18545540586743"><ele>1081.0</ele><time>2026-03-28T13:01:05.999Z</time></trkpt><trkpt lat="45.75742887856979" lon="11.185386126964753"><ele>1081.0</ele><time>2026-03-28T13:01:06.999Z</time></trkpt><trkpt lat="45.75754530074694" lon="11.185438554057566"><ele>1081.0</ele><time>2026-03-28T13:01:08.999Z</time></trkpt><trkpt lat="45.75759320527717" lon="11.185559046101067"><ele>1081.0</ele><time>2026-03-28T13:01:09.999Z</time></trkpt><trkpt lat="45.75760922643394" lon="11.185708588502305"><ele>1081.0</ele><time>2026-03-28T13:01:10.999Z</time></trkpt><trkpt lat="45.75760853082653" lon="11.185881443564488"><ele>1081.0</ele><time>2026-03-28T13:01:11.999Z</time></trkpt><trkpt lat="45.7575663218422" lon="11.18605869167945"><ele>1081.0</ele><time>2026-03-28T13:01:12.999Z</time></trkpt><trkpt lat="45.75749508063553" lon="11.186219266585896"><ele>1081.0</ele><time>2026-03-28T13:01:13.999Z</time></trkpt><trkpt lat="45.75742739299783" lon="11.186336487641368"><ele>1081.0</ele><time>2026-03-28T13:01:14.999Z</time></trkpt><trkpt lat="45.75739315421892" lon="11.18643531829591"><ele>1081.0</ele><time>2026-03-28T13:01:15.999Z</time></trkpt><trkpt lat="45.75739389579054" lon="11.186526958588423"><ele>1081.0</ele><time>2026-03-28T13:01:16.999Z</time></trkpt><trkpt lat="45.75749400431023" lon="11.186611286689496"><ele>1081.0</ele><time>2026-03-28T13:01:18.999Z</time></trkpt><trkpt lat="45.75756522464863" lon="11.186582304586832"><ele>1081.0</ele><time>2026-03-28T13:01:19.999Z</time></trkpt><trkpt lat="45.75763238692435" lon="11.186499784211339"><ele>1081.0</ele><time>2026-03-28T13:01:20.999Z</time></trkpt><trkpt lat="45.75769131770829" lon="11.186379268158237"><ele>1089.0</ele><time>2026-03-28T13:01:21.999Z</time></trkpt><trkpt lat="45.7577568360073" lon="11.186235229848199"><ele>1097.0</ele><time>2026-03-28T13:01:22.999Z</time></trkpt><trkpt lat="45.75783900118791" lon="11.186076062777882"><ele>1105.0</ele><time>2026-03-28T13:01:23.999Z</time></trkpt><trkpt lat="45.75791693250193" lon="11.185904125162066"><ele>1113.0</ele><time>2026-03-28T13:01:24.999Z</time></trkpt><trkpt lat="45.7580065424679" lon="11.185794109286332"><ele>1113.0</ele><time>2026-03-28T13:01:25.999Z</time></trkpt><trkpt lat="45.75807683785128" lon="11.18572903489706"><ele>1113.0</ele><time>2026-03-28T13:01:26.999Z</time></trkpt><trkpt lat="45.75816766724842" lon="11.185680864333166"><ele>1113.0</ele><time>2026-03-28T13:01:27.999Z</time></trkpt><trkpt lat="45.75825546474798" lon="11.185618065075328"><ele>1113.0</ele><time>2026-03-28T13:01:28.999Z</time></trkpt><trkpt lat="45.758335660444374" lon="11.185560703186882"><ele>1113.0</ele><time>2026-03-28T13:01:29.999Z</time></trkpt><trkpt lat="45.7583996736512" lon="11.185514916206918"><ele>1113.0</ele><time>2026-03-28T13:01:30.999Z</time></trkpt><trkpt lat="45.75837011889005" lon="11.185111864019051"><ele>1114.25</ele><time>2026-03-28T13:01:32.999Z</time></trkpt><trkpt lat="45.75834830131212" lon="11.184955952990826"><ele>1115.5</ele><time>2026-03-28T13:01:33.999Z</time></trkpt><trkpt lat="45.75830451520889" lon="11.18479436013216"><ele>1116.75</ele><time>2026-03-28T13:01:34.999Z</time></trkpt><trkpt lat="45.75824865728085" lon="11.184617013938384"><ele>1118.0</ele><time>2026-03-28T13:01:36Z</time></trkpt><trkpt lat="45.758188528439355" lon="11.184426332509545"><ele>1123.3333333333335</ele><time>2026-03-28T13:01:37Z</time></trkpt><trkpt lat="45.75812333636992" lon="11.184213697925145"><ele>1128.6666666666667</ele><time>2026-03-28T13:01:38Z</time></trkpt><trkpt lat="45.758068026363965" lon="11.184005933151932"><ele>1134.0</ele><time>2026-03-28T13:01:39Z</time></trkpt><trkpt lat="45.75800512625261" lon="11.183803288657456"><ele>1140.6666666666667</ele><time>2026-03-28T13:01:40Z</time></trkpt><trkpt lat="45.75793264322743" lon="11.183597079485635"><ele>1147.3333333333335</ele><time>2026-03-28T13:01:41Z</time></trkpt><trkpt lat="45.757858809148466" lon="11.183393808271642"><ele>1154.0</ele><time>2026-03-28T13:01:42Z</time></trkpt><trkpt lat="45.75780753351921" lon="11.183183114460936"><ele>1160.0</ele><time>2026-03-28T13:01:43Z</time></trkpt><trkpt lat="45.75777822846056" lon="11.18295996204245"><ele>1166.0</ele><time>2026-03-28T13:01:44Z</time></trkpt><trkpt lat="45.7577583000802" lon="11.182737448053746"><ele>1172.0</ele><time>2026-03-28T13:01:45Z</time></trkpt><trkpt lat="45.757733271579" lon="11.182516056121555"><ele>1173.25</ele><time>2026-03-28T13:01:46Z</time></trkpt><trkpt lat="45.75771049724441" lon="11.182298120754618"><ele>1174.5</ele><time>2026-03-28T13:01:47Z</time></trkpt><trkpt lat="45.7576959446072" lon="11.182089891213359"><ele>1175.75</ele><time>2026-03-28T13:01:48Z</time></trkpt><trkpt lat="45.75768098918504" lon="11.181882593423184"><ele>1177.0</ele><time>2026-03-28T13:01:49Z</time></trkpt><trkpt lat="45.75766571572638" lon="11.181675740832215"><ele>1170.3333333333333</ele><time>2026-03-28T13:01:50Z</time></trkpt><trkpt lat="45.757651828617334" lon="11.181469197578444"><ele>1163.6666666666667</ele><time>2026-03-28T13:01:51Z</time></trkpt><trkpt lat="45.75766272137047" lon="11.181253493279282"><ele>1157.0</ele><time>2026-03-28T13:01:52Z</time></trkpt><trkpt lat="45.757668320087866" lon="11.181030575050906"><ele>1157.0</ele><time>2026-03-28T13:01:53Z</time></trkpt><trkpt lat="45.75768104913463" lon="11.180814297291006"><ele>1157.0</ele><time>2026-03-28T13:01:54Z</time></trkpt><trkpt lat="45.75768657371389" lon="11.180586202672552"><ele>1157.0</ele><time>2026-03-28T13:01:55Z</time></trkpt><trkpt lat="45.75768899815931" lon="11.18035271195653"><ele>1159.3333333333335</ele><time>2026-03-28T13:01:56Z</time></trkpt><trkpt lat="45.75768413776965" lon="11.180120314369905"><ele>1161.6666666666667</ele><time>2026-03-28T13:01:57Z</time></trkpt><trkpt lat="45.75767636000567" lon="11.179881356965366"><ele>1164.0</ele><time>2026-03-28T13:01:58Z</time></trkpt><trkpt lat="45.75766175817836" lon="11.179653833629107"><ele>1164.0</ele><time>2026-03-28T13:01:59Z</time></trkpt><trkpt lat="45.75764273654959" lon="11.179441554697915"><ele>1164.0</ele><time>2026-03-28T13:02:00Z</time></trkpt><trkpt lat="45.75764699088279" lon="11.179255350759238"><ele>1164.0</ele><time>2026-03-28T13:02:01Z</time></trkpt><trkpt lat="45.75768234755612" lon="11.179091309826926"><ele>1164.0</ele><time>2026-03-28T13:02:02Z</time></trkpt><trkpt lat="45.75774003845966" lon="11.178926581261038"><ele>1167.0</ele><time>2026-03-28T13:02:03Z</time></trkpt><trkpt lat="45.757791605752566" lon="11.17875904265929"><ele>1170.0</ele><time>2026-03-28T13:02:04Z</time></trkpt><trkpt lat="45.75782879891828" lon="11.178592261402123"><ele>1173.0</ele><time>2026-03-28T13:02:05Z</time></trkpt><trkpt lat="45.757857936009216" lon="11.178414508332546"><ele>1176.0</ele><time>2026-03-28T13:02:06Z</time></trkpt><trkpt lat="45.75789517470187" lon="11.178259982541553"><ele>1173.5</ele><time>2026-03-28T13:02:07Z</time></trkpt><trkpt lat="45.757950058674304" lon="11.178096745924622"><ele>1171.0</ele><time>2026-03-28T13:02:08Z</time></trkpt><trkpt lat="45.758006035753176" lon="11.177925247286646"><ele>1168.5</ele><time>2026-03-28T13:02:09Z</time></trkpt><trkpt lat="45.75806318610782" lon="11.177758517113999"><ele>1166.0</ele><time>2026-03-28T13:02:10Z</time></trkpt><trkpt lat="45.758118141982344" lon="11.17759485534963"><ele>1166.0</ele><time>2026-03-28T13:02:11Z</time></trkpt><trkpt lat="45.758173950604665" lon="11.177428245932818"><ele>1166.0</ele><time>2026-03-28T13:02:12Z</time></trkpt><trkpt lat="45.758233898862755" lon="11.177266660234846"><ele>1166.0</ele><time>2026-03-28T13:02:13Z</time></trkpt><trkpt lat="45.758293610572935" lon="11.177099601896472"><ele>1166.0</ele><time>2026-03-28T13:02:14Z</time></trkpt><trkpt lat="45.75835601553371" lon="11.176918076283892"><ele>1164.5</ele><time>2026-03-28T13:02:15Z</time></trkpt><trkpt lat="45.758423307511556" lon="11.17673564453147"><ele>1163.0</ele><time>2026-03-28T13:02:16Z</time></trkpt><trkpt lat="45.75849694479276" lon="11.176559005694966"><ele>1161.5</ele><time>2026-03-28T13:02:17Z</time></trkpt><trkpt lat="45.75857779152595" lon="11.17636772946787"><ele>1160.0</ele><time>2026-03-28T13:02:18Z</time></trkpt><trkpt lat="45.758671093998935" lon="11.176169547366959"><ele>1161.6666666666667</ele><time>2026-03-28T13:02:19Z</time></trkpt><trkpt lat="45.75877977845797" lon="11.175973142116607"><ele>1163.3333333333333</ele><time>2026-03-28T13:02:20Z</time></trkpt><trkpt lat="45.758894982166815" lon="11.175772853423332"><ele>1165.0</ele><time>2026-03-28T13:02:21Z</time></trkpt><trkpt lat="45.759013599012135" lon="11.175574626607018"><ele>1165.0</ele><time>2026-03-28T13:02:22Z</time></trkpt><trkpt lat="45.759122175448695" lon="11.175385721321328"><ele>1165.0</ele><time>2026-03-28T13:02:23Z</time></trkpt><trkpt lat="45.75920654195989" lon="11.175186745527558"><ele>1165.0</ele><time>2026-03-28T13:02:24Z</time></trkpt><trkpt lat="45.75926170784817" lon="11.174972923617666"><ele>1166.5</ele><time>2026-03-28T13:02:25Z</time></trkpt><trkpt lat="45.75930218490666" lon="11.174760864823094"><ele>1168.0</ele><time>2026-03-28T13:02:26Z</time></trkpt><trkpt lat="45.75935221116236" lon="11.17457285207118"><ele>1169.5</ele><time>2026-03-28T13:02:27Z</time></trkpt><trkpt lat="45.759421141841315" lon="11.174408093639542"><ele>1171.0</ele><time>2026-03-28T13:02:28Z</time></trkpt><trkpt lat="45.759506697316404" lon="11.17426641861057"><ele>1171.75</ele><time>2026-03-28T13:02:29Z</time></trkpt><trkpt lat="45.759618407163295" lon="11.174141078874944"><ele>1172.5</ele><time>2026-03-28T13:02:30Z</time></trkpt><trkpt lat="45.75973429755869" lon="11.174025364372488"><ele>1173.25</ele><time>2026-03-28T13:02:31Z</time></trkpt><trkpt lat="45.75984557237125" lon="11.173932631197374"><ele>1174.0</ele><time>2026-03-28T13:02:32Z</time></trkpt><trkpt lat="45.75994459124263" lon="11.173832502117687"><ele>1174.0</ele><time>2026-03-28T13:02:33Z</time></trkpt><trkpt lat="45.760031336901484" lon="11.173707138367318"><ele>1174.0</ele><time>2026-03-28T13:02:34Z</time></trkpt><trkpt lat="45.76010997587993" lon="11.173566289707043"><ele>1174.0</ele><time>2026-03-28T13:02:35Z</time></trkpt><trkpt lat="45.760186806403425" lon="11.173402213622497"><ele>1174.0</ele><time>2026-03-28T13:02:36Z</time></trkpt><trkpt lat="45.76026203945023" lon="11.173217869534986"><ele>1171.0</ele><time>2026-03-28T13:02:37Z</time></trkpt><trkpt lat="45.760341320560876" lon="11.173028363592062"><ele>1168.0</ele><time>2026-03-28T13:02:38Z</time></trkpt><trkpt lat="45.76042442008012" lon="11.172840366376846"><ele>1165.0</ele><time>2026-03-28T13:02:39Z</time></trkpt><trkpt lat="45.760512804892336" lon="11.172647413864867"><ele>1165.0</ele><time>2026-03-28T13:02:40Z</time></trkpt><trkpt lat="45.760601703697475" lon="11.172466989027768"><ele>1165.0</ele><time>2026-03-28T13:02:41Z</time></trkpt><trkpt lat="45.76069096161653" lon="11.172303349809692"><ele>1165.0</ele><time>2026-03-28T13:02:42Z</time></trkpt><trkpt lat="45.760789585106814" lon="11.172164998265922"><ele>1165.0</ele><time>2026-03-28T13:02:43Z</time></trkpt><trkpt lat="45.76090817225763" lon="11.172061059430849"><ele>1165.0</ele><time>2026-03-28T13:02:44Z</time></trkpt><trkpt lat="45.76104035306637" lon="11.17198666260522"><ele>1165.0</ele><time>2026-03-28T13:02:45Z</time></trkpt><trkpt lat="45.761182343598584" lon="11.171920020223864"><ele>1165.0</ele><time>2026-03-28T13:02:46Z</time></trkpt><trkpt lat="45.76133575956579" lon="11.171870485166895"><ele>1165.0</ele><time>2026-03-28T13:02:47Z</time></trkpt><trkpt lat="45.761494137199925" lon="11.171819782844686"><ele>1165.0</ele><time>2026-03-28T13:02:48Z</time></trkpt><trkpt lat="45.76165065894679" lon="11.17174572051815"><ele>1165.0</ele><time>2026-03-28T13:02:49Z</time></trkpt><trkpt lat="45.761802631669966" lon="11.171655101825126"><ele>1165.0</ele><time>2026-03-28T13:02:50Z</time></trkpt><trkpt lat="45.76195636290913" lon="11.171554099217676"><ele>1164.6666666666665</ele><time>2026-03-28T13:02:51Z</time></trkpt><trkpt lat="45.76209770272733" lon="11.171414435632503"><ele>1164.3333333333333</ele><time>2026-03-28T13:02:52Z</time></trkpt><trkpt lat="45.76223197714958" lon="11.171255841421724"><ele>1164.0</ele><time>2026-03-28T13:02:53Z</time></trkpt><trkpt lat="45.762360817979754" lon="11.171092653231389"><ele>1164.0</ele><time>2026-03-28T13:02:54Z</time></trkpt><trkpt lat="45.762487775059405" lon="11.17092601653565"><ele>1164.0</ele><time>2026-03-28T13:02:55Z</time></trkpt><trkpt lat="45.762607166729495" lon="11.170755587491358"><ele>1164.0</ele><time>2026-03-28T13:02:56Z</time></trkpt><trkpt lat="45.76271712667036" lon="11.170586101043948"><ele>1165.0</ele><time>2026-03-28T13:02:57Z</time></trkpt><trkpt lat="45.76282165982923" lon="11.17040075668184"><ele>1166.0</ele><time>2026-03-28T13:02:58Z</time></trkpt><trkpt lat="45.76289614112177" lon="11.170202963503534"><ele>1167.0</ele><time>2026-03-28T13:02:59Z</time></trkpt><trkpt lat="45.76296230051444" lon="11.17000559538605"><ele>1164.0</ele><time>2026-03-28T13:03:00Z</time></trkpt><trkpt lat="45.76302746723413" lon="11.16981543300646"><ele>1161.0</ele><time>2026-03-28T13:03:01Z</time></trkpt><trkpt lat="45.76309103726469" lon="11.169623587541205"><ele>1158.0</ele><time>2026-03-28T13:03:02Z</time></trkpt><trkpt lat="45.76309222950992" lon="11.169413683726164"><ele>1155.0</ele><time>2026-03-28T13:03:03Z</time></trkpt><trkpt lat="45.76309217912196" lon="11.169210090724246"><ele>1152.5</ele><time>2026-03-28T13:03:04Z</time></trkpt><trkpt lat="45.763080715715176" lon="11.169020195080211"><ele>1150.0</ele><time>2026-03-28T13:03:05Z</time></trkpt><trkpt lat="45.76308895030734" lon="11.168824375486807"><ele>1147.5</ele><time>2026-03-28T13:03:06Z</time></trkpt><trkpt lat="45.7631446296386" lon="11.168632462392496"><ele>1145.0</ele><time>2026-03-28T13:03:07Z</time></trkpt><trkpt lat="45.76321861725547" lon="11.168456881192403"><ele>1145.0</ele><time>2026-03-28T13:03:08Z</time></trkpt><trkpt lat="45.763309058245" lon="11.168299129790826"><ele>1145.0</ele><time>2026-03-28T13:03:09Z</time></trkpt><trkpt lat="45.763398883442555" lon="11.168143088595126"><ele>1145.0</ele><time>2026-03-28T13:03:10Z</time></trkpt><trkpt lat="45.763515414812154" lon="11.16803466617699"><ele>1145.0</ele><time>2026-03-28T13:03:11Z</time></trkpt><trkpt lat="45.76359901161409" lon="11.16788519129392"><ele>1152.5</ele><time>2026-03-28T13:03:11.999Z</time></trkpt><trkpt lat="45.76365321695208" lon="11.167703781937973"><ele>1160.0</ele><time>2026-03-28T13:03:12.999Z</time></trkpt><trkpt lat="45.76364103571234" lon="11.167495870865345"><ele>1167.5</ele><time>2026-03-28T13:03:13.999Z</time></trkpt><trkpt lat="45.76363249014854" lon="11.167286945753244"><ele>1175.0</ele><time>2026-03-28T13:03:14.999Z</time></trkpt><trkpt lat="45.76360979223937" lon="11.167069244595655"><ele>1176.3333333333335</ele><time>2026-03-28T13:03:15.999Z</time></trkpt><trkpt lat="45.763579425883776" lon="11.166827565366361"><ele>1177.6666666666667</ele><time>2026-03-28T13:03:16.999Z</time></trkpt><trkpt lat="45.76355924933537" lon="11.166580995976206"><ele>1179.0</ele><time>2026-03-28T13:03:17.999Z</time></trkpt><trkpt lat="45.763518240633964" lon="11.166336858299443"><ele>1170.6666666666667</ele><time>2026-03-28T13:03:18.999Z</time></trkpt><trkpt lat="45.76347264479291" lon="11.166088080966125"><ele>1162.3333333333335</ele><time>2026-03-28T13:03:19.999Z</time></trkpt><trkpt lat="45.76340417904005" lon="11.165832342306546"><ele>1154.0</ele><time>2026-03-28T13:03:20.999Z</time></trkpt><trkpt lat="45.763333405429954" lon="11.165596864684895"><ele>1154.0</ele><time>2026-03-28T13:03:21.999Z</time></trkpt><trkpt lat="45.76327686188039" lon="11.16533929308781"><ele>1154.0</ele><time>2026-03-28T13:03:22.999Z</time></trkpt><trkpt lat="45.7632237279444" lon="11.165084541106074"><ele>1154.0</ele><time>2026-03-28T13:03:23.999Z</time></trkpt><trkpt lat="45.7631708796809" lon="11.164831133878486"><ele>1156.6666666666667</ele><time>2026-03-28T13:03:24.999Z</time></trkpt><trkpt lat="45.76311079192325" lon="11.164584301217769"><ele>1159.3333333333333</ele><time>2026-03-28T13:03:25.999Z</time></trkpt><trkpt lat="45.763053321361156" lon="11.164343830452374"><ele>1162.0</ele><time>2026-03-28T13:03:26.999Z</time></trkpt><trkpt lat="45.762989377629204" lon="11.164110908883703"><ele>1163.3333333333333</ele><time>2026-03-28T13:03:27.999Z</time></trkpt><trkpt lat="45.76293115058444" lon="11.16387608522996"><ele>1164.6666666666667</ele><time>2026-03-28T13:03:28.999Z</time></trkpt><trkpt lat="45.76287064392937" lon="11.16363378571885"><ele>1166.0</ele><time>2026-03-28T13:03:29.999Z</time></trkpt><trkpt lat="45.762803455380855" lon="11.163373152517558"><ele>1167.6666666666667</ele><time>2026-03-28T13:03:30.999Z</time></trkpt><trkpt lat="45.76273955077569" lon="11.163105585895789"><ele>1169.3333333333333</ele><time>2026-03-28T13:03:31.999Z</time></trkpt><trkpt lat="45.76268973198606" lon="11.162820420557408"><ele>1171.0</ele><time>2026-03-28T13:03:32.999Z</time></trkpt><trkpt lat="45.76262730359906" lon="11.162541556736981"><ele>1157.3333333333333</ele><time>2026-03-28T13:03:33.999Z</time></trkpt><trkpt lat="45.762571783386065" lon="11.162276345353943"><ele>1143.6666666666667</ele><time>2026-03-28T13:03:34.999Z</time></trkpt><trkpt lat="45.7625066184331" lon="11.162019507757535"><ele>1130.0</ele><time>2026-03-28T13:03:35.999Z</time></trkpt><trkpt lat="45.762469804957014" lon="11.161758872872847"><ele>1130.0</ele><time>2026-03-28T13:03:36.999Z</time></trkpt><trkpt lat="45.76243105257371" lon="11.161503383542417"><ele>1130.0</ele><time>2026-03-28T13:03:37.999Z</time></trkpt><trkpt lat="45.76239219347462" lon="11.161265497535053"><ele>1130.0</ele><time>2026-03-28T13:03:38.999Z</time></trkpt><trkpt lat="45.76235728721955" lon="11.161032464364391"><ele>1130.0</ele><time>2026-03-28T13:03:39.999Z</time></trkpt><trkpt lat="45.76228758739776" lon="11.160812095857809"><ele>1130.0</ele><time>2026-03-28T13:03:40.999Z</time></trkpt><trkpt lat="45.762170986086794" lon="11.1606405648912"><ele>1130.0</ele><time>2026-03-28T13:03:42Z</time></trkpt><trkpt lat="45.76207235880645" lon="11.160464510116688"><ele>1128.75</ele><time>2026-03-28T13:03:43Z</time></trkpt><trkpt lat="45.761989836070555" lon="11.160273626275306"><ele>1127.5</ele><time>2026-03-28T13:03:44Z</time></trkpt><trkpt lat="45.761926415570315" lon="11.160080639034872"><ele>1126.25</ele><time>2026-03-28T13:03:45Z</time></trkpt><trkpt lat="45.76189712910906" lon="11.159907697868798"><ele>1125.0</ele><time>2026-03-28T13:03:46Z</time></trkpt><trkpt lat="45.76190030525717" lon="11.159743077866757"><ele>1123.2</ele><time>2026-03-28T13:03:47Z</time></trkpt><trkpt lat="45.76192152841772" lon="11.159616758958368"><ele>1121.4</ele><time>2026-03-28T13:03:48Z</time></trkpt><trkpt lat="45.76196299643747" lon="11.1595203429587"><ele>1119.6</ele><time>2026-03-28T13:03:49Z</time></trkpt><trkpt lat="45.76205109065881" lon="11.159471426246407"><ele>1117.8</ele><time>2026-03-28T13:03:50Z</time></trkpt><trkpt lat="45.76214918640881" lon="11.159395423200335"><ele>1116.0</ele><time>2026-03-28T13:03:51Z</time></trkpt><trkpt lat="45.76226051986794" lon="11.15929913899047"><ele>1116.0</ele><time>2026-03-28T13:03:52Z</time></trkpt><trkpt lat="45.7623721342714" lon="11.159165798759355"><ele>1116.0</ele><time>2026-03-28T13:03:53Z</time></trkpt><trkpt lat="45.76247869635833" lon="11.15902089065643"><ele>1116.0</ele><time>2026-03-28T13:03:54Z</time></trkpt><trkpt lat="45.76257829057215" lon="11.15885328569762"><ele>1116.0</ele><time>2026-03-28T13:03:55Z</time></trkpt><trkpt lat="45.7626698514117" lon="11.158685258663208"><ele>1114.0</ele><time>2026-03-28T13:03:56Z</time></trkpt><trkpt lat="45.762765656815" lon="11.158522297345057"><ele>1112.0</ele><time>2026-03-28T13:03:57Z</time></trkpt><trkpt lat="45.76285774772404" lon="11.158366920468477"><ele>1110.0</ele><time>2026-03-28T13:03:58Z</time></trkpt><trkpt lat="45.76294105072604" lon="11.15823269334528"><ele>1108.0</ele><time>2026-03-28T13:03:59Z</time></trkpt><trkpt lat="45.76303463289006" lon="11.158143293481446"><ele>1104.25</ele><time>2026-03-28T13:04:00Z</time></trkpt><trkpt lat="45.763163497122186" lon="11.158115947197754"><ele>1100.5</ele><time>2026-03-28T13:04:01Z</time></trkpt><trkpt lat="45.763295371753586" lon="11.158104922289185"><ele>1096.75</ele><time>2026-03-28T13:04:02Z</time></trkpt><trkpt lat="45.763425778242045" lon="11.158095068793987"><ele>1093.0</ele><time>2026-03-28T13:04:03Z</time></trkpt><trkpt lat="45.76354980860399" lon="11.158015059302837"><ele>1093.0</ele><time>2026-03-28T13:04:04Z</time></trkpt><trkpt lat="45.763656139898075" lon="11.157876176151426"><ele>1093.0</ele><time>2026-03-28T13:04:05Z</time></trkpt><trkpt lat="45.76373336879649" lon="11.157690110909956"><ele>1093.0</ele><time>2026-03-28T13:04:06Z</time></trkpt><trkpt lat="45.76379587621642" lon="11.157507627350375"><ele>1093.0</ele><time>2026-03-28T13:04:07Z</time></trkpt><trkpt lat="45.76385670994402" lon="11.157341289371388"><ele>1087.6</ele><time>2026-03-28T13:04:08Z</time></trkpt><trkpt lat="45.76394688773021" lon="11.157257336928934"><ele>1082.1999999999998</ele><time>2026-03-28T13:04:09Z</time></trkpt><trkpt lat="45.764046729286484" lon="11.157219195547968"><ele>1076.8</ele><time>2026-03-28T13:04:10Z</time></trkpt><trkpt lat="45.76415774650826" lon="11.157215299738539"><ele>1071.3999999999999</ele><time>2026-03-28T13:04:11Z</time></trkpt><trkpt lat="45.76428100247847" lon="11.157230380693504"><ele>1066.0</ele><time>2026-03-28T13:04:12Z</time></trkpt><trkpt lat="45.76441352024687" lon="11.15725805852814"><ele>1065.75</ele><time>2026-03-28T13:04:13Z</time></trkpt><trkpt lat="45.76454159892995" lon="11.157305484584988"><ele>1065.5</ele><time>2026-03-28T13:04:14Z</time></trkpt><trkpt lat="45.764669400403925" lon="11.157373984184408"><ele>1065.25</ele><time>2026-03-28T13:04:15Z</time></trkpt><trkpt lat="45.76479849172573" lon="11.157451489290624"><ele>1065.0</ele><time>2026-03-28T13:04:16Z</time></trkpt><trkpt lat="45.764917546600145" lon="11.15749853405275"><ele>1065.4</ele><time>2026-03-28T13:04:17Z</time></trkpt><trkpt lat="45.765035854836654" lon="11.157514426570001"><ele>1065.8</ele><time>2026-03-28T13:04:18Z</time></trkpt><trkpt lat="45.765145226077905" lon="11.157494934994851"><ele>1066.2</ele><time>2026-03-28T13:04:19Z</time></trkpt><trkpt lat="45.76524201378343" lon="11.157443410825916"><ele>1066.6</ele><time>2026-03-28T13:04:20Z</time></trkpt><trkpt lat="45.765316302212476" lon="11.157348998813811"><ele>1067.0</ele><time>2026-03-28T13:04:21Z</time></trkpt><trkpt lat="45.76537629578296" lon="11.157221155844317"><ele>1066.6</ele><time>2026-03-28T13:04:22Z</time></trkpt><trkpt lat="45.765399912422765" lon="11.157083733484765"><ele>1066.2</ele><time>2026-03-28T13:04:23Z</time></trkpt><trkpt lat="45.76538147080384" lon="11.156955941676381"><ele>1065.8</ele><time>2026-03-28T13:04:24Z</time></trkpt><trkpt lat="45.765329796225664" lon="11.156858696960926"><ele>1065.4</ele><time>2026-03-28T13:04:25Z</time></trkpt><trkpt lat="45.76524878497212" lon="11.1568025356096"><ele>1065.0</ele><time>2026-03-28T13:04:26Z</time></trkpt><trkpt lat="45.76515563384679" lon="11.156768974337684"><ele>1065.0</ele><time>2026-03-28T13:04:27Z</time></trkpt><trkpt lat="45.76507824545327" lon="11.156711239590068"><ele>1065.0</ele><time>2026-03-28T13:04:28Z</time></trkpt><trkpt lat="45.76504995774627" lon="11.156601539489335"><ele>1065.0</ele><time>2026-03-28T13:04:29Z</time></trkpt><trkpt lat="45.765060232105384" lon="11.156485998478855"><ele>1065.0</ele><time>2026-03-28T13:04:30Z</time></trkpt><trkpt lat="45.765136442427064" lon="11.156416445869226"><ele>1065.0</ele><time>2026-03-28T13:04:31Z</time></trkpt><trkpt lat="45.76520200417076" lon="11.156331594163225"><ele>1065.0</ele><time>2026-03-28T13:04:32Z</time></trkpt><trkpt lat="45.76528254085963" lon="11.156229907005649"><ele>1062.5</ele><time>2026-03-28T13:04:33Z</time></trkpt><trkpt lat="45.765367506427175" lon="11.15611860033259"><ele>1060.0</ele><time>2026-03-28T13:04:34Z</time></trkpt><trkpt lat="45.76545834902524" lon="11.15601543966645"><ele>1057.5</ele><time>2026-03-28T13:04:35Z</time></trkpt><trkpt lat="45.76556325038438" lon="11.15593648054987"><ele>1055.0</ele><time>2026-03-28T13:04:36Z</time></trkpt><trkpt lat="45.76567947835841" lon="11.15586949097326"><ele>1055.0</ele><time>2026-03-28T13:04:37Z</time></trkpt><trkpt lat="45.76579668080789" lon="11.155788654425933"><ele>1055.0</ele><time>2026-03-28T13:04:38Z</time></trkpt><trkpt lat="45.76590705942984" lon="11.155669246505502"><ele>1055.0</ele><time>2026-03-28T13:04:39Z</time></trkpt><trkpt lat="45.76600131672939" lon="11.155524721967526"><ele>1055.0</ele><time>2026-03-28T13:04:40Z</time></trkpt><trkpt lat="45.766088253235566" lon="11.155388569256877"><ele>1050.0</ele><time>2026-03-28T13:04:41Z</time></trkpt><trkpt lat="45.76618185207441" lon="11.15529312366377"><ele>1045.0</ele><time>2026-03-28T13:04:42Z</time></trkpt><trkpt lat="45.76627686616333" lon="11.155265538869104"><ele>1040.0</ele><time>2026-03-28T13:04:43Z</time></trkpt><trkpt lat="45.766383384860134" lon="11.155281789697378"><ele>1035.0</ele><time>2026-03-28T13:04:44Z</time></trkpt><trkpt lat="45.7665086995684" lon="11.155290973622737"><ele>1030.0</ele><time>2026-03-28T13:04:45Z</time></trkpt><trkpt lat="45.76662684433125" lon="11.155288181669412"><ele>1030.0</ele><time>2026-03-28T13:04:46Z</time></trkpt><trkpt lat="45.76674563080097" lon="11.155286319956176"><ele>1030.0</ele><time>2026-03-28T13:04:47Z</time></trkpt><trkpt lat="45.76686339696746" lon="11.155321395841982"><ele>1030.0</ele><time>2026-03-28T13:04:48Z</time></trkpt><trkpt lat="45.76697398404065" lon="11.155389028870271"><ele>1030.0</ele><time>2026-03-28T13:04:49Z</time></trkpt><trkpt lat="45.76707291267114" lon="11.155446188582992"><ele>1029.2</ele><time>2026-03-28T13:04:50Z</time></trkpt><trkpt lat="45.76715011973199" lon="11.155548111072076"><ele>1028.4</ele><time>2026-03-28T13:04:51Z</time></trkpt><trkpt lat="45.767192910623756" lon="11.155681480747567"><ele>1027.6</ele><time>2026-03-28T13:04:52Z</time></trkpt><trkpt lat="45.76719335191407" lon="11.15582662584485"><ele>1026.8</ele><time>2026-03-28T13:04:53Z</time></trkpt><trkpt lat="45.76716544040384" lon="11.155937611562523"><ele>1026.0</ele><time>2026-03-28T13:04:54Z</time></trkpt><trkpt lat="45.767096611284025" lon="11.156044904959522"><ele>1026.0</ele><time>2026-03-28T13:04:55Z</time></trkpt><trkpt lat="45.76701655358582" lon="11.15619162520636"><ele>1026.0</ele><time>2026-03-28T13:04:56Z</time></trkpt><trkpt lat="45.76694695969696" lon="11.15637288746164"><ele>1026.0</ele><time>2026-03-28T13:04:57Z</time></trkpt><trkpt lat="45.76687586751105" lon="11.15656658408277"><ele>1026.0</ele><time>2026-03-28T13:04:58Z</time></trkpt><trkpt lat="45.76680626691814" lon="11.156756549475555"><ele>1034.0</ele><time>2026-03-28T13:04:59Z</time></trkpt><trkpt lat="45.76673614328726" lon="11.156951073959611"><ele>1042.0</ele><time>2026-03-28T13:05:00Z</time></trkpt><trkpt lat="45.76668097333649" lon="11.1571623203283"><ele>1050.0</ele><time>2026-03-28T13:05:01Z</time></trkpt><trkpt lat="45.76664589771297" lon="11.157364897529664"><ele>1046.5</ele><time>2026-03-28T13:05:02Z</time></trkpt><trkpt lat="45.76662388526249" lon="11.157539703106798"><ele>1043.0</ele><time>2026-03-28T13:05:03Z</time></trkpt><trkpt lat="45.7666239098692" lon="11.157712892516557"><ele>1039.5</ele><time>2026-03-28T13:05:04Z</time></trkpt><trkpt lat="45.766690120706976" lon="11.157878743706572"><ele>1036.0</ele><time>2026-03-28T13:05:05Z</time></trkpt><trkpt lat="45.766767028694915" lon="11.158024521323828"><ele>1031.75</ele><time>2026-03-28T13:05:06Z</time></trkpt><trkpt lat="45.76687402474539" lon="11.158146012697951"><ele>1027.5</ele><time>2026-03-28T13:05:07Z</time></trkpt><trkpt lat="45.76700329218391" lon="11.15820388712856"><ele>1023.25</ele><time>2026-03-28T13:05:08Z</time></trkpt><trkpt lat="45.76713450347868" lon="11.15821905461739"><ele>1019.0</ele><time>2026-03-28T13:05:09Z</time></trkpt><trkpt lat="45.76726728641663" lon="11.158187772250356"><ele>1015.0</ele><time>2026-03-28T13:05:10Z</time></trkpt><trkpt lat="45.76738852922143" lon="11.15812574574157"><ele>1011.0</ele><time>2026-03-28T13:05:11Z</time></trkpt><trkpt lat="45.767500770917025" lon="11.158054797195069"><ele>1007.0</ele><time>2026-03-28T13:05:12Z</time></trkpt><trkpt lat="45.76762987172085" lon="11.1579988408753"><ele>1003.0</ele><time>2026-03-28T13:05:13Z</time></trkpt><trkpt lat="45.76776445763346" lon="11.15796255704865"><ele>999.25</ele><time>2026-03-28T13:05:14Z</time></trkpt><trkpt lat="45.767906057604065" lon="11.157941050836182"><ele>995.5</ele><time>2026-03-28T13:05:15Z</time></trkpt><trkpt lat="45.7680478273884" lon="11.157917615920827"><ele>991.75</ele><time>2026-03-28T13:05:16Z</time></trkpt><trkpt lat="45.76818768176324" lon="11.157912597402497"><ele>988.0</ele><time>2026-03-28T13:05:17Z</time></trkpt><trkpt lat="45.76833111726022" lon="11.15789049716139"><ele>988.0</ele><time>2026-03-28T13:05:18Z</time></trkpt><trkpt lat="45.76847250762084" lon="11.157872876909083"><ele>988.0</ele><time>2026-03-28T13:05:19Z</time></trkpt><trkpt lat="45.76862452230954" lon="11.157869279478852"><ele>988.0</ele><time>2026-03-28T13:05:20Z</time></trkpt><trkpt lat="45.76876758505848" lon="11.157859714242056"><ele>988.0</ele><time>2026-03-28T13:05:21Z</time></trkpt><trkpt lat="45.768907437758415" lon="11.157810853153775"><ele>987.75</ele><time>2026-03-28T13:05:22Z</time></trkpt><trkpt lat="45.76903106524444" lon="11.157692313727658"><ele>987.5</ele><time>2026-03-28T13:05:23Z</time></trkpt><trkpt lat="45.769149296120325" lon="11.157581434110291"><ele>987.25</ele><time>2026-03-28T13:05:24Z</time></trkpt><trkpt lat="45.76925825262606" lon="11.157481729152568"><ele>987.0</ele><time>2026-03-28T13:05:25Z</time></trkpt><trkpt lat="45.76936082455284" lon="11.157434474084146"><ele>984.8</ele><time>2026-03-28T13:05:26Z</time></trkpt><trkpt lat="45.76945223763752" lon="11.157419960354526"><ele>982.6</ele><time>2026-03-28T13:05:27Z</time></trkpt><trkpt lat="45.76953966489684" lon="11.157504482086345"><ele>980.3999999999999</ele><time>2026-03-28T13:05:28Z</time></trkpt><trkpt lat="45.76962765089295" lon="11.157629536522318"><ele>978.1999999999999</ele><time>2026-03-28T13:05:29Z</time></trkpt><trkpt lat="45.76972005677085" lon="11.157745283655967"><ele>976.0</ele><time>2026-03-28T13:05:30Z</time></trkpt><trkpt lat="45.769825369704336" lon="11.157830606338576"><ele>976.0</ele><time>2026-03-28T13:05:30.999Z</time></trkpt><trkpt lat="45.76993356427755" lon="11.157885638850983"><ele>975.9999999999999</ele><time>2026-03-28T13:05:31.999Z</time></trkpt><trkpt lat="45.77003397682351" lon="11.157898531221827"><ele>975.9999999999999</ele><time>2026-03-28T13:05:32.999Z</time></trkpt><trkpt lat="45.770140652335805" lon="11.15788201515394"><ele>976.0</ele><time>2026-03-28T13:05:34.022Z</time></trkpt><trkpt lat="45.770241238778894" lon="11.157823108990106"><ele>976.0</ele><time>2026-03-28T13:05:35.012Z</time></trkpt><trkpt lat="45.77034018193126" lon="11.157722391194186"><ele>981.0</ele><time>2026-03-28T13:05:36.025Z</time></trkpt><trkpt lat="45.77044283613763" lon="11.157597187470131"><ele>986.0</ele><time>2026-03-28T13:05:37.02Z</time></trkpt><trkpt lat="45.77081611849905" lon="11.157158268625993"><ele>977.0</ele><time>2026-03-28T13:05:39.999Z</time></trkpt><trkpt lat="45.77093020596674" lon="11.157022794818786"><ele>968.0</ele><time>2026-03-28T13:05:40.999Z</time></trkpt><trkpt lat="45.771041712946676" lon="11.156945852264275"><ele>959.0</ele><time>2026-03-28T13:05:41.999Z</time></trkpt><trkpt lat="45.771153597950054" lon="11.156954699821936"><ele>950.0</ele><time>2026-03-28T13:05:42.999Z</time></trkpt><trkpt lat="45.77127975903811" lon="11.1569689281062"><ele>946.3333333333334</ele><time>2026-03-28T13:05:43.999Z</time></trkpt><trkpt lat="45.77140201819844" lon="11.157004252946729"><ele>942.6666666666667</ele><time>2026-03-28T13:05:44.999Z</time></trkpt><trkpt lat="45.77156285278157" lon="11.157063895558947"><ele>939.0</ele><time>2026-03-28T13:05:45.999Z</time></trkpt><trkpt lat="45.77171354129027" lon="11.157135797403651"><ele>933.6666666666667</ele><time>2026-03-28T13:05:46.999Z</time></trkpt><trkpt lat="45.77187973180968" lon="11.15715111158036"><ele>928.3333333333334</ele><time>2026-03-28T13:05:48Z</time></trkpt><trkpt lat="45.77205448145905" lon="11.157158882480728"><ele>923.0</ele><time>2026-03-28T13:05:49Z</time></trkpt><trkpt lat="45.772227322574956" lon="11.157166326718913"><ele>923.0</ele><time>2026-03-28T13:05:50Z</time></trkpt><trkpt lat="45.772400311982175" lon="11.157194576108083"><ele>923.0</ele><time>2026-03-28T13:05:51Z</time></trkpt><trkpt lat="45.77257582273489" lon="11.15723801561917"><ele>923.0</ele><time>2026-03-28T13:05:52Z</time></trkpt><trkpt lat="45.772748544954915" lon="11.157246384686855"><ele>922.75</ele><time>2026-03-28T13:05:53Z</time></trkpt><trkpt lat="45.77291189379185" lon="11.157257143439066"><ele>922.5</ele><time>2026-03-28T13:05:54Z</time></trkpt><trkpt lat="45.7730610703032" lon="11.157285702599374"><ele>922.25</ele><time>2026-03-28T13:05:55Z</time></trkpt><trkpt lat="45.77318676830911" lon="11.157352795484906"><ele>922.0</ele><time>2026-03-28T13:05:56Z</time></trkpt><trkpt lat="45.77330547376365" lon="11.15743422600523"><ele>929.5</ele><time>2026-03-28T13:05:57Z</time></trkpt><trkpt lat="45.77341337854309" lon="11.15749773866073"><ele>937.0</ele><time>2026-03-28T13:05:58Z</time></trkpt><trkpt lat="45.773523938239194" lon="11.157521493484348"><ele>944.5</ele><time>2026-03-28T13:05:59Z</time></trkpt><trkpt lat="45.77364681025691" lon="11.157493702170044"><ele>952.0</ele><time>2026-03-28T13:06:00Z</time></trkpt><trkpt lat="45.77376028226965" lon="11.157422742982252"><ele>950.0</ele><time>2026-03-28T13:06:01Z</time></trkpt><trkpt lat="45.77383699498476" lon="11.157308068557375"><ele>948.0</ele><time>2026-03-28T13:06:02Z</time></trkpt><trkpt lat="45.77393784980803" lon="11.157191928471589"><ele>946.0</ele><time>2026-03-28T13:06:03Z</time></trkpt><trkpt lat="45.77402229641094" lon="11.15706854097717"><ele>944.0</ele><time>2026-03-28T13:06:04Z</time></trkpt><trkpt lat="45.77407375668117" lon="11.15691632312789"><ele>944.0</ele><time>2026-03-28T13:06:05Z</time></trkpt><trkpt lat="45.77409188965476" lon="11.156758557450075"><ele>944.0</ele><time>2026-03-28T13:06:06Z</time></trkpt><trkpt lat="45.774081899704086" lon="11.156600102098002"><ele>944.0</ele><time>2026-03-28T13:06:07Z</time></trkpt><trkpt lat="45.774038033522345" lon="11.156444060854763"><ele>944.0</ele><time>2026-03-28T13:06:08Z</time></trkpt><trkpt lat="45.773998358840444" lon="11.156269477777903"><ele>954.25</ele><time>2026-03-28T13:06:09Z</time></trkpt><trkpt lat="45.773956272204025" lon="11.156081174868875"><ele>964.5</ele><time>2026-03-28T13:06:10Z</time></trkpt><trkpt lat="45.77388119944544" lon="11.155895165245026"><ele>974.75</ele><time>2026-03-28T13:06:11Z</time></trkpt><trkpt lat="45.77381246196932" lon="11.155701333093635"><ele>985.0</ele><time>2026-03-28T13:06:12Z</time></trkpt><trkpt lat="45.77374323970198" lon="11.155510911512668"><ele>988.0</ele><time>2026-03-28T13:06:13Z</time></trkpt><trkpt lat="45.77368057985448" lon="11.155335253736883"><ele>991.0</ele><time>2026-03-28T13:06:14Z</time></trkpt><trkpt lat="45.77359940029853" lon="11.15521120661666"><ele>994.0</ele><time>2026-03-28T13:06:15Z</time></trkpt><trkpt lat="45.77349596105104" lon="11.155147152636546"><ele>997.0</ele><time>2026-03-28T13:06:16Z</time></trkpt><trkpt lat="45.773381258976066" lon="11.155149375444083"><ele>994.2</ele><time>2026-03-28T13:06:17Z</time></trkpt><trkpt lat="45.773285397150346" lon="11.155108375905742"><ele>991.4000000000001</ele><time>2026-03-28T13:06:18Z</time></trkpt><trkpt lat="45.773228708888716" lon="11.154997910197682"><ele>988.5999999999999</ele><time>2026-03-28T13:06:19Z</time></trkpt><trkpt lat="45.77315422392194" lon="11.154870610096152"><ele>985.8</ele><time>2026-03-28T13:06:20Z</time></trkpt><trkpt lat="45.77307985679503" lon="11.15471531070921"><ele>983.0</ele><time>2026-03-28T13:06:21Z</time></trkpt><trkpt lat="45.77299472406869" lon="11.154554937832119"><ele>983.0</ele><time>2026-03-28T13:06:22Z</time></trkpt><trkpt lat="45.77290479150864" lon="11.154378939956262"><ele>983.0</ele><time>2026-03-28T13:06:23Z</time></trkpt><trkpt lat="45.772786365799625" lon="11.154206909241534"><ele>983.0</ele><time>2026-03-28T13:06:24Z</time></trkpt><trkpt lat="45.7726760818531" lon="11.154007338554994"><ele>979.0</ele><time>2026-03-28T13:06:25Z</time></trkpt><trkpt lat="45.772532707308756" lon="11.153838191988193"><ele>975.0</ele><time>2026-03-28T13:06:26Z</time></trkpt><trkpt lat="45.772377648040965" lon="11.153700328503776"><ele>971.0</ele><time>2026-03-28T13:06:27Z</time></trkpt><trkpt lat="45.77224017704233" lon="11.153520318858613"><ele>971.0</ele><time>2026-03-28T13:06:28Z</time></trkpt><trkpt lat="45.77209507662945" lon="11.153326757699663"><ele>971.0</ele><time>2026-03-28T13:06:29Z</time></trkpt><trkpt lat="45.77194956573673" lon="11.153130109785158"><ele>971.0</ele><time>2026-03-28T13:06:30Z</time></trkpt><trkpt lat="45.77180620914716" lon="11.15294952996845"><ele>971.3333333333334</ele><time>2026-03-28T13:06:31Z</time></trkpt><trkpt lat="45.771665735608586" lon="11.15280400448144"><ele>971.6666666666667</ele><time>2026-03-28T13:06:32Z</time></trkpt><trkpt lat="45.77153097422815" lon="11.152674590840471"><ele>972.0</ele><time>2026-03-28T13:06:33Z</time></trkpt><trkpt lat="45.77138570527953" lon="11.15260958292931"><ele>972.0</ele><time>2026-03-28T13:06:34Z</time></trkpt><trkpt lat="45.77127033396999" lon="11.152587920161567"><ele>972.0</ele><time>2026-03-28T13:06:35Z</time></trkpt><trkpt lat="45.77118156831225" lon="11.152513303289972"><ele>972.0</ele><time>2026-03-28T13:06:36Z</time></trkpt><trkpt lat="45.771099638055496" lon="11.152386869057992"><ele>972.0</ele><time>2026-03-28T13:06:37Z</time></trkpt><trkpt lat="45.77100469631093" lon="11.152252778259891"><ele>973.25</ele><time>2026-03-28T13:06:38Z</time></trkpt><trkpt lat="45.77088607996675" lon="11.152142017146216"><ele>974.5</ele><time>2026-03-28T13:06:39Z</time></trkpt><trkpt lat="45.770752576818644" lon="11.152054371609417"><ele>975.75</ele><time>2026-03-28T13:06:40Z</time></trkpt><trkpt lat="45.77062091154924" lon="11.151975647133648"><ele>977.0</ele><time>2026-03-28T13:06:41Z</time></trkpt><trkpt lat="45.77050874529107" lon="11.151929491450305"><ele>977.0</ele><time>2026-03-28T13:06:42Z</time></trkpt><trkpt lat="45.770418510018" lon="11.1518838174526"><ele>977.0</ele><time>2026-03-28T13:06:43Z</time></trkpt><trkpt lat="45.77036966682905" lon="11.151767833485287"><ele>977.0</ele><time>2026-03-28T13:06:44Z</time></trkpt><trkpt lat="45.77037578672131" lon="11.151627151104394"><ele>977.0</ele><time>2026-03-28T13:06:45Z</time></trkpt><trkpt lat="45.77035187909768" lon="11.151484455550333"><ele>977.0</ele><time>2026-03-28T13:06:46Z</time></trkpt><trkpt lat="45.77031216475828" lon="11.151356255158653"><ele>977.5</ele><time>2026-03-28T13:06:47Z</time></trkpt><trkpt lat="45.770248175363704" lon="11.151241040666669"><ele>978.0</ele><time>2026-03-28T13:06:48Z</time></trkpt><trkpt lat="45.77012768939744" lon="11.151179435827315"><ele>978.5</ele><time>2026-03-28T13:06:49Z</time></trkpt><trkpt lat="45.770012846027605" lon="11.15118555941188"><ele>979.0</ele><time>2026-03-28T13:06:50Z</time></trkpt><trkpt lat="45.76990912781467" lon="11.151153956603496"><ele>979.0</ele><time>2026-03-28T13:06:51Z</time></trkpt><trkpt lat="45.76980973314558" lon="11.15108110256433"><ele>979.0</ele><time>2026-03-28T13:06:52Z</time></trkpt><trkpt lat="45.7697342905384" lon="11.150936844778423"><ele>979.0</ele><time>2026-03-28T13:06:53Z</time></trkpt><trkpt lat="45.76963774639431" lon="11.150787781026999"><ele>979.0</ele><time>2026-03-28T13:06:54Z</time></trkpt><trkpt lat="45.76955922254287" lon="11.150610656734028"><ele>978.5</ele><time>2026-03-28T13:06:55Z</time></trkpt><trkpt lat="45.76946691943079" lon="11.150453318304404"><ele>978.0</ele><time>2026-03-28T13:06:56Z</time></trkpt><trkpt lat="45.76939963599946" lon="11.150288257997614"><ele>977.5</ele><time>2026-03-28T13:06:57Z</time></trkpt><trkpt lat="45.76934527607252" lon="11.1501343887463"><ele>977.0</ele><time>2026-03-28T13:06:58Z</time></trkpt><trkpt lat="45.769301712291984" lon="11.149980809585834"><ele>981.5</ele><time>2026-03-28T13:06:59Z</time></trkpt><trkpt lat="45.76923704891955" lon="11.149848195579771"><ele>986.0</ele><time>2026-03-28T13:07:00Z</time></trkpt><trkpt lat="45.769168314217545" lon="11.149712045215276"><ele>990.5</ele><time>2026-03-28T13:07:01Z</time></trkpt><trkpt lat="45.76905431048286" lon="11.149617049656728"><ele>995.0</ele><time>2026-03-28T13:07:02Z</time></trkpt><trkpt lat="45.768912134366346" lon="11.14958770651975"><ele>995.0</ele><time>2026-03-28T13:07:03Z</time></trkpt><trkpt lat="45.76877589500036" lon="11.14954955391401"><ele>995.0</ele><time>2026-03-28T13:07:04Z</time></trkpt><trkpt lat="45.768652198606375" lon="11.149520646447554"><ele>995.0</ele><time>2026-03-28T13:07:05Z</time></trkpt><trkpt lat="45.76853625879355" lon="11.149511756532009"><ele>995.0</ele><time>2026-03-28T13:07:06Z</time></trkpt><trkpt lat="45.768431421804735" lon="11.149508632945615"><ele>992.1666666666667</ele><time>2026-03-28T13:07:07Z</time></trkpt><trkpt lat="45.768357538887585" lon="11.149495532089498"><ele>989.3333333333334</ele><time>2026-03-28T13:07:08Z</time></trkpt><trkpt lat="45.76830201119629" lon="11.149439586965467"><ele>986.5</ele><time>2026-03-28T13:07:09Z</time></trkpt><trkpt lat="45.768306898241114" lon="11.149333225739566"><ele>983.6666666666667</ele><time>2026-03-28T13:07:10Z</time></trkpt><trkpt lat="45.768347627640146" lon="11.149213593471769"><ele>980.8333333333334</ele><time>2026-03-28T13:07:11Z</time></trkpt><trkpt lat="45.76842195748628" lon="11.149114248386047"><ele>978.0</ele><time>2026-03-28T13:07:12Z</time></trkpt><trkpt lat="45.76849918998893" lon="11.149015494926212"><ele>985.5</ele><time>2026-03-28T13:07:13Z</time></trkpt><trkpt lat="45.76856565086381" lon="11.148875228783616"><ele>993.0</ele><time>2026-03-28T13:07:14Z</time></trkpt><trkpt lat="45.768625148472374" lon="11.148704421527974"><ele>1000.5</ele><time>2026-03-28T13:07:15Z</time></trkpt><trkpt lat="45.7686700484917" lon="11.148524349562546"><ele>1008.0</ele><time>2026-03-28T13:07:16Z</time></trkpt><trkpt lat="45.76869196665154" lon="11.148368580651425"><ele>1008.0</ele><time>2026-03-28T13:07:17Z</time></trkpt><trkpt lat="45.768671945604574" lon="11.14822727573164"><ele>1008.0</ele><time>2026-03-28T13:07:18Z</time></trkpt><trkpt lat="45.76860836630694" lon="11.148093381900003"><ele>1008.0</ele><time>2026-03-28T13:07:19Z</time></trkpt><trkpt lat="45.76851950347025" lon="11.147970798972558"><ele>1008.0</ele><time>2026-03-28T13:07:20Z</time></trkpt><trkpt lat="45.768399772741645" lon="11.14788136538638"><ele>1005.0</ele><time>2026-03-28T13:07:21Z</time></trkpt><trkpt lat="45.76827257473301" lon="11.147796331612287"><ele>1002.0</ele><time>2026-03-28T13:07:22Z</time></trkpt><trkpt lat="45.76812785059141" lon="11.147733293280176"><ele>999.0</ele><time>2026-03-28T13:07:23Z</time></trkpt><trkpt lat="45.76799219193739" lon="11.14767214865364"><ele>996.0</ele><time>2026-03-28T13:07:24Z</time></trkpt><trkpt lat="45.767860727106566" lon="11.147598720218248"><ele>996.0</ele><time>2026-03-28T13:07:25Z</time></trkpt><trkpt lat="45.76773312952919" lon="11.147555057662714"><ele>996.0</ele><time>2026-03-28T13:07:26Z</time></trkpt><trkpt lat="45.76762531461427" lon="11.147483428088297"><ele>996.0</ele><time>2026-03-28T13:07:27Z</time></trkpt><trkpt lat="45.76756849575906" lon="11.147325905443344"><ele>996.0</ele><time>2026-03-28T13:07:28Z</time></trkpt><trkpt lat="45.76751035359494" lon="11.147162407456534"><ele>996.0</ele><time>2026-03-28T13:07:29Z</time></trkpt><trkpt lat="45.76746665873253" lon="11.14700034520851"><ele>996.0</ele><time>2026-03-28T13:07:30Z</time></trkpt><trkpt lat="45.76742692547748" lon="11.146843213917304"><ele>996.0</ele><time>2026-03-28T13:07:31Z</time></trkpt><trkpt lat="45.76738972875334" lon="11.146687242231993"><ele>996.0</ele><time>2026-03-28T13:07:32Z</time></trkpt><trkpt lat="45.76738513952391" lon="11.146498719086926"><ele>996.0</ele><time>2026-03-28T13:07:33Z</time></trkpt><trkpt lat="45.76739634022051" lon="11.146285570454303"><ele>996.0</ele><time>2026-03-28T13:07:34Z</time></trkpt><trkpt lat="45.76738856681617" lon="11.146048011071672"><ele>996.0</ele><time>2026-03-28T13:07:35Z</time></trkpt><trkpt lat="45.76739857649951" lon="11.145815554970259"><ele>996.0</ele><time>2026-03-28T13:07:36Z</time></trkpt><trkpt lat="45.767395836141496" lon="11.145600703558538"><ele>996.0</ele><time>2026-03-28T13:07:37Z</time></trkpt><trkpt lat="45.76738541289315" lon="11.145398758486166"><ele>996.0</ele><time>2026-03-28T13:07:38Z</time></trkpt><trkpt lat="45.767424573469114" lon="11.145202930536952"><ele>996.0</ele><time>2026-03-28T13:07:39Z</time></trkpt><trkpt lat="45.76749024566476" lon="11.145018030298745"><ele>998.0</ele><time>2026-03-28T13:07:40Z</time></trkpt><trkpt lat="45.76759911685903" lon="11.14486745337286"><ele>1000.0</ele><time>2026-03-28T13:07:41Z</time></trkpt><trkpt lat="45.76770051685835" lon="11.144698513165359"><ele>1002.0</ele><time>2026-03-28T13:07:42Z</time></trkpt><trkpt lat="45.76782106390989" lon="11.144568587667282"><ele>1002.0</ele><time>2026-03-28T13:07:42.999Z</time></trkpt><trkpt lat="45.76792795602723" lon="11.14443589438835"><ele>1002.0</ele><time>2026-03-28T13:07:43.999Z</time></trkpt><trkpt lat="45.76801334546698" lon="11.144282241633459"><ele>1002.0</ele><time>2026-03-28T13:07:44.999Z</time></trkpt><trkpt lat="45.768085531301" lon="11.14413506779973"><ele>1002.0</ele><time>2026-03-28T13:07:45.999Z</time></trkpt><trkpt lat="45.76806501797821" lon="11.143957187505077"><ele>997.5</ele><time>2026-03-28T13:07:46.999Z</time></trkpt><trkpt lat="45.76804752206957" lon="11.14378202413235"><ele>993.0</ele><time>2026-03-28T13:07:47.999Z</time></trkpt><trkpt lat="45.768041275116" lon="11.143615677968782"><ele>988.5</ele><time>2026-03-28T13:07:48.999Z</time></trkpt><trkpt lat="45.76806484054577" lon="11.143451765452935"><ele>984.0</ele><time>2026-03-28T13:07:49.999Z</time></trkpt><trkpt lat="45.76815288244321" lon="11.1433355224474"><ele>977.25</ele><time>2026-03-28T13:07:50.999Z</time></trkpt><trkpt lat="45.7682354861537" lon="11.143191087040519"><ele>970.5</ele><time>2026-03-28T13:07:51.999Z</time></trkpt><trkpt lat="45.76833846746823" lon="11.143062068883724"><ele>963.75</ele><time>2026-03-28T13:07:52.999Z</time></trkpt><trkpt lat="45.76842364988676" lon="11.142918976117908"><ele>957.0</ele><time>2026-03-28T13:07:54Z</time></trkpt><trkpt lat="45.76848516554823" lon="11.142742817695519"><ele>964.0</ele><time>2026-03-28T13:07:55Z</time></trkpt><trkpt lat="45.768533738320734" lon="11.142536186610203"><ele>971.0</ele><time>2026-03-28T13:07:56Z</time></trkpt><trkpt lat="45.768573181762704" lon="11.142321666871947"><ele>978.0</ele><time>2026-03-28T13:07:57Z</time></trkpt><trkpt lat="45.76859269338118" lon="11.142103016551816"><ele>978.0</ele><time>2026-03-28T13:07:58Z</time></trkpt><trkpt lat="45.76862199842501" lon="11.141882364449968"><ele>978.0</ele><time>2026-03-28T13:07:59Z</time></trkpt><trkpt lat="45.76860675803628" lon="11.141663350533129"><ele>978.0</ele><time>2026-03-28T13:08:00Z</time></trkpt><trkpt lat="45.76863522856775" lon="11.141447808880882"><ele>973.6666666666667</ele><time>2026-03-28T13:08:01Z</time></trkpt><trkpt lat="45.76868942074245" lon="11.141241458939625"><ele>969.3333333333334</ele><time>2026-03-28T13:08:02Z</time></trkpt><trkpt lat="45.76873457937685" lon="11.141033425555104"><ele>965.0</ele><time>2026-03-28T13:08:03Z</time></trkpt><trkpt lat="45.76878320227878" lon="11.140834797816735"><ele>957.75</ele><time>2026-03-28T13:08:04Z</time></trkpt><trkpt lat="45.76885830311952" lon="11.140655618953753"><ele>950.5</ele><time>2026-03-28T13:08:05Z</time></trkpt><trkpt lat="45.76894856884107" lon="11.140515292787134"><ele>943.25</ele><time>2026-03-28T13:08:06Z</time></trkpt><trkpt lat="45.76901391753393" lon="11.140388397204005"><ele>936.0</ele><time>2026-03-28T13:08:07Z</time></trkpt><trkpt lat="45.76906436666688" lon="11.140264103750608"><ele>936.0</ele><time>2026-03-28T13:08:08Z</time></trkpt><trkpt lat="45.769154782203515" lon="11.140216692798955"><ele>935.9999999999999</ele><time>2026-03-28T13:08:09Z</time></trkpt><trkpt lat="45.769253847100934" lon="11.140225609857232"><ele>935.9999999999999</ele><time>2026-03-28T13:08:10Z</time></trkpt><trkpt lat="45.769354169339934" lon="11.14028099057959"><ele>936.0</ele><time>2026-03-28T13:08:11Z</time></trkpt><trkpt lat="45.769460615685745" lon="11.140375134358669"><ele>936.0</ele><time>2026-03-28T13:08:12Z</time></trkpt><trkpt lat="45.769566973321126" lon="11.140481599365481"><ele>936.4</ele><time>2026-03-28T13:08:13Z</time></trkpt><trkpt lat="45.7696653893495" lon="11.140601308706463"><ele>936.8</ele><time>2026-03-28T13:08:14Z</time></trkpt><trkpt lat="45.76976133700063" lon="11.140689478192053"><ele>937.1999999999999</ele><time>2026-03-28T13:08:15Z</time></trkpt><trkpt lat="45.76985487896747" lon="11.14073428282032"><ele>937.5999999999999</ele><time>2026-03-28T13:08:16Z</time></trkpt><trkpt lat="45.76994786246252" lon="11.14071063759456"><ele>938.0</ele><time>2026-03-28T13:08:17Z</time></trkpt><trkpt lat="45.77001113678145" lon="11.140618088791781"><ele>938.0</ele><time>2026-03-28T13:08:18Z</time></trkpt><trkpt lat="45.77005603463984" lon="11.140491219603595"><ele>938.0</ele><time>2026-03-28T13:08:19Z</time></trkpt><trkpt lat="45.7700614396571" lon="11.140333398980024"><ele>938.0</ele><time>2026-03-28T13:08:20Z</time></trkpt><trkpt lat="45.77005111479136" lon="11.140165304735172"><ele>938.0</ele><time>2026-03-28T13:08:21Z</time></trkpt><trkpt lat="45.77002988297439" lon="11.139974350577777"><ele>935.5</ele><time>2026-03-28T13:08:22Z</time></trkpt><trkpt lat="45.770019782143336" lon="11.139759949145379"><ele>933.0</ele><time>2026-03-28T13:08:23Z</time></trkpt><trkpt lat="45.77001962614424" lon="11.139563416672148"><ele>930.5</ele><time>2026-03-28T13:08:24Z</time></trkpt><trkpt lat="45.77002097857215" lon="11.139364229531115"><ele>928.0</ele><time>2026-03-28T13:08:25Z</time></trkpt><trkpt lat="45.770030709029214" lon="11.13916687311038"><ele>926.75</ele><time>2026-03-28T13:08:26Z</time></trkpt><trkpt lat="45.77005791680647" lon="11.138966249991405"><ele>925.5</ele><time>2026-03-28T13:08:27Z</time></trkpt><trkpt lat="45.77009121970909" lon="11.13876682535252"><ele>924.25</ele><time>2026-03-28T13:08:28Z</time></trkpt><trkpt lat="45.77012526248845" lon="11.138571233343724"><ele>923.0</ele><time>2026-03-28T13:08:29Z</time></trkpt><trkpt lat="45.7701535711633" lon="11.138380792836523"><ele>923.5</ele><time>2026-03-28T13:08:30Z</time></trkpt><trkpt lat="45.77017389696838" lon="11.13821062236402"><ele>924.0</ele><time>2026-03-28T13:08:31Z</time></trkpt><trkpt lat="45.770211640625085" lon="11.138071479457267"><ele>924.5</ele><time>2026-03-28T13:08:32Z</time></trkpt><trkpt lat="45.770281473457814" lon="11.13794500599567"><ele>925.0</ele><time>2026-03-28T13:08:33Z</time></trkpt><trkpt lat="45.77037727529204" lon="11.137826042467717"><ele>925.0</ele><time>2026-03-28T13:08:34Z</time></trkpt><trkpt lat="45.77048996300507" lon="11.13769898666648"><ele>925.0</ele><time>2026-03-28T13:08:35Z</time></trkpt><trkpt lat="45.7706155791791" lon="11.13755543137291"><ele>925.0</ele><time>2026-03-28T13:08:36Z</time></trkpt><trkpt lat="45.770730114291815" lon="11.137399971197903"><ele>918.6666666666666</ele><time>2026-03-28T13:08:37Z</time></trkpt><trkpt lat="45.77084928562088" lon="11.137249514808374"><ele>912.3333333333333</ele><time>2026-03-28T13:08:38Z</time></trkpt><trkpt lat="45.770982421312176" lon="11.137119830642469"><ele>906.0</ele><time>2026-03-28T13:08:39Z</time></trkpt><trkpt lat="45.77112311222089" lon="11.137004524853252"><ele>905.25</ele><time>2026-03-28T13:08:40Z</time></trkpt><trkpt lat="45.771255792331665" lon="11.136905362979334"><ele>904.5</ele><time>2026-03-28T13:08:41Z</time></trkpt><trkpt lat="45.771371736038056" lon="11.136828257827727"><ele>903.75</ele><time>2026-03-28T13:08:42Z</time></trkpt><trkpt lat="45.77147252919096" lon="11.136758760521303"><ele>903.0</ele><time>2026-03-28T13:08:43Z</time></trkpt><trkpt lat="45.771557601941524" lon="11.136648483705015"><ele>901.5</ele><time>2026-03-28T13:08:44Z</time></trkpt><trkpt lat="45.77158603016966" lon="11.136465184001331"><ele>900.0</ele><time>2026-03-28T13:08:45Z</time></trkpt><trkpt lat="45.77159727833935" lon="11.136278029423579"><ele>898.5</ele><time>2026-03-28T13:08:46Z</time></trkpt><trkpt lat="45.77160139856629" lon="11.136068025574534"><ele>897.0</ele><time>2026-03-28T13:08:47Z</time></trkpt><trkpt lat="45.771606823641214" lon="11.13584346311913"><ele>896.6666666666667</ele><time>2026-03-28T13:08:48Z</time></trkpt><trkpt lat="45.77160984875927" lon="11.135611666120917"><ele>896.3333333333334</ele><time>2026-03-28T13:08:49Z</time></trkpt><trkpt lat="45.77161080165788" lon="11.13537882822157"><ele>896.0</ele><time>2026-03-28T13:08:50Z</time></trkpt><trkpt lat="45.7715978392048" lon="11.135154908568996"><ele>896.0</ele><time>2026-03-28T13:08:51Z</time></trkpt><trkpt lat="45.77157472675943" lon="11.134962857738325"><ele>896.0</ele><time>2026-03-28T13:08:52Z</time></trkpt><trkpt lat="45.771567835761125" lon="11.13478742647537"><ele>896.0</ele><time>2026-03-28T13:08:53Z</time></trkpt><trkpt lat="45.77155670332412" lon="11.134628731179998"><ele>896.0</ele><time>2026-03-28T13:08:54Z</time></trkpt><trkpt lat="45.77153825519063" lon="11.134489477300374"><ele>894.8</ele><time>2026-03-28T13:08:55Z</time></trkpt><trkpt lat="45.771577149199594" lon="11.13437022710835"><ele>893.5999999999999</ele><time>2026-03-28T13:08:56Z</time></trkpt><trkpt lat="45.771659581018916" lon="11.134310728806685"><ele>892.4</ele><time>2026-03-28T13:08:57Z</time></trkpt><trkpt lat="45.77175278609582" lon="11.134267204353737"><ele>891.2</ele><time>2026-03-28T13:08:58Z</time></trkpt><trkpt lat="45.77185702373262" lon="11.134199055879542"><ele>890.0</ele><time>2026-03-28T13:08:59Z</time></trkpt><trkpt lat="45.771963770867806" lon="11.134178267649224"><ele>890.0</ele><time>2026-03-28T13:09:00Z</time></trkpt><trkpt lat="45.772065429143446" lon="11.134150879396334"><ele>890.0</ele><time>2026-03-28T13:09:01Z</time></trkpt><trkpt lat="45.7721863392222" lon="11.134165527736913"><ele>890.0</ele><time>2026-03-28T13:09:02Z</time></trkpt><trkpt lat="45.772314359773816" lon="11.13417481804304"><ele>890.0</ele><time>2026-03-28T13:09:03Z</time></trkpt><trkpt lat="45.772445144857" lon="11.134170728088451"><ele>890.0</ele><time>2026-03-28T13:09:04Z</time></trkpt><trkpt lat="45.77257608502311" lon="11.134142972201921"><ele>890.0</ele><time>2026-03-28T13:09:05Z</time></trkpt><trkpt lat="45.772697974043496" lon="11.134103116022265"><ele>890.0</ele><time>2026-03-28T13:09:06Z</time></trkpt><trkpt lat="45.77282534226529" lon="11.134078043464536"><ele>890.0</ele><time>2026-03-28T13:09:07Z</time></trkpt><trkpt lat="45.77293722544576" lon="11.133983865430556"><ele>888.0</ele><time>2026-03-28T13:09:08Z</time></trkpt><trkpt lat="45.773048376815424" lon="11.13389921431448"><ele>886.0</ele><time>2026-03-28T13:09:09Z</time></trkpt><trkpt lat="45.77315595857587" lon="11.133806125958342"><ele>884.0</ele><time>2026-03-28T13:09:10Z</time></trkpt><trkpt lat="45.773266660855775" lon="11.133711671582518"><ele>882.0</ele><time>2026-03-28T13:09:11Z</time></trkpt><trkpt lat="45.77336062629152" lon="11.133573482749313"><ele>882.0</ele><time>2026-03-28T13:09:12Z</time></trkpt><trkpt lat="45.77344562870175" lon="11.13342706798079"><ele>882.0</ele><time>2026-03-28T13:09:13Z</time></trkpt><trkpt lat="45.773508622958616" lon="11.133269363446935"><ele>882.0</ele><time>2026-03-28T13:09:14Z</time></trkpt><trkpt lat="45.77356688397318" lon="11.133102201535289"><ele>882.0</ele><time>2026-03-28T13:09:15Z</time></trkpt><trkpt lat="45.773575931852925" lon="11.132910904861783"><ele>881.25</ele><time>2026-03-28T13:09:16Z</time></trkpt><trkpt lat="45.773571226242076" lon="11.132729788278985"><ele>880.5</ele><time>2026-03-28T13:09:17Z</time></trkpt><trkpt lat="45.773541313228925" lon="11.132552993148842"><ele>879.75</ele><time>2026-03-28T13:09:18Z</time></trkpt><trkpt lat="45.77349782029867" lon="11.13236719386385"><ele>879.0</ele><time>2026-03-28T13:09:19Z</time></trkpt><trkpt lat="45.77341789891946" lon="11.13218789262137"><ele>879.0</ele><time>2026-03-28T13:09:20Z</time></trkpt><trkpt lat="45.773339851240095" lon="11.132015947552103"><ele>879.0</ele><time>2026-03-28T13:09:21Z</time></trkpt><trkpt lat="45.77328174235782" lon="11.131825012370593"><ele>879.0</ele><time>2026-03-28T13:09:22Z</time></trkpt><trkpt lat="45.77322867814343" lon="11.13161008792232"><ele>879.0</ele><time>2026-03-28T13:09:23Z</time></trkpt><trkpt lat="45.77316101156153" lon="11.131383307707447"><ele>880.0</ele><time>2026-03-28T13:09:24Z</time></trkpt><trkpt lat="45.77311293174631" lon="11.131148215476095"><ele>881.0</ele><time>2026-03-28T13:09:25Z</time></trkpt><trkpt lat="45.77305795184465" lon="11.130933421780869"><ele>882.0</ele><time>2026-03-28T13:09:26Z</time></trkpt><trkpt lat="45.772998433272186" lon="11.130736421997575"><ele>882.5</ele><time>2026-03-28T13:09:27Z</time></trkpt><trkpt lat="45.77294593357092" lon="11.130541583468874"><ele>883.0</ele><time>2026-03-28T13:09:28Z</time></trkpt><trkpt lat="45.77288017253404" lon="11.130368120044839"><ele>883.5</ele><time>2026-03-28T13:09:29Z</time></trkpt><trkpt lat="45.772804648865915" lon="11.130216613339684"><ele>884.0</ele><time>2026-03-28T13:09:30Z</time></trkpt><trkpt lat="45.77275830546544" lon="11.130057084253224"><ele>884.0</ele><time>2026-03-28T13:09:31Z</time></trkpt><trkpt lat="45.77273221343211" lon="11.129900363594654"><ele>884.0</ele><time>2026-03-28T13:09:32Z</time></trkpt><trkpt lat="45.77273977147411" lon="11.1297377558841"><ele>884.0</ele><time>2026-03-28T13:09:33Z</time></trkpt><trkpt lat="45.772773188507806" lon="11.129584393399508"><ele>884.0</ele><time>2026-03-28T13:09:34Z</time></trkpt><trkpt lat="45.77283115356673" lon="11.12944114525083"><ele>879.5</ele><time>2026-03-28T13:09:35Z</time></trkpt><trkpt lat="45.772923872094836" lon="11.129341614006947"><ele>875.0</ele><time>2026-03-28T13:09:36Z</time></trkpt><trkpt lat="45.77303327505558" lon="11.129266348106198"><ele>870.5</ele><time>2026-03-28T13:09:37Z</time></trkpt><trkpt lat="45.773156833848375" lon="11.129240849663185"><ele>866.0</ele><time>2026-03-28T13:09:38Z</time></trkpt><trkpt lat="45.77330367038187" lon="11.129211560177549"><ele>866.0</ele><time>2026-03-28T13:09:39Z</time></trkpt><trkpt lat="45.77344931150798" lon="11.129181018827493"><ele>866.0</ele><time>2026-03-28T13:09:40Z</time></trkpt><trkpt lat="45.773597698093845" lon="11.129152597589696"><ele>866.0</ele><time>2026-03-28T13:09:41Z</time></trkpt><trkpt lat="45.77374683711321" lon="11.12909404671838"><ele>862.0</ele><time>2026-03-28T13:09:42Z</time></trkpt><trkpt lat="45.7738898184646" lon="11.128988379679852"><ele>858.0</ele><time>2026-03-28T13:09:43Z</time></trkpt><trkpt lat="45.77401570989778" lon="11.128855398730614"><ele>854.0</ele><time>2026-03-28T13:09:44Z</time></trkpt><trkpt lat="45.77412829238875" lon="11.128692150281646"><ele>854.0</ele><time>2026-03-28T13:09:45Z</time></trkpt><trkpt lat="45.77422606320348" lon="11.128514298037015"><ele>854.0</ele><time>2026-03-28T13:09:46Z</time></trkpt><trkpt lat="45.77432552991396" lon="11.128355360460384"><ele>854.0</ele><time>2026-03-28T13:09:47Z</time></trkpt><trkpt lat="45.77445285601467" lon="11.128228687164684"><ele>850.6666666666667</ele><time>2026-03-28T13:09:47.999Z</time></trkpt><trkpt lat="45.77458780433889" lon="11.128114381077536"><ele>847.3333333333333</ele><time>2026-03-28T13:09:48.999Z</time></trkpt><trkpt lat="45.774725019013026" lon="11.127994356727664"><ele>844.0</ele><time>2026-03-28T13:09:49.999Z</time></trkpt><trkpt lat="45.774846787112935" lon="11.127820358807107"><ele>844.0</ele><time>2026-03-28T13:09:50.999Z</time></trkpt><trkpt lat="45.774931507384935" lon="11.127606837726795"><ele>844.0</ele><time>2026-03-28T13:09:51.999Z</time></trkpt><trkpt lat="45.775006293279176" lon="11.127398952293445"><ele>844.0</ele><time>2026-03-28T13:09:52.999Z</time></trkpt><trkpt lat="45.775082245859345" lon="11.12719728088431"><ele>847.0</ele><time>2026-03-28T13:09:53.999Z</time></trkpt><trkpt lat="45.77516018680163" lon="11.126993303148604"><ele>850.0</ele><time>2026-03-28T13:09:54.999Z</time></trkpt><trkpt lat="45.77523812922969" lon="11.12678955958367"><ele>853.0</ele><time>2026-03-28T13:09:55.999Z</time></trkpt><trkpt lat="45.7753175571902" lon="11.126589514724792"><ele>847.6666666666666</ele><time>2026-03-28T13:09:56.999Z</time></trkpt><trkpt lat="45.775403033428596" lon="11.12639107066186"><ele>842.3333333333333</ele><time>2026-03-28T13:09:57.999Z</time></trkpt><trkpt lat="45.775485843659226" lon="11.126186190478846"><ele>837.0</ele><time>2026-03-28T13:09:58.999Z</time></trkpt><trkpt lat="45.775561851961584" lon="11.125985958865487"><ele>837.0</ele><time>2026-03-28T13:10:00Z</time></trkpt><trkpt lat="45.7756365755144" lon="11.125789111498287"><ele>837.0</ele><time>2026-03-28T13:10:01Z</time></trkpt><trkpt lat="45.77571737167349" lon="11.12559465254421"><ele>837.0</ele><time>2026-03-28T13:10:02Z</time></trkpt><trkpt lat="45.775814137007394" lon="11.125420181898592"><ele>834.6666666666667</ele><time>2026-03-28T13:10:03Z</time></trkpt><trkpt lat="45.77591758789115" lon="11.125242822722852"><ele>832.3333333333334</ele><time>2026-03-28T13:10:04Z</time></trkpt><trkpt lat="45.776024758352534" lon="11.12507901387493"><ele>830.0</ele><time>2026-03-28T13:10:05Z</time></trkpt><trkpt lat="45.77613838974324" lon="11.124922904635811"><ele>826.3333333333334</ele><time>2026-03-28T13:10:06Z</time></trkpt><trkpt lat="45.776240860498824" lon="11.124761037141953"><ele>822.6666666666667</ele><time>2026-03-28T13:10:07Z</time></trkpt><trkpt lat="45.77632137307099" lon="11.124567946778017"><ele>819.0</ele><time>2026-03-28T13:10:08Z</time></trkpt><trkpt lat="45.776375860151134" lon="11.124382449079834"><ele>819.0</ele><time>2026-03-28T13:10:09Z</time></trkpt><trkpt lat="45.776433074759055" lon="11.12420041598235"><ele>819.0</ele><time>2026-03-28T13:10:10Z</time></trkpt><trkpt lat="45.77649622159369" lon="11.12404172095298"><ele>819.0</ele><time>2026-03-28T13:10:11Z</time></trkpt><trkpt lat="45.776587525583025" lon="11.123910852474953"><ele>819.0</ele><time>2026-03-28T13:10:12Z</time></trkpt><trkpt lat="45.77669039585447" lon="11.123786033144686"><ele>818.0</ele><time>2026-03-28T13:10:13Z</time></trkpt><trkpt lat="45.77680570340328" lon="11.123689589795882"><ele>817.0</ele><time>2026-03-28T13:10:14Z</time></trkpt><trkpt lat="45.77690289404164" lon="11.123578804261795"><ele>816.0</ele><time>2026-03-28T13:10:15Z</time></trkpt><trkpt lat="45.77699044759512" lon="11.123466673518454"><ele>815.0</ele><time>2026-03-28T13:10:16Z</time></trkpt><trkpt lat="45.77706242537243" lon="11.12333741000326"><ele>813.3333333333334</ele><time>2026-03-28T13:10:17Z</time></trkpt><trkpt lat="45.77712459110458" lon="11.123209281191178"><ele>811.6666666666667</ele><time>2026-03-28T13:10:18Z</time></trkpt><trkpt lat="45.777186394881866" lon="11.123094569229645"><ele>810.0</ele><time>2026-03-28T13:10:19Z</time></trkpt><trkpt lat="45.777247336284205" lon="11.12304619231479"><ele>808.3333333333333</ele><time>2026-03-28T13:10:20Z</time></trkpt><trkpt lat="45.77731094187299" lon="11.123059037441777"><ele>806.6666666666666</ele><time>2026-03-28T13:10:21Z</time></trkpt><trkpt lat="45.77737893101505" lon="11.123128452114106"><ele>805.0</ele><time>2026-03-28T13:10:22Z</time></trkpt><trkpt lat="45.777456326665636" lon="11.123251394993376"><ele>805.0</ele><time>2026-03-28T13:10:23Z</time></trkpt><trkpt lat="45.77750699652811" lon="11.123417432797456"><ele>805.0</ele><time>2026-03-28T13:10:24Z</time></trkpt><trkpt lat="45.77756417745593" lon="11.123600272436956"><ele>805.0</ele><time>2026-03-28T13:10:25Z</time></trkpt><trkpt lat="45.777609463887764" lon="11.12380138385127"><ele>805.0</ele><time>2026-03-28T13:10:26Z</time></trkpt><trkpt lat="45.777661971127216" lon="11.124003521457665"><ele>798.5</ele><time>2026-03-28T13:10:27Z</time></trkpt><trkpt lat="45.7777199227264" lon="11.124191558040861"><ele>792.0</ele><time>2026-03-28T13:10:28Z</time></trkpt><trkpt lat="45.777795869383894" lon="11.124372251490842"><ele>785.5</ele><time>2026-03-28T13:10:29Z</time></trkpt><trkpt lat="45.777887641524416" lon="11.124540550875674"><ele>779.0</ele><time>2026-03-28T13:10:30Z</time></trkpt><trkpt lat="45.77799617921508" lon="11.124683887001556"><ele>779.0</ele><time>2026-03-28T13:10:31Z</time></trkpt><trkpt lat="45.778111866718056" lon="11.124806972348043"><ele>779.0</ele><time>2026-03-28T13:10:32Z</time></trkpt><trkpt lat="45.77823565629583" lon="11.124921002865634"><ele>779.0</ele><time>2026-03-28T13:10:33Z</time></trkpt><trkpt lat="45.778368471133746" lon="11.125024217699256"><ele>779.0</ele><time>2026-03-28T13:10:34Z</time></trkpt><trkpt lat="45.778502548809534" lon="11.125118417386433"><ele>778.75</ele><time>2026-03-28T13:10:35Z</time></trkpt><trkpt lat="45.778640769867586" lon="11.125201938783656"><ele>778.5</ele><time>2026-03-28T13:10:36Z</time></trkpt><trkpt lat="45.7787796501425" lon="11.125278259924393"><ele>778.25</ele><time>2026-03-28T13:10:37Z</time></trkpt><trkpt lat="45.778915283370004" lon="11.125346342020764"><ele>778.0</ele><time>2026-03-28T13:10:38Z</time></trkpt><trkpt lat="45.77906081709907" lon="11.125395785825742"><ele>778.0</ele><time>2026-03-28T13:10:39Z</time></trkpt><trkpt lat="45.77920633523108" lon="11.125437578796078"><ele>778.0</ele><time>2026-03-28T13:10:40Z</time></trkpt><trkpt lat="45.77935170967513" lon="11.12546660577237"><ele>778.0</ele><time>2026-03-28T13:10:41Z</time></trkpt><trkpt lat="45.77950112837147" lon="11.125479331601897"><ele>778.0</ele><time>2026-03-28T13:10:42Z</time></trkpt><trkpt lat="45.77964743448519" lon="11.125489132171364"><ele>776.5</ele><time>2026-03-28T13:10:43Z</time></trkpt><trkpt lat="45.7797938321008" lon="11.125488583635416"><ele>775.0</ele><time>2026-03-28T13:10:44Z</time></trkpt><trkpt lat="45.779943131052896" lon="11.12546936475732"><ele>773.5</ele><time>2026-03-28T13:10:45Z</time></trkpt><trkpt lat="45.780089576548995" lon="11.125428601555912"><ele>772.0</ele><time>2026-03-28T13:10:46Z</time></trkpt><trkpt lat="45.780236271504776" lon="11.125371505822212"><ele>770.3333333333333</ele><time>2026-03-28T13:10:47Z</time></trkpt><trkpt lat="45.78037479445317" lon="11.125297384746773"><ele>768.6666666666666</ele><time>2026-03-28T13:10:48Z</time></trkpt><trkpt lat="45.78052083835579" lon="11.125234391968343"><ele>767.0</ele><time>2026-03-28T13:10:49Z</time></trkpt><trkpt lat="45.78065991325576" lon="11.125143709113662"><ele>767.0</ele><time>2026-03-28T13:10:50Z</time></trkpt><trkpt lat="45.780795878199356" lon="11.125054182294821"><ele>767.0</ele><time>2026-03-28T13:10:51Z</time></trkpt><trkpt lat="45.7809269336693" lon="11.124981934222102"><ele>767.0</ele><time>2026-03-28T13:10:52Z</time></trkpt><trkpt lat="45.78104016889932" lon="11.124928299301454"><ele>767.0</ele><time>2026-03-28T13:10:53Z</time></trkpt><trkpt lat="45.78113966691893" lon="11.124946931398783"><ele>763.8</ele><time>2026-03-28T13:10:54Z</time></trkpt><trkpt lat="45.78122214444024" lon="11.125026397770899"><ele>760.6</ele><time>2026-03-28T13:10:55Z</time></trkpt><trkpt lat="45.78125608594745" lon="11.125178913644854"><ele>757.4</ele><time>2026-03-28T13:10:56Z</time></trkpt><trkpt lat="45.781289177655374" lon="11.125304569161932"><ele>754.1999999999999</ele><time>2026-03-28T13:10:57Z</time></trkpt><trkpt lat="45.7813182427296" lon="11.12541969688732"><ele>751.0</ele><time>2026-03-28T13:10:58Z</time></trkpt><trkpt lat="45.78139177047107" lon="11.12548335469358"><ele>751.0</ele><time>2026-03-28T13:10:59Z</time></trkpt><trkpt lat="45.78147558681418" lon="11.1254852518033"><ele>751.0</ele><time>2026-03-28T13:11:00Z</time></trkpt><trkpt lat="45.78155117223165" lon="11.125442991802428"><ele>751.0</ele><time>2026-03-28T13:11:01Z</time></trkpt><trkpt lat="45.78160542944645" lon="11.125338628699884"><ele>751.0</ele><time>2026-03-28T13:11:02Z</time></trkpt><trkpt lat="45.78163413750772" lon="11.12521321376601"><ele>751.0</ele><time>2026-03-28T13:11:03Z</time></trkpt><trkpt lat="45.78161870036228" lon="11.125079025142556"><ele>751.0</ele><time>2026-03-28T13:11:04Z</time></trkpt><trkpt lat="45.78156795653255" lon="11.124955569524973"><ele>746.8</ele><time>2026-03-28T13:11:05Z</time></trkpt><trkpt lat="45.78149648584596" lon="11.124839074760093"><ele>742.5999999999999</ele><time>2026-03-28T13:11:06Z</time></trkpt><trkpt lat="45.78142556992243" lon="11.124722868693127"><ele>738.4</ele><time>2026-03-28T13:11:07Z</time></trkpt><trkpt lat="45.78136756256888" lon="11.124611196555934"><ele>734.2</ele><time>2026-03-28T13:11:08Z</time></trkpt><trkpt lat="45.78129932938643" lon="11.12455701804206"><ele>730.0</ele><time>2026-03-28T13:11:09Z</time></trkpt><trkpt lat="45.78123657890617" lon="11.124496936334467"><ele>730.0</ele><time>2026-03-28T13:11:10Z</time></trkpt><trkpt lat="45.781188393117176" lon="11.124358761327132"><ele>730.0</ele><time>2026-03-28T13:11:12Z</time></trkpt><trkpt lat="45.7812443986626" lon="11.124295148473072"><ele>730.0</ele><time>2026-03-28T13:11:13Z</time></trkpt><trkpt lat="45.78131747173423" lon="11.1242864843854"><ele>730.0</ele><time>2026-03-28T13:11:14Z</time></trkpt><trkpt lat="45.78140085698106" lon="11.124370806393662"><ele>730.0</ele><time>2026-03-28T13:11:15Z</time></trkpt><trkpt lat="45.78148161780597" lon="11.12447074348163"><ele>730.0</ele><time>2026-03-28T13:11:16Z</time></trkpt><trkpt lat="45.78156555796703" lon="11.124600900152016"><ele>730.0</ele><time>2026-03-28T13:11:17Z</time></trkpt><trkpt lat="45.78165064632573" lon="11.124771405405854"><ele>730.0</ele><time>2026-03-28T13:11:18Z</time></trkpt><trkpt lat="45.78172969026555" lon="11.12494986085809"><ele>730.0</ele><time>2026-03-28T13:11:19Z</time></trkpt><trkpt lat="45.78181464529734" lon="11.125137643641004"><ele>731.3333333333334</ele><time>2026-03-28T13:11:20Z</time></trkpt><trkpt lat="45.78190169763841" lon="11.125315685686568"><ele>732.6666666666666</ele><time>2026-03-28T13:11:21Z</time></trkpt><trkpt lat="45.78198712638188" lon="11.125496363871653"><ele>734.0</ele><time>2026-03-28T13:11:22Z</time></trkpt><trkpt lat="45.78206759571286" lon="11.125677451327164"><ele>736.0</ele><time>2026-03-28T13:11:23Z</time></trkpt><trkpt lat="45.78212885457657" lon="11.125838702864192"><ele>738.0</ele><time>2026-03-28T13:11:24Z</time></trkpt><trkpt lat="45.78219412783286" lon="11.125962010658888"><ele>740.0</ele><time>2026-03-28T13:11:25Z</time></trkpt><trkpt lat="45.78228730126342" lon="11.12604849135804"><ele>742.0</ele><time>2026-03-28T13:11:26Z</time></trkpt><trkpt lat="45.78240594995322" lon="11.126094501010973"><ele>742.0</ele><time>2026-03-28T13:11:27Z</time></trkpt><trkpt lat="45.782507123336096" lon="11.126122110859841"><ele>742.0</ele><time>2026-03-28T13:11:28Z</time></trkpt><trkpt lat="45.78260535689409" lon="11.126100387765659"><ele>742.0</ele><time>2026-03-28T13:11:29Z</time></trkpt><trkpt lat="45.78269977319373" lon="11.126060686366115"><ele>742.0</ele><time>2026-03-28T13:11:30Z</time></trkpt><trkpt lat="45.782764017045615" lon="11.125922951385945"><ele>742.0</ele><time>2026-03-28T13:11:31Z</time></trkpt><trkpt lat="45.78275831653224" lon="11.125732141041038"><ele>747.0</ele><time>2026-03-28T13:11:32Z</time></trkpt><trkpt lat="45.78277543174679" lon="11.12554841738965"><ele>752.0</ele><time>2026-03-28T13:11:33Z</time></trkpt><trkpt lat="45.78279953522486" lon="11.12533360237872"><ele>757.0</ele><time>2026-03-28T13:11:34Z</time></trkpt><trkpt lat="45.782813626518326" lon="11.1251094326212"><ele>762.0</ele><time>2026-03-28T13:11:35Z</time></trkpt><trkpt lat="45.78280896995644" lon="11.12487612015061"><ele>762.0</ele><time>2026-03-28T13:11:36Z</time></trkpt><trkpt lat="45.78279705820793" lon="11.124617738451573"><ele>762.0</ele><time>2026-03-28T13:11:37Z</time></trkpt><trkpt lat="45.782776399297255" lon="11.124341597478429"><ele>762.0</ele><time>2026-03-28T13:11:38Z</time></trkpt><trkpt lat="45.78274377435694" lon="11.124060673064955"><ele>751.3333333333334</ele><time>2026-03-28T13:11:39Z</time></trkpt><trkpt lat="45.782652110614684" lon="11.123804390502563"><ele>740.6666666666667</ele><time>2026-03-28T13:11:40Z</time></trkpt><trkpt lat="45.782587704825744" lon="11.123539596669293"><ele>730.0</ele><time>2026-03-28T13:11:41Z</time></trkpt><trkpt lat="45.78254972461606" lon="11.12328063513328"><ele>729.0</ele><time>2026-03-28T13:11:42Z</time></trkpt><trkpt lat="45.78251245887434" lon="11.123017570536392"><ele>728.0</ele><time>2026-03-28T13:11:43Z</time></trkpt><trkpt lat="45.78247774214558" lon="11.122762659574514"><ele>727.0</ele><time>2026-03-28T13:11:44Z</time></trkpt><trkpt lat="45.782442945269416" lon="11.122519492152762"><ele>726.6666666666667</ele><time>2026-03-28T13:11:45Z</time></trkpt><trkpt lat="45.782414429473526" lon="11.122299783382484"><ele>726.3333333333334</ele><time>2026-03-28T13:11:45.999Z</time></trkpt><trkpt lat="45.78239414547917" lon="11.1220838336679"><ele>726.0</ele><time>2026-03-28T13:11:46.999Z</time></trkpt><trkpt lat="45.78239730200394" lon="11.121872507104499"><ele>726.0</ele><time>2026-03-28T13:11:47.999Z</time></trkpt><trkpt lat="45.78242834297564" lon="11.121663379559442"><ele>726.0</ele><time>2026-03-28T13:11:48.999Z</time></trkpt><trkpt lat="45.78246266435509" lon="11.121486566767675"><ele>726.0</ele><time>2026-03-28T13:11:49.999Z</time></trkpt><trkpt lat="45.782497024274285" lon="11.121341846834293"><ele>726.0</ele><time>2026-03-28T13:11:50.999Z</time></trkpt><trkpt lat="45.78255367621829" lon="11.121215995291148"><ele>724.75</ele><time>2026-03-28T13:11:51.999Z</time></trkpt><trkpt lat="45.78262811826356" lon="11.121093990343095"><ele>723.5</ele><time>2026-03-28T13:11:52.999Z</time></trkpt><trkpt lat="45.782712536354936" lon="11.120975322087167"><ele>722.25</ele><time>2026-03-28T13:11:53.999Z</time></trkpt><trkpt lat="45.78279104343991" lon="11.12084289569633"><ele>721.0</ele><time>2026-03-28T13:11:54.999Z</time></trkpt><trkpt lat="45.78286176829456" lon="11.12071251226632"><ele>726.5</ele><time>2026-03-28T13:11:55.999Z</time></trkpt><trkpt lat="45.782906680595545" lon="11.120554774572584"><ele>732.0</ele><time>2026-03-28T13:11:56.999Z</time></trkpt><trkpt lat="45.782932605212984" lon="11.120380393701502"><ele>737.5</ele><time>2026-03-28T13:11:57.999Z</time></trkpt><trkpt lat="45.78293854766803" lon="11.120206625922496"><ele>743.0</ele><time>2026-03-28T13:11:58.999Z</time></trkpt><trkpt lat="45.78291236669027" lon="11.12002047498542"><ele>743.75</ele><time>2026-03-28T13:11:59.999Z</time></trkpt><trkpt lat="45.78287125371429" lon="11.119839776019083"><ele>744.5</ele><time>2026-03-28T13:12:00.999Z</time></trkpt><trkpt lat="45.782826534589205" lon="11.119656354667706"><ele>745.25</ele><time>2026-03-28T13:12:01.999Z</time></trkpt><trkpt lat="45.78279225937373" lon="11.11945415233355"><ele>746.0</ele><time>2026-03-28T13:12:02.999Z</time></trkpt><trkpt lat="45.782777885380604" lon="11.119237617312564"><ele>747.6666666666666</ele><time>2026-03-28T13:12:03.999Z</time></trkpt><trkpt lat="45.78276183202982" lon="11.119008519164193"><ele>749.3333333333334</ele><time>2026-03-28T13:12:04.999Z</time></trkpt><trkpt lat="45.78274594807383" lon="11.118779301405278"><ele>751.0</ele><time>2026-03-28T13:12:06Z</time></trkpt><trkpt lat="45.78272659584425" lon="11.118558515761526"><ele>751.0</ele><time>2026-03-28T13:12:07Z</time></trkpt><trkpt lat="45.782708013613934" lon="11.118337215549625"><ele>751.0</ele><time>2026-03-28T13:12:08Z</time></trkpt><trkpt lat="45.78269266160342" lon="11.118127109768462"><ele>751.0</ele><time>2026-03-28T13:12:09Z</time></trkpt><trkpt lat="45.78270286152883" lon="11.117935569459773"><ele>751.0</ele><time>2026-03-28T13:12:10Z</time></trkpt><trkpt lat="45.7827000623061" lon="11.117785554121195"><ele>746.1999999999999</ele><time>2026-03-28T13:12:11Z</time></trkpt><trkpt lat="45.782676595419936" lon="11.11765291392821"><ele>741.4</ele><time>2026-03-28T13:12:12Z</time></trkpt><trkpt lat="45.782678545808125" lon="11.11753249127527"><ele>736.6</ele><time>2026-03-28T13:12:13Z</time></trkpt><trkpt lat="45.78264382261313" lon="11.117400464632704"><ele>731.8</ele><time>2026-03-28T13:12:14Z</time></trkpt><trkpt lat="45.782599917888284" lon="11.117259925230268"><ele>727.0</ele><time>2026-03-28T13:12:15Z</time></trkpt><trkpt lat="45.782572425504064" lon="11.11710466334377"><ele>727.0</ele><time>2026-03-28T13:12:16Z</time></trkpt><trkpt lat="45.782504624174486" lon="11.116948512723527"><ele>727.0</ele><time>2026-03-28T13:12:17Z</time></trkpt><trkpt lat="45.78245256105133" lon="11.116828747472166"><ele>727.0</ele><time>2026-03-28T13:12:18Z</time></trkpt><trkpt lat="45.78240738577155" lon="11.116723671784468"><ele>727.0</ele><time>2026-03-28T13:12:19Z</time></trkpt><trkpt lat="45.782376153422206" lon="11.116623724847058"><ele>727.0</ele><time>2026-03-28T13:12:20Z</time></trkpt><trkpt lat="45.782377102265364" lon="11.116491113352396"><ele>725.75</ele><time>2026-03-28T13:12:21Z</time></trkpt><trkpt lat="45.78237161113475" lon="11.116328298300797"><ele>724.5</ele><time>2026-03-28T13:12:22Z</time></trkpt><trkpt lat="45.78238270669829" lon="11.116152596078688"><ele>723.25</ele><time>2026-03-28T13:12:23Z</time></trkpt><trkpt lat="45.78235760093422" lon="11.115960801218884"><ele>722.0</ele><time>2026-03-28T13:12:24Z</time></trkpt><trkpt lat="45.78234757546512" lon="11.115754561628053"><ele>720.0</ele><time>2026-03-28T13:12:25Z</time></trkpt><trkpt lat="45.78232802193064" lon="11.115556691336648"><ele>718.0</ele><time>2026-03-28T13:12:26Z</time></trkpt><trkpt lat="45.78230970203743" lon="11.115363373838326"><ele>716.0</ele><time>2026-03-28T13:12:27Z</time></trkpt><trkpt lat="45.78228241963717" lon="11.115195820816274"><ele>714.0</ele><time>2026-03-28T13:12:28Z</time></trkpt><trkpt lat="45.78227632383844" lon="11.115033484328897"><ele>710.75</ele><time>2026-03-28T13:12:29Z</time></trkpt><trkpt lat="45.78228992916798" lon="11.114875628613532"><ele>707.5</ele><time>2026-03-28T13:12:30Z</time></trkpt><trkpt lat="45.782351758078995" lon="11.114724887739998"><ele>704.25</ele><time>2026-03-28T13:12:31Z</time></trkpt><trkpt lat="45.782403506119074" lon="11.11456195164401"><ele>701.0</ele><time>2026-03-28T13:12:32Z</time></trkpt><trkpt lat="45.78248421990736" lon="11.114406483481108"><ele>701.0</ele><time>2026-03-28T13:12:33Z</time></trkpt><trkpt lat="45.78255339693791" lon="11.114238798126332"><ele>701.0</ele><time>2026-03-28T13:12:34Z</time></trkpt><trkpt lat="45.78263048956351" lon="11.114087837771544"><ele>701.0</ele><time>2026-03-28T13:12:35Z</time></trkpt><trkpt lat="45.782711834249966" lon="11.113941006417654"><ele>701.0</ele><time>2026-03-28T13:12:36Z</time></trkpt><trkpt lat="45.78279422186789" lon="11.113808462202519"><ele>698.75</ele><time>2026-03-28T13:12:37Z</time></trkpt><trkpt lat="45.78289641254992" lon="11.113708670354574"><ele>696.5</ele><time>2026-03-28T13:12:38Z</time></trkpt><trkpt lat="45.78301336229593" lon="11.113654832773838"><ele>694.25</ele><time>2026-03-28T13:12:39Z</time></trkpt><trkpt lat="45.783128478183" lon="11.113633503295762"><ele>692.0</ele><time>2026-03-28T13:12:40Z</time></trkpt><trkpt lat="45.78324264073468" lon="11.113686610853257"><ele>692.0</ele><time>2026-03-28T13:12:41Z</time></trkpt><trkpt lat="45.78334235607679" lon="11.11378425027666"><ele>692.0</ele><time>2026-03-28T13:12:42Z</time></trkpt><trkpt lat="45.783443393963225" lon="11.113884027531121"><ele>692.0</ele><time>2026-03-28T13:12:43Z</time></trkpt><trkpt lat="45.78355951815621" lon="11.113939662816913"><ele>692.0</ele><time>2026-03-28T13:12:44Z</time></trkpt><trkpt lat="45.78367805613408" lon="11.113955138760964"><ele>691.5</ele><time>2026-03-28T13:12:45Z</time></trkpt><trkpt lat="45.783795603871454" lon="11.113913320266242"><ele>691.0</ele><time>2026-03-28T13:12:46Z</time></trkpt><trkpt lat="45.783909014912254" lon="11.113834337918048"><ele>690.5</ele><time>2026-03-28T13:12:47Z</time></trkpt><trkpt lat="45.78401771553061" lon="11.113701070290247"><ele>690.0</ele><time>2026-03-28T13:12:48Z</time></trkpt><trkpt lat="45.784144646179826" lon="11.113569268351023"><ele>690.0</ele><time>2026-03-28T13:12:49Z</time></trkpt><trkpt lat="45.78428182466873" lon="11.113452423261933"><ele>690.0</ele><time>2026-03-28T13:12:50Z</time></trkpt><trkpt lat="45.78441772246334" lon="11.11331009646949"><ele>690.0</ele><time>2026-03-28T13:12:51Z</time></trkpt><trkpt lat="45.78454782547765" lon="11.113152495611288"><ele>692.0</ele><time>2026-03-28T13:12:52Z</time></trkpt><trkpt lat="45.78467624768054" lon="11.11298228174365"><ele>694.0</ele><time>2026-03-28T13:12:53Z</time></trkpt><trkpt lat="45.78479472517401" lon="11.112814246943326"><ele>696.0</ele><time>2026-03-28T13:12:54Z</time></trkpt><trkpt lat="45.78490044992797" lon="11.11263254095723"><ele>696.0</ele><time>2026-03-28T13:12:55Z</time></trkpt><trkpt lat="45.78500289723768" lon="11.112435038846428"><ele>696.0</ele><time>2026-03-28T13:12:56Z</time></trkpt><trkpt lat="45.78504242168914" lon="11.112185185014615"><ele>696.0</ele><time>2026-03-28T13:12:57Z</time></trkpt><trkpt lat="45.78510114132122" lon="11.111931598983224"><ele>693.3333333333334</ele><time>2026-03-28T13:12:58Z</time></trkpt><trkpt lat="45.785130464467606" lon="11.111656249826224"><ele>690.6666666666667</ele><time>2026-03-28T13:12:59Z</time></trkpt><trkpt lat="45.785140972763834" lon="11.111399792169776"><ele>688.0</ele><time>2026-03-28T13:13:00Z</time></trkpt><trkpt lat="45.785157579068404" lon="11.111155158503554"><ele>689.6666666666667</ele><time>2026-03-28T13:13:01Z</time></trkpt><trkpt lat="45.785205541310475" lon="11.1109212743107"><ele>691.3333333333334</ele><time>2026-03-28T13:13:02Z</time></trkpt><trkpt lat="45.785254687845544" lon="11.110688321646457"><ele>693.0</ele><time>2026-03-28T13:13:03Z</time></trkpt><trkpt lat="45.78529920274877" lon="11.110463462509959"><ele>693.0</ele><time>2026-03-28T13:13:04Z</time></trkpt><trkpt lat="45.785349417933936" lon="11.110253443888098"><ele>693.0</ele><time>2026-03-28T13:13:05Z</time></trkpt><trkpt lat="45.78542459375373" lon="11.110072655233333"><ele>693.0</ele><time>2026-03-28T13:13:06Z</time></trkpt><trkpt lat="45.78549931039208" lon="11.109896552478656"><ele>693.0</ele><time>2026-03-28T13:13:07Z</time></trkpt><trkpt lat="45.78559651923387" lon="11.10977350930026"><ele>690.75</ele><time>2026-03-28T13:13:08Z</time></trkpt><trkpt lat="45.78568112641615" lon="11.109647614680897"><ele>688.5</ele><time>2026-03-28T13:13:09Z</time></trkpt><trkpt lat="45.78581001388922" lon="11.109599602965039"><ele>686.25</ele><time>2026-03-28T13:13:10Z</time></trkpt><trkpt lat="45.78593610763837" lon="11.10950119385178"><ele>684.0</ele><time>2026-03-28T13:13:11Z</time></trkpt><trkpt lat="45.786072145779784" lon="11.109413276803814"><ele>684.0</ele><time>2026-03-28T13:13:12Z</time></trkpt><trkpt lat="45.78620925551929" lon="11.109329940520638"><ele>684.0</ele><time>2026-03-28T13:13:13Z</time></trkpt><trkpt lat="45.7863351333577" lon="11.109231045621911"><ele>684.0</ele><time>2026-03-28T13:13:14Z</time></trkpt><trkpt lat="45.78646416476413" lon="11.109138303031735"><ele>684.0</ele><time>2026-03-28T13:13:15Z</time></trkpt><trkpt lat="45.78659741398296" lon="11.10908610341746"><ele>679.5</ele><time>2026-03-28T13:13:16Z</time></trkpt><trkpt lat="45.78672953832406" lon="11.109042810072916"><ele>675.0</ele><time>2026-03-28T13:13:17Z</time></trkpt><trkpt lat="45.786852760973" lon="11.109017371416316"><ele>670.5</ele><time>2026-03-28T13:13:18Z</time></trkpt><trkpt lat="45.786967253595705" lon="11.109025880939178"><ele>666.0</ele><time>2026-03-28T13:13:19Z</time></trkpt><trkpt lat="45.78707582783818" lon="11.109097772215218"><ele>666.0</ele><time>2026-03-28T13:13:20Z</time></trkpt><trkpt lat="45.787183872480966" lon="11.10920131510028"><ele>666.0</ele><time>2026-03-28T13:13:21Z</time></trkpt><trkpt lat="45.787284074911156" lon="11.109321891983488"><ele>666.0</ele><time>2026-03-28T13:13:22Z</time></trkpt><trkpt lat="45.78737109207266" lon="11.10947775410968"><ele>666.0</ele><time>2026-03-28T13:13:23Z</time></trkpt><trkpt lat="45.78742696460422" lon="11.109691288058375"><ele>662.0</ele><time>2026-03-28T13:13:24Z</time></trkpt><trkpt lat="45.78750618679308" lon="11.109910793066646"><ele>658.0</ele><time>2026-03-28T13:13:25Z</time></trkpt><trkpt lat="45.78760634143898" lon="11.110130455915488"><ele>654.0</ele><time>2026-03-28T13:13:26Z</time></trkpt><trkpt lat="45.78769184617993" lon="11.110362340835819"><ele>654.0</ele><time>2026-03-28T13:13:27Z</time></trkpt><trkpt lat="45.78778184969512" lon="11.110576352155995"><ele>654.0</ele><time>2026-03-28T13:13:28Z</time></trkpt><trkpt lat="45.78789166862349" lon="11.110762197905864"><ele>654.0</ele><time>2026-03-28T13:13:29Z</time></trkpt><trkpt lat="45.788021430760516" lon="11.110926672975506"><ele>658.3333333333334</ele><time>2026-03-28T13:13:30Z</time></trkpt><trkpt lat="45.78817161458564" lon="11.111079081493532"><ele>662.6666666666667</ele><time>2026-03-28T13:13:31Z</time></trkpt><trkpt lat="45.78833117328432" lon="11.11123625157292"><ele>667.0</ele><time>2026-03-28T13:13:32Z</time></trkpt><trkpt lat="45.78849276370752" lon="11.111397239879174"><ele>667.6666666666667</ele><time>2026-03-28T13:13:33Z</time></trkpt><trkpt lat="45.78865239238896" lon="11.11154773969137"><ele>668.3333333333334</ele><time>2026-03-28T13:13:34Z</time></trkpt><trkpt lat="45.78880782875746" lon="11.11168516552364"><ele>669.0</ele><time>2026-03-28T13:13:35Z</time></trkpt><trkpt lat="45.78895147671905" lon="11.111791459513825"><ele>669.0</ele><time>2026-03-28T13:13:36Z</time></trkpt><trkpt lat="45.789097844038764" lon="11.111852546681735"><ele>669.0</ele><time>2026-03-28T13:13:37Z</time></trkpt><trkpt lat="45.78924770845087" lon="11.11188148917448"><ele>669.0</ele><time>2026-03-28T13:13:38Z</time></trkpt><trkpt lat="45.7893947730844" lon="11.111890627351833"><ele>668.75</ele><time>2026-03-28T13:13:39Z</time></trkpt><trkpt lat="45.78953592675986" lon="11.111899225170895"><ele>668.5</ele><time>2026-03-28T13:13:40Z</time></trkpt><trkpt lat="45.78967803579141" lon="11.111910725209913"><ele>668.25</ele><time>2026-03-28T13:13:41Z</time></trkpt><trkpt lat="45.78981579135885" lon="11.11194846798185"><ele>668.0</ele><time>2026-03-28T13:13:42Z</time></trkpt><trkpt lat="45.78994318712837" lon="11.112016169293586"><ele>668.0</ele><time>2026-03-28T13:13:43Z</time></trkpt><trkpt lat="45.790055082941265" lon="11.11208778148446"><ele>668.0</ele><time>2026-03-28T13:13:44Z</time></trkpt><trkpt lat="45.790164071198134" lon="11.112139149676569"><ele>668.0</ele><time>2026-03-28T13:13:45Z</time></trkpt><trkpt lat="45.790252565893006" lon="11.112202371124958"><ele>668.0</ele><time>2026-03-28T13:13:46Z</time></trkpt><trkpt lat="45.790334605616174" lon="11.112298827115183"><ele>668.0</ele><time>2026-03-28T13:13:47Z</time></trkpt><trkpt lat="45.79039997275656" lon="11.112443710926579"><ele>664.0</ele><time>2026-03-28T13:13:48Z</time></trkpt><trkpt lat="45.79045048193563" lon="11.11261188418998"><ele>660.0</ele><time>2026-03-28T13:13:49Z</time></trkpt><trkpt lat="45.79050667286373" lon="11.112797629562458"><ele>656.0</ele><time>2026-03-28T13:13:50Z</time></trkpt><trkpt lat="45.790574951545295" lon="11.112996065204914"><ele>652.0</ele><time>2026-03-28T13:13:51Z</time></trkpt><trkpt lat="45.790655889448765" lon="11.113206565047259"><ele>655.0</ele><time>2026-03-28T13:13:52Z</time></trkpt><trkpt lat="45.790732552159355" lon="11.113414221900397"><ele>658.0</ele><time>2026-03-28T13:13:53Z</time></trkpt><trkpt lat="45.79081561283439" lon="11.113609819004388"><ele>661.0</ele><time>2026-03-28T13:13:54Z</time></trkpt><trkpt lat="45.79091404441457" lon="11.113795938103198"><ele>656.6666666666667</ele><time>2026-03-28T13:13:55Z</time></trkpt><trkpt lat="45.79101576244824" lon="11.11399897033628"><ele>652.3333333333334</ele><time>2026-03-28T13:13:56Z</time></trkpt><trkpt lat="45.791145694246445" lon="11.114188446807338"><ele>648.0</ele><time>2026-03-28T13:13:57Z</time></trkpt><trkpt lat="45.79129517541608" lon="11.11437171566869"><ele>648.0</ele><time>2026-03-28T13:13:58Z</time></trkpt><trkpt lat="45.79144308261722" lon="11.114514178470959"><ele>648.0</ele><time>2026-03-28T13:13:59Z</time></trkpt><trkpt lat="45.7915717604959" lon="11.114672342993282"><ele>648.0</ele><time>2026-03-28T13:13:59.999Z</time></trkpt><trkpt lat="45.79168722507612" lon="11.11483761515628"><ele>650.5</ele><time>2026-03-28T13:14:00.999Z</time></trkpt><trkpt lat="45.79177974234827" lon="11.115020736022196"><ele>653.0</ele><time>2026-03-28T13:14:01.999Z</time></trkpt><trkpt lat="45.791851433594125" lon="11.11521341263589"><ele>655.5</ele><time>2026-03-28T13:14:02.999Z</time></trkpt><trkpt lat="45.79190357642947" lon="11.115380672471154"><ele>658.0</ele><time>2026-03-28T13:14:03.999Z</time></trkpt><trkpt lat="45.791949625011235" lon="11.115513610393862"><ele>658.2</ele><time>2026-03-28T13:14:04.999Z</time></trkpt><trkpt lat="45.7920247837452" lon="11.115605760588814"><ele>658.4</ele><time>2026-03-28T13:14:05.999Z</time></trkpt><trkpt lat="45.792118413956025" lon="11.115640084743045"><ele>658.6</ele><time>2026-03-28T13:14:06.999Z</time></trkpt><trkpt lat="45.792228040021605" lon="11.115628254635572"><ele>658.8000000000001</ele><time>2026-03-28T13:14:07.999Z</time></trkpt><trkpt lat="45.79234177415735" lon="11.115603361958993"><ele>659.0</ele><time>2026-03-28T13:14:08.999Z</time></trkpt><trkpt lat="45.79245795930609" lon="11.115575516323352"><ele>659.0</ele><time>2026-03-28T13:14:09.999Z</time></trkpt><trkpt lat="45.792567210191805" lon="11.115517069911624"><ele>659.0</ele><time>2026-03-28T13:14:10.999Z</time></trkpt><trkpt lat="45.79266665997761" lon="11.115416187061543"><ele>659.0</ele><time>2026-03-28T13:14:12Z</time></trkpt><trkpt lat="45.79273867173486" lon="11.115281840965187"><ele>659.0</ele><time>2026-03-28T13:14:13Z</time></trkpt><trkpt lat="45.792787630006835" lon="11.115137845249505"><ele>667.0</ele><time>2026-03-28T13:14:14Z</time></trkpt><trkpt lat="45.792801118291074" lon="11.114976617085725"><ele>675.0</ele><time>2026-03-28T13:14:15Z</time></trkpt><trkpt lat="45.7927986527158" lon="11.114789022249926"><ele>683.0</ele><time>2026-03-28T13:14:16Z</time></trkpt><trkpt lat="45.79278413156892" lon="11.114567089898163"><ele>691.0</ele><time>2026-03-28T13:14:17Z</time></trkpt><trkpt lat="45.79276198368844" lon="11.114328698137275"><ele>691.0</ele><time>2026-03-28T13:14:18Z</time></trkpt><trkpt lat="45.792740346581304" lon="11.114089048546399"><ele>691.0</ele><time>2026-03-28T13:14:19Z</time></trkpt><trkpt lat="45.792715108942105" lon="11.113823889280328"><ele>691.0</ele><time>2026-03-28T13:14:20Z</time></trkpt><trkpt lat="45.79268819388609" lon="11.113539828745434"><ele>680.0</ele><time>2026-03-28T13:14:21Z</time></trkpt><trkpt lat="45.792659592888114" lon="11.113248245556829"><ele>669.0</ele><time>2026-03-28T13:14:22Z</time></trkpt><trkpt lat="45.79263447547417" lon="11.112971985019653"><ele>658.0</ele><time>2026-03-28T13:14:23Z</time></trkpt><trkpt lat="45.79259727715888" lon="11.112690965038952"><ele>657.6666666666667</ele><time>2026-03-28T13:14:24Z</time></trkpt><trkpt lat="45.792539379307094" lon="11.112405397057367"><ele>657.3333333333334</ele><time>2026-03-28T13:14:25Z</time></trkpt><trkpt lat="45.79247336980833" lon="11.112129405134956"><ele>657.0</ele><time>2026-03-28T13:14:26Z</time></trkpt><trkpt lat="45.79244201516635" lon="11.111858895261177"><ele>657.0</ele><time>2026-03-28T13:14:27Z</time></trkpt><trkpt lat="45.792394115739576" lon="11.111620860109698"><ele>657.0</ele><time>2026-03-28T13:14:28Z</time></trkpt><trkpt lat="45.792342108140986" lon="11.1113939173548"><ele>657.0</ele><time>2026-03-28T13:14:29Z</time></trkpt><trkpt lat="45.79228368362309" lon="11.111187033903489"><ele>656.75</ele><time>2026-03-28T13:14:30Z</time></trkpt><trkpt lat="45.79224733125687" lon="11.110981073381584"><ele>656.5</ele><time>2026-03-28T13:14:31Z</time></trkpt><trkpt lat="45.792211628396984" lon="11.110785031719603"><ele>656.25</ele><time>2026-03-28T13:14:32Z</time></trkpt><trkpt lat="45.792178321787354" lon="11.11059112737634"><ele>656.0</ele><time>2026-03-28T13:14:33Z</time></trkpt><trkpt lat="45.792154253137674" lon="11.110393920972657"><ele>654.5</ele><time>2026-03-28T13:14:34Z</time></trkpt><trkpt lat="45.79213717685224" lon="11.110200219997006"><ele>653.0</ele><time>2026-03-28T13:14:35Z</time></trkpt><trkpt lat="45.79212314633428" lon="11.110003483563686"><ele>651.5</ele><time>2026-03-28T13:14:36Z</time></trkpt><trkpt lat="45.79211998888951" lon="11.109810744359361"><ele>650.0</ele><time>2026-03-28T13:14:37Z</time></trkpt><trkpt lat="45.79212465821237" lon="11.109624517626212"><ele>648.75</ele><time>2026-03-28T13:14:38Z</time></trkpt><trkpt lat="45.792136880447366" lon="11.109440281708064"><ele>647.5</ele><time>2026-03-28T13:14:39Z</time></trkpt><trkpt lat="45.792151947373455" lon="11.109262604950937"><ele>646.25</ele><time>2026-03-28T13:14:40Z</time></trkpt><trkpt lat="45.792170461989436" lon="11.109084069538946"><ele>645.0</ele><time>2026-03-28T13:14:41Z</time></trkpt><trkpt lat="45.79221281234778" lon="11.108923698966674"><ele>644.5</ele><time>2026-03-28T13:14:42Z</time></trkpt><trkpt lat="45.79228546688821" lon="11.108793141978332"><ele>644.0</ele><time>2026-03-28T13:14:43Z</time></trkpt><trkpt lat="45.79237587227457" lon="11.10868042439006"><ele>643.5</ele><time>2026-03-28T13:14:44Z</time></trkpt><trkpt lat="45.792482219848104" lon="11.108570486226611"><ele>643.0</ele><time>2026-03-28T13:14:45Z</time></trkpt><trkpt lat="45.79259754966678" lon="11.108447276267862"><ele>642.3333333333334</ele><time>2026-03-28T13:14:46Z</time></trkpt><trkpt lat="45.79272853816797" lon="11.108323424205246"><ele>641.6666666666666</ele><time>2026-03-28T13:14:47Z</time></trkpt><trkpt lat="45.79286719573845" lon="11.108192811894055"><ele>641.0</ele><time>2026-03-28T13:14:48Z</time></trkpt><trkpt lat="45.79301909478712" lon="11.108070073019672"><ele>641.0</ele><time>2026-03-28T13:14:49Z</time></trkpt><trkpt lat="45.79316772924842" lon="11.107964204948974"><ele>641.0</ele><time>2026-03-28T13:14:50Z</time></trkpt><trkpt lat="45.793303666043805" lon="11.107885130665261"><ele>641.0</ele><time>2026-03-28T13:14:51Z</time></trkpt><trkpt lat="45.793430154162" lon="11.107820079273125"><ele>641.0</ele><time>2026-03-28T13:14:52Z</time></trkpt><trkpt lat="45.79355241626635" lon="11.107752091013799"><ele>640.5</ele><time>2026-03-28T13:14:53Z</time></trkpt><trkpt lat="45.79367353636088" lon="11.107687170253188"><ele>640.0</ele><time>2026-03-28T13:14:54Z</time></trkpt><trkpt lat="45.79379308999606" lon="11.107616781066778"><ele>639.5</ele><time>2026-03-28T13:14:55Z</time></trkpt><trkpt lat="45.79392000414109" lon="11.107548941846845"><ele>639.0</ele><time>2026-03-28T13:14:56Z</time></trkpt><trkpt lat="45.794055547900044" lon="11.107478350965492"><ele>636.3333333333334</ele><time>2026-03-28T13:14:57Z</time></trkpt><trkpt lat="45.79420137481717" lon="11.107408261205379"><ele>633.6666666666667</ele><time>2026-03-28T13:14:58Z</time></trkpt><trkpt lat="45.79435429973066" lon="11.10733156813375"><ele>631.0</ele><time>2026-03-28T13:14:59Z</time></trkpt><trkpt lat="45.79450917815132" lon="11.107251619859618"><ele>630.0</ele><time>2026-03-28T13:15:00Z</time></trkpt><trkpt lat="45.79467057157594" lon="11.10716645896305"><ele>629.0</ele><time>2026-03-28T13:15:01Z</time></trkpt><trkpt lat="45.7948361214672" lon="11.107078700831837"><ele>628.0</ele><time>2026-03-28T13:15:02Z</time></trkpt><trkpt lat="45.79497490480667" lon="11.107008701793246"><ele>628.0</ele><time>2026-03-28T13:15:03Z</time></trkpt><trkpt lat="45.79508498663162" lon="11.106950937974547"><ele>628.0</ele><time>2026-03-28T13:15:04Z</time></trkpt><trkpt lat="45.79517884629037" lon="11.106901042090461"><ele>628.0</ele><time>2026-03-28T13:15:05Z</time></trkpt><trkpt lat="45.79523952011028" lon="11.106858122297918"><ele>628.0</ele><time>2026-03-28T13:15:06Z</time></trkpt><trkpt lat="45.79530299824276" lon="11.106827169726555"><ele>628.0</ele><time>2026-03-28T13:15:08Z</time></trkpt><trkpt lat="45.79526004040829" lon="11.106647901471659"><ele>627.1999999999999</ele><time>2026-03-28T13:15:09Z</time></trkpt><trkpt lat="45.795213702833436" lon="11.106554188288847"><ele>626.4</ele><time>2026-03-28T13:15:10Z</time></trkpt><trkpt lat="45.79516855057956" lon="11.10645047267523"><ele>625.5999999999999</ele><time>2026-03-28T13:15:11Z</time></trkpt><trkpt lat="45.79509392710777" lon="11.10634794884972"><ele>624.8</ele><time>2026-03-28T13:15:12Z</time></trkpt><trkpt lat="45.79499130509919" lon="11.106263731739773"><ele>624.0</ele><time>2026-03-28T13:15:13Z</time></trkpt><trkpt lat="45.79487586211344" lon="11.106160386764012"><ele>623.25</ele><time>2026-03-28T13:15:14Z</time></trkpt><trkpt lat="45.79475745323234" lon="11.106078764559081"><ele>622.5</ele><time>2026-03-28T13:15:15Z</time></trkpt><trkpt lat="45.794640063596866" lon="11.105996611651516"><ele>621.75</ele><time>2026-03-28T13:15:16Z</time></trkpt><trkpt lat="45.79452981087517" lon="11.105907379028256"><ele>621.0</ele><time>2026-03-28T13:15:17Z</time></trkpt><trkpt lat="45.794456469424915" lon="11.105813076801455"><ele>617.8</ele><time>2026-03-28T13:15:18Z</time></trkpt><trkpt lat="45.79443105069795" lon="11.10569344666123"><ele>614.6</ele><time>2026-03-28T13:15:19Z</time></trkpt><trkpt lat="45.794413101100766" lon="11.105566356888206"><ele>611.4</ele><time>2026-03-28T13:15:20Z</time></trkpt><trkpt lat="45.794455998298154" lon="11.10543757753964"><ele>608.2</ele><time>2026-03-28T13:15:21Z</time></trkpt><trkpt lat="45.794535499032015" lon="11.10533448255966"><ele>605.0</ele><time>2026-03-28T13:15:22Z</time></trkpt><trkpt lat="45.794641532444594" lon="11.10528323259973"><ele>605.0</ele><time>2026-03-28T13:15:23Z</time></trkpt><trkpt lat="45.794768138368376" lon="11.105286275801907"><ele>605.0</ele><time>2026-03-28T13:15:24Z</time></trkpt><trkpt lat="45.794910072931444" lon="11.10531587570268"><ele>605.0</ele><time>2026-03-28T13:15:25Z</time></trkpt><trkpt lat="45.795062014290984" lon="11.105318937452335"><ele>605.0</ele><time>2026-03-28T13:15:26Z</time></trkpt><trkpt lat="45.795222980909976" lon="11.105292178293329"><ele>606.0</ele><time>2026-03-28T13:15:27Z</time></trkpt><trkpt lat="45.795370600976504" lon="11.105266843389018"><ele>607.0</ele><time>2026-03-28T13:15:28Z</time></trkpt><trkpt lat="45.795517080000764" lon="11.105265505831628"><ele>608.0</ele><time>2026-03-28T13:15:29Z</time></trkpt><trkpt lat="45.79564240060669" lon="11.105266965243013"><ele>609.0</ele><time>2026-03-28T13:15:30Z</time></trkpt><trkpt lat="45.79574478109628" lon="11.105273152511002"><ele>609.0</ele><time>2026-03-28T13:15:31Z</time></trkpt><trkpt lat="45.79582345317363" lon="11.105259400274116"><ele>609.0</ele><time>2026-03-28T13:15:32Z</time></trkpt><trkpt lat="45.79587899866836" lon="11.105208883472544"><ele>609.0</ele><time>2026-03-28T13:15:33Z</time></trkpt><trkpt lat="45.79590775288601" lon="11.105121009478212"><ele>609.0</ele><time>2026-03-28T13:15:34Z</time></trkpt><trkpt lat="45.7959053429786" lon="11.10501948764335"><ele>609.0</ele><time>2026-03-28T13:15:35Z</time></trkpt><trkpt lat="45.79574297482456" lon="11.10488792188297"><ele>609.0</ele><time>2026-03-28T13:15:37Z</time></trkpt><trkpt lat="45.795628301936965" lon="11.104930280911333"><ele>609.0</ele><time>2026-03-28T13:15:38Z</time></trkpt><trkpt lat="45.79550470471648" lon="11.104966140173666"><ele>609.0</ele><time>2026-03-28T13:15:39Z</time></trkpt><trkpt lat="45.79537402619571" lon="11.104998784559363"><ele>609.0</ele><time>2026-03-28T13:15:40Z</time></trkpt><trkpt lat="45.79522412266313" lon="11.105008900965593"><ele>607.6666666666666</ele><time>2026-03-28T13:15:41Z</time></trkpt><trkpt lat="45.79506729176786" lon="11.104996054946032"><ele>606.3333333333333</ele><time>2026-03-28T13:15:42Z</time></trkpt><trkpt lat="45.79490380515495" lon="11.104951249486374"><ele>605.0</ele><time>2026-03-28T13:15:43Z</time></trkpt><trkpt lat="45.7947529862543" lon="11.104886413552796"><ele>598.3333333333333</ele><time>2026-03-28T13:15:44Z</time></trkpt><trkpt lat="45.79460567099452" lon="11.1048108657924"><ele>591.6666666666666</ele><time>2026-03-28T13:15:45Z</time></trkpt><trkpt lat="45.79445675619443" lon="11.104735102212896"><ele>585.0</ele><time>2026-03-28T13:15:46Z</time></trkpt><trkpt lat="45.794312981345946" lon="11.104649627546692"><ele>584.3333333333334</ele><time>2026-03-28T13:15:47Z</time></trkpt><trkpt lat="45.79417224644684" lon="11.104559082883007"><ele>583.6666666666667</ele><time>2026-03-28T13:15:48Z</time></trkpt><trkpt lat="45.79403213526334" lon="11.10447699302355"><ele>583.0</ele><time>2026-03-28T13:15:49Z</time></trkpt><trkpt lat="45.79389219344021" lon="11.104428539337919"><ele>583.0</ele><time>2026-03-28T13:15:50Z</time></trkpt><trkpt lat="45.793751014293385" lon="11.104406456832294"><ele>583.0</ele><time>2026-03-28T13:15:51Z</time></trkpt><trkpt lat="45.79360649330069" lon="11.10439230762084"><ele>583.0</ele><time>2026-03-28T13:15:52Z</time></trkpt><trkpt lat="45.79346034503661" lon="11.104387201217254"><ele>583.0</ele><time>2026-03-28T13:15:53Z</time></trkpt><trkpt lat="45.793317822574195" lon="11.1043505671708"><ele>584.0</ele><time>2026-03-28T13:15:54Z</time></trkpt><trkpt lat="45.793174719059884" lon="11.10430770208695"><ele>585.0</ele><time>2026-03-28T13:15:55Z</time></trkpt><trkpt lat="45.79305680599566" lon="11.104188718876001"><ele>586.0</ele><time>2026-03-28T13:15:56Z</time></trkpt><trkpt lat="45.792943304547286" lon="11.104066339101987"><ele>587.0</ele><time>2026-03-28T13:15:56.999Z</time></trkpt><trkpt lat="45.792828581664196" lon="11.103940055533812"><ele>581.25</ele><time>2026-03-28T13:15:57.999Z</time></trkpt><trkpt lat="45.79270720152363" lon="11.103826229892167"><ele>575.5</ele><time>2026-03-28T13:15:58.999Z</time></trkpt><trkpt lat="45.792573705086234" lon="11.103741169738152"><ele>569.75</ele><time>2026-03-28T13:15:59.999Z</time></trkpt><trkpt lat="45.79244087291668" lon="11.103652214992115"><ele>564.0</ele><time>2026-03-28T13:16:00.999Z</time></trkpt><trkpt lat="45.79230926067502" lon="11.103562072905207"><ele>564.0</ele><time>2026-03-28T13:16:01.999Z</time></trkpt><trkpt lat="45.79217841871881" lon="11.103473686560646"><ele>564.0</ele><time>2026-03-28T13:16:02.999Z</time></trkpt><trkpt lat="45.792047576357575" lon="11.103387539498565"><ele>564.0</ele><time>2026-03-28T13:16:03.999Z</time></trkpt><trkpt lat="45.79192944403275" lon="11.103336218462516"><ele>564.0</ele><time>2026-03-28T13:16:04.999Z</time></trkpt><trkpt lat="45.79180013415415" lon="11.103322040826216"><ele>564.6666666666666</ele><time>2026-03-28T13:16:05.999Z</time></trkpt><trkpt lat="45.791663581469294" lon="11.103350272181368"><ele>565.3333333333333</ele><time>2026-03-28T13:16:06.999Z</time></trkpt><trkpt lat="45.791530666233854" lon="11.103451335749291"><ele>566.0</ele><time>2026-03-28T13:16:07.999Z</time></trkpt><trkpt lat="45.791378649849065" lon="11.103556448747755"><ele>566.0</ele><time>2026-03-28T13:16:08.999Z</time></trkpt><trkpt lat="45.79125676755646" lon="11.10362683582399"><ele>566.0</ele><time>2026-03-28T13:16:09.999Z</time></trkpt><trkpt lat="45.79114952199755" lon="11.103684771362154"><ele>566.0</ele><time>2026-03-28T13:16:10.999Z</time></trkpt><trkpt lat="45.79106062152052" lon="11.103762656966426"><ele>566.0</ele><time>2026-03-28T13:16:11.999Z</time></trkpt><trkpt lat="45.79098719966913" lon="11.103828406611349"><ele>566.0</ele><time>2026-03-28T13:16:12.999Z</time></trkpt><trkpt lat="45.79093154313633" lon="11.103900221745006"><ele>563.2</ele><time>2026-03-28T13:16:13.999Z</time></trkpt><trkpt lat="45.790862456610554" lon="11.103935316838946"><ele>560.4000000000001</ele><time>2026-03-28T13:16:14.999Z</time></trkpt><trkpt lat="45.790774446493955" lon="11.103820589831749"><ele>557.6</ele><time>2026-03-28T13:16:16.999Z</time></trkpt><trkpt lat="45.790794604874" lon="11.103718980932301"><ele>554.8000000000001</ele><time>2026-03-28T13:16:18Z</time></trkpt><trkpt lat="45.79088009971261" lon="11.103660906565947"><ele>552.0</ele><time>2026-03-28T13:16:19Z</time></trkpt><trkpt lat="45.790969365909724" lon="11.103565698040446"><ele>550.75</ele><time>2026-03-28T13:16:20Z</time></trkpt><trkpt lat="45.79109156003403" lon="11.103480070029654"><ele>549.5</ele><time>2026-03-28T13:16:21Z</time></trkpt><trkpt lat="45.791223078639916" lon="11.10337997149361"><ele>548.25</ele><time>2026-03-28T13:16:22Z</time></trkpt><trkpt lat="45.79134173120936" lon="11.103282913211455"><ele>547.0</ele><time>2026-03-28T13:16:23Z</time></trkpt><trkpt lat="45.791450162096" lon="11.103196119731432"><ele>547.0</ele><time>2026-03-28T13:16:24Z</time></trkpt><trkpt lat="45.79153825277072" lon="11.1031234649822"><ele>547.0</ele><time>2026-03-28T13:16:25Z</time></trkpt><trkpt lat="45.79160123202189" lon="11.10305169074727"><ele>547.0</ele><time>2026-03-28T13:16:26Z</time></trkpt><trkpt lat="45.791627362475296" lon="11.102953443560251"><ele>547.0</ele><time>2026-03-28T13:16:27Z</time></trkpt><trkpt lat="45.79163714311924" lon="11.102846681572792"><ele>547.0</ele><time>2026-03-28T13:16:28Z</time></trkpt><trkpt lat="45.791556546527175" lon="11.102766336848369"><ele>547.0</ele><time>2026-03-28T13:16:29Z</time></trkpt><trkpt lat="45.79147310029949" lon="11.102748642657637"><ele>547.0</ele><time>2026-03-28T13:16:30Z</time></trkpt><trkpt lat="45.791376307552035" lon="11.102796786499415"><ele>547.0</ele><time>2026-03-28T13:16:31Z</time></trkpt><trkpt lat="45.79125521588972" lon="11.102836508337402"><ele>547.0</ele><time>2026-03-28T13:16:32Z</time></trkpt><trkpt lat="45.791116726919434" lon="11.102895508855276"><ele>547.0</ele><time>2026-03-28T13:16:33Z</time></trkpt><trkpt lat="45.791000646853455" lon="11.102940450448527"><ele>546.0</ele><time>2026-03-28T13:16:34Z</time></trkpt><trkpt lat="45.79090324160094" lon="11.1029650885987"><ele>545.0</ele><time>2026-03-28T13:16:35Z</time></trkpt><trkpt lat="45.790815957925155" lon="11.10293806562929"><ele>544.0</ele><time>2026-03-28T13:16:36Z</time></trkpt><trkpt lat="45.79076907927251" lon="11.10283607907856"><ele>543.0</ele><time>2026-03-28T13:16:37Z</time></trkpt><trkpt lat="45.79080749839172" lon="11.102721895161212"><ele>542.0</ele><time>2026-03-28T13:16:38Z</time></trkpt><trkpt lat="45.79083832760351" lon="11.102588775106822"><ele>542.0</ele><time>2026-03-28T13:16:39Z</time></trkpt><trkpt lat="45.79090644673972" lon="11.10242410409472"><ele>542.0</ele><time>2026-03-28T13:16:40Z</time></trkpt><trkpt lat="45.79097416924784" lon="11.102244911920796"><ele>542.0</ele><time>2026-03-28T13:16:41Z</time></trkpt><trkpt lat="45.79104287917036" lon="11.102056635023748"><ele>542.0</ele><time>2026-03-28T13:16:42Z</time></trkpt><trkpt lat="45.791113791730474" lon="11.101860868126822"><ele>540.3333333333333</ele><time>2026-03-28T13:16:43Z</time></trkpt><trkpt lat="45.79118894988792" lon="11.10166410934967"><ele>538.6666666666666</ele><time>2026-03-28T13:16:44Z</time></trkpt><trkpt lat="45.791271660168796" lon="11.101446460105173"><ele>537.0</ele><time>2026-03-28T13:16:45Z</time></trkpt><trkpt lat="45.79137457776568" lon="11.10123064096204"><ele>537.0</ele><time>2026-03-28T13:16:46Z</time></trkpt><trkpt lat="45.79147163257879" lon="11.101002002130196"><ele>537.0</ele><time>2026-03-28T13:16:47Z</time></trkpt><trkpt lat="45.79156459189737" lon="11.100783977624147"><ele>537.0</ele><time>2026-03-28T13:16:48Z</time></trkpt><trkpt lat="45.79163445669032" lon="11.100565663581166"><ele>539.75</ele><time>2026-03-28T13:16:49Z</time></trkpt><trkpt lat="45.79172596306174" lon="11.100392489641836"><ele>542.5</ele><time>2026-03-28T13:16:50Z</time></trkpt><trkpt lat="45.79183043645979" lon="11.100260704157732"><ele>545.25</ele><time>2026-03-28T13:16:51Z</time></trkpt><trkpt lat="45.79195654303601" lon="11.100189779897438"><ele>548.0</ele><time>2026-03-28T13:16:52Z</time></trkpt><trkpt lat="45.79209916800332" lon="11.100149418817802"><ele>548.0</ele><time>2026-03-28T13:16:53Z</time></trkpt><trkpt lat="45.792236775922476" lon="11.10013647516478"><ele>548.0</ele><time>2026-03-28T13:16:54Z</time></trkpt><trkpt lat="45.79236917403058" lon="11.100118416336029"><ele>548.0</ele><time>2026-03-28T13:16:55Z</time></trkpt><trkpt lat="45.792493910932926" lon="11.100045842679528"><ele>548.0</ele><time>2026-03-28T13:16:56Z</time></trkpt><trkpt lat="45.79260804882712" lon="11.099933558767036"><ele>550.6666666666666</ele><time>2026-03-28T13:16:57Z</time></trkpt><trkpt lat="45.79271640703017" lon="11.099787422665521"><ele>553.3333333333334</ele><time>2026-03-28T13:16:58Z</time></trkpt><trkpt lat="45.79283292114435" lon="11.099633711796987"><ele>556.0</ele><time>2026-03-28T13:16:59Z</time></trkpt><trkpt lat="45.79296250417787" lon="11.099487962341206"><ele>556.0</ele><time>2026-03-28T13:17:00Z</time></trkpt><trkpt lat="45.79308787020764" lon="11.099322646751347"><ele>556.0</ele><time>2026-03-28T13:17:01Z</time></trkpt><trkpt lat="45.79320871839136" lon="11.099141315165735"><ele>556.0</ele><time>2026-03-28T13:17:02Z</time></trkpt><trkpt lat="45.79331526105889" lon="11.098934325396826"><ele>558.3333333333334</ele><time>2026-03-28T13:17:03Z</time></trkpt><trkpt lat="45.79340959828265" lon="11.098711444508362"><ele>560.6666666666666</ele><time>2026-03-28T13:17:04Z</time></trkpt><trkpt lat="45.79351343395869" lon="11.098546705391835"><ele>563.0</ele><time>2026-03-28T13:17:05Z</time></trkpt><trkpt lat="45.79362149278169" lon="11.098396091779806"><ele>563.0</ele><time>2026-03-28T13:17:06Z</time></trkpt><trkpt lat="45.793763766891466" lon="11.098306884989594"><ele>563.0</ele><time>2026-03-28T13:17:07Z</time></trkpt><trkpt lat="45.7939112219244" lon="11.098287771210199"><ele>563.0</ele><time>2026-03-28T13:17:08Z</time></trkpt><trkpt lat="45.794049516523046" lon="11.09831819780661"><ele>563.0</ele><time>2026-03-28T13:17:09Z</time></trkpt><trkpt lat="45.79417212723316" lon="11.09834980137162"><ele>563.0</ele><time>2026-03-28T13:17:10Z</time></trkpt><trkpt lat="45.794279540563224" lon="11.098330443936607"><ele>563.0</ele><time>2026-03-28T13:17:11Z</time></trkpt><trkpt lat="45.7943786565311" lon="11.098248050010941"><ele>563.0</ele><time>2026-03-28T13:17:12Z</time></trkpt><trkpt lat="45.794472752938645" lon="11.098134564860805"><ele>563.0</ele><time>2026-03-28T13:17:13Z</time></trkpt><trkpt lat="45.79457222170502" lon="11.098002237682516"><ele>565.0</ele><time>2026-03-28T13:17:14Z</time></trkpt><trkpt lat="45.79467963113074" lon="11.097870218409941"><ele>567.0</ele><time>2026-03-28T13:17:15Z</time></trkpt><trkpt lat="45.79479145678953" lon="11.097754269101577"><ele>569.0</ele><time>2026-03-28T13:17:16Z</time></trkpt><trkpt lat="45.794884014535185" lon="11.097667710178683"><ele>571.0</ele><time>2026-03-28T13:17:17Z</time></trkpt><trkpt lat="45.79493730937484" lon="11.097552720057562"><ele>572.6</ele><time>2026-03-28T13:17:18Z</time></trkpt><trkpt lat="45.79495304664311" lon="11.09741420791126"><ele>574.2</ele><time>2026-03-28T13:17:19Z</time></trkpt><trkpt lat="45.79495048973277" lon="11.097262784490042"><ele>575.8</ele><time>2026-03-28T13:17:20Z</time></trkpt><trkpt lat="45.79494038847111" lon="11.097090884466988"><ele>577.4</ele><time>2026-03-28T13:17:21Z</time></trkpt><trkpt lat="45.794935350608995" lon="11.096911532309521"><ele>579.0</ele><time>2026-03-28T13:17:22Z</time></trkpt><trkpt lat="45.79493576236948" lon="11.096719596789846"><ele>580.2</ele><time>2026-03-28T13:17:23Z</time></trkpt><trkpt lat="45.79493767053686" lon="11.096534472094653"><ele>581.4</ele><time>2026-03-28T13:17:24Z</time></trkpt><trkpt lat="45.794931671483894" lon="11.0963752431336"><ele>582.6</ele><time>2026-03-28T13:17:25Z</time></trkpt><trkpt lat="45.794909983092424" lon="11.096238116323647"><ele>583.8</ele><time>2026-03-28T13:17:26Z</time></trkpt><trkpt lat="45.79486434779248" lon="11.096124554718653"><ele>585.0</ele><time>2026-03-28T13:17:27Z</time></trkpt><trkpt lat="45.79480211486939" lon="11.09608176183116"><ele>585.0</ele><time>2026-03-28T13:17:28Z</time></trkpt><trkpt lat="45.794670311922914" lon="11.096137273432511"><ele>585.0</ele><time>2026-03-28T13:17:30Z</time></trkpt><trkpt lat="45.79459368151717" lon="11.09618082439473"><ele>585.0</ele><time>2026-03-28T13:17:31Z</time></trkpt><trkpt lat="45.79452066361813" lon="11.096201944112828"><ele>585.0</ele><time>2026-03-28T13:17:32Z</time></trkpt><trkpt lat="45.794458333572" lon="11.096166051989034"><ele>585.0</ele><time>2026-03-28T13:17:33Z</time></trkpt><trkpt lat="45.794439220491824" lon="11.09605489179026"><ele>585.0</ele><time>2026-03-28T13:17:34Z</time></trkpt><trkpt lat="45.79446404191478" lon="11.095935410701328"><ele>585.0</ele><time>2026-03-28T13:17:35Z</time></trkpt><trkpt lat="45.79453288565913" lon="11.095817762217562"><ele>585.0</ele><time>2026-03-28T13:17:36Z</time></trkpt><trkpt lat="45.794622726602334" lon="11.095703937453635"><ele>585.0</ele><time>2026-03-28T13:17:37Z</time></trkpt><trkpt lat="45.79473270154529" lon="11.095581438293205"><ele>585.0</ele><time>2026-03-28T13:17:38Z</time></trkpt><trkpt lat="45.79483589196977" lon="11.095460526563388"><ele>589.5</ele><time>2026-03-28T13:17:39Z</time></trkpt><trkpt lat="45.79491988709511" lon="11.095313610513857"><ele>594.0</ele><time>2026-03-28T13:17:40Z</time></trkpt><trkpt lat="45.79499438897026" lon="11.0951354756131"><ele>598.5</ele><time>2026-03-28T13:17:41Z</time></trkpt><trkpt lat="45.79511029486181" lon="11.094988280088048"><ele>603.0</ele><time>2026-03-28T13:17:42Z</time></trkpt><trkpt lat="45.7952327616461" lon="11.094855079334701"><ele>607.3333333333334</ele><time>2026-03-28T13:17:43Z</time></trkpt><trkpt lat="45.79537442941196" lon="11.094737832328288"><ele>611.6666666666667</ele><time>2026-03-28T13:17:44Z</time></trkpt><trkpt lat="45.79552825892102" lon="11.094639138984736"><ele>616.0</ele><time>2026-03-28T13:17:45Z</time></trkpt><trkpt lat="45.79568353064474" lon="11.094602395207811"><ele>616.0</ele><time>2026-03-28T13:17:46Z</time></trkpt><trkpt lat="45.79582474381363" lon="11.094573045413648"><ele>616.0</ele><time>2026-03-28T13:17:47Z</time></trkpt><trkpt lat="45.79596125553856" lon="11.094487402842462"><ele>616.0</ele><time>2026-03-28T13:17:48Z</time></trkpt><trkpt lat="45.796097206461894" lon="11.094368186341471"><ele>619.3333333333334</ele><time>2026-03-28T13:17:49Z</time></trkpt><trkpt lat="45.79623765049766" lon="11.09423770106495"><ele>622.6666666666666</ele><time>2026-03-28T13:17:50Z</time></trkpt><trkpt lat="45.7963875025218" lon="11.094104974223844"><ele>626.0</ele><time>2026-03-28T13:17:51Z</time></trkpt><trkpt lat="45.79653558143382" lon="11.09396968572534"><ele>626.0</ele><time>2026-03-28T13:17:52Z</time></trkpt><trkpt lat="45.796679154843574" lon="11.093850089326729"><ele>626.0</ele><time>2026-03-28T13:17:53Z</time></trkpt><trkpt lat="45.7968299009614" lon="11.09376849712582"><ele>626.0</ele><time>2026-03-28T13:17:54Z</time></trkpt><trkpt lat="45.796979494225475" lon="11.093715411599304"><ele>624.6</ele><time>2026-03-28T13:17:55Z</time></trkpt><trkpt lat="45.79709846649731" lon="11.093687313663292"><ele>623.2</ele><time>2026-03-28T13:17:56Z</time></trkpt><trkpt lat="45.797190842668506" lon="11.09367114902153"><ele>621.8</ele><time>2026-03-28T13:17:57Z</time></trkpt><trkpt lat="45.797275972487725" lon="11.093628939807543"><ele>620.4</ele><time>2026-03-28T13:17:58Z</time></trkpt><trkpt lat="45.797351687166504" lon="11.093544572010817"><ele>619.0</ele><time>2026-03-28T13:17:59Z</time></trkpt><trkpt lat="45.79742060792263" lon="11.093430496442995"><ele>619.0</ele><time>2026-03-28T13:18:00Z</time></trkpt><trkpt lat="45.79748877892127" lon="11.093296496702697"><ele>619.0</ele><time>2026-03-28T13:18:01Z</time></trkpt><trkpt lat="45.79753070790458" lon="11.09316015482182"><ele>619.0</ele><time>2026-03-28T13:18:02Z</time></trkpt><trkpt lat="45.79753371960568" lon="11.09304272176612"><ele>619.0</ele><time>2026-03-28T13:18:03Z</time></trkpt><trkpt lat="45.79750652578475" lon="11.092931473087202"><ele>619.0</ele><time>2026-03-28T13:18:03.999Z</time></trkpt><trkpt lat="45.7974351343855" lon="11.092846930062608"><ele>623.75</ele><time>2026-03-28T13:18:04.999Z</time></trkpt><trkpt lat="45.79734509847646" lon="11.0927734738246"><ele>628.5</ele><time>2026-03-28T13:18:05.999Z</time></trkpt><trkpt lat="45.797231044150145" lon="11.092801122733105"><ele>633.25</ele><time>2026-03-28T13:18:06.999Z</time></trkpt><trkpt lat="45.79711457088222" lon="11.092862880001018"><ele>638.0</ele><time>2026-03-28T13:18:07.999Z</time></trkpt><trkpt lat="45.796982282949585" lon="11.092909506644778"><ele>638.0</ele><time>2026-03-28T13:18:08.999Z</time></trkpt><trkpt lat="45.79684693394404" lon="11.092991858191144"><ele>638.0</ele><time>2026-03-28T13:18:09.999Z</time></trkpt><trkpt lat="45.79673841579839" lon="11.093149065239464"><ele>638.0</ele><time>2026-03-28T13:18:10.999Z</time></trkpt><trkpt lat="45.796638392668214" lon="11.093321563295056"><ele>635.0</ele><time>2026-03-28T13:18:11.999Z</time></trkpt><trkpt lat="45.79653953696725" lon="11.093456955391527"><ele>632.0</ele><time>2026-03-28T13:18:12.999Z</time></trkpt><trkpt lat="45.79643873342306" lon="11.093537341120408"><ele>629.0</ele><time>2026-03-28T13:18:13.999Z</time></trkpt><trkpt lat="45.79631675739323" lon="11.093626362301611"><ele>626.0</ele><time>2026-03-28T13:18:14.999Z</time></trkpt><trkpt lat="45.79618840594031" lon="11.093716167741901"><ele>626.0</ele><time>2026-03-28T13:18:15.999Z</time></trkpt><trkpt lat="45.7960416619372" lon="11.093802178700384"><ele>626.0</ele><time>2026-03-28T13:18:16.999Z</time></trkpt><trkpt lat="45.79588713552829" lon="11.093860951314834"><ele>626.0</ele><time>2026-03-28T13:18:17.999Z</time></trkpt><trkpt lat="45.795729232871714" lon="11.09389659573"><ele>632.3333333333333</ele><time>2026-03-28T13:18:18.999Z</time></trkpt><trkpt lat="45.79555869660196" lon="11.093864452815987"><ele>638.6666666666666</ele><time>2026-03-28T13:18:19.999Z</time></trkpt><trkpt lat="45.795380576366334" lon="11.093884920700512"><ele>645.0</ele><time>2026-03-28T13:18:20.999Z</time></trkpt><trkpt lat="45.79520348928945" lon="11.093942071448799"><ele>643.3333333333334</ele><time>2026-03-28T13:18:21.999Z</time></trkpt><trkpt lat="45.79502565950109" lon="11.094004490958717"><ele>641.6666666666667</ele><time>2026-03-28T13:18:22.999Z</time></trkpt><trkpt lat="45.79484945359351" lon="11.094090620103502"><ele>640.0</ele><time>2026-03-28T13:18:24Z</time></trkpt><trkpt lat="45.794652952970594" lon="11.094136237742749"><ele>640.0</ele><time>2026-03-28T13:18:25Z</time></trkpt><trkpt lat="45.79445837969145" lon="11.094205529829372"><ele>640.0</ele><time>2026-03-28T13:18:26Z</time></trkpt><trkpt lat="45.79426349307149" lon="11.094285671681913"><ele>640.0</ele><time>2026-03-28T13:18:27Z</time></trkpt><trkpt lat="45.794084737452906" lon="11.094426605940601"><ele>647.6666666666667</ele><time>2026-03-28T13:18:28Z</time></trkpt><trkpt lat="45.79391262553639" lon="11.094547965556202"><ele>655.3333333333334</ele><time>2026-03-28T13:18:29Z</time></trkpt><trkpt lat="45.793744041747225" lon="11.094656437536965"><ele>663.0</ele><time>2026-03-28T13:18:30Z</time></trkpt><trkpt lat="45.79359136801021" lon="11.094786638580828"><ele>662.3333333333334</ele><time>2026-03-28T13:18:31Z</time></trkpt><trkpt lat="45.793461442479874" lon="11.094933063064934"><ele>661.6666666666667</ele><time>2026-03-28T13:18:32Z</time></trkpt><trkpt lat="45.79334573543754" lon="11.095081495904191"><ele>661.0</ele><time>2026-03-28T13:18:33Z</time></trkpt><trkpt lat="45.793245725977144" lon="11.095210365797056"><ele>661.0</ele><time>2026-03-28T13:18:34Z</time></trkpt><trkpt lat="45.79313449806618" lon="11.095307257833518"><ele>661.0</ele><time>2026-03-28T13:18:35Z</time></trkpt><trkpt lat="45.79300125869621" lon="11.095395314637504"><ele>661.0</ele><time>2026-03-28T13:18:36Z</time></trkpt><trkpt lat="45.79285320006378" lon="11.095478215182961"><ele>661.0</ele><time>2026-03-28T13:18:37Z</time></trkpt><trkpt lat="45.79269840260425" lon="11.095576368532448"><ele>658.3333333333334</ele><time>2026-03-28T13:18:38Z</time></trkpt><trkpt lat="45.79252957080843" lon="11.095631352089514"><ele>655.6666666666666</ele><time>2026-03-28T13:18:39Z</time></trkpt><trkpt lat="45.792364959050786" lon="11.095703698671029"><ele>653.0</ele><time>2026-03-28T13:18:40Z</time></trkpt><trkpt lat="45.79219725765155" lon="11.095760751415986"><ele>653.0</ele><time>2026-03-28T13:18:41Z</time></trkpt><trkpt lat="45.79202859281436" lon="11.095799777278309"><ele>653.0</ele><time>2026-03-28T13:18:42Z</time></trkpt><trkpt lat="45.79186104762437" lon="11.095832075911474"><ele>653.0</ele><time>2026-03-28T13:18:43Z</time></trkpt><trkpt lat="45.791689023258876" lon="11.095882201102741"><ele>658.0</ele><time>2026-03-28T13:18:44Z</time></trkpt><trkpt lat="45.791514674764414" lon="11.095962938072073"><ele>663.0</ele><time>2026-03-28T13:18:45Z</time></trkpt><trkpt lat="45.79134837467879" lon="11.096051058474574"><ele>668.0</ele><time>2026-03-28T13:18:46Z</time></trkpt><trkpt lat="45.79119685058641" lon="11.09616471342932"><ele>668.0</ele><time>2026-03-28T13:18:47Z</time></trkpt><trkpt lat="45.79107237941934" lon="11.096287338425437"><ele>668.0</ele><time>2026-03-28T13:18:48Z</time></trkpt><trkpt lat="45.79096138469591" lon="11.09639472995681"><ele>668.0</ele><time>2026-03-28T13:18:49Z</time></trkpt><trkpt lat="45.79086736331877" lon="11.096480332502733"><ele>668.0</ele><time>2026-03-28T13:18:50Z</time></trkpt><trkpt lat="45.790795101377405" lon="11.096537378092115"><ele>670.5999999999999</ele><time>2026-03-28T13:18:51Z</time></trkpt><trkpt lat="45.79073311802928" lon="11.096559533643765"><ele>673.1999999999999</ele><time>2026-03-28T13:18:52Z</time></trkpt><trkpt lat="45.79067134947756" lon="11.096509040284923"><ele>675.8</ele><time>2026-03-28T13:18:53Z</time></trkpt><trkpt lat="45.790574754698426" lon="11.096470981521495"><ele>678.4</ele><time>2026-03-28T13:18:54Z</time></trkpt><trkpt lat="45.790476215932195" lon="11.096406941662154"><ele>681.0</ele><time>2026-03-28T13:18:55Z</time></trkpt><trkpt lat="45.7903643310608" lon="11.096343273349142"><ele>681.0</ele><time>2026-03-28T13:18:56Z</time></trkpt><trkpt lat="45.79025688665213" lon="11.096248196273299"><ele>681.0</ele><time>2026-03-28T13:18:57Z</time></trkpt><trkpt lat="45.79015733000007" lon="11.096175101588479"><ele>681.0</ele><time>2026-03-28T13:18:58Z</time></trkpt><trkpt lat="45.79006106072667" lon="11.09612558374475"><ele>681.0</ele><time>2026-03-28T13:18:59Z</time></trkpt><trkpt lat="45.78997419065757" lon="11.096068701994318"><ele>681.0</ele><time>2026-03-28T13:19:00Z</time></trkpt><trkpt lat="45.78986477469271" lon="11.096091542567311"><ele>679.8</ele><time>2026-03-28T13:19:01Z</time></trkpt><trkpt lat="45.78976707351452" lon="11.096186666837976"><ele>678.5999999999999</ele><time>2026-03-28T13:19:02Z</time></trkpt><trkpt lat="45.78971148699022" lon="11.096338062562385"><ele>677.4</ele><time>2026-03-28T13:19:03Z</time></trkpt><trkpt lat="45.78965134816519" lon="11.096447627284897"><ele>676.2</ele><time>2026-03-28T13:19:04Z</time></trkpt><trkpt lat="45.78960901132157" lon="11.096542671801183"><ele>675.0</ele><time>2026-03-28T13:19:05Z</time></trkpt><trkpt lat="45.78956432130193" lon="11.096622116737192"><ele>675.0</ele><time>2026-03-28T13:19:06Z</time></trkpt><trkpt lat="45.78946444074122" lon="11.096618525191884"><ele>675.0</ele><time>2026-03-28T13:19:08Z</time></trkpt><trkpt lat="45.78942196806028" lon="11.096522565568382"><ele>675.0</ele><time>2026-03-28T13:19:10Z</time></trkpt><trkpt lat="45.78951184600907" lon="11.096366617822214"><ele>675.0</ele><time>2026-03-28T13:19:11Z</time></trkpt><trkpt lat="45.7896132435123" lon="11.0962168517011"><ele>678.75</ele><time>2026-03-28T13:19:13Z</time></trkpt><trkpt lat="45.78969061292601" lon="11.096117127951468"><ele>682.5</ele><time>2026-03-28T13:19:14Z</time></trkpt><trkpt lat="45.78978565858852" lon="11.096004150795888"><ele>686.25</ele><time>2026-03-28T13:19:15Z</time></trkpt><trkpt lat="45.78987538774431" lon="11.095893017601087"><ele>690.0</ele><time>2026-03-28T13:19:16Z</time></trkpt><trkpt lat="45.78996947687218" lon="11.095769061657823"><ele>691.5</ele><time>2026-03-28T13:19:17Z</time></trkpt><trkpt lat="45.79007132131006" lon="11.095639292781566"><ele>693.0</ele><time>2026-03-28T13:19:18Z</time></trkpt><trkpt lat="45.790174823958" lon="11.095510355347654"><ele>694.5</ele><time>2026-03-28T13:19:19Z</time></trkpt><trkpt lat="45.79028110040035" lon="11.095394726010502"><ele>696.0</ele><time>2026-03-28T13:19:20Z</time></trkpt><trkpt lat="45.790425299927726" lon="11.095333944109498"><ele>696.0</ele><time>2026-03-28T13:19:21Z</time></trkpt><trkpt lat="45.79058893809647" lon="11.09525029733194"><ele>696.0</ele><time>2026-03-28T13:19:22Z</time></trkpt><trkpt lat="45.79077247842791" lon="11.095160865345132"><ele>696.0</ele><time>2026-03-28T13:19:23Z</time></trkpt><trkpt lat="45.79093915354175" lon="11.095059765577655"><ele>693.6666666666666</ele><time>2026-03-28T13:19:24Z</time></trkpt><trkpt lat="45.79113031857615" lon="11.094986650411846"><ele>691.3333333333333</ele><time>2026-03-28T13:19:25Z</time></trkpt><trkpt lat="45.79132580017292" lon="11.094904649446333"><ele>689.0</ele><time>2026-03-28T13:19:26Z</time></trkpt><trkpt lat="45.79151617438355" lon="11.09480437011967"><ele>692.0</ele><time>2026-03-28T13:19:27Z</time></trkpt><trkpt lat="45.79170530133675" lon="11.094705339369112"><ele>695.0</ele><time>2026-03-28T13:19:28Z</time></trkpt><trkpt lat="45.79189310355817" lon="11.094609941370546"><ele>698.0</ele><time>2026-03-28T13:19:29Z</time></trkpt><trkpt lat="45.79206545192007" lon="11.094523011831816"><ele>698.0</ele><time>2026-03-28T13:19:30Z</time></trkpt><trkpt lat="45.79222748062588" lon="11.094446116299837"><ele>698.0</ele><time>2026-03-28T13:19:31Z</time></trkpt><trkpt lat="45.79238061873286" lon="11.09437929038146"><ele>698.0</ele><time>2026-03-28T13:19:32Z</time></trkpt><trkpt lat="45.79253146082017" lon="11.09430351573173"><ele>699.6666666666666</ele><time>2026-03-28T13:19:33Z</time></trkpt><trkpt lat="45.792681505044214" lon="11.09421245168331"><ele>701.3333333333334</ele><time>2026-03-28T13:19:34Z</time></trkpt><trkpt lat="45.792823106260045" lon="11.094097594238955"><ele>703.0</ele><time>2026-03-28T13:19:35Z</time></trkpt><trkpt lat="45.792961859005764" lon="11.093959336793842"><ele>703.0</ele><time>2026-03-28T13:19:36Z</time></trkpt><trkpt lat="45.79309239375647" lon="11.093790748901048"><ele>703.0</ele><time>2026-03-28T13:19:37Z</time></trkpt><trkpt lat="45.79321299250914" lon="11.09359534638329"><ele>703.0</ele><time>2026-03-28T13:19:38Z</time></trkpt><trkpt lat="45.793334577814804" lon="11.093386812983868"><ele>706.3333333333334</ele><time>2026-03-28T13:19:39Z</time></trkpt><trkpt lat="45.793451137147024" lon="11.09317906167624"><ele>709.6666666666666</ele><time>2026-03-28T13:19:40Z</time></trkpt><trkpt lat="45.79357137118648" lon="11.092993012831156"><ele>713.0</ele><time>2026-03-28T13:19:41Z</time></trkpt><trkpt lat="45.79369922095508" lon="11.092835403214746"><ele>713.0</ele><time>2026-03-28T13:19:42Z</time></trkpt><trkpt lat="45.79384126071479" lon="11.092705572241083"><ele>713.0</ele><time>2026-03-28T13:19:43Z</time></trkpt><trkpt lat="45.79400051224225" lon="11.09261879043546"><ele>713.0</ele><time>2026-03-28T13:19:44Z</time></trkpt><trkpt lat="45.794176440811704" lon="11.092578889391984"><ele>710.6666666666666</ele><time>2026-03-28T13:19:45Z</time></trkpt><trkpt lat="45.794360343737615" lon="11.092573046523642"><ele>708.3333333333334</ele><time>2026-03-28T13:19:46Z</time></trkpt><trkpt lat="45.794534625431716" lon="11.092592040014736"><ele>706.0</ele><time>2026-03-28T13:19:47Z</time></trkpt><trkpt lat="45.79469854736831" lon="11.092617739012677"><ele>706.0</ele><time>2026-03-28T13:19:48Z</time></trkpt><trkpt lat="45.79485351202191" lon="11.092651256711674"><ele>706.0</ele><time>2026-03-28T13:19:49Z</time></trkpt><trkpt lat="45.79499057160741" lon="11.092653153333966"><ele>706.0</ele><time>2026-03-28T13:19:50Z</time></trkpt><trkpt lat="45.7951281334225" lon="11.09260305834382"><ele>706.0</ele><time>2026-03-28T13:19:51Z</time></trkpt><trkpt lat="45.7952686325255" lon="11.092514292312961"><ele>716.0</ele><time>2026-03-28T13:19:52Z</time></trkpt><trkpt lat="45.79541308296592" lon="11.092389399809626"><ele>726.0</ele><time>2026-03-28T13:19:53Z</time></trkpt><trkpt lat="45.795564791700045" lon="11.092249714797022"><ele>736.0</ele><time>2026-03-28T13:19:54Z</time></trkpt><trkpt lat="45.79573122597042" lon="11.092117529922703"><ele>736.0</ele><time>2026-03-28T13:19:55Z</time></trkpt><trkpt lat="45.795907260335326" lon="11.092005995332284"><ele>736.0</ele><time>2026-03-28T13:19:56Z</time></trkpt><trkpt lat="45.79606922160493" lon="11.091863868139383"><ele>736.0</ele><time>2026-03-28T13:19:57Z</time></trkpt><trkpt lat="45.796215758871135" lon="11.091747634607627"><ele>726.3333333333334</ele><time>2026-03-28T13:19:58Z</time></trkpt><trkpt lat="45.79636592060761" lon="11.091700933089502"><ele>716.6666666666666</ele><time>2026-03-28T13:19:59Z</time></trkpt><trkpt lat="45.796520620508126" lon="11.091687734479471"><ele>707.0</ele><time>2026-03-28T13:20:00Z</time></trkpt><trkpt lat="45.79666983968497" lon="11.09166517175976"><ele>707.0</ele><time>2026-03-28T13:20:01Z</time></trkpt><trkpt lat="45.79680518939322" lon="11.091646062301704"><ele>707.0</ele><time>2026-03-28T13:20:02Z</time></trkpt><trkpt lat="45.796920445619335" lon="11.09158496812372"><ele>707.0</ele><time>2026-03-28T13:20:03Z</time></trkpt><trkpt lat="45.7970265256315" lon="11.091459226579483"><ele>707.0</ele><time>2026-03-28T13:20:04Z</time></trkpt><trkpt lat="45.797131685876515" lon="11.09129448718735"><ele>708.0</ele><time>2026-03-28T13:20:05Z</time></trkpt><trkpt lat="45.797257285992096" lon="11.091144471143581"><ele>709.0</ele><time>2026-03-28T13:20:06Z</time></trkpt><trkpt lat="45.79739394462918" lon="11.090969299448968"><ele>710.0</ele><time>2026-03-28T13:20:07Z</time></trkpt><trkpt lat="45.79755597281509" lon="11.090818955912072"><ele>715.6666666666666</ele><time>2026-03-28T13:20:08Z</time></trkpt><trkpt lat="45.79771993798935" lon="11.090677636816702"><ele>721.3333333333334</ele><time>2026-03-28T13:20:09Z</time></trkpt><trkpt lat="45.79789086703963" lon="11.090570968787578"><ele>727.0</ele><time>2026-03-28T13:20:10Z</time></trkpt><trkpt lat="45.7980724074019" lon="11.090454090916108"><ele>727.0</ele><time>2026-03-28T13:20:11Z</time></trkpt><trkpt lat="45.79826857960932" lon="11.090383037592096"><ele>727.0</ele><time>2026-03-28T13:20:12Z</time></trkpt><trkpt lat="45.79847440901945" lon="11.090347587176064"><ele>727.0</ele><time>2026-03-28T13:20:13Z</time></trkpt><trkpt lat="45.79867045629115" lon="11.090331468272707"><ele>726.0</ele><time>2026-03-28T13:20:13.999Z</time></trkpt><trkpt lat="45.79885725031221" lon="11.090324025346469"><ele>725.0</ele><time>2026-03-28T13:20:14.999Z</time></trkpt><trkpt lat="45.799034581828124" lon="11.09032821684054"><ele>724.0</ele><time>2026-03-28T13:20:15.999Z</time></trkpt><trkpt lat="45.79919382040796" lon="11.090368830316143"><ele>724.0</ele><time>2026-03-28T13:20:16.999Z</time></trkpt><trkpt lat="45.799328505241164" lon="11.090455424039929"><ele>724.0</ele><time>2026-03-28T13:20:17.999Z</time></trkpt><trkpt lat="45.799448760364385" lon="11.090543026047364"><ele>724.0</ele><time>2026-03-28T13:20:18.999Z</time></trkpt><trkpt lat="45.79955947278297" lon="11.090586772123313"><ele>724.0</ele><time>2026-03-28T13:20:19.999Z</time></trkpt><trkpt lat="45.79969039101194" lon="11.090584958514794"><ele>725.5</ele><time>2026-03-28T13:20:20.999Z</time></trkpt><trkpt lat="45.79982082923482" lon="11.090532615129574"><ele>727.0</ele><time>2026-03-28T13:20:21.999Z</time></trkpt><trkpt lat="45.79995650676742" lon="11.090443640053804"><ele>728.5</ele><time>2026-03-28T13:20:22.999Z</time></trkpt><trkpt lat="45.80010270756043" lon="11.09036431370897"><ele>730.0</ele><time>2026-03-28T13:20:23.999Z</time></trkpt><trkpt lat="45.80025156771089" lon="11.090280386871582"><ele>738.6666666666667</ele><time>2026-03-28T13:20:24.999Z</time></trkpt><trkpt lat="45.80039998816189" lon="11.090162559284513"><ele>747.3333333333334</ele><time>2026-03-28T13:20:25.999Z</time></trkpt><trkpt lat="45.80054835386058" lon="11.090013622081711"><ele>756.0</ele><time>2026-03-28T13:20:26.999Z</time></trkpt><trkpt lat="45.800706520313014" lon="11.089864447780508"><ele>756.0</ele><time>2026-03-28T13:20:27.999Z</time></trkpt><trkpt lat="45.80085316458822" lon="11.089676776219761"><ele>756.0</ele><time>2026-03-28T13:20:28.999Z</time></trkpt><trkpt lat="45.8010253624121" lon="11.08951647445073"><ele>756.0</ele><time>2026-03-28T13:20:30Z</time></trkpt><trkpt lat="45.80119323683101" lon="11.089360221471171"><ele>761.3333333333333</ele><time>2026-03-28T13:20:31Z</time></trkpt><trkpt lat="45.80137273599154" lon="11.08922749095307"><ele>766.6666666666666</ele><time>2026-03-28T13:20:32Z</time></trkpt><trkpt lat="45.801559755109686" lon="11.089110698037416"><ele>772.0</ele><time>2026-03-28T13:20:33Z</time></trkpt><trkpt lat="45.80174950103166" lon="11.089005544000281"><ele>765.0</ele><time>2026-03-28T13:20:34Z</time></trkpt><trkpt lat="45.80193092167216" lon="11.088922575199641"><ele>758.0</ele><time>2026-03-28T13:20:35Z</time></trkpt><trkpt lat="45.80210042442731" lon="11.088847189141081"><ele>751.0</ele><time>2026-03-28T13:20:36Z</time></trkpt><trkpt lat="45.80227424385832" lon="11.08877550508139"><ele>751.0</ele><time>2026-03-28T13:20:37Z</time></trkpt><trkpt lat="45.802417479593366" lon="11.088621260320581"><ele>751.0</ele><time>2026-03-28T13:20:38Z</time></trkpt><trkpt lat="45.80256262547536" lon="11.088512744582252"><ele>751.0</ele><time>2026-03-28T13:20:39Z</time></trkpt><trkpt lat="45.80270580243676" lon="11.088445183946034"><ele>744.25</ele><time>2026-03-28T13:20:40Z</time></trkpt><trkpt lat="45.80285138811553" lon="11.08844223545303"><ele>737.5</ele><time>2026-03-28T13:20:41Z</time></trkpt><trkpt lat="45.802994131085306" lon="11.088469922648944"><ele>730.75</ele><time>2026-03-28T13:20:42Z</time></trkpt><trkpt lat="45.80313992000081" lon="11.088479316166344"><ele>724.0</ele><time>2026-03-28T13:20:43Z</time></trkpt><trkpt lat="45.80326693287229" lon="11.088461401401673"><ele>724.0</ele><time>2026-03-28T13:20:44Z</time></trkpt><trkpt lat="45.80339308241043" lon="11.088375228482981"><ele>724.0</ele><time>2026-03-28T13:20:45Z</time></trkpt><trkpt lat="45.80349648505607" lon="11.08825596781"><ele>724.0</ele><time>2026-03-28T13:20:46Z</time></trkpt><trkpt lat="45.803581562025066" lon="11.088064630322233"><ele>724.0</ele><time>2026-03-28T13:20:47Z</time></trkpt><trkpt lat="45.803648240268345" lon="11.087865740409727"><ele>730.3333333333334</ele><time>2026-03-28T13:20:48Z</time></trkpt><trkpt lat="45.80371505934593" lon="11.08766471808651"><ele>736.6666666666666</ele><time>2026-03-28T13:20:49Z</time></trkpt><trkpt lat="45.80382150723108" lon="11.087515400339203"><ele>743.0</ele><time>2026-03-28T13:20:50Z</time></trkpt><trkpt lat="45.80396622923773" lon="11.087408917935676"><ele>748.0</ele><time>2026-03-28T13:20:51Z</time></trkpt><trkpt lat="45.80410950366943" lon="11.087277639462494"><ele>753.0</ele><time>2026-03-28T13:20:52Z</time></trkpt><trkpt lat="45.8042625430192" lon="11.087144242344065"><ele>758.0</ele><time>2026-03-28T13:20:53Z</time></trkpt><trkpt lat="45.804416391646235" lon="11.087005329716431"><ele>758.0</ele><time>2026-03-28T13:20:54Z</time></trkpt><trkpt lat="45.804580170580046" lon="11.086947901069502"><ele>758.0</ele><time>2026-03-28T13:20:55Z</time></trkpt><trkpt lat="45.804747598820036" lon="11.08694457284128"><ele>758.0</ele><time>2026-03-28T13:20:56Z</time></trkpt><trkpt lat="45.80489008434212" lon="11.086939283570137"><ele>758.0</ele><time>2026-03-28T13:20:57Z</time></trkpt><trkpt lat="45.80500600693957" lon="11.086885322948513"><ele>758.0</ele><time>2026-03-28T13:20:58Z</time></trkpt><trkpt lat="45.80511415395205" lon="11.086771757036535"><ele>758.0</ele><time>2026-03-28T13:20:59Z</time></trkpt><trkpt lat="45.805208910166705" lon="11.08661428320416"><ele>758.0</ele><time>2026-03-28T13:21:00Z</time></trkpt><trkpt lat="45.805322374823604" lon="11.086471401253618"><ele>769.3333333333333</ele><time>2026-03-28T13:21:01Z</time></trkpt><trkpt lat="45.80546879800513" lon="11.086413643063315"><ele>780.6666666666666</ele><time>2026-03-28T13:21:02Z</time></trkpt><trkpt lat="45.80563818203294" lon="11.086366432625692"><ele>792.0</ele><time>2026-03-28T13:21:03Z</time></trkpt><trkpt lat="45.80580719192533" lon="11.086330429479098"><ele>792.0</ele><time>2026-03-28T13:21:04Z</time></trkpt><trkpt lat="45.805975572496926" lon="11.086265634640181"><ele>792.0</ele><time>2026-03-28T13:21:05Z</time></trkpt><trkpt lat="45.80615098282066" lon="11.086171652384884"><ele>792.0</ele><time>2026-03-28T13:21:06Z</time></trkpt><trkpt lat="45.80632863046401" lon="11.086057513013708"><ele>784.6666666666667</ele><time>2026-03-28T13:21:07Z</time></trkpt><trkpt lat="45.806511711300615" lon="11.085971995202144"><ele>777.3333333333334</ele><time>2026-03-28T13:21:08Z</time></trkpt><trkpt lat="45.80666818972492" lon="11.085888324875706"><ele>770.0</ele><time>2026-03-28T13:21:09Z</time></trkpt><trkpt lat="45.80679750520489" lon="11.085815964734591"><ele>766.25</ele><time>2026-03-28T13:21:10Z</time></trkpt><trkpt lat="45.80689406011151" lon="11.085709618816228"><ele>762.5</ele><time>2026-03-28T13:21:11Z</time></trkpt><trkpt lat="45.80699384325924" lon="11.085544986280304"><ele>758.75</ele><time>2026-03-28T13:21:12Z</time></trkpt><trkpt lat="45.80707585944369" lon="11.08534938788239"><ele>755.0</ele><time>2026-03-28T13:21:13Z</time></trkpt><trkpt lat="45.80714421822638" lon="11.085112832904157"><ele>762.3333333333333</ele><time>2026-03-28T13:21:14Z</time></trkpt><trkpt lat="45.807215338275675" lon="11.084853625624817"><ele>769.6666666666666</ele><time>2026-03-28T13:21:15Z</time></trkpt><trkpt lat="45.80731090586658" lon="11.084624274013112"><ele>777.0</ele><time>2026-03-28T13:21:16Z</time></trkpt><trkpt lat="45.80743628297189" lon="11.084463640206922"><ele>777.0</ele><time>2026-03-28T13:21:17Z</time></trkpt><trkpt lat="45.807536175428716" lon="11.084306139187392"><ele>777.0</ele><time>2026-03-28T13:21:18Z</time></trkpt><trkpt lat="45.80761326209622" lon="11.084165726612621"><ele>777.0</ele><time>2026-03-28T13:21:19Z</time></trkpt><trkpt lat="45.80766360389647" lon="11.083995729843833"><ele>777.0</ele><time>2026-03-28T13:21:20Z</time></trkpt><trkpt lat="45.80765400438676" lon="11.08380520882933"><ele>778.6666666666667</ele><time>2026-03-28T13:21:21Z</time></trkpt><trkpt lat="45.8076205966864" lon="11.083632800993946"><ele>780.3333333333334</ele><time>2026-03-28T13:21:22Z</time></trkpt><trkpt lat="45.807542824060654" lon="11.08343115884879"><ele>782.0</ele><time>2026-03-28T13:21:23Z</time></trkpt><trkpt lat="45.80748242144718" lon="11.083206313232086"><ele>783.6666666666667</ele><time>2026-03-28T13:21:24Z</time></trkpt><trkpt lat="45.80746619135819" lon="11.08297781853259"><ele>785.3333333333333</ele><time>2026-03-28T13:21:25Z</time></trkpt><trkpt lat="45.80749901738618" lon="11.08275406119925"><ele>787.0</ele><time>2026-03-28T13:21:26Z</time></trkpt><trkpt lat="45.80756817105798" lon="11.082547612244555"><ele>788.3333333333333</ele><time>2026-03-28T13:21:27Z</time></trkpt><trkpt lat="45.807668738591644" lon="11.082369752556412"><ele>789.6666666666667</ele><time>2026-03-28T13:21:28Z</time></trkpt><trkpt lat="45.80781671589013" lon="11.082231767528947"><ele>791.0</ele><time>2026-03-28T13:21:29Z</time></trkpt><trkpt lat="45.80798247185302" lon="11.082088107680024"><ele>791.0</ele><time>2026-03-28T13:21:30Z</time></trkpt><trkpt lat="45.80816657296611" lon="11.08196511961534"><ele>791.0</ele><time>2026-03-28T13:21:31Z</time></trkpt><trkpt lat="45.80836323859063" lon="11.081838928331463"><ele>791.0</ele><time>2026-03-28T13:21:32Z</time></trkpt><trkpt lat="45.80856606015445" lon="11.08170644847671"><ele>792.3333333333334</ele><time>2026-03-28T13:21:33Z</time></trkpt><trkpt lat="45.80876893458361" lon="11.081570611038025"><ele>793.6666666666667</ele><time>2026-03-28T13:21:34Z</time></trkpt><trkpt lat="45.808968050448726" lon="11.081429451091482"><ele>795.0</ele><time>2026-03-28T13:21:35Z</time></trkpt><trkpt lat="45.80916624373663" lon="11.081309758880042"><ele>787.6666666666667</ele><time>2026-03-28T13:21:36Z</time></trkpt><trkpt lat="45.809346379670664" lon="11.08118740718706"><ele>780.3333333333334</ele><time>2026-03-28T13:21:37Z</time></trkpt><trkpt lat="45.80950925655782" lon="11.081060240786432"><ele>773.0</ele><time>2026-03-28T13:21:38Z</time></trkpt><trkpt lat="45.80965653398231" lon="11.080920000932224"><ele>779.6666666666667</ele><time>2026-03-28T13:21:39Z</time></trkpt><trkpt lat="45.80978770817917" lon="11.080743447171807"><ele>786.3333333333333</ele><time>2026-03-28T13:21:40Z</time></trkpt><trkpt lat="45.8099060299895" lon="11.080542445415233"><ele>793.0</ele><time>2026-03-28T13:21:41Z</time></trkpt><trkpt lat="45.810016522622156" lon="11.080310468933119"><ele>793.0</ele><time>2026-03-28T13:21:42Z</time></trkpt><trkpt lat="45.810129850111835" lon="11.080073062371785"><ele>793.0</ele><time>2026-03-28T13:21:43Z</time></trkpt><trkpt lat="45.810259265490814" lon="11.079873025856669"><ele>793.0</ele><time>2026-03-28T13:21:44Z</time></trkpt><trkpt lat="45.81041050828608" lon="11.079721013793876"><ele>798.3333333333333</ele><time>2026-03-28T13:21:45Z</time></trkpt><trkpt lat="45.81057383169008" lon="11.079609010339702"><ele>803.6666666666667</ele><time>2026-03-28T13:21:46Z</time></trkpt><trkpt lat="45.81074695065085" lon="11.079540373840283"><ele>809.0</ele><time>2026-03-28T13:21:47Z</time></trkpt><trkpt lat="45.81092729666333" lon="11.079513569976793"><ele>815.3333333333334</ele><time>2026-03-28T13:21:48Z</time></trkpt><trkpt lat="45.811111317097016" lon="11.079516291477516"><ele>821.6666666666667</ele><time>2026-03-28T13:21:49Z</time></trkpt><trkpt lat="45.81130324711376" lon="11.079555178808725"><ele>828.0</ele><time>2026-03-28T13:21:50Z</time></trkpt><trkpt lat="45.811501144502955" lon="11.079610006075399"><ele>828.0</ele><time>2026-03-28T13:21:51Z</time></trkpt><trkpt lat="45.811711684508" lon="11.079676722700642"><ele>828.0</ele><time>2026-03-28T13:21:52Z</time></trkpt><trkpt lat="45.8119240764319" lon="11.079743237631696"><ele>828.0</ele><time>2026-03-28T13:21:53Z</time></trkpt><trkpt lat="45.812146550500536" lon="11.079812278596293"><ele>831.0</ele><time>2026-03-28T13:21:54Z</time></trkpt><trkpt lat="45.81236177157864" lon="11.079877252332247"><ele>834.0</ele><time>2026-03-28T13:21:55Z</time></trkpt><trkpt lat="45.81256052379373" lon="11.079932537912898"><ele>837.0</ele><time>2026-03-28T13:21:56Z</time></trkpt><trkpt lat="45.8127431650237" lon="11.079961704138466"><ele>838.6666666666667</ele><time>2026-03-28T13:21:57Z</time></trkpt><trkpt lat="45.81292622779271" lon="11.079953410719918"><ele>840.3333333333334</ele><time>2026-03-28T13:21:58Z</time></trkpt><trkpt lat="45.81311325814897" lon="11.079922690774206"><ele>842.0</ele><time>2026-03-28T13:21:59Z</time></trkpt><trkpt lat="45.813287636213744" lon="11.079858395219611"><ele>842.0</ele><time>2026-03-28T13:22:00Z</time></trkpt><trkpt lat="45.813452930272696" lon="11.079764181677044"><ele>842.0</ele><time>2026-03-28T13:22:01Z</time></trkpt><trkpt lat="45.81361857574355" lon="11.079636721639837"><ele>842.0</ele><time>2026-03-28T13:22:02Z</time></trkpt><trkpt lat="45.81378573474569" lon="11.079505721118098"><ele>838.3333333333334</ele><time>2026-03-28T13:22:03Z</time></trkpt><trkpt lat="45.813949982018485" lon="11.079399846260701"><ele>834.6666666666667</ele><time>2026-03-28T13:22:04Z</time></trkpt><trkpt lat="45.814124572458184" lon="11.079340397513228"><ele>831.0</ele><time>2026-03-28T13:22:05Z</time></trkpt><trkpt lat="45.81430155328637" lon="11.079326531044805"><ele>832.3333333333333</ele><time>2026-03-28T13:22:06Z</time></trkpt><trkpt lat="45.81447043925745" lon="11.07933170207717"><ele>833.6666666666666</ele><time>2026-03-28T13:22:06.999Z</time></trkpt><trkpt lat="45.81461907977087" lon="11.07934391028911"><ele>835.0</ele><time>2026-03-28T13:22:07.999Z</time></trkpt><trkpt lat="45.814752217447904" lon="11.079293963456506"><ele>835.0</ele><time>2026-03-28T13:22:08.999Z</time></trkpt><trkpt lat="45.81486392574489" lon="11.079241700580244"><ele>835.0</ele><time>2026-03-28T13:22:09.999Z</time></trkpt><trkpt lat="45.814954307302735" lon="11.079155297930793"><ele>835.0</ele><time>2026-03-28T13:22:10.999Z</time></trkpt><trkpt lat="45.815043721713344" lon="11.079059173189764"><ele>835.0</ele><time>2026-03-28T13:22:11.999Z</time></trkpt><trkpt lat="45.815136024682445" lon="11.07898641362755"><ele>835.0</ele><time>2026-03-28T13:22:12.999Z</time></trkpt><trkpt lat="45.81523216016701" lon="11.07892930726202"><ele>836.75</ele><time>2026-03-28T13:22:13.999Z</time></trkpt><trkpt lat="45.81532531051797" lon="11.078835454126217"><ele>838.5</ele><time>2026-03-28T13:22:14.999Z</time></trkpt><trkpt lat="45.815423054158266" lon="11.078721911100027"><ele>840.25</ele><time>2026-03-28T13:22:15.999Z</time></trkpt><trkpt lat="45.815515194399204" lon="11.078600491620147"><ele>842.0</ele><time>2026-03-28T13:22:16.999Z</time></trkpt><trkpt lat="45.81560087836555" lon="11.078487040846834"><ele>842.0</ele><time>2026-03-28T13:22:17.999Z</time></trkpt><trkpt lat="45.815686592436144" lon="11.078396395039716"><ele>842.0</ele><time>2026-03-28T13:22:18.999Z</time></trkpt><trkpt lat="45.81575421904944" lon="11.078254514627199"><ele>842.0</ele><time>2026-03-28T13:22:19.999Z</time></trkpt><trkpt lat="45.815810195748114" lon="11.078105764611113"><ele>842.0</ele><time>2026-03-28T13:22:20.999Z</time></trkpt><trkpt lat="45.815877091505754" lon="11.077940846936974"><ele>842.25</ele><time>2026-03-28T13:22:21.999Z</time></trkpt><trkpt lat="45.815926831538704" lon="11.07777690106179"><ele>842.5</ele><time>2026-03-28T13:22:22.999Z</time></trkpt><trkpt lat="45.81599438794446" lon="11.077640854310259"><ele>842.75</ele><time>2026-03-28T13:22:23.999Z</time></trkpt><trkpt lat="45.81604518358469" lon="11.077479658323742"><ele>843.0</ele><time>2026-03-28T13:22:24.999Z</time></trkpt><trkpt lat="45.81610241360433" lon="11.077304613085253"><ele>830.0</ele><time>2026-03-28T13:22:25.999Z</time></trkpt><trkpt lat="45.816148503774215" lon="11.07709850333944"><ele>817.0</ele><time>2026-03-28T13:22:26.999Z</time></trkpt><trkpt lat="45.81617709678407" lon="11.076867171662773"><ele>804.0</ele><time>2026-03-28T13:22:27.999Z</time></trkpt><trkpt lat="45.81622470028213" lon="11.076628001658234"><ele>805.0</ele><time>2026-03-28T13:22:28.999Z</time></trkpt><trkpt lat="45.81627662486602" lon="11.07637057863986"><ele>806.0</ele><time>2026-03-28T13:22:29.999Z</time></trkpt><trkpt lat="45.81632692131314" lon="11.076103176054"><ele>807.0</ele><time>2026-03-28T13:22:30.999Z</time></trkpt><trkpt lat="45.8163779505446" lon="11.075829889537594"><ele>809.0</ele><time>2026-03-28T13:22:31.999Z</time></trkpt><trkpt lat="45.816428338665006" lon="11.075556867092686"><ele>811.0</ele><time>2026-03-28T13:22:32.999Z</time></trkpt><trkpt lat="45.81647539294965" lon="11.075288105677984"><ele>813.0</ele><time>2026-03-28T13:22:33.999Z</time></trkpt><trkpt lat="45.816519967359525" lon="11.07502574662531"><ele>817.6666666666667</ele><time>2026-03-28T13:22:34.999Z</time></trkpt><trkpt lat="45.81656641370432" lon="11.074768794457231"><ele>822.3333333333334</ele><time>2026-03-28T13:22:36Z</time></trkpt><trkpt lat="45.81662457381998" lon="11.074515229109315"><ele>827.0</ele><time>2026-03-28T13:22:37Z</time></trkpt><trkpt lat="45.8167009832877" lon="11.074265470738078"><ele>832.3333333333334</ele><time>2026-03-28T13:22:38Z</time></trkpt><trkpt lat="45.81679869887832" lon="11.07402194380631"><ele>837.6666666666667</ele><time>2026-03-28T13:22:39Z</time></trkpt><trkpt lat="45.81692578641411" lon="11.073796514575179"><ele>843.0</ele><time>2026-03-28T13:22:40Z</time></trkpt><trkpt lat="45.81707370033409" lon="11.073588500664343"><ele>837.3333333333333</ele><time>2026-03-28T13:22:41Z</time></trkpt><trkpt lat="45.817237773640464" lon="11.073399046926363"><ele>831.6666666666666</ele><time>2026-03-28T13:22:42Z</time></trkpt><trkpt lat="45.817396202715166" lon="11.073215666293597"><ele>826.0</ele><time>2026-03-28T13:22:43Z</time></trkpt><trkpt lat="45.81755268949962" lon="11.0730403417988"><ele>820.3333333333333</ele><time>2026-03-28T13:22:44Z</time></trkpt><trkpt lat="45.81769718967528" lon="11.072858940361268"><ele>814.6666666666667</ele><time>2026-03-28T13:22:45Z</time></trkpt><trkpt lat="45.81783739516791" lon="11.07268296139765"><ele>809.0</ele><time>2026-03-28T13:22:46Z</time></trkpt><trkpt lat="45.81798604969764" lon="11.072525293906203"><ele>812.6666666666667</ele><time>2026-03-28T13:22:47Z</time></trkpt><trkpt lat="45.818148761934495" lon="11.07241256669002"><ele>816.3333333333333</ele><time>2026-03-28T13:22:48Z</time></trkpt><trkpt lat="45.81832605875065" lon="11.072326588072901"><ele>820.0</ele><time>2026-03-28T13:22:49Z</time></trkpt><trkpt lat="45.81851723860691" lon="11.072256791712602"><ele>820.0</ele><time>2026-03-28T13:22:50Z</time></trkpt><trkpt lat="45.818708658422196" lon="11.072189010574913"><ele>820.0</ele><time>2026-03-28T13:22:51Z</time></trkpt><trkpt lat="45.81889144589789" lon="11.072121489053519"><ele>820.0</ele><time>2026-03-28T13:22:52Z</time></trkpt><trkpt lat="45.819066032314886" lon="11.072035354412424"><ele>820.0</ele><time>2026-03-28T13:22:53Z</time></trkpt><trkpt lat="45.81923479396478" lon="11.07195944306262"><ele>820.0</ele><time>2026-03-28T13:22:54Z</time></trkpt><trkpt lat="45.81938275013054" lon="11.071850224948445"><ele>820.0</ele><time>2026-03-28T13:22:55Z</time></trkpt><trkpt lat="45.81951507272853" lon="11.071691309156162"><ele>812.3333333333333</ele><time>2026-03-28T13:22:56Z</time></trkpt><trkpt lat="45.819605527389214" lon="11.071490501841671"><ele>804.6666666666667</ele><time>2026-03-28T13:22:57Z</time></trkpt><trkpt lat="45.81968807501069" lon="11.071274516990233"><ele>797.0</ele><time>2026-03-28T13:22:58Z</time></trkpt><trkpt lat="45.81976676936233" lon="11.071041094194507"><ele>797.0</ele><time>2026-03-28T13:22:59Z</time></trkpt><trkpt lat="45.81983705288867" lon="11.070800299344087"><ele>797.0</ele><time>2026-03-28T13:23:00Z</time></trkpt><trkpt lat="45.81991785583221" lon="11.070591385568896"><ele>797.0</ele><time>2026-03-28T13:23:01Z</time></trkpt><trkpt lat="45.820007011786586" lon="11.070399812307954"><ele>804.3333333333334</ele><time>2026-03-28T13:23:02Z</time></trkpt><trkpt lat="45.82013196493768" lon="11.070253549694895"><ele>811.6666666666667</ele><time>2026-03-28T13:23:03Z</time></trkpt><trkpt lat="45.82027954537238" lon="11.070147961431003"><ele>819.0</ele><time>2026-03-28T13:23:04Z</time></trkpt><trkpt lat="45.820437813385965" lon="11.070071203352116"><ele>820.3333333333333</ele><time>2026-03-28T13:23:05Z</time></trkpt><trkpt lat="45.8206116649892" lon="11.070044089265258"><ele>821.6666666666666</ele><time>2026-03-28T13:23:06Z</time></trkpt><trkpt lat="45.82077891875626" lon="11.070068258433128"><ele>823.0</ele><time>2026-03-28T13:23:07Z</time></trkpt><trkpt lat="45.82093694460366" lon="11.070171730916437"><ele>825.0</ele><time>2026-03-28T13:23:08Z</time></trkpt><trkpt lat="45.82110129677341" lon="11.07029954445522"><ele>827.0</ele><time>2026-03-28T13:23:09Z</time></trkpt><trkpt lat="45.82127858974019" lon="11.07042066058572"><ele>829.0</ele><time>2026-03-28T13:23:10Z</time></trkpt><trkpt lat="45.821447686658935" lon="11.070576239870075"><ele>829.0</ele><time>2026-03-28T13:23:11Z</time></trkpt><trkpt lat="45.821631463601136" lon="11.070718530145928"><ele>829.0</ele><time>2026-03-28T13:23:12Z</time></trkpt><trkpt lat="45.82179572337292" lon="11.070850750784984"><ele>829.0</ele><time>2026-03-28T13:23:13Z</time></trkpt><trkpt lat="45.82193253749943" lon="11.070964100475539"><ele>823.25</ele><time>2026-03-28T13:23:14Z</time></trkpt><trkpt lat="45.82205838573065" lon="11.07105296476186"><ele>817.5</ele><time>2026-03-28T13:23:15Z</time></trkpt><trkpt lat="45.822170008849774" lon="11.07111309320426"><ele>811.75</ele><time>2026-03-28T13:23:16Z</time></trkpt><trkpt lat="45.822293017615515" lon="11.071126174905904"><ele>806.0</ele><time>2026-03-28T13:23:17Z</time></trkpt><trkpt lat="45.82242431903862" lon="11.071071623628066"><ele>806.0</ele><time>2026-03-28T13:23:18Z</time></trkpt><trkpt lat="45.822563285266924" lon="11.07099147057965"><ele>806.0</ele><time>2026-03-28T13:23:19Z</time></trkpt><trkpt lat="45.82270094645642" lon="11.070888460307776"><ele>806.0</ele><time>2026-03-28T13:23:20Z</time></trkpt><trkpt lat="45.82283444195257" lon="11.070756679967197"><ele>802.6666666666667</ele><time>2026-03-28T13:23:21Z</time></trkpt><trkpt lat="45.82295729462606" lon="11.070585305874694"><ele>799.3333333333333</ele><time>2026-03-28T13:23:22Z</time></trkpt><trkpt lat="45.823080388953116" lon="11.070380840212648"><ele>796.0</ele><time>2026-03-28T13:23:23Z</time></trkpt><trkpt lat="45.82321136422442" lon="11.070178749496115"><ele>796.0</ele><time>2026-03-28T13:23:24Z</time></trkpt><trkpt lat="45.8233437028089" lon="11.06996821140987"><ele>796.0</ele><time>2026-03-28T13:23:25Z</time></trkpt><trkpt lat="45.82347629780825" lon="11.069755692408869"><ele>796.0</ele><time>2026-03-28T13:23:26Z</time></trkpt><trkpt lat="45.823605161038074" lon="11.069538698470623"><ele>792.3333333333333</ele><time>2026-03-28T13:23:27Z</time></trkpt><trkpt lat="45.823727054166795" lon="11.069313840344103"><ele>788.6666666666667</ele><time>2026-03-28T13:23:28Z</time></trkpt><trkpt lat="45.82384878225338" lon="11.069101457176972"><ele>785.0</ele><time>2026-03-28T13:23:29Z</time></trkpt><trkpt lat="45.82395568586468" lon="11.068901138793272"><ele>785.0</ele><time>2026-03-28T13:23:30Z</time></trkpt><trkpt lat="45.82404905586825" lon="11.068704810785462"><ele>785.0</ele><time>2026-03-28T13:23:31Z</time></trkpt><trkpt lat="45.82411320100722" lon="11.068521778133853"><ele>785.0</ele><time>2026-03-28T13:23:32Z</time></trkpt><trkpt lat="45.824143740024894" lon="11.068324319042835"><ele>785.0</ele><time>2026-03-28T13:23:33Z</time></trkpt><trkpt lat="45.824145900852336" lon="11.068126027111738"><ele>786.5</ele><time>2026-03-28T13:23:34Z</time></trkpt><trkpt lat="45.82415092947124" lon="11.067926742677377"><ele>788.0</ele><time>2026-03-28T13:23:35Z</time></trkpt><trkpt lat="45.8241847669165" lon="11.067735793872664"><ele>789.5</ele><time>2026-03-28T13:23:36Z</time></trkpt><trkpt lat="45.824250030226466" lon="11.067558096237258"><ele>791.0</ele><time>2026-03-28T13:23:37Z</time></trkpt><trkpt lat="45.82434910077433" lon="11.067410349915491"><ele>796.3333333333334</ele><time>2026-03-28T13:23:38Z</time></trkpt><trkpt lat="45.82447242063586" lon="11.067295649625487"><ele>801.6666666666667</ele><time>2026-03-28T13:23:39Z</time></trkpt><trkpt lat="45.824625804288786" lon="11.067249432459631"><ele>807.0</ele><time>2026-03-28T13:23:40Z</time></trkpt><trkpt lat="45.82478572359781" lon="11.067190364545112"><ele>807.0</ele><time>2026-03-28T13:23:41Z</time></trkpt><trkpt lat="45.824952334141756" lon="11.067164140864483"><ele>807.0</ele><time>2026-03-28T13:23:42Z</time></trkpt><trkpt lat="45.82511429477599" lon="11.067142921158258"><ele>807.0</ele><time>2026-03-28T13:23:43Z</time></trkpt><trkpt lat="45.825276599172135" lon="11.067161498313036"><ele>812.0</ele><time>2026-03-28T13:23:44Z</time></trkpt><trkpt lat="45.82543120163741" lon="11.067222175796207"><ele>817.0</ele><time>2026-03-28T13:23:45Z</time></trkpt><trkpt lat="45.825575004479155" lon="11.067321748979868"><ele>822.0</ele><time>2026-03-28T13:23:46Z</time></trkpt><trkpt lat="45.82569792981173" lon="11.06746618442806"><ele>808.0</ele><time>2026-03-28T13:23:47Z</time></trkpt><trkpt lat="45.82581820039979" lon="11.067595664330497"><ele>794.0</ele><time>2026-03-28T13:23:48Z</time></trkpt><trkpt lat="45.82596164768017" lon="11.06768970476663"><ele>780.0</ele><time>2026-03-28T13:23:49Z</time></trkpt><trkpt lat="45.826110395744514" lon="11.067756945485867"><ele>780.0</ele><time>2026-03-28T13:23:50Z</time></trkpt><trkpt lat="45.82627023735408" lon="11.067776211586764"><ele>780.0</ele><time>2026-03-28T13:23:51Z</time></trkpt><trkpt lat="45.826438656311694" lon="11.067756179040376"><ele>780.0</ele><time>2026-03-28T13:23:52Z</time></trkpt><trkpt lat="45.826619455993594" lon="11.067698032599164"><ele>780.0</ele><time>2026-03-28T13:23:53Z</time></trkpt><trkpt lat="45.82680620490063" lon="11.067642894770913"><ele>780.0</ele><time>2026-03-28T13:23:54Z</time></trkpt><trkpt lat="45.82700183713256" lon="11.0675928790968"><ele>780.0</ele><time>2026-03-28T13:23:55Z</time></trkpt><trkpt lat="45.82721231719971" lon="11.067548001578833"><ele>780.6666666666667</ele><time>2026-03-28T13:23:56Z</time></trkpt><trkpt lat="45.827434528439646" lon="11.067501288648181"><ele>781.3333333333334</ele><time>2026-03-28T13:23:57Z</time></trkpt><trkpt lat="45.827647743464546" lon="11.067439015913834"><ele>782.0</ele><time>2026-03-28T13:23:58Z</time></trkpt><trkpt lat="45.8278513033532" lon="11.067382200655977"><ele>782.0</ele><time>2026-03-28T13:23:59Z</time></trkpt><trkpt lat="45.82804500142993" lon="11.067330055225545"><ele>782.0</ele><time>2026-03-28T13:24:00Z</time></trkpt><trkpt lat="45.828238568681826" lon="11.06728108853619"><ele>782.0</ele><time>2026-03-28T13:24:01Z</time></trkpt><trkpt lat="45.828429201910645" lon="11.067230715538766"><ele>775.0</ele><time>2026-03-28T13:24:01.999Z</time></trkpt><trkpt lat="45.82861578686333" lon="11.067184983660683"><ele>768.0</ele><time>2026-03-28T13:24:02.999Z</time></trkpt><trkpt lat="45.8288000618391" lon="11.067139769736341"><ele>761.0</ele><time>2026-03-28T13:24:03.999Z</time></trkpt><trkpt lat="45.82897068164579" lon="11.0670851726824"><ele>761.0</ele><time>2026-03-28T13:24:04.999Z</time></trkpt><trkpt lat="45.82912833459518" lon="11.067009160701264"><ele>761.0</ele><time>2026-03-28T13:24:05.999Z</time></trkpt><trkpt lat="45.8292761573611" lon="11.066894372108676"><ele>761.0</ele><time>2026-03-28T13:24:06.999Z</time></trkpt><trkpt lat="45.82941180609694" lon="11.066732935287657"><ele>749.3333333333333</ele><time>2026-03-28T13:24:07.999Z</time></trkpt><trkpt lat="45.82952195587907" lon="11.066542185431988"><ele>737.6666666666666</ele><time>2026-03-28T13:24:08.999Z</time></trkpt><trkpt lat="45.82960158065869" lon="11.066337141341178"><ele>726.0</ele><time>2026-03-28T13:24:09.999Z</time></trkpt><trkpt lat="45.82965208242819" lon="11.066114957006565"><ele>726.0</ele><time>2026-03-28T13:24:10.999Z</time></trkpt><trkpt lat="45.82967825542318" lon="11.065862232288604"><ele>726.0</ele><time>2026-03-28T13:24:11.999Z</time></trkpt><trkpt lat="45.82969041386773" lon="11.065587392492072"><ele>726.0</ele><time>2026-03-28T13:24:12.999Z</time></trkpt><trkpt lat="45.829686025780816" lon="11.065294665394195"><ele>722.6666666666666</ele><time>2026-03-28T13:24:13.999Z</time></trkpt><trkpt lat="45.82968134675841" lon="11.065019728248707"><ele>719.3333333333333</ele><time>2026-03-28T13:24:14.999Z</time></trkpt><trkpt lat="45.82970072259819" lon="11.064759521732807"><ele>716.0</ele><time>2026-03-28T13:24:15.999Z</time></trkpt><trkpt lat="45.82970735164864" lon="11.064517332480012"><ele>715.0</ele><time>2026-03-28T13:24:16.999Z</time></trkpt><trkpt lat="45.82973080968276" lon="11.064283965944187"><ele>714.0</ele><time>2026-03-28T13:24:17.999Z</time></trkpt><trkpt lat="45.82977361789364" lon="11.064057638188393"><ele>713.0</ele><time>2026-03-28T13:24:18.999Z</time></trkpt><trkpt lat="45.82983443788118" lon="11.06384306970963"><ele>713.0</ele><time>2026-03-28T13:24:19.999Z</time></trkpt><trkpt lat="45.8299066528257" lon="11.06361701047844"><ele>713.0</ele><time>2026-03-28T13:24:20.999Z</time></trkpt><trkpt lat="45.83000891419992" lon="11.063413873633388"><ele>713.0</ele><time>2026-03-28T13:24:21.999Z</time></trkpt><trkpt lat="45.83013479140044" lon="11.063238645652145"><ele>718.0</ele><time>2026-03-28T13:24:22.999Z</time></trkpt><trkpt lat="45.83026271571105" lon="11.063085665674167"><ele>723.0</ele><time>2026-03-28T13:24:23.999Z</time></trkpt><trkpt lat="45.83040496974853" lon="11.062968265851834"><ele>728.0</ele><time>2026-03-28T13:24:24.999Z</time></trkpt><trkpt lat="45.830554145130336" lon="11.06287193652993"><ele>728.0</ele><time>2026-03-28T13:24:25.999Z</time></trkpt><trkpt lat="45.83071112228488" lon="11.062794211203194"><ele>728.0</ele><time>2026-03-28T13:24:26.999Z</time></trkpt><trkpt lat="45.83088577836657" lon="11.06275197406412"><ele>728.0</ele><time>2026-03-28T13:24:27.999Z</time></trkpt><trkpt lat="45.831070350849124" lon="11.06274288069156"><ele>736.6666666666666</ele><time>2026-03-28T13:24:28.999Z</time></trkpt><trkpt lat="45.831254767954455" lon="11.062777128526339"><ele>745.3333333333334</ele><time>2026-03-28T13:24:29.999Z</time></trkpt><trkpt lat="45.83143722448955" lon="11.062849166245964"><ele>754.0</ele><time>2026-03-28T13:24:30.999Z</time></trkpt><trkpt lat="45.831611411612116" lon="11.062943407808854"><ele>754.0</ele><time>2026-03-28T13:24:31.999Z</time></trkpt><trkpt lat="45.83177009263699" lon="11.063075235126863"><ele>754.0</ele><time>2026-03-28T13:24:32.999Z</time></trkpt><trkpt lat="45.83191709702324" lon="11.063229900085329"><ele>754.0</ele><time>2026-03-28T13:24:33.999Z</time></trkpt><trkpt lat="45.83204359215303" lon="11.06341563692373"><ele>756.6666666666667</ele><time>2026-03-28T13:24:34.999Z</time></trkpt><trkpt lat="45.83215723875283" lon="11.06360125396697"><ele>759.3333333333334</ele><time>2026-03-28T13:24:35.999Z</time></trkpt><trkpt lat="45.83226812642115" lon="11.063750428200747"><ele>762.0</ele><time>2026-03-28T13:24:36.999Z</time></trkpt><trkpt lat="45.83238967669477" lon="11.06384066790487"><ele>762.0</ele><time>2026-03-28T13:24:37.999Z</time></trkpt><trkpt lat="45.83253146265132" lon="11.063885167711238"><ele>762.0</ele><time>2026-03-28T13:24:38.999Z</time></trkpt><trkpt lat="45.832679036839394" lon="11.063871260828986"><ele>762.0</ele><time>2026-03-28T13:24:39.999Z</time></trkpt><trkpt lat="45.832832719993505" lon="11.063818965304362"><ele>766.3333333333333</ele><time>2026-03-28T13:24:40.999Z</time></trkpt><trkpt lat="45.83298731871903" lon="11.063752803187983"><ele>770.6666666666666</ele><time>2026-03-28T13:24:42Z</time></trkpt><trkpt lat="45.83314708899257" lon="11.063695697948596"><ele>775.0</ele><time>2026-03-28T13:24:43Z</time></trkpt><trkpt lat="45.83331183984476" lon="11.063636121022896"><ele>775.0</ele><time>2026-03-28T13:24:44Z</time></trkpt><trkpt lat="45.833470452655384" lon="11.063592089297414"><ele>775.0</ele><time>2026-03-28T13:24:45Z</time></trkpt><trkpt lat="45.833632618681506" lon="11.063600392620897"><ele>775.0</ele><time>2026-03-28T13:24:46Z</time></trkpt><trkpt lat="45.833778087739844" lon="11.06367590509328"><ele>778.3333333333333</ele><time>2026-03-28T13:24:47Z</time></trkpt><trkpt lat="45.833926316135944" lon="11.0637662312235"><ele>781.6666666666667</ele><time>2026-03-28T13:24:48Z</time></trkpt><trkpt lat="45.834083124396884" lon="11.063837188531915"><ele>785.0</ele><time>2026-03-28T13:24:49Z</time></trkpt><trkpt lat="45.83424157396577" lon="11.06387346205628"><ele>782.0</ele><time>2026-03-28T13:24:50Z</time></trkpt><trkpt lat="45.83441276880041" lon="11.063875555049258"><ele>779.0</ele><time>2026-03-28T13:24:51Z</time></trkpt><trkpt lat="45.834580510393394" lon="11.063852473211433"><ele>776.0</ele><time>2026-03-28T13:24:52Z</time></trkpt><trkpt lat="45.8347509477558" lon="11.063785091287842"><ele>776.0</ele><time>2026-03-28T13:24:53Z</time></trkpt><trkpt lat="45.8349213629041" lon="11.063682196183393"><ele>776.0</ele><time>2026-03-28T13:24:54Z</time></trkpt><trkpt lat="45.83509016206255" lon="11.063548529790118"><ele>776.0</ele><time>2026-03-28T13:24:55Z</time></trkpt><trkpt lat="45.835261859067764" lon="11.063433508819235"><ele>773.6666666666667</ele><time>2026-03-28T13:24:56Z</time></trkpt><trkpt lat="45.835433543560725" lon="11.063362773186853"><ele>771.3333333333333</ele><time>2026-03-28T13:24:57Z</time></trkpt><trkpt lat="45.835621313811416" lon="11.063351763872344"><ele>769.0</ele><time>2026-03-28T13:24:58Z</time></trkpt><trkpt lat="45.835814320262244" lon="11.063396193823603"><ele>774.3333333333333</ele><time>2026-03-28T13:24:59Z</time></trkpt><trkpt lat="45.836017613513434" lon="11.06348129498146"><ele>779.6666666666667</ele><time>2026-03-28T13:25:00Z</time></trkpt><trkpt lat="45.836227401350705" lon="11.063565285960612"><ele>785.0</ele><time>2026-03-28T13:25:01Z</time></trkpt><trkpt lat="45.83645397015651" lon="11.063636958076382"><ele>785.0</ele><time>2026-03-28T13:25:02Z</time></trkpt><trkpt lat="45.83668801047741" lon="11.06369947936756"><ele>785.0</ele><time>2026-03-28T13:25:03Z</time></trkpt><trkpt lat="45.8369113366096" lon="11.063774805543426"><ele>787.0</ele><time>2026-03-28T13:25:04Z</time></trkpt><trkpt lat="45.83711954913859" lon="11.063843329226922"><ele>789.0</ele><time>2026-03-28T13:25:05Z</time></trkpt><trkpt lat="45.83731778084054" lon="11.06390533222781"><ele>791.0</ele><time>2026-03-28T13:25:06Z</time></trkpt><trkpt lat="45.83750314189879" lon="11.06395418166042"><ele>789.6666666666667</ele><time>2026-03-28T13:25:07Z</time></trkpt><trkpt lat="45.837682483859794" lon="11.063978600952302"><ele>788.3333333333333</ele><time>2026-03-28T13:25:08Z</time></trkpt><trkpt lat="45.83786432130704" lon="11.063980729812776"><ele>787.0</ele><time>2026-03-28T13:25:09Z</time></trkpt><trkpt lat="45.838052903483664" lon="11.063955109152557"><ele>787.0</ele><time>2026-03-28T13:25:10Z</time></trkpt><trkpt lat="45.838252355553976" lon="11.063904475905586"><ele>787.0</ele><time>2026-03-28T13:25:11Z</time></trkpt><trkpt lat="45.83846303223425" lon="11.063850452353853"><ele>787.0</ele><time>2026-03-28T13:25:12Z</time></trkpt><trkpt lat="45.83866697943163" lon="11.063799720167259"><ele>784.0</ele><time>2026-03-28T13:25:13Z</time></trkpt><trkpt lat="45.83885539322047" lon="11.063751248635121"><ele>781.0</ele><time>2026-03-28T13:25:14Z</time></trkpt><trkpt lat="45.8390307003572" lon="11.063706570137365"><ele>778.0</ele><time>2026-03-28T13:25:15Z</time></trkpt><trkpt lat="45.8391964561229" lon="11.063654971951417"><ele>776.6666666666666</ele><time>2026-03-28T13:25:16Z</time></trkpt><trkpt lat="45.83935359919073" lon="11.063589095251164"><ele>775.3333333333333</ele><time>2026-03-28T13:25:17Z</time></trkpt><trkpt lat="45.83951440141458" lon="11.063504843575561"><ele>774.0</ele><time>2026-03-28T13:25:18Z</time></trkpt><trkpt lat="45.83967520339519" lon="11.063399171871806"><ele>772.6666666666667</ele><time>2026-03-28T13:25:19Z</time></trkpt><trkpt lat="45.8398405271601" lon="11.063274851568014"><ele>771.3333333333334</ele><time>2026-03-28T13:25:20Z</time></trkpt><trkpt lat="45.84000543123658" lon="11.063138900804383"><ele>770.0</ele><time>2026-03-28T13:25:21Z</time></trkpt><trkpt lat="45.84016187940322" lon="11.06301002688674"><ele>770.0</ele><time>2026-03-28T13:25:22Z</time></trkpt><trkpt lat="45.84029850344133" lon="11.06289248448022"><ele>770.0</ele><time>2026-03-28T13:25:23Z</time></trkpt><trkpt lat="45.84042133819809" lon="11.062781863940325"><ele>770.0</ele><time>2026-03-28T13:25:24Z</time></trkpt><trkpt lat="45.84054625969741" lon="11.062675183837074"><ele>770.0</ele><time>2026-03-28T13:25:25Z</time></trkpt><trkpt lat="45.840677018315084" lon="11.062585778708804"><ele>770.0</ele><time>2026-03-28T13:25:26Z</time></trkpt><trkpt lat="45.84081138582907" lon="11.062479426967853"><ele>770.0</ele><time>2026-03-28T13:25:27Z</time></trkpt><trkpt lat="45.840955249056464" lon="11.062379110041606"><ele>768.6666666666667</ele><time>2026-03-28T13:25:28Z</time></trkpt><trkpt lat="45.841115061980034" lon="11.06229654193008"><ele>767.3333333333334</ele><time>2026-03-28T13:25:29Z</time></trkpt><trkpt lat="45.841293997027385" lon="11.062216343771297"><ele>766.0</ele><time>2026-03-28T13:25:30Z</time></trkpt><trkpt lat="45.8414833345394" lon="11.062129792564102"><ele>766.0</ele><time>2026-03-28T13:25:31Z</time></trkpt><trkpt lat="45.84168248081296" lon="11.062032565660886"><ele>766.0</ele><time>2026-03-28T13:25:32Z</time></trkpt><trkpt lat="45.84188306663682" lon="11.061944121308198"><ele>766.0</ele><time>2026-03-28T13:25:33Z</time></trkpt><trkpt lat="45.842083411122694" lon="11.061863695214306"><ele>763.0</ele><time>2026-03-28T13:25:34Z</time></trkpt><trkpt lat="45.842274150604" lon="11.06178393580752"><ele>760.0</ele><time>2026-03-28T13:25:35Z</time></trkpt><trkpt lat="45.84245769353288" lon="11.061708833829577"><ele>757.0</ele><time>2026-03-28T13:25:36Z</time></trkpt><trkpt lat="45.84263169616309" lon="11.061629566429678"><ele>759.3333333333334</ele><time>2026-03-28T13:25:37Z</time></trkpt><trkpt lat="45.84279403441876" lon="11.061537046318431"><ele>761.6666666666666</ele><time>2026-03-28T13:25:38Z</time></trkpt><trkpt lat="45.8429512735716" lon="11.061427184326783"><ele>764.0</ele><time>2026-03-28T13:25:39Z</time></trkpt><trkpt lat="45.84311842082387" lon="11.06130638620786"><ele>764.0</ele><time>2026-03-28T13:25:40Z</time></trkpt><trkpt lat="45.84328968699994" lon="11.061170258336873"><ele>764.0</ele><time>2026-03-28T13:25:41Z</time></trkpt><trkpt lat="45.84346204226323" lon="11.061028951371283"><ele>764.0</ele><time>2026-03-28T13:25:42Z</time></trkpt><trkpt lat="45.843629579506874" lon="11.060898400102886"><ele>764.6666666666666</ele><time>2026-03-28T13:25:43Z</time></trkpt><trkpt lat="45.843789951036975" lon="11.060775789339148"><ele>765.3333333333334</ele><time>2026-03-28T13:25:44Z</time></trkpt><trkpt lat="45.84394260496829" lon="11.060660994749558"><ele>766.0</ele><time>2026-03-28T13:25:45Z</time></trkpt><trkpt lat="45.844089306002594" lon="11.060541591766041"><ele>766.0</ele><time>2026-03-28T13:25:46Z</time></trkpt><trkpt lat="45.84422673266357" lon="11.060409384697875"><ele>766.0</ele><time>2026-03-28T13:25:47Z</time></trkpt><trkpt lat="45.8443487289921" lon="11.06025281701676"><ele>766.0</ele><time>2026-03-28T13:25:48Z</time></trkpt><trkpt lat="45.8444487778135" lon="11.060074904037508"><ele>763.6666666666667</ele><time>2026-03-28T13:25:49Z</time></trkpt><trkpt lat="45.84453474405845" lon="11.059885495898262"><ele>761.3333333333334</ele><time>2026-03-28T13:25:50Z</time></trkpt><trkpt lat="45.84464348206311" lon="11.059724485840412"><ele>759.0</ele><time>2026-03-28T13:25:51Z</time></trkpt><trkpt lat="45.84476158048274" lon="11.059584979173483"><ele>759.0</ele><time>2026-03-28T13:25:52Z</time></trkpt><trkpt lat="45.84489257783328" lon="11.05946673350963"><ele>759.0</ele><time>2026-03-28T13:25:53Z</time></trkpt><trkpt lat="45.845062599459574" lon="11.059400581705095"><ele>759.0</ele><time>2026-03-28T13:25:54Z</time></trkpt><trkpt lat="45.84524972561382" lon="11.059349565329885"><ele>757.3333333333334</ele><time>2026-03-28T13:25:55Z</time></trkpt><trkpt lat="45.84542769095074" lon="11.059294338095807"><ele>755.6666666666667</ele><time>2026-03-28T13:25:56Z</time></trkpt><trkpt lat="45.84561565417287" lon="11.059225669085068"><ele>754.0</ele><time>2026-03-28T13:25:57Z</time></trkpt><trkpt lat="45.84579770599503" lon="11.059159256573244"><ele>758.0</ele><time>2026-03-28T13:25:58Z</time></trkpt><trkpt lat="45.84597203243359" lon="11.059129183136559"><ele>762.0</ele><time>2026-03-28T13:25:59Z</time></trkpt><trkpt lat="45.846143085360694" lon="11.059152445990245"><ele>766.0</ele><time>2026-03-28T13:26:00Z</time></trkpt><trkpt lat="45.846309498583764" lon="11.05923436267156"><ele>766.0</ele><time>2026-03-28T13:26:01Z</time></trkpt><trkpt lat="45.84648161949403" lon="11.05934512637906"><ele>766.0</ele><time>2026-03-28T13:26:02Z</time></trkpt><trkpt lat="45.8466527336584" lon="11.05947476552174"><ele>766.0</ele><time>2026-03-28T13:26:03Z</time></trkpt><trkpt lat="45.846797648235" lon="11.059573901912964"><ele>761.25</ele><time>2026-03-28T13:26:04Z</time></trkpt><trkpt lat="45.846931167638274" lon="11.059625706966967"><ele>756.5</ele><time>2026-03-28T13:26:04.999Z</time></trkpt><trkpt lat="45.84706068614284" lon="11.059615838372736"><ele>751.75</ele><time>2026-03-28T13:26:05.999Z</time></trkpt><trkpt lat="45.84720276598614" lon="11.05955062659594"><ele>747.0</ele><time>2026-03-28T13:26:06.999Z</time></trkpt><trkpt lat="45.847348154206415" lon="11.059441459452875"><ele>747.0</ele><time>2026-03-28T13:26:07.999Z</time></trkpt><trkpt lat="45.847500055429244" lon="11.059314619327417"><ele>747.0</ele><time>2026-03-28T13:26:08.999Z</time></trkpt><trkpt lat="45.847662181792806" lon="11.059200438025924"><ele>747.0</ele><time>2026-03-28T13:26:09.999Z</time></trkpt><trkpt lat="45.84784217870355" lon="11.059084214516654"><ele>754.6666666666667</ele><time>2026-03-28T13:26:10.999Z</time></trkpt><trkpt lat="45.848018710783585" lon="11.058996800376955"><ele>762.3333333333334</ele><time>2026-03-28T13:26:11.999Z</time></trkpt><trkpt lat="45.848206812977395" lon="11.058975519647582"><ele>770.0</ele><time>2026-03-28T13:26:12.999Z</time></trkpt><trkpt lat="45.84840423460868" lon="11.058964125286419"><ele>767.0</ele><time>2026-03-28T13:26:13.999Z</time></trkpt><trkpt lat="45.848607803168036" lon="11.05896605964883"><ele>764.0</ele><time>2026-03-28T13:26:14.999Z</time></trkpt><trkpt lat="45.84881320033148" lon="11.058954159797057"><ele>761.0</ele><time>2026-03-28T13:26:15.999Z</time></trkpt><trkpt lat="45.8490124443107" lon="11.058906870630643"><ele>761.0</ele><time>2026-03-28T13:26:16.999Z</time></trkpt><trkpt lat="45.849196881160346" lon="11.05883557961995"><ele>761.0</ele><time>2026-03-28T13:26:17.999Z</time></trkpt><trkpt lat="45.8493733967239" lon="11.058766439991093"><ele>761.0</ele><time>2026-03-28T13:26:18.999Z</time></trkpt><trkpt lat="45.84954129490181" lon="11.058726364043824"><ele>761.6666666666666</ele><time>2026-03-28T13:26:19.999Z</time></trkpt><trkpt lat="45.849722157737986" lon="11.058703196267702"><ele>762.3333333333334</ele><time>2026-03-28T13:26:20.999Z</time></trkpt><trkpt lat="45.8499191436936" lon="11.058709947655641"><ele>763.0</ele><time>2026-03-28T13:26:21.999Z</time></trkpt><trkpt lat="45.85012457165547" lon="11.058747214495996"><ele>764.6666666666667</ele><time>2026-03-28T13:26:22.999Z</time></trkpt><trkpt lat="45.85033662328801" lon="11.058799892353846"><ele>766.3333333333334</ele><time>2026-03-28T13:26:23.999Z</time></trkpt><trkpt lat="45.85055374831663" lon="11.058857093606177"><ele>768.0</ele><time>2026-03-28T13:26:24.999Z</time></trkpt><trkpt lat="45.85076325454804" lon="11.05890779627113"><ele>770.0</ele><time>2026-03-28T13:26:25.999Z</time></trkpt><trkpt lat="45.850967696843114" lon="11.058950836219905"><ele>772.0</ele><time>2026-03-28T13:26:26.999Z</time></trkpt><trkpt lat="45.85116459780596" lon="11.058988907415268"><ele>774.0</ele><time>2026-03-28T13:26:27.999Z</time></trkpt><trkpt lat="45.85136071730687" lon="11.05903079922591"><ele>774.0</ele><time>2026-03-28T13:26:28.999Z</time></trkpt><trkpt lat="45.851556687402585" lon="11.059078976233554"><ele>774.0</ele><time>2026-03-28T13:26:29.999Z</time></trkpt><trkpt lat="45.85175577802324" lon="11.05912987096093"><ele>774.0</ele><time>2026-03-28T13:26:30.999Z</time></trkpt><trkpt lat="45.851962045441944" lon="11.059185618721422"><ele>763.0</ele><time>2026-03-28T13:26:31.999Z</time></trkpt><trkpt lat="45.85217111523137" lon="11.059247743612882"><ele>752.0</ele><time>2026-03-28T13:26:32.999Z</time></trkpt><trkpt lat="45.85237825334875" lon="11.059309839322072"><ele>741.0</ele><time>2026-03-28T13:26:33.999Z</time></trkpt><trkpt lat="45.852574408424736" lon="11.059373900978878"><ele>742.6666666666666</ele><time>2026-03-28T13:26:34.999Z</time></trkpt><trkpt lat="45.85276884442585" lon="11.05943870763158"><ele>744.3333333333333</ele><time>2026-03-28T13:26:35.999Z</time></trkpt><trkpt lat="45.85296197859721" lon="11.059503612222267"><ele>746.0</ele><time>2026-03-28T13:26:36.999Z</time></trkpt><trkpt lat="45.85314991352591" lon="11.059570531673993"><ele>746.0</ele><time>2026-03-28T13:26:37.999Z</time></trkpt><trkpt lat="45.853336091258434" lon="11.059637169299556"><ele>746.0</ele><time>2026-03-28T13:26:38.999Z</time></trkpt><trkpt lat="45.85351655244297" lon="11.059705595011982"><ele>746.0</ele><time>2026-03-28T13:26:39.999Z</time></trkpt><trkpt lat="45.85369571694581" lon="11.059771362137774"><ele>746.6666666666666</ele><time>2026-03-28T13:26:40.999Z</time></trkpt><trkpt lat="45.85387138613695" lon="11.059830245691156"><ele>747.3333333333334</ele><time>2026-03-28T13:26:41.999Z</time></trkpt><trkpt lat="45.85404646089296" lon="11.059877071545415"><ele>748.0</ele><time>2026-03-28T13:26:42.999Z</time></trkpt><trkpt lat="45.8542229050534" lon="11.059904315498787"><ele>749.3333333333334</ele><time>2026-03-28T13:26:43.999Z</time></trkpt><trkpt lat="45.85440355321663" lon="11.059928355625468"><ele>750.6666666666666</ele><time>2026-03-28T13:26:44.999Z</time></trkpt><trkpt lat="45.854572796456964" lon="11.059955321377847"><ele>752.0</ele><time>2026-03-28T13:26:45.999Z</time></trkpt><trkpt lat="45.854747416097425" lon="11.059990417974383"><ele>741.0</ele><time>2026-03-28T13:26:47Z</time></trkpt><trkpt lat="45.854920927506285" lon="11.060032949332099"><ele>730.0</ele><time>2026-03-28T13:26:48Z</time></trkpt><trkpt lat="45.85508677452971" lon="11.060083309543124"><ele>719.0</ele><time>2026-03-28T13:26:49Z</time></trkpt><trkpt lat="45.85525083063505" lon="11.060133111111332"><ele>718.5</ele><time>2026-03-28T13:26:50Z</time></trkpt><trkpt lat="45.855407915072306" lon="11.060170597874565"><ele>718.0</ele><time>2026-03-28T13:26:51Z</time></trkpt><trkpt lat="45.85555259677191" lon="11.06021231349271"><ele>717.5</ele><time>2026-03-28T13:26:52Z</time></trkpt><trkpt lat="45.855684495704914" lon="11.060260145642886"><ele>717.0</ele><time>2026-03-28T13:26:53Z</time></trkpt><trkpt lat="45.855804794008456" lon="11.060336646397277"><ele>717.0</ele><time>2026-03-28T13:26:54Z</time></trkpt><trkpt lat="45.85591498295311" lon="11.060444898493852"><ele>717.0</ele><time>2026-03-28T13:26:55Z</time></trkpt><trkpt lat="45.856006364871476" lon="11.060540169009629"><ele>717.0</ele><time>2026-03-28T13:26:56Z</time></trkpt><trkpt lat="45.85608337723017" lon="11.060621164352876"><ele>717.0</ele><time>2026-03-28T13:26:57Z</time></trkpt><trkpt lat="45.85611236291283" lon="11.060722006755778"><ele>717.0</ele><time>2026-03-28T13:26:58Z</time></trkpt><trkpt lat="45.856124727084044" lon="11.060820264666829"><ele>715.3333333333334</ele><time>2026-03-28T13:26:59Z</time></trkpt><trkpt lat="45.85608575399923" lon="11.060913022046167"><ele>713.6666666666666</ele><time>2026-03-28T13:27:00Z</time></trkpt><trkpt lat="45.85606795054652" lon="11.061021890880722"><ele>712.0</ele><time>2026-03-28T13:27:01Z</time></trkpt><trkpt lat="45.85604196990855" lon="11.061148972410601"><ele>710.3333333333333</ele><time>2026-03-28T13:27:02Z</time></trkpt><trkpt lat="45.85601101357207" lon="11.0612682492901"><ele>708.6666666666666</ele><time>2026-03-28T13:27:03Z</time></trkpt><trkpt lat="45.85597397634223" lon="11.061377358842517"><ele>707.0</ele><time>2026-03-28T13:27:04Z</time></trkpt><trkpt lat="45.855939423199814" lon="11.061487955671804"><ele>706.0</ele><time>2026-03-28T13:27:05Z</time></trkpt><trkpt lat="45.855930080650495" lon="11.061585409829771"><ele>705.0</ele><time>2026-03-28T13:27:06Z</time></trkpt><trkpt lat="45.85597562763286" lon="11.061663175759085"><ele>704.0</ele><time>2026-03-28T13:27:07Z</time></trkpt><trkpt lat="45.85603859760891" lon="11.061716799499171"><ele>703.0</ele><time>2026-03-28T13:27:08Z</time></trkpt><trkpt lat="45.856125133146946" lon="11.061747542947803"><ele>702.0</ele><time>2026-03-28T13:27:09Z</time></trkpt><trkpt lat="45.856227679316106" lon="11.061788738987307"><ele>701.0</ele><time>2026-03-28T13:27:10Z</time></trkpt><trkpt lat="45.856347136180545" lon="11.06179638676028"><ele>699.0</ele><time>2026-03-28T13:27:11Z</time></trkpt><trkpt lat="45.85647838039717" lon="11.061777200551488"><ele>697.0</ele><time>2026-03-28T13:27:12Z</time></trkpt><trkpt lat="45.856620218708436" lon="11.061742840747494"><ele>695.0</ele><time>2026-03-28T13:27:13Z</time></trkpt><trkpt lat="45.8567791997769" lon="11.061720268706923"><ele>693.0</ele><time>2026-03-28T13:27:14Z</time></trkpt><trkpt lat="45.85696145164544" lon="11.061704104493758"><ele>689.6666666666666</ele><time>2026-03-28T13:27:15Z</time></trkpt><trkpt lat="45.85715186267304" lon="11.06168281605079"><ele>686.3333333333333</ele><time>2026-03-28T13:27:16Z</time></trkpt><trkpt lat="45.85734978278692" lon="11.061658155785933"><ele>683.0</ele><time>2026-03-28T13:27:17Z</time></trkpt><trkpt lat="45.85754616457917" lon="11.061638801096496"><ele>680.3333333333333</ele><time>2026-03-28T13:27:18Z</time></trkpt><trkpt lat="45.857741566483675" lon="11.061623006634262"><ele>677.6666666666666</ele><time>2026-03-28T13:27:19Z</time></trkpt><trkpt lat="45.857939999792045" lon="11.061609339911431"><ele>675.0</ele><time>2026-03-28T13:27:20Z</time></trkpt><trkpt lat="45.85813662019515" lon="11.061586236768886"><ele>685.6666666666666</ele><time>2026-03-28T13:27:21Z</time></trkpt><trkpt lat="45.85833747099012" lon="11.06155808176302"><ele>696.3333333333333</ele><time>2026-03-28T13:27:22Z</time></trkpt><trkpt lat="45.85853655500358" lon="11.061542758224567"><ele>707.0</ele><time>2026-03-28T13:27:23Z</time></trkpt><trkpt lat="45.85873793896245" lon="11.06155070860062"><ele>707.3333333333333</ele><time>2026-03-28T13:27:24Z</time></trkpt><trkpt lat="45.858937948038346" lon="11.061598619790871"><ele>707.6666666666666</ele><time>2026-03-28T13:27:25Z</time></trkpt><trkpt lat="45.859135613493855" lon="11.06168021222762"><ele>708.0</ele><time>2026-03-28T13:27:26Z</time></trkpt><trkpt lat="45.85932664917746" lon="11.061773658585468"><ele>698.3333333333334</ele><time>2026-03-28T13:27:27Z</time></trkpt><trkpt lat="45.85951523529" lon="11.06186548180262"><ele>688.6666666666667</ele><time>2026-03-28T13:27:28Z</time></trkpt><trkpt lat="45.85970869181267" lon="11.061958886743891"><ele>679.0</ele><time>2026-03-28T13:27:29Z</time></trkpt><trkpt lat="45.85989863686835" lon="11.06205334071366"><ele>679.0</ele><time>2026-03-28T13:27:30Z</time></trkpt><trkpt lat="45.86009287660263" lon="11.062149384033825"><ele>679.0</ele><time>2026-03-28T13:27:31Z</time></trkpt><trkpt lat="45.86028563202138" lon="11.062242836057814"><ele>679.0</ele><time>2026-03-28T13:27:32Z</time></trkpt><trkpt lat="45.86047998609081" lon="11.062340242206758"><ele>681.6666666666667</ele><time>2026-03-28T13:27:33Z</time></trkpt><trkpt lat="45.86067514568186" lon="11.062431434056757"><ele>684.3333333333334</ele><time>2026-03-28T13:27:34Z</time></trkpt><trkpt lat="45.86086968181721" lon="11.062527074809534"><ele>687.0</ele><time>2026-03-28T13:27:35Z</time></trkpt><trkpt lat="45.861061554276404" lon="11.062626629141478"><ele>674.0</ele><time>2026-03-28T13:27:36Z</time></trkpt><trkpt lat="45.86125386564268" lon="11.062724315991474"><ele>661.0</ele><time>2026-03-28T13:27:37Z</time></trkpt><trkpt lat="45.86144631498708" lon="11.06281675136602"><ele>648.0</ele><time>2026-03-28T13:27:38Z</time></trkpt><trkpt lat="45.861642520025505" lon="11.062903394851112"><ele>647.0</ele><time>2026-03-28T13:27:39Z</time></trkpt><trkpt lat="45.8618378364023" lon="11.062973635697132"><ele>646.0</ele><time>2026-03-28T13:27:40Z</time></trkpt><trkpt lat="45.86203867627929" lon="11.063031110276194"><ele>645.0</ele><time>2026-03-28T13:27:41Z</time></trkpt><trkpt lat="45.862238310459524" lon="11.063064480059696"><ele>645.0</ele><time>2026-03-28T13:27:42Z</time></trkpt><trkpt lat="45.86242867593911" lon="11.063087983262724"><ele>645.0</ele><time>2026-03-28T13:27:43Z</time></trkpt><trkpt lat="45.86261829264573" lon="11.063093691570336"><ele>645.0</ele><time>2026-03-28T13:27:44Z</time></trkpt><trkpt lat="45.862812166989606" lon="11.063083125064132"><ele>643.6666666666666</ele><time>2026-03-28T13:27:45Z</time></trkpt><trkpt lat="45.86300941421407" lon="11.0630758818126"><ele>642.3333333333333</ele><time>2026-03-28T13:27:46Z</time></trkpt><trkpt lat="45.86320463499769" lon="11.063065838234973"><ele>641.0</ele><time>2026-03-28T13:27:47Z</time></trkpt><trkpt lat="45.86339926256665" lon="11.063058282222759"><ele>639.6666666666666</ele><time>2026-03-28T13:27:48Z</time></trkpt><trkpt lat="45.86359850312634" lon="11.06304480187916"><ele>638.3333333333334</ele><time>2026-03-28T13:27:49Z</time></trkpt><trkpt lat="45.863796967544395" lon="11.06304125612145"><ele>637.0</ele><time>2026-03-28T13:27:50Z</time></trkpt><trkpt lat="45.86399591077116" lon="11.063035158982634"><ele>637.0</ele><time>2026-03-28T13:27:51Z</time></trkpt><trkpt lat="45.86419380335666" lon="11.063026588132814"><ele>637.0</ele><time>2026-03-28T13:27:52Z</time></trkpt><trkpt lat="45.86439110434902" lon="11.063013153130717"><ele>637.0</ele><time>2026-03-28T13:27:53Z</time></trkpt><trkpt lat="45.86458826719685" lon="11.062999567643175"><ele>632.6666666666667</ele><time>2026-03-28T13:27:54Z</time></trkpt><trkpt lat="45.864782941895314" lon="11.062984841053778"><ele>628.3333333333334</ele><time>2026-03-28T13:27:55Z</time></trkpt><trkpt lat="45.864982797699334" lon="11.06296143745992"><ele>624.0</ele><time>2026-03-28T13:27:56Z</time></trkpt><trkpt lat="45.86518548630962" lon="11.062931911603584"><ele>619.0</ele><time>2026-03-28T13:27:57Z</time></trkpt><trkpt lat="45.86539139433913" lon="11.062890872706562"><ele>614.0</ele><time>2026-03-28T13:27:58Z</time></trkpt><trkpt lat="45.86559466547501" lon="11.062846795006505"><ele>609.0</ele><time>2026-03-28T13:27:59Z</time></trkpt><trkpt lat="45.86579826462837" lon="11.062795288084873"><ele>602.6666666666666</ele><time>2026-03-28T13:28:00Z</time></trkpt><trkpt lat="45.86600186889416" lon="11.062749890076882"><ele>596.3333333333333</ele><time>2026-03-28T13:28:01Z</time></trkpt><trkpt lat="45.86620136683427" lon="11.062703181058687"><ele>590.0</ele><time>2026-03-28T13:28:02Z</time></trkpt><trkpt lat="45.86639700025423" lon="11.062644459288387"><ele>590.0</ele><time>2026-03-28T13:28:03Z</time></trkpt><trkpt lat="45.86659234078665" lon="11.062573231997973"><ele>590.0</ele><time>2026-03-28T13:28:04Z</time></trkpt><trkpt lat="45.86678214977825" lon="11.062499908108569"><ele>590.0</ele><time>2026-03-28T13:28:05Z</time></trkpt><trkpt lat="45.86697121695391" lon="11.062414694312833"><ele>590.0</ele><time>2026-03-28T13:28:06Z</time></trkpt><trkpt lat="45.867151785912604" lon="11.062311106577832"><ele>590.0</ele><time>2026-03-28T13:28:07Z</time></trkpt><trkpt lat="45.867322164172144" lon="11.062187423181491"><ele>590.0</ele><time>2026-03-28T13:28:08Z</time></trkpt><trkpt lat="45.86748477633754" lon="11.062043566321497"><ele>582.0</ele><time>2026-03-28T13:28:09Z</time></trkpt><trkpt lat="45.86765167058971" lon="11.061907462059247"><ele>574.0</ele><time>2026-03-28T13:28:10Z</time></trkpt><trkpt lat="45.86782787560981" lon="11.061796678644544"><ele>566.0</ele><time>2026-03-28T13:28:11Z</time></trkpt><trkpt lat="45.86800791295641" lon="11.061708653072989"><ele>566.0</ele><time>2026-03-28T13:28:12Z</time></trkpt><trkpt lat="45.868191396979" lon="11.06162284699323"><ele>566.0</ele><time>2026-03-28T13:28:13Z</time></trkpt><trkpt lat="45.868368325835235" lon="11.06153720432149"><ele>566.0</ele><time>2026-03-28T13:28:13.999Z</time></trkpt><trkpt lat="45.86854469716804" lon="11.061449839890614"><ele>570.0</ele><time>2026-03-28T13:28:14.999Z</time></trkpt><trkpt lat="45.86872261356535" lon="11.061358438344504"><ele>574.0</ele><time>2026-03-28T13:28:15.999Z</time></trkpt><trkpt lat="45.86889816405533" lon="11.061258859513218"><ele>578.0</ele><time>2026-03-28T13:28:16.999Z</time></trkpt><trkpt lat="45.86907101702388" lon="11.061151356886207"><ele>578.0</ele><time>2026-03-28T13:28:17.999Z</time></trkpt><trkpt lat="45.86924341533262" lon="11.061039123133884"><ele>578.0</ele><time>2026-03-28T13:28:18.999Z</time></trkpt><trkpt lat="45.869410567623866" lon="11.060921535324502"><ele>578.0</ele><time>2026-03-28T13:28:19.999Z</time></trkpt><trkpt lat="45.86957663810594" lon="11.060806640442106"><ele>584.6666666666666</ele><time>2026-03-28T13:28:20.999Z</time></trkpt><trkpt lat="45.86974453741448" lon="11.060690509412572"><ele>591.3333333333334</ele><time>2026-03-28T13:28:21.999Z</time></trkpt><trkpt lat="45.869911467431876" lon="11.060569488423848"><ele>598.0</ele><time>2026-03-28T13:28:22.999Z</time></trkpt><trkpt lat="45.870082667857936" lon="11.060460241698847"><ele>576.3333333333334</ele><time>2026-03-28T13:28:23.999Z</time></trkpt><trkpt lat="45.870255704433845" lon="11.060354091131979"><ele>554.6666666666666</ele><time>2026-03-28T13:28:24.999Z</time></trkpt><trkpt lat="45.87042606009596" lon="11.060246306740897"><ele>533.0</ele><time>2026-03-28T13:28:25.999Z</time></trkpt><trkpt lat="45.87059433677404" lon="11.060131361203208"><ele>533.0</ele><time>2026-03-28T13:28:26.999Z</time></trkpt><trkpt lat="45.87076818712787" lon="11.060025049579767"><ele>533.0</ele><time>2026-03-28T13:28:27.999Z</time></trkpt><trkpt lat="45.870939180017174" lon="11.0599178462213"><ele>533.0</ele><time>2026-03-28T13:28:28.999Z</time></trkpt><trkpt lat="45.87109988468793" lon="11.059779074447118"><ele>532.3333333333333</ele><time>2026-03-28T13:28:29.999Z</time></trkpt><trkpt lat="45.87125481659466" lon="11.059635748024887"><ele>531.6666666666666</ele><time>2026-03-28T13:28:30.999Z</time></trkpt><trkpt lat="45.87140590222029" lon="11.059491149658687"><ele>531.0</ele><time>2026-03-28T13:28:31.999Z</time></trkpt><trkpt lat="45.87155350966778" lon="11.059345045561717"><ele>531.0</ele><time>2026-03-28T13:28:32.999Z</time></trkpt><trkpt lat="45.87170651916337" lon="11.059202551641544"><ele>531.0</ele><time>2026-03-28T13:28:33.999Z</time></trkpt><trkpt lat="45.87185641287644" lon="11.059056648134492"><ele>531.0</ele><time>2026-03-28T13:28:34.999Z</time></trkpt><trkpt lat="45.87200394454474" lon="11.058909571267264"><ele>532.0</ele><time>2026-03-28T13:28:35.999Z</time></trkpt><trkpt lat="45.872155069663044" lon="11.058762429310052"><ele>533.0</ele><time>2026-03-28T13:28:36.999Z</time></trkpt><trkpt lat="45.87231055512757" lon="11.058628670015885"><ele>534.0</ele><time>2026-03-28T13:28:37.999Z</time></trkpt><trkpt lat="45.87248160557279" lon="11.05853601468578"><ele>528.6666666666666</ele><time>2026-03-28T13:28:38.999Z</time></trkpt><trkpt lat="45.87265750636464" lon="11.05848011911035"><ele>523.3333333333333</ele><time>2026-03-28T13:28:39.999Z</time></trkpt><trkpt lat="45.872836765424594" lon="11.058471641905433"><ele>518.0</ele><time>2026-03-28T13:28:40.999Z</time></trkpt><trkpt lat="45.87301520252037" lon="11.058451854232615"><ele>518.0</ele><time>2026-03-28T13:28:41.999Z</time></trkpt><trkpt lat="45.87319256623865" lon="11.058402037904791"><ele>518.0</ele><time>2026-03-28T13:28:42.999Z</time></trkpt><trkpt lat="45.87337489267729" lon="11.058339293069311"><ele>518.0</ele><time>2026-03-28T13:28:43.999Z</time></trkpt><trkpt lat="45.87355912090773" lon="11.058270401973783"><ele>521.0</ele><time>2026-03-28T13:28:44.999Z</time></trkpt><trkpt lat="45.873739901371245" lon="11.058205217183188"><ele>524.0</ele><time>2026-03-28T13:28:45.999Z</time></trkpt><trkpt lat="45.87392881970461" lon="11.05814830981031"><ele>527.0</ele><time>2026-03-28T13:28:46.999Z</time></trkpt><trkpt lat="45.87409820651715" lon="11.058106587188451"><ele>519.6666666666666</ele><time>2026-03-28T13:28:47.999Z</time></trkpt><trkpt lat="45.874280089786666" lon="11.058071058835711"><ele>512.3333333333334</ele><time>2026-03-28T13:28:48.999Z</time></trkpt><trkpt lat="45.87445237083682" lon="11.0580416821477"><ele>505.0</ele><time>2026-03-28T13:28:49.999Z</time></trkpt><trkpt lat="45.874628331931206" lon="11.058001094112814"><ele>505.0</ele><time>2026-03-28T13:28:50.999Z</time></trkpt><trkpt lat="45.87479426361879" lon="11.057956415983133"><ele>505.0</ele><time>2026-03-28T13:28:51.999Z</time></trkpt><trkpt lat="45.874954259976384" lon="11.057913690313635"><ele>505.0</ele><time>2026-03-28T13:28:53Z</time></trkpt><trkpt lat="45.87511999980314" lon="11.057859631341701"><ele>498.6666666666667</ele><time>2026-03-28T13:28:54Z</time></trkpt><trkpt lat="45.87527057723116" lon="11.05779516864955"><ele>492.33333333333337</ele><time>2026-03-28T13:28:55Z</time></trkpt><trkpt lat="45.875420617604675" lon="11.057728588447157"><ele>486.0</ele><time>2026-03-28T13:28:56Z</time></trkpt><trkpt lat="45.87556942632983" lon="11.057661357576436"><ele>486.0</ele><time>2026-03-28T13:28:57Z</time></trkpt><trkpt lat="45.87571510425053" lon="11.057597562250074"><ele>486.0</ele><time>2026-03-28T13:28:58Z</time></trkpt><trkpt lat="45.875850635841516" lon="11.05754054571128"><ele>486.0</ele><time>2026-03-28T13:28:59Z</time></trkpt><trkpt lat="45.875976059094405" lon="11.057490425104227"><ele>486.0</ele><time>2026-03-28T13:29:00Z</time></trkpt><trkpt lat="45.87609529851535" lon="11.057433464565415"><ele>482.6</ele><time>2026-03-28T13:29:01Z</time></trkpt><trkpt lat="45.87619949376663" lon="11.05735756944841"><ele>479.20000000000005</ele><time>2026-03-28T13:29:02Z</time></trkpt><trkpt lat="45.876275948748976" lon="11.057257251538562"><ele>475.79999999999995</ele><time>2026-03-28T13:29:03Z</time></trkpt><trkpt lat="45.87632650115181" lon="11.057136018622652"><ele>472.4</ele><time>2026-03-28T13:29:04Z</time></trkpt><trkpt lat="45.876344817048476" lon="11.05698564988992"><ele>469.0</ele><time>2026-03-28T13:29:05Z</time></trkpt><trkpt lat="45.876348271649654" lon="11.056820487799964"><ele>469.0</ele><time>2026-03-28T13:29:06Z</time></trkpt><trkpt lat="45.87637614949116" lon="11.056646100028765"><ele>469.0</ele><time>2026-03-28T13:29:07Z</time></trkpt><trkpt lat="45.876396044377195" lon="11.056476570833466"><ele>469.0</ele><time>2026-03-28T13:29:08Z</time></trkpt><trkpt lat="45.876414077389775" lon="11.056307187660313"><ele>469.0</ele><time>2026-03-28T13:29:09Z</time></trkpt><trkpt lat="45.876483554362174" lon="11.056164455943732"><ele>467.5</ele><time>2026-03-28T13:29:10Z</time></trkpt><trkpt lat="45.87658407210664" lon="11.056060966504608"><ele>466.0</ele><time>2026-03-28T13:29:11Z</time></trkpt><trkpt lat="45.87669029628461" lon="11.05599070069893"><ele>464.5</ele><time>2026-03-28T13:29:12Z</time></trkpt><trkpt lat="45.87680739186357" lon="11.055978309711358"><ele>463.0</ele><time>2026-03-28T13:29:13Z</time></trkpt><trkpt lat="45.87692634229019" lon="11.056002861423696"><ele>463.0</ele><time>2026-03-28T13:29:14Z</time></trkpt><trkpt lat="45.87704077396359" lon="11.056061392685494"><ele>463.0</ele><time>2026-03-28T13:29:15Z</time></trkpt><trkpt lat="45.87715659637608" lon="11.056114388337786"><ele>463.0</ele><time>2026-03-28T13:29:16Z</time></trkpt><trkpt lat="45.87728206983634" lon="11.05615433512519"><ele>463.0</ele><time>2026-03-28T13:29:17Z</time></trkpt><trkpt lat="45.87739211534863" lon="11.056179899947592"><ele>463.0</ele><time>2026-03-28T13:29:18Z</time></trkpt><trkpt lat="45.877491132473985" lon="11.056165552907002"><ele>462.99999999999994</ele><time>2026-03-28T13:29:19Z</time></trkpt><trkpt lat="45.87757258597899" lon="11.056111136931378"><ele>462.99999999999994</ele><time>2026-03-28T13:29:20Z</time></trkpt><trkpt lat="45.87764241327135" lon="11.056007141162437"><ele>463.0</ele><time>2026-03-28T13:29:21Z</time></trkpt><trkpt lat="45.877676961523136" lon="11.055869321095093"><ele>463.0</ele><time>2026-03-28T13:29:22Z</time></trkpt><trkpt lat="45.87767697055283" lon="11.055738856217777"><ele>461.75</ele><time>2026-03-28T13:29:23Z</time></trkpt><trkpt lat="45.87763324874643" lon="11.05560526406511"><ele>460.5</ele><time>2026-03-28T13:29:24Z</time></trkpt><trkpt lat="45.87759071987909" lon="11.055450379090578"><ele>459.25</ele><time>2026-03-28T13:29:25Z</time></trkpt><trkpt lat="45.87752836372071" lon="11.055267982899565"><ele>458.0</ele><time>2026-03-28T13:29:26Z</time></trkpt><trkpt lat="45.877469072073346" lon="11.055061556368953"><ele>458.0</ele><time>2026-03-28T13:29:27Z</time></trkpt><trkpt lat="45.877424039940614" lon="11.054847007597013"><ele>458.0</ele><time>2026-03-28T13:29:28Z</time></trkpt><trkpt lat="45.87739371200983" lon="11.054648608459347"><ele>458.0</ele><time>2026-03-28T13:29:29Z</time></trkpt><trkpt lat="45.87736874537577" lon="11.05447803657764"><ele>458.0</ele><time>2026-03-28T13:29:30Z</time></trkpt><trkpt lat="45.87738519382855" lon="11.05432956551909"><ele>458.0</ele><time>2026-03-28T13:29:31Z</time></trkpt><trkpt lat="45.87744396358272" lon="11.054206652720886"><ele>458.0</ele><time>2026-03-28T13:29:32Z</time></trkpt><trkpt lat="45.877541480441614" lon="11.05410955363994"><ele>458.0</ele><time>2026-03-28T13:29:33Z</time></trkpt><trkpt lat="45.87767934756803" lon="11.054085608488045"><ele>458.0</ele><time>2026-03-28T13:29:34Z</time></trkpt><trkpt lat="45.877830518047716" lon="11.054043010550465"><ele>458.66666666666663</ele><time>2026-03-28T13:29:35Z</time></trkpt><trkpt lat="45.8779920261278" lon="11.054029713785708"><ele>459.33333333333337</ele><time>2026-03-28T13:29:36Z</time></trkpt><trkpt lat="45.8781456267381" lon="11.05402304457608"><ele>460.0</ele><time>2026-03-28T13:29:37Z</time></trkpt><trkpt lat="45.87831060080025" lon="11.054045714547012"><ele>455.33333333333337</ele><time>2026-03-28T13:29:38Z</time></trkpt><trkpt lat="45.878481515563315" lon="11.054102259525326"><ele>450.66666666666663</ele><time>2026-03-28T13:29:39Z</time></trkpt><trkpt lat="45.87866420645622" lon="11.054174120342632"><ele>446.0</ele><time>2026-03-28T13:29:40Z</time></trkpt><trkpt lat="45.87885662572376" lon="11.054251286488192"><ele>442.66666666666663</ele><time>2026-03-28T13:29:41Z</time></trkpt><trkpt lat="45.87904165582198" lon="11.054326593220804"><ele>439.33333333333337</ele><time>2026-03-28T13:29:42Z</time></trkpt><trkpt lat="45.87922649463833" lon="11.054394011113505"><ele>436.0</ele><time>2026-03-28T13:29:43Z</time></trkpt><trkpt lat="45.879408877782545" lon="11.054461296709606"><ele>433.6666666666667</ele><time>2026-03-28T13:29:44Z</time></trkpt><trkpt lat="45.87957915892168" lon="11.054521457100595"><ele>431.33333333333337</ele><time>2026-03-28T13:29:45Z</time></trkpt><trkpt lat="45.87972583617247" lon="11.05456840936155"><ele>429.0</ele><time>2026-03-28T13:29:46Z</time></trkpt><trkpt lat="45.879863651459935" lon="11.054591476137883"><ele>429.0</ele><time>2026-03-28T13:29:47Z</time></trkpt><trkpt lat="45.88001136607948" lon="11.05456181943231"><ele>429.0</ele><time>2026-03-28T13:29:48Z</time></trkpt><trkpt lat="45.88015925987196" lon="11.054476954139952"><ele>429.0</ele><time>2026-03-28T13:29:49Z</time></trkpt><trkpt lat="45.88029749144976" lon="11.054377278460118"><ele>423.0</ele><time>2026-03-28T13:29:50Z</time></trkpt><trkpt lat="45.88041956332563" lon="11.054237610865798"><ele>417.0</ele><time>2026-03-28T13:29:51Z</time></trkpt><trkpt lat="45.88052814653087" lon="11.054083294816232"><ele>411.0</ele><time>2026-03-28T13:29:52Z</time></trkpt><trkpt lat="45.88062720712318" lon="11.05394176857097"><ele>405.0</ele><time>2026-03-28T13:29:53Z</time></trkpt><trkpt lat="45.88070495549987" lon="11.053795210521953"><ele>404.25</ele><time>2026-03-28T13:29:54Z</time></trkpt><trkpt lat="45.880741563235425" lon="11.053639804288656"><ele>403.5</ele><time>2026-03-28T13:29:55Z</time></trkpt><trkpt lat="45.88073859354476" lon="11.053477418747367"><ele>402.75</ele><time>2026-03-28T13:29:56Z</time></trkpt><trkpt lat="45.88071708470092" lon="11.053316583403046"><ele>402.0</ele><time>2026-03-28T13:29:57Z</time></trkpt><trkpt lat="45.88062497194447" lon="11.05318388160726"><ele>398.0</ele><time>2026-03-28T13:29:58Z</time></trkpt><trkpt lat="45.88053318274752" lon="11.053035151603458"><ele>394.0</ele><time>2026-03-28T13:29:59Z</time></trkpt><trkpt lat="45.880423739472796" lon="11.05290006453536"><ele>390.0</ele><time>2026-03-28T13:30:00Z</time></trkpt><trkpt lat="45.88032721784092" lon="11.052761318215952"><ele>386.0</ele><time>2026-03-28T13:30:01Z</time></trkpt><trkpt lat="45.880258645591745" lon="11.052596375145248"><ele>384.3333333333333</ele><time>2026-03-28T13:30:02Z</time></trkpt><trkpt lat="45.88022304858359" lon="11.052402164509855"><ele>382.66666666666663</ele><time>2026-03-28T13:30:03Z</time></trkpt><trkpt lat="45.88019496587896" lon="11.052170050874112"><ele>381.0</ele><time>2026-03-28T13:30:04Z</time></trkpt><trkpt lat="45.88016848281861" lon="11.05194400853817"><ele>381.0</ele><time>2026-03-28T13:30:05Z</time></trkpt><trkpt lat="45.88014649564692" lon="11.051745499886442"><ele>381.0</ele><time>2026-03-28T13:30:06Z</time></trkpt><trkpt lat="45.88013520109685" lon="11.051583538451833"><ele>381.0</ele><time>2026-03-28T13:30:07Z</time></trkpt><trkpt lat="45.880141264892806" lon="11.051438679122896"><ele>381.0</ele><time>2026-03-28T13:30:08Z</time></trkpt><trkpt lat="45.88017301635852" lon="11.051279204306303"><ele>381.5</ele><time>2026-03-28T13:30:09Z</time></trkpt><trkpt lat="45.88023588155545" lon="11.051114528241248"><ele>382.0</ele><time>2026-03-28T13:30:10Z</time></trkpt><trkpt lat="45.88033507010684" lon="11.050950423831058"><ele>382.5</ele><time>2026-03-28T13:30:11Z</time></trkpt><trkpt lat="45.88043308592491" lon="11.050769374767931"><ele>383.0</ele><time>2026-03-28T13:30:12Z</time></trkpt><trkpt lat="45.88052825400616" lon="11.050590988478035"><ele>385.6666666666667</ele><time>2026-03-28T13:30:13Z</time></trkpt><trkpt lat="45.880609917370776" lon="11.05040215289061"><ele>388.33333333333337</ele><time>2026-03-28T13:30:14Z</time></trkpt><trkpt lat="45.88068141660575" lon="11.050189681068964"><ele>391.0</ele><time>2026-03-28T13:30:15Z</time></trkpt><trkpt lat="45.88074565062018" lon="11.04997661752677"><ele>389.33333333333337</ele><time>2026-03-28T13:30:16Z</time></trkpt><trkpt lat="45.88080646205234" lon="11.049771402518136"><ele>387.66666666666663</ele><time>2026-03-28T13:30:17Z</time></trkpt><trkpt lat="45.88086334721595" lon="11.049576476989717"><ele>386.0</ele><time>2026-03-28T13:30:18Z</time></trkpt><trkpt lat="45.880899208104594" lon="11.049365769707432"><ele>386.0</ele><time>2026-03-28T13:30:19Z</time></trkpt><trkpt lat="45.880914375530196" lon="11.049158097462646"><ele>386.0</ele><time>2026-03-28T13:30:20Z</time></trkpt><trkpt lat="45.8809111016896" lon="11.048948499747809"><ele>386.0</ele><time>2026-03-28T13:30:21Z</time></trkpt><trkpt lat="45.880892477323115" lon="11.04874322134869"><ele>386.0</ele><time>2026-03-28T13:30:22Z</time></trkpt><trkpt lat="45.880848460057145" lon="11.048543181112052"><ele>383.25</ele><time>2026-03-28T13:30:23Z</time></trkpt><trkpt lat="45.880774103244605" lon="11.048359923425092"><ele>380.5</ele><time>2026-03-28T13:30:24Z</time></trkpt><trkpt lat="45.88070186725131" lon="11.048173550993887"><ele>377.75</ele><time>2026-03-28T13:30:24.999Z</time></trkpt><trkpt lat="45.88060660026243" lon="11.048020208345783"><ele>375.0</ele><time>2026-03-28T13:30:25.999Z</time></trkpt><trkpt lat="45.880498933628395" lon="11.047908527065088"><ele>372.0</ele><time>2026-03-28T13:30:26.999Z</time></trkpt><trkpt lat="45.88041184617456" lon="11.047796312918344"><ele>369.0</ele><time>2026-03-28T13:30:27.999Z</time></trkpt><trkpt lat="45.8803191738972" lon="11.047713239688314"><ele>366.0</ele><time>2026-03-28T13:30:28.999Z</time></trkpt><trkpt lat="45.880253338793636" lon="11.047634178945032"><ele>363.0</ele><time>2026-03-28T13:30:29.999Z</time></trkpt><trkpt lat="45.88021670407262" lon="11.04755423645197"><ele>360.0</ele><time>2026-03-28T13:30:30.999Z</time></trkpt><trkpt lat="45.88024760553453" lon="11.047413228313046"><ele>360.0</ele><time>2026-03-28T13:30:32.999Z</time></trkpt><trkpt lat="45.88032313357897" lon="11.047403139927699"><ele>360.0</ele><time>2026-03-28T13:30:33.999Z</time></trkpt><trkpt lat="45.880402757805456" lon="11.047522843734205"><ele>360.0</ele><time>2026-03-28T13:30:34.999Z</time></trkpt><trkpt lat="45.88050528895265" lon="11.047619733361273"><ele>360.0</ele><time>2026-03-28T13:30:35.999Z</time></trkpt><trkpt lat="45.88062172899291" lon="11.047729757693045"><ele>360.0</ele><time>2026-03-28T13:30:36.999Z</time></trkpt><trkpt lat="45.88074055438097" lon="11.047838997566423"><ele>360.0</ele><time>2026-03-28T13:30:37.999Z</time></trkpt><trkpt lat="45.88087440391998" lon="11.047964612780893"><ele>360.0</ele><time>2026-03-28T13:30:38.999Z</time></trkpt><trkpt lat="45.881019240603" lon="11.048101730462484"><ele>357.3333333333333</ele><time>2026-03-28T13:30:39.999Z</time></trkpt><trkpt lat="45.88116011071264" lon="11.048243465324171"><ele>354.66666666666663</ele><time>2026-03-28T13:30:40.999Z</time></trkpt><trkpt lat="45.8813017751257" lon="11.048380857869715"><ele>352.0</ele><time>2026-03-28T13:30:41.999Z</time></trkpt><trkpt lat="45.88143895881348" lon="11.048515261328582"><ele>352.0</ele><time>2026-03-28T13:30:42.999Z</time></trkpt><trkpt lat="45.881581292609546" lon="11.048647603053137"><ele>352.0</ele><time>2026-03-28T13:30:43.999Z</time></trkpt><trkpt lat="45.881717463460085" lon="11.048787605908897"><ele>352.0</ele><time>2026-03-28T13:30:44.999Z</time></trkpt><trkpt lat="45.881858735295154" lon="11.048917236942774"><ele>349.3333333333333</ele><time>2026-03-28T13:30:45.999Z</time></trkpt><trkpt lat="45.88200199854202" lon="11.049050296742339"><ele>346.6666666666667</ele><time>2026-03-28T13:30:46.999Z</time></trkpt><trkpt lat="45.88214020179238" lon="11.049190503422844"><ele>344.0</ele><time>2026-03-28T13:30:47.999Z</time></trkpt><trkpt lat="45.88227765341343" lon="11.04933156813593"><ele>344.0</ele><time>2026-03-28T13:30:48.999Z</time></trkpt><trkpt lat="45.882410421807755" lon="11.049484098138315"><ele>344.0</ele><time>2026-03-28T13:30:49.999Z</time></trkpt><trkpt lat="45.88252983572242" lon="11.049660662662694"><ele>344.0</ele><time>2026-03-28T13:30:50.999Z</time></trkpt><trkpt lat="45.88264391127363" lon="11.049860112632729"><ele>340.6666666666667</ele><time>2026-03-28T13:30:51.999Z</time></trkpt><trkpt lat="45.88276064343713" lon="11.050051379785534"><ele>337.3333333333333</ele><time>2026-03-28T13:30:52.999Z</time></trkpt><trkpt lat="45.882869156135065" lon="11.050236215746311"><ele>334.0</ele><time>2026-03-28T13:30:53.999Z</time></trkpt><trkpt lat="45.88297683368506" lon="11.050414527436798"><ele>334.0</ele><time>2026-03-28T13:30:54.999Z</time></trkpt><trkpt lat="45.88306989192253" lon="11.050580939516518"><ele>334.0</ele><time>2026-03-28T13:30:55.999Z</time></trkpt><trkpt lat="45.88314893318368" lon="11.050749696387884"><ele>334.0</ele><time>2026-03-28T13:30:56.999Z</time></trkpt><trkpt lat="45.883198770283876" lon="11.050917103304183"><ele>334.0</ele><time>2026-03-28T13:30:57.999Z</time></trkpt><trkpt lat="45.883210659657706" lon="11.051056416838792"><ele>335.1428571428571</ele><time>2026-03-28T13:30:59Z</time></trkpt><trkpt lat="45.883208767134796" lon="11.051156471835174"><ele>336.2857142857143</ele><time>2026-03-28T13:31:00Z</time></trkpt><trkpt lat="45.88322940467486" lon="11.051242885600528"><ele>337.42857142857144</ele><time>2026-03-28T13:31:01Z</time></trkpt><trkpt lat="45.88328822812183" lon="11.051283630604905"><ele>338.57142857142856</ele><time>2026-03-28T13:31:02Z</time></trkpt><trkpt lat="45.8833500320133" lon="11.051258164320538"><ele>339.7142857142857</ele><time>2026-03-28T13:31:03Z</time></trkpt><trkpt lat="45.883391227027246" lon="11.051177831517938"><ele>340.85714285714283</ele><time>2026-03-28T13:31:04Z</time></trkpt><trkpt lat="45.88338871782662" lon="11.05105738937381"><ele>342.0</ele><time>2026-03-28T13:31:05Z</time></trkpt><trkpt lat="45.883366058953285" lon="11.050912042216053"><ele>340.0</ele><time>2026-03-28T13:31:06Z</time></trkpt><trkpt lat="45.88334105739308" lon="11.050743286758472"><ele>338.0</ele><time>2026-03-28T13:31:07Z</time></trkpt><trkpt lat="45.883319005225346" lon="11.050555954431491"><ele>336.0</ele><time>2026-03-28T13:31:08Z</time></trkpt><trkpt lat="45.883292945035215" lon="11.050348370219371"><ele>334.0</ele><time>2026-03-28T13:31:09Z</time></trkpt><trkpt lat="45.88326370993978" lon="11.050124296352077"><ele>332.0</ele><time>2026-03-28T13:31:10Z</time></trkpt><trkpt lat="45.88323167415805" lon="11.049884236726117"><ele>330.0</ele><time>2026-03-28T13:31:11Z</time></trkpt><trkpt lat="45.88319419057751" lon="11.049633423883954"><ele>328.0</ele><time>2026-03-28T13:31:12Z</time></trkpt><trkpt lat="45.88314386045651" lon="11.049372882416138"><ele>324.66666666666663</ele><time>2026-03-28T13:31:13Z</time></trkpt><trkpt lat="45.88309059049797" lon="11.049120355781536"><ele>321.3333333333333</ele><time>2026-03-28T13:31:14Z</time></trkpt><trkpt lat="45.88303352539033" lon="11.048868357471859"><ele>318.0</ele><time>2026-03-28T13:31:15Z</time></trkpt><trkpt lat="45.88297285779229" lon="11.048647144436115"><ele>318.0</ele><time>2026-03-28T13:31:16Z</time></trkpt><trkpt lat="45.88290497771821" lon="11.048460871969"><ele>318.0</ele><time>2026-03-28T13:31:17Z</time></trkpt><trkpt lat="45.88283469021571" lon="11.048296281983012"><ele>318.0</ele><time>2026-03-28T13:31:18Z</time></trkpt><trkpt lat="45.882772909647144" lon="11.048168035372603"><ele>318.0</ele><time>2026-03-28T13:31:19Z</time></trkpt><trkpt lat="45.88276740566215" lon="11.048049191734673"><ele>315.2</ele><time>2026-03-28T13:31:20Z</time></trkpt><trkpt lat="45.882770519427744" lon="11.047946160692044"><ele>312.4</ele><time>2026-03-28T13:31:21Z</time></trkpt><trkpt lat="45.88282150989056" lon="11.047876664929772"><ele>309.59999999999997</ele><time>2026-03-28T13:31:22Z</time></trkpt><trkpt lat="45.882903496918495" lon="11.047867729694605"><ele>306.8</ele><time>2026-03-28T13:31:23Z</time></trkpt><trkpt lat="45.88299164721231" lon="11.047953919647009"><ele>304.0</ele><time>2026-03-28T13:31:24Z</time></trkpt><trkpt lat="45.8830835236373" lon="11.048071055851816"><ele>304.0</ele><time>2026-03-28T13:31:25Z</time></trkpt><trkpt lat="45.88320420499701" lon="11.048193811139036"><ele>304.0</ele><time>2026-03-28T13:31:26Z</time></trkpt><trkpt lat="45.88332188111898" lon="11.048327301614712"><ele>304.0</ele><time>2026-03-28T13:31:27Z</time></trkpt><trkpt lat="45.88346101515518" lon="11.048469380126685"><ele>300.0</ele><time>2026-03-28T13:31:28Z</time></trkpt><trkpt lat="45.883599499903674" lon="11.048613921291743"><ele>296.0</ele><time>2026-03-28T13:31:29Z</time></trkpt><trkpt lat="45.8837300452874" lon="11.048761237318503"><ele>292.0</ele><time>2026-03-28T13:31:30Z</time></trkpt><trkpt lat="45.88386605723022" lon="11.04890731287987"><ele>292.0</ele><time>2026-03-28T13:31:31Z</time></trkpt><trkpt lat="45.883996223519276" lon="11.04904887544812"><ele>292.0</ele><time>2026-03-28T13:31:32Z</time></trkpt><trkpt lat="45.88411903281663" lon="11.049179315111925"><ele>292.0</ele><time>2026-03-28T13:31:33Z</time></trkpt><trkpt lat="45.88423919592456" lon="11.049305153474469"><ele>289.0</ele><time>2026-03-28T13:31:34Z</time></trkpt><trkpt lat="45.884346816292066" lon="11.049421762052095"><ele>286.0</ele><time>2026-03-28T13:31:35Z</time></trkpt><trkpt lat="45.88443267483885" lon="11.049515585093719"><ele>283.0</ele><time>2026-03-28T13:31:36Z</time></trkpt><trkpt lat="45.88450873131057" lon="11.049575439583055"><ele>280.0</ele><time>2026-03-28T13:31:37Z</time></trkpt><trkpt lat="45.88457718076951" lon="11.049576338098072"><ele>277.0</ele><time>2026-03-28T13:31:38Z</time></trkpt><trkpt lat="45.884632990209894" lon="11.049516519247334"><ele>277.0</ele><time>2026-03-28T13:31:39Z</time></trkpt><trkpt lat="45.884647763731174" lon="11.049412913120337"><ele>277.0</ele><time>2026-03-28T13:31:40Z</time></trkpt><trkpt lat="45.88462320563804" lon="11.049294552967392"><ele>277.0</ele><time>2026-03-28T13:31:41Z</time></trkpt><trkpt lat="45.88456982632561" lon="11.04916348184949"><ele>277.0</ele><time>2026-03-28T13:31:42Z</time></trkpt><trkpt lat="45.88450111837059" lon="11.048997986688116"><ele>277.0</ele><time>2026-03-28T13:31:43Z</time></trkpt><trkpt lat="45.88444567419001" lon="11.048804159420111"><ele>271.66666666666663</ele><time>2026-03-28T13:31:44Z</time></trkpt><trkpt lat="45.8843994112305" lon="11.048589187226684"><ele>266.3333333333333</ele><time>2026-03-28T13:31:45Z</time></trkpt><trkpt lat="45.88434605584664" lon="11.048353123658693"><ele>261.0</ele><time>2026-03-28T13:31:46Z</time></trkpt><trkpt lat="45.8842795436498" lon="11.048112029683665"><ele>259.6666666666667</ele><time>2026-03-28T13:31:47Z</time></trkpt><trkpt lat="45.88419662270677" lon="11.047871964495112"><ele>258.33333333333337</ele><time>2026-03-28T13:31:48Z</time></trkpt><trkpt lat="45.88411617070668" lon="11.04763220249588"><ele>257.0</ele><time>2026-03-28T13:31:49Z</time></trkpt><trkpt lat="45.88404255151139" lon="11.047402874430297"><ele>257.0</ele><time>2026-03-28T13:31:50Z</time></trkpt><trkpt lat="45.88397691067856" lon="11.047200907069543"><ele>257.0</ele><time>2026-03-28T13:31:51Z</time></trkpt><trkpt lat="45.883906981306644" lon="11.047006825851273"><ele>257.0</ele><time>2026-03-28T13:31:52Z</time></trkpt><trkpt lat="45.883818257000904" lon="11.046830830753867"><ele>257.0</ele><time>2026-03-28T13:31:53Z</time></trkpt><trkpt lat="45.883715464711955" lon="11.046695106563178"><ele>257.0</ele><time>2026-03-28T13:31:54Z</time></trkpt><trkpt lat="45.88362260351069" lon="11.046597756609632"><ele>257.0</ele><time>2026-03-28T13:31:55Z</time></trkpt><trkpt lat="45.883537600830074" lon="11.046513113720083"><ele>257.0</ele><time>2026-03-28T13:31:56Z</time></trkpt><trkpt lat="45.88348329451616" lon="11.046428695741813"><ele>257.0</ele><time>2026-03-28T13:31:57Z</time></trkpt><trkpt lat="45.88347840764184" lon="11.046332641911663"><ele>253.6</ele><time>2026-03-28T13:31:58Z</time></trkpt><trkpt lat="45.88358721493066" lon="11.046243127473105"><ele>250.2</ele><time>2026-03-28T13:32:00Z</time></trkpt><trkpt lat="45.88366191231357" lon="11.046319804937005"><ele>246.8</ele><time>2026-03-28T13:32:01Z</time></trkpt><trkpt lat="45.88376272222108" lon="11.046380738187535"><ele>243.4</ele><time>2026-03-28T13:32:02Z</time></trkpt><trkpt lat="45.88385705193025" lon="11.046476683865109"><ele>240.0</ele><time>2026-03-28T13:32:03Z</time></trkpt><trkpt lat="45.88397515916588" lon="11.046577850818826"><ele>237.75</ele><time>2026-03-28T13:32:04Z</time></trkpt><trkpt lat="45.884097558652186" lon="11.046690307888039"><ele>235.5</ele><time>2026-03-28T13:32:05Z</time></trkpt><trkpt lat="45.884220803538206" lon="11.046806211543986"><ele>233.25</ele><time>2026-03-28T13:32:06Z</time></trkpt><trkpt lat="45.884341183089" lon="11.046930367512477"><ele>231.0</ele><time>2026-03-28T13:32:07Z</time></trkpt><trkpt lat="45.88445938576039" lon="11.047054239056918"><ele>231.0</ele><time>2026-03-28T13:32:08Z</time></trkpt><trkpt lat="45.88456869713396" lon="11.047183450657023"><ele>231.0</ele><time>2026-03-28T13:32:09Z</time></trkpt><trkpt lat="45.88467103028345" lon="11.047316448889495"><ele>231.0</ele><time>2026-03-28T13:32:10Z</time></trkpt><trkpt lat="45.88475543220684" lon="11.047426659565982"><ele>231.0</ele><time>2026-03-28T13:32:11Z</time></trkpt><trkpt lat="45.884822243610124" lon="11.047500511247074"><ele>231.0</ele><time>2026-03-28T13:32:12Z</time></trkpt><trkpt lat="45.88488842809291" lon="11.047512598705117"><ele>231.0</ele><time>2026-03-28T13:32:13Z</time></trkpt><trkpt lat="45.88494718568757" lon="11.047463349715413"><ele>231.0</ele><time>2026-03-28T13:32:14Z</time></trkpt><trkpt lat="45.884962985746974" lon="11.047365399469435"><ele>231.0</ele><time>2026-03-28T13:32:15Z</time></trkpt><trkpt lat="45.88493005325259" lon="11.047261693988212"><ele>231.0</ele><time>2026-03-28T13:32:16Z</time></trkpt><trkpt lat="45.88486067621785" lon="11.047149950815935"><ele>231.0</ele><time>2026-03-28T13:32:17Z</time></trkpt><trkpt lat="45.88478744838483" lon="11.047020458553797"><ele>231.0</ele><time>2026-03-28T13:32:18Z</time></trkpt><trkpt lat="45.88472772857883" lon="11.046868880141224"><ele>231.0</ele><time>2026-03-28T13:32:19Z</time></trkpt><trkpt lat="45.884652374519" lon="11.046726999452204"><ele>231.0</ele><time>2026-03-28T13:32:20Z</time></trkpt><trkpt lat="45.88457473362235" lon="11.046597308320221"><ele>231.0</ele><time>2026-03-28T13:32:21Z</time></trkpt><trkpt lat="45.88450391443441" lon="11.046484459330822"><ele>230.20000000000002</ele><time>2026-03-28T13:32:22Z</time></trkpt><trkpt lat="45.88444787692939" lon="11.046356760395065"><ele>229.40000000000003</ele><time>2026-03-28T13:32:23Z</time></trkpt><trkpt lat="45.884385186125854" lon="11.046222561114595"><ele>228.6</ele><time>2026-03-28T13:32:24Z</time></trkpt><trkpt lat="45.88433020476624" lon="11.046080117669934"><ele>227.8</ele><time>2026-03-28T13:32:25Z</time></trkpt><trkpt lat="45.88427888176017" lon="11.045936976367276"><ele>227.0</ele><time>2026-03-28T13:32:26Z</time></trkpt><trkpt lat="45.884224330808465" lon="11.04579218405793"><ele>227.0</ele><time>2026-03-28T13:32:27Z</time></trkpt><trkpt lat="45.884172200902114" lon="11.045650011591105"><ele>227.0</ele><time>2026-03-28T13:32:28Z</time></trkpt><trkpt lat="45.884116936748356" lon="11.04552691457533"><ele>227.0</ele><time>2026-03-28T13:32:29Z</time></trkpt><trkpt lat="45.884083225538674" lon="11.045383732055686"><ele>227.0</ele><time>2026-03-28T13:32:29.999Z</time></trkpt><trkpt lat="45.8840434211739" lon="11.045242602468715"><ele>227.0</ele><time>2026-03-28T13:32:30.999Z</time></trkpt><trkpt lat="45.88403471001764" lon="11.045088851558976"><ele>225.50000000000003</ele><time>2026-03-28T13:32:31.999Z</time></trkpt><trkpt lat="45.884041232460966" lon="11.044934785441203"><ele>224.0</ele><time>2026-03-28T13:32:32.999Z</time></trkpt><trkpt lat="45.884054820772235" lon="11.044804290382235"><ele>222.5</ele><time>2026-03-28T13:32:33.999Z</time></trkpt><trkpt lat="45.88407870606352" lon="11.044699347335685"><ele>221.0</ele><time>2026-03-28T13:32:34.999Z</time></trkpt><trkpt lat="45.88407690230602" lon="11.04459060975063"><ele>219.50000000000003</ele><time>2026-03-28T13:32:35.999Z</time></trkpt><trkpt lat="45.88403081351109" lon="11.044472988978946"><ele>218.0</ele><time>2026-03-28T13:32:36.999Z</time></trkpt><trkpt lat="45.88396407345586" lon="11.044347400897491"><ele>218.0</ele><time>2026-03-28T13:32:37.999Z</time></trkpt><trkpt lat="45.883896448444794" lon="11.044207300725503"><ele>218.0</ele><time>2026-03-28T13:32:38.999Z</time></trkpt><trkpt lat="45.883827401870676" lon="11.044048877506572"><ele>218.0</ele><time>2026-03-28T13:32:39.999Z</time></trkpt><trkpt lat="45.88375505881667" lon="11.04390494334868"><ele>218.0</ele><time>2026-03-28T13:32:40.999Z</time></trkpt><trkpt lat="45.88368129503273" lon="11.043767600381324"><ele>216.60000000000002</ele><time>2026-03-28T13:32:41.999Z</time></trkpt><trkpt lat="45.88361274525139" lon="11.043627808212094"><ele>215.20000000000002</ele><time>2026-03-28T13:32:42.999Z</time></trkpt><trkpt lat="45.88354606324315" lon="11.043492314409395"><ele>213.8</ele><time>2026-03-28T13:32:43.999Z</time></trkpt><trkpt lat="45.88349721806745" lon="11.043381772917535"><ele>212.4</ele><time>2026-03-28T13:32:44.999Z</time></trkpt><trkpt lat="45.88345163769364" lon="11.043280120202589"><ele>211.0</ele><time>2026-03-28T13:32:45.999Z</time></trkpt><trkpt lat="45.88344796699594" lon="11.043162997603249"><ele>210.49999999999997</ele><time>2026-03-28T13:32:46.999Z</time></trkpt><trkpt lat="45.88348483708924" lon="11.04304726004313"><ele>210.0</ele><time>2026-03-28T13:32:47.999Z</time></trkpt><trkpt lat="45.883553896040226" lon="11.042969566647086"><ele>209.5</ele><time>2026-03-28T13:32:48.999Z</time></trkpt><trkpt lat="45.883628420653274" lon="11.042939763364917"><ele>209.0</ele><time>2026-03-28T13:32:49.999Z</time></trkpt><trkpt lat="45.883696002830824" lon="11.042993278504417"><ele>208.49999999999997</ele><time>2026-03-28T13:32:50.999Z</time></trkpt><trkpt lat="45.88376016362427" lon="11.043069029499154"><ele>208.0</ele><time>2026-03-28T13:32:51.999Z</time></trkpt><trkpt lat="45.88384265407699" lon="11.04315591960817"><ele>208.0</ele><time>2026-03-28T13:32:52.999Z</time></trkpt><trkpt lat="45.88391709239369" lon="11.043236255913927"><ele>208.0</ele><time>2026-03-28T13:32:53.999Z</time></trkpt><trkpt lat="45.883996780183956" lon="11.043323355142649"><ele>208.0</ele><time>2026-03-28T13:32:54.999Z</time></trkpt><trkpt lat="45.88407596051751" lon="11.043415726375452"><ele>208.0</ele><time>2026-03-28T13:32:55.999Z</time></trkpt><trkpt lat="45.88415962055006" lon="11.04350915169261"><ele>208.0</ele><time>2026-03-28T13:32:56.999Z</time></trkpt><trkpt lat="45.88424155874545" lon="11.04359309183234"><ele>207.4</ele><time>2026-03-28T13:32:57.999Z</time></trkpt><trkpt lat="45.88432772486191" lon="11.043647094985786"><ele>206.8</ele><time>2026-03-28T13:32:58.999Z</time></trkpt><trkpt lat="45.88442442711021" lon="11.04365593217607"><ele>206.2</ele><time>2026-03-28T13:32:59.999Z</time></trkpt><trkpt lat="45.884522385149005" lon="11.043614728703428"><ele>205.6</ele><time>2026-03-28T13:33:00.999Z</time></trkpt><trkpt lat="45.884600084531435" lon="11.043535680457207"><ele>205.0</ele><time>2026-03-28T13:33:01.999Z</time></trkpt><trkpt lat="45.88466888564997" lon="11.043456555489964"><ele>204.99999999999997</ele><time>2026-03-28T13:33:02.999Z</time></trkpt><trkpt lat="45.884731379874765" lon="11.043393464126641"><ele>205.0</ele><time>2026-03-28T13:33:03.999Z</time></trkpt><trkpt lat="45.884805527390974" lon="11.04331961920379"><ele>205.0</ele><time>2026-03-28T13:33:06Z</time></trkpt><trkpt lat="45.88483483227562" lon="11.043183558326897"><ele>205.0</ele><time>2026-03-28T13:33:09Z</time></trkpt><trkpt lat="45.88479541213976" lon="11.043104274394146"><ele>204.99999999999997</ele><time>2026-03-28T13:33:10Z</time></trkpt><trkpt lat="45.88475153220004" lon="11.043013428946598"><ele>205.0</ele><time>2026-03-28T13:33:11Z</time></trkpt><trkpt lat="45.88470757942244" lon="11.042944788212209"><ele>204.42857142857144</ele><time>2026-03-28T13:33:12Z</time></trkpt><trkpt lat="45.884661301516246" lon="11.042877623260464"><ele>203.85714285714283</ele><time>2026-03-28T13:33:13Z</time></trkpt><trkpt lat="45.8846234321603" lon="11.042768479005218"><ele>203.28571428571428</ele><time>2026-03-28T13:33:14Z</time></trkpt><trkpt lat="45.88457736121388" lon="11.042675709271162"><ele>202.71428571428572</ele><time>2026-03-28T13:33:15Z</time></trkpt><trkpt lat="45.88453438144715" lon="11.042594034732739"><ele>202.14285714285717</ele><time>2026-03-28T13:33:16Z</time></trkpt><trkpt lat="45.88449250781515" lon="11.042503705295841"><ele>201.57142857142856</ele><time>2026-03-28T13:33:17Z</time></trkpt><trkpt lat="45.88446207376125" lon="11.042410640737891"><ele>201.0</ele><time>2026-03-28T13:33:19Z</time></trkpt><trkpt lat="45.88438541379369" lon="11.04231353567361"><ele>201.4</ele><time>2026-03-28T13:34:38.999Z</time></trkpt><trkpt lat="45.884334290270765" lon="11.042167345771148"><ele>201.8</ele><time>2026-03-28T13:34:40.999Z</time></trkpt><trkpt lat="45.884333004773396" lon="11.041986595594897"><ele>202.20000000000002</ele><time>2026-03-28T13:34:42.999Z</time></trkpt><trkpt lat="45.88432567905915" lon="11.04188044039749"><ele>202.60000000000002</ele><time>2026-03-28T13:34:43.999Z</time></trkpt><trkpt lat="45.88428935315026" lon="11.041789205397448"><ele>203.0</ele><time>2026-03-28T13:34:44.999Z</time></trkpt><trkpt lat="45.88419294224837" lon="11.041688821461284"><ele>203.0</ele><time>2026-03-28T13:34:46.999Z</time></trkpt><trkpt lat="45.88413917710075" lon="11.041633629597921"><ele>203.0</ele><time>2026-03-28T13:34:47.999Z</time></trkpt><trkpt lat="45.88408530715503" lon="11.041572076089397"><ele>203.0</ele><time>2026-03-28T13:34:48.999Z</time></trkpt><trkpt lat="45.884035564458046" lon="11.04150296772516"><ele>203.0</ele><time>2026-03-28T13:34:49.999Z</time></trkpt><trkpt lat="45.883988827500794" lon="11.041427201376054"><ele>203.0</ele><time>2026-03-28T13:34:50.999Z</time></trkpt><trkpt lat="45.883941044451944" lon="11.04134156415822"><ele>203.0</ele><time>2026-03-28T13:34:51.999Z</time></trkpt><trkpt lat="45.88389741549228" lon="11.041266845509716"><ele>203.0</ele><time>2026-03-28T13:34:52.999Z</time></trkpt><trkpt lat="45.883851103639046" lon="11.041186197394577"><ele>202.66666666666669</ele><time>2026-03-28T13:34:53.999Z</time></trkpt><trkpt lat="45.8837975146279" lon="11.041106006391885"><ele>202.33333333333334</ele><time>2026-03-28T13:34:54.999Z</time></trkpt><trkpt lat="45.883742857923565" lon="11.04102836611479"><ele>202.0</ele><time>2026-03-28T13:34:55.999Z</time></trkpt><trkpt lat="45.88368900758721" lon="11.040949498153095"><ele>201.66666666666669</ele><time>2026-03-28T13:34:56.999Z</time></trkpt><trkpt lat="45.88363412816605" lon="11.040860571867269"><ele>201.33333333333334</ele><time>2026-03-28T13:34:57.999Z</time></trkpt><trkpt lat="45.88358099917239" lon="11.04077359857288"><ele>201.0</ele><time>2026-03-28T13:34:58.999Z</time></trkpt><trkpt lat="45.883530420760366" lon="11.040689501890775"><ele>200.83333333333334</ele><time>2026-03-28T13:34:59.999Z</time></trkpt><trkpt lat="45.88347366195215" lon="11.040610483984654"><ele>200.66666666666669</ele><time>2026-03-28T13:35:00.999Z</time></trkpt><trkpt lat="45.883414088363615" lon="11.040526652675387"><ele>200.5</ele><time>2026-03-28T13:35:01.999Z</time></trkpt><trkpt lat="45.8833681713823" lon="11.040415372881823"><ele>200.33333333333334</ele><time>2026-03-28T13:35:02.999Z</time></trkpt><trkpt lat="45.883315376934384" lon="11.040327531381417"><ele>200.16666666666669</ele><time>2026-03-28T13:35:03.999Z</time></trkpt><trkpt lat="45.88326826104703" lon="11.040249395302446"><ele>200.0</ele><time>2026-03-28T13:35:04.999Z</time></trkpt><trkpt lat="45.883215250095766" lon="11.040167522829767"><ele>200.00000000000003</ele><time>2026-03-28T13:35:05.999Z</time></trkpt><trkpt lat="45.88316412801266" lon="11.040088724125637"><ele>200.0</ele><time>2026-03-28T13:35:06.999Z</time></trkpt><trkpt lat="45.88310886686729" lon="11.040004605709722"><ele>200.0</ele><time>2026-03-28T13:35:07.999Z</time></trkpt><trkpt lat="45.88305443166207" lon="11.039921744506206"><ele>200.0</ele><time>2026-03-28T13:35:08.999Z</time></trkpt><trkpt lat="45.883003880708905" lon="11.03984496992297"><ele>200.00000000000003</ele><time>2026-03-28T13:35:09.999Z</time></trkpt><trkpt lat="45.88294642310018" lon="11.039789330630605"><ele>200.0</ele><time>2026-03-28T13:35:11Z</time></trkpt><trkpt lat="45.88289313731279" lon="11.039708886244181"><ele>199.83333333333334</ele><time>2026-03-28T13:35:12Z</time></trkpt><trkpt lat="45.88284877241871" lon="11.039609929712947"><ele>199.66666666666669</ele><time>2026-03-28T13:35:13Z</time></trkpt><trkpt lat="45.882789571072074" lon="11.039520220168281"><ele>199.5</ele><time>2026-03-28T13:35:14Z</time></trkpt><trkpt lat="45.88272886880469" lon="11.039427963932102"><ele>199.33333333333331</ele><time>2026-03-28T13:35:15Z</time></trkpt><trkpt lat="45.88266054850639" lon="11.039358365938554"><ele>199.16666666666666</ele><time>2026-03-28T13:35:16Z</time></trkpt><trkpt lat="45.88262238596158" lon="11.039279051498195"><ele>199.0</ele><time>2026-03-28T13:35:17Z</time></trkpt><trkpt lat="45.88257746537965" lon="11.039198121325668"><ele>198.66666666666666</ele><time>2026-03-28T13:35:18Z</time></trkpt><trkpt lat="45.88252633557604" lon="11.039125626401422"><ele>198.33333333333331</ele><time>2026-03-28T13:35:19Z</time></trkpt><trkpt lat="45.88247840006437" lon="11.0390594134352"><ele>198.0</ele><time>2026-03-28T13:35:20Z</time></trkpt><trkpt lat="45.882438985073" lon="11.03898344473475"><ele>197.66666666666669</ele><time>2026-03-28T13:35:21Z</time></trkpt><trkpt lat="45.88235150836506" lon="11.03884075568097"><ele>197.33333333333334</ele><time>2026-03-28T13:35:23Z</time></trkpt><trkpt lat="45.882299400472036" lon="11.038768449578193"><ele>197.0</ele><time>2026-03-28T13:35:24Z</time></trkpt><trkpt lat="45.88223983761644" lon="11.03869099807442"><ele>197.00000000000003</ele><time>2026-03-28T13:35:25Z</time></trkpt><trkpt lat="45.882185595878624" lon="11.038614153490741"><ele>197.0</ele><time>2026-03-28T13:35:26Z</time></trkpt><trkpt lat="45.88212871964916" lon="11.038530255457685"><ele>197.0</ele><time>2026-03-28T13:35:27Z</time></trkpt><trkpt lat="45.88207141595758" lon="11.038444329115304"><ele>197.0</ele><time>2026-03-28T13:35:28Z</time></trkpt><trkpt lat="45.882017742016394" lon="11.038362434668665"><ele>197.00000000000003</ele><time>2026-03-28T13:35:29Z</time></trkpt><trkpt lat="45.88196509190604" lon="11.038278094446229"><ele>197.0</ele><time>2026-03-28T13:35:30Z</time></trkpt><trkpt lat="45.88189316932278" lon="11.038192532495122"><ele>196.6</ele><time>2026-03-28T13:35:31Z</time></trkpt><trkpt lat="45.88182787750692" lon="11.03809643257524"><ele>196.2</ele><time>2026-03-28T13:35:32Z</time></trkpt><trkpt lat="45.88175173658626" lon="11.038002064847088"><ele>195.8</ele><time>2026-03-28T13:35:33Z</time></trkpt><trkpt lat="45.88168123325342" lon="11.037896305391355"><ele>195.4</ele><time>2026-03-28T13:35:34Z</time></trkpt><trkpt lat="45.88160941079042" lon="11.037787889319398"><ele>195.0</ele><time>2026-03-28T13:35:35Z</time></trkpt><trkpt lat="45.881537303375296" lon="11.037673404057111"><ele>195.0</ele><time>2026-03-28T13:35:36Z</time></trkpt><trkpt lat="45.881459421647" lon="11.037546633188931"><ele>195.0</ele><time>2026-03-28T13:35:37Z</time></trkpt><trkpt lat="45.881384372475765" lon="11.037423838782235"><ele>195.0</ele><time>2026-03-28T13:35:38Z</time></trkpt><trkpt lat="45.88129663516456" lon="11.037292959854614"><ele>195.0</ele><time>2026-03-28T13:35:39Z</time></trkpt><trkpt lat="45.88119784270459" lon="11.037160566937088"><ele>195.0</ele><time>2026-03-28T13:35:40Z</time></trkpt><trkpt lat="45.88112191891443" lon="11.037001880158769"><ele>195.0</ele><time>2026-03-28T13:35:41Z</time></trkpt><trkpt lat="45.88101763535748" lon="11.036872127311879"><ele>195.0</ele><time>2026-03-28T13:35:42Z</time></trkpt><trkpt lat="45.88092043091268" lon="11.036723181526197"><ele>195.0</ele><time>2026-03-28T13:35:43Z</time></trkpt><trkpt lat="45.88081872401322" lon="11.036564687188413"><ele>195.0</ele><time>2026-03-28T13:35:44Z</time></trkpt><trkpt lat="45.88072301977046" lon="11.036412137917752"><ele>195.0</ele><time>2026-03-28T13:35:45Z</time></trkpt><trkpt lat="45.88062824021322" lon="11.036272137385827"><ele>195.0</ele><time>2026-03-28T13:35:46Z</time></trkpt><trkpt lat="45.88053209874683" lon="11.03613380105377"><ele>195.0</ele><time>2026-03-28T13:35:47Z</time></trkpt><trkpt lat="45.88043342307204" lon="11.035987009987439"><ele>195.0</ele><time>2026-03-28T13:35:48Z</time></trkpt><trkpt lat="45.88033312730709" lon="11.035845490227986"><ele>195.0</ele><time>2026-03-28T13:35:49Z</time></trkpt><trkpt lat="45.880236423002145" lon="11.035717049344568"><ele>195.0</ele><time>2026-03-28T13:35:50Z</time></trkpt><trkpt lat="45.880146966212244" lon="11.03558464825648"><ele>195.0</ele><time>2026-03-28T13:35:51Z</time></trkpt><trkpt lat="45.88004664285603" lon="11.035471730258998"><ele>195.0</ele><time>2026-03-28T13:35:52Z</time></trkpt><trkpt lat="45.87995890521604" lon="11.035392330203186"><ele>195.0</ele><time>2026-03-28T13:35:53Z</time></trkpt><trkpt lat="45.879872816729055" lon="11.035309660947114"><ele>195.0</ele><time>2026-03-28T13:35:54Z</time></trkpt><trkpt lat="45.87980692860295" lon="11.035210301970999"><ele>195.0</ele><time>2026-03-28T13:35:55Z</time></trkpt><trkpt lat="45.87974022576432" lon="11.035138194391344"><ele>195.0</ele><time>2026-03-28T13:35:56Z</time></trkpt><trkpt lat="45.87966257399056" lon="11.035054159197339"><ele>194.75</ele><time>2026-03-28T13:35:57Z</time></trkpt><trkpt lat="45.879577168727145" lon="11.034961100713955"><ele>194.5</ele><time>2026-03-28T13:35:58Z</time></trkpt><trkpt lat="45.879475090534775" lon="11.034849300797674"><ele>194.25</ele><time>2026-03-28T13:35:59Z</time></trkpt><trkpt lat="45.87936274840734" lon="11.03472635320775"><ele>194.0</ele><time>2026-03-28T13:36:00Z</time></trkpt><trkpt lat="45.87925574381778" lon="11.034609450107702"><ele>193.75</ele><time>2026-03-28T13:36:01Z</time></trkpt><trkpt lat="45.87913841379899" lon="11.034481897583658"><ele>193.5</ele><time>2026-03-28T13:36:02Z</time></trkpt><trkpt lat="45.879028190816875" lon="11.03436207154041"><ele>193.25</ele><time>2026-03-28T13:36:03Z</time></trkpt><trkpt lat="45.878908794778134" lon="11.034264281647415"><ele>193.0</ele><time>2026-03-28T13:36:04Z</time></trkpt><trkpt lat="45.87879545474241" lon="11.034130419782777"><ele>192.66666666666666</ele><time>2026-03-28T13:36:05Z</time></trkpt><trkpt lat="45.878681101641114" lon="11.034000831904311"><ele>192.33333333333331</ele><time>2026-03-28T13:36:06Z</time></trkpt><trkpt lat="45.87855464770371" lon="11.033874042826726"><ele>192.0</ele><time>2026-03-28T13:36:07Z</time></trkpt><trkpt lat="45.878435735773074" lon="11.033740423897171"><ele>192.0</ele><time>2026-03-28T13:36:08Z</time></trkpt><trkpt lat="45.87832050438288" lon="11.033618325297311"><ele>192.0</ele><time>2026-03-28T13:36:09Z</time></trkpt><trkpt lat="45.878214667430385" lon="11.033501359843783"><ele>192.0</ele><time>2026-03-28T13:36:10Z</time></trkpt><trkpt lat="45.878128315613495" lon="11.033389529452705"><ele>192.0</ele><time>2026-03-28T13:36:11Z</time></trkpt><trkpt lat="45.87802762954782" lon="11.033309171490277"><ele>191.0</ele><time>2026-03-28T13:36:12Z</time></trkpt><trkpt lat="45.877928674927034" lon="11.033240936627575"><ele>190.0</ele><time>2026-03-28T13:36:13Z</time></trkpt><trkpt lat="45.877834248087886" lon="11.03315082075758"><ele>189.0</ele><time>2026-03-28T13:36:14Z</time></trkpt><trkpt lat="45.87774897640874" lon="11.033037873725252"><ele>188.0</ele><time>2026-03-28T13:36:15Z</time></trkpt><trkpt lat="45.877675827756406" lon="11.032892750803514"><ele>187.5</ele><time>2026-03-28T13:36:16Z</time></trkpt><trkpt lat="45.87758058262801" lon="11.032791378675608"><ele>187.0</ele><time>2026-03-28T13:36:17Z</time></trkpt><trkpt lat="45.87747930408217" lon="11.032684690100867"><ele>186.5</ele><time>2026-03-28T13:36:18Z</time></trkpt><trkpt lat="45.87737378717538" lon="11.032604880312402"><ele>186.0</ele><time>2026-03-28T13:36:19Z</time></trkpt><trkpt lat="45.8772836285532" lon="11.032502703768637"><ele>185.66666666666666</ele><time>2026-03-28T13:36:20Z</time></trkpt><trkpt lat="45.8772024554191" lon="11.032401789796515"><ele>185.33333333333334</ele><time>2026-03-28T13:36:21Z</time></trkpt><trkpt lat="45.8771591323781" lon="11.032281130532468"><ele>185.0</ele><time>2026-03-28T13:36:22Z</time></trkpt><trkpt lat="45.8771366874356" lon="11.032155730099156"><ele>184.66666666666669</ele><time>2026-03-28T13:36:23Z</time></trkpt><trkpt lat="45.877098146612305" lon="11.032045584062006"><ele>184.33333333333334</ele><time>2026-03-28T13:36:24Z</time></trkpt><trkpt lat="45.87704378170653" lon="11.031980690947458"><ele>184.0</ele><time>2026-03-28T13:36:25Z</time></trkpt><trkpt lat="45.87692198352445" lon="11.031997626808321"><ele>184.0</ele><time>2026-03-28T13:36:27Z</time></trkpt><trkpt lat="45.87685969965107" lon="11.032025825842428"><ele>184.0</ele><time>2026-03-28T13:36:28Z</time></trkpt><trkpt lat="45.87678385337507" lon="11.032023840815638"><ele>184.0</ele><time>2026-03-28T13:36:29Z</time></trkpt><trkpt lat="45.87670087842754" lon="11.032013738827697"><ele>184.0</ele><time>2026-03-28T13:36:30Z</time></trkpt><trkpt lat="45.87660871529292" lon="11.031983340627368"><ele>184.0</ele><time>2026-03-28T13:36:31Z</time></trkpt><trkpt lat="45.87651128359443" lon="11.031966553452465"><ele>184.0</ele><time>2026-03-28T13:36:31.999Z</time></trkpt><trkpt lat="45.87641394180432" lon="11.031949783799586"><ele>184.39999999999998</ele><time>2026-03-28T13:36:32.999Z</time></trkpt><trkpt lat="45.87631876560273" lon="11.031954269790186"><ele>184.8</ele><time>2026-03-28T13:36:33.999Z</time></trkpt><trkpt lat="45.876229666588685" lon="11.031935882387563"><ele>185.2</ele><time>2026-03-28T13:36:34.999Z</time></trkpt><trkpt lat="45.876138946069624" lon="11.031921878512314"><ele>185.60000000000002</ele><time>2026-03-28T13:36:35.999Z</time></trkpt><trkpt lat="45.876046801008926" lon="11.031910805282036"><ele>186.0</ele><time>2026-03-28T13:36:36.999Z</time></trkpt><trkpt lat="45.87595206707093" lon="11.031894105152825"><ele>185.83333333333334</ele><time>2026-03-28T13:36:37.999Z</time></trkpt><trkpt lat="45.87586876576032" lon="11.031859271274376"><ele>185.66666666666666</ele><time>2026-03-28T13:36:38.999Z</time></trkpt><trkpt lat="45.875788648881226" lon="11.031868671513676"><ele>185.5</ele><time>2026-03-28T13:36:39.999Z</time></trkpt><trkpt lat="45.8757113553032" lon="11.03183332586089"><ele>185.33333333333331</ele><time>2026-03-28T13:36:40.999Z</time></trkpt><trkpt lat="45.875632830293696" lon="11.031842648107272"><ele>185.16666666666666</ele><time>2026-03-28T13:36:41.999Z</time></trkpt><trkpt lat="45.875556138502645" lon="11.031829229442874"><ele>185.0</ele><time>2026-03-28T13:36:42.999Z</time></trkpt><trkpt lat="45.87548740875069" lon="11.031801286560247"><ele>184.99999999999997</ele><time>2026-03-28T13:36:43.999Z</time></trkpt><trkpt lat="45.875416832652114" lon="11.031787517197209"><ele>185.0</ele><time>2026-03-28T13:36:44.999Z</time></trkpt><trkpt lat="45.875343912734095" lon="11.03177358671862"><ele>185.0</ele><time>2026-03-28T13:36:45.999Z</time></trkpt><trkpt lat="45.875269817885936" lon="11.031764423910843"><ele>185.0</ele><time>2026-03-28T13:36:46.999Z</time></trkpt><trkpt lat="45.875198543289514" lon="11.031761236592034"><ele>185.0</ele><time>2026-03-28T13:36:47.999Z</time></trkpt><trkpt lat="45.875125771729714" lon="11.031741293412546"><ele>184.99999999999997</ele><time>2026-03-28T13:36:48.999Z</time></trkpt><trkpt lat="45.8750434411013" lon="11.031725824580812"><ele>185.0</ele><time>2026-03-28T13:36:49.999Z</time></trkpt><trkpt lat="45.87495929365905" lon="11.031713091869422"><ele>184.66666666666666</ele><time>2026-03-28T13:36:50.999Z</time></trkpt><trkpt lat="45.874875647472585" lon="11.031699477833882"><ele>184.33333333333331</ele><time>2026-03-28T13:36:51.999Z</time></trkpt><trkpt lat="45.87478783002198" lon="11.03168760972624"><ele>184.0</ele><time>2026-03-28T13:36:52.999Z</time></trkpt><trkpt lat="45.87469698101497" lon="11.031673344556163"><ele>183.66666666666666</ele><time>2026-03-28T13:36:53.999Z</time></trkpt><trkpt lat="45.87460745535955" lon="11.031657461059076"><ele>183.33333333333334</ele><time>2026-03-28T13:36:54.999Z</time></trkpt><trkpt lat="45.87452044878468" lon="11.031644726194347"><ele>183.0</ele><time>2026-03-28T13:36:55.999Z</time></trkpt><trkpt lat="45.874429506298114" lon="11.031628368936314"><ele>182.83333333333334</ele><time>2026-03-28T13:36:56.999Z</time></trkpt><trkpt lat="45.87433794526371" lon="11.03161406719117"><ele>182.66666666666666</ele><time>2026-03-28T13:36:57.999Z</time></trkpt><trkpt lat="45.874250888495155" lon="11.03160326209853"><ele>182.5</ele><time>2026-03-28T13:36:58.999Z</time></trkpt><trkpt lat="45.874167646896225" lon="11.03159209740479"><ele>182.33333333333331</ele><time>2026-03-28T13:36:59.999Z</time></trkpt><trkpt lat="45.874085601103566" lon="11.031576421960962"><ele>182.16666666666666</ele><time>2026-03-28T13:37:00.999Z</time></trkpt><trkpt lat="45.874005291016495" lon="11.031560184964674"><ele>182.0</ele><time>2026-03-28T13:37:01.999Z</time></trkpt><trkpt lat="45.87392511436825" lon="11.031541752074046"><ele>182.0</ele><time>2026-03-28T13:37:02.999Z</time></trkpt><trkpt lat="45.873843970054395" lon="11.031530223367266"><ele>182.0</ele><time>2026-03-28T13:37:03.999Z</time></trkpt><trkpt lat="45.873762717710264" lon="11.03151853007296"><ele>182.0</ele><time>2026-03-28T13:37:04.999Z</time></trkpt><trkpt lat="45.87368368926164" lon="11.031503193636558"><ele>182.0</ele><time>2026-03-28T13:37:05.999Z</time></trkpt><trkpt lat="45.87360176386784" lon="11.031490300707782"><ele>182.0</ele><time>2026-03-28T13:37:06.999Z</time></trkpt><trkpt lat="45.87352118631624" lon="11.031480449593982"><ele>182.0</ele><time>2026-03-28T13:37:07.999Z</time></trkpt><trkpt lat="45.87344227470022" lon="11.031469571839246"><ele>181.66666666666666</ele><time>2026-03-28T13:37:08.999Z</time></trkpt><trkpt lat="45.87336775373799" lon="11.031453468930327"><ele>181.33333333333331</ele><time>2026-03-28T13:37:09.999Z</time></trkpt><trkpt lat="45.873297434888656" lon="11.031434182722968"><ele>181.0</ele><time>2026-03-28T13:37:10.999Z</time></trkpt><trkpt lat="45.87323212880394" lon="11.031409956126051"><ele>180.66666666666666</ele><time>2026-03-28T13:37:11.999Z</time></trkpt><trkpt lat="45.87313270211659" lon="11.031333899563277"><ele>180.33333333333334</ele><time>2026-03-28T13:37:13.999Z</time></trkpt><trkpt lat="45.87305348586855" lon="11.031233125533488"><ele>180.0</ele><time>2026-03-28T13:37:15.999Z</time></trkpt><trkpt lat="45.872978827925444" lon="11.031107462769375"><ele>180.0</ele><time>2026-03-28T13:37:18Z</time></trkpt><trkpt lat="45.87293350468208" lon="11.031025862366421"><ele>180.0</ele><time>2026-03-28T13:37:19Z</time></trkpt><trkpt lat="45.87289942156142" lon="11.030900360756052"><ele>180.0</ele><time>2026-03-28T13:37:20Z</time></trkpt><trkpt lat="45.87288612109477" lon="11.030750214200959"><ele>180.0</ele><time>2026-03-28T13:37:21Z</time></trkpt><trkpt lat="45.87288221792355" lon="11.0305792686798"><ele>180.0</ele><time>2026-03-28T13:37:22Z</time></trkpt><trkpt lat="45.87288059366004" lon="11.0303879876353"><ele>180.0</ele><time>2026-03-28T13:37:23Z</time></trkpt><trkpt lat="45.87287128437019" lon="11.030173981789021"><ele>180.0</ele><time>2026-03-28T13:37:24Z</time></trkpt><trkpt lat="45.87286503979764" lon="11.02995777713277"><ele>180.0</ele><time>2026-03-28T13:37:25Z</time></trkpt><trkpt lat="45.872856694779145" lon="11.029753917605406"><ele>180.0</ele><time>2026-03-28T13:37:26Z</time></trkpt><trkpt lat="45.87286068063011" lon="11.02957942537416"><ele>179.66666666666666</ele><time>2026-03-28T13:37:27Z</time></trkpt><trkpt lat="45.87285909253336" lon="11.029429178977571"><ele>179.33333333333334</ele><time>2026-03-28T13:37:28Z</time></trkpt><trkpt lat="45.87285827494969" lon="11.029309085420001"><ele>179.0</ele><time>2026-03-28T13:37:29Z</time></trkpt><trkpt lat="45.872852069796494" lon="11.029189844132125"><ele>178.66666666666669</ele><time>2026-03-28T13:37:30Z</time></trkpt><trkpt lat="45.87287754842696" lon="11.029084709724465"><ele>178.33333333333334</ele><time>2026-03-28T13:37:31Z</time></trkpt><trkpt lat="45.87292526645534" lon="11.028998865865509"><ele>178.0</ele><time>2026-03-28T13:37:32Z</time></trkpt><trkpt lat="45.87295435067392" lon="11.028904835647282"><ele>177.8</ele><time>2026-03-28T13:37:33Z</time></trkpt><trkpt lat="45.872943827280956" lon="11.028802332266997"><ele>177.60000000000002</ele><time>2026-03-28T13:37:34Z</time></trkpt><trkpt lat="45.87290866808521" lon="11.028692239989867"><ele>177.39999999999998</ele><time>2026-03-28T13:37:35Z</time></trkpt><trkpt lat="45.87287297265701" lon="11.028561159336556"><ele>177.2</ele><time>2026-03-28T13:37:36Z</time></trkpt><trkpt lat="45.87284580132455" lon="11.028406756918974"><ele>177.0</ele><time>2026-03-28T13:37:37Z</time></trkpt><trkpt lat="45.872835567613286" lon="11.028226976902639"><ele>176.33333333333334</ele><time>2026-03-28T13:37:38Z</time></trkpt><trkpt lat="45.872829915383825" lon="11.028024622124134"><ele>175.66666666666669</ele><time>2026-03-28T13:37:39Z</time></trkpt><trkpt lat="45.872825969378205" lon="11.027808725025864"><ele>175.0</ele><time>2026-03-28T13:37:40Z</time></trkpt><trkpt lat="45.872824259145496" lon="11.027573617033921"><ele>174.66666666666669</ele><time>2026-03-28T13:37:41Z</time></trkpt><trkpt lat="45.872821695903866" lon="11.027330423329595"><ele>174.33333333333334</ele><time>2026-03-28T13:37:42Z</time></trkpt><trkpt lat="45.872820029282224" lon="11.027089832161481"><ele>174.0</ele><time>2026-03-28T13:37:43Z</time></trkpt><trkpt lat="45.87281674566389" lon="11.026833902985636"><ele>173.66666666666666</ele><time>2026-03-28T13:37:44Z</time></trkpt><trkpt lat="45.87281389689088" lon="11.026580580230092"><ele>173.33333333333331</ele><time>2026-03-28T13:37:45Z</time></trkpt><trkpt lat="45.87280979403657" lon="11.026332528802302"><ele>173.0</ele><time>2026-03-28T13:37:46Z</time></trkpt><trkpt lat="45.87280424727091" lon="11.026086045696749"><ele>173.0</ele><time>2026-03-28T13:37:47Z</time></trkpt><trkpt lat="45.87279990574209" lon="11.02584655205636"><ele>173.0</ele><time>2026-03-28T13:37:48Z</time></trkpt><trkpt lat="45.872797590177804" lon="11.025617871325753"><ele>173.0</ele><time>2026-03-28T13:37:49Z</time></trkpt><trkpt lat="45.87279431195835" lon="11.025390670691195"><ele>172.66666666666666</ele><time>2026-03-28T13:37:50Z</time></trkpt><trkpt lat="45.87279012249939" lon="11.025161754822108"><ele>172.33333333333334</ele><time>2026-03-28T13:37:51Z</time></trkpt><trkpt lat="45.872801656583114" lon="11.024935750408206"><ele>172.0</ele><time>2026-03-28T13:37:52Z</time></trkpt><trkpt lat="45.87280131548076" lon="11.024696098551628"><ele>172.33333333333334</ele><time>2026-03-28T13:37:53Z</time></trkpt><trkpt lat="45.87279933490411" lon="11.024456779019886"><ele>172.66666666666666</ele><time>2026-03-28T13:37:54Z</time></trkpt><trkpt lat="45.87278981742036" lon="11.024211760890418"><ele>173.0</ele><time>2026-03-28T13:37:55Z</time></trkpt><trkpt lat="45.87278767527451" lon="11.023974422400808"><ele>173.0</ele><time>2026-03-28T13:37:56Z</time></trkpt><trkpt lat="45.87278026005543" lon="11.023733429578671"><ele>173.0</ele><time>2026-03-28T13:37:57Z</time></trkpt><trkpt lat="45.87277831139132" lon="11.023510558801027"><ele>173.0</ele><time>2026-03-28T13:37:58Z</time></trkpt><trkpt lat="45.872776117759905" lon="11.023297417659567"><ele>173.25</ele><time>2026-03-28T13:37:59Z</time></trkpt><trkpt lat="45.87277038005018" lon="11.023087436258932"><ele>173.5</ele><time>2026-03-28T13:38:00Z</time></trkpt><trkpt lat="45.87276735203417" lon="11.022886772879774"><ele>173.75</ele><time>2026-03-28T13:38:01Z</time></trkpt><trkpt lat="45.87277608846015" lon="11.022697255217118"><ele>174.0</ele><time>2026-03-28T13:38:02Z</time></trkpt><trkpt lat="45.872768041755464" lon="11.022507707654643"><ele>174.25</ele><time>2026-03-28T13:38:03Z</time></trkpt><trkpt lat="45.872762067489056" lon="11.022321027574737"><ele>174.5</ele><time>2026-03-28T13:38:04Z</time></trkpt><trkpt lat="45.87275157188419" lon="11.022148770297614"><ele>174.75</ele><time>2026-03-28T13:38:05Z</time></trkpt><trkpt lat="45.87273741838905" lon="11.021999218014424"><ele>175.0</ele><time>2026-03-28T13:38:06Z</time></trkpt><trkpt lat="45.87271840118483" lon="11.021863908692756"><ele>175.0</ele><time>2026-03-28T13:38:07Z</time></trkpt><trkpt lat="45.87270802302042" lon="11.021770171890735"><ele>175.0</ele><time>2026-03-28T13:38:08Z</time></trkpt><trkpt lat="45.87268561515041" lon="11.021681546223737"><ele>175.0</ele><time>2026-03-28T13:38:09Z</time></trkpt><trkpt lat="45.87265371125442" lon="11.021525103834392"><ele>175.0</ele><time>2026-03-28T13:38:11Z</time></trkpt><trkpt lat="45.87263746214679" lon="11.021390730870062"><ele>175.0</ele><time>2026-03-28T13:38:13Z</time></trkpt><trkpt lat="45.872603332497434" lon="11.021241426534726"><ele>174.66666666666669</ele><time>2026-03-28T13:38:15Z</time></trkpt><trkpt lat="45.87257982965125" lon="11.021154551400718"><ele>174.33333333333334</ele><time>2026-03-28T13:38:16Z</time></trkpt><trkpt lat="45.87255120066079" lon="11.021010700824101"><ele>174.0</ele><time>2026-03-28T13:38:18Z</time></trkpt><trkpt lat="45.87257885742477" lon="11.020849800064495"><ele>173.66666666666666</ele><time>2026-03-28T13:38:20Z</time></trkpt><trkpt lat="45.87261158060478" lon="11.020763901719143"><ele>173.33333333333331</ele><time>2026-03-28T13:38:21Z</time></trkpt><trkpt lat="45.87262454482002" lon="11.020662098519104"><ele>173.0</ele><time>2026-03-28T13:38:22Z</time></trkpt><trkpt lat="45.87260930984185" lon="11.020564681307631"><ele>173.0</ele><time>2026-03-28T13:38:23Z</time></trkpt><trkpt lat="45.872558588853536" lon="11.020476047629657"><ele>173.0</ele><time>2026-03-28T13:38:24Z</time></trkpt><trkpt lat="45.87248771442701" lon="11.020400702732275"><ele>173.0</ele><time>2026-03-28T13:38:25Z</time></trkpt><trkpt lat="45.87239955281401" lon="11.02034557016194"><ele>173.0</ele><time>2026-03-28T13:38:26Z</time></trkpt><trkpt lat="45.87231535461405" lon="11.02028095738136"><ele>173.0</ele><time>2026-03-28T13:38:27Z</time></trkpt><trkpt lat="45.872251989792304" lon="11.020188136122783"><ele>173.0</ele><time>2026-03-28T13:38:28Z</time></trkpt><trkpt lat="45.872208153207524" lon="11.020079099388298"><ele>173.0</ele><time>2026-03-28T13:38:29Z</time></trkpt><trkpt lat="45.87216968613944" lon="11.019955172609599"><ele>173.0</ele><time>2026-03-28T13:38:30Z</time></trkpt><trkpt lat="45.87211272178181" lon="11.019824275349128"><ele>173.0</ele><time>2026-03-28T13:38:31Z</time></trkpt><trkpt lat="45.87205297577511" lon="11.019690039761539"><ele>173.0</ele><time>2026-03-28T13:38:32Z</time></trkpt><trkpt lat="45.87199459547173" lon="11.019567982898765"><ele>173.0</ele><time>2026-03-28T13:38:33Z</time></trkpt><trkpt lat="45.87193363324751" lon="11.019456610196977"><ele>173.0</ele><time>2026-03-28T13:38:34Z</time></trkpt><trkpt lat="45.87188388070563" lon="11.019338327727295"><ele>173.0</ele><time>2026-03-28T13:38:35Z</time></trkpt><trkpt lat="45.87182284664755" lon="11.019229511583218"><ele>173.0</ele><time>2026-03-28T13:38:36Z</time></trkpt><trkpt lat="45.87175509815793" lon="11.019126091694192"><ele>173.0</ele><time>2026-03-28T13:38:37Z</time></trkpt><trkpt lat="45.87168819424602" lon="11.01902271587913"><ele>173.0</ele><time>2026-03-28T13:38:38Z</time></trkpt><trkpt lat="45.87162058976881" lon="11.018919063625885"><ele>173.0</ele><time>2026-03-28T13:38:39Z</time></trkpt><trkpt lat="45.871554353976386" lon="11.018807196391599"><ele>173.0</ele><time>2026-03-28T13:38:40Z</time></trkpt><trkpt lat="45.8714809699494" lon="11.018690987378328"><ele>173.0</ele><time>2026-03-28T13:38:41Z</time></trkpt><trkpt lat="45.87139504300421" lon="11.018572130396997"><ele>173.0</ele><time>2026-03-28T13:38:42Z</time></trkpt><trkpt lat="45.871304453454165" lon="11.01844577500871"><ele>173.0</ele><time>2026-03-28T13:38:43Z</time></trkpt><trkpt lat="45.87120468501198" lon="11.018300995746692"><ele>173.0</ele><time>2026-03-28T13:38:44Z</time></trkpt><trkpt lat="45.871105777524555" lon="11.018135029640138"><ele>173.0</ele><time>2026-03-28T13:38:45Z</time></trkpt><trkpt lat="45.871022111324415" lon="11.01797019919329"><ele>173.0</ele><time>2026-03-28T13:38:46Z</time></trkpt><trkpt lat="45.87093342265398" lon="11.01782063127628"><ele>173.0</ele><time>2026-03-28T13:38:47Z</time></trkpt><trkpt lat="45.870853876650116" lon="11.017695396716409"><ele>173.0</ele><time>2026-03-28T13:38:48Z</time></trkpt><trkpt lat="45.87077560816327" lon="11.017575301824214"><ele>173.0</ele><time>2026-03-28T13:38:49Z</time></trkpt><trkpt lat="45.87069366471805" lon="11.017456600909476"><ele>173.0</ele><time>2026-03-28T13:38:50Z</time></trkpt><trkpt lat="45.870617888558606" lon="11.017347774800404"><ele>172.66666666666666</ele><time>2026-03-28T13:38:51Z</time></trkpt><trkpt lat="45.87054963387266" lon="11.01725264907512"><ele>172.33333333333331</ele><time>2026-03-28T13:38:52Z</time></trkpt><trkpt lat="45.87049197682733" lon="11.017167155189695"><ele>172.0</ele><time>2026-03-28T13:38:53Z</time></trkpt><trkpt lat="45.87044399011297" lon="11.017086243550958"><ele>171.66666666666666</ele><time>2026-03-28T13:38:54Z</time></trkpt><trkpt lat="45.87038751132431" lon="11.016994274411605"><ele>171.33333333333334</ele><time>2026-03-28T13:38:55Z</time></trkpt><trkpt lat="45.87033707497998" lon="11.016899474309076"><ele>171.0</ele><time>2026-03-28T13:38:55.999Z</time></trkpt><trkpt lat="45.870284438498054" lon="11.01682333327244"><ele>171.0</ele><time>2026-03-28T13:38:56.999Z</time></trkpt><trkpt lat="45.87023494332327" lon="11.016754193609415"><ele>171.0</ele><time>2026-03-28T13:38:57.999Z</time></trkpt><trkpt lat="45.87018918326279" lon="11.016679298159646"><ele>171.0</ele><time>2026-03-28T13:38:58.999Z</time></trkpt><trkpt lat="45.87013718255709" lon="11.016597106668897"><ele>171.0</ele><time>2026-03-28T13:38:59.999Z</time></trkpt><trkpt lat="45.87008875466468" lon="11.016518569224884"><ele>171.0</ele><time>2026-03-28T13:39:00.999Z</time></trkpt><trkpt lat="45.870026076705884" lon="11.016424236396613"><ele>171.0</ele><time>2026-03-28T13:39:01.999Z</time></trkpt><trkpt lat="45.869957521874696" lon="11.016316827230725"><ele>170.75</ele><time>2026-03-28T13:39:02.999Z</time></trkpt><trkpt lat="45.8698844540775" lon="11.01620115628969"><ele>170.5</ele><time>2026-03-28T13:39:03.999Z</time></trkpt><trkpt lat="45.86980821562107" lon="11.01608326815371"><ele>170.25</ele><time>2026-03-28T13:39:04.999Z</time></trkpt><trkpt lat="45.86972396615811" lon="11.015957075737905"><ele>170.0</ele><time>2026-03-28T13:39:05.999Z</time></trkpt><trkpt lat="45.86963891752476" lon="11.015816656298737"><ele>170.0</ele><time>2026-03-28T13:39:06.999Z</time></trkpt><trkpt lat="45.869544300499484" lon="11.015665168498534"><ele>170.0</ele><time>2026-03-28T13:39:07.999Z</time></trkpt><trkpt lat="45.86944469915967" lon="11.01551203674062"><ele>170.0</ele><time>2026-03-28T13:39:08.999Z</time></trkpt><trkpt lat="45.869347016377354" lon="11.015357060456175"><ele>170.0</ele><time>2026-03-28T13:39:09.999Z</time></trkpt><trkpt lat="45.86924940654196" lon="11.015198123673349"><ele>170.0</ele><time>2026-03-28T13:39:10.999Z</time></trkpt><trkpt lat="45.8691522912038" lon="11.015037112318767"><ele>170.0</ele><time>2026-03-28T13:39:11.999Z</time></trkpt><trkpt lat="45.86906333092171" lon="11.014875794336701"><ele>170.0</ele><time>2026-03-28T13:39:12.999Z</time></trkpt><trkpt lat="45.86897647999008" lon="11.014708469333936"><ele>170.0</ele><time>2026-03-28T13:39:13.999Z</time></trkpt><trkpt lat="45.86889363674471" lon="11.014534157598813"><ele>170.0</ele><time>2026-03-28T13:39:14.999Z</time></trkpt><trkpt lat="45.86881814521522" lon="11.014362914203614"><ele>170.0</ele><time>2026-03-28T13:39:15.999Z</time></trkpt><trkpt lat="45.86874662399125" lon="11.014198398473042"><ele>170.0</ele><time>2026-03-28T13:39:16.999Z</time></trkpt><trkpt lat="45.8686731723361" lon="11.014037060657543"><ele>170.0</ele><time>2026-03-28T13:39:17.999Z</time></trkpt><trkpt lat="45.8686108541975" lon="11.013877249228267"><ele>169.75</ele><time>2026-03-28T13:39:18.999Z</time></trkpt><trkpt lat="45.868552673829974" lon="11.01371645941486"><ele>169.5</ele><time>2026-03-28T13:39:19.999Z</time></trkpt><trkpt lat="45.86850198864694" lon="11.013559875737883"><ele>169.25</ele><time>2026-03-28T13:39:20.999Z</time></trkpt><trkpt lat="45.86845632947212" lon="11.01341563580866"><ele>169.0</ele><time>2026-03-28T13:39:21.999Z</time></trkpt><trkpt lat="45.86841794228291" lon="11.013276732223305"><ele>168.66666666666669</ele><time>2026-03-28T13:39:23Z</time></trkpt><trkpt lat="45.868383861478264" lon="11.013152954675327"><ele>168.33333333333334</ele><time>2026-03-28T13:39:24Z</time></trkpt><trkpt lat="45.86836970713101" lon="11.013038725754505"><ele>168.0</ele><time>2026-03-28T13:39:25Z</time></trkpt><trkpt lat="45.86837751445598" lon="11.012922522442894"><ele>167.66666666666666</ele><time>2026-03-28T13:39:26Z</time></trkpt><trkpt lat="45.86839023982041" lon="11.01280917841188"><ele>167.33333333333331</ele><time>2026-03-28T13:39:27Z</time></trkpt><trkpt lat="45.8683781437633" lon="11.012693116642325"><ele>167.0</ele><time>2026-03-28T13:39:28Z</time></trkpt><trkpt lat="45.86832843259825" lon="11.012594120755898"><ele>167.0</ele><time>2026-03-28T13:39:29Z</time></trkpt><trkpt lat="45.86825626497732" lon="11.012509180466717"><ele>167.0</ele><time>2026-03-28T13:39:30Z</time></trkpt><trkpt lat="45.8681740558586" lon="11.012433720197798"><ele>167.0</ele><time>2026-03-28T13:39:31Z</time></trkpt><trkpt lat="45.868097677532894" lon="11.012344129165452"><ele>167.0</ele><time>2026-03-28T13:39:32Z</time></trkpt><trkpt lat="45.86803903824751" lon="11.012225324781468"><ele>167.0</ele><time>2026-03-28T13:39:33Z</time></trkpt><trkpt lat="45.867997139971244" lon="11.012102569131457"><ele>166.8</ele><time>2026-03-28T13:39:34Z</time></trkpt><trkpt lat="45.867950597446175" lon="11.011974692242681"><ele>166.6</ele><time>2026-03-28T13:39:35Z</time></trkpt><trkpt lat="45.867902737434804" lon="11.011830083925762"><ele>166.4</ele><time>2026-03-28T13:39:36Z</time></trkpt><trkpt lat="45.86785362810729" lon="11.011689808606858"><ele>166.20000000000002</ele><time>2026-03-28T13:39:37Z</time></trkpt><trkpt lat="45.86780113812571" lon="11.011552182637752"><ele>166.0</ele><time>2026-03-28T13:39:38Z</time></trkpt><trkpt lat="45.86774969878747" lon="11.011395256860261"><ele>165.75</ele><time>2026-03-28T13:39:39Z</time></trkpt><trkpt lat="45.867697145576315" lon="11.011218154574347"><ele>165.5</ele><time>2026-03-28T13:39:40Z</time></trkpt><trkpt lat="45.867619893545985" lon="11.011044335339095"><ele>165.25</ele><time>2026-03-28T13:39:41Z</time></trkpt><trkpt lat="45.86755060495544" lon="11.010852195822146"><ele>165.0</ele><time>2026-03-28T13:39:42Z</time></trkpt><trkpt lat="45.86747444710684" lon="11.010673506525128"><ele>166.0</ele><time>2026-03-28T13:39:43Z</time></trkpt><trkpt lat="45.867397606148" lon="11.01051563158327"><ele>167.0</ele><time>2026-03-28T13:39:44Z</time></trkpt><trkpt lat="45.867327036138825" lon="11.010387024537668"><ele>168.0</ele><time>2026-03-28T13:39:45Z</time></trkpt><trkpt lat="45.8672491079649" lon="11.010267518963865"><ele>169.0</ele><time>2026-03-28T13:39:46Z</time></trkpt><trkpt lat="45.86715964864226" lon="11.010142212662627"><ele>169.0</ele><time>2026-03-28T13:39:47Z</time></trkpt><trkpt lat="45.867054390829054" lon="11.010003355020991"><ele>169.0</ele><time>2026-03-28T13:39:48Z</time></trkpt><trkpt lat="45.86695347278391" lon="11.009831912800912"><ele>169.0</ele><time>2026-03-28T13:39:49Z</time></trkpt><trkpt lat="45.86684425656988" lon="11.00965421622105"><ele>168.75</ele><time>2026-03-28T13:39:50Z</time></trkpt><trkpt lat="45.86674552559608" lon="11.009487431113094"><ele>168.5</ele><time>2026-03-28T13:39:51Z</time></trkpt><trkpt lat="45.866657463274244" lon="11.00932259636945"><ele>168.25</ele><time>2026-03-28T13:39:52Z</time></trkpt><trkpt lat="45.86656901777689" lon="11.00915213547725"><ele>168.0</ele><time>2026-03-28T13:39:53Z</time></trkpt><trkpt lat="45.86648027611554" lon="11.008974273657078"><ele>168.0</ele><time>2026-03-28T13:39:54Z</time></trkpt><trkpt lat="45.86640302145592" lon="11.008803719869773"><ele>168.0</ele><time>2026-03-28T13:39:55Z</time></trkpt><trkpt lat="45.86634839200675" lon="11.008651972501744"><ele>168.0</ele><time>2026-03-28T13:39:56Z</time></trkpt><trkpt lat="45.86631646284456" lon="11.008511189038092"><ele>168.0</ele><time>2026-03-28T13:39:57Z</time></trkpt><trkpt lat="45.8663135826286" lon="11.008388277627255"><ele>168.0</ele><time>2026-03-28T13:39:58Z</time></trkpt><trkpt lat="45.86634243430804" lon="11.008280146488481"><ele>168.0</ele><time>2026-03-28T13:39:59Z</time></trkpt><trkpt lat="45.86639819108021" lon="11.008192468597281"><ele>168.0</ele><time>2026-03-28T13:40:00Z</time></trkpt><trkpt lat="45.86644679958638" lon="11.008101169968084"><ele>168.0</ele><time>2026-03-28T13:40:01Z</time></trkpt><trkpt lat="45.8664818475172" lon="11.007983607656433"><ele>168.0</ele><time>2026-03-28T13:40:02Z</time></trkpt><trkpt lat="45.86649215667297" lon="11.00784726127517"><ele>168.0</ele><time>2026-03-28T13:40:03Z</time></trkpt><trkpt lat="45.866465428114594" lon="11.007701932491301"><ele>168.0</ele><time>2026-03-28T13:40:04Z</time></trkpt><trkpt lat="45.86641370311131" lon="11.007566086058512"><ele>168.0</ele><time>2026-03-28T13:40:05Z</time></trkpt><trkpt lat="45.86634353922638" lon="11.007455524491121"><ele>168.0</ele><time>2026-03-28T13:40:06Z</time></trkpt><trkpt lat="45.86627687662238" lon="11.007342554142364"><ele>168.0</ele><time>2026-03-28T13:40:07Z</time></trkpt><trkpt lat="45.86620472751156" lon="11.007210443533214"><ele>168.0</ele><time>2026-03-28T13:40:08Z</time></trkpt><trkpt lat="45.86611800647797" lon="11.00706544338689"><ele>167.66666666666666</ele><time>2026-03-28T13:40:09Z</time></trkpt><trkpt lat="45.866019231858985" lon="11.006911275678014"><ele>167.33333333333331</ele><time>2026-03-28T13:40:10Z</time></trkpt><trkpt lat="45.86591036148672" lon="11.006751484732199"><ele>167.0</ele><time>2026-03-28T13:40:11Z</time></trkpt><trkpt lat="45.86579818019562" lon="11.006592406832768"><ele>168.0</ele><time>2026-03-28T13:40:12Z</time></trkpt><trkpt lat="45.86568192703519" lon="11.006425091716421"><ele>169.0</ele><time>2026-03-28T13:40:13Z</time></trkpt><trkpt lat="45.86557776480356" lon="11.006250946311347"><ele>170.0</ele><time>2026-03-28T13:40:14Z</time></trkpt><trkpt lat="45.86547571776318" lon="11.006058208666097"><ele>170.0</ele><time>2026-03-28T13:40:15Z</time></trkpt><trkpt lat="45.865363910725094" lon="11.005857463936264"><ele>170.0</ele><time>2026-03-28T13:40:16Z</time></trkpt><trkpt lat="45.86524400954328" lon="11.00564654468055"><ele>170.0</ele><time>2026-03-28T13:40:17Z</time></trkpt><trkpt lat="45.86513336742542" lon="11.005409102974214"><ele>170.33333333333331</ele><time>2026-03-28T13:40:18Z</time></trkpt><trkpt lat="45.864997409131036" lon="11.005191802717643"><ele>170.66666666666666</ele><time>2026-03-28T13:40:19Z</time></trkpt><trkpt lat="45.8648737542381" lon="11.004956390975229"><ele>171.0</ele><time>2026-03-28T13:40:20Z</time></trkpt><trkpt lat="45.86474988901766" lon="11.004728823447559"><ele>171.0</ele><time>2026-03-28T13:40:21Z</time></trkpt><trkpt lat="45.86462391683545" lon="11.00450913757343"><ele>171.0</ele><time>2026-03-28T13:40:22Z</time></trkpt><trkpt lat="45.86449152573977" lon="11.004296774470623"><ele>171.0</ele><time>2026-03-28T13:40:23Z</time></trkpt><trkpt lat="45.86435238350661" lon="11.004097500668749"><ele>170.66666666666666</ele><time>2026-03-28T13:40:24Z</time></trkpt><trkpt lat="45.86421498975205" lon="11.003906715474145"><ele>170.33333333333331</ele><time>2026-03-28T13:40:25Z</time></trkpt><trkpt lat="45.864079429464596" lon="11.003722996916284"><ele>170.0</ele><time>2026-03-28T13:40:26Z</time></trkpt><trkpt lat="45.86394861276551" lon="11.003553130467772"><ele>170.0</ele><time>2026-03-28T13:40:27Z</time></trkpt><trkpt lat="45.86381491561395" lon="11.003390313167712"><ele>170.0</ele><time>2026-03-28T13:40:28Z</time></trkpt><trkpt lat="45.86367202538807" lon="11.003243968973395"><ele>170.0</ele><time>2026-03-28T13:40:29Z</time></trkpt><trkpt lat="45.86351295133186" lon="11.003121022026052"><ele>169.33333333333331</ele><time>2026-03-28T13:40:30Z</time></trkpt><trkpt lat="45.86334655754438" lon="11.003014874619009"><ele>168.66666666666666</ele><time>2026-03-28T13:40:31Z</time></trkpt><trkpt lat="45.86316985560301" lon="11.002923363217285"><ele>168.0</ele><time>2026-03-28T13:40:32Z</time></trkpt><trkpt lat="45.86298947140532" lon="11.002832306657506"><ele>168.0</ele><time>2026-03-28T13:40:33Z</time></trkpt><trkpt lat="45.862819382406215" lon="11.00274817957415"><ele>168.0</ele><time>2026-03-28T13:40:34Z</time></trkpt><trkpt lat="45.86266595535936" lon="11.002670794697245"><ele>168.0</ele><time>2026-03-28T13:40:35Z</time></trkpt><trkpt lat="45.86254312086975" lon="11.002609157625061"><ele>168.0</ele><time>2026-03-28T13:40:36Z</time></trkpt><trkpt lat="45.86245144646092" lon="11.002566878030624"><ele>168.0</ele><time>2026-03-28T13:40:37Z</time></trkpt><trkpt lat="45.86239023792365" lon="11.00252548708572"><ele>168.0</ele><time>2026-03-28T13:40:38Z</time></trkpt><trkpt lat="45.862328627161396" lon="11.00249743711974"><ele>168.0</ele><time>2026-03-28T13:40:39Z</time></trkpt><trkpt lat="45.8622573648086" lon="11.002459021736737"><ele>168.0</ele><time>2026-03-28T13:40:40Z</time></trkpt><trkpt lat="45.86217262385472" lon="11.00240462325466"><ele>168.0</ele><time>2026-03-28T13:40:41Z</time></trkpt><trkpt lat="45.86207790227209" lon="11.002357423691208"><ele>168.0</ele><time>2026-03-28T13:40:42Z</time></trkpt><trkpt lat="45.86201071733662" lon="11.002311705880093"><ele>168.0</ele><time>2026-03-28T13:40:43Z</time></trkpt><trkpt lat="45.86191148568667" lon="11.002207775510994"><ele>168.0</ele><time>2026-03-28T13:40:45Z</time></trkpt><trkpt lat="45.86187625148495" lon="11.0021254121247"><ele>168.0</ele><time>2026-03-28T13:40:46Z</time></trkpt><trkpt lat="45.86184985741456" lon="11.002021756954385"><ele>168.0</ele><time>2026-03-28T13:40:47Z</time></trkpt><trkpt lat="45.86181657351595" lon="11.001916267153653"><ele>168.0</ele><time>2026-03-28T13:40:48Z</time></trkpt><trkpt lat="45.861759321320825" lon="11.001834039607484"><ele>168.16666666666666</ele><time>2026-03-28T13:40:49Z</time></trkpt><trkpt lat="45.86168481308046" lon="11.001789405900826"><ele>168.33333333333334</ele><time>2026-03-28T13:40:50Z</time></trkpt><trkpt lat="45.861610284213405" lon="11.001791659352289"><ele>168.5</ele><time>2026-03-28T13:40:51Z</time></trkpt><trkpt lat="45.861538135704286" lon="11.001843861932759"><ele>168.66666666666669</ele><time>2026-03-28T13:40:52Z</time></trkpt><trkpt lat="45.86145864585097" lon="11.001917397112317"><ele>168.83333333333334</ele><time>2026-03-28T13:40:53Z</time></trkpt><trkpt lat="45.86136851643351" lon="11.001962574179657"><ele>169.0</ele><time>2026-03-28T13:40:54Z</time></trkpt><trkpt lat="45.86126581042213" lon="11.001946021295812"><ele>169.0</ele><time>2026-03-28T13:40:55Z</time></trkpt><trkpt lat="45.86115071722328" lon="11.001890274437217"><ele>169.0</ele><time>2026-03-28T13:40:56Z</time></trkpt><trkpt lat="45.86102645027245" lon="11.001799915889876"><ele>169.0</ele><time>2026-03-28T13:40:57Z</time></trkpt><trkpt lat="45.86089620361096" lon="11.001707602912804"><ele>169.0</ele><time>2026-03-28T13:40:58Z</time></trkpt><trkpt lat="45.86078304560453" lon="11.001640900463002"><ele>168.75</ele><time>2026-03-28T13:40:59Z</time></trkpt><trkpt lat="45.86066890030663" lon="11.001561635505523"><ele>168.5</ele><time>2026-03-28T13:40:59.999Z</time></trkpt><trkpt lat="45.86054547025679" lon="11.001454049554166"><ele>168.25</ele><time>2026-03-28T13:41:00.999Z</time></trkpt><trkpt lat="45.86040986497851" lon="11.00134234229722"><ele>168.0</ele><time>2026-03-28T13:41:01.999Z</time></trkpt><trkpt lat="45.86026783205104" lon="11.00123469229157"><ele>168.0</ele><time>2026-03-28T13:41:02.999Z</time></trkpt><trkpt lat="45.86012179169556" lon="11.001138313077323"><ele>168.0</ele><time>2026-03-28T13:41:03.999Z</time></trkpt><trkpt lat="45.85996590178439" lon="11.001050187066879"><ele>168.0</ele><time>2026-03-28T13:41:04.999Z</time></trkpt><trkpt lat="45.859804127620976" lon="11.000977794739432"><ele>168.0</ele><time>2026-03-28T13:41:05.999Z</time></trkpt><trkpt lat="45.85963412108491" lon="11.000919809407696"><ele>168.0</ele><time>2026-03-28T13:41:06.999Z</time></trkpt><trkpt lat="45.859457161573125" lon="11.000871783944158"><ele>168.0</ele><time>2026-03-28T13:41:07.999Z</time></trkpt><trkpt lat="45.85927214291506" lon="11.000839566644697"><ele>167.33333333333334</ele><time>2026-03-28T13:41:08.999Z</time></trkpt><trkpt lat="45.85907824026333" lon="11.0008250337235"><ele>166.66666666666669</ele><time>2026-03-28T13:41:09.999Z</time></trkpt><trkpt lat="45.85888049082411" lon="11.000820649344083"><ele>166.0</ele><time>2026-03-28T13:41:10.999Z</time></trkpt><trkpt lat="45.858681760127844" lon="11.000820872793302"><ele>166.0</ele><time>2026-03-28T13:41:11.999Z</time></trkpt><trkpt lat="45.85848300937989" lon="11.000823660681485"><ele>166.0</ele><time>2026-03-28T13:41:12.999Z</time></trkpt><trkpt lat="45.85828649838244" lon="11.000825932301112"><ele>166.0</ele><time>2026-03-28T13:41:13.999Z</time></trkpt><trkpt lat="45.85809747298462" lon="11.000828114827392"><ele>167.0</ele><time>2026-03-28T13:41:14.999Z</time></trkpt><trkpt lat="45.857926232714824" lon="11.000844191727742"><ele>168.0</ele><time>2026-03-28T13:41:15.999Z</time></trkpt><trkpt lat="45.85777473706243" lon="11.000881940065"><ele>169.0</ele><time>2026-03-28T13:41:16.999Z</time></trkpt><trkpt lat="45.85763350253911" lon="11.000944830750312"><ele>169.0</ele><time>2026-03-28T13:41:17.999Z</time></trkpt><trkpt lat="45.85750228005327" lon="11.001019412603227"><ele>169.0</ele><time>2026-03-28T13:41:18.999Z</time></trkpt><trkpt lat="45.8573639751861" lon="11.001081786364466"><ele>169.0</ele><time>2026-03-28T13:41:19.999Z</time></trkpt><trkpt lat="45.857217974769384" lon="11.001169412511226"><ele>169.0</ele><time>2026-03-28T13:41:20.999Z</time></trkpt><trkpt lat="45.85705516774664" lon="11.001267126795048"><ele>169.0</ele><time>2026-03-28T13:41:21.999Z</time></trkpt><trkpt lat="45.856896812821404" lon="11.001381504846668"><ele>169.0</ele><time>2026-03-28T13:41:22.999Z</time></trkpt><trkpt lat="45.85673549826791" lon="11.001474609195677"><ele>169.0</ele><time>2026-03-28T13:41:23.999Z</time></trkpt><trkpt lat="45.85657565828989" lon="11.001566956642023"><ele>170.0</ele><time>2026-03-28T13:41:24.999Z</time></trkpt><trkpt lat="45.85641629410834" lon="11.001652559624842"><ele>171.0</ele><time>2026-03-28T13:41:25.999Z</time></trkpt><trkpt lat="45.85625296164305" lon="11.001725945709552"><ele>172.0</ele><time>2026-03-28T13:41:26.999Z</time></trkpt><trkpt lat="45.856082762322686" lon="11.001789213700972"><ele>171.0</ele><time>2026-03-28T13:41:27.999Z</time></trkpt><trkpt lat="45.85590932199522" lon="11.001852606793129"><ele>170.0</ele><time>2026-03-28T13:41:29Z</time></trkpt><trkpt lat="45.855726434992974" lon="11.001904521613996"><ele>169.0</ele><time>2026-03-28T13:41:30Z</time></trkpt><trkpt lat="45.855543322431004" lon="11.001948440970489"><ele>169.0</ele><time>2026-03-28T13:41:31Z</time></trkpt><trkpt lat="45.855352452619854" lon="11.001944861316911"><ele>169.0</ele><time>2026-03-28T13:41:32Z</time></trkpt><trkpt lat="45.855164092556784" lon="11.0019446022789"><ele>169.0</ele><time>2026-03-28T13:41:33Z</time></trkpt><trkpt lat="45.85497645294791" lon="11.00195246019764"><ele>168.33333333333334</ele><time>2026-03-28T13:41:34Z</time></trkpt><trkpt lat="45.85478801684753" lon="11.001901589191723"><ele>167.66666666666666</ele><time>2026-03-28T13:41:35Z</time></trkpt><trkpt lat="45.85458759365798" lon="11.00186130138004"><ele>167.0</ele><time>2026-03-28T13:41:36Z</time></trkpt><trkpt lat="45.85437811970554" lon="11.001812504625086"><ele>166.0</ele><time>2026-03-28T13:41:37Z</time></trkpt><trkpt lat="45.85416646601061" lon="11.001759503026232"><ele>165.0</ele><time>2026-03-28T13:41:38Z</time></trkpt><trkpt lat="45.853952551037146" lon="11.001724704082871"><ele>164.0</ele><time>2026-03-28T13:41:39Z</time></trkpt><trkpt lat="45.8537505217973" lon="11.001686707698504"><ele>164.0</ele><time>2026-03-28T13:41:40Z</time></trkpt><trkpt lat="45.85355435262412" lon="11.001666332000566"><ele>164.0</ele><time>2026-03-28T13:41:41Z</time></trkpt><trkpt lat="45.853366095340405" lon="11.001654249809524"><ele>164.0</ele><time>2026-03-28T13:41:42Z</time></trkpt><trkpt lat="45.85318193730659" lon="11.001644260450263"><ele>162.0</ele><time>2026-03-28T13:41:43Z</time></trkpt><trkpt lat="45.85300295731052" lon="11.001633293475926"><ele>160.0</ele><time>2026-03-28T13:41:44Z</time></trkpt><trkpt lat="45.852830214237464" lon="11.001624642423097"><ele>158.0</ele><time>2026-03-28T13:41:45Z</time></trkpt><trkpt lat="45.852662258376" lon="11.001613415389011"><ele>157.66666666666666</ele><time>2026-03-28T13:41:46Z</time></trkpt><trkpt lat="45.8524986552226" lon="11.001602446055331"><ele>157.33333333333334</ele><time>2026-03-28T13:41:47Z</time></trkpt><trkpt lat="45.85233670036389" lon="11.001595929668033"><ele>157.0</ele><time>2026-03-28T13:41:48Z</time></trkpt><trkpt lat="45.85218020070187" lon="11.001598745220967"><ele>157.0</ele><time>2026-03-28T13:41:49Z</time></trkpt><trkpt lat="45.85202599533787" lon="11.001592511933659"><ele>157.0</ele><time>2026-03-28T13:41:50Z</time></trkpt><trkpt lat="45.8518607215174" lon="11.001567385497886"><ele>157.0</ele><time>2026-03-28T13:41:51Z</time></trkpt><trkpt lat="45.85169257999752" lon="11.001509761060847"><ele>157.33333333333334</ele><time>2026-03-28T13:41:52Z</time></trkpt><trkpt lat="45.85152070041696" lon="11.00141766136151"><ele>157.66666666666666</ele><time>2026-03-28T13:41:53Z</time></trkpt><trkpt lat="45.85134097058196" lon="11.001322820159766"><ele>158.0</ele><time>2026-03-28T13:41:54Z</time></trkpt><trkpt lat="45.85115581919567" lon="11.001230073792094"><ele>158.0</ele><time>2026-03-28T13:41:55Z</time></trkpt><trkpt lat="45.85096183793129" lon="11.001140484558173"><ele>158.0</ele><time>2026-03-28T13:41:56Z</time></trkpt><trkpt lat="45.850762219894186" lon="11.00104481960505"><ele>158.0</ele><time>2026-03-28T13:41:57Z</time></trkpt><trkpt lat="45.85055646698583" lon="11.000954475140857"><ele>158.0</ele><time>2026-03-28T13:41:58Z</time></trkpt><trkpt lat="45.85034223495775" lon="11.000873406326317"><ele>158.0</ele><time>2026-03-28T13:41:59Z</time></trkpt><trkpt lat="45.85012280523476" lon="11.000796346298278"><ele>158.0</ele><time>2026-03-28T13:42:00Z</time></trkpt><trkpt lat="45.84989705429253" lon="11.000728173427516"><ele>158.0</ele><time>2026-03-28T13:42:01Z</time></trkpt><trkpt lat="45.849670703563376" lon="11.000665727104284"><ele>158.0</ele><time>2026-03-28T13:42:02Z</time></trkpt><trkpt lat="45.8494391924879" lon="11.000616257775576"><ele>158.66666666666666</ele><time>2026-03-28T13:42:03Z</time></trkpt><trkpt lat="45.849214324934664" lon="11.000576262206309"><ele>159.33333333333334</ele><time>2026-03-28T13:42:04Z</time></trkpt><trkpt lat="45.848998007545134" lon="11.000537033492101"><ele>160.0</ele><time>2026-03-28T13:42:05Z</time></trkpt><trkpt lat="45.84878782751743" lon="11.000499957808257"><ele>160.0</ele><time>2026-03-28T13:42:06Z</time></trkpt><trkpt lat="45.8485831286166" lon="11.00046141326237"><ele>160.0</ele><time>2026-03-28T13:42:07Z</time></trkpt><trkpt lat="45.84838125986336" lon="11.000427764155164"><ele>160.0</ele><time>2026-03-28T13:42:08Z</time></trkpt><trkpt lat="45.84818047728914" lon="11.000394579009132"><ele>159.0</ele><time>2026-03-28T13:42:09Z</time></trkpt><trkpt lat="45.84798185384043" lon="11.000328919221243"><ele>158.0</ele><time>2026-03-28T13:42:10Z</time></trkpt><trkpt lat="45.84777845750913" lon="11.000307352064127"><ele>157.0</ele><time>2026-03-28T13:42:11Z</time></trkpt><trkpt lat="45.84758829295305" lon="11.000240100903806"><ele>157.0</ele><time>2026-03-28T13:42:12Z</time></trkpt><trkpt lat="45.84742100310458" lon="11.000126628899272"><ele>157.0</ele><time>2026-03-28T13:42:13Z</time></trkpt><trkpt lat="45.84726445550245" lon="10.999983892989858"><ele>157.0</ele><time>2026-03-28T13:42:14Z</time></trkpt><trkpt lat="45.84712451640256" lon="10.999824099529786"><ele>157.0</ele><time>2026-03-28T13:42:15Z</time></trkpt><trkpt lat="45.847007894692794" lon="10.999634647784303"><ele>157.0</ele><time>2026-03-28T13:42:16Z</time></trkpt><trkpt lat="45.846912771795054" lon="10.999407430106798"><ele>157.0</ele><time>2026-03-28T13:42:17Z</time></trkpt><trkpt lat="45.84684189536402" lon="10.999159610845012"><ele>157.0</ele><time>2026-03-28T13:42:18Z</time></trkpt><trkpt lat="45.84680099229187" lon="10.998883566573335"><ele>157.0</ele><time>2026-03-28T13:42:19Z</time></trkpt><trkpt lat="45.84678102796827" lon="10.998587240577747"><ele>157.0</ele><time>2026-03-28T13:42:20Z</time></trkpt><trkpt lat="45.84676708325458" lon="10.998277225616587"><ele>157.0</ele><time>2026-03-28T13:42:21Z</time></trkpt><trkpt lat="45.84675220944761" lon="10.9979503906646"><ele>157.0</ele><time>2026-03-28T13:42:22Z</time></trkpt><trkpt lat="45.846734360594894" lon="10.997613461567132"><ele>156.0</ele><time>2026-03-28T13:42:23Z</time></trkpt><trkpt lat="45.84671877597288" lon="10.997268647975105"><ele>155.0</ele><time>2026-03-28T13:42:24Z</time></trkpt><trkpt lat="45.84670458770659" lon="10.996921881191671"><ele>155.0</ele><time>2026-03-28T13:42:25Z</time></trkpt><trkpt lat="45.84668930611605" lon="10.99656519220952"><ele>155.0</ele><time>2026-03-28T13:42:26Z</time></trkpt><trkpt lat="45.84667209269681" lon="10.996204866484081"><ele>155.0</ele><time>2026-03-28T13:42:27Z</time></trkpt><trkpt lat="45.84665366993962" lon="10.99584539946832"><ele>155.0</ele><time>2026-03-28T13:42:28Z</time></trkpt><trkpt lat="45.8466358844015" lon="10.995493472551752"><ele>155.5</ele><time>2026-03-28T13:42:29Z</time></trkpt><trkpt lat="45.846620811655875" lon="10.995147996027805"><ele>156.0</ele><time>2026-03-28T13:42:30Z</time></trkpt><trkpt lat="45.846606700690245" lon="10.994814490070244"><ele>159.0</ele><time>2026-03-28T13:42:31Z</time></trkpt><trkpt lat="45.846591480542344" lon="10.99448415955525"><ele>162.0</ele><time>2026-03-28T13:42:32Z</time></trkpt><trkpt lat="45.84657415005303" lon="10.99415612687606"><ele>168.0</ele><time>2026-03-28T13:42:33Z</time></trkpt><trkpt lat="45.84654814501386" lon="10.993825731889098"><ele>174.0</ele><time>2026-03-28T13:42:34Z</time></trkpt><trkpt lat="45.846513374984625" lon="10.993498624112236"><ele>177.0</ele><time>2026-03-28T13:42:35Z</time></trkpt><trkpt lat="45.84646186038584" lon="10.993173963296005"><ele>180.0</ele><time>2026-03-28T13:42:36Z</time></trkpt><trkpt lat="45.84639339676107" lon="10.992852550096616"><ele>180.0</ele><time>2026-03-28T13:42:37Z</time></trkpt><trkpt lat="45.84630858955031" lon="10.992537359449935"><ele>180.0</ele><time>2026-03-28T13:42:38Z</time></trkpt><trkpt lat="45.846203435294726" lon="10.992233786216527"><ele>181.5</ele><time>2026-03-28T13:42:39Z</time></trkpt><trkpt lat="45.84608220940963" lon="10.991943132763215"><ele>183.0</ele><time>2026-03-28T13:42:40Z</time></trkpt><trkpt lat="45.845945328665515" lon="10.991666812507617"><ele>186.0</ele><time>2026-03-28T13:42:41Z</time></trkpt><trkpt lat="45.845794539029974" lon="10.991407086327529"><ele>189.0</ele><time>2026-03-28T13:42:42Z</time></trkpt><trkpt lat="45.84563170820305" lon="10.991152277165584"><ele>189.0</ele><time>2026-03-28T13:42:43Z</time></trkpt><trkpt lat="45.845455433513926" lon="10.990899788270422"><ele>189.0</ele><time>2026-03-28T13:42:44Z</time></trkpt><trkpt lat="45.845276153589666" lon="10.990641356605549"><ele>191.5</ele><time>2026-03-28T13:42:45Z</time></trkpt><trkpt lat="45.845091079537816" lon="10.990378229477733"><ele>194.0</ele><time>2026-03-28T13:42:46Z</time></trkpt><trkpt lat="45.844905864230434" lon="10.990111790218373"><ele>194.5</ele><time>2026-03-28T13:42:47Z</time></trkpt><trkpt lat="45.84472307447557" lon="10.98984721348592"><ele>195.0</ele><time>2026-03-28T13:42:48Z</time></trkpt><trkpt lat="45.84454130309012" lon="10.989581941209462"><ele>195.0</ele><time>2026-03-28T13:42:49Z</time></trkpt><trkpt lat="45.84436503086656" lon="10.989324457969051"><ele>195.0</ele><time>2026-03-28T13:42:50Z</time></trkpt><trkpt lat="45.8441962356324" lon="10.989067957477705"><ele>196.0</ele><time>2026-03-28T13:42:51Z</time></trkpt><trkpt lat="45.844037299160235" lon="10.988806898963448"><ele>197.0</ele><time>2026-03-28T13:42:52Z</time></trkpt><trkpt lat="45.84388741585467" lon="10.988539447255297"><ele>198.5</ele><time>2026-03-28T13:42:53Z</time></trkpt><trkpt lat="45.84375523262643" lon="10.9882535809497"><ele>200.0</ele><time>2026-03-28T13:42:54Z</time></trkpt><trkpt lat="45.84363957862433" lon="10.98795019697735"><ele>200.0</ele><time>2026-03-28T13:42:55Z</time></trkpt><trkpt lat="45.84351108128719" lon="10.987658588904587"><ele>200.0</ele><time>2026-03-28T13:42:56Z</time></trkpt><trkpt lat="45.84338656580414" lon="10.987366117727785"><ele>205.0</ele><time>2026-03-28T13:42:57Z</time></trkpt><trkpt lat="45.84335731192205" lon="10.986990172598727"><ele>210.0</ele><time>2026-03-28T13:42:58Z</time></trkpt><trkpt lat="45.84327880318004" lon="10.986658274974092"><ele>213.5</ele><time>2026-03-28T13:42:59Z</time></trkpt><trkpt lat="45.84320044237877" lon="10.986318705909381"><ele>217.0</ele><time>2026-03-28T13:43:00Z</time></trkpt><trkpt lat="45.84311878455069" lon="10.98596392482344"><ele>227.5</ele><time>2026-03-28T13:43:01.026Z</time></trkpt><trkpt lat="45.84303730119768" lon="10.985616541139391"><ele>238.0</ele><time>2026-03-28T13:43:02.023Z</time></trkpt><trkpt lat="45.84295468250568" lon="10.985265220355453"><ele>241.0</ele><time>2026-03-28T13:43:03.029Z</time></trkpt><trkpt lat="45.84287411515399" lon="10.984921155677238"><ele>244.0</ele><time>2026-03-28T13:43:04.024Z</time></trkpt><trkpt lat="45.850876662922886" lon="10.961688011894898"><ele>235.0</ele><time>2026-03-28T13:44:22.999Z</time></trkpt><trkpt lat="45.850951302148395" lon="10.96155286554223"><ele>226.0</ele><time>2026-03-28T13:44:23.999Z</time></trkpt><trkpt lat="45.85108174635178" lon="10.961727188553144"><ele>217.0</ele><time>2026-03-28T13:44:24.999Z</time></trkpt><trkpt lat="45.851166532563134" lon="10.961574722622847"><ele>208.0</ele><time>2026-03-28T13:44:25.999Z</time></trkpt><trkpt lat="45.85124744205177" lon="10.961426995663889"><ele>205.0</ele><time>2026-03-28T13:44:26.999Z</time></trkpt><trkpt lat="45.85134577050206" lon="10.961284821779962"><ele>202.0</ele><time>2026-03-28T13:44:27.999Z</time></trkpt><trkpt lat="45.851440303339125" lon="10.961104983648376"><ele>199.0</ele><time>2026-03-28T13:44:29Z</time></trkpt><trkpt lat="45.85155016418592" lon="10.960936022650841"><ele>199.0</ele><time>2026-03-28T13:44:30Z</time></trkpt><trkpt lat="45.85165779207584" lon="10.960765265355244"><ele>199.0</ele><time>2026-03-28T13:44:31Z</time></trkpt><trkpt lat="45.851777465456195" lon="10.96057851278793"><ele>199.0</ele><time>2026-03-28T13:44:32Z</time></trkpt><trkpt lat="45.85190505169165" lon="10.960389089151475"><ele>199.0</ele><time>2026-03-28T13:44:33Z</time></trkpt><trkpt lat="45.852040558498906" lon="10.960210032400584"><ele>199.0</ele><time>2026-03-28T13:44:34Z</time></trkpt><trkpt lat="45.85216750173622" lon="10.960051048874965"><ele>199.0</ele><time>2026-03-28T13:44:35Z</time></trkpt><trkpt lat="45.85228154810666" lon="10.959905111518383"><ele>199.2</ele><time>2026-03-28T13:44:36Z</time></trkpt><trkpt lat="45.852366625230054" lon="10.959798487816835"><ele>199.39999999999998</ele><time>2026-03-28T13:44:37Z</time></trkpt><trkpt lat="45.85243243519223" lon="10.959714402694736"><ele>199.6</ele><time>2026-03-28T13:44:38Z</time></trkpt><trkpt lat="45.85253124998534" lon="10.959610772739378"><ele>199.8</ele><time>2026-03-28T13:44:39Z</time></trkpt><trkpt lat="45.852618003869786" lon="10.959508351965809"><ele>200.0</ele><time>2026-03-28T13:44:40Z</time></trkpt><trkpt lat="45.85268904511407" lon="10.95942143540646"><ele>200.16666666666669</ele><time>2026-03-28T13:44:41Z</time></trkpt><trkpt lat="45.85275615090678" lon="10.959338501091278"><ele>200.33333333333334</ele><time>2026-03-28T13:44:42Z</time></trkpt><trkpt lat="45.852811407573085" lon="10.95929445573479"><ele>200.5</ele><time>2026-03-28T13:44:43Z</time></trkpt><trkpt lat="45.85287506369678" lon="10.95922820581744"><ele>200.66666666666669</ele><time>2026-03-28T13:44:44Z</time></trkpt><trkpt lat="45.852959362635374" lon="10.959092588004832"><ele>200.83333333333334</ele><time>2026-03-28T13:44:46Z</time></trkpt><trkpt lat="45.853012964241586" lon="10.959034044584817"><ele>201.0</ele><time>2026-03-28T13:44:47Z</time></trkpt><trkpt lat="45.85310538298983" lon="10.958936477563963"><ele>201.0</ele><time>2026-03-28T13:44:49Z</time></trkpt><trkpt lat="45.85315707532467" lon="10.958883171475993"><ele>201.0</ele><time>2026-03-28T13:44:50Z</time></trkpt><trkpt lat="45.85321733206898" lon="10.958821028442811"><ele>201.0</ele><time>2026-03-28T13:44:51Z</time></trkpt><trkpt lat="45.85327794351323" lon="10.958757970570336"><ele>201.0</ele><time>2026-03-28T13:44:52Z</time></trkpt><trkpt lat="45.85333274845485" lon="10.958701772035647"><ele>201.0</ele><time>2026-03-28T13:44:53Z</time></trkpt><trkpt lat="45.85338594532543" lon="10.958648869816926"><ele>201.0</ele><time>2026-03-28T13:44:54Z</time></trkpt><trkpt lat="45.85348158026134" lon="10.958534610604568"><ele>201.0</ele><time>2026-03-28T13:44:56Z</time></trkpt><trkpt lat="45.85353973385556" lon="10.958493851727395"><ele>201.0</ele><time>2026-03-28T13:44:57Z</time></trkpt><trkpt lat="45.85359467765668" lon="10.958435893561441"><ele>201.0</ele><time>2026-03-28T13:44:58Z</time></trkpt><trkpt lat="45.853650822957796" lon="10.958361367190506"><ele>201.0</ele><time>2026-03-28T13:44:59Z</time></trkpt><trkpt lat="45.85371266333482" lon="10.958283590176132"><ele>201.0</ele><time>2026-03-28T13:45:00Z</time></trkpt><trkpt lat="45.85378201799392" lon="10.958194529078092"><ele>201.0</ele><time>2026-03-28T13:45:01Z</time></trkpt><trkpt lat="45.85384950853771" lon="10.958073602162008"><ele>201.0</ele><time>2026-03-28T13:45:02Z</time></trkpt><trkpt lat="45.85392091054223" lon="10.957955480232886"><ele>201.0</ele><time>2026-03-28T13:45:03Z</time></trkpt><trkpt lat="45.85398587592666" lon="10.95783467617474"><ele>201.0</ele><time>2026-03-28T13:45:04Z</time></trkpt><trkpt lat="45.85405252377007" lon="10.95770853034412"><ele>201.0</ele><time>2026-03-28T13:45:05Z</time></trkpt><trkpt lat="45.85411305241867" lon="10.95756493014427"><ele>201.0</ele><time>2026-03-28T13:45:06Z</time></trkpt><trkpt lat="45.85418902684075" lon="10.95743604902898"><ele>201.20000000000002</ele><time>2026-03-28T13:45:07Z</time></trkpt><trkpt lat="45.85425208288273" lon="10.957296939240965"><ele>201.4</ele><time>2026-03-28T13:45:08Z</time></trkpt><trkpt lat="45.85430539658169" lon="10.957155466670788"><ele>201.6</ele><time>2026-03-28T13:45:09Z</time></trkpt><trkpt lat="45.85435052816263" lon="10.957009010033454"><ele>201.8</ele><time>2026-03-28T13:45:10Z</time></trkpt><trkpt lat="45.854393781542896" lon="10.956863552192717"><ele>202.0</ele><time>2026-03-28T13:45:11Z</time></trkpt><trkpt lat="45.854435352067675" lon="10.956718445987281"><ele>205.0</ele><time>2026-03-28T13:45:12Z</time></trkpt><trkpt lat="45.85447593804312" lon="10.95656833052081"><ele>208.0</ele><time>2026-03-28T13:45:13Z</time></trkpt><trkpt lat="45.85451591839567" lon="10.95641171445105"><ele>211.0</ele><time>2026-03-28T13:45:14Z</time></trkpt><trkpt lat="45.8545544933559" lon="10.956248082860402"><ele>214.0</ele><time>2026-03-28T13:45:15Z</time></trkpt><trkpt lat="45.85459065480564" lon="10.956077810639034"><ele>214.0</ele><time>2026-03-28T13:45:16Z</time></trkpt><trkpt lat="45.85462004292205" lon="10.955904098876386"><ele>214.0</ele><time>2026-03-28T13:45:17Z</time></trkpt><trkpt lat="45.85463816846298" lon="10.955724002412332"><ele>214.0</ele><time>2026-03-28T13:45:18Z</time></trkpt><trkpt lat="45.8546465683647" lon="10.95553458946666"><ele>214.0</ele><time>2026-03-28T13:45:19Z</time></trkpt><trkpt lat="45.85464116736868" lon="10.955336209687479"><ele>213.75</ele><time>2026-03-28T13:45:20Z</time></trkpt><trkpt lat="45.85462470071141" lon="10.955127339701063"><ele>213.5</ele><time>2026-03-28T13:45:21Z</time></trkpt><trkpt lat="45.85460246958838" lon="10.954918397113182"><ele>213.25</ele><time>2026-03-28T13:45:22Z</time></trkpt><trkpt lat="45.85457556899777" lon="10.95471571714836"><ele>213.0</ele><time>2026-03-28T13:45:23Z</time></trkpt><trkpt lat="45.85454748035054" lon="10.954528920495951"><ele>213.0</ele><time>2026-03-28T13:45:24Z</time></trkpt><trkpt lat="45.85452018429105" lon="10.95434739476647"><ele>213.0</ele><time>2026-03-28T13:45:25Z</time></trkpt><trkpt lat="45.85449261172144" lon="10.954173591660474"><ele>213.0</ele><time>2026-03-28T13:45:26Z</time></trkpt><trkpt lat="45.85446602853907" lon="10.954005650453361"><ele>213.0</ele><time>2026-03-28T13:45:27Z</time></trkpt><trkpt lat="45.854440754240585" lon="10.953845978218542"><ele>213.4</ele><time>2026-03-28T13:45:28Z</time></trkpt><trkpt lat="45.85441519710238" lon="10.953684519135946"><ele>213.8</ele><time>2026-03-28T13:45:29Z</time></trkpt><trkpt lat="45.85439052664128" lon="10.953528673083566"><ele>214.2</ele><time>2026-03-28T13:45:30Z</time></trkpt><trkpt lat="45.85434767747342" lon="10.953388568880227"><ele>214.6</ele><time>2026-03-28T13:45:31Z</time></trkpt><trkpt lat="45.85432976542221" lon="10.953238784247576"><ele>215.0</ele><time>2026-03-28T13:45:32Z</time></trkpt><trkpt lat="45.85431987603115" lon="10.953094744333288"><ele>216.2</ele><time>2026-03-28T13:45:33Z</time></trkpt><trkpt lat="45.8542990145718" lon="10.952929276621662"><ele>217.4</ele><time>2026-03-28T13:45:34Z</time></trkpt><trkpt lat="45.85429441431587" lon="10.952775450339146"><ele>218.60000000000002</ele><time>2026-03-28T13:45:35Z</time></trkpt><trkpt lat="45.85429560188404" lon="10.952614788951545"><ele>219.8</ele><time>2026-03-28T13:45:36Z</time></trkpt><trkpt lat="45.85429525882846" lon="10.952455330627252"><ele>221.0</ele><time>2026-03-28T13:45:37Z</time></trkpt><trkpt lat="45.854303220143" lon="10.952309033564491"><ele>221.4</ele><time>2026-03-28T13:45:38Z</time></trkpt><trkpt lat="45.85431338942579" lon="10.952167457303622"><ele>221.8</ele><time>2026-03-28T13:45:39Z</time></trkpt><trkpt lat="45.85433459448202" lon="10.952025206801913"><ele>222.20000000000002</ele><time>2026-03-28T13:45:40Z</time></trkpt><trkpt lat="45.85434777246587" lon="10.951894006144716"><ele>222.60000000000002</ele><time>2026-03-28T13:45:41Z</time></trkpt><trkpt lat="45.85437426312183" lon="10.95177955485816"><ele>223.0</ele><time>2026-03-28T13:45:42Z</time></trkpt><trkpt lat="45.854388173379355" lon="10.951662952773857"><ele>222.99999999999997</ele><time>2026-03-28T13:45:43Z</time></trkpt><trkpt lat="45.85440108217372" lon="10.951545997529223"><ele>223.0</ele><time>2026-03-28T13:45:44Z</time></trkpt><trkpt lat="45.85441232497619" lon="10.951436830474389"><ele>223.0</ele><time>2026-03-28T13:45:45Z</time></trkpt><trkpt lat="45.85442588310503" lon="10.951327511798686"><ele>223.0</ele><time>2026-03-28T13:45:46Z</time></trkpt><trkpt lat="45.854442336322236" lon="10.951216585342339"><ele>222.99999999999997</ele><time>2026-03-28T13:45:47Z</time></trkpt><trkpt lat="45.854453249676716" lon="10.951098087194897"><ele>223.0</ele><time>2026-03-28T13:45:48Z</time></trkpt><trkpt lat="45.85446422675051" lon="10.95099301305979"><ele>223.2</ele><time>2026-03-28T13:45:49Z</time></trkpt><trkpt lat="45.85448461024007" lon="10.950844752514262"><ele>223.4</ele><time>2026-03-28T13:45:51Z</time></trkpt><trkpt lat="45.85449153131681" lon="10.950749830525975"><ele>223.59999999999997</ele><time>2026-03-28T13:45:53Z</time></trkpt><trkpt lat="45.85451279381155" lon="10.950658269344254"><ele>223.79999999999998</ele><time>2026-03-28T13:46:01Z</time></trkpt><trkpt lat="45.85453277320373" lon="10.950498675887516"><ele>224.0</ele><time>2026-03-28T13:46:02.999Z</time></trkpt><trkpt lat="45.85455604061351" lon="10.950312887649318"><ele>224.0</ele><time>2026-03-28T13:46:04.999Z</time></trkpt><trkpt lat="45.8545724582889" lon="10.950181793973657"><ele>223.99999999999997</ele><time>2026-03-28T13:46:05.999Z</time></trkpt><trkpt lat="45.85459185323302" lon="10.950026927074719"><ele>223.99999999999997</ele><time>2026-03-28T13:46:06.999Z</time></trkpt><trkpt lat="45.85461112795701" lon="10.949873020130187"><ele>224.0</ele><time>2026-03-28T13:46:07.999Z</time></trkpt><trkpt lat="45.85463159742868" lon="10.949709573242"><ele>224.0</ele><time>2026-03-28T13:46:08.999Z</time></trkpt><trkpt lat="45.85465502808603" lon="10.949522481528513"><ele>226.5</ele><time>2026-03-28T13:46:09.999Z</time></trkpt><trkpt lat="45.854679261591315" lon="10.949328839687722"><ele>229.0</ele><time>2026-03-28T13:46:10.999Z</time></trkpt><trkpt lat="45.85470298628337" lon="10.949139237823541"><ele>231.5</ele><time>2026-03-28T13:46:11.999Z</time></trkpt><trkpt lat="45.854728315973304" lon="10.948936809796997"><ele>234.0</ele><time>2026-03-28T13:46:12.999Z</time></trkpt><trkpt lat="45.85475498816206" lon="10.948724231762908"><ele>235.75</ele><time>2026-03-28T13:46:13.999Z</time></trkpt><trkpt lat="45.85478163295291" lon="10.948511617860209"><ele>237.5</ele><time>2026-03-28T13:46:14.999Z</time></trkpt><trkpt lat="45.85480758373138" lon="10.948303234250194"><ele>239.25</ele><time>2026-03-28T13:46:15.999Z</time></trkpt><trkpt lat="45.85483360520779" lon="10.948093592451988"><ele>241.0</ele><time>2026-03-28T13:46:16.999Z</time></trkpt><trkpt lat="45.85485946921829" lon="10.947885219239458"><ele>241.25</ele><time>2026-03-28T13:46:17.999Z</time></trkpt><trkpt lat="45.85488400848289" lon="10.947687518874718"><ele>241.5</ele><time>2026-03-28T13:46:18.999Z</time></trkpt><trkpt lat="45.854908743601435" lon="10.947489889385318"><ele>241.75</ele><time>2026-03-28T13:46:19.999Z</time></trkpt><trkpt lat="45.85493438478543" lon="10.947285760903469"><ele>242.0</ele><time>2026-03-28T13:46:20.999Z</time></trkpt><trkpt lat="45.854959491765015" lon="10.947085885232434"><ele>241.0</ele><time>2026-03-28T13:46:21.999Z</time></trkpt><trkpt lat="45.85498618514322" lon="10.946873380258491"><ele>240.0</ele><time>2026-03-28T13:46:22.999Z</time></trkpt><trkpt lat="45.85501106514574" lon="10.9466738998094"><ele>239.0</ele><time>2026-03-28T13:46:23.999Z</time></trkpt><trkpt lat="45.85503499753513" lon="10.946481658340815"><ele>238.0</ele><time>2026-03-28T13:46:24.999Z</time></trkpt><trkpt lat="45.855055089009426" lon="10.94632026979296"><ele>236.4</ele><time>2026-03-28T13:46:25.999Z</time></trkpt><trkpt lat="45.85507480742294" lon="10.946164231598699"><ele>234.8</ele><time>2026-03-28T13:46:26.999Z</time></trkpt><trkpt lat="45.85509448946125" lon="10.946009004594861"><ele>233.2</ele><time>2026-03-28T13:46:27.999Z</time></trkpt><trkpt lat="45.85509948817722" lon="10.945840670073393"><ele>231.6</ele><time>2026-03-28T13:46:28.999Z</time></trkpt><trkpt lat="45.8551337353383" lon="10.945699482805319"><ele>230.0</ele><time>2026-03-28T13:46:29.999Z</time></trkpt><trkpt lat="45.85514049300816" lon="10.945561013233885"><ele>236.50000000000003</ele><time>2026-03-28T13:46:30.999Z</time></trkpt><trkpt lat="45.85517616639915" lon="10.945436884779037"><ele>243.0</ele><time>2026-03-28T13:46:31.999Z</time></trkpt><trkpt lat="45.85519446794113" lon="10.945312433048855"><ele>249.5</ele><time>2026-03-28T13:46:32.999Z</time></trkpt><trkpt lat="45.855211547070105" lon="10.94519225421656"><ele>256.0</ele><time>2026-03-28T13:46:34Z</time></trkpt><trkpt lat="45.85522404311893" lon="10.945072214811349"><ele>262.5</ele><time>2026-03-28T13:46:35Z</time></trkpt><trkpt lat="45.855237894486436" lon="10.944946429961695"><ele>269.0</ele><time>2026-03-28T13:46:36Z</time></trkpt><trkpt lat="45.85525021878856" lon="10.944806452477764"><ele>269.0</ele><time>2026-03-28T13:46:37Z</time></trkpt><trkpt lat="45.855277375828926" lon="10.944687126507523"><ele>269.0</ele><time>2026-03-28T13:46:38Z</time></trkpt><trkpt lat="45.855290548833175" lon="10.944554394202068"><ele>269.0</ele><time>2026-03-28T13:46:39Z</time></trkpt><trkpt lat="45.855298667080774" lon="10.944412834241438"><ele>269.0</ele><time>2026-03-28T13:46:40Z</time></trkpt><trkpt lat="45.855313132996024" lon="10.944281050913597"><ele>269.0</ele><time>2026-03-28T13:46:41Z</time></trkpt><trkpt lat="45.85532948110856" lon="10.94415417732138"><ele>267.1666666666667</ele><time>2026-03-28T13:46:42Z</time></trkpt><trkpt lat="45.85534666114598" lon="10.944024673948551"><ele>265.33333333333337</ele><time>2026-03-28T13:46:43Z</time></trkpt><trkpt lat="45.855367294448705" lon="10.943901897430232"><ele>263.5</ele><time>2026-03-28T13:46:44Z</time></trkpt><trkpt lat="45.85537716249003" lon="10.943769305487727"><ele>261.6666666666667</ele><time>2026-03-28T13:46:45Z</time></trkpt><trkpt lat="45.855386800200186" lon="10.943655622774614"><ele>259.8333333333333</ele><time>2026-03-28T13:46:46Z</time></trkpt><trkpt lat="45.85539796081503" lon="10.943551056644068"><ele>258.0</ele><time>2026-03-28T13:46:47Z</time></trkpt><trkpt lat="45.85541591625628" lon="10.94345891448217"><ele>257.0</ele><time>2026-03-28T13:46:48Z</time></trkpt><trkpt lat="45.85543152679732" lon="10.9433684999727"><ele>256.0</ele><time>2026-03-28T13:46:49Z</time></trkpt><trkpt lat="45.855434303520084" lon="10.943260098847716"><ele>255.0</ele><time>2026-03-28T13:46:50Z</time></trkpt><trkpt lat="45.85544451106947" lon="10.943163055140664"><ele>254.0</ele><time>2026-03-28T13:46:51Z</time></trkpt><trkpt lat="45.855468311262214" lon="10.94299526375029"><ele>253.0</ele><time>2026-03-28T13:46:53Z</time></trkpt><trkpt lat="45.85548139411138" lon="10.942850165905122"><ele>252.0</ele><time>2026-03-28T13:46:55Z</time></trkpt><trkpt lat="45.85550442875847" lon="10.942753267834071"><ele>252.0</ele><time>2026-03-28T13:46:57Z</time></trkpt><trkpt lat="45.8555173440567" lon="10.94264427086782"><ele>252.0</ele><time>2026-03-28T13:46:59Z</time></trkpt><trkpt lat="45.85553436547987" lon="10.94247644461478"><ele>252.0</ele><time>2026-03-28T13:47:01Z</time></trkpt><trkpt lat="45.85553904709705" lon="10.942385554381115"><ele>252.0</ele><time>2026-03-28T13:47:02Z</time></trkpt><trkpt lat="45.855540019346165" lon="10.942264232669697"><ele>252.0</ele><time>2026-03-28T13:47:03Z</time></trkpt><trkpt lat="45.85553808674259" lon="10.94213739253896"><ele>252.0</ele><time>2026-03-28T13:47:04Z</time></trkpt><trkpt lat="45.85552986339011" lon="10.941991189901575"><ele>251.39999999999998</ele><time>2026-03-28T13:47:05Z</time></trkpt><trkpt lat="45.85551084198297" lon="10.941840997910637"><ele>250.79999999999998</ele><time>2026-03-28T13:47:06Z</time></trkpt><trkpt lat="45.855482323637005" lon="10.94168060113404"><ele>250.2</ele><time>2026-03-28T13:47:07Z</time></trkpt><trkpt lat="45.855450130750285" lon="10.94154125453862"><ele>249.6</ele><time>2026-03-28T13:47:08Z</time></trkpt><trkpt lat="45.8554122489261" lon="10.941440790428068"><ele>249.0</ele><time>2026-03-28T13:47:09Z</time></trkpt><trkpt lat="45.85539897360388" lon="10.941349994228268"><ele>248.39999999999998</ele><time>2026-03-28T13:47:10Z</time></trkpt><trkpt lat="45.85537506693675" lon="10.941263476772114"><ele>247.79999999999998</ele><time>2026-03-28T13:47:11Z</time></trkpt><trkpt lat="45.85532564261204" lon="10.94111204573188"><ele>247.20000000000002</ele><time>2026-03-28T13:47:13Z</time></trkpt><trkpt lat="45.855263571992566" lon="10.940934867116281"><ele>246.60000000000002</ele><time>2026-03-28T13:47:15Z</time></trkpt><trkpt lat="45.85523526110616" lon="10.940788404270874"><ele>246.0</ele><time>2026-03-28T13:47:16Z</time></trkpt><trkpt lat="45.85518957483514" lon="10.940635061249804"><ele>244.75</ele><time>2026-03-28T13:47:17Z</time></trkpt><trkpt lat="45.85514023510667" lon="10.94046587996097"><ele>243.5</ele><time>2026-03-28T13:47:18Z</time></trkpt><trkpt lat="45.85509093470413" lon="10.94029597781943"><ele>242.25</ele><time>2026-03-28T13:47:19Z</time></trkpt><trkpt lat="45.85503813384254" lon="10.94011401217574"><ele>241.0</ele><time>2026-03-28T13:47:20Z</time></trkpt><trkpt lat="45.854981120381495" lon="10.939917528821379"><ele>233.66666666666666</ele><time>2026-03-28T13:47:21Z</time></trkpt><trkpt lat="45.8549209207732" lon="10.93971203845568"><ele>226.33333333333331</ele><time>2026-03-28T13:47:22Z</time></trkpt><trkpt lat="45.85485843823367" lon="10.939500440005467"><ele>219.0</ele><time>2026-03-28T13:47:23Z</time></trkpt><trkpt lat="45.854796049039095" lon="10.939289157667893"><ele>218.66666666666669</ele><time>2026-03-28T13:47:24Z</time></trkpt><trkpt lat="45.854730680743636" lon="10.939067786549126"><ele>218.33333333333334</ele><time>2026-03-28T13:47:25Z</time></trkpt><trkpt lat="45.85465545208806" lon="10.938869860900676"><ele>218.0</ele><time>2026-03-28T13:47:26Z</time></trkpt><trkpt lat="45.854601755264206" lon="10.938667242107401"><ele>218.0</ele><time>2026-03-28T13:47:27Z</time></trkpt><trkpt lat="45.85454908691478" lon="10.938480608212625"><ele>218.0</ele><time>2026-03-28T13:47:28Z</time></trkpt><trkpt lat="45.85450022635791" lon="10.938301608381225"><ele>218.0</ele><time>2026-03-28T13:47:29Z</time></trkpt><trkpt lat="45.85445030314544" lon="10.938131688098077"><ele>218.0</ele><time>2026-03-28T13:47:30Z</time></trkpt><trkpt lat="45.85440197549867" lon="10.937969851342663"><ele>218.0</ele><time>2026-03-28T13:47:31Z</time></trkpt><trkpt lat="45.85435807999805" lon="10.937814759254914"><ele>218.0</ele><time>2026-03-28T13:47:32Z</time></trkpt><trkpt lat="45.854317847197784" lon="10.937668425522988"><ele>218.0</ele><time>2026-03-28T13:47:33Z</time></trkpt><trkpt lat="45.85427939304826" lon="10.937524934313931"><ele>218.0</ele><time>2026-03-28T13:47:34Z</time></trkpt><trkpt lat="45.85424685672082" lon="10.937380658847832"><ele>218.0</ele><time>2026-03-28T13:47:35Z</time></trkpt><trkpt lat="45.85422194062036" lon="10.937233595737222"><ele>218.0</ele><time>2026-03-28T13:47:36Z</time></trkpt><trkpt lat="45.854201733151925" lon="10.937080619149532"><ele>218.0</ele><time>2026-03-28T13:47:37Z</time></trkpt><trkpt lat="45.854186197325404" lon="10.936924645633981"><ele>218.0</ele><time>2026-03-28T13:47:38Z</time></trkpt><trkpt lat="45.854175246888005" lon="10.936765941671446"><ele>218.0</ele><time>2026-03-28T13:47:39Z</time></trkpt><trkpt lat="45.85417224147801" lon="10.936613708295152"><ele>218.0</ele><time>2026-03-28T13:47:40Z</time></trkpt><trkpt lat="45.85418209361504" lon="10.936476136865073"><ele>218.33333333333334</ele><time>2026-03-28T13:47:41Z</time></trkpt><trkpt lat="45.85419183650535" lon="10.936337372272655"><ele>218.66666666666669</ele><time>2026-03-28T13:47:42Z</time></trkpt><trkpt lat="45.85419941231165" lon="10.93620276882622"><ele>219.0</ele><time>2026-03-28T13:47:43Z</time></trkpt><trkpt lat="45.854215475527944" lon="10.936086695377055"><ele>219.33333333333331</ele><time>2026-03-28T13:47:44Z</time></trkpt><trkpt lat="45.85422951048686" lon="10.935975097138542"><ele>219.66666666666666</ele><time>2026-03-28T13:47:45Z</time></trkpt><trkpt lat="45.85424769841963" lon="10.935874388729875"><ele>220.0</ele><time>2026-03-28T13:47:46Z</time></trkpt><trkpt lat="45.85427292123653" lon="10.935777987926206"><ele>220.49999999999997</ele><time>2026-03-28T13:47:47Z</time></trkpt><trkpt lat="45.85429731323532" lon="10.93566845923162"><ele>221.0</ele><time>2026-03-28T13:47:48Z</time></trkpt><trkpt lat="45.85432442450667" lon="10.935556785374578"><ele>221.5</ele><time>2026-03-28T13:47:49Z</time></trkpt><trkpt lat="45.85434730495287" lon="10.935444758228112"><ele>222.0</ele><time>2026-03-28T13:47:50Z</time></trkpt><trkpt lat="45.854368790330824" lon="10.935332039305555"><ele>222.49999999999997</ele><time>2026-03-28T13:47:51Z</time></trkpt><trkpt lat="45.85440092046433" lon="10.935218478063542"><ele>223.0</ele><time>2026-03-28T13:47:52Z</time></trkpt><trkpt lat="45.85442865470779" lon="10.935096998089731"><ele>224.0</ele><time>2026-03-28T13:47:53Z</time></trkpt><trkpt lat="45.85445674346218" lon="10.93497474036526"><ele>225.0</ele><time>2026-03-28T13:47:54Z</time></trkpt><trkpt lat="45.854484929132916" lon="10.934845684504257"><ele>226.0</ele><time>2026-03-28T13:47:55Z</time></trkpt><trkpt lat="45.8545120948343" lon="10.934713758042227"><ele>227.0</ele><time>2026-03-28T13:47:56Z</time></trkpt><trkpt lat="45.85454054751764" lon="10.934577935471305"><ele>228.0</ele><time>2026-03-28T13:47:57Z</time></trkpt><trkpt lat="45.85457193586883" lon="10.93444121533033"><ele>228.0</ele><time>2026-03-28T13:47:58Z</time></trkpt><trkpt lat="45.854600131484354" lon="10.934303138707829"><ele>228.0</ele><time>2026-03-28T13:47:59Z</time></trkpt><trkpt lat="45.85463094435355" lon="10.934157808170177"><ele>228.0</ele><time>2026-03-28T13:48:00Z</time></trkpt><trkpt lat="45.85466040942217" lon="10.934009567998908"><ele>228.0</ele><time>2026-03-28T13:48:01Z</time></trkpt><trkpt lat="45.854692093324374" lon="10.933861291550745"><ele>228.0</ele><time>2026-03-28T13:48:02Z</time></trkpt><trkpt lat="45.85472083268115" lon="10.933721210585396"><ele>228.0</ele><time>2026-03-28T13:48:03Z</time></trkpt><trkpt lat="45.85476575316585" lon="10.933597502758237"><ele>228.0</ele><time>2026-03-28T13:48:04Z</time></trkpt><trkpt lat="45.85479499773871" lon="10.933468378881473"><ele>228.0</ele><time>2026-03-28T13:48:05Z</time></trkpt><trkpt lat="45.85481716084025" lon="10.933333145013977"><ele>228.0</ele><time>2026-03-28T13:48:06Z</time></trkpt><trkpt lat="45.854845513688474" lon="10.93319790692498"><ele>228.0</ele><time>2026-03-28T13:48:07Z</time></trkpt><trkpt lat="45.85487515034998" lon="10.93306424085271"><ele>228.0</ele><time>2026-03-28T13:48:08Z</time></trkpt><trkpt lat="45.854910709944114" lon="10.932935364784115"><ele>228.0</ele><time>2026-03-28T13:48:09Z</time></trkpt><trkpt lat="45.85493809655434" lon="10.932810020374287"><ele>228.0</ele><time>2026-03-28T13:48:10Z</time></trkpt><trkpt lat="45.85496298291825" lon="10.932696952644664"><ele>228.0</ele><time>2026-03-28T13:48:10.999Z</time></trkpt><trkpt lat="45.85498819552485" lon="10.93259109846136"><ele>228.0</ele><time>2026-03-28T13:48:11.999Z</time></trkpt><trkpt lat="45.85501468715161" lon="10.932496906830817"><ele>228.0</ele><time>2026-03-28T13:48:12.999Z</time></trkpt><trkpt lat="45.85504456397001" lon="10.932406702564831"><ele>228.0</ele><time>2026-03-28T13:48:13.999Z</time></trkpt><trkpt lat="45.85508255599263" lon="10.932321585990959"><ele>228.0</ele><time>2026-03-28T13:48:14.999Z</time></trkpt><trkpt lat="45.85513675900271" lon="10.932249938620135"><ele>228.0</ele><time>2026-03-28T13:48:15.999Z</time></trkpt><trkpt lat="45.85519961593776" lon="10.93217885185249"><ele>228.0</ele><time>2026-03-28T13:48:16.999Z</time></trkpt><trkpt lat="45.85525834038586" lon="10.932090524581406"><ele>228.0</ele><time>2026-03-28T13:48:17.999Z</time></trkpt><trkpt lat="45.8552938016578" lon="10.931975922984144"><ele>228.0</ele><time>2026-03-28T13:48:18.999Z</time></trkpt><trkpt lat="45.85529426237944" lon="10.931843042025863"><ele>228.33333333333334</ele><time>2026-03-28T13:48:19.999Z</time></trkpt><trkpt lat="45.85527487150661" lon="10.931716312966772"><ele>228.66666666666669</ele><time>2026-03-28T13:48:20.999Z</time></trkpt><trkpt lat="45.85525448249733" lon="10.931597811529969"><ele>229.0</ele><time>2026-03-28T13:48:21.999Z</time></trkpt><trkpt lat="45.855249349265634" lon="10.931480394263703"><ele>229.33333333333334</ele><time>2026-03-28T13:48:22.999Z</time></trkpt><trkpt lat="45.8552640724881" lon="10.931361337177218"><ele>229.66666666666669</ele><time>2026-03-28T13:48:23.999Z</time></trkpt><trkpt lat="45.855286656300436" lon="10.931245005524865"><ele>230.0</ele><time>2026-03-28T13:48:24.999Z</time></trkpt><trkpt lat="45.85532228059182" lon="10.931137389138659"><ele>230.0</ele><time>2026-03-28T13:48:25.999Z</time></trkpt><trkpt lat="45.855349794947095" lon="10.931015526149773"><ele>230.0</ele><time>2026-03-28T13:48:26.999Z</time></trkpt><trkpt lat="45.85538247581275" lon="10.93087120463663"><ele>230.0</ele><time>2026-03-28T13:48:27.999Z</time></trkpt><trkpt lat="45.85542231063167" lon="10.930696043503605"><ele>230.0</ele><time>2026-03-28T13:48:28.999Z</time></trkpt><trkpt lat="45.85546876930179" lon="10.930495106734039"><ele>230.0</ele><time>2026-03-28T13:48:29.999Z</time></trkpt><trkpt lat="45.855515011633976" lon="10.930298810416907"><ele>230.0</ele><time>2026-03-28T13:48:30.999Z</time></trkpt><trkpt lat="45.85555947132765" lon="10.930112130351924"><ele>230.0</ele><time>2026-03-28T13:48:31.999Z</time></trkpt><trkpt lat="45.855587602763244" lon="10.92993406239591"><ele>230.0</ele><time>2026-03-28T13:48:32.999Z</time></trkpt><trkpt lat="45.855628297519026" lon="10.929779675873165"><ele>229.2</ele><time>2026-03-28T13:48:33.999Z</time></trkpt><trkpt lat="45.85565974553493" lon="10.929633079212365"><ele>228.4</ele><time>2026-03-28T13:48:34.999Z</time></trkpt><trkpt lat="45.8556898282337" lon="10.929490699285273"><ele>227.60000000000002</ele><time>2026-03-28T13:48:35.999Z</time></trkpt><trkpt lat="45.855727758239894" lon="10.929346123413211"><ele>226.8</ele><time>2026-03-28T13:48:36.999Z</time></trkpt><trkpt lat="45.855762850565725" lon="10.929198232959212"><ele>226.0</ele><time>2026-03-28T13:48:37.999Z</time></trkpt><trkpt lat="45.85579317807694" lon="10.92905021823892"><ele>226.0</ele><time>2026-03-28T13:48:38.999Z</time></trkpt><trkpt lat="45.85582872707618" lon="10.928908264648669"><ele>226.00000000000003</ele><time>2026-03-28T13:48:40Z</time></trkpt><trkpt lat="45.85586304940451" lon="10.928761318821186"><ele>226.00000000000003</ele><time>2026-03-28T13:48:41Z</time></trkpt><trkpt lat="45.85589694629879" lon="10.928598911577232"><ele>226.0</ele><time>2026-03-28T13:48:42Z</time></trkpt><trkpt lat="45.85592675445773" lon="10.928450981841712"><ele>226.0</ele><time>2026-03-28T13:48:43Z</time></trkpt><trkpt lat="45.855960299551604" lon="10.928301388182183"><ele>228.5</ele><time>2026-03-28T13:48:44Z</time></trkpt><trkpt lat="45.85599467301452" lon="10.928140292691895"><ele>231.0</ele><time>2026-03-28T13:48:45Z</time></trkpt><trkpt lat="45.85603092999158" lon="10.927965817725047"><ele>233.5</ele><time>2026-03-28T13:48:46Z</time></trkpt><trkpt lat="45.85607012217991" lon="10.92778226287101"><ele>236.0</ele><time>2026-03-28T13:48:47Z</time></trkpt><trkpt lat="45.85611458060467" lon="10.9275872199814"><ele>235.0</ele><time>2026-03-28T13:48:48Z</time></trkpt><trkpt lat="45.85615755185541" lon="10.927395024706863"><ele>234.0</ele><time>2026-03-28T13:48:49Z</time></trkpt><trkpt lat="45.85619841022322" lon="10.927211057393656"><ele>233.0</ele><time>2026-03-28T13:48:50Z</time></trkpt><trkpt lat="45.85623862386453" lon="10.927027966381047"><ele>232.0</ele><time>2026-03-28T13:48:51Z</time></trkpt><trkpt lat="45.856281610300925" lon="10.926830853303713"><ele>230.33333333333331</ele><time>2026-03-28T13:48:52Z</time></trkpt><trkpt lat="45.85632816715692" lon="10.926618394661995"><ele>228.66666666666669</ele><time>2026-03-28T13:48:53Z</time></trkpt><trkpt lat="45.85637979466005" lon="10.926396303790739"><ele>227.0</ele><time>2026-03-28T13:48:54Z</time></trkpt><trkpt lat="45.85643373275297" lon="10.926161454538045"><ele>227.0</ele><time>2026-03-28T13:48:55Z</time></trkpt><trkpt lat="45.85648995324214" lon="10.925915745773517"><ele>227.0</ele><time>2026-03-28T13:48:56Z</time></trkpt><trkpt lat="45.85655095076231" lon="10.925665566718767"><ele>227.0</ele><time>2026-03-28T13:48:57Z</time></trkpt><trkpt lat="45.85660742691156" lon="10.9254200602844"><ele>225.0</ele><time>2026-03-28T13:48:58Z</time></trkpt><trkpt lat="45.8566620455712" lon="10.925176052751947"><ele>223.0</ele><time>2026-03-28T13:48:59Z</time></trkpt><trkpt lat="45.856715750540694" lon="10.924936394427025"><ele>221.0</ele><time>2026-03-28T13:49:00Z</time></trkpt><trkpt lat="45.856769784018276" lon="10.924699462786004"><ele>221.33333333333334</ele><time>2026-03-28T13:49:01Z</time></trkpt><trkpt lat="45.856821859632795" lon="10.924461637717894"><ele>221.66666666666669</ele><time>2026-03-28T13:49:02Z</time></trkpt><trkpt lat="45.85687229059555" lon="10.924229671200324"><ele>222.0</ele><time>2026-03-28T13:49:03Z</time></trkpt><trkpt lat="45.85692584446467" lon="10.923994829459625"><ele>222.0</ele><time>2026-03-28T13:49:04Z</time></trkpt><trkpt lat="45.856978386956435" lon="10.923758084320983"><ele>222.0</ele><time>2026-03-28T13:49:05Z</time></trkpt><trkpt lat="45.85703027759242" lon="10.923533918162331"><ele>222.0</ele><time>2026-03-28T13:49:06Z</time></trkpt><trkpt lat="45.85708124226255" lon="10.923316430711143"><ele>222.0</ele><time>2026-03-28T13:49:07Z</time></trkpt><trkpt lat="45.85713080100058" lon="10.923099484960662"><ele>222.0</ele><time>2026-03-28T13:49:08Z</time></trkpt><trkpt lat="45.857179763151684" lon="10.92287780731367"><ele>222.0</ele><time>2026-03-28T13:49:09Z</time></trkpt><trkpt lat="45.85724458264318" lon="10.922660907574386"><ele>222.33333333333331</ele><time>2026-03-28T13:49:10Z</time></trkpt><trkpt lat="45.857293448042846" lon="10.922443827511065"><ele>222.66666666666666</ele><time>2026-03-28T13:49:11Z</time></trkpt><trkpt lat="45.857326490431426" lon="10.92222133732082"><ele>223.0</ele><time>2026-03-28T13:49:12Z</time></trkpt><trkpt lat="45.85737532825821" lon="10.922007883416937"><ele>223.0</ele><time>2026-03-28T13:49:13Z</time></trkpt><trkpt lat="45.85742677910207" lon="10.921794001773165"><ele>223.0</ele><time>2026-03-28T13:49:14Z</time></trkpt><trkpt lat="45.857476759254624" lon="10.921586333039915"><ele>223.0</ele><time>2026-03-28T13:49:15Z</time></trkpt><trkpt lat="45.85753175549478" lon="10.92137669035394"><ele>223.33333333333331</ele><time>2026-03-28T13:49:16Z</time></trkpt><trkpt lat="45.857611335127785" lon="10.921183275955165"><ele>223.66666666666669</ele><time>2026-03-28T13:49:17Z</time></trkpt><trkpt lat="45.8576908882734" lon="10.920975390636675"><ele>224.0</ele><time>2026-03-28T13:49:18Z</time></trkpt><trkpt lat="45.85780021113705" lon="10.920789707138411"><ele>222.66666666666669</ele><time>2026-03-28T13:49:19Z</time></trkpt><trkpt lat="45.85792794376748" lon="10.920614257430016"><ele>221.33333333333331</ele><time>2026-03-28T13:49:20Z</time></trkpt><trkpt lat="45.85806773099025" lon="10.920455215092478"><ele>220.0</ele><time>2026-03-28T13:49:21Z</time></trkpt><trkpt lat="45.85822408637625" lon="10.920312875256384"><ele>220.0</ele><time>2026-03-28T13:49:22Z</time></trkpt><trkpt lat="45.85839020630127" lon="10.920179818866794"><ele>220.0</ele><time>2026-03-28T13:49:23Z</time></trkpt><trkpt lat="45.858547143574626" lon="10.920047783184133"><ele>220.0</ele><time>2026-03-28T13:49:24Z</time></trkpt><trkpt lat="45.85870536763295" lon="10.919905150747462"><ele>222.0</ele><time>2026-03-28T13:49:25Z</time></trkpt><trkpt lat="45.85889081319766" lon="10.91977394624039"><ele>224.0</ele><time>2026-03-28T13:49:26Z</time></trkpt><trkpt lat="45.85907847104964" lon="10.919614554299201"><ele>226.0</ele><time>2026-03-28T13:49:27Z</time></trkpt><trkpt lat="45.85927879345362" lon="10.919444405421851"><ele>226.0</ele><time>2026-03-28T13:49:28Z</time></trkpt><trkpt lat="45.85947572111396" lon="10.919276942330898"><ele>226.0</ele><time>2026-03-28T13:49:29Z</time></trkpt><trkpt lat="45.85967183404253" lon="10.919109235153245"><ele>226.0</ele><time>2026-03-28T13:49:30Z</time></trkpt><trkpt lat="45.85985733975354" lon="10.918924800957477"><ele>226.0</ele><time>2026-03-28T13:49:31Z</time></trkpt><trkpt lat="45.860047142105714" lon="10.918775878632953"><ele>226.0</ele><time>2026-03-28T13:49:32Z</time></trkpt><trkpt lat="45.860236253348624" lon="10.918620971338223"><ele>226.66666666666666</ele><time>2026-03-28T13:49:33Z</time></trkpt><trkpt lat="45.86042031772767" lon="10.91846537711613"><ele>227.33333333333331</ele><time>2026-03-28T13:49:34Z</time></trkpt><trkpt lat="45.860597650413844" lon="10.91831710267501"><ele>228.0</ele><time>2026-03-28T13:49:35Z</time></trkpt><trkpt lat="45.86075639431433" lon="10.918162840926165"><ele>228.0</ele><time>2026-03-28T13:49:36Z</time></trkpt><trkpt lat="45.86092620462848" lon="10.9180247952306"><ele>228.0</ele><time>2026-03-28T13:49:37Z</time></trkpt><trkpt lat="45.8610909516861" lon="10.917884198253857"><ele>228.0</ele><time>2026-03-28T13:49:38Z</time></trkpt><trkpt lat="45.861260454820396" lon="10.917742138007533"><ele>228.66666666666669</ele><time>2026-03-28T13:49:39Z</time></trkpt><trkpt lat="45.861433737742324" lon="10.917601454946059"><ele>229.33333333333334</ele><time>2026-03-28T13:49:40Z</time></trkpt><trkpt lat="45.86161389393456" lon="10.917466518071894"><ele>230.0</ele><time>2026-03-28T13:49:41Z</time></trkpt><trkpt lat="45.861799773519365" lon="10.91735216727716"><ele>225.66666666666669</ele><time>2026-03-28T13:49:42Z</time></trkpt><trkpt lat="45.86198433146585" lon="10.917258079716085"><ele>221.33333333333331</ele><time>2026-03-28T13:49:43Z</time></trkpt><trkpt lat="45.862170500192356" lon="10.917176326429548"><ele>217.0</ele><time>2026-03-28T13:49:44Z</time></trkpt><trkpt lat="45.862362091426604" lon="10.917106825398005"><ele>217.0</ele><time>2026-03-28T13:49:45Z</time></trkpt><trkpt lat="45.86255524989576" lon="10.917047127833204"><ele>217.0</ele><time>2026-03-28T13:49:46Z</time></trkpt><trkpt lat="45.862737358074455" lon="10.916998110257802"><ele>217.0</ele><time>2026-03-28T13:49:47Z</time></trkpt><trkpt lat="45.862915015881796" lon="10.91695027563039"><ele>216.66666666666666</ele><time>2026-03-28T13:49:48Z</time></trkpt><trkpt lat="45.86307541886326" lon="10.916898882996154"><ele>216.33333333333331</ele><time>2026-03-28T13:49:49Z</time></trkpt><trkpt lat="45.863225410742935" lon="10.916852082670118"><ele>216.0</ele><time>2026-03-28T13:49:50Z</time></trkpt><trkpt lat="45.86337223580509" lon="10.916808308582302"><ele>218.0</ele><time>2026-03-28T13:49:51Z</time></trkpt><trkpt lat="45.86351147457224" lon="10.91676757482984"><ele>220.0</ele><time>2026-03-28T13:49:52Z</time></trkpt><trkpt lat="45.863648589254396" lon="10.916728988882994"><ele>222.0</ele><time>2026-03-28T13:49:53Z</time></trkpt><trkpt lat="45.863785449266295" lon="10.91669122966128"><ele>224.0</ele><time>2026-03-28T13:49:54Z</time></trkpt><trkpt lat="45.863923768029366" lon="10.91664704948815"><ele>226.75</ele><time>2026-03-28T13:49:55Z</time></trkpt><trkpt lat="45.86405977352465" lon="10.916599789784806"><ele>229.5</ele><time>2026-03-28T13:49:56Z</time></trkpt><trkpt lat="45.864189316253594" lon="10.916538619139521"><ele>232.25</ele><time>2026-03-28T13:49:57Z</time></trkpt><trkpt lat="45.86431414604463" lon="10.91645497030051"><ele>235.0</ele><time>2026-03-28T13:49:58Z</time></trkpt><trkpt lat="45.86443263199911" lon="10.916358710735205"><ele>235.0</ele><time>2026-03-28T13:49:59Z</time></trkpt><trkpt lat="45.864549450084084" lon="10.916247163031706"><ele>235.0</ele><time>2026-03-28T13:50:00Z</time></trkpt><trkpt lat="45.86467132348465" lon="10.91612951603135"><ele>235.0</ele><time>2026-03-28T13:50:01Z</time></trkpt><trkpt lat="45.86478640093109" lon="10.91600133627065"><ele>235.0</ele><time>2026-03-28T13:50:02Z</time></trkpt><trkpt lat="45.86491009858873" lon="10.915900799432936"><ele>237.0</ele><time>2026-03-28T13:50:03Z</time></trkpt><trkpt lat="45.86502089434919" lon="10.915788649652466"><ele>239.0</ele><time>2026-03-28T13:50:04Z</time></trkpt><trkpt lat="45.86513175990351" lon="10.915675495883786"><ele>241.0</ele><time>2026-03-28T13:50:05Z</time></trkpt><trkpt lat="45.86524790622611" lon="10.915556407761693"><ele>243.0</ele><time>2026-03-28T13:50:06Z</time></trkpt><trkpt lat="45.86536236917862" lon="10.915439045690352"><ele>243.25</ele><time>2026-03-28T13:50:07Z</time></trkpt><trkpt lat="45.8654831541528" lon="10.915315201460785"><ele>243.5</ele><time>2026-03-28T13:50:08Z</time></trkpt><trkpt lat="45.86560538058766" lon="10.915192074716998"><ele>243.75</ele><time>2026-03-28T13:50:09Z</time></trkpt><trkpt lat="45.86572227007109" lon="10.915092611997263"><ele>244.0</ele><time>2026-03-28T13:50:10Z</time></trkpt><trkpt lat="45.865848409090816" lon="10.91500453941447"><ele>240.0</ele><time>2026-03-28T13:50:11Z</time></trkpt><trkpt lat="45.8659778938201" lon="10.91490671179738"><ele>236.0</ele><time>2026-03-28T13:50:12Z</time></trkpt><trkpt lat="45.86611798282351" lon="10.914865980895037"><ele>232.0</ele><time>2026-03-28T13:50:13Z</time></trkpt><trkpt lat="45.866265165571406" lon="10.914799501763714"><ele>228.0</ele><time>2026-03-28T13:50:14Z</time></trkpt><trkpt lat="45.86640921002613" lon="10.914774430522467"><ele>228.0</ele><time>2026-03-28T13:50:15Z</time></trkpt><trkpt lat="45.866547130452375" lon="10.914770115552532"><ele>228.0</ele><time>2026-03-28T13:50:16Z</time></trkpt><trkpt lat="45.86667582609535" lon="10.914760204886406"><ele>228.0</ele><time>2026-03-28T13:50:17Z</time></trkpt><trkpt lat="45.86680672757884" lon="10.91474255399279"><ele>228.0</ele><time>2026-03-28T13:50:18Z</time></trkpt><trkpt lat="45.86693462663027" lon="10.914730010736365"><ele>227.25</ele><time>2026-03-28T13:50:19Z</time></trkpt><trkpt lat="45.86705341278535" lon="10.91472545240089"><ele>226.5</ele><time>2026-03-28T13:50:20Z</time></trkpt><trkpt lat="45.86716982513418" lon="10.914717313073975"><ele>225.75</ele><time>2026-03-28T13:50:21Z</time></trkpt><trkpt lat="45.86728927558504" lon="10.914709844393192"><ele>225.0</ele><time>2026-03-28T13:50:22Z</time></trkpt><trkpt lat="45.867407574939826" lon="10.91470142463552"><ele>225.0</ele><time>2026-03-28T13:50:23Z</time></trkpt><trkpt lat="45.867526427282876" lon="10.914691872563683"><ele>225.0</ele><time>2026-03-28T13:50:24Z</time></trkpt><trkpt lat="45.86764098288522" lon="10.914675424793787"><ele>225.0</ele><time>2026-03-28T13:50:25Z</time></trkpt><trkpt lat="45.86774605429111" lon="10.914633080591901"><ele>225.0</ele><time>2026-03-28T13:50:26Z</time></trkpt><trkpt lat="45.86784249156743" lon="10.91456241452536"><ele>224.4</ele><time>2026-03-28T13:50:27Z</time></trkpt><trkpt lat="45.867931424844016" lon="10.914462774195247"><ele>223.8</ele><time>2026-03-28T13:50:28Z</time></trkpt><trkpt lat="45.86799591759242" lon="10.914336329324115"><ele>223.2</ele><time>2026-03-28T13:50:28.999Z</time></trkpt><trkpt lat="45.86804596179732" lon="10.914200300725241"><ele>222.6</ele><time>2026-03-28T13:50:29.999Z</time></trkpt><trkpt lat="45.86806302445853" lon="10.914038947630358"><ele>222.0</ele><time>2026-03-28T13:50:30.999Z</time></trkpt><trkpt lat="45.868081976742836" lon="10.913871674658925"><ele>222.0</ele><time>2026-03-28T13:50:31.999Z</time></trkpt><trkpt lat="45.86808366150072" lon="10.913693216908351"><ele>222.0</ele><time>2026-03-28T13:50:32.999Z</time></trkpt><trkpt lat="45.86811173270431" lon="10.913510362814474"><ele>222.0</ele><time>2026-03-28T13:50:33.999Z</time></trkpt><trkpt lat="45.868134171694386" lon="10.913327277480589"><ele>222.0</ele><time>2026-03-28T13:50:34.999Z</time></trkpt><trkpt lat="45.86817204179669" lon="10.91314283259542"><ele>221.5</ele><time>2026-03-28T13:50:35.999Z</time></trkpt><trkpt lat="45.86822277842119" lon="10.912947502378104"><ele>221.0</ele><time>2026-03-28T13:50:36.999Z</time></trkpt><trkpt lat="45.86828895804383" lon="10.912758539702704"><ele>220.5</ele><time>2026-03-28T13:50:37.999Z</time></trkpt><trkpt lat="45.86837463361991" lon="10.912579343934887"><ele>220.0</ele><time>2026-03-28T13:50:38.999Z</time></trkpt><trkpt lat="45.86846809282089" lon="10.912393790454516"><ele>220.0</ele><time>2026-03-28T13:50:39.999Z</time></trkpt><trkpt lat="45.868564346550684" lon="10.912208021267999"><ele>220.0</ele><time>2026-03-28T13:50:40.999Z</time></trkpt><trkpt lat="45.86865161541552" lon="10.912032460023733"><ele>220.0</ele><time>2026-03-28T13:50:41.999Z</time></trkpt><trkpt lat="45.86873347915416" lon="10.911861196048685"><ele>221.25</ele><time>2026-03-28T13:50:42.999Z</time></trkpt><trkpt lat="45.86880229104345" lon="10.911697279644946"><ele>222.5</ele><time>2026-03-28T13:50:43.999Z</time></trkpt><trkpt lat="45.86886753384232" lon="10.911523457449938"><ele>223.75</ele><time>2026-03-28T13:50:44.999Z</time></trkpt><trkpt lat="45.86890488907337" lon="10.911338504470638"><ele>225.0</ele><time>2026-03-28T13:50:46Z</time></trkpt><trkpt lat="45.868929546693735" lon="10.91114516356276"><ele>225.0</ele><time>2026-03-28T13:50:47Z</time></trkpt><trkpt lat="45.86893470051954" lon="10.910950395133227"><ele>225.0</ele><time>2026-03-28T13:50:48Z</time></trkpt><trkpt lat="45.86891205153849" lon="10.910765319015024"><ele>225.0</ele><time>2026-03-28T13:50:49Z</time></trkpt><trkpt lat="45.8688706775251" lon="10.910595676955406"><ele>225.0</ele><time>2026-03-28T13:50:50Z</time></trkpt><trkpt lat="45.86881552094896" lon="10.910428538024036"><ele>225.5</ele><time>2026-03-28T13:50:51Z</time></trkpt><trkpt lat="45.86875888338014" lon="10.910251877991614"><ele>226.0</ele><time>2026-03-28T13:50:52Z</time></trkpt><trkpt lat="45.86871711340298" lon="10.910075254308907"><ele>226.5</ele><time>2026-03-28T13:50:53Z</time></trkpt><trkpt lat="45.868656557109595" lon="10.909892873926887"><ele>227.0</ele><time>2026-03-28T13:50:54Z</time></trkpt><trkpt lat="45.86859235326901" lon="10.909711181603175"><ele>227.0</ele><time>2026-03-28T13:50:55Z</time></trkpt><trkpt lat="45.86852903526251" lon="10.909532268857326"><ele>227.0</ele><time>2026-03-28T13:50:56Z</time></trkpt><trkpt lat="45.86846668605581" lon="10.909346939635684"><ele>227.0</ele><time>2026-03-28T13:50:57Z</time></trkpt><trkpt lat="45.86840394988373" lon="10.909159032152491"><ele>227.0</ele><time>2026-03-28T13:50:58Z</time></trkpt><trkpt lat="45.868351337246025" lon="10.908983281883804"><ele>230.75</ele><time>2026-03-28T13:50:59Z</time></trkpt><trkpt lat="45.86831816125655" lon="10.908804322511942"><ele>234.5</ele><time>2026-03-28T13:51:00Z</time></trkpt><trkpt lat="45.868287525216026" lon="10.908631890894407"><ele>238.25</ele><time>2026-03-28T13:51:01Z</time></trkpt><trkpt lat="45.868272600778" lon="10.908446055735874"><ele>242.0</ele><time>2026-03-28T13:51:02Z</time></trkpt><trkpt lat="45.868251686257246" lon="10.908259107667414"><ele>242.0</ele><time>2026-03-28T13:51:03Z</time></trkpt><trkpt lat="45.868229151087114" lon="10.90808654540907"><ele>242.0</ele><time>2026-03-28T13:51:04Z</time></trkpt><trkpt lat="45.868203368036866" lon="10.907922308469766"><ele>242.0</ele><time>2026-03-28T13:51:05Z</time></trkpt><trkpt lat="45.86818411311574" lon="10.907758215060541"><ele>242.0</ele><time>2026-03-28T13:51:06Z</time></trkpt><trkpt lat="45.86818523606926" lon="10.907597465693316"><ele>242.8</ele><time>2026-03-28T13:51:07Z</time></trkpt><trkpt lat="45.868201178688636" lon="10.907447296896175"><ele>243.6</ele><time>2026-03-28T13:51:08Z</time></trkpt><trkpt lat="45.86825379529887" lon="10.907313054796822"><ele>244.40000000000003</ele><time>2026-03-28T13:51:09Z</time></trkpt><trkpt lat="45.868315489609834" lon="10.907181329245846"><ele>245.20000000000002</ele><time>2026-03-28T13:51:10Z</time></trkpt><trkpt lat="45.868394186532036" lon="10.907074985451073"><ele>246.0</ele><time>2026-03-28T13:51:11Z</time></trkpt><trkpt lat="45.868477791752426" lon="10.906974460985138"><ele>246.0</ele><time>2026-03-28T13:51:12Z</time></trkpt><trkpt lat="45.8685777825535" lon="10.906915235855118"><ele>246.00000000000003</ele><time>2026-03-28T13:51:13Z</time></trkpt><trkpt lat="45.868683867647825" lon="10.906888208454102"><ele>246.00000000000003</ele><time>2026-03-28T13:51:14Z</time></trkpt><trkpt lat="45.86879394401267" lon="10.906900702432585"><ele>246.0</ele><time>2026-03-28T13:51:15Z</time></trkpt><trkpt lat="45.868908032646004" lon="10.906944673600252"><ele>246.0</ele><time>2026-03-28T13:51:16Z</time></trkpt><trkpt lat="45.869012990106576" lon="10.907010244037"><ele>246.0</ele><time>2026-03-28T13:51:17Z</time></trkpt><trkpt lat="45.86911266390752" lon="10.907099385204644"><ele>246.00000000000003</ele><time>2026-03-28T13:51:18Z</time></trkpt><trkpt lat="45.86920010920588" lon="10.907191116365409"><ele>246.00000000000003</ele><time>2026-03-28T13:51:19Z</time></trkpt><trkpt lat="45.8692830520079" lon="10.907275641951925"><ele>246.0</ele><time>2026-03-28T13:51:20Z</time></trkpt><trkpt lat="45.869363555411795" lon="10.907349037847675"><ele>246.0</ele><time>2026-03-28T13:51:21Z</time></trkpt><trkpt lat="45.869432407936785" lon="10.90741501453259"><ele>245.60000000000002</ele><time>2026-03-28T13:51:22Z</time></trkpt><trkpt lat="45.86950020967378" lon="10.90747668557807"><ele>245.20000000000002</ele><time>2026-03-28T13:51:23Z</time></trkpt><trkpt lat="45.869581943985246" lon="10.907548096631547"><ele>244.79999999999998</ele><time>2026-03-28T13:51:24Z</time></trkpt><trkpt lat="45.869681977379194" lon="10.907614973283065"><ele>244.39999999999998</ele><time>2026-03-28T13:51:25Z</time></trkpt><trkpt lat="45.86979566528571" lon="10.907676551780131"><ele>244.0</ele><time>2026-03-28T13:51:26Z</time></trkpt><trkpt lat="45.869922343721946" lon="10.907726237353712"><ele>244.0</ele><time>2026-03-28T13:51:27Z</time></trkpt><trkpt lat="45.870057108208115" lon="10.907760242680645"><ele>244.0</ele><time>2026-03-28T13:51:28Z</time></trkpt><trkpt lat="45.870192206843804" lon="10.907783730008292"><ele>244.0</ele><time>2026-03-28T13:51:29Z</time></trkpt><trkpt lat="45.87032438751213" lon="10.907809423523297"><ele>244.0</ele><time>2026-03-28T13:51:30Z</time></trkpt><trkpt lat="45.87045110338335" lon="10.907842791327251"><ele>245.25</ele><time>2026-03-28T13:51:31Z</time></trkpt><trkpt lat="45.870575979308406" lon="10.907873891211052"><ele>246.5</ele><time>2026-03-28T13:51:32Z</time></trkpt><trkpt lat="45.87069422812535" lon="10.907900904663995"><ele>247.75</ele><time>2026-03-28T13:51:33Z</time></trkpt><trkpt lat="45.87081659585831" lon="10.90792545672403"><ele>249.0</ele><time>2026-03-28T13:51:34Z</time></trkpt><trkpt lat="45.87094322624089" lon="10.907945614083149"><ele>249.75</ele><time>2026-03-28T13:51:35Z</time></trkpt><trkpt lat="45.871067845111085" lon="10.907958178365384"><ele>250.5</ele><time>2026-03-28T13:51:36Z</time></trkpt><trkpt lat="45.871192066845474" lon="10.907961894413852"><ele>251.25</ele><time>2026-03-28T13:51:37Z</time></trkpt><trkpt lat="45.87132391498374" lon="10.907936746649147"><ele>252.0</ele><time>2026-03-28T13:51:38Z</time></trkpt><trkpt lat="45.87144248900009" lon="10.907892050006701"><ele>252.0</ele><time>2026-03-28T13:51:39Z</time></trkpt><trkpt lat="45.871576068465366" lon="10.907838497173937"><ele>252.0</ele><time>2026-03-28T13:51:40Z</time></trkpt><trkpt lat="45.871725433607324" lon="10.907774499243642"><ele>252.0</ele><time>2026-03-28T13:51:41Z</time></trkpt><trkpt lat="45.87188819966409" lon="10.907733088055537"><ele>252.66666666666669</ele><time>2026-03-28T13:51:42Z</time></trkpt><trkpt lat="45.87207545155198" lon="10.907652310602014"><ele>253.33333333333334</ele><time>2026-03-28T13:51:43Z</time></trkpt><trkpt lat="45.872270337309935" lon="10.907582997207044"><ele>254.0</ele><time>2026-03-28T13:51:44Z</time></trkpt><trkpt lat="45.87248345547214" lon="10.907501175316236"><ele>259.6666666666667</ele><time>2026-03-28T13:51:45Z</time></trkpt><trkpt lat="45.87270269938237" lon="10.907415425159986"><ele>265.3333333333333</ele><time>2026-03-28T13:51:46Z</time></trkpt><trkpt lat="45.8728997706958" lon="10.907352339224877"><ele>271.0</ele><time>2026-03-28T13:51:47Z</time></trkpt><trkpt lat="45.87307436944493" lon="10.907307943080788"><ele>271.0</ele><time>2026-03-28T13:51:48Z</time></trkpt><trkpt lat="45.87321684786015" lon="10.907258144081112"><ele>271.0</ele><time>2026-03-28T13:51:49Z</time></trkpt><trkpt lat="45.873327573236786" lon="10.907223292194466"><ele>271.0</ele><time>2026-03-28T13:51:50Z</time></trkpt><trkpt lat="45.87340286494268" lon="10.907185066345878"><ele>271.0</ele><time>2026-03-28T13:51:51Z</time></trkpt><trkpt lat="45.8734940606518" lon="10.907111036117552"><ele>271.0</ele><time>2026-03-28T13:51:53Z</time></trkpt><trkpt lat="45.87358465826665" lon="10.906999833531637"><ele>272.2</ele><time>2026-03-28T13:51:55Z</time></trkpt><trkpt lat="45.873644757174475" lon="10.906921961657584"><ele>273.40000000000003</ele><time>2026-03-28T13:51:56Z</time></trkpt><trkpt lat="45.87371664117081" lon="10.906822115730638"><ele>274.6</ele><time>2026-03-28T13:51:57Z</time></trkpt><trkpt lat="45.87379252752505" lon="10.90670970278861"><ele>275.8</ele><time>2026-03-28T13:51:58Z</time></trkpt><trkpt lat="45.873863685758025" lon="10.906590575775718"><ele>277.0</ele><time>2026-03-28T13:51:59Z</time></trkpt><trkpt lat="45.873927529983995" lon="10.906488257987801"><ele>277.0</ele><time>2026-03-28T13:52:00Z</time></trkpt><trkpt lat="45.873975024009496" lon="10.906411485186373"><ele>277.0</ele><time>2026-03-28T13:52:01Z</time></trkpt><trkpt lat="45.874032302662634" lon="10.90631966343662"><ele>277.0</ele><time>2026-03-28T13:52:03Z</time></trkpt><trkpt lat="45.87409487510965" lon="10.906232309744295"><ele>277.0</ele><time>2026-03-28T13:52:05Z</time></trkpt><trkpt lat="45.87413628761924" lon="10.906161428509144"><ele>277.0</ele><time>2026-03-28T13:52:06Z</time></trkpt><trkpt lat="45.87418617096863" lon="10.90607604870604"><ele>277.0</ele><time>2026-03-28T13:52:07Z</time></trkpt><trkpt lat="45.874235032715674" lon="10.90599241751099"><ele>276.2</ele><time>2026-03-28T13:52:08Z</time></trkpt><trkpt lat="45.874312556710116" lon="10.905865946661121"><ele>275.4</ele><time>2026-03-28T13:52:10Z</time></trkpt><trkpt lat="45.874400414802786" lon="10.905743204987367"><ele>274.6</ele><time>2026-03-28T13:52:12Z</time></trkpt><trkpt lat="45.87445107036292" lon="10.905684099720416"><ele>273.8</ele><time>2026-03-28T13:52:13Z</time></trkpt><trkpt lat="45.874533206006426" lon="10.905591352681412"><ele>273.0</ele><time>2026-03-28T13:52:15Z</time></trkpt><trkpt lat="45.87462244443216" lon="10.905522701865404"><ele>273.0</ele><time>2026-03-28T13:52:17Z</time></trkpt><trkpt lat="45.874685023337996" lon="10.905486928832504"><ele>273.0</ele><time>2026-03-28T13:52:18Z</time></trkpt><trkpt lat="45.87475425932166" lon="10.905456578838885"><ele>273.0</ele><time>2026-03-28T13:52:19Z</time></trkpt><trkpt lat="45.87481602219527" lon="10.905433440259849"><ele>273.0</ele><time>2026-03-28T13:52:20Z</time></trkpt><trkpt lat="45.874913686959594" lon="10.905427146569515"><ele>273.0</ele><time>2026-03-28T13:52:22Z</time></trkpt><trkpt lat="45.87501674207232" lon="10.905406643865268"><ele>273.0</ele><time>2026-03-28T13:52:23.999Z</time></trkpt><trkpt lat="45.87513098073105" lon="10.905375831236261"><ele>273.2</ele><time>2026-03-28T13:52:25.999Z</time></trkpt><trkpt lat="45.87524645377239" lon="10.905345871814387"><ele>273.4</ele><time>2026-03-28T13:52:27.999Z</time></trkpt><trkpt lat="45.87536278593284" lon="10.905308281307924"><ele>273.59999999999997</ele><time>2026-03-28T13:52:29.999Z</time></trkpt><trkpt lat="45.8754917620202" lon="10.90526091169804"><ele>273.8</ele><time>2026-03-28T13:52:31.999Z</time></trkpt><trkpt lat="45.87556024168441" lon="10.905246485103731"><ele>274.0</ele><time>2026-03-28T13:52:32.999Z</time></trkpt><trkpt lat="45.87567331624279" lon="10.90521951332987"><ele>274.0</ele><time>2026-03-28T13:52:34.999Z</time></trkpt><trkpt lat="45.87578990684548" lon="10.905190071189818"><ele>274.0</ele><time>2026-03-28T13:52:36.999Z</time></trkpt><trkpt lat="45.875868482253345" lon="10.905159606230127"><ele>274.0</ele><time>2026-03-28T13:52:37.999Z</time></trkpt><trkpt lat="45.87595050498731" lon="10.905118643131503"><ele>274.0</ele><time>2026-03-28T13:52:38.999Z</time></trkpt><trkpt lat="45.87602566078887" lon="10.905051307607833"><ele>274.0</ele><time>2026-03-28T13:52:39.999Z</time></trkpt><trkpt lat="45.87610001536774" lon="10.905002504947712"><ele>274.0</ele><time>2026-03-28T13:52:40.999Z</time></trkpt><trkpt lat="45.876172204194845" lon="10.904951380424276"><ele>274.0</ele><time>2026-03-28T13:52:41.999Z</time></trkpt><trkpt lat="45.876230749965046" lon="10.90489868165123"><ele>274.0</ele><time>2026-03-28T13:52:42.999Z</time></trkpt><trkpt lat="45.876344470401726" lon="10.904789125242896"><ele>274.0</ele><time>2026-03-28T13:52:44.999Z</time></trkpt><trkpt lat="45.87641325227106" lon="10.904696763425555"><ele>274.0</ele><time>2026-03-28T13:52:45.999Z</time></trkpt><trkpt lat="45.87648076809877" lon="10.904593445405448"><ele>274.0</ele><time>2026-03-28T13:52:46.999Z</time></trkpt><trkpt lat="45.87654799769515" lon="10.904464426928778"><ele>274.0</ele><time>2026-03-28T13:52:47.999Z</time></trkpt><trkpt lat="45.876618394073134" lon="10.904312247221412"><ele>274.0</ele><time>2026-03-28T13:52:48.999Z</time></trkpt><trkpt lat="45.87668918380007" lon="10.904156637351958"><ele>274.0</ele><time>2026-03-28T13:52:49.999Z</time></trkpt><trkpt lat="45.87676503211812" lon="10.903989907290574"><ele>272.5</ele><time>2026-03-28T13:52:50.999Z</time></trkpt><trkpt lat="45.87683962185498" lon="10.903825944191556"><ele>271.0</ele><time>2026-03-28T13:52:52Z</time></trkpt><trkpt lat="45.87691536270523" lon="10.903659450516411"><ele>269.5</ele><time>2026-03-28T13:52:53Z</time></trkpt><trkpt lat="45.87699065112231" lon="10.90349395131283"><ele>268.0</ele><time>2026-03-28T13:52:54Z</time></trkpt><trkpt lat="45.87706445799066" lon="10.903331708943265"><ele>265.25</ele><time>2026-03-28T13:52:55Z</time></trkpt><trkpt lat="45.877138873512514" lon="10.903168128606483"><ele>262.5</ele><time>2026-03-28T13:52:56Z</time></trkpt><trkpt lat="45.87721361374209" lon="10.903003834560966"><ele>259.75</ele><time>2026-03-28T13:52:57Z</time></trkpt><trkpt lat="45.877288072578104" lon="10.90284015906463"><ele>257.0</ele><time>2026-03-28T13:52:58Z</time></trkpt><trkpt lat="45.877362861545656" lon="10.9026757578038"><ele>256.25</ele><time>2026-03-28T13:52:59Z</time></trkpt><trkpt lat="45.87743547134881" lon="10.902516266175345"><ele>255.5</ele><time>2026-03-28T13:53:00Z</time></trkpt><trkpt lat="45.87750545097812" lon="10.902363302807167"><ele>254.75</ele><time>2026-03-28T13:53:01Z</time></trkpt><trkpt lat="45.877572693023446" lon="10.902216323354926"><ele>254.0</ele><time>2026-03-28T13:53:02Z</time></trkpt><trkpt lat="45.877637416097926" lon="10.902074849999112"><ele>254.0</ele><time>2026-03-28T13:53:03Z</time></trkpt><trkpt lat="45.87769901613697" lon="10.901940203773195"><ele>253.99999999999997</ele><time>2026-03-28T13:53:04Z</time></trkpt><trkpt lat="45.87775103804707" lon="10.901798006258332"><ele>253.99999999999997</ele><time>2026-03-28T13:53:05Z</time></trkpt><trkpt lat="45.87779652490582" lon="10.901654644640182"><ele>254.0</ele><time>2026-03-28T13:53:06Z</time></trkpt><trkpt lat="45.877833419624224" lon="10.901512611769869"><ele>254.0</ele><time>2026-03-28T13:53:07Z</time></trkpt><trkpt lat="45.87786604261105" lon="10.901363925787008"><ele>252.0</ele><time>2026-03-28T13:53:08Z</time></trkpt><trkpt lat="45.87789479261638" lon="10.901210384831284"><ele>250.0</ele><time>2026-03-28T13:53:09Z</time></trkpt><trkpt lat="45.87792031230851" lon="10.901053490174942"><ele>248.0</ele><time>2026-03-28T13:53:10Z</time></trkpt><trkpt lat="45.87791701678149" lon="10.900879790691675"><ele>246.0</ele><time>2026-03-28T13:53:11Z</time></trkpt><trkpt lat="45.87794423203218" lon="10.900706625614749"><ele>244.60000000000002</ele><time>2026-03-28T13:53:12Z</time></trkpt><trkpt lat="45.87794966114406" lon="10.90053371814245"><ele>243.20000000000002</ele><time>2026-03-28T13:53:13Z</time></trkpt><trkpt lat="45.87795463859542" lon="10.900368095073778"><ele>241.79999999999998</ele><time>2026-03-28T13:53:14Z</time></trkpt><trkpt lat="45.87794227684897" lon="10.90022648303081"><ele>240.39999999999998</ele><time>2026-03-28T13:53:15Z</time></trkpt><trkpt lat="45.8779585642366" lon="10.900111039704782"><ele>239.0</ele><time>2026-03-28T13:53:16Z</time></trkpt><trkpt lat="45.877966977194525" lon="10.900016670086444"><ele>237.39999999999998</ele><time>2026-03-28T13:53:17Z</time></trkpt><trkpt lat="45.87797660001501" lon="10.899866139375664"><ele>235.79999999999998</ele><time>2026-03-28T13:53:19Z</time></trkpt><trkpt lat="45.87798068368489" lon="10.899707329381174"><ele>234.20000000000002</ele><time>2026-03-28T13:53:21Z</time></trkpt><trkpt lat="45.87797674548688" lon="10.899533022326162"><ele>232.60000000000002</ele><time>2026-03-28T13:53:23Z</time></trkpt><trkpt lat="45.87797597319511" lon="10.89943240152133"><ele>231.0</ele><time>2026-03-28T13:53:24Z</time></trkpt><trkpt lat="45.87797647568237" lon="10.899324456139743"><ele>230.5</ele><time>2026-03-28T13:53:25Z</time></trkpt><trkpt lat="45.87797275365042" lon="10.89921162063542"><ele>230.0</ele><time>2026-03-28T13:53:26Z</time></trkpt><trkpt lat="45.877988436981006" lon="10.899097901809997"><ele>229.5</ele><time>2026-03-28T13:53:27Z</time></trkpt><trkpt lat="45.877991106193186" lon="10.898990038279665"><ele>229.0</ele><time>2026-03-28T13:53:28Z</time></trkpt><trkpt lat="45.87799379596579" lon="10.898881343972509"><ele>228.5</ele><time>2026-03-28T13:53:29Z</time></trkpt><trkpt lat="45.87799605491881" lon="10.89879005922716"><ele>228.0</ele><time>2026-03-28T13:53:30Z</time></trkpt><trkpt lat="45.87800063818365" lon="10.898604848364297"><ele>228.0</ele><time>2026-03-28T13:53:32Z</time></trkpt><trkpt lat="45.87800311845897" lon="10.898508279749596"><ele>228.0</ele><time>2026-03-28T13:53:33Z</time></trkpt><trkpt lat="45.87799841181202" lon="10.898339954204666"><ele>228.0</ele><time>2026-03-28T13:53:35Z</time></trkpt><trkpt lat="45.877997491948136" lon="10.898166932781121"><ele>228.0</ele><time>2026-03-28T13:53:37Z</time></trkpt><trkpt lat="45.878000660276946" lon="10.898072427166918"><ele>228.0</ele><time>2026-03-28T13:53:38Z</time></trkpt><trkpt lat="45.87800334772989" lon="10.897977007869297"><ele>228.0</ele><time>2026-03-28T13:53:39Z</time></trkpt><trkpt lat="45.87800589324122" lon="10.897802144955167"><ele>227.8</ele><time>2026-03-28T13:53:41Z</time></trkpt><trkpt lat="45.8780107644079" lon="10.897674582161802"><ele>227.60000000000002</ele><time>2026-03-28T13:53:43Z</time></trkpt><trkpt lat="45.87801329672236" lon="10.897528927025103"><ele>227.39999999999998</ele><time>2026-03-28T13:53:45Z</time></trkpt><trkpt lat="45.8780415880885" lon="10.897389097746817"><ele>227.2</ele><time>2026-03-28T13:53:47Z</time></trkpt><trkpt lat="45.8780958091418" lon="10.89724732696616"><ele>227.0</ele><time>2026-03-28T13:53:49Z</time></trkpt><trkpt lat="45.878142791826065" lon="10.897105012721303"><ele>226.8</ele><time>2026-03-28T13:53:51Z</time></trkpt><trkpt lat="45.87809726470977" lon="10.896953469215473"><ele>226.6</ele><time>2026-03-28T13:53:53Z</time></trkpt><trkpt lat="45.878042189912094" lon="10.896821691972992"><ele>226.40000000000003</ele><time>2026-03-28T13:53:55Z</time></trkpt><trkpt lat="45.878032765544" lon="10.896655921011638"><ele>226.20000000000002</ele><time>2026-03-28T13:53:57Z</time></trkpt><trkpt lat="45.87805445335976" lon="10.896530007563562"><ele>226.0</ele><time>2026-03-28T13:53:59Z</time></trkpt><trkpt lat="45.878057392834116" lon="10.896431771417415"><ele>225.66666666666666</ele><time>2026-03-28T13:54:01Z</time></trkpt><trkpt lat="45.8780605743649" lon="10.896325445841972"><ele>225.33333333333331</ele><time>2026-03-28T13:54:03Z</time></trkpt><trkpt lat="45.878063635574094" lon="10.896222478903102"><ele>225.0</ele><time>2026-03-28T13:54:05Z</time></trkpt><trkpt lat="45.878066120025125" lon="10.896123721987736"><ele>224.66666666666669</ele><time>2026-03-28T13:54:08Z</time></trkpt><trkpt lat="45.87806941910601" lon="10.896001698503468"><ele>224.33333333333334</ele><time>2026-03-28T13:54:10Z</time></trkpt><trkpt lat="45.87804662293203" lon="10.89582428608219"><ele>224.0</ele><time>2026-03-28T13:54:12Z</time></trkpt><trkpt lat="45.87805640166376" lon="10.895666987662443"><ele>223.83333333333334</ele><time>2026-03-28T13:54:14Z</time></trkpt><trkpt lat="45.87808024021496" lon="10.895547786361478"><ele>223.66666666666669</ele><time>2026-03-28T13:54:16Z</time></trkpt><trkpt lat="45.878062086603016" lon="10.895398836526152"><ele>223.5</ele><time>2026-03-28T13:54:18Z</time></trkpt><trkpt lat="45.87806348434342" lon="10.895297402971112"><ele>223.33333333333331</ele><time>2026-03-28T13:54:19Z</time></trkpt><trkpt lat="45.87806665857152" lon="10.895179829558423"><ele>223.16666666666666</ele><time>2026-03-28T13:54:20Z</time></trkpt><trkpt lat="45.878093515102265" lon="10.895055715501243"><ele>223.0</ele><time>2026-03-28T13:54:21Z</time></trkpt><trkpt lat="45.87809553908415" lon="10.894935568486654"><ele>222.83333333333331</ele><time>2026-03-28T13:54:22Z</time></trkpt><trkpt lat="45.87809770710773" lon="10.894806870872037"><ele>222.66666666666666</ele><time>2026-03-28T13:54:23Z</time></trkpt><trkpt lat="45.87810070474662" lon="10.894691420383255"><ele>222.5</ele><time>2026-03-28T13:54:24Z</time></trkpt><trkpt lat="45.878089463204695" lon="10.894583117501943"><ele>222.33333333333331</ele><time>2026-03-28T13:54:25Z</time></trkpt><trkpt lat="45.87809357214815" lon="10.894480342975848"><ele>222.16666666666666</ele><time>2026-03-28T13:54:26Z</time></trkpt><trkpt lat="45.87811146802925" lon="10.894380275182833"><ele>222.0</ele><time>2026-03-28T13:54:27Z</time></trkpt><trkpt lat="45.87810358427625" lon="10.894287355603804"><ele>222.14285714285714</ele><time>2026-03-28T13:54:28Z</time></trkpt><trkpt lat="45.878112510532716" lon="10.894192484243751"><ele>222.2857142857143</ele><time>2026-03-28T13:54:28.999Z</time></trkpt><trkpt lat="45.878121305703885" lon="10.894093990999338"><ele>222.42857142857144</ele><time>2026-03-28T13:54:29.999Z</time></trkpt><trkpt lat="45.878129817077586" lon="10.893996477046018"><ele>222.57142857142856</ele><time>2026-03-28T13:54:30.999Z</time></trkpt><trkpt lat="45.87815199905591" lon="10.893907006131753"><ele>222.71428571428572</ele><time>2026-03-28T13:54:31.999Z</time></trkpt><trkpt lat="45.878163274190086" lon="10.893813449195955"><ele>222.85714285714286</ele><time>2026-03-28T13:54:32.999Z</time></trkpt><trkpt lat="45.878177858061626" lon="10.89371995517329"><ele>223.0</ele><time>2026-03-28T13:54:33.999Z</time></trkpt><trkpt lat="45.878177889066905" lon="10.893612094703398"><ele>223.0</ele><time>2026-03-28T13:54:34.999Z</time></trkpt><trkpt lat="45.87819678816514" lon="10.893505652679954"><ele>223.0</ele><time>2026-03-28T13:54:35.999Z</time></trkpt><trkpt lat="45.878212654566425" lon="10.89340699519863"><ele>223.0</ele><time>2026-03-28T13:54:36.999Z</time></trkpt><trkpt lat="45.87822860998706" lon="10.893314846727067"><ele>223.0</ele><time>2026-03-28T13:54:37.999Z</time></trkpt><trkpt lat="45.87826510222597" lon="10.893235167917302"><ele>223.0</ele><time>2026-03-28T13:54:38.999Z</time></trkpt><trkpt lat="45.878283170799136" lon="10.893142522843403"><ele>223.0</ele><time>2026-03-28T13:54:39.999Z</time></trkpt><trkpt lat="45.87829016567772" lon="10.893037423810584"><ele>223.0</ele><time>2026-03-28T13:54:40.999Z</time></trkpt><trkpt lat="45.878314428142346" lon="10.892935192833766"><ele>222.99999999999997</ele><time>2026-03-28T13:54:41.999Z</time></trkpt><trkpt lat="45.87833429457823" lon="10.892822278333915"><ele>223.0</ele><time>2026-03-28T13:54:42.999Z</time></trkpt><trkpt lat="45.87835547163781" lon="10.892704758953522"><ele>223.0</ele><time>2026-03-28T13:54:43.999Z</time></trkpt><trkpt lat="45.87837380182684" lon="10.892592752878425"><ele>223.0</ele><time>2026-03-28T13:54:44.999Z</time></trkpt><trkpt lat="45.878393670433724" lon="10.892476585600612"><ele>222.99999999999997</ele><time>2026-03-28T13:54:45.999Z</time></trkpt><trkpt lat="45.87841198996209" lon="10.892356374088147"><ele>223.0</ele><time>2026-03-28T13:54:46.999Z</time></trkpt><trkpt lat="45.878441366374915" lon="10.892242249787826"><ele>223.2</ele><time>2026-03-28T13:54:47.999Z</time></trkpt><trkpt lat="45.87844024374111" lon="10.892112630645894"><ele>223.4</ele><time>2026-03-28T13:54:48.999Z</time></trkpt><trkpt lat="45.87845019917774" lon="10.891976425797347"><ele>223.59999999999997</ele><time>2026-03-28T13:54:49.999Z</time></trkpt><trkpt lat="45.87846282700124" lon="10.891845240804784"><ele>223.79999999999998</ele><time>2026-03-28T13:54:50.999Z</time></trkpt><trkpt lat="45.87846894305144" lon="10.891708183028353"><ele>224.0</ele><time>2026-03-28T13:54:51.999Z</time></trkpt><trkpt lat="45.878475885147964" lon="10.891573687935235"><ele>224.0</ele><time>2026-03-28T13:54:52.999Z</time></trkpt><trkpt lat="45.87847482353621" lon="10.891425819669516"><ele>224.0</ele><time>2026-03-28T13:54:53.999Z</time></trkpt><trkpt lat="45.878488121846054" lon="10.891239772223278"><ele>224.0</ele><time>2026-03-28T13:54:54.999Z</time></trkpt><trkpt lat="45.87848627193838" lon="10.89105304925525"><ele>224.0</ele><time>2026-03-28T13:54:55.999Z</time></trkpt><trkpt lat="45.87848418992447" lon="10.890859290965302"><ele>224.0</ele><time>2026-03-28T13:54:56.999Z</time></trkpt><trkpt lat="45.878481978990365" lon="10.890663860235652"><ele>224.0</ele><time>2026-03-28T13:54:58Z</time></trkpt><trkpt lat="45.87848013384832" lon="10.89050076258488"><ele>224.0</ele><time>2026-03-28T13:54:59Z</time></trkpt><trkpt lat="45.8784617427601" lon="10.890348051883663"><ele>224.0</ele><time>2026-03-28T13:55:00Z</time></trkpt><trkpt lat="45.878463082286956" lon="10.890201856364797"><ele>223.6</ele><time>2026-03-28T13:55:01Z</time></trkpt><trkpt lat="45.87846159140255" lon="10.89005666324547"><ele>223.2</ele><time>2026-03-28T13:55:02Z</time></trkpt><trkpt lat="45.87846220136308" lon="10.889925354272991"><ele>222.79999999999998</ele><time>2026-03-28T13:55:03Z</time></trkpt><trkpt lat="45.87844415296254" lon="10.889771300048855"><ele>222.39999999999998</ele><time>2026-03-28T13:55:04Z</time></trkpt><trkpt lat="45.87844002269222" lon="10.889641580864573"><ele>222.0</ele><time>2026-03-28T13:55:05Z</time></trkpt><trkpt lat="45.878433397948776" lon="10.889524610484921"><ele>221.33333333333334</ele><time>2026-03-28T13:55:06Z</time></trkpt><trkpt lat="45.87842923107573" lon="10.88942623012594"><ele>220.66666666666669</ele><time>2026-03-28T13:55:07Z</time></trkpt><trkpt lat="45.87842741555301" lon="10.889323351079566"><ele>220.0</ele><time>2026-03-28T13:55:09Z</time></trkpt><trkpt lat="45.87846736630538" lon="10.889194540711282"><ele>219.33333333333334</ele><time>2026-03-28T13:55:12Z</time></trkpt><trkpt lat="45.87849128754092" lon="10.889047306215655"><ele>218.66666666666669</ele><time>2026-03-28T13:55:14Z</time></trkpt><trkpt lat="45.87855194555186" lon="10.88898898841725"><ele>218.0</ele><time>2026-03-28T13:55:15Z</time></trkpt><trkpt lat="45.87861795119041" lon="10.888941378646017"><ele>218.00000000000003</ele><time>2026-03-28T13:55:16Z</time></trkpt><trkpt lat="45.878673084679306" lon="10.88888021798749"><ele>218.0</ele><time>2026-03-28T13:55:17Z</time></trkpt><trkpt lat="45.87871402478975" lon="10.888784820180451"><ele>218.0</ele><time>2026-03-28T13:55:18Z</time></trkpt><trkpt lat="45.878711010951704" lon="10.888668055225407"><ele>218.0</ele><time>2026-03-28T13:55:19Z</time></trkpt><trkpt lat="45.878693429570845" lon="10.888552873954586"><ele>218.00000000000003</ele><time>2026-03-28T13:55:20Z</time></trkpt><trkpt lat="45.87866865540775" lon="10.888431785368988"><ele>218.0</ele><time>2026-03-28T13:55:21Z</time></trkpt><trkpt lat="45.87863072081022" lon="10.888312154675308"><ele>217.83333333333334</ele><time>2026-03-28T13:55:22Z</time></trkpt><trkpt lat="45.87859713631765" lon="10.888193501243299"><ele>217.66666666666669</ele><time>2026-03-28T13:55:23Z</time></trkpt><trkpt lat="45.87857866340502" lon="10.888084816927917"><ele>217.5</ele><time>2026-03-28T13:55:24Z</time></trkpt><trkpt lat="45.87859161181816" lon="10.887971742278973"><ele>217.33333333333331</ele><time>2026-03-28T13:55:25Z</time></trkpt><trkpt lat="45.87862439825575" lon="10.887880263567917"><ele>217.16666666666666</ele><time>2026-03-28T13:55:26Z</time></trkpt><trkpt lat="45.87867891717012" lon="10.887807262090519"><ele>217.0</ele><time>2026-03-28T13:55:27Z</time></trkpt><trkpt lat="45.878751006687324" lon="10.88774107368705"><ele>217.0</ele><time>2026-03-28T13:55:28Z</time></trkpt><trkpt lat="45.878828633528684" lon="10.88768484001312"><ele>217.0</ele><time>2026-03-28T13:55:29Z</time></trkpt><trkpt lat="45.87891374300025" lon="10.887657033664457"><ele>217.0</ele><time>2026-03-28T13:55:30Z</time></trkpt><trkpt lat="45.87900435596695" lon="10.88766190232996"><ele>217.0</ele><time>2026-03-28T13:55:31Z</time></trkpt><trkpt lat="45.87911060653093" lon="10.887713596959497"><ele>217.0</ele><time>2026-03-28T13:55:32Z</time></trkpt><trkpt lat="45.87920859829344" lon="10.887764125238142"><ele>220.8</ele><time>2026-03-28T13:55:33Z</time></trkpt><trkpt lat="45.87930459150649" lon="10.88782100193866"><ele>224.6</ele><time>2026-03-28T13:55:34Z</time></trkpt><trkpt lat="45.87940579712652" lon="10.887858943322373"><ele>228.40000000000003</ele><time>2026-03-28T13:55:35Z</time></trkpt><trkpt lat="45.87951667588522" lon="10.88785236991991"><ele>232.20000000000002</ele><time>2026-03-28T13:55:36Z</time></trkpt><trkpt lat="45.87962931963767" lon="10.887800457588968"><ele>236.0</ele><time>2026-03-28T13:55:37Z</time></trkpt><trkpt lat="45.87972811063708" lon="10.887721625961579"><ele>236.0</ele><time>2026-03-28T13:55:38Z</time></trkpt><trkpt lat="45.87981142374403" lon="10.887601207771393"><ele>236.0</ele><time>2026-03-28T13:55:39Z</time></trkpt><trkpt lat="45.87987481112623" lon="10.88745338603254"><ele>236.0</ele><time>2026-03-28T13:55:40Z</time></trkpt><trkpt lat="45.87991977020975" lon="10.88728692341431"><ele>236.0</ele><time>2026-03-28T13:55:41Z</time></trkpt><trkpt lat="45.879955251901244" lon="10.88711493442569"><ele>233.5</ele><time>2026-03-28T13:55:42Z</time></trkpt><trkpt lat="45.879984995900195" lon="10.886947101037645"><ele>231.0</ele><time>2026-03-28T13:55:43Z</time></trkpt><trkpt lat="45.88003646114066" lon="10.886811161072975"><ele>228.5</ele><time>2026-03-28T13:55:44Z</time></trkpt><trkpt lat="45.880106565909344" lon="10.886676275429704"><ele>226.0</ele><time>2026-03-28T13:55:45Z</time></trkpt><trkpt lat="45.88019064150111" lon="10.88655654489293"><ele>226.0</ele><time>2026-03-28T13:55:46Z</time></trkpt><trkpt lat="45.88027725394542" lon="10.886432949141764"><ele>226.0</ele><time>2026-03-28T13:55:47Z</time></trkpt><trkpt lat="45.88037361721213" lon="10.886329082046586"><ele>226.0</ele><time>2026-03-28T13:55:48Z</time></trkpt><trkpt lat="45.880472343571334" lon="10.886239942939794"><ele>226.0</ele><time>2026-03-28T13:55:49Z</time></trkpt><trkpt lat="45.88057706759195" lon="10.886180066737353"><ele>226.0</ele><time>2026-03-28T13:55:50Z</time></trkpt><trkpt lat="45.880687771867564" lon="10.886121065892775"><ele>226.0</ele><time>2026-03-28T13:55:51Z</time></trkpt><trkpt lat="45.8808126102993" lon="10.886067096810642"><ele>226.0</ele><time>2026-03-28T13:55:52Z</time></trkpt><trkpt lat="45.880950923366726" lon="10.886003694803417"><ele>226.0</ele><time>2026-03-28T13:55:53Z</time></trkpt><trkpt lat="45.881099393341806" lon="10.885941674251281"><ele>219.0</ele><time>2026-03-28T13:55:54Z</time></trkpt><trkpt lat="45.88124966483512" lon="10.88589159289372"><ele>212.0</ele><time>2026-03-28T13:55:55Z</time></trkpt><trkpt lat="45.881403655325144" lon="10.885820375560357"><ele>205.0</ele><time>2026-03-28T13:55:56Z</time></trkpt><trkpt lat="45.881553610854745" lon="10.885752702827793"><ele>205.0</ele><time>2026-03-28T13:55:57Z</time></trkpt><trkpt lat="45.881697953581536" lon="10.885691214894392"><ele>205.0</ele><time>2026-03-28T13:55:58Z</time></trkpt><trkpt lat="45.88184023465644" lon="10.885635094337646"><ele>205.0</ele><time>2026-03-28T13:55:59Z</time></trkpt><trkpt lat="45.88197920372289" lon="10.885578882429227"><ele>205.0</ele><time>2026-03-28T13:56:00Z</time></trkpt><trkpt lat="45.882117924637015" lon="10.885528945002674"><ele>205.25</ele><time>2026-03-28T13:56:01Z</time></trkpt><trkpt lat="45.8822559861024" lon="10.885492481255218"><ele>205.5</ele><time>2026-03-28T13:56:02Z</time></trkpt><trkpt lat="45.88239750249529" lon="10.885476033832441"><ele>205.75</ele><time>2026-03-28T13:56:03Z</time></trkpt><trkpt lat="45.882543127117266" lon="10.885483468081194"><ele>206.0</ele><time>2026-03-28T13:56:04Z</time></trkpt><trkpt lat="45.88269303328978" lon="10.885505198597848"><ele>202.0</ele><time>2026-03-28T13:56:05Z</time></trkpt><trkpt lat="45.882849796168564" lon="10.88553864384303"><ele>198.0</ele><time>2026-03-28T13:56:06Z</time></trkpt><trkpt lat="45.88300558303192" lon="10.885587114487087"><ele>194.0</ele><time>2026-03-28T13:56:07Z</time></trkpt><trkpt lat="45.883152158818476" lon="10.885639323786588"><ele>194.0</ele><time>2026-03-28T13:56:08Z</time></trkpt><trkpt lat="45.88329555770468" lon="10.885699945179269"><ele>194.0</ele><time>2026-03-28T13:56:09Z</time></trkpt><trkpt lat="45.88342237273601" lon="10.885800166807938"><ele>194.0</ele><time>2026-03-28T13:56:10Z</time></trkpt><trkpt lat="45.883542925100116" lon="10.885916231205643"><ele>194.0</ele><time>2026-03-28T13:56:11Z</time></trkpt><trkpt lat="45.883668601095344" lon="10.886026195870391"><ele>200.0</ele><time>2026-03-28T13:56:12Z</time></trkpt><trkpt lat="45.883803119051805" lon="10.886110654645599"><ele>206.0</ele><time>2026-03-28T13:56:13Z</time></trkpt><trkpt lat="45.88395303150887" lon="10.886150983012504"><ele>212.0</ele><time>2026-03-28T13:56:14Z</time></trkpt><trkpt lat="45.88410688572265" lon="10.886172918677513"><ele>212.0</ele><time>2026-03-28T13:56:15Z</time></trkpt><trkpt lat="45.88424858600148" lon="10.88619232827055"><ele>212.0</ele><time>2026-03-28T13:56:16Z</time></trkpt><trkpt lat="45.88436223620824" lon="10.88620972959558"><ele>212.0</ele><time>2026-03-28T13:56:17Z</time></trkpt><trkpt lat="45.884453874367075" lon="10.886224499430188"><ele>212.0</ele><time>2026-03-28T13:56:18Z</time></trkpt><trkpt lat="45.884546294663295" lon="10.886244717274044"><ele>212.0</ele><time>2026-03-28T13:56:19Z</time></trkpt><trkpt lat="45.884618758896615" lon="10.886266041983966"><ele>209.8</ele><time>2026-03-28T13:56:20Z</time></trkpt><trkpt lat="45.884700402015724" lon="10.886288444440215"><ele>207.6</ele><time>2026-03-28T13:56:21Z</time></trkpt><trkpt lat="45.884794283417925" lon="10.88630106801888"><ele>205.4</ele><time>2026-03-28T13:56:22Z</time></trkpt><trkpt lat="45.88491607410452" lon="10.886299389509928"><ele>203.20000000000002</ele><time>2026-03-28T13:56:23Z</time></trkpt><trkpt lat="45.885055274199935" lon="10.886297863454196"><ele>201.0</ele><time>2026-03-28T13:56:24Z</time></trkpt><trkpt lat="45.88521068854599" lon="10.886346026374959"><ele>198.33333333333331</ele><time>2026-03-28T13:56:25Z</time></trkpt><trkpt lat="45.88537432015344" lon="10.886365204314625"><ele>195.66666666666666</ele><time>2026-03-28T13:56:26Z</time></trkpt><trkpt lat="45.88553436001985" lon="10.886353767305122"><ele>193.0</ele><time>2026-03-28T13:56:27Z</time></trkpt><trkpt lat="45.88568237096127" lon="10.886388213861906"><ele>193.0</ele><time>2026-03-28T13:56:28Z</time></trkpt><trkpt lat="45.88582997600389" lon="10.886430508718755"><ele>193.0</ele><time>2026-03-28T13:56:29Z</time></trkpt><trkpt lat="45.88596762185271" lon="10.88647688334332"><ele>193.0</ele><time>2026-03-28T13:56:30Z</time></trkpt><trkpt lat="45.8861072407919" lon="10.886521835401924"><ele>193.0</ele><time>2026-03-28T13:56:31Z</time></trkpt><trkpt lat="45.8862450488858" lon="10.886557802046884"><ele>192.5</ele><time>2026-03-28T13:56:32Z</time></trkpt><trkpt lat="45.88637489633857" lon="10.886586886623444"><ele>192.0</ele><time>2026-03-28T13:56:33Z</time></trkpt><trkpt lat="45.88651190141756" lon="10.886600762592352"><ele>191.5</ele><time>2026-03-28T13:56:34Z</time></trkpt><trkpt lat="45.886659622713694" lon="10.886582042361209"><ele>191.0</ele><time>2026-03-28T13:56:35Z</time></trkpt><trkpt lat="45.886816539280076" lon="10.886548877356907"><ele>191.0</ele><time>2026-03-28T13:56:36Z</time></trkpt><trkpt lat="45.886983298619384" lon="10.886505079654642"><ele>191.0</ele><time>2026-03-28T13:56:37Z</time></trkpt><trkpt lat="45.88715817249826" lon="10.886467486793705"><ele>191.0</ele><time>2026-03-28T13:56:38Z</time></trkpt><trkpt lat="45.887330236089234" lon="10.8864341636863"><ele>191.0</ele><time>2026-03-28T13:56:39Z</time></trkpt><trkpt lat="45.88749646711584" lon="10.886409603697999"><ele>191.0</ele><time>2026-03-28T13:56:40Z</time></trkpt><trkpt lat="45.88765640196886" lon="10.886399836956409"><ele>191.0</ele><time>2026-03-28T13:56:41Z</time></trkpt><trkpt lat="45.88781730771137" lon="10.886416426372016"><ele>186.66666666666666</ele><time>2026-03-28T13:56:42Z</time></trkpt><trkpt lat="45.887983117754516" lon="10.88646215966785"><ele>182.33333333333334</ele><time>2026-03-28T13:56:43Z</time></trkpt><trkpt lat="45.88815448408337" lon="10.886529098052703"><ele>178.0</ele><time>2026-03-28T13:56:43.999Z</time></trkpt><trkpt lat="45.888328958349675" lon="10.88660259073482"><ele>183.66666666666669</ele><time>2026-03-28T13:56:44.999Z</time></trkpt><trkpt lat="45.888494431937424" lon="10.886678673048635"><ele>189.33333333333334</ele><time>2026-03-28T13:56:45.999Z</time></trkpt><trkpt lat="45.8886543692438" lon="10.886759777428326"><ele>195.0</ele><time>2026-03-28T13:56:46.999Z</time></trkpt><trkpt lat="45.88881471187674" lon="10.886856892310027"><ele>195.0</ele><time>2026-03-28T13:56:47.999Z</time></trkpt><trkpt lat="45.88897970475192" lon="10.88696483298865"><ele>195.0</ele><time>2026-03-28T13:56:48.999Z</time></trkpt><trkpt lat="45.889152776240046" lon="10.887073433507135"><ele>195.0</ele><time>2026-03-28T13:56:49.999Z</time></trkpt><trkpt lat="45.889331797088374" lon="10.887181248109112"><ele>186.66666666666666</ele><time>2026-03-28T13:56:50.999Z</time></trkpt><trkpt lat="45.88950594130254" lon="10.88728607730847"><ele>178.33333333333331</ele><time>2026-03-28T13:56:51.999Z</time></trkpt><trkpt lat="45.88967376475391" lon="10.88738994824823"><ele>170.0</ele><time>2026-03-28T13:56:52.999Z</time></trkpt><trkpt lat="45.88983432324753" lon="10.887495845847267"><ele>168.33333333333331</ele><time>2026-03-28T13:56:53.999Z</time></trkpt><trkpt lat="45.88999302029645" lon="10.887597579007506"><ele>166.66666666666666</ele><time>2026-03-28T13:56:54.999Z</time></trkpt><trkpt lat="45.89014384658999" lon="10.887703133327166"><ele>165.0</ele><time>2026-03-28T13:56:55.999Z</time></trkpt><trkpt lat="45.89029019379398" lon="10.887821654760712"><ele>165.0</ele><time>2026-03-28T13:56:56.999Z</time></trkpt><trkpt lat="45.89043067735492" lon="10.887955586563482"><ele>165.0</ele><time>2026-03-28T13:56:57.999Z</time></trkpt><trkpt lat="45.89056472921858" lon="10.888099912258511"><ele>165.0</ele><time>2026-03-28T13:56:58.999Z</time></trkpt><trkpt lat="45.89068979216976" lon="10.888249681239865"><ele>165.0</ele><time>2026-03-28T13:56:59.999Z</time></trkpt><trkpt lat="45.89080976926022" lon="10.888413584836893"><ele>165.0</ele><time>2026-03-28T13:57:00.999Z</time></trkpt><trkpt lat="45.89091711039678" lon="10.888590321920487"><ele>165.0</ele><time>2026-03-28T13:57:01.999Z</time></trkpt><trkpt lat="45.89101599463947" lon="10.888775592445768"><ele>162.25</ele><time>2026-03-28T13:57:02.999Z</time></trkpt><trkpt lat="45.891102079954" lon="10.888953273461064"><ele>159.5</ele><time>2026-03-28T13:57:04Z</time></trkpt><trkpt lat="45.89117814795551" lon="10.889126366098061"><ele>156.75</ele><time>2026-03-28T13:57:05Z</time></trkpt><trkpt lat="45.891237354220266" lon="10.88928744675766"><ele>154.0</ele><time>2026-03-28T13:57:06Z</time></trkpt><trkpt lat="45.89127244047405" lon="10.889450908580013"><ele>154.0</ele><time>2026-03-28T13:57:07Z</time></trkpt><trkpt lat="45.891290191302716" lon="10.88961235154719"><ele>154.0</ele><time>2026-03-28T13:57:08Z</time></trkpt><trkpt lat="45.89126453538106" lon="10.889771346259678"><ele>154.0</ele><time>2026-03-28T13:57:09Z</time></trkpt><trkpt lat="45.89120997803511" lon="10.88992776097795"><ele>154.0</ele><time>2026-03-28T13:57:10Z</time></trkpt><trkpt lat="45.89113084732841" lon="10.890077853997848"><ele>154.5</ele><time>2026-03-28T13:57:11Z</time></trkpt><trkpt lat="45.89106633049329" lon="10.890223721779751"><ele>155.0</ele><time>2026-03-28T13:57:12Z</time></trkpt><trkpt lat="45.89100658748469" lon="10.890369004930513"><ele>155.5</ele><time>2026-03-28T13:57:13Z</time></trkpt><trkpt lat="45.89101236254451" lon="10.890556877464416"><ele>156.0</ele><time>2026-03-28T13:57:14Z</time></trkpt><trkpt lat="45.89103234759061" lon="10.890730114469088"><ele>156.0</ele><time>2026-03-28T13:57:15Z</time></trkpt><trkpt lat="45.891094582593624" lon="10.890896743181548"><ele>156.0</ele><time>2026-03-28T13:57:16Z</time></trkpt><trkpt lat="45.891183556987684" lon="10.891071025908792"><ele>156.0</ele><time>2026-03-28T13:57:17Z</time></trkpt><trkpt lat="45.89127921604957" lon="10.891242472039545"><ele>156.0</ele><time>2026-03-28T13:57:18Z</time></trkpt><trkpt lat="45.89138951435761" lon="10.891425269859187"><ele>158.66666666666666</ele><time>2026-03-28T13:57:19Z</time></trkpt><trkpt lat="45.89151150142316" lon="10.891612086762771"><ele>161.33333333333331</ele><time>2026-03-28T13:57:20Z</time></trkpt><trkpt lat="45.89163737244367" lon="10.891804813060183"><ele>164.0</ele><time>2026-03-28T13:57:21Z</time></trkpt><trkpt lat="45.89176752391073" lon="10.892006463497014"><ele>163.66666666666666</ele><time>2026-03-28T13:57:22Z</time></trkpt><trkpt lat="45.891887049656795" lon="10.892212771403042"><ele>163.33333333333334</ele><time>2026-03-28T13:57:23Z</time></trkpt><trkpt lat="45.89200055943965" lon="10.892437060728533"><ele>163.0</ele><time>2026-03-28T13:57:24Z</time></trkpt><trkpt lat="45.892111253835296" lon="10.892682228485462"><ele>163.0</ele><time>2026-03-28T13:57:25Z</time></trkpt><trkpt lat="45.89221617428926" lon="10.892925356713539"><ele>163.0</ele><time>2026-03-28T13:57:26Z</time></trkpt><trkpt lat="45.89231648160298" lon="10.893159299981836"><ele>163.0</ele><time>2026-03-28T13:57:27Z</time></trkpt><trkpt lat="45.89241775809851" lon="10.893384543395456"><ele>168.66666666666669</ele><time>2026-03-28T13:57:28Z</time></trkpt><trkpt lat="45.89250936473781" lon="10.893605656296618"><ele>174.33333333333334</ele><time>2026-03-28T13:57:29Z</time></trkpt><trkpt lat="45.89260074264838" lon="10.893814942333679"><ele>180.0</ele><time>2026-03-28T13:57:30Z</time></trkpt><trkpt lat="45.892686061402195" lon="10.894007787608517"><ele>178.0</ele><time>2026-03-28T13:57:31Z</time></trkpt><trkpt lat="45.89277918341613" lon="10.894194404424509"><ele>176.0</ele><time>2026-03-28T13:57:32Z</time></trkpt><trkpt lat="45.892888625071606" lon="10.894353868818106"><ele>174.0</ele><time>2026-03-28T13:57:33Z</time></trkpt><trkpt lat="45.89302239963725" lon="10.89447448604817"><ele>174.0</ele><time>2026-03-28T13:57:34Z</time></trkpt><trkpt lat="45.89318120260142" lon="10.894576146263148"><ele>174.0</ele><time>2026-03-28T13:57:35Z</time></trkpt><trkpt lat="45.893346529318144" lon="10.894670062167323"><ele>174.0</ele><time>2026-03-28T13:57:36Z</time></trkpt><trkpt lat="45.893523610369996" lon="10.89476327835678"><ele>168.33333333333334</ele><time>2026-03-28T13:57:37Z</time></trkpt><trkpt lat="45.89370403689424" lon="10.89484878576512"><ele>162.66666666666669</ele><time>2026-03-28T13:57:38Z</time></trkpt><trkpt lat="45.893885825693175" lon="10.894924704884053"><ele>157.0</ele><time>2026-03-28T13:57:39Z</time></trkpt><trkpt lat="45.894064945735806" lon="10.894994869428771"><ele>157.0</ele><time>2026-03-28T13:57:40Z</time></trkpt><trkpt lat="45.89424397637181" lon="10.895061709956629"><ele>157.0</ele><time>2026-03-28T13:57:41Z</time></trkpt><trkpt lat="45.89442448758657" lon="10.895134270502682"><ele>157.0</ele><time>2026-03-28T13:57:42Z</time></trkpt><trkpt lat="45.89460407969515" lon="10.895204564933579"><ele>154.0</ele><time>2026-03-28T13:57:43Z</time></trkpt><trkpt lat="45.894777650346406" lon="10.895276688871604"><ele>151.0</ele><time>2026-03-28T13:57:44Z</time></trkpt><trkpt lat="45.89494450352075" lon="10.89536732480145"><ele>148.0</ele><time>2026-03-28T13:57:45Z</time></trkpt><trkpt lat="45.89510911101621" lon="10.89548109828055"><ele>148.0</ele><time>2026-03-28T13:57:46Z</time></trkpt><trkpt lat="45.89527083047355" lon="10.895598045896056"><ele>148.0</ele><time>2026-03-28T13:57:47Z</time></trkpt><trkpt lat="45.89543150780944" lon="10.895701721797874"><ele>148.0</ele><time>2026-03-28T13:57:48Z</time></trkpt><trkpt lat="45.89559238048892" lon="10.89578928017533"><ele>148.0</ele><time>2026-03-28T13:57:49Z</time></trkpt><trkpt lat="45.8957540319411" lon="10.89586445830247"><ele>148.0</ele><time>2026-03-28T13:57:50Z</time></trkpt><trkpt lat="45.89591305489818" lon="10.895929407464605"><ele>148.0</ele><time>2026-03-28T13:57:51Z</time></trkpt><trkpt lat="45.89606847415376" lon="10.89599594910757"><ele>151.66666666666669</ele><time>2026-03-28T13:57:52Z</time></trkpt><trkpt lat="45.89621706683502" lon="10.896067005453466"><ele>155.33333333333334</ele><time>2026-03-28T13:57:53Z</time></trkpt><trkpt lat="45.896365051400025" lon="10.896131216471904"><ele>159.0</ele><time>2026-03-28T13:57:54Z</time></trkpt><trkpt lat="45.8965075002185" lon="10.896202741641522"><ele>159.0</ele><time>2026-03-28T13:57:55Z</time></trkpt><trkpt lat="45.89664104772401" lon="10.896300099982122"><ele>159.0</ele><time>2026-03-28T13:57:56Z</time></trkpt><trkpt lat="45.896769563442426" lon="10.89641996586703"><ele>159.0</ele><time>2026-03-28T13:57:57Z</time></trkpt><trkpt lat="45.89689141481739" lon="10.896550007770394"><ele>160.75</ele><time>2026-03-28T13:57:58Z</time></trkpt><trkpt lat="45.89701556120572" lon="10.896660812271167"><ele>162.5</ele><time>2026-03-28T13:57:59Z</time></trkpt><trkpt lat="45.89714961576453" lon="10.89675042465931"><ele>164.25</ele><time>2026-03-28T13:58:00Z</time></trkpt><trkpt lat="45.89728667914801" lon="10.896829558232938"><ele>166.0</ele><time>2026-03-28T13:58:01Z</time></trkpt><trkpt lat="45.89742614131087" lon="10.896890633855813"><ele>166.0</ele><time>2026-03-28T13:58:02Z</time></trkpt><trkpt lat="45.897562170357425" lon="10.896944486387863"><ele>166.0</ele><time>2026-03-28T13:58:03Z</time></trkpt><trkpt lat="45.89770181817239" lon="10.896992391368961"><ele>166.0</ele><time>2026-03-28T13:58:04Z</time></trkpt><trkpt lat="45.89783973828214" lon="10.897050550694772"><ele>166.0</ele><time>2026-03-28T13:58:05Z</time></trkpt><trkpt lat="45.8979789990917" lon="10.897130653309132"><ele>158.33333333333334</ele><time>2026-03-28T13:58:06Z</time></trkpt><trkpt lat="45.898119763343196" lon="10.897241083799836"><ele>150.66666666666666</ele><time>2026-03-28T13:58:07Z</time></trkpt><trkpt lat="45.8982584635328" lon="10.897364992071104"><ele>143.0</ele><time>2026-03-28T13:58:08Z</time></trkpt><trkpt lat="45.89839169676094" lon="10.897487615569263"><ele>142.33333333333331</ele><time>2026-03-28T13:58:09Z</time></trkpt><trkpt lat="45.898525727899106" lon="10.897600149235906"><ele>141.66666666666666</ele><time>2026-03-28T13:58:10Z</time></trkpt><trkpt lat="45.89865735298614" lon="10.897706575544246"><ele>141.0</ele><time>2026-03-28T13:58:11Z</time></trkpt><trkpt lat="45.89878644355181" lon="10.897815753138584"><ele>141.0</ele><time>2026-03-28T13:58:12Z</time></trkpt><trkpt lat="45.89889939644545" lon="10.897946887674514"><ele>141.0</ele><time>2026-03-28T13:58:13Z</time></trkpt><trkpt lat="45.8990143130819" lon="10.898073870587211"><ele>141.0</ele><time>2026-03-28T13:58:14Z</time></trkpt><trkpt lat="45.89912852735632" lon="10.898206284549037"><ele>141.0</ele><time>2026-03-28T13:58:15Z</time></trkpt><trkpt lat="45.89925072044197" lon="10.898338709173068"><ele>144.0</ele><time>2026-03-28T13:58:16Z</time></trkpt><trkpt lat="45.899375358627886" lon="10.898483637929386"><ele>147.0</ele><time>2026-03-28T13:58:17Z</time></trkpt><trkpt lat="45.89948936101061" lon="10.898620603210844"><ele>150.0</ele><time>2026-03-28T13:58:18Z</time></trkpt><trkpt lat="45.89961522261139" lon="10.898739224964574"><ele>150.0</ele><time>2026-03-28T13:58:19Z</time></trkpt><trkpt lat="45.89975100743753" lon="10.89883761297822"><ele>150.0</ele><time>2026-03-28T13:58:20Z</time></trkpt><trkpt lat="45.89990354695118" lon="10.898911929638476"><ele>150.0</ele><time>2026-03-28T13:58:21Z</time></trkpt><trkpt lat="45.90005648186696" lon="10.898958732210872"><ele>145.25</ele><time>2026-03-28T13:58:22Z</time></trkpt><trkpt lat="45.900203202505665" lon="10.898998784508166"><ele>140.5</ele><time>2026-03-28T13:58:23Z</time></trkpt><trkpt lat="45.90034215792197" lon="10.899045052464869"><ele>135.75</ele><time>2026-03-28T13:58:24Z</time></trkpt><trkpt lat="45.90048685246285" lon="10.899091377802693"><ele>131.0</ele><time>2026-03-28T13:58:25Z</time></trkpt><trkpt lat="45.900621735146" lon="10.899141033296779"><ele>131.0</ele><time>2026-03-28T13:58:26Z</time></trkpt><trkpt lat="45.90075383021951" lon="10.899191905019649"><ele>131.0</ele><time>2026-03-28T13:58:27Z</time></trkpt><trkpt lat="45.90089009280644" lon="10.899234135697146"><ele>131.0</ele><time>2026-03-28T13:58:28Z</time></trkpt><trkpt lat="45.901021977457034" lon="10.899280179045789"><ele>131.0</ele><time>2026-03-28T13:58:29Z</time></trkpt><trkpt lat="45.901148081430115" lon="10.899365632508045"><ele>135.0</ele><time>2026-03-28T13:58:30Z</time></trkpt><trkpt lat="45.90127792224194" lon="10.899469130196776"><ele>139.0</ele><time>2026-03-28T13:58:31Z</time></trkpt><trkpt lat="45.90141212193814" lon="10.899561433663592"><ele>143.0</ele><time>2026-03-28T13:58:32Z</time></trkpt><trkpt lat="45.901547986740084" lon="10.899679222378039"><ele>143.0</ele><time>2026-03-28T13:58:33Z</time></trkpt><trkpt lat="45.901686386871894" lon="10.899780378639601"><ele>143.0</ele><time>2026-03-28T13:58:34Z</time></trkpt><trkpt lat="45.90182605910359" lon="10.899870464134226"><ele>143.0</ele><time>2026-03-28T13:58:35Z</time></trkpt><trkpt lat="45.9019691698084" lon="10.89993774054927"><ele>138.33333333333331</ele><time>2026-03-28T13:58:36Z</time></trkpt><trkpt lat="45.902118490970736" lon="10.899988900238071"><ele>133.66666666666666</ele><time>2026-03-28T13:58:37Z</time></trkpt><trkpt lat="45.902270960971514" lon="10.900024405743007"><ele>129.0</ele><time>2026-03-28T13:58:38Z</time></trkpt><trkpt lat="45.902421259472874" lon="10.900057859826164"><ele>133.75</ele><time>2026-03-28T13:58:39Z</time></trkpt><trkpt lat="45.90256940962938" lon="10.900097704043787"><ele>138.5</ele><time>2026-03-28T13:58:40Z</time></trkpt><trkpt lat="45.90271350667714" lon="10.900138916069032"><ele>143.25</ele><time>2026-03-28T13:58:41Z</time></trkpt><trkpt lat="45.90284833476383" lon="10.900181358513533"><ele>148.0</ele><time>2026-03-28T13:58:42Z</time></trkpt><trkpt lat="45.90299011578125" lon="10.900221223869448"><ele>148.0</ele><time>2026-03-28T13:58:43Z</time></trkpt><trkpt lat="45.90313419772176" lon="10.900266876462927"><ele>148.0</ele><time>2026-03-28T13:58:44Z</time></trkpt><trkpt lat="45.9032746438155" lon="10.900338713435753"><ele>148.0</ele><time>2026-03-28T13:58:45Z</time></trkpt><trkpt lat="45.9034279959023" lon="10.900419327150296"><ele>141.75</ele><time>2026-03-28T13:58:46Z</time></trkpt><trkpt lat="45.90356920906606" lon="10.900501272799557"><ele>135.5</ele><time>2026-03-28T13:58:47Z</time></trkpt><trkpt lat="45.90371289481136" lon="10.900579457872919"><ele>129.25</ele><time>2026-03-28T13:58:48Z</time></trkpt><trkpt lat="45.90384536083135" lon="10.900653621972282"><ele>123.0</ele><time>2026-03-28T13:58:49Z</time></trkpt><trkpt lat="45.90398881639787" lon="10.90073479339548"><ele>123.0</ele><time>2026-03-28T13:58:49.999Z</time></trkpt><trkpt lat="45.90411430332469" lon="10.900855001563965"><ele>123.0</ele><time>2026-03-28T13:58:50.999Z</time></trkpt><trkpt lat="45.9042574667765" lon="10.900972070923002"><ele>123.0</ele><time>2026-03-28T13:58:51.999Z</time></trkpt><trkpt lat="45.904397383660786" lon="10.90112544296494"><ele>125.33333333333334</ele><time>2026-03-28T13:58:52.999Z</time></trkpt><trkpt lat="45.9045349150458" lon="10.901276435938248"><ele>127.66666666666667</ele><time>2026-03-28T13:58:53.999Z</time></trkpt><trkpt lat="45.90466739078135" lon="10.901412480296129"><ele>130.0</ele><time>2026-03-28T13:58:54.999Z</time></trkpt><trkpt lat="45.90479997962553" lon="10.901531375491553"><ele>130.0</ele><time>2026-03-28T13:58:55.999Z</time></trkpt><trkpt lat="45.904946069063655" lon="10.901620702873377"><ele>130.0</ele><time>2026-03-28T13:58:56.999Z</time></trkpt><trkpt lat="45.905106446988015" lon="10.901685044239516"><ele>130.0</ele><time>2026-03-28T13:58:57.999Z</time></trkpt><trkpt lat="45.90526831259737" lon="10.901741856629615"><ele>134.66666666666669</ele><time>2026-03-28T13:58:58.999Z</time></trkpt><trkpt lat="45.9054209158554" lon="10.901807582219798"><ele>139.33333333333334</ele><time>2026-03-28T13:58:59.999Z</time></trkpt><trkpt lat="45.90556868728208" lon="10.901881094907763"><ele>144.0</ele><time>2026-03-28T13:59:00.999Z</time></trkpt><trkpt lat="45.90571272240478" lon="10.901956582621054"><ele>144.0</ele><time>2026-03-28T13:59:01.999Z</time></trkpt><trkpt lat="45.90584804771858" lon="10.902047010027013"><ele>144.0</ele><time>2026-03-28T13:59:02.999Z</time></trkpt><trkpt lat="45.90598234643781" lon="10.90213380509374"><ele>144.0</ele><time>2026-03-28T13:59:03.999Z</time></trkpt><trkpt lat="45.90611876730899" lon="10.902208374696977"><ele>144.0</ele><time>2026-03-28T13:59:04.999Z</time></trkpt><trkpt lat="45.906255619604835" lon="10.902283220986869"><ele>138.0</ele><time>2026-03-28T13:59:05.999Z</time></trkpt><trkpt lat="45.90638210900429" lon="10.902357142589914"><ele>132.0</ele><time>2026-03-28T13:59:06.999Z</time></trkpt><trkpt lat="45.90651522597416" lon="10.902419856864839"><ele>126.0</ele><time>2026-03-28T13:59:07.999Z</time></trkpt><trkpt lat="45.90663915010362" lon="10.902463928996285"><ele>120.0</ele><time>2026-03-28T13:59:08.999Z</time></trkpt><trkpt lat="45.90676394340739" lon="10.902492441976072"><ele>119.25</ele><time>2026-03-28T13:59:10Z</time></trkpt><trkpt lat="45.906890071578765" lon="10.9025024513737"><ele>118.5</ele><time>2026-03-28T13:59:11Z</time></trkpt><trkpt lat="45.907021329046266" lon="10.90249442075017"><ele>117.75</ele><time>2026-03-28T13:59:12Z</time></trkpt><trkpt lat="45.90715437882574" lon="10.902469231740644"><ele>117.0</ele><time>2026-03-28T13:59:13Z</time></trkpt><trkpt lat="45.90727034366083" lon="10.902445805122978"><ele>117.0</ele><time>2026-03-28T13:59:14Z</time></trkpt><trkpt lat="45.907395220605274" lon="10.90240444491628"><ele>117.0</ele><time>2026-03-28T13:59:15Z</time></trkpt><trkpt lat="45.90750150157703" lon="10.902364367527458"><ele>117.0</ele><time>2026-03-28T13:59:16Z</time></trkpt><trkpt lat="45.907586667589804" lon="10.902339307387095"><ele>117.0</ele><time>2026-03-28T13:59:17Z</time></trkpt><trkpt lat="45.90770896268966" lon="10.902270492395104"><ele>117.0</ele><time>2026-03-28T13:59:19Z</time></trkpt><trkpt lat="45.90777887154539" lon="10.902214859402312"><ele>117.0</ele><time>2026-03-28T13:59:20Z</time></trkpt><trkpt lat="45.90785831695945" lon="10.90216704401289"><ele>117.0</ele><time>2026-03-28T13:59:21Z</time></trkpt><trkpt lat="45.90794675609312" lon="10.90213276762755"><ele>117.0</ele><time>2026-03-28T13:59:22Z</time></trkpt><trkpt lat="45.908029700721976" lon="10.902084703252857"><ele>117.0</ele><time>2026-03-28T13:59:23Z</time></trkpt><trkpt lat="45.9081264731016" lon="10.902040161591682"><ele>117.0</ele><time>2026-03-28T13:59:24Z</time></trkpt><trkpt lat="45.908224930578506" lon="10.901986782941835"><ele>117.0</ele><time>2026-03-28T13:59:25Z</time></trkpt><trkpt lat="45.90831152572021" lon="10.901946004409256"><ele>117.0</ele><time>2026-03-28T13:59:26Z</time></trkpt><trkpt lat="45.90839593259357" lon="10.901918238387498"><ele>117.0</ele><time>2026-03-28T13:59:27Z</time></trkpt><trkpt lat="45.90847973873145" lon="10.901884867879048"><ele>117.0</ele><time>2026-03-28T13:59:28Z</time></trkpt><trkpt lat="45.908554896108306" lon="10.901840176997545"><ele>117.0</ele><time>2026-03-28T13:59:29Z</time></trkpt><trkpt lat="45.908630683516336" lon="10.901783413634465"><ele>117.0</ele><time>2026-03-28T13:59:30Z</time></trkpt><trkpt lat="45.908717395179146" lon="10.901733614100976"><ele>116.6</ele><time>2026-03-28T13:59:31Z</time></trkpt><trkpt lat="45.908812085651086" lon="10.901680066679067"><ele>116.19999999999999</ele><time>2026-03-28T13:59:32Z</time></trkpt><trkpt lat="45.90891148220216" lon="10.901630325655043"><ele>115.8</ele><time>2026-03-28T13:59:33Z</time></trkpt><trkpt lat="45.90901036186315" lon="10.901578088676414"><ele>115.4</ele><time>2026-03-28T13:59:34Z</time></trkpt><trkpt lat="45.90911809322355" lon="10.901519889485746"><ele>115.0</ele><time>2026-03-28T13:59:35Z</time></trkpt><trkpt lat="45.90924195218081" lon="10.901458094839057"><ele>114.75</ele><time>2026-03-28T13:59:36Z</time></trkpt><trkpt lat="45.90937502572306" lon="10.901388097708933"><ele>114.5</ele><time>2026-03-28T13:59:37Z</time></trkpt><trkpt lat="45.9095057961208" lon="10.901308899587486"><ele>114.25</ele><time>2026-03-28T13:59:38Z</time></trkpt><trkpt lat="45.909656208584224" lon="10.90124602895437"><ele>114.0</ele><time>2026-03-28T13:59:39Z</time></trkpt><trkpt lat="45.90981481690859" lon="10.901162048238474"><ele>114.0</ele><time>2026-03-28T13:59:40Z</time></trkpt><trkpt lat="45.909971653521225" lon="10.901079003787338"><ele>114.0</ele><time>2026-03-28T13:59:41Z</time></trkpt><trkpt lat="45.91012044753277" lon="10.900981169591375"><ele>114.0</ele><time>2026-03-28T13:59:42Z</time></trkpt><trkpt lat="45.91026909293487" lon="10.900912926140098"><ele>113.75</ele><time>2026-03-28T13:59:43Z</time></trkpt><trkpt lat="45.91041222069084" lon="10.90084157442204"><ele>113.5</ele><time>2026-03-28T13:59:44Z</time></trkpt><trkpt lat="45.910546753043405" lon="10.900762341676321"><ele>113.25</ele><time>2026-03-28T13:59:45Z</time></trkpt><trkpt lat="45.91067340116919" lon="10.900661074967427"><ele>113.0</ele><time>2026-03-28T13:59:46Z</time></trkpt><trkpt lat="45.91079471875365" lon="10.900531491937846"><ele>113.66666666666666</ele><time>2026-03-28T13:59:47Z</time></trkpt><trkpt lat="45.91091411344733" lon="10.900386477245862"><ele>114.33333333333334</ele><time>2026-03-28T13:59:48Z</time></trkpt><trkpt lat="45.91102994697518" lon="10.900227639497933"><ele>115.0</ele><time>2026-03-28T13:59:49Z</time></trkpt><trkpt lat="45.91115067078943" lon="10.90005350155385"><ele>113.66666666666667</ele><time>2026-03-28T13:59:50Z</time></trkpt><trkpt lat="45.91127475601461" lon="10.899880538702243"><ele>112.33333333333334</ele><time>2026-03-28T13:59:51Z</time></trkpt><trkpt lat="45.91140290276096" lon="10.899698077550452"><ele>111.0</ele><time>2026-03-28T13:59:52Z</time></trkpt><trkpt lat="45.91153436121098" lon="10.899515782265807"><ele>111.0</ele><time>2026-03-28T13:59:53Z</time></trkpt><trkpt lat="45.91166873680591" lon="10.899325920722367"><ele>111.0</ele><time>2026-03-28T13:59:54Z</time></trkpt><trkpt lat="45.91180775177809" lon="10.899133297597825"><ele>111.0</ele><time>2026-03-28T13:59:55Z</time></trkpt><trkpt lat="45.911945643240614" lon="10.898940547934075"><ele>111.33333333333334</ele><time>2026-03-28T13:59:56Z</time></trkpt><trkpt lat="45.91208458694739" lon="10.898743538703268"><ele>111.66666666666667</ele><time>2026-03-28T13:59:57Z</time></trkpt><trkpt lat="45.91222158129499" lon="10.898551761240043"><ele>112.0</ele><time>2026-03-28T13:59:58Z</time></trkpt><trkpt lat="45.9123565858339" lon="10.898366693483114"><ele>110.66666666666667</ele><time>2026-03-28T13:59:59Z</time></trkpt><trkpt lat="45.91248255340419" lon="10.898179470754062"><ele>109.33333333333334</ele><time>2026-03-28T14:00:00Z</time></trkpt><trkpt lat="45.9126030369687" lon="10.89800591431343"><ele>108.0</ele><time>2026-03-28T14:00:01Z</time></trkpt><trkpt lat="45.91272725502381" lon="10.89783425323376"><ele>107.33333333333334</ele><time>2026-03-28T14:00:02Z</time></trkpt><trkpt lat="45.91284763668526" lon="10.897666630679726"><ele>106.66666666666667</ele><time>2026-03-28T14:00:03Z</time></trkpt><trkpt lat="45.912962749881935" lon="10.89750399819673"><ele>106.0</ele><time>2026-03-28T14:00:04Z</time></trkpt><trkpt lat="45.91307374491771" lon="10.897346029742973"><ele>105.33333333333334</ele><time>2026-03-28T14:00:05Z</time></trkpt><trkpt lat="45.91318748462241" lon="10.897185009179127"><ele>104.66666666666666</ele><time>2026-03-28T14:00:06Z</time></trkpt><trkpt lat="45.91330211746" lon="10.89702031948406"><ele>104.0</ele><time>2026-03-28T14:00:07Z</time></trkpt><trkpt lat="45.91341957905528" lon="10.896859328002726"><ele>103.0</ele><time>2026-03-28T14:00:08Z</time></trkpt><trkpt lat="45.91353888751304" lon="10.896699502699853"><ele>102.0</ele><time>2026-03-28T14:00:09Z</time></trkpt><trkpt lat="45.91365582288672" lon="10.896538068020622"><ele>101.0</ele><time>2026-03-28T14:00:10Z</time></trkpt><trkpt lat="45.913765960697056" lon="10.896377830047738"><ele>101.0</ele><time>2026-03-28T14:00:11Z</time></trkpt><trkpt lat="45.91387228024738" lon="10.896230048478714"><ele>101.0</ele><time>2026-03-28T14:00:12Z</time></trkpt><trkpt lat="45.91397153655757" lon="10.896086098079385"><ele>101.0</ele><time>2026-03-28T14:00:13Z</time></trkpt><trkpt lat="45.91407105122123" lon="10.89594669969712"><ele>101.0</ele><time>2026-03-28T14:00:14Z</time></trkpt><trkpt lat="45.914164487580635" lon="10.89581925503588"><ele>100.75</ele><time>2026-03-28T14:00:15Z</time></trkpt><trkpt lat="45.91425482925509" lon="10.895700456573758"><ele>100.5</ele><time>2026-03-28T14:00:16Z</time></trkpt><trkpt lat="45.91434570350664" lon="10.895580835793767"><ele>100.25</ele><time>2026-03-28T14:00:17Z</time></trkpt><trkpt lat="45.91444705013977" lon="10.895478099298165"><ele>100.0</ele><time>2026-03-28T14:00:18Z</time></trkpt><trkpt lat="45.914556386939914" lon="10.895416748584278"><ele>100.0</ele><time>2026-03-28T14:00:19Z</time></trkpt><trkpt lat="45.91467685692703" lon="10.895386720320616"><ele>100.0</ele><time>2026-03-28T14:00:20Z</time></trkpt><trkpt lat="45.91478203234371" lon="10.895354633684772"><ele>100.0</ele><time>2026-03-28T14:00:21Z</time></trkpt><trkpt lat="45.9148670088254" lon="10.895268947830367"><ele>100.0</ele><time>2026-03-28T14:00:22Z</time></trkpt><trkpt lat="45.91492306647894" lon="10.895154655578967"><ele>100.0</ele><time>2026-03-28T14:00:23Z</time></trkpt><trkpt lat="45.91494110449522" lon="10.895022679022759"><ele>99.6</ele><time>2026-03-28T14:00:24Z</time></trkpt><trkpt lat="45.91491466957571" lon="10.894893882551793"><ele>99.2</ele><time>2026-03-28T14:00:25Z</time></trkpt><trkpt lat="45.91486455465517" lon="10.894785169164148"><ele>98.80000000000001</ele><time>2026-03-28T14:00:26Z</time></trkpt><trkpt lat="45.91478920172923" lon="10.894701037826902"><ele>98.4</ele><time>2026-03-28T14:00:27Z</time></trkpt><trkpt lat="45.91469831718128" lon="10.894648190416008"><ele>98.0</ele><time>2026-03-28T14:00:28Z</time></trkpt><trkpt lat="45.91459863031105" lon="10.89461830793585"><ele>97.99999999999999</ele><time>2026-03-28T14:00:29Z</time></trkpt><trkpt lat="45.914502270424066" lon="10.894606419670424"><ele>98.0</ele><time>2026-03-28T14:00:30Z</time></trkpt><trkpt lat="45.91441591451444" lon="10.89460509429001"><ele>98.0</ele><time>2026-03-28T14:00:31Z</time></trkpt><trkpt lat="45.914345000159614" lon="10.894628602326346"><ele>98.0</ele><time>2026-03-28T14:00:32Z</time></trkpt><trkpt lat="45.91427616505949" lon="10.89467468044921"><ele>97.99999999999999</ele><time>2026-03-28T14:00:33Z</time></trkpt><trkpt lat="45.91420513087642" lon="10.894710898243895"><ele>98.0</ele><time>2026-03-28T14:00:34Z</time></trkpt><trkpt lat="45.914121120570535" lon="10.894731835806377"><ele>98.0</ele><time>2026-03-28T14:00:35Z</time></trkpt><trkpt lat="45.91403465829824" lon="10.894741198328129"><ele>98.0</ele><time>2026-03-28T14:00:36Z</time></trkpt><trkpt lat="45.91394627278525" lon="10.894738896714703"><ele>98.0</ele><time>2026-03-28T14:00:37Z</time></trkpt><trkpt lat="45.91384603420303" lon="10.894746602704167"><ele>98.0</ele><time>2026-03-28T14:00:38Z</time></trkpt><trkpt lat="45.91373882528856" lon="10.894622187196449"><ele>98.0</ele><time>2026-03-28T14:00:39Z</time></trkpt><trkpt lat="45.91364259431897" lon="10.894516099759217"><ele>98.0</ele><time>2026-03-28T14:00:40Z</time></trkpt><trkpt lat="45.913545667958516" lon="10.894371874071203"><ele>98.0</ele><time>2026-03-28T14:00:41Z</time></trkpt><trkpt lat="45.91344963541243" lon="10.894233316641902"><ele>98.0</ele><time>2026-03-28T14:00:42Z</time></trkpt><trkpt lat="45.91336585644025" lon="10.894071248809038"><ele>98.0</ele><time>2026-03-28T14:00:43Z</time></trkpt><trkpt lat="45.91329487920578" lon="10.89389135578283"><ele>97.33333333333333</ele><time>2026-03-28T14:00:44Z</time></trkpt><trkpt lat="45.91322235795619" lon="10.89369263220542"><ele>96.66666666666666</ele><time>2026-03-28T14:00:45Z</time></trkpt><trkpt lat="45.91316376635811" lon="10.893460356678796"><ele>96.0</ele><time>2026-03-28T14:00:46Z</time></trkpt><trkpt lat="45.91313854000019" lon="10.893199088726275"><ele>95.33333333333333</ele><time>2026-03-28T14:00:47Z</time></trkpt><trkpt lat="45.91311738159735" lon="10.892941065204756"><ele>94.66666666666666</ele><time>2026-03-28T14:00:48Z</time></trkpt><trkpt lat="45.913101832083875" lon="10.892670866311251"><ele>94.0</ele><time>2026-03-28T14:00:49Z</time></trkpt><trkpt lat="45.91312996141496" lon="10.892388207009366"><ele>93.66666666666666</ele><time>2026-03-28T14:00:50Z</time></trkpt><trkpt lat="45.91317298348147" lon="10.892101661206736"><ele>93.33333333333333</ele><time>2026-03-28T14:00:51Z</time></trkpt><trkpt lat="45.91322657861071" lon="10.891814854602913"><ele>93.0</ele><time>2026-03-28T14:00:52Z</time></trkpt><trkpt lat="45.913299797183605" lon="10.891528799920298"><ele>92.66666666666667</ele><time>2026-03-28T14:00:53Z</time></trkpt><trkpt lat="45.913358716749826" lon="10.891241123913268"><ele>92.33333333333334</ele><time>2026-03-28T14:00:54Z</time></trkpt><trkpt lat="45.91340329753594" lon="10.8909510024404"><ele>92.0</ele><time>2026-03-28T14:00:54.999Z</time></trkpt><trkpt lat="45.91346208869197" lon="10.890668702438543"><ele>90.0</ele><time>2026-03-28T14:00:55.999Z</time></trkpt><trkpt lat="45.913519697338096" lon="10.89038343734492"><ele>88.0</ele><time>2026-03-28T14:00:56.999Z</time></trkpt><trkpt lat="45.91357629500708" lon="10.890109025352524"><ele>86.0</ele><time>2026-03-28T14:00:57.999Z</time></trkpt><trkpt lat="45.913630675305825" lon="10.889837533752564"><ele>86.0</ele><time>2026-03-28T14:00:58.999Z</time></trkpt><trkpt lat="45.913676600560166" lon="10.889581290552268"><ele>86.0</ele><time>2026-03-28T14:00:59.999Z</time></trkpt><trkpt lat="45.913722714735535" lon="10.889346327799082"><ele>86.0</ele><time>2026-03-28T14:01:00.999Z</time></trkpt><trkpt lat="45.913738310406735" lon="10.889113486473013"><ele>86.0</ele><time>2026-03-28T14:01:01.999Z</time></trkpt><trkpt lat="45.913740943977196" lon="10.888887956161966"><ele>86.0</ele><time>2026-03-28T14:01:02.999Z</time></trkpt><trkpt lat="45.91372982338511" lon="10.888669782081031"><ele>86.0</ele><time>2026-03-28T14:01:03.999Z</time></trkpt><trkpt lat="45.913704594862125" lon="10.88845880961886"><ele>85.33333333333334</ele><time>2026-03-28T14:01:04.999Z</time></trkpt><trkpt lat="45.91366838824102" lon="10.88824615208012"><ele>84.66666666666667</ele><time>2026-03-28T14:01:05.999Z</time></trkpt><trkpt lat="45.91361884995967" lon="10.888030621443368"><ele>84.0</ele><time>2026-03-28T14:01:06.999Z</time></trkpt><trkpt lat="45.91353647987593" lon="10.887826125522345"><ele>84.0</ele><time>2026-03-28T14:01:07.999Z</time></trkpt><trkpt lat="45.913458694797086" lon="10.88761143022499"><ele>84.0</ele><time>2026-03-28T14:01:08.999Z</time></trkpt><trkpt lat="45.91337023796685" lon="10.887395630296412"><ele>84.0</ele><time>2026-03-28T14:01:09.999Z</time></trkpt><trkpt lat="45.91327290532042" lon="10.887184954927623"><ele>83.66666666666667</ele><time>2026-03-28T14:01:10.999Z</time></trkpt><trkpt lat="45.91317345269278" lon="10.886971302790982"><ele>83.33333333333334</ele><time>2026-03-28T14:01:11.999Z</time></trkpt><trkpt lat="45.91307342724403" lon="10.886754368273674"><ele>83.0</ele><time>2026-03-28T14:01:12.999Z</time></trkpt><trkpt lat="45.91296392836846" lon="10.886537170312817"><ele>82.66666666666667</ele><time>2026-03-28T14:01:13.999Z</time></trkpt><trkpt lat="45.91285585427114" lon="10.886315253575885"><ele>82.33333333333333</ele><time>2026-03-28T14:01:14.999Z</time></trkpt><trkpt lat="45.91274873715394" lon="10.886099195065162"><ele>82.0</ele><time>2026-03-28T14:01:16Z</time></trkpt><trkpt lat="45.912638132678794" lon="10.885895279986716"><ele>82.33333333333333</ele><time>2026-03-28T14:01:17Z</time></trkpt><trkpt lat="45.912514997109106" lon="10.885700724591768"><ele>82.66666666666667</ele><time>2026-03-28T14:01:18Z</time></trkpt><trkpt lat="45.91238105311758" lon="10.885508184011874"><ele>83.0</ele><time>2026-03-28T14:01:19Z</time></trkpt><trkpt lat="45.91223756102474" lon="10.885318831791052"><ele>83.0</ele><time>2026-03-28T14:01:20Z</time></trkpt><trkpt lat="45.91209170312279" lon="10.885144617362734"><ele>83.0</ele><time>2026-03-28T14:01:21Z</time></trkpt><trkpt lat="45.911940848561215" lon="10.88498335394696"><ele>83.0</ele><time>2026-03-28T14:01:22Z</time></trkpt><trkpt lat="45.91176925590929" lon="10.884830161634856"><ele>83.33333333333334</ele><time>2026-03-28T14:01:23Z</time></trkpt><trkpt lat="45.91160447447947" lon="10.88469452803938"><ele>83.66666666666667</ele><time>2026-03-28T14:01:24Z</time></trkpt><trkpt lat="45.911445103352534" lon="10.884574934764533"><ele>84.0</ele><time>2026-03-28T14:01:25Z</time></trkpt><trkpt lat="45.91128620265384" lon="10.88447037520697"><ele>84.0</ele><time>2026-03-28T14:01:26Z</time></trkpt><trkpt lat="45.91112941541996" lon="10.88437622275656"><ele>84.0</ele><time>2026-03-28T14:01:27Z</time></trkpt><trkpt lat="45.910971899659614" lon="10.88429066423042"><ele>84.0</ele><time>2026-03-28T14:01:28Z</time></trkpt><trkpt lat="45.91081117080613" lon="10.88419856746717"><ele>83.33333333333333</ele><time>2026-03-28T14:01:29Z</time></trkpt><trkpt lat="45.91064758865086" lon="10.884111037444933"><ele>82.66666666666666</ele><time>2026-03-28T14:01:30Z</time></trkpt><trkpt lat="45.910484950164125" lon="10.88402638280319"><ele>82.0</ele><time>2026-03-28T14:01:31Z</time></trkpt><trkpt lat="45.910324068872264" lon="10.883932539391642"><ele>82.0</ele><time>2026-03-28T14:01:32Z</time></trkpt><trkpt lat="45.91017168699346" lon="10.883838850241899"><ele>82.0</ele><time>2026-03-28T14:01:33Z</time></trkpt><trkpt lat="45.91003037989475" lon="10.88372898355729"><ele>82.0</ele><time>2026-03-28T14:01:34Z</time></trkpt><trkpt lat="45.90989916025778" lon="10.883601828605551"><ele>81.66666666666666</ele><time>2026-03-28T14:01:35Z</time></trkpt><trkpt lat="45.90977173395629" lon="10.883458319319539"><ele>81.33333333333333</ele><time>2026-03-28T14:01:36Z</time></trkpt><trkpt lat="45.9096513365378" lon="10.883293449377566"><ele>81.0</ele><time>2026-03-28T14:01:37Z</time></trkpt><trkpt lat="45.90954338496886" lon="10.88311205171816"><ele>81.0</ele><time>2026-03-28T14:01:38Z</time></trkpt><trkpt lat="45.90944509225779" lon="10.882918040257028"><ele>81.0</ele><time>2026-03-28T14:01:39Z</time></trkpt><trkpt lat="45.909359337774376" lon="10.88271632658537"><ele>81.0</ele><time>2026-03-28T14:01:40Z</time></trkpt><trkpt lat="45.90928279143153" lon="10.882514044973163"><ele>80.66666666666667</ele><time>2026-03-28T14:01:41Z</time></trkpt><trkpt lat="45.90923102393338" lon="10.882298412436166"><ele>80.33333333333334</ele><time>2026-03-28T14:01:42Z</time></trkpt><trkpt lat="45.90916849768937" lon="10.882086914743464"><ele>80.0</ele><time>2026-03-28T14:01:43Z</time></trkpt><trkpt lat="45.909110310045655" lon="10.881890298667537"><ele>80.0</ele><time>2026-03-28T14:01:44Z</time></trkpt><trkpt lat="45.90903921865114" lon="10.881708053952988"><ele>80.0</ele><time>2026-03-28T14:01:45Z</time></trkpt><trkpt lat="45.908989881126" lon="10.881530813773592"><ele>80.0</ele><time>2026-03-28T14:01:46Z</time></trkpt><trkpt lat="45.90894492748894" lon="10.88136926862538"><ele>80.0</ele><time>2026-03-28T14:01:47Z</time></trkpt><trkpt lat="45.90890548433408" lon="10.881219784466316"><ele>80.0</ele><time>2026-03-28T14:01:48Z</time></trkpt><trkpt lat="45.908873535095715" lon="10.881065237870642"><ele>80.0</ele><time>2026-03-28T14:01:49Z</time></trkpt><trkpt lat="45.90885515445468" lon="10.880904015913657"><ele>80.0</ele><time>2026-03-28T14:01:50Z</time></trkpt><trkpt lat="45.90884491432917" lon="10.880741149407248"><ele>80.0</ele><time>2026-03-28T14:01:51Z</time></trkpt><trkpt lat="45.90885503564958" lon="10.880584356589546"><ele>80.0</ele><time>2026-03-28T14:01:52Z</time></trkpt><trkpt lat="45.90888887602925" lon="10.880441691507032"><ele>80.0</ele><time>2026-03-28T14:01:53Z</time></trkpt><trkpt lat="45.908942828506405" lon="10.880320010238188"><ele>80.0</ele><time>2026-03-28T14:01:54Z</time></trkpt><trkpt lat="45.908998908922065" lon="10.880200719706062"><ele>80.0</ele><time>2026-03-28T14:01:55Z</time></trkpt><trkpt lat="45.90906086675673" lon="10.880096435681283"><ele>80.0</ele><time>2026-03-28T14:01:56Z</time></trkpt><trkpt lat="45.909120201698066" lon="10.879985485689154"><ele>80.0</ele><time>2026-03-28T14:01:57Z</time></trkpt><trkpt lat="45.90915468143949" lon="10.879847669538268"><ele>80.0</ele><time>2026-03-28T14:01:58Z</time></trkpt><trkpt lat="45.90917913239769" lon="10.87969548494895"><ele>80.0</ele><time>2026-03-28T14:01:59Z</time></trkpt><trkpt lat="45.909194451687554" lon="10.87953921810767"><ele>80.0</ele><time>2026-03-28T14:02:00Z</time></trkpt><trkpt lat="45.90918445522201" lon="10.879389173767068"><ele>80.0</ele><time>2026-03-28T14:02:01Z</time></trkpt><trkpt lat="45.90915323154116" lon="10.879253182046655"><ele>80.0</ele><time>2026-03-28T14:02:02Z</time></trkpt><trkpt lat="45.90910912998361" lon="10.879115344084044"><ele>80.0</ele><time>2026-03-28T14:02:03Z</time></trkpt><trkpt lat="45.90903566814448" lon="10.879010226452024"><ele>80.0</ele><time>2026-03-28T14:02:04Z</time></trkpt><trkpt lat="45.90903892779266" lon="10.878805203337398"><ele>80.0</ele><time>2026-03-28T14:02:05Z</time></trkpt><trkpt lat="45.90906581369017" lon="10.878630374822624"><ele>80.0</ele><time>2026-03-28T14:02:06Z</time></trkpt><trkpt lat="45.90909464951157" lon="10.87843003446007"><ele>80.33333333333334</ele><time>2026-03-28T14:02:07Z</time></trkpt><trkpt lat="45.909114316895014" lon="10.87820569149985"><ele>80.66666666666667</ele><time>2026-03-28T14:02:08Z</time></trkpt><trkpt lat="45.90915209761829" lon="10.877969351101175"><ele>81.0</ele><time>2026-03-28T14:02:09Z</time></trkpt><trkpt lat="45.90918653884096" lon="10.87770603612576"><ele>81.0</ele><time>2026-03-28T14:02:10Z</time></trkpt><trkpt lat="45.909221777549426" lon="10.877452508650062"><ele>81.0</ele><time>2026-03-28T14:02:11Z</time></trkpt><trkpt lat="45.90925905114516" lon="10.877194930927525"><ele>81.0</ele><time>2026-03-28T14:02:12Z</time></trkpt><trkpt lat="45.909294490881436" lon="10.876924119737454"><ele>80.66666666666667</ele><time>2026-03-28T14:02:13Z</time></trkpt><trkpt lat="45.909333197074275" lon="10.87664313229439"><ele>80.33333333333334</ele><time>2026-03-28T14:02:14Z</time></trkpt><trkpt lat="45.90937446795432" lon="10.876344082120937"><ele>80.0</ele><time>2026-03-28T14:02:15Z</time></trkpt><trkpt lat="45.90941928762348" lon="10.876036147699748"><ele>80.33333333333334</ele><time>2026-03-28T14:02:16Z</time></trkpt><trkpt lat="45.90946458767732" lon="10.875721589140468"><ele>80.66666666666667</ele><time>2026-03-28T14:02:17Z</time></trkpt><trkpt lat="45.90950984992586" lon="10.875405604694617"><ele>81.0</ele><time>2026-03-28T14:02:18Z</time></trkpt><trkpt lat="45.90955403643088" lon="10.87510132954538"><ele>81.0</ele><time>2026-03-28T14:02:19Z</time></trkpt><trkpt lat="45.909598302560354" lon="10.874798216502818"><ele>81.0</ele><time>2026-03-28T14:02:20Z</time></trkpt><trkpt lat="45.9096558220479" lon="10.874507950625185"><ele>81.0</ele><time>2026-03-28T14:02:21Z</time></trkpt><trkpt lat="45.90969558194124" lon="10.87423186555379"><ele>81.0</ele><time>2026-03-28T14:02:22Z</time></trkpt><trkpt lat="45.90973193266468" lon="10.873979453056755"><ele>81.0</ele><time>2026-03-28T14:02:23Z</time></trkpt><trkpt lat="45.9097663598561" lon="10.873740051360326"><ele>81.0</ele><time>2026-03-28T14:02:24Z</time></trkpt><trkpt lat="45.90979738452839" lon="10.873524243694318"><ele>81.0</ele><time>2026-03-28T14:02:25Z</time></trkpt><trkpt lat="45.909824399175974" lon="10.873336329360923"><ele>81.0</ele><time>2026-03-28T14:02:26Z</time></trkpt><trkpt lat="45.90984936532241" lon="10.873162664867326"><ele>81.0</ele><time>2026-03-28T14:02:27Z</time></trkpt><trkpt lat="45.90987393118441" lon="10.872991784587084"><ele>81.0</ele><time>2026-03-28T14:02:28Z</time></trkpt><trkpt lat="45.909888157866526" lon="10.872822139970184"><ele>81.0</ele><time>2026-03-28T14:02:29Z</time></trkpt><trkpt lat="45.909916051135475" lon="10.872670172074317"><ele>81.0</ele><time>2026-03-28T14:02:30Z</time></trkpt><trkpt lat="45.90993547852794" lon="10.872535735140561"><ele>81.0</ele><time>2026-03-28T14:02:31Z</time></trkpt><trkpt lat="45.909963631378986" lon="10.87243311791935"><ele>81.0</ele><time>2026-03-28T14:02:32Z</time></trkpt><trkpt lat="45.91000569453072" lon="10.872347885010138"><ele>81.0</ele><time>2026-03-28T14:02:33Z</time></trkpt><trkpt lat="45.91005776322087" lon="10.872293908377676"><ele>81.0</ele><time>2026-03-28T14:02:34Z</time></trkpt><trkpt lat="45.91011504449014" lon="10.872243848135422"><ele>80.83333333333333</ele><time>2026-03-28T14:02:35Z</time></trkpt><trkpt lat="45.91018788862468" lon="10.872209952309985"><ele>80.66666666666667</ele><time>2026-03-28T14:02:36Z</time></trkpt><trkpt lat="45.910261672612435" lon="10.872166400280406"><ele>80.5</ele><time>2026-03-28T14:02:37Z</time></trkpt><trkpt lat="45.910322342019874" lon="10.872078275163432"><ele>80.33333333333334</ele><time>2026-03-28T14:02:38Z</time></trkpt><trkpt lat="45.91035715196846" lon="10.871965575604884"><ele>80.16666666666667</ele><time>2026-03-28T14:02:39Z</time></trkpt><trkpt lat="45.91036149719512" lon="10.871852753845278"><ele>80.0</ele><time>2026-03-28T14:02:40Z</time></trkpt><trkpt lat="45.91033939886505" lon="10.871740248344802"><ele>79.8</ele><time>2026-03-28T14:02:41Z</time></trkpt><trkpt lat="45.91028992032475" lon="10.871625453440256"><ele>79.6</ele><time>2026-03-28T14:02:42Z</time></trkpt><trkpt lat="45.91021210012693" lon="10.871512466653808"><ele>79.4</ele><time>2026-03-28T14:02:43Z</time></trkpt><trkpt lat="45.910117307913154" lon="10.87139592037182"><ele>79.2</ele><time>2026-03-28T14:02:44Z</time></trkpt><trkpt lat="45.91003529024087" lon="10.871279439550829"><ele>79.0</ele><time>2026-03-28T14:02:45Z</time></trkpt><trkpt lat="45.90995574103102" lon="10.871150534492312"><ele>79.4</ele><time>2026-03-28T14:02:46Z</time></trkpt><trkpt lat="45.909884525381045" lon="10.871031659112548"><ele>79.80000000000001</ele><time>2026-03-28T14:02:47Z</time></trkpt><trkpt lat="45.90981341452622" lon="10.870918310057336"><ele>80.19999999999999</ele><time>2026-03-28T14:02:48Z</time></trkpt><trkpt lat="45.90975220351169" lon="10.870806508702822"><ele>80.6</ele><time>2026-03-28T14:02:49Z</time></trkpt><trkpt lat="45.90970723447188" lon="10.87071478983127"><ele>81.0</ele><time>2026-03-28T14:02:50Z</time></trkpt><trkpt lat="45.90966056206997" lon="10.8706353384077"><ele>81.25</ele><time>2026-03-28T14:02:51Z</time></trkpt><trkpt lat="45.909583478616305" lon="10.870505086182574"><ele>81.5</ele><time>2026-03-28T14:02:53Z</time></trkpt><trkpt lat="45.909496932486675" lon="10.870388196914014"><ele>81.75</ele><time>2026-03-28T14:02:55Z</time></trkpt><trkpt lat="45.90942231621885" lon="10.870270143734832"><ele>82.0</ele><time>2026-03-28T14:02:57Z</time></trkpt><trkpt lat="45.909349823649386" lon="10.870153172098885"><ele>81.8</ele><time>2026-03-28T14:02:59Z</time></trkpt><trkpt lat="45.90927965108531" lon="10.870049584638963"><ele>81.6</ele><time>2026-03-28T14:03:01Z</time></trkpt><trkpt lat="45.90920730225792" lon="10.869938456345833"><ele>81.39999999999999</ele><time>2026-03-28T14:03:03Z</time></trkpt><trkpt lat="45.90912484900327" lon="10.8698107947465"><ele>81.19999999999999</ele><time>2026-03-28T14:03:05Z</time></trkpt><trkpt lat="45.90908370027819" lon="10.869741537777003"><ele>81.0</ele><time>2026-03-28T14:03:05.999Z</time></trkpt><trkpt lat="45.90903773274796" lon="10.869674669326466"><ele>80.71428571428572</ele><time>2026-03-28T14:03:06.999Z</time></trkpt><trkpt lat="45.90899037017996" lon="10.869610619072391"><ele>80.42857142857143</ele><time>2026-03-28T14:03:07.999Z</time></trkpt><trkpt lat="45.908944647748406" lon="10.869544506513387"><ele>80.14285714285714</ele><time>2026-03-28T14:03:08.999Z</time></trkpt><trkpt lat="45.90890232067642" lon="10.869470224623237"><ele>79.85714285714286</ele><time>2026-03-28T14:03:09.999Z</time></trkpt><trkpt lat="45.90885563136191" lon="10.86940453958583"><ele>79.57142857142857</ele><time>2026-03-28T14:03:10.999Z</time></trkpt><trkpt lat="45.90881396345562" lon="10.869333069358847"><ele>79.28571428571429</ele><time>2026-03-28T14:03:11.999Z</time></trkpt><trkpt lat="45.90875628932229" lon="10.869223373565584"><ele>79.0</ele><time>2026-03-28T14:03:13.999Z</time></trkpt><trkpt lat="45.908757348647605" lon="10.869111158800154"><ele>78.8</ele><time>2026-03-28T14:03:16.999Z</time></trkpt><trkpt lat="45.9087075671886" lon="10.869038807489913"><ele>78.60000000000001</ele><time>2026-03-28T14:03:19.999Z</time></trkpt><trkpt lat="45.90855132156855" lon="10.86896376416175"><ele>78.4</ele><time>2026-03-28T14:09:23.999Z</time></trkpt><trkpt lat="45.90847314007143" lon="10.86885472405889"><ele>78.2</ele><time>2026-03-28T14:09:25.999Z</time></trkpt><trkpt lat="45.9084093872522" lon="10.868750051948963"><ele>78.0</ele><time>2026-03-28T14:09:27.999Z</time></trkpt><trkpt lat="45.908312163766105" lon="10.868641833092484"><ele>78.0</ele><time>2026-03-28T14:09:29.999Z</time></trkpt><trkpt lat="45.908269752284006" lon="10.868574630258362"><ele>78.0</ele><time>2026-03-28T14:09:30.999Z</time></trkpt><trkpt lat="45.908222488413415" lon="10.868499416836093"><ele>78.0</ele><time>2026-03-28T14:09:31.999Z</time></trkpt><trkpt lat="45.90817293940869" lon="10.868424737524297"><ele>78.0</ele><time>2026-03-28T14:09:32.999Z</time></trkpt><trkpt lat="45.90812244305476" lon="10.86835082233826"><ele>78.0</ele><time>2026-03-28T14:09:33.999Z</time></trkpt><trkpt lat="45.90807412188387" lon="10.86827736783575"><ele>78.0</ele><time>2026-03-28T14:09:34.999Z</time></trkpt><trkpt lat="45.90802875221936" lon="10.86820786443429"><ele>78.0</ele><time>2026-03-28T14:09:35.999Z</time></trkpt><trkpt lat="45.90798451052149" lon="10.868135792671406"><ele>78.0</ele><time>2026-03-28T14:09:36.999Z</time></trkpt><trkpt lat="45.9079369596" lon="10.868069503968803"><ele>78.0</ele><time>2026-03-28T14:09:37.999Z</time></trkpt><trkpt lat="45.90789249818202" lon="10.868003164200355"><ele>78.0</ele><time>2026-03-28T14:09:38.999Z</time></trkpt><trkpt lat="45.907810451257326" lon="10.867873157997591"><ele>78.0</ele><time>2026-03-28T14:09:41Z</time></trkpt><trkpt lat="45.907728680699236" lon="10.867763048544504"><ele>78.0</ele><time>2026-03-28T14:09:43Z</time></trkpt><trkpt lat="45.90766447320416" lon="10.867655616056883"><ele>77.83333333333333</ele><time>2026-03-28T14:09:45Z</time></trkpt><trkpt lat="45.90762860925124" lon="10.867553141792857"><ele>77.66666666666667</ele><time>2026-03-28T14:09:47Z</time></trkpt><trkpt lat="45.90760211599078" lon="10.8674531979941"><ele>77.5</ele><time>2026-03-28T14:09:49Z</time></trkpt><trkpt lat="45.90758767783913" lon="10.867264794222702"><ele>77.33333333333334</ele><time>2026-03-28T14:09:51Z</time></trkpt><trkpt lat="45.907583815908986" lon="10.867149537304572"><ele>77.16666666666667</ele><time>2026-03-28T14:09:52Z</time></trkpt><trkpt lat="45.9075456408824" lon="10.867052464733305"><ele>77.0</ele><time>2026-03-28T14:09:53Z</time></trkpt><trkpt lat="45.9076618238996" lon="10.866807951673556"><ele>76.75</ele><time>2026-03-28T14:09:55Z</time></trkpt><trkpt lat="45.907732849588" lon="10.866686468805291"><ele>76.5</ele><time>2026-03-28T14:09:56Z</time></trkpt><trkpt lat="45.90780431626476" lon="10.866540387869636"><ele>76.25</ele><time>2026-03-28T14:09:57Z</time></trkpt><trkpt lat="45.907883795834614" lon="10.866400564003522"><ele>76.0</ele><time>2026-03-28T14:09:58Z</time></trkpt><trkpt lat="45.907952938461605" lon="10.866259456236396"><ele>76.0</ele><time>2026-03-28T14:09:59Z</time></trkpt><trkpt lat="45.90802769088281" lon="10.86611800185463"><ele>76.0</ele><time>2026-03-28T14:10:00Z</time></trkpt><trkpt lat="45.90812454679544" lon="10.865983822100747"><ele>76.0</ele><time>2026-03-28T14:10:01Z</time></trkpt><trkpt lat="45.90821612138349" lon="10.865822052250923"><ele>76.0</ele><time>2026-03-28T14:10:02Z</time></trkpt><trkpt lat="45.90829939152216" lon="10.865628206845745"><ele>75.66666666666666</ele><time>2026-03-28T14:10:03Z</time></trkpt><trkpt lat="45.90840486455611" lon="10.865443744326535"><ele>75.33333333333333</ele><time>2026-03-28T14:10:04Z</time></trkpt><trkpt lat="45.9085106681808" lon="10.86523556938587"><ele>75.0</ele><time>2026-03-28T14:10:05Z</time></trkpt><trkpt lat="45.908622589958135" lon="10.865028080690465"><ele>76.33333333333333</ele><time>2026-03-28T14:10:06Z</time></trkpt><trkpt lat="45.90873570170694" lon="10.864826514532862"><ele>77.66666666666666</ele><time>2026-03-28T14:10:07Z</time></trkpt><trkpt lat="45.90885682679018" lon="10.864620065687312"><ele>79.0</ele><time>2026-03-28T14:10:08Z</time></trkpt><trkpt lat="45.90898962954273" lon="10.86440939045175"><ele>79.0</ele><time>2026-03-28T14:10:09Z</time></trkpt><trkpt lat="45.90911751390753" lon="10.864201706291405"><ele>79.0</ele><time>2026-03-28T14:10:10Z</time></trkpt><trkpt lat="45.90924070027369" lon="10.86398721300841"><ele>79.0</ele><time>2026-03-28T14:10:11Z</time></trkpt><trkpt lat="45.909360121679384" lon="10.863774956576009"><ele>79.0</ele><time>2026-03-28T14:10:12Z</time></trkpt><trkpt lat="45.909482388885955" lon="10.863562178374204"><ele>79.0</ele><time>2026-03-28T14:10:13Z</time></trkpt><trkpt lat="45.90959995090895" lon="10.863354974231953"><ele>79.0</ele><time>2026-03-28T14:10:14Z</time></trkpt><trkpt lat="45.90972026019724" lon="10.863156182313103"><ele>79.0</ele><time>2026-03-28T14:10:15Z</time></trkpt><trkpt lat="45.909852587917165" lon="10.862978012791421"><ele>79.0</ele><time>2026-03-28T14:10:16Z</time></trkpt><trkpt lat="45.90995777029655" lon="10.862775689373265"><ele>79.0</ele><time>2026-03-28T14:10:17Z</time></trkpt><trkpt lat="45.91006991683782" lon="10.8625887014399"><ele>78.66666666666666</ele><time>2026-03-28T14:10:18Z</time></trkpt><trkpt lat="45.91017701331998" lon="10.862403274540938"><ele>78.33333333333333</ele><time>2026-03-28T14:10:19Z</time></trkpt><trkpt lat="45.91028021548529" lon="10.862216281209912"><ele>78.0</ele><time>2026-03-28T14:10:20Z</time></trkpt><trkpt lat="45.91037720383899" lon="10.862026451602514"><ele>78.0</ele><time>2026-03-28T14:10:21Z</time></trkpt><trkpt lat="45.910471242365865" lon="10.861836775042162"><ele>78.0</ele><time>2026-03-28T14:10:22Z</time></trkpt><trkpt lat="45.91056485486114" lon="10.861649769879095"><ele>78.0</ele><time>2026-03-28T14:10:23Z</time></trkpt><trkpt lat="45.91065152996586" lon="10.861457183854265"><ele>78.66666666666667</ele><time>2026-03-28T14:10:24Z</time></trkpt><trkpt lat="45.910740689379146" lon="10.861271658047754"><ele>79.33333333333334</ele><time>2026-03-28T14:10:25Z</time></trkpt><trkpt lat="45.91082858050947" lon="10.861082366712688"><ele>80.0</ele><time>2026-03-28T14:10:26Z</time></trkpt><trkpt lat="45.91091329057964" lon="10.860889926467362"><ele>80.0</ele><time>2026-03-28T14:10:27Z</time></trkpt><trkpt lat="45.91100044569301" lon="10.860703248493303"><ele>80.0</ele><time>2026-03-28T14:10:28Z</time></trkpt><trkpt lat="45.91108987479529" lon="10.860517323051706"><ele>80.0</ele><time>2026-03-28T14:10:29Z</time></trkpt><trkpt lat="45.911182998854436" lon="10.860334403842042"><ele>80.0</ele><time>2026-03-28T14:10:30Z</time></trkpt><trkpt lat="45.91127746027302" lon="10.860152795812903"><ele>80.0</ele><time>2026-03-28T14:10:31Z</time></trkpt><trkpt lat="45.911371056513296" lon="10.859973646156673"><ele>80.0</ele><time>2026-03-28T14:10:32Z</time></trkpt><trkpt lat="45.91146471547232" lon="10.859792192092092"><ele>79.66666666666667</ele><time>2026-03-28T14:10:33Z</time></trkpt><trkpt lat="45.91155858433075" lon="10.859615950827768"><ele>79.33333333333333</ele><time>2026-03-28T14:10:34Z</time></trkpt><trkpt lat="45.91164855417775" lon="10.859438530065725"><ele>79.0</ele><time>2026-03-28T14:10:35Z</time></trkpt><trkpt lat="45.91173467891547" lon="10.8592677924308"><ele>79.0</ele><time>2026-03-28T14:10:36Z</time></trkpt><trkpt lat="45.91181609117475" lon="10.859100677429486"><ele>79.0</ele><time>2026-03-28T14:10:37Z</time></trkpt><trkpt lat="45.91188767282569" lon="10.858932691328405"><ele>79.0</ele><time>2026-03-28T14:10:38Z</time></trkpt><trkpt lat="45.911942153688855" lon="10.85876994532743"><ele>79.0</ele><time>2026-03-28T14:10:39Z</time></trkpt><trkpt lat="45.91199760548816" lon="10.85860842268875"><ele>79.16666666666666</ele><time>2026-03-28T14:10:40Z</time></trkpt><trkpt lat="45.91200931569001" lon="10.858441534339235"><ele>79.33333333333333</ele><time>2026-03-28T14:10:41Z</time></trkpt><trkpt lat="45.91202093196092" lon="10.85830439562798"><ele>79.5</ele><time>2026-03-28T14:10:42Z</time></trkpt><trkpt lat="45.91201990426765" lon="10.858189724105099"><ele>79.66666666666667</ele><time>2026-03-28T14:10:43Z</time></trkpt><trkpt lat="45.91201618355244" lon="10.85808562946744"><ele>79.83333333333334</ele><time>2026-03-28T14:10:44Z</time></trkpt><trkpt lat="45.91202663344944" lon="10.857982636773686"><ele>80.0</ele><time>2026-03-28T14:10:45Z</time></trkpt><trkpt lat="45.912048520038375" lon="10.857883137955461"><ele>80.0</ele><time>2026-03-28T14:10:46Z</time></trkpt><trkpt lat="45.912076777651414" lon="10.857789889542657"><ele>80.0</ele><time>2026-03-28T14:10:47Z</time></trkpt><trkpt lat="45.91209472959258" lon="10.857686847271182"><ele>80.0</ele><time>2026-03-28T14:10:48Z</time></trkpt><trkpt lat="45.91209064674635" lon="10.857579333044033"><ele>80.0</ele><time>2026-03-28T14:10:49Z</time></trkpt><trkpt lat="45.91204924726531" lon="10.857491513573578"><ele>80.0</ele><time>2026-03-28T14:10:50Z</time></trkpt><trkpt lat="45.911985529044614" lon="10.857438802638868"><ele>80.0</ele><time>2026-03-28T14:10:51Z</time></trkpt><trkpt lat="45.91190252040098" lon="10.857406740211973"><ele>80.0</ele><time>2026-03-28T14:10:52Z</time></trkpt><trkpt lat="45.91180958801554" lon="10.85741097834045"><ele>80.0</ele><time>2026-03-28T14:10:53Z</time></trkpt><trkpt lat="45.911709020887464" lon="10.857338363256623"><ele>80.0</ele><time>2026-03-28T14:10:54Z</time></trkpt><trkpt lat="45.911599462177264" lon="10.85726476596317"><ele>80.0</ele><time>2026-03-28T14:10:55Z</time></trkpt><trkpt lat="45.911493409063105" lon="10.85716295484193"><ele>80.0</ele><time>2026-03-28T14:10:56Z</time></trkpt><trkpt lat="45.91139194473459" lon="10.857058091075592"><ele>80.0</ele><time>2026-03-28T14:10:57Z</time></trkpt><trkpt lat="45.911284211433866" lon="10.856944734935556"><ele>80.0</ele><time>2026-03-28T14:10:58Z</time></trkpt><trkpt lat="45.91116191935627" lon="10.856822789308442"><ele>80.0</ele><time>2026-03-28T14:10:59Z</time></trkpt><trkpt lat="45.91103293710231" lon="10.856693615843222"><ele>80.0</ele><time>2026-03-28T14:11:00Z</time></trkpt><trkpt lat="45.910901332676126" lon="10.85655971391445"><ele>80.0</ele><time>2026-03-28T14:11:01Z</time></trkpt><trkpt lat="45.910774181818894" lon="10.856431462279415"><ele>80.0</ele><time>2026-03-28T14:11:02Z</time></trkpt><trkpt lat="45.91063992809804" lon="10.85629620050786"><ele>80.0</ele><time>2026-03-28T14:11:03Z</time></trkpt><trkpt lat="45.910498903407024" lon="10.856159180367383"><ele>80.0</ele><time>2026-03-28T14:11:04Z</time></trkpt><trkpt lat="45.91035433430532" lon="10.856023547649421"><ele>80.0</ele><time>2026-03-28T14:11:05Z</time></trkpt><trkpt lat="45.91020961706612" lon="10.855892733877743"><ele>79.33333333333334</ele><time>2026-03-28T14:11:06Z</time></trkpt><trkpt lat="45.91006986607929" lon="10.855770274152214"><ele>78.66666666666667</ele><time>2026-03-28T14:11:07Z</time></trkpt><trkpt lat="45.9099167764438" lon="10.85565402483496"><ele>78.0</ele><time>2026-03-28T14:11:08Z</time></trkpt><trkpt lat="45.909765987482686" lon="10.85550966309542"><ele>78.0</ele><time>2026-03-28T14:11:09Z</time></trkpt><trkpt lat="45.90958979759254" lon="10.855412486320658"><ele>78.0</ele><time>2026-03-28T14:11:10Z</time></trkpt><trkpt lat="45.90943243670385" lon="10.855282872246164"><ele>78.0</ele><time>2026-03-28T14:11:11Z</time></trkpt><trkpt lat="45.90928281478313" lon="10.855154503511082"><ele>79.66666666666667</ele><time>2026-03-28T14:11:12Z</time></trkpt><trkpt lat="45.9091389130005" lon="10.855032260801865"><ele>81.33333333333334</ele><time>2026-03-28T14:11:13Z</time></trkpt><trkpt lat="45.90899888047657" lon="10.854916511654784"><ele>83.0</ele><time>2026-03-28T14:11:14Z</time></trkpt><trkpt lat="45.908862720804315" lon="10.854807264658676"><ele>83.0</ele><time>2026-03-28T14:11:15Z</time></trkpt><trkpt lat="45.90873331545339" lon="10.854709363146476"><ele>83.0</ele><time>2026-03-28T14:11:16Z</time></trkpt><trkpt lat="45.908607880064785" lon="10.854610977558927"><ele>83.0</ele><time>2026-03-28T14:11:17Z</time></trkpt><trkpt lat="45.90848089315" lon="10.854506385462917"><ele>83.0</ele><time>2026-03-28T14:11:17.999Z</time></trkpt><trkpt lat="45.9083538528899" lon="10.854395068454805"><ele>85.66666666666667</ele><time>2026-03-28T14:11:18.999Z</time></trkpt><trkpt lat="45.908224916984665" lon="10.854277073532469"><ele>88.33333333333333</ele><time>2026-03-28T14:11:19.999Z</time></trkpt><trkpt lat="45.90809858346233" lon="10.854138724800652"><ele>91.0</ele><time>2026-03-28T14:11:20.999Z</time></trkpt><trkpt lat="45.90797647291032" lon="10.853998622605403"><ele>91.0</ele><time>2026-03-28T14:11:21.999Z</time></trkpt><trkpt lat="45.9078621150629" lon="10.853851044671497"><ele>91.0</ele><time>2026-03-28T14:11:22.999Z</time></trkpt><trkpt lat="45.90775624429672" lon="10.853707537980767"><ele>91.0</ele><time>2026-03-28T14:11:23.999Z</time></trkpt><trkpt lat="45.9076604388735" lon="10.853581748619176"><ele>91.0</ele><time>2026-03-28T14:11:24.999Z</time></trkpt><trkpt lat="45.90757845566037" lon="10.853472235870642"><ele>90.19999999999999</ele><time>2026-03-28T14:11:25.999Z</time></trkpt><trkpt lat="45.90751537517574" lon="10.853353183386243"><ele>89.39999999999999</ele><time>2026-03-28T14:11:26.999Z</time></trkpt><trkpt lat="45.90745168585576" lon="10.853271987281039"><ele>88.6</ele><time>2026-03-28T14:11:27.999Z</time></trkpt><trkpt lat="45.907402293909776" lon="10.853192025895524"><ele>87.8</ele><time>2026-03-28T14:11:28.999Z</time></trkpt><trkpt lat="45.90735440755585" lon="10.85302839392667"><ele>87.0</ele><time>2026-03-28T14:11:30.999Z</time></trkpt><trkpt lat="45.907354516079465" lon="10.852931254769473"><ele>87.0</ele><time>2026-03-28T14:11:31.999Z</time></trkpt><trkpt lat="45.907354279425064" lon="10.85282515031254"><ele>87.0</ele><time>2026-03-28T14:11:32.999Z</time></trkpt><trkpt lat="45.90733143526835" lon="10.852718580002417"><ele>87.0</ele><time>2026-03-28T14:11:33.999Z</time></trkpt><trkpt lat="45.907285202960146" lon="10.852621401389719"><ele>87.0</ele><time>2026-03-28T14:11:34.999Z</time></trkpt><trkpt lat="45.90723068764373" lon="10.852524213812284"><ele>87.0</ele><time>2026-03-28T14:11:35.999Z</time></trkpt><trkpt lat="45.90718893868329" lon="10.852414697940407"><ele>87.0</ele><time>2026-03-28T14:11:36.999Z</time></trkpt><trkpt lat="45.907152484363905" lon="10.852274456227185"><ele>87.0</ele><time>2026-03-28T14:11:37.999Z</time></trkpt><trkpt lat="45.90712917786426" lon="10.852094063334544"><ele>87.0</ele><time>2026-03-28T14:11:38.999Z</time></trkpt><trkpt lat="45.90706885222075" lon="10.851905395699621"><ele>87.0</ele><time>2026-03-28T14:11:39.999Z</time></trkpt><trkpt lat="45.9069884999514" lon="10.851735454053093"><ele>87.0</ele><time>2026-03-28T14:11:40.999Z</time></trkpt><trkpt lat="45.90692343308033" lon="10.851526626786104"><ele>87.0</ele><time>2026-03-28T14:11:41.999Z</time></trkpt><trkpt lat="45.9068539874201" lon="10.851322970526363"><ele>87.0</ele><time>2026-03-28T14:11:42.999Z</time></trkpt><trkpt lat="45.90677523504639" lon="10.851106740317256"><ele>87.0</ele><time>2026-03-28T14:11:43.999Z</time></trkpt><trkpt lat="45.90669149019662" lon="10.850882642520018"><ele>88.66666666666667</ele><time>2026-03-28T14:11:44.999Z</time></trkpt><trkpt lat="45.90660491236637" lon="10.85065949165883"><ele>90.33333333333334</ele><time>2026-03-28T14:11:46Z</time></trkpt><trkpt lat="45.90651772270954" lon="10.850435462958115"><ele>92.0</ele><time>2026-03-28T14:11:47Z</time></trkpt><trkpt lat="45.90643302114987" lon="10.850214817698047"><ele>92.66666666666667</ele><time>2026-03-28T14:11:48Z</time></trkpt><trkpt lat="45.90634030397734" lon="10.849990199934902"><ele>93.33333333333333</ele><time>2026-03-28T14:11:49Z</time></trkpt><trkpt lat="45.906240801238006" lon="10.84977041983026"><ele>94.0</ele><time>2026-03-28T14:11:50Z</time></trkpt><trkpt lat="45.90613664925103" lon="10.849554164322512"><ele>94.0</ele><time>2026-03-28T14:11:51Z</time></trkpt><trkpt lat="45.90602465150569" lon="10.849333510759239"><ele>94.0</ele><time>2026-03-28T14:11:52Z</time></trkpt><trkpt lat="45.90590309511182" lon="10.849104196333544"><ele>94.0</ele><time>2026-03-28T14:11:53.017Z</time></trkpt><trkpt lat="45.90577646474223" lon="10.848875190908952"><ele>95.0</ele><time>2026-03-28T14:11:54.023Z</time></trkpt><trkpt lat="45.9056454038868" lon="10.848650751935326"><ele>96.0</ele><time>2026-03-28T14:11:55.021Z</time></trkpt><trkpt lat="45.90551253332344" lon="10.848430993661937"><ele>97.0</ele><time>2026-03-28T14:11:56.017Z</time></trkpt><trkpt lat="45.90539914094462" lon="10.848228223631947"><ele>98.0</ele><time>2026-03-28T14:11:57Z</time></trkpt><trkpt lat="45.90526245383092" lon="10.8480012445282"><ele>99.0</ele><time>2026-03-28T14:11:58Z</time></trkpt><trkpt lat="45.905136612264265" lon="10.847763550556744"><ele>100.0</ele><time>2026-03-28T14:11:59Z</time></trkpt><trkpt lat="45.9049969699835" lon="10.847529025889337"><ele>101.0</ele><time>2026-03-28T14:12:00Z</time></trkpt><trkpt lat="45.90483541281334" lon="10.847281755754956"><ele>102.0</ele><time>2026-03-28T14:12:01Z</time></trkpt><trkpt lat="45.90471091562976" lon="10.847060860506927"><ele>103.0</ele><time>2026-03-28T14:12:02Z</time></trkpt><trkpt lat="45.90458664951578" lon="10.846848861645997"><ele>103.33333333333334</ele><time>2026-03-28T14:12:03Z</time></trkpt><trkpt lat="45.90445422364673" lon="10.846640031866018"><ele>103.66666666666666</ele><time>2026-03-28T14:12:04.02Z</time></trkpt><trkpt lat="45.90432116439624" lon="10.846446403657836"><ele>104.0</ele><time>2026-03-28T14:12:05.023Z</time></trkpt><trkpt lat="45.904190888513504" lon="10.846262020986135"><ele>104.5</ele><time>2026-03-28T14:12:06.018Z</time></trkpt><trkpt lat="45.90406313657858" lon="10.846081271441305"><ele>105.0</ele><time>2026-03-28T14:12:07.015Z</time></trkpt><trkpt lat="45.90364174921615" lon="10.845448952178327"><ele>106.0</ele><time>2026-03-28T14:12:11Z</time></trkpt><trkpt lat="45.903533303127894" lon="10.84528975639746"><ele>107.0</ele><time>2026-03-28T14:12:12Z</time></trkpt><trkpt lat="45.90342214815554" lon="10.845135982483901"><ele>108.0</ele><time>2026-03-28T14:12:13Z</time></trkpt><trkpt lat="45.90332069398825" lon="10.844990072650676"><ele>108.5</ele><time>2026-03-28T14:12:14Z</time></trkpt><trkpt lat="45.90323196960347" lon="10.844814388090125"><ele>109.0</ele><time>2026-03-28T14:12:15.014Z</time></trkpt><trkpt lat="45.90296873865076" lon="10.844097378125078"><ele>109.66666666666667</ele><time>2026-03-28T14:12:19.082Z</time></trkpt><trkpt lat="45.90290103611401" lon="10.843905560462593"><ele>110.33333333333334</ele><time>2026-03-28T14:12:20.082Z</time></trkpt><trkpt lat="45.90286450328157" lon="10.843696776722826"><ele>111.0</ele><time>2026-03-28T14:12:21.082Z</time></trkpt><trkpt lat="45.90264124334408" lon="10.842846874157752"><ele>110.0</ele><time>2026-03-28T14:12:24Z</time></trkpt><trkpt lat="45.90258177244832" lon="10.84263001754829"><ele>109.0</ele><time>2026-03-28T14:12:25Z</time></trkpt><trkpt lat="45.90251969013021" lon="10.84242015214284"><ele>108.0</ele><time>2026-03-28T14:12:26Z</time></trkpt><trkpt lat="45.9024408843617" lon="10.842247675071334"><ele>107.0</ele><time>2026-03-28T14:12:27Z</time></trkpt><trkpt lat="45.90233055801993" lon="10.842060705878431"><ele>106.0</ele><time>2026-03-28T14:12:28Z</time></trkpt><trkpt lat="45.90222703202772" lon="10.841914722326626"><ele>105.0</ele><time>2026-03-28T14:12:29Z</time></trkpt><trkpt lat="45.902100936894186" lon="10.841725378009658"><ele>104.66666666666666</ele><time>2026-03-28T14:12:30Z</time></trkpt><trkpt lat="45.901977850107784" lon="10.841562509667455"><ele>104.33333333333333</ele><time>2026-03-28T14:12:31Z</time></trkpt><trkpt lat="45.90184585723158" lon="10.841392191640157"><ele>104.0</ele><time>2026-03-28T14:12:32Z</time></trkpt><trkpt lat="45.90170139184338" lon="10.841207893273673"><ele>104.33333333333333</ele><time>2026-03-28T14:12:33Z</time></trkpt><trkpt lat="45.901548829053525" lon="10.841013945523812"><ele>104.66666666666666</ele><time>2026-03-28T14:12:34Z</time></trkpt><trkpt lat="45.901391844999495" lon="10.840816919831575"><ele>105.0</ele><time>2026-03-28T14:12:35Z</time></trkpt><trkpt lat="45.90123222332244" lon="10.840618891442709"><ele>105.0</ele><time>2026-03-28T14:12:36Z</time></trkpt><trkpt lat="45.90107437247745" lon="10.840436708285978"><ele>105.0</ele><time>2026-03-28T14:12:37Z</time></trkpt><trkpt lat="45.90091737293522" lon="10.840271128441712"><ele>105.0</ele><time>2026-03-28T14:12:38Z</time></trkpt><trkpt lat="45.900759959676506" lon="10.840106830751115"><ele>103.0</ele><time>2026-03-28T14:12:39Z</time></trkpt><trkpt lat="45.90059553879524" lon="10.839936112808669"><ele>101.0</ele><time>2026-03-28T14:12:40Z</time></trkpt><trkpt lat="45.900438236006316" lon="10.839772783915997"><ele>99.0</ele><time>2026-03-28T14:12:41Z</time></trkpt><trkpt lat="45.9002938173691" lon="10.839622832845434"><ele>99.0</ele><time>2026-03-28T14:12:42Z</time></trkpt><trkpt lat="45.90015456019298" lon="10.839505281432983"><ele>99.0</ele><time>2026-03-28T14:12:43Z</time></trkpt><trkpt lat="45.90004109033163" lon="10.839369096683976"><ele>99.0</ele><time>2026-03-28T14:12:44Z</time></trkpt><trkpt lat="45.89994342948592" lon="10.839227391399392"><ele>99.0</ele><time>2026-03-28T14:12:45Z</time></trkpt><trkpt lat="45.89985816148043" lon="10.839069643448177"><ele>99.0</ele><time>2026-03-28T14:12:46Z</time></trkpt><trkpt lat="45.89979968428326" lon="10.838893317683192"><ele>99.0</ele><time>2026-03-28T14:12:47Z</time></trkpt><trkpt lat="45.899763922623094" lon="10.8387309731706"><ele>99.0</ele><time>2026-03-28T14:12:48Z</time></trkpt><trkpt lat="45.8997379255142" lon="10.838586031517051"><ele>99.0</ele><time>2026-03-28T14:12:49Z</time></trkpt><trkpt lat="45.89972449641659" lon="10.83843952823644"><ele>99.0</ele><time>2026-03-28T14:12:50Z</time></trkpt><trkpt lat="45.89973487515451" lon="10.838295655790434"><ele>99.0</ele><time>2026-03-28T14:12:51Z</time></trkpt><trkpt lat="45.89976339481247" lon="10.838159379114625"><ele>99.0</ele><time>2026-03-28T14:12:52Z</time></trkpt><trkpt lat="45.89977378071726" lon="10.838026824013124"><ele>99.0</ele><time>2026-03-28T14:12:53Z</time></trkpt><trkpt lat="45.89973787980147" lon="10.8378992794039"><ele>99.0</ele><time>2026-03-28T14:12:54Z</time></trkpt><trkpt lat="45.89968015356431" lon="10.837808582239193"><ele>99.0</ele><time>2026-03-28T14:12:55Z</time></trkpt><trkpt lat="45.89960322548583" lon="10.83776030221581"><ele>99.0</ele><time>2026-03-28T14:12:56Z</time></trkpt><trkpt lat="45.899513367761855" lon="10.837766097417814"><ele>99.0</ele><time>2026-03-28T14:12:57Z</time></trkpt><trkpt lat="45.89942379037145" lon="10.837800397170554"><ele>99.0</ele><time>2026-03-28T14:12:58Z</time></trkpt><trkpt lat="45.899319528401776" lon="10.837836791445179"><ele>99.0</ele><time>2026-03-28T14:12:59Z</time></trkpt><trkpt lat="45.899200570760485" lon="10.837862503977869"><ele>99.0</ele><time>2026-03-28T14:13:00Z</time></trkpt><trkpt lat="45.89906299952014" lon="10.837882343283798"><ele>99.0</ele><time>2026-03-28T14:13:01Z</time></trkpt><trkpt lat="45.898912871078274" lon="10.837905567405564"><ele>99.0</ele><time>2026-03-28T14:13:02Z</time></trkpt><trkpt lat="45.89875219486086" lon="10.837935295269455"><ele>99.0</ele><time>2026-03-28T14:13:03Z</time></trkpt><trkpt lat="45.89859172456595" lon="10.837962919200994"><ele>99.0</ele><time>2026-03-28T14:13:04Z</time></trkpt><trkpt lat="45.89842417595615" lon="10.837987873375639"><ele>99.0</ele><time>2026-03-28T14:13:05Z</time></trkpt><trkpt lat="45.898248603527286" lon="10.83801205224523"><ele>98.66666666666666</ele><time>2026-03-28T14:13:06Z</time></trkpt><trkpt lat="45.89806838013513" lon="10.838036388546723"><ele>98.33333333333333</ele><time>2026-03-28T14:13:07Z</time></trkpt><trkpt lat="45.89788862666663" lon="10.838062308958477"><ele>98.0</ele><time>2026-03-28T14:13:08Z</time></trkpt><trkpt lat="45.89771035457217" lon="10.838090866557561"><ele>98.33333333333333</ele><time>2026-03-28T14:13:09Z</time></trkpt><trkpt lat="45.8975414630568" lon="10.838118453904297"><ele>98.66666666666666</ele><time>2026-03-28T14:13:10Z</time></trkpt><trkpt lat="45.89737543780615" lon="10.838149630188857"><ele>99.0</ele><time>2026-03-28T14:13:11Z</time></trkpt><trkpt lat="45.89721436978526" lon="10.838178523460783"><ele>99.0</ele><time>2026-03-28T14:13:12Z</time></trkpt><trkpt lat="45.89705925799567" lon="10.83819281220727"><ele>99.0</ele><time>2026-03-28T14:13:13Z</time></trkpt><trkpt lat="45.896923774864824" lon="10.838255305600088"><ele>99.0</ele><time>2026-03-28T14:13:14Z</time></trkpt><trkpt lat="45.89680803708938" lon="10.838274420232082"><ele>99.0</ele><time>2026-03-28T14:13:15Z</time></trkpt><trkpt lat="45.89672676236268" lon="10.838263909618059"><ele>99.42857142857143</ele><time>2026-03-28T14:13:16Z</time></trkpt><trkpt lat="45.89667190397201" lon="10.83821774291867"><ele>99.85714285714285</ele><time>2026-03-28T14:13:17Z</time></trkpt><trkpt lat="45.89663579269364" lon="10.8381417100772"><ele>100.28571428571428</ele><time>2026-03-28T14:13:18Z</time></trkpt><trkpt lat="45.8966024126848" lon="10.838050134902765"><ele>100.71428571428572</ele><time>2026-03-28T14:13:19Z</time></trkpt><trkpt lat="45.89655113674605" lon="10.837971860333841"><ele>101.14285714285714</ele><time>2026-03-28T14:13:20Z</time></trkpt><trkpt lat="45.896486849371314" lon="10.837932063115318"><ele>101.57142857142857</ele><time>2026-03-28T14:13:21Z</time></trkpt><trkpt lat="45.89642258784714" lon="10.837929993874358"><ele>102.0</ele><time>2026-03-28T14:13:22Z</time></trkpt><trkpt lat="45.89635052760663" lon="10.837984173192112"><ele>102.0</ele><time>2026-03-28T14:13:23Z</time></trkpt><trkpt lat="45.89627248905197" lon="10.838052515737834"><ele>102.0</ele><time>2026-03-28T14:13:24Z</time></trkpt><trkpt lat="45.89618717829438" lon="10.838109548799277"><ele>102.0</ele><time>2026-03-28T14:13:25Z</time></trkpt><trkpt lat="45.89609136403858" lon="10.838142732863854"><ele>102.0</ele><time>2026-03-28T14:13:26Z</time></trkpt><trkpt lat="45.89599342616248" lon="10.83817253389912"><ele>102.0</ele><time>2026-03-28T14:13:27Z</time></trkpt><trkpt lat="45.895893369211095" lon="10.838211867318178"><ele>102.25</ele><time>2026-03-28T14:13:28Z</time></trkpt><trkpt lat="45.89578615115781" lon="10.838256462476778"><ele>102.5</ele><time>2026-03-28T14:13:28.999Z</time></trkpt><trkpt lat="45.89566394319478" lon="10.838302356807247"><ele>102.75</ele><time>2026-03-28T14:13:29.999Z</time></trkpt><trkpt lat="45.89552883294765" lon="10.838344014566484"><ele>103.0</ele><time>2026-03-28T14:13:30.999Z</time></trkpt><trkpt lat="45.89539294528067" lon="10.838378362247987"><ele>103.0</ele><time>2026-03-28T14:13:31.999Z</time></trkpt><trkpt lat="45.895242032956645" lon="10.838403012342786"><ele>103.0</ele><time>2026-03-28T14:13:32.999Z</time></trkpt><trkpt lat="45.895080577024174" lon="10.838415467975967"><ele>103.0</ele><time>2026-03-28T14:13:33.999Z</time></trkpt><trkpt lat="45.89491315945174" lon="10.838402143936786"><ele>102.33333333333334</ele><time>2026-03-28T14:13:34.999Z</time></trkpt><trkpt lat="45.894741513042874" lon="10.838380862639896"><ele>101.66666666666666</ele><time>2026-03-28T14:13:35.999Z</time></trkpt><trkpt lat="45.89456959439568" lon="10.8383423718939"><ele>101.0</ele><time>2026-03-28T14:13:36.999Z</time></trkpt><trkpt lat="45.89440672722818" lon="10.8382957794615"><ele>99.66666666666666</ele><time>2026-03-28T14:13:37.999Z</time></trkpt><trkpt lat="45.89424215467694" lon="10.838263643941348"><ele>98.33333333333334</ele><time>2026-03-28T14:13:38.999Z</time></trkpt><trkpt lat="45.8940776454448" lon="10.838233333855293"><ele>97.0</ele><time>2026-03-28T14:13:39.999Z</time></trkpt><trkpt lat="45.89391186647276" lon="10.838160761242497"><ele>97.0</ele><time>2026-03-28T14:13:40.999Z</time></trkpt><trkpt lat="45.893738740134026" lon="10.838085475519684"><ele>97.0</ele><time>2026-03-28T14:13:41.999Z</time></trkpt><trkpt lat="45.893564019616534" lon="10.837983819955634"><ele>97.0</ele><time>2026-03-28T14:13:42.999Z</time></trkpt><trkpt lat="45.89338736762233" lon="10.8378539335157"><ele>97.66666666666667</ele><time>2026-03-28T14:13:44.015Z</time></trkpt><trkpt lat="45.8932136348078" lon="10.837699711335642"><ele>98.33333333333334</ele><time>2026-03-28T14:13:45.022Z</time></trkpt><trkpt lat="45.89304048396471" lon="10.837531950229883"><ele>99.0</ele><time>2026-03-28T14:13:46.014Z</time></trkpt><trkpt lat="45.89286543424524" lon="10.837355799108515"><ele>94.0</ele><time>2026-03-28T14:13:47.021Z</time></trkpt><trkpt lat="45.892343483508874" lon="10.836838023002928"><ele>96.5</ele><time>2026-03-28T14:13:49.999Z</time></trkpt><trkpt lat="45.89216807692777" lon="10.83666220867443"><ele>99.0</ele><time>2026-03-28T14:13:50.999Z</time></trkpt><trkpt lat="45.89195351795669" lon="10.836470972194194"><ele>99.0</ele><time>2026-03-28T14:13:51.999Z</time></trkpt><trkpt lat="45.891769451292944" lon="10.836287828161229"><ele>99.0</ele><time>2026-03-28T14:13:52.999Z</time></trkpt><trkpt lat="45.89158204882184" lon="10.83610111723163"><ele>159.0</ele><time>2026-03-28T14:13:54.023Z</time></trkpt><trkpt lat="45.89079838880318" lon="10.835408415501806"><ele>159.0</ele><time>2026-03-28T14:13:58.082Z</time></trkpt><trkpt lat="45.8905846146258" lon="10.835295927663113"><ele>159.0</ele><time>2026-03-28T14:13:59.082Z</time></trkpt><trkpt lat="45.890368649163676" lon="10.835187479843205"><ele>159.0</ele><time>2026-03-28T14:14:00.082Z</time></trkpt><trkpt lat="45.89014130282348" lon="10.8351407727115"><ele>159.0</ele><time>2026-03-28T14:14:01.082Z</time></trkpt><trkpt lat="45.889912306446284" lon="10.835119264952144"><ele>150.5</ele><time>2026-03-28T14:14:02.082Z</time></trkpt><trkpt lat="45.889683391281366" lon="10.835136483382806"><ele>142.0</ele><time>2026-03-28T14:14:03.082Z</time></trkpt><trkpt lat="45.88945956096797" lon="10.835206115252745"><ele>145.5</ele><time>2026-03-28T14:14:04.082Z</time></trkpt><trkpt lat="45.88923934172413" lon="10.835288684851713"><ele>149.0</ele><time>2026-03-28T14:14:05.082Z</time></trkpt><trkpt lat="45.88902472180928" lon="10.8353978073384"><ele>149.0</ele><time>2026-03-28T14:14:06.082Z</time></trkpt><trkpt lat="45.88882086149138" lon="10.835542790404972"><ele>149.0</ele><time>2026-03-28T14:14:07.082Z</time></trkpt><trkpt lat="45.88861642794933" lon="10.835690039657898"><ele>149.0</ele><time>2026-03-28T14:14:08.081Z</time></trkpt><trkpt lat="45.888445812838015" lon="10.835910446030917"><ele>149.0</ele><time>2026-03-28T14:14:09.082Z</time></trkpt><trkpt lat="45.88827978170287" lon="10.836133544989929"><ele>139.0</ele><time>2026-03-28T14:14:10.082Z</time></trkpt><trkpt lat="45.8881484" lon="10.8363435"><ele>129.0</ele><time>2026-03-28T14:14:11.082Z</time></trkpt><trkpt lat="45.8875414124186" lon="10.837460160265525"><ele>118.25</ele><time>2026-03-28T14:14:25.999Z</time></trkpt><trkpt lat="45.88731631209584" lon="10.837729908909264"><ele>107.5</ele><time>2026-03-28T14:14:27.999Z</time></trkpt><trkpt lat="45.887264621663235" lon="10.837814839869377"><ele>96.75</ele><time>2026-03-28T14:14:28.999Z</time></trkpt><trkpt lat="45.88719918064635" lon="10.83785380793751"><ele>86.0</ele><time>2026-03-28T14:14:29.999Z</time></trkpt><trkpt lat="45.88713693758678" lon="10.837893291395542"><ele>86.0</ele><time>2026-03-28T14:14:30.999Z</time></trkpt><trkpt lat="45.88700376847393" lon="10.837888172297165"><ele>86.0</ele><time>2026-03-28T14:14:33Z</time></trkpt><trkpt lat="45.88693511046914" lon="10.837876484363337"><ele>86.0</ele><time>2026-03-28T14:14:34Z</time></trkpt><trkpt lat="45.88686488494813" lon="10.837841260367632"><ele>86.0</ele><time>2026-03-28T14:14:35Z</time></trkpt><trkpt lat="45.88678680339392" lon="10.837821095505646"><ele>86.0</ele><time>2026-03-28T14:14:36Z</time></trkpt><trkpt lat="45.88670046811744" lon="10.837813304700862"><ele>86.0</ele><time>2026-03-28T14:14:37Z</time></trkpt><trkpt lat="45.88660874852359" lon="10.837842531946233"><ele>86.0</ele><time>2026-03-28T14:14:38Z</time></trkpt><trkpt lat="45.886518827918806" lon="10.837848027606789"><ele>86.0</ele><time>2026-03-28T14:14:39Z</time></trkpt><trkpt lat="45.88643588312654" lon="10.837852292157807"><ele>86.0</ele><time>2026-03-28T14:14:40Z</time></trkpt><trkpt lat="45.88635550039799" lon="10.837854995997024"><ele>86.0</ele><time>2026-03-28T14:14:41Z</time></trkpt><trkpt lat="45.88627303255648" lon="10.837863569664739"><ele>86.0</ele><time>2026-03-28T14:14:42Z</time></trkpt><trkpt lat="45.886185623750244" lon="10.837866405774385"><ele>86.0</ele><time>2026-03-28T14:14:43Z</time></trkpt><trkpt lat="45.88609107697521" lon="10.837866517623983"><ele>86.0</ele><time>2026-03-28T14:14:44Z</time></trkpt><trkpt lat="45.88599202653511" lon="10.837864781550216"><ele>86.0</ele><time>2026-03-28T14:14:45Z</time></trkpt><trkpt lat="45.88588951269298" lon="10.837868845155986"><ele>86.0</ele><time>2026-03-28T14:14:46Z</time></trkpt><trkpt lat="45.88578952268039" lon="10.837854869895581"><ele>86.0</ele><time>2026-03-28T14:14:47Z</time></trkpt><trkpt lat="45.88568964372848" lon="10.837860018927476"><ele>86.0</ele><time>2026-03-28T14:14:48Z</time></trkpt><trkpt lat="45.88559237188695" lon="10.83787583194261"><ele>85.4</ele><time>2026-03-28T14:14:49Z</time></trkpt><trkpt lat="45.88549124879733" lon="10.837879218904263"><ele>84.8</ele><time>2026-03-28T14:14:50Z</time></trkpt><trkpt lat="45.885389657227606" lon="10.83788605426061"><ele>84.2</ele><time>2026-03-28T14:14:51Z</time></trkpt><trkpt lat="45.88528993964359" lon="10.837890742307074"><ele>83.60000000000001</ele><time>2026-03-28T14:14:52Z</time></trkpt><trkpt lat="45.885189099209114" lon="10.837893406718965"><ele>83.0</ele><time>2026-03-28T14:14:53Z</time></trkpt><trkpt lat="45.885088965907656" lon="10.837902769443337"><ele>82.0</ele><time>2026-03-28T14:14:54Z</time></trkpt><trkpt lat="45.88498654062382" lon="10.837913659852648"><ele>81.0</ele><time>2026-03-28T14:14:55Z</time></trkpt><trkpt lat="45.88487978200905" lon="10.837924082496006"><ele>80.0</ele><time>2026-03-28T14:14:56Z</time></trkpt><trkpt lat="45.88477496134633" lon="10.837934530311472"><ele>79.0</ele><time>2026-03-28T14:14:57Z</time></trkpt><trkpt lat="45.88466943373015" lon="10.837972961665901"><ele>78.0</ele><time>2026-03-28T14:14:58Z</time></trkpt><trkpt lat="45.884569920367674" lon="10.838028035928728"><ele>78.0</ele><time>2026-03-28T14:14:59Z</time></trkpt><trkpt lat="45.884471348260355" lon="10.838097794667558"><ele>78.0</ele><time>2026-03-28T14:15:00Z</time></trkpt><trkpt lat="45.88437668275081" lon="10.838157060017721"><ele>78.0</ele><time>2026-03-28T14:15:01Z</time></trkpt><trkpt lat="45.88428241654286" lon="10.838231004781308"><ele>78.0</ele><time>2026-03-28T14:15:02Z</time></trkpt><trkpt lat="45.884192533631676" lon="10.838296947274983"><ele>78.0</ele><time>2026-03-28T14:15:03Z</time></trkpt><trkpt lat="45.88410968063627" lon="10.838371040953271"><ele>77.66666666666667</ele><time>2026-03-28T14:15:04Z</time></trkpt><trkpt lat="45.884035181473784" lon="10.838433934115937"><ele>77.33333333333333</ele><time>2026-03-28T14:15:05Z</time></trkpt><trkpt lat="45.88396584273607" lon="10.838488552615368"><ele>77.0</ele><time>2026-03-28T14:15:06Z</time></trkpt><trkpt lat="45.88389807545555" lon="10.838537024967513"><ele>76.66666666666666</ele><time>2026-03-28T14:15:07Z</time></trkpt><trkpt lat="45.88382210787369" lon="10.838569616107634"><ele>76.33333333333333</ele><time>2026-03-28T14:15:08Z</time></trkpt><trkpt lat="45.88375554054108" lon="10.83858824990461"><ele>76.0</ele><time>2026-03-28T14:15:09Z</time></trkpt><trkpt lat="45.88369014673278" lon="10.838604716214217"><ele>74.83333333333333</ele><time>2026-03-28T14:15:10Z</time></trkpt><trkpt lat="45.88362593768972" lon="10.838601818354796"><ele>73.66666666666666</ele><time>2026-03-28T14:15:11Z</time></trkpt><trkpt lat="45.883518491589605" lon="10.838587558034705"><ele>72.5</ele><time>2026-03-28T14:15:13Z</time></trkpt><trkpt lat="45.883437076540964" lon="10.838570355637543"><ele>71.33333333333333</ele><time>2026-03-28T14:15:15Z</time></trkpt><trkpt lat="45.88333930680692" lon="10.838532969550863"><ele>70.16666666666667</ele><time>2026-03-28T14:15:17Z</time></trkpt><trkpt lat="45.883262948542175" lon="10.838499795391613"><ele>69.0</ele><time>2026-03-28T14:15:18Z</time></trkpt><trkpt lat="45.88317662894353" lon="10.838478291043927"><ele>70.0</ele><time>2026-03-28T14:15:19Z</time></trkpt><trkpt lat="45.88310025673427" lon="10.83843236926708"><ele>71.0</ele><time>2026-03-28T14:15:20Z</time></trkpt><trkpt lat="45.88302111281809" lon="10.83840336761212"><ele>72.0</ele><time>2026-03-28T14:15:21Z</time></trkpt><trkpt lat="45.882939305187016" lon="10.838374186606057"><ele>73.0</ele><time>2026-03-28T14:15:22Z</time></trkpt><trkpt lat="45.882861166278886" lon="10.838347595610445"><ele>74.0</ele><time>2026-03-28T14:15:23Z</time></trkpt><trkpt lat="45.882785007159164" lon="10.83832252920236"><ele>75.0</ele><time>2026-03-28T14:15:24Z</time></trkpt><trkpt lat="45.88270178216836" lon="10.83829702700076"><ele>75.0</ele><time>2026-03-28T14:15:25Z</time></trkpt><trkpt lat="45.88261900505321" lon="10.838293923751333"><ele>75.0</ele><time>2026-03-28T14:15:26Z</time></trkpt><trkpt lat="45.882547532513655" lon="10.83825738361845"><ele>75.0</ele><time>2026-03-28T14:15:27Z</time></trkpt><trkpt lat="45.88246521306652" lon="10.838235854001258"><ele>75.0</ele><time>2026-03-28T14:15:28Z</time></trkpt><trkpt lat="45.88237339503741" lon="10.838196248112844"><ele>75.0</ele><time>2026-03-28T14:15:29Z</time></trkpt><trkpt lat="45.882261845228015" lon="10.83816887077469"><ele>74.5</ele><time>2026-03-28T14:15:30Z</time></trkpt><trkpt lat="45.882129288102256" lon="10.838141613690047"><ele>74.0</ele><time>2026-03-28T14:15:31Z</time></trkpt><trkpt lat="45.881978211903785" lon="10.83812285792732"><ele>73.5</ele><time>2026-03-28T14:15:32Z</time></trkpt><trkpt lat="45.88182135999496" lon="10.838105039185315"><ele>73.0</ele><time>2026-03-28T14:15:33Z</time></trkpt><trkpt lat="45.881665822275785" lon="10.8381106888717"><ele>74.66666666666666</ele><time>2026-03-28T14:15:34Z</time></trkpt><trkpt lat="45.88151558218655" lon="10.838074424802851"><ele>76.33333333333333</ele><time>2026-03-28T14:15:35Z</time></trkpt><trkpt lat="45.881350580523986" lon="10.838050455927801"><ele>78.0</ele><time>2026-03-28T14:15:36Z</time></trkpt><trkpt lat="45.881176935652974" lon="10.838025805530688"><ele>78.0</ele><time>2026-03-28T14:15:37Z</time></trkpt><trkpt lat="45.88100443899559" lon="10.837996062136483"><ele>78.0</ele><time>2026-03-28T14:15:38Z</time></trkpt><trkpt lat="45.88084342734559" lon="10.837970876490234"><ele>78.0</ele><time>2026-03-28T14:15:39Z</time></trkpt><trkpt lat="45.880689458752485" lon="10.837948992812976"><ele>75.75</ele><time>2026-03-28T14:15:40Z</time></trkpt><trkpt lat="45.88054302600824" lon="10.837925856086157"><ele>73.5</ele><time>2026-03-28T14:15:41Z</time></trkpt><trkpt lat="45.880401227413344" lon="10.83790597290707"><ele>71.25</ele><time>2026-03-28T14:15:42Z</time></trkpt><trkpt lat="45.880254904926545" lon="10.837868272263869"><ele>69.0</ele><time>2026-03-28T14:15:43Z</time></trkpt><trkpt lat="45.8800983710116" lon="10.837810856069312"><ele>68.33333333333333</ele><time>2026-03-28T14:15:44Z</time></trkpt><trkpt lat="45.87992901802262" lon="10.837795668484954"><ele>67.66666666666666</ele><time>2026-03-28T14:15:45Z</time></trkpt><trkpt lat="45.87977271928234" lon="10.837751326834546"><ele>67.0</ele><time>2026-03-28T14:15:46Z</time></trkpt><trkpt lat="45.87962376995588" lon="10.837716774095783"><ele>67.0</ele><time>2026-03-28T14:15:47Z</time></trkpt><trkpt lat="45.87948266922469" lon="10.837683335222287"><ele>67.0</ele><time>2026-03-28T14:15:48Z</time></trkpt><trkpt lat="45.87934491639633" lon="10.837652614972354"><ele>67.0</ele><time>2026-03-28T14:15:49Z</time></trkpt><trkpt lat="45.87920801273574" lon="10.837619927935435"><ele>67.0</ele><time>2026-03-28T14:15:50Z</time></trkpt><trkpt lat="45.87906430368614" lon="10.837586837092099"><ele>67.0</ele><time>2026-03-28T14:15:51.02Z</time></trkpt><trkpt lat="45.87892022150089" lon="10.837550101583346"><ele>67.0</ele><time>2026-03-28T14:15:52.021Z</time></trkpt><trkpt lat="45.878771014324755" lon="10.83750932661188"><ele>67.0</ele><time>2026-03-28T14:15:53.013Z</time></trkpt><trkpt lat="45.87861365216926" lon="10.83745958502954"><ele>67.0</ele><time>2026-03-28T14:15:54.018Z</time></trkpt><trkpt lat="45.878450478389865" lon="10.837402442483244"><ele>67.0</ele><time>2026-03-28T14:15:55.021Z</time></trkpt><trkpt lat="45.87828711779662" lon="10.837316967633592"><ele>67.0</ele><time>2026-03-28T14:15:56.022Z</time></trkpt><trkpt lat="45.87811226532349" lon="10.837274923638997"><ele>67.0</ele><time>2026-03-28T14:15:57.02Z</time></trkpt><trkpt lat="45.876354783798284" lon="10.836581501833638"><ele>67.0</ele><time>2026-03-28T14:16:01.081Z</time></trkpt><trkpt lat="45.87592063432157" lon="10.836413027004982"><ele>67.0</ele><time>2026-03-28T14:16:02.081Z</time></trkpt><trkpt lat="45.875486640399664" lon="10.836243571756322"><ele>67.0</ele><time>2026-03-28T14:16:03.081Z</time></trkpt><trkpt lat="45.87505129355328" lon="10.836081471947361"><ele>67.0</ele><time>2026-03-28T14:16:04.081Z</time></trkpt><trkpt lat="45.8747122" lon="10.8359746"><ele>67.0</ele><time>2026-03-28T14:16:05.081Z</time></trkpt><trkpt lat="45.861133388286326" lon="10.832532942305162"><ele>65.75</ele><time>2026-03-28T14:17:26.999Z</time></trkpt><trkpt lat="45.86097890210874" lon="10.832488452611866"><ele>64.5</ele><time>2026-03-28T14:17:27.999Z</time></trkpt><trkpt lat="45.860856168125586" lon="10.832481836284394"><ele>63.25</ele><time>2026-03-28T14:17:28.999Z</time></trkpt><trkpt lat="45.86072100796622" lon="10.832530174104974"><ele>62.0</ele><time>2026-03-28T14:17:30.014Z</time></trkpt><trkpt lat="45.860581711786175" lon="10.832515676393342"><ele>62.0</ele><time>2026-03-28T14:17:31.022Z</time></trkpt><trkpt lat="45.8604505996632" lon="10.832540366891623"><ele>62.0</ele><time>2026-03-28T14:17:32.014Z</time></trkpt><trkpt lat="45.86031957718182" lon="10.83255198533939"><ele>62.0</ele><time>2026-03-28T14:17:33.015Z</time></trkpt><trkpt lat="45.86018768923956" lon="10.83259097193345"><ele>62.0</ele><time>2026-03-28T14:17:34.013Z</time></trkpt><trkpt lat="45.86005321140501" lon="10.83260518415243"><ele>112.0</ele><time>2026-03-28T14:17:35.012Z</time></trkpt><trkpt lat="45.85922549948642" lon="10.832389025027707"><ele>112.0</ele><time>2026-03-28T14:17:41.999Z</time></trkpt><trkpt lat="45.85909946107067" lon="10.832355439142974"><ele>112.0</ele><time>2026-03-28T14:17:42.999Z</time></trkpt><trkpt lat="45.85897191559546" lon="10.832428052047545"><ele>112.0</ele><time>2026-03-28T14:17:43.999Z</time></trkpt><trkpt lat="45.8588708267748" lon="10.832419227090062"><ele>112.0</ele><time>2026-03-28T14:17:44.999Z</time></trkpt><trkpt lat="45.85876200400025" lon="10.832458106453679"><ele>112.0</ele><time>2026-03-28T14:17:45.999Z</time></trkpt><trkpt lat="45.85865172044615" lon="10.832584886174232"><ele>112.0</ele><time>2026-03-28T14:17:46.999Z</time></trkpt><trkpt lat="45.858503586418244" lon="10.832664559099918"><ele>112.0</ele><time>2026-03-28T14:17:48Z</time></trkpt><trkpt lat="45.85840238084401" lon="10.832711718849152"><ele>112.0</ele><time>2026-03-28T14:17:49Z</time></trkpt><trkpt lat="45.85830600791847" lon="10.83277801514001"><ele>102.0</ele><time>2026-03-28T14:17:50Z</time></trkpt><trkpt lat="45.85820960820846" lon="10.832810824276693"><ele>91.99999999999999</ele><time>2026-03-28T14:17:51Z</time></trkpt><trkpt lat="45.85811327129605" lon="10.832855868004387"><ele>82.0</ele><time>2026-03-28T14:17:52Z</time></trkpt><trkpt lat="45.85801470897627" lon="10.832890614077886"><ele>72.0</ele><time>2026-03-28T14:17:53Z</time></trkpt><trkpt lat="45.857908393204305" lon="10.832891850751496"><ele>62.0</ele><time>2026-03-28T14:17:54Z</time></trkpt><trkpt lat="45.857792930910655" lon="10.83290560302694"><ele>62.0</ele><time>2026-03-28T14:17:55.015Z</time></trkpt><trkpt lat="45.85767196405651" lon="10.832924330893642"><ele>62.0</ele><time>2026-03-28T14:17:56.024Z</time></trkpt><trkpt lat="45.857551273644795" lon="10.832902456377461"><ele>62.0</ele><time>2026-03-28T14:17:57Z</time></trkpt><trkpt lat="45.85742818285653" lon="10.832928907465611"><ele>62.0</ele><time>2026-03-28T14:17:58Z</time></trkpt><trkpt lat="45.85724880006415" lon="10.833034178934327"><ele>62.0</ele><time>2026-03-28T14:18:00Z</time></trkpt><trkpt lat="45.85713181789116" lon="10.833060218777247"><ele>62.0</ele><time>2026-03-28T14:18:01Z</time></trkpt><trkpt lat="45.85701751478528" lon="10.833085364512627"><ele>62.0</ele><time>2026-03-28T14:18:02.013Z</time></trkpt><trkpt lat="45.85690109444012" lon="10.833109984855072"><ele>62.0</ele><time>2026-03-28T14:18:03.016Z</time></trkpt><trkpt lat="45.856812323689205" lon="10.833183009657793"><ele>65.0</ele><time>2026-03-28T14:18:04.018Z</time></trkpt><trkpt lat="45.856707656832036" lon="10.833234646700005"><ele>68.0</ele><time>2026-03-28T14:18:05.02Z</time></trkpt><trkpt lat="45.85660615151163" lon="10.833284667223406"><ele>71.0</ele><time>2026-03-28T14:18:06.018Z</time></trkpt><trkpt lat="45.85518667944321" lon="10.833847224722462"><ele>74.0</ele><time>2026-03-28T14:18:15Z</time></trkpt><trkpt lat="45.85503969081772" lon="10.83380939302222"><ele>77.0</ele><time>2026-03-28T14:18:16Z</time></trkpt><trkpt lat="45.85503349206255" lon="10.833987915333566"><ele>80.0</ele><time>2026-03-28T14:18:17Z</time></trkpt><trkpt lat="45.85490956454363" lon="10.833997224038605"><ele>83.0</ele><time>2026-03-28T14:18:18Z</time></trkpt><trkpt lat="45.8547867744003" lon="10.833962483275508"><ele>83.0</ele><time>2026-03-28T14:18:19Z</time></trkpt><trkpt lat="45.85459606687817" lon="10.833924834969743"><ele>83.0</ele><time>2026-03-28T14:18:20Z</time></trkpt><trkpt lat="45.854458949704174" lon="10.833851600718134"><ele>83.0</ele><time>2026-03-28T14:18:21Z</time></trkpt><trkpt lat="45.854340764216424" lon="10.833770834836898"><ele>83.66666666666667</ele><time>2026-03-28T14:18:22Z</time></trkpt><trkpt lat="45.85420394092763" lon="10.833675895966408"><ele>84.33333333333333</ele><time>2026-03-28T14:18:23Z</time></trkpt><trkpt lat="45.85405035244304" lon="10.833567697552702"><ele>85.0</ele><time>2026-03-28T14:18:24Z</time></trkpt><trkpt lat="45.85390186420841" lon="10.83346168242747"><ele>82.0</ele><time>2026-03-28T14:18:25Z</time></trkpt><trkpt lat="45.85369775122189" lon="10.833319507863001"><ele>79.0</ele><time>2026-03-28T14:18:26Z</time></trkpt><trkpt lat="45.85353124811142" lon="10.833210421717554"><ele>76.0</ele><time>2026-03-28T14:18:27Z</time></trkpt><trkpt lat="45.85336435959767" lon="10.83310274666707"><ele>76.0</ele><time>2026-03-28T14:18:28Z</time></trkpt><trkpt lat="45.853149404792944" lon="10.832964489190946"><ele>76.0</ele><time>2026-03-28T14:18:29Z</time></trkpt><trkpt lat="45.85292460917964" lon="10.83282228046544"><ele>76.0</ele><time>2026-03-28T14:18:30Z</time></trkpt><trkpt lat="45.852724977618635" lon="10.83269394964921"><ele>76.0</ele><time>2026-03-28T14:18:31Z</time></trkpt><trkpt lat="45.85251851754491" lon="10.832563741891088"><ele>76.0</ele><time>2026-03-28T14:18:32.017Z</time></trkpt><trkpt lat="45.85232918233176" lon="10.832447278032703"><ele>77.66666666666666</ele><time>2026-03-28T14:18:33.02Z</time></trkpt><trkpt lat="45.85215451517833" lon="10.832334733639108"><ele>79.33333333333333</ele><time>2026-03-28T14:18:34.024Z</time></trkpt><trkpt lat="45.85195452818575" lon="10.832232228285754"><ele>81.0</ele><time>2026-03-28T14:18:35.022Z</time></trkpt><trkpt lat="45.851762524038044" lon="10.832168566305205"><ele>81.0</ele><time>2026-03-28T14:18:36.025Z</time></trkpt><trkpt lat="45.851577845905474" lon="10.832115545197286"><ele>81.0</ele><time>2026-03-28T14:18:37.024Z</time></trkpt><trkpt lat="45.850232171289065" lon="10.831727614084398"><ele>77.5</ele><time>2026-03-28T14:18:40.08Z</time></trkpt><trkpt lat="45.84982562495848" lon="10.831453143763001"><ele>74.0</ele><time>2026-03-28T14:18:41.08Z</time></trkpt><trkpt lat="45.84942374199598" lon="10.831164254403504"><ele>74.0</ele><time>2026-03-28T14:18:42.08Z</time></trkpt><trkpt lat="45.849638739643474" lon="10.831427117819741"><ele>74.0</ele><time>2026-03-28T14:18:52Z</time></trkpt><trkpt lat="45.84952843581585" lon="10.831419502838688"><ele>74.0</ele><time>2026-03-28T14:18:54Z</time></trkpt><trkpt lat="45.84951875302835" lon="10.83120024935145"><ele>68.5</ele><time>2026-03-28T14:18:55Z</time></trkpt><trkpt lat="45.84909865009816" lon="10.830982031713273"><ele>63.0</ele><time>2026-03-28T14:18:58Z</time></trkpt><trkpt lat="45.848842391983624" lon="10.830864135052085"><ele>66.66666666666667</ele><time>2026-03-28T14:18:59Z</time></trkpt><trkpt lat="45.84867550869136" lon="10.83079029861377"><ele>70.33333333333334</ele><time>2026-03-28T14:19:00Z</time></trkpt><trkpt lat="45.84849370023213" lon="10.830724432618547"><ele>74.0</ele><time>2026-03-28T14:19:01Z</time></trkpt><trkpt lat="45.8483259638113" lon="10.830640176013226"><ele>74.0</ele><time>2026-03-28T14:19:02Z</time></trkpt><trkpt lat="45.848171756973336" lon="10.830569133340227"><ele>74.0</ele><time>2026-03-28T14:19:03Z</time></trkpt><trkpt lat="45.84801123978664" lon="10.830533876102812"><ele>74.0</ele><time>2026-03-28T14:19:04Z</time></trkpt><trkpt lat="45.847844420789606" lon="10.830519028441692"><ele>74.0</ele><time>2026-03-28T14:19:05Z</time></trkpt><trkpt lat="45.84766624951672" lon="10.83047850584166"><ele>74.0</ele><time>2026-03-28T14:19:06Z</time></trkpt><trkpt lat="45.84748955193991" lon="10.830461437233021"><ele>74.0</ele><time>2026-03-28T14:19:07Z</time></trkpt><trkpt lat="45.84731981602715" lon="10.8304448690116"><ele>71.33333333333334</ele><time>2026-03-28T14:19:08Z</time></trkpt><trkpt lat="45.84715494875548" lon="10.830426571858203"><ele>68.66666666666667</ele><time>2026-03-28T14:19:09Z</time></trkpt><trkpt lat="45.846993668115005" lon="10.830394660105924"><ele>66.0</ele><time>2026-03-28T14:19:10Z</time></trkpt><trkpt lat="45.84683434336219" lon="10.830347167786902"><ele>65.66666666666667</ele><time>2026-03-28T14:19:11Z</time></trkpt><trkpt lat="45.84667224330132" lon="10.83029354943534"><ele>65.33333333333334</ele><time>2026-03-28T14:19:12Z</time></trkpt><trkpt lat="45.84650840782474" lon="10.830237529070573"><ele>65.0</ele><time>2026-03-28T14:19:13Z</time></trkpt><trkpt lat="45.84635209631239" lon="10.830181269923036"><ele>68.0</ele><time>2026-03-28T14:19:14Z</time></trkpt><trkpt lat="45.84621358907161" lon="10.83012389335666"><ele>71.0</ele><time>2026-03-28T14:19:15Z</time></trkpt><trkpt lat="45.84609257374901" lon="10.83004876600185"><ele>74.0</ele><time>2026-03-28T14:19:16Z</time></trkpt><trkpt lat="45.8459872076657" lon="10.829952087409579"><ele>77.0</ele><time>2026-03-28T14:19:17Z</time></trkpt><trkpt lat="45.845889823087795" lon="10.829839631330776"><ele>77.0</ele><time>2026-03-28T14:19:18Z</time></trkpt><trkpt lat="45.84581138298794" lon="10.82970298777657"><ele>77.0</ele><time>2026-03-28T14:19:19Z</time></trkpt><trkpt lat="45.84571862142101" lon="10.82953877699688"><ele>77.0</ele><time>2026-03-28T14:19:20Z</time></trkpt><trkpt lat="45.845622713165525" lon="10.8293654258915"><ele>77.0</ele><time>2026-03-28T14:19:21Z</time></trkpt><trkpt lat="45.84552575362525" lon="10.829187686951746"><ele>87.66666666666667</ele><time>2026-03-28T14:19:21.999Z</time></trkpt><trkpt lat="45.84542781668044" lon="10.829015772880025"><ele>98.33333333333334</ele><time>2026-03-28T14:19:22.999Z</time></trkpt><trkpt lat="45.84531406939492" lon="10.828857395880451"><ele>109.0</ele><time>2026-03-28T14:19:23.999Z</time></trkpt><trkpt lat="45.84518468205549" lon="10.828717477159257"><ele>100.66666666666667</ele><time>2026-03-28T14:19:24.999Z</time></trkpt><trkpt lat="45.84503502097824" lon="10.828589743295757"><ele>92.33333333333334</ele><time>2026-03-28T14:19:25.999Z</time></trkpt><trkpt lat="45.84487912171926" lon="10.828458618566108"><ele>84.0</ele><time>2026-03-28T14:19:26.999Z</time></trkpt><trkpt lat="45.84472912253943" lon="10.828331259157244"><ele>84.0</ele><time>2026-03-28T14:19:27.999Z</time></trkpt><trkpt lat="45.84458915163437" lon="10.828204296152823"><ele>84.0</ele><time>2026-03-28T14:19:28.999Z</time></trkpt><trkpt lat="45.844461215854764" lon="10.82806546464989"><ele>84.0</ele><time>2026-03-28T14:19:29.999Z</time></trkpt><trkpt lat="45.84433826039497" lon="10.827898220404041"><ele>84.33333333333333</ele><time>2026-03-28T14:19:30.999Z</time></trkpt><trkpt lat="45.84421355680445" lon="10.8277107165102"><ele>84.66666666666666</ele><time>2026-03-28T14:19:31.999Z</time></trkpt><trkpt lat="45.84409391762139" lon="10.827522945445306"><ele>85.0</ele><time>2026-03-28T14:19:32.999Z</time></trkpt><trkpt lat="45.843980566553014" lon="10.827348167033708"><ele>85.0</ele><time>2026-03-28T14:19:33.999Z</time></trkpt><trkpt lat="45.84385978261416" lon="10.827195118125884"><ele>85.0</ele><time>2026-03-28T14:19:34.999Z</time></trkpt><trkpt lat="45.8437328486063" lon="10.827056780276674"><ele>85.0</ele><time>2026-03-28T14:19:35.999Z</time></trkpt><trkpt lat="45.843592372032305" lon="10.826930598811973"><ele>87.66666666666666</ele><time>2026-03-28T14:19:36.999Z</time></trkpt><trkpt lat="45.8434367480088" lon="10.826821404730426"><ele>90.33333333333333</ele><time>2026-03-28T14:19:37.999Z</time></trkpt><trkpt lat="45.84326283765268" lon="10.826720421872807"><ele>93.0</ele><time>2026-03-28T14:19:38.999Z</time></trkpt><trkpt lat="45.843079001512315" lon="10.826616026287967"><ele>93.0</ele><time>2026-03-28T14:19:39.999Z</time></trkpt><trkpt lat="45.84288535530598" lon="10.826510790312817"><ele>93.0</ele><time>2026-03-28T14:19:40.999Z</time></trkpt><trkpt lat="45.842686235142004" lon="10.826429678834456"><ele>93.0</ele><time>2026-03-28T14:19:41.999Z</time></trkpt><trkpt lat="45.84249611137768" lon="10.826367047238337"><ele>86.0</ele><time>2026-03-28T14:19:42.999Z</time></trkpt><trkpt lat="45.84231481755081" lon="10.826304059150443"><ele>79.0</ele><time>2026-03-28T14:19:43.999Z</time></trkpt><trkpt lat="45.8421505931801" lon="10.826193921177007"><ele>72.0</ele><time>2026-03-28T14:19:44.999Z</time></trkpt><trkpt lat="45.841989837466016" lon="10.826055247571666"><ele>78.66666666666667</ele><time>2026-03-28T14:19:45.999Z</time></trkpt><trkpt lat="45.84182128236612" lon="10.825943506711583"><ele>85.33333333333334</ele><time>2026-03-28T14:19:46.999Z</time></trkpt><trkpt lat="45.84164628460963" lon="10.825853585899617"><ele>92.0</ele><time>2026-03-28T14:19:47.999Z</time></trkpt><trkpt lat="45.84146553989869" lon="10.825826167795888"><ele>92.0</ele><time>2026-03-28T14:19:48.999Z</time></trkpt><trkpt lat="45.84129548368655" lon="10.825776054734677"><ele>92.0</ele><time>2026-03-28T14:19:49.999Z</time></trkpt><trkpt lat="45.84113156983158" lon="10.825751142462405"><ele>92.0</ele><time>2026-03-28T14:19:50.999Z</time></trkpt><trkpt lat="45.84097113353295" lon="10.825735998401104"><ele>89.75</ele><time>2026-03-28T14:19:51.999Z</time></trkpt><trkpt lat="45.840821411652726" lon="10.825737638500598"><ele>87.5</ele><time>2026-03-28T14:19:52.999Z</time></trkpt><trkpt lat="45.840679265735446" lon="10.825762460885173"><ele>85.25</ele><time>2026-03-28T14:19:54Z</time></trkpt><trkpt lat="45.84054868589326" lon="10.82580133641238"><ele>83.0</ele><time>2026-03-28T14:19:55Z</time></trkpt><trkpt lat="45.840409321448426" lon="10.825850168743916"><ele>83.0</ele><time>2026-03-28T14:19:56Z</time></trkpt><trkpt lat="45.840278646312406" lon="10.825897178395698"><ele>83.0</ele><time>2026-03-28T14:19:57Z</time></trkpt><trkpt lat="45.84015251653782" lon="10.825942552895631"><ele>83.0</ele><time>2026-03-28T14:19:58Z</time></trkpt><trkpt lat="45.84002269100788" lon="10.825977927661466"><ele>83.0</ele><time>2026-03-28T14:19:59Z</time></trkpt><trkpt lat="45.83988799097048" lon="10.826005511273936"><ele>77.75</ele><time>2026-03-28T14:20:00Z</time></trkpt><trkpt lat="45.8397538870241" lon="10.82601677185412"><ele>72.5</ele><time>2026-03-28T14:20:01Z</time></trkpt><trkpt lat="45.83962880103753" lon="10.826019771735739"><ele>67.25</ele><time>2026-03-28T14:20:02Z</time></trkpt><trkpt lat="45.839508240683706" lon="10.82601707512168"><ele>62.0</ele><time>2026-03-28T14:20:03Z</time></trkpt><trkpt lat="45.83938746903866" lon="10.82603029650123"><ele>62.0</ele><time>2026-03-28T14:20:04Z</time></trkpt><trkpt lat="45.839261146358204" lon="10.826010062832049"><ele>62.0</ele><time>2026-03-28T14:20:05Z</time></trkpt><trkpt lat="45.83912578987455" lon="10.825961249549481"><ele>62.0</ele><time>2026-03-28T14:20:06Z</time></trkpt><trkpt lat="45.83896916039655" lon="10.825933413945968"><ele>62.0</ele><time>2026-03-28T14:20:07Z</time></trkpt><trkpt lat="45.83879893040425" lon="10.825894494937167"><ele>62.0</ele><time>2026-03-28T14:20:08Z</time></trkpt><trkpt lat="45.83861561362756" lon="10.825844215678826"><ele>62.0</ele><time>2026-03-28T14:20:09Z</time></trkpt><trkpt lat="45.8384260773823" lon="10.825779655536653"><ele>62.0</ele><time>2026-03-28T14:20:10Z</time></trkpt><trkpt lat="45.83823647746379" lon="10.82572955311951"><ele>62.0</ele><time>2026-03-28T14:20:11Z</time></trkpt><trkpt lat="45.838049054336956" lon="10.825682961926173"><ele>62.0</ele><time>2026-03-28T14:20:12Z</time></trkpt><trkpt lat="45.83786555412411" lon="10.825636939205713"><ele>62.0</ele><time>2026-03-28T14:20:13Z</time></trkpt><trkpt lat="45.837686929696375" lon="10.825592657776829"><ele>62.0</ele><time>2026-03-28T14:20:14Z</time></trkpt><trkpt lat="45.83751839371216" lon="10.825505890362978"><ele>62.0</ele><time>2026-03-28T14:20:15Z</time></trkpt><trkpt lat="45.837340486870204" lon="10.825429957872327"><ele>62.0</ele><time>2026-03-28T14:20:16Z</time></trkpt><trkpt lat="45.837154106129475" lon="10.825357087161496"><ele>62.0</ele><time>2026-03-28T14:20:17Z</time></trkpt><trkpt lat="45.83696037158734" lon="10.825285101889936"><ele>62.0</ele><time>2026-03-28T14:20:18Z</time></trkpt><trkpt lat="45.8367714387101" lon="10.82522343346699"><ele>62.0</ele><time>2026-03-28T14:20:19.014Z</time></trkpt><trkpt lat="45.83659227158659" lon="10.825172510215433"><ele>62.0</ele><time>2026-03-28T14:20:20.014Z</time></trkpt><trkpt lat="45.83639557221016" lon="10.825142149768967"><ele>62.0</ele><time>2026-03-28T14:20:21.023Z</time></trkpt><trkpt lat="45.836194425772746" lon="10.825135578605902"><ele>62.0</ele><time>2026-03-28T14:20:22.011Z</time></trkpt><trkpt lat="45.83597895458964" lon="10.825154761323052"><ele>62.0</ele><time>2026-03-28T14:20:23.017Z</time></trkpt><trkpt lat="45.83575519449983" lon="10.825179738015954"><ele>62.0</ele><time>2026-03-28T14:20:24.019Z</time></trkpt><trkpt lat="45.835517734413386" lon="10.825214511629282"><ele>62.0</ele><time>2026-03-28T14:20:25.019Z</time></trkpt><trkpt lat="45.83529879628049" lon="10.825261102338649"><ele>62.0</ele><time>2026-03-28T14:20:26.014Z</time></trkpt><trkpt lat="45.833849622910684" lon="10.825459621856757"><ele>62.0</ele><time>2026-03-28T14:20:33Z</time></trkpt><trkpt lat="45.83365529275796" lon="10.825451090173775"><ele>62.0</ele><time>2026-03-28T14:20:34Z</time></trkpt><trkpt lat="45.83346218850502" lon="10.82536107519215"><ele>62.0</ele><time>2026-03-28T14:20:35Z</time></trkpt><trkpt lat="45.83327122751925" lon="10.825291732313357"><ele>63.0</ele><time>2026-03-28T14:20:36Z</time></trkpt><trkpt lat="45.83307725008232" lon="10.82521802205405"><ele>64.0</ele><time>2026-03-28T14:20:37Z</time></trkpt><trkpt lat="45.83289695532504" lon="10.825148033389835"><ele>65.0</ele><time>2026-03-28T14:20:38Z</time></trkpt><trkpt lat="45.83272780626531" lon="10.825033362518997"><ele>73.0</ele><time>2026-03-28T14:20:39Z</time></trkpt><trkpt lat="45.83256888162937" lon="10.824932829867688"><ele>81.0</ele><time>2026-03-28T14:20:40Z</time></trkpt><trkpt lat="45.832425295955964" lon="10.824858697885984"><ele>89.0</ele><time>2026-03-28T14:20:41Z</time></trkpt><trkpt lat="45.832294139238286" lon="10.824786159729058"><ele>89.0</ele><time>2026-03-28T14:20:42Z</time></trkpt><trkpt lat="45.8321713221984" lon="10.824696562695477"><ele>89.0</ele><time>2026-03-28T14:20:43Z</time></trkpt><trkpt lat="45.83205491108782" lon="10.824579469109327"><ele>89.0</ele><time>2026-03-28T14:20:44Z</time></trkpt><trkpt lat="45.83194743018259" lon="10.824440741698849"><ele>89.0</ele><time>2026-03-28T14:20:45Z</time></trkpt><trkpt lat="45.83184165742358" lon="10.824286182982839"><ele>89.33333333333334</ele><time>2026-03-28T14:20:46Z</time></trkpt><trkpt lat="45.831736259398035" lon="10.824126598872299"><ele>89.66666666666667</ele><time>2026-03-28T14:20:47Z</time></trkpt><trkpt lat="45.83162759711431" lon="10.82396207227324"><ele>90.0</ele><time>2026-03-28T14:20:48Z</time></trkpt><trkpt lat="45.8315173031357" lon="10.823795412365172"><ele>90.0</ele><time>2026-03-28T14:20:49Z</time></trkpt><trkpt lat="45.83140722906019" lon="10.823629966372671"><ele>90.0</ele><time>2026-03-28T14:20:50Z</time></trkpt><trkpt lat="45.83129712027541" lon="10.823465939397858"><ele>90.0</ele><time>2026-03-28T14:20:51Z</time></trkpt><trkpt lat="45.83117717644014" lon="10.823315689399134"><ele>89.66666666666667</ele><time>2026-03-28T14:20:52Z</time></trkpt><trkpt lat="45.83105063550089" lon="10.823190104191777"><ele>89.33333333333334</ele><time>2026-03-28T14:20:53Z</time></trkpt><trkpt lat="45.83091203870736" lon="10.823080759205931"><ele>89.0</ele><time>2026-03-28T14:20:54Z</time></trkpt><trkpt lat="45.8307568474969" lon="10.822994447163145"><ele>89.0</ele><time>2026-03-28T14:20:55Z</time></trkpt><trkpt lat="45.830597581397114" lon="10.822912592108507"><ele>89.0</ele><time>2026-03-28T14:20:56Z</time></trkpt><trkpt lat="45.83044674791219" lon="10.82283507101493"><ele>89.0</ele><time>2026-03-28T14:20:57Z</time></trkpt><trkpt lat="45.83030862071231" lon="10.822764080335748"><ele>89.0</ele><time>2026-03-28T14:20:58Z</time></trkpt><trkpt lat="45.83019307699791" lon="10.822704696466005"><ele>89.0</ele><time>2026-03-28T14:20:59Z</time></trkpt><trkpt lat="45.83009500659431" lon="10.822654293029222"><ele>89.0</ele><time>2026-03-28T14:21:00Z</time></trkpt><trkpt lat="45.83000171155665" lon="10.822606343918315"><ele>89.0</ele><time>2026-03-28T14:21:01Z</time></trkpt><trkpt lat="45.82990865604033" lon="10.822558517909888"><ele>89.0</ele><time>2026-03-28T14:21:02Z</time></trkpt><trkpt lat="45.8298160916573" lon="10.82253518341048"><ele>92.0</ele><time>2026-03-28T14:21:03Z</time></trkpt><trkpt lat="45.82974086532607" lon="10.82248530975009"><ele>95.0</ele><time>2026-03-28T14:21:04Z</time></trkpt><trkpt lat="45.82966622709707" lon="10.822450109501384"><ele>98.0</ele><time>2026-03-28T14:21:05Z</time></trkpt><trkpt lat="45.82959536924" lon="10.822408961971425"><ele>101.0</ele><time>2026-03-28T14:21:06Z</time></trkpt><trkpt lat="45.82952862003673" lon="10.82236418484305"><ele>103.99999999999999</ele><time>2026-03-28T14:21:07Z</time></trkpt><trkpt lat="45.82945749344201" lon="10.822312103004858"><ele>107.0</ele><time>2026-03-28T14:21:08Z</time></trkpt><trkpt lat="45.829383677298665" lon="10.822249636764552"><ele>106.99999999999999</ele><time>2026-03-28T14:21:09Z</time></trkpt><trkpt lat="45.829320482582716" lon="10.822180104650355"><ele>107.0</ele><time>2026-03-28T14:21:10Z</time></trkpt><trkpt lat="45.82926753780422" lon="10.82210455145127"><ele>107.0</ele><time>2026-03-28T14:21:11Z</time></trkpt><trkpt lat="45.82922115646798" lon="10.822000786948232"><ele>107.0</ele><time>2026-03-28T14:21:12.022Z</time></trkpt><trkpt lat="45.82915866419575" lon="10.821909681960507"><ele>106.99999999999999</ele><time>2026-03-28T14:21:13.024Z</time></trkpt><trkpt lat="45.8290902827926" lon="10.821815370902346"><ele>107.0</ele><time>2026-03-28T14:21:14.024Z</time></trkpt><trkpt lat="45.829016780917115" lon="10.821709990357961"><ele>108.0</ele><time>2026-03-28T14:21:15.023Z</time></trkpt><trkpt lat="45.82896787104646" lon="10.82159843510657"><ele>108.99999999999999</ele><time>2026-03-28T14:21:16.026Z</time></trkpt><trkpt lat="45.82887081771774" lon="10.821506364807398"><ele>109.99999999999999</ele><time>2026-03-28T14:21:17Z</time></trkpt><trkpt lat="45.82878817113141" lon="10.821406544432353"><ele>111.0</ele><time>2026-03-28T14:21:18Z</time></trkpt><trkpt lat="45.82869285706281" lon="10.821308363643562"><ele>112.0</ele><time>2026-03-28T14:21:19Z</time></trkpt><trkpt lat="45.82859786079421" lon="10.821204052125633"><ele>112.0</ele><time>2026-03-28T14:21:20Z</time></trkpt><trkpt lat="45.82849982203795" lon="10.821105360796574"><ele>112.0</ele><time>2026-03-28T14:21:21Z</time></trkpt><trkpt lat="45.828410653477164" lon="10.821017728402943"><ele>112.0</ele><time>2026-03-28T14:21:22Z</time></trkpt><trkpt lat="45.828327185651" lon="10.820920746611204"><ele>112.0</ele><time>2026-03-28T14:21:23Z</time></trkpt><trkpt lat="45.82824206420545" lon="10.82080882836063"><ele>109.8</ele><time>2026-03-28T14:21:24Z</time></trkpt><trkpt lat="45.828167489023585" lon="10.820691301730898"><ele>107.6</ele><time>2026-03-28T14:21:25Z</time></trkpt><trkpt lat="45.82810352028287" lon="10.820581292518426"><ele>105.39999999999999</ele><time>2026-03-28T14:21:26Z</time></trkpt><trkpt lat="45.82804589487639" lon="10.820475475640215"><ele>103.19999999999999</ele><time>2026-03-28T14:21:27Z</time></trkpt><trkpt lat="45.82799139304226" lon="10.820368599693607"><ele>101.0</ele><time>2026-03-28T14:21:28Z</time></trkpt><trkpt lat="45.82794306645654" lon="10.82025297158578"><ele>105.8</ele><time>2026-03-28T14:21:29Z</time></trkpt><trkpt lat="45.82789694513214" lon="10.820129671158819"><ele>110.6</ele><time>2026-03-28T14:21:30Z</time></trkpt><trkpt lat="45.82785577280516" lon="10.819998652814778"><ele>115.4</ele><time>2026-03-28T14:21:31Z</time></trkpt><trkpt lat="45.82781630576354" lon="10.819861772392777"><ele>120.2</ele><time>2026-03-28T14:21:32Z</time></trkpt><trkpt lat="45.82778475744207" lon="10.819715060394659"><ele>125.0</ele><time>2026-03-28T14:21:33Z</time></trkpt><trkpt lat="45.827757171360915" lon="10.819562543963308"><ele>125.0</ele><time>2026-03-28T14:21:34Z</time></trkpt><trkpt lat="45.82773578803876" lon="10.819402356094715"><ele>125.0</ele><time>2026-03-28T14:21:35Z</time></trkpt><trkpt lat="45.827720532804314" lon="10.819240169033586"><ele>125.0</ele><time>2026-03-28T14:21:35.999Z</time></trkpt><trkpt lat="45.82771552130144" lon="10.819077136519116"><ele>125.0</ele><time>2026-03-28T14:21:36.999Z</time></trkpt><trkpt lat="45.82771462351744" lon="10.818913892801577"><ele>127.75</ele><time>2026-03-28T14:21:37.999Z</time></trkpt><trkpt lat="45.82771448830668" lon="10.81874988432312"><ele>130.5</ele><time>2026-03-28T14:21:38.999Z</time></trkpt><trkpt lat="45.82772194796115" lon="10.818587041813322"><ele>133.25</ele><time>2026-03-28T14:21:39.999Z</time></trkpt><trkpt lat="45.8277304219366" lon="10.818422655695716"><ele>136.0</ele><time>2026-03-28T14:21:40.999Z</time></trkpt><trkpt lat="45.827729329637584" lon="10.818257844128597"><ele>137.5</ele><time>2026-03-28T14:21:41.999Z</time></trkpt><trkpt lat="45.82773239079154" lon="10.818096069388469"><ele>139.0</ele><time>2026-03-28T14:21:42.999Z</time></trkpt><trkpt lat="45.82773205605348" lon="10.817927714270041"><ele>140.5</ele><time>2026-03-28T14:21:43.999Z</time></trkpt><trkpt lat="45.827720747459104" lon="10.817758352172"><ele>142.0</ele><time>2026-03-28T14:21:44.999Z</time></trkpt><trkpt lat="45.82770226811298" lon="10.817592738183182"><ele>146.25</ele><time>2026-03-28T14:21:45.999Z</time></trkpt><trkpt lat="45.82766958576907" lon="10.817422141349349"><ele>150.5</ele><time>2026-03-28T14:21:46.999Z</time></trkpt><trkpt lat="45.82762134580244" lon="10.817243333421311"><ele>154.75</ele><time>2026-03-28T14:21:47.999Z</time></trkpt><trkpt lat="45.827579530561025" lon="10.817070237968847"><ele>159.0</ele><time>2026-03-28T14:21:48.999Z</time></trkpt><trkpt lat="45.82750662866887" lon="10.816928023803365"><ele>151.5</ele><time>2026-03-28T14:21:49.999Z</time></trkpt><trkpt lat="45.827441205382144" lon="10.816776939279503"><ele>144.0</ele><time>2026-03-28T14:21:50.999Z</time></trkpt><trkpt lat="45.8273644812736" lon="10.816631349165778"><ele>136.5</ele><time>2026-03-28T14:21:51.999Z</time></trkpt><trkpt lat="45.82729189771045" lon="10.816479220284242"><ele>129.0</ele><time>2026-03-28T14:21:52.999Z</time></trkpt><trkpt lat="45.82719989618788" lon="10.816344050255989"><ele>129.0</ele><time>2026-03-28T14:21:53.999Z</time></trkpt><trkpt lat="45.82708862614483" lon="10.816211849069473"><ele>129.0</ele><time>2026-03-28T14:21:54.999Z</time></trkpt><trkpt lat="45.826963083938246" lon="10.816091082249526"><ele>129.0</ele><time>2026-03-28T14:21:55.999Z</time></trkpt><trkpt lat="45.82682774671913" lon="10.815960894067029"><ele>124.33333333333334</ele><time>2026-03-28T14:21:56.999Z</time></trkpt><trkpt lat="45.826697707844794" lon="10.815835802206518"><ele>119.66666666666667</ele><time>2026-03-28T14:21:57.999Z</time></trkpt><trkpt lat="45.82657066174898" lon="10.815714709829141"><ele>115.0</ele><time>2026-03-28T14:21:58.999Z</time></trkpt><trkpt lat="45.82645309472638" lon="10.815604161081012"><ele>115.0</ele><time>2026-03-28T14:22:00Z</time></trkpt><trkpt lat="45.82634632569837" lon="10.815501339141992"><ele>115.0</ele><time>2026-03-28T14:22:01Z</time></trkpt><trkpt lat="45.826246780646436" lon="10.815395944591112"><ele>115.0</ele><time>2026-03-28T14:22:02Z</time></trkpt><trkpt lat="45.82616543938182" lon="10.815286826032173"><ele>115.0</ele><time>2026-03-28T14:22:03Z</time></trkpt><trkpt lat="45.82609003521365" lon="10.815173052915766"><ele>113.2</ele><time>2026-03-28T14:22:04Z</time></trkpt><trkpt lat="45.826013153138085" lon="10.81506621279222"><ele>111.4</ele><time>2026-03-28T14:22:05Z</time></trkpt><trkpt lat="45.825962205229686" lon="10.814935708596547"><ele>109.6</ele><time>2026-03-28T14:22:06Z</time></trkpt><trkpt lat="45.82591104882419" lon="10.814807561704363"><ele>107.8</ele><time>2026-03-28T14:22:07Z</time></trkpt><trkpt lat="45.82586186965057" lon="10.814683949049048"><ele>106.0</ele><time>2026-03-28T14:22:08Z</time></trkpt><trkpt lat="45.82581552061375" lon="10.81456783898745"><ele>106.0</ele><time>2026-03-28T14:22:09Z</time></trkpt><trkpt lat="45.82577043019867" lon="10.814469052636548"><ele>106.0</ele><time>2026-03-28T14:22:10Z</time></trkpt><trkpt lat="45.825726252284305" lon="10.81437886281878"><ele>106.0</ele><time>2026-03-28T14:22:11Z</time></trkpt><trkpt lat="45.825673142006835" lon="10.814282429449063"><ele>106.0</ele><time>2026-03-28T14:22:12Z</time></trkpt><trkpt lat="45.82559847966964" lon="10.814181822711555"><ele>106.0</ele><time>2026-03-28T14:22:13Z</time></trkpt><trkpt lat="45.82553242127738" lon="10.814048701204818"><ele>110.4</ele><time>2026-03-28T14:22:14Z</time></trkpt><trkpt lat="45.82545066717384" lon="10.813913031431245"><ele>114.8</ele><time>2026-03-28T14:22:15Z</time></trkpt><trkpt lat="45.82536684620533" lon="10.813800888709304"><ele>119.20000000000002</ele><time>2026-03-28T14:22:16Z</time></trkpt><trkpt lat="45.82529452391764" lon="10.813717301900015"><ele>123.60000000000001</ele><time>2026-03-28T14:22:17Z</time></trkpt><trkpt lat="45.82523151679855" lon="10.813647799676165"><ele>128.0</ele><time>2026-03-28T14:22:18Z</time></trkpt><trkpt lat="45.825162820682785" lon="10.813602869252477"><ele>127.0</ele><time>2026-03-28T14:22:19Z</time></trkpt><trkpt lat="45.82510935446883" lon="10.813541971748393"><ele>125.99999999999999</ele><time>2026-03-28T14:22:20Z</time></trkpt><trkpt lat="45.82505999715754" lon="10.813482899467308"><ele>125.0</ele><time>2026-03-28T14:22:21Z</time></trkpt><trkpt lat="45.825022252149495" lon="10.813401864232254"><ele>124.0</ele><time>2026-03-28T14:22:22Z</time></trkpt><trkpt lat="45.82496984442336" lon="10.813340139780532"><ele>122.99999999999999</ele><time>2026-03-28T14:22:23Z</time></trkpt><trkpt lat="45.82492244486638" lon="10.813261902333027"><ele>122.0</ele><time>2026-03-28T14:22:24Z</time></trkpt><trkpt lat="45.824876584134635" lon="10.81317957411467"><ele>121.0</ele><time>2026-03-28T14:22:25Z</time></trkpt><trkpt lat="45.824831269379246" lon="10.8130954937499"><ele>121.00000000000001</ele><time>2026-03-28T14:22:26Z</time></trkpt><trkpt lat="45.824795886542674" lon="10.813018978981873"><ele>121.0</ele><time>2026-03-28T14:22:27Z</time></trkpt><trkpt lat="45.824751020007184" lon="10.812912153214194"><ele>121.0</ele><time>2026-03-28T14:22:29Z</time></trkpt><trkpt lat="45.824717815543046" lon="10.812819260047737"><ele>121.0</ele><time>2026-03-28T14:22:32Z</time></trkpt><trkpt lat="45.824686000102886" lon="10.812729613117593"><ele>121.00000000000001</ele><time>2026-03-28T14:22:35Z</time></trkpt><trkpt lat="45.82464477115975" lon="10.812624183074538"><ele>121.0</ele><time>2026-03-28T14:22:37Z</time></trkpt><trkpt lat="45.824625419089834" lon="10.812470526379624"><ele>122.33333333333334</ele><time>2026-03-28T14:22:39Z</time></trkpt><trkpt lat="45.82460417863089" lon="10.812377666980678"><ele>123.66666666666667</ele><time>2026-03-28T14:22:40Z</time></trkpt><trkpt lat="45.82456213229417" lon="10.812266863989924"><ele>125.0</ele><time>2026-03-28T14:22:41Z</time></trkpt><trkpt lat="45.82454797997218" lon="10.812147246517023"><ele>126.33333333333334</ele><time>2026-03-28T14:22:42Z</time></trkpt><trkpt lat="45.8245310164615" lon="10.812031984215738"><ele>127.66666666666667</ele><time>2026-03-28T14:22:43Z</time></trkpt><trkpt lat="45.82450806444725" lon="10.811920727461823"><ele>129.0</ele><time>2026-03-28T14:22:44Z</time></trkpt><trkpt lat="45.824476849920714" lon="10.81180694602453"><ele>130.2</ele><time>2026-03-28T14:22:45Z</time></trkpt><trkpt lat="45.82444011920098" lon="10.811678618003222"><ele>131.4</ele><time>2026-03-28T14:22:46Z</time></trkpt><trkpt lat="45.82440548398904" lon="10.811528074387976"><ele>132.6</ele><time>2026-03-28T14:22:47Z</time></trkpt><trkpt lat="45.82437147481901" lon="10.81137592408988"><ele>133.8</ele><time>2026-03-28T14:22:48Z</time></trkpt><trkpt lat="45.82434210076764" lon="10.811217795174107"><ele>135.0</ele><time>2026-03-28T14:22:49Z</time></trkpt><trkpt lat="45.824305847952736" lon="10.811062133829756"><ele>129.4</ele><time>2026-03-28T14:22:50Z</time></trkpt><trkpt lat="45.824272200239015" lon="10.810916309630576"><ele>123.8</ele><time>2026-03-28T14:22:51Z</time></trkpt><trkpt lat="45.824246701896215" lon="10.810794262959247"><ele>118.19999999999999</ele><time>2026-03-28T14:22:52Z</time></trkpt><trkpt lat="45.82423178379496" lon="10.810653593023035"><ele>112.6</ele><time>2026-03-28T14:22:54Z</time></trkpt><trkpt lat="45.8242216784364" lon="10.81051939570696"><ele>107.0</ele><time>2026-03-28T14:22:57Z</time></trkpt><trkpt lat="45.82421578321427" lon="10.810382577158755"><ele>106.99999999999999</ele><time>2026-03-28T14:22:59Z</time></trkpt><trkpt lat="45.82421359241936" lon="10.810289233577487"><ele>107.0</ele><time>2026-03-28T14:23:00Z</time></trkpt><trkpt lat="45.82421503618547" lon="10.810176689207596"><ele>107.0</ele><time>2026-03-28T14:23:01Z</time></trkpt><trkpt lat="45.824221587708266" lon="10.81005368334972"><ele>107.0</ele><time>2026-03-28T14:23:02Z</time></trkpt><trkpt lat="45.824232868535105" lon="10.809922240770014"><ele>106.99999999999999</ele><time>2026-03-28T14:23:03Z</time></trkpt><trkpt lat="45.82423936879842" lon="10.80978915835962"><ele>107.0</ele><time>2026-03-28T14:23:04Z</time></trkpt><trkpt lat="45.82424616806875" lon="10.809651680245503"><ele>107.19999999999999</ele><time>2026-03-28T14:23:05Z</time></trkpt><trkpt lat="45.82425000963245" lon="10.809518885524623"><ele>107.39999999999999</ele><time>2026-03-28T14:23:06Z</time></trkpt><trkpt lat="45.8242365836684" lon="10.809391812640488"><ele>107.60000000000001</ele><time>2026-03-28T14:23:07Z</time></trkpt><trkpt lat="45.82420599322935" lon="10.809265690289887"><ele>107.80000000000001</ele><time>2026-03-28T14:23:08Z</time></trkpt><trkpt lat="45.82416653365197" lon="10.809151425990041"><ele>108.0</ele><time>2026-03-28T14:23:09Z</time></trkpt><trkpt lat="45.824114030925564" lon="10.809046419186634"><ele>111.2</ele><time>2026-03-28T14:23:10Z</time></trkpt><trkpt lat="45.82405126383453" lon="10.808944782533723"><ele>114.4</ele><time>2026-03-28T14:23:11Z</time></trkpt><trkpt lat="45.82398028862384" lon="10.808845324663897"><ele>117.60000000000001</ele><time>2026-03-28T14:23:12Z</time></trkpt><trkpt lat="45.82390091352667" lon="10.808749990678153"><ele>120.80000000000001</ele><time>2026-03-28T14:23:13Z</time></trkpt><trkpt lat="45.82381165849943" lon="10.808653860389057"><ele>124.0</ele><time>2026-03-28T14:23:14Z</time></trkpt><trkpt lat="45.82372721238908" lon="10.808553205009552"><ele>119.0</ele><time>2026-03-28T14:23:15Z</time></trkpt><trkpt lat="45.823645650007215" lon="10.808445764133943"><ele>114.0</ele><time>2026-03-28T14:23:16Z</time></trkpt><trkpt lat="45.82356972407065" lon="10.808337645679815"><ele>109.0</ele><time>2026-03-28T14:23:17Z</time></trkpt><trkpt lat="45.82349924880517" lon="10.808242715682544"><ele>104.0</ele><time>2026-03-28T14:23:18Z</time></trkpt><trkpt lat="45.823443683928446" lon="10.808122002752448"><ele>99.0</ele><time>2026-03-28T14:23:19Z</time></trkpt><trkpt lat="45.823387714503504" lon="10.80800510853844"><ele>99.0</ele><time>2026-03-28T14:23:20Z</time></trkpt><trkpt lat="45.823332253786965" lon="10.807883781130508"><ele>99.0</ele><time>2026-03-28T14:23:21.027Z</time></trkpt><trkpt lat="45.823294143098" lon="10.807765470492434"><ele>99.0</ele><time>2026-03-28T14:23:22.019Z</time></trkpt><trkpt lat="45.82324021532545" lon="10.807600853856256"><ele>99.0</ele><time>2026-03-28T14:23:23Z</time></trkpt><trkpt lat="45.82318787379903" lon="10.807393254877276"><ele>108.0</ele><time>2026-03-28T14:23:24Z</time></trkpt><trkpt lat="45.823146022395186" lon="10.807208338998668"><ele>117.0</ele><time>2026-03-28T14:23:25Z</time></trkpt><trkpt lat="45.82310622805999" lon="10.807010493830001"><ele>126.0</ele><time>2026-03-28T14:23:26Z</time></trkpt><trkpt lat="45.823052980230514" lon="10.806830066038856"><ele>135.0</ele><time>2026-03-28T14:23:27Z</time></trkpt><trkpt lat="45.8230121840589" lon="10.806630829283659"><ele>143.75</ele><time>2026-03-28T14:23:28.023Z</time></trkpt><trkpt lat="45.823017009954384" lon="10.806428146409427"><ele>152.5</ele><time>2026-03-28T14:23:29.02Z</time></trkpt><trkpt lat="45.822992839916004" lon="10.806226253761084"><ele>161.25</ele><time>2026-03-28T14:23:30.021Z</time></trkpt><trkpt lat="45.822983490062974" lon="10.806027015533301"><ele>170.0</ele><time>2026-03-28T14:23:31.023Z</time></trkpt><trkpt lat="45.82279443745112" lon="10.805476997057726"><ele>175.25</ele><time>2026-03-28T14:23:34Z</time></trkpt><trkpt lat="45.82275056830363" lon="10.805304971011411"><ele>180.5</ele><time>2026-03-28T14:23:35Z</time></trkpt><trkpt lat="45.82267190028562" lon="10.805146989575793"><ele>185.75</ele><time>2026-03-28T14:23:36Z</time></trkpt><trkpt lat="45.82258865703231" lon="10.804982928823065"><ele>191.0</ele><time>2026-03-28T14:23:37Z</time></trkpt><trkpt lat="45.8225207367761" lon="10.804807062676044"><ele>177.5</ele><time>2026-03-28T14:23:38Z</time></trkpt><trkpt lat="45.82245187730552" lon="10.80463319172641"><ele>164.0</ele><time>2026-03-28T14:23:39Z</time></trkpt><trkpt lat="45.82238222757251" lon="10.804463904485226"><ele>150.5</ele><time>2026-03-28T14:23:40Z</time></trkpt><trkpt lat="45.82231604519854" lon="10.804326883976273"><ele>137.0</ele><time>2026-03-28T14:23:41Z</time></trkpt><trkpt lat="45.82220606154963" lon="10.804205860198932"><ele>137.0</ele><time>2026-03-28T14:23:42Z</time></trkpt><trkpt lat="45.82213665948175" lon="10.804041553590588"><ele>137.0</ele><time>2026-03-28T14:23:43Z</time></trkpt><trkpt lat="45.82209299458235" lon="10.80385832986439"><ele>137.0</ele><time>2026-03-28T14:23:44Z</time></trkpt><trkpt lat="45.82201089468169" lon="10.803690974841183"><ele>137.0</ele><time>2026-03-28T14:23:45Z</time></trkpt><trkpt lat="45.821948813129126" lon="10.803553737400375"><ele>138.25</ele><time>2026-03-28T14:23:46Z</time></trkpt><trkpt lat="45.82188688706597" lon="10.80340096101068"><ele>139.5</ele><time>2026-03-28T14:23:46.999Z</time></trkpt><trkpt lat="45.821833821413065" lon="10.80324445207257"><ele>140.75</ele><time>2026-03-28T14:23:47.999Z</time></trkpt><trkpt lat="45.82178029410959" lon="10.803087048579629"><ele>142.0</ele><time>2026-03-28T14:23:48.999Z</time></trkpt><trkpt lat="45.821733859350374" lon="10.802927123774277"><ele>135.0</ele><time>2026-03-28T14:23:49.999Z</time></trkpt><trkpt lat="45.82170632127588" lon="10.802757057956892"><ele>128.0</ele><time>2026-03-28T14:23:50.999Z</time></trkpt><trkpt lat="45.82168061313351" lon="10.802582564188798"><ele>121.0</ele><time>2026-03-28T14:23:51.999Z</time></trkpt><trkpt lat="45.82166702976382" lon="10.802409778807279"><ele>114.0</ele><time>2026-03-28T14:23:52.999Z</time></trkpt><trkpt lat="45.821662120759" lon="10.802244847242672"><ele>114.0</ele><time>2026-03-28T14:23:53.999Z</time></trkpt><trkpt lat="45.82166965640994" lon="10.802080041955207"><ele>114.0</ele><time>2026-03-28T14:23:54.999Z</time></trkpt><trkpt lat="45.82168368741207" lon="10.801922004969278"><ele>114.0</ele><time>2026-03-28T14:23:55.999Z</time></trkpt><trkpt lat="45.821688360694274" lon="10.801766969074784"><ele>114.0</ele><time>2026-03-28T14:23:56.999Z</time></trkpt><trkpt lat="45.8216963772133" lon="10.801613383630347"><ele>114.0</ele><time>2026-03-28T14:23:57.999Z</time></trkpt><trkpt lat="45.82169505474919" lon="10.801466250975082"><ele>113.80000000000001</ele><time>2026-03-28T14:23:58.999Z</time></trkpt><trkpt lat="45.82168194752208" lon="10.801312856396764"><ele>113.60000000000001</ele><time>2026-03-28T14:23:59.999Z</time></trkpt><trkpt lat="45.82165961695696" lon="10.801161380829447"><ele>113.4</ele><time>2026-03-28T14:24:00.999Z</time></trkpt><trkpt lat="45.821626321002924" lon="10.80100849083727"><ele>113.2</ele><time>2026-03-28T14:24:01.999Z</time></trkpt><trkpt lat="45.82158604089316" lon="10.80084724894683"><ele>113.0</ele><time>2026-03-28T14:24:02.999Z</time></trkpt><trkpt lat="45.82154130029788" lon="10.800693469768062"><ele>113.0</ele><time>2026-03-28T14:24:03.999Z</time></trkpt><trkpt lat="45.82148956002312" lon="10.800546096758746"><ele>113.0</ele><time>2026-03-28T14:24:04.999Z</time></trkpt><trkpt lat="45.82143451260666" lon="10.800400781573225"><ele>113.0</ele><time>2026-03-28T14:24:06Z</time></trkpt><trkpt lat="45.821365471417074" lon="10.80025479181442"><ele>113.0</ele><time>2026-03-28T14:24:07Z</time></trkpt><trkpt lat="45.82129154203789" lon="10.80013615032042"><ele>109.0</ele><time>2026-03-28T14:24:08Z</time></trkpt><trkpt lat="45.82120494699294" lon="10.800025913932949"><ele>105.0</ele><time>2026-03-28T14:24:09Z</time></trkpt><trkpt lat="45.82110772474646" lon="10.799921925090759"><ele>101.0</ele><time>2026-03-28T14:24:10Z</time></trkpt><trkpt lat="45.821000032367074" lon="10.799824260186323"><ele>97.0</ele><time>2026-03-28T14:24:11Z</time></trkpt><trkpt lat="45.82088623100816" lon="10.799726327232694"><ele>97.0</ele><time>2026-03-28T14:24:12Z</time></trkpt><trkpt lat="45.82077362989957" lon="10.799619003890301"><ele>97.0</ele><time>2026-03-28T14:24:13Z</time></trkpt><trkpt lat="45.820669843076544" lon="10.799499803390537"><ele>97.0</ele><time>2026-03-28T14:24:14Z</time></trkpt><trkpt lat="45.820577520655256" lon="10.799381051773741"><ele>97.0</ele><time>2026-03-28T14:24:15Z</time></trkpt><trkpt lat="45.820493573182354" lon="10.799240062838255"><ele>106.75</ele><time>2026-03-28T14:24:16Z</time></trkpt><trkpt lat="45.82041368038501" lon="10.79908197088863"><ele>116.5</ele><time>2026-03-28T14:24:17Z</time></trkpt><trkpt lat="45.82033624570803" lon="10.79890600276944"><ele>126.25</ele><time>2026-03-28T14:24:18.018Z</time></trkpt><trkpt lat="45.820256123371074" lon="10.798728187559663"><ele>136.0</ele><time>2026-03-28T14:24:19.024Z</time></trkpt><trkpt lat="45.82015422592858" lon="10.798554209475451"><ele>126.0</ele><time>2026-03-28T14:24:20.025Z</time></trkpt><trkpt lat="45.82005569067206" lon="10.798366099215102"><ele>116.0</ele><time>2026-03-28T14:24:21.015Z</time></trkpt><trkpt lat="45.81966849519807" lon="10.79756713483477"><ele>130.66666666666666</ele><time>2026-03-28T14:24:24Z</time></trkpt><trkpt lat="45.819551638238906" lon="10.797328092567021"><ele>145.33333333333334</ele><time>2026-03-28T14:24:25Z</time></trkpt><trkpt lat="45.81945057002431" lon="10.797132465099128"><ele>160.0</ele><time>2026-03-28T14:24:26Z</time></trkpt><trkpt lat="45.8193515717924" lon="10.796927064968202"><ele>145.0</ele><time>2026-03-28T14:24:27Z</time></trkpt><trkpt lat="45.81925507047878" lon="10.796730355823799"><ele>130.0</ele><time>2026-03-28T14:24:28Z</time></trkpt><trkpt lat="45.819147902943634" lon="10.796584681164061"><ele>115.0</ele><time>2026-03-28T14:24:29Z</time></trkpt><trkpt lat="45.81902988477259" lon="10.796476971326738"><ele>115.0</ele><time>2026-03-28T14:24:30Z</time></trkpt><trkpt lat="45.81892079880709" lon="10.7963768339216"><ele>115.0</ele><time>2026-03-28T14:24:31Z</time></trkpt><trkpt lat="45.818823249498585" lon="10.796289627550616"><ele>115.0</ele><time>2026-03-28T14:24:32Z</time></trkpt><trkpt lat="45.81872945649646" lon="10.796203625928102"><ele>115.0</ele><time>2026-03-28T14:24:33Z</time></trkpt><trkpt lat="45.81863495456488" lon="10.796121744054098"><ele>115.0</ele><time>2026-03-28T14:24:34Z</time></trkpt><trkpt lat="45.81854575864817" lon="10.796043308676936"><ele>115.0</ele><time>2026-03-28T14:24:35Z</time></trkpt><trkpt lat="45.81846874393674" lon="10.795971518442155"><ele>115.0</ele><time>2026-03-28T14:24:36Z</time></trkpt><trkpt lat="45.81839519930107" lon="10.795894968699349"><ele>115.0</ele><time>2026-03-28T14:24:37Z</time></trkpt><trkpt lat="45.81832775338043" lon="10.795812096013973"><ele>115.0</ele><time>2026-03-28T14:24:38Z</time></trkpt><trkpt lat="45.81826922012121" lon="10.795725146043669"><ele>112.66666666666667</ele><time>2026-03-28T14:24:39Z</time></trkpt><trkpt lat="45.818213836604365" lon="10.795636160993526"><ele>110.33333333333334</ele><time>2026-03-28T14:24:40Z</time></trkpt><trkpt lat="45.8181582165257" lon="10.79555138033307"><ele>108.0</ele><time>2026-03-28T14:24:41Z</time></trkpt><trkpt lat="45.81810380196338" lon="10.79546488779799"><ele>105.66666666666666</ele><time>2026-03-28T14:24:42Z</time></trkpt><trkpt lat="45.81804755999388" lon="10.795375117150213"><ele>103.33333333333333</ele><time>2026-03-28T14:24:43Z</time></trkpt><trkpt lat="45.81799358391015" lon="10.795276110591422"><ele>101.0</ele><time>2026-03-28T14:24:44Z</time></trkpt><trkpt lat="45.81793544831425" lon="10.795174286429393"><ele>99.83333333333333</ele><time>2026-03-28T14:24:45Z</time></trkpt><trkpt lat="45.81787329130815" lon="10.795075085175206"><ele>98.66666666666666</ele><time>2026-03-28T14:24:46Z</time></trkpt><trkpt lat="45.81781869751533" lon="10.794976274444185"><ele>97.5</ele><time>2026-03-28T14:24:47Z</time></trkpt><trkpt lat="45.817759941457254" lon="10.794879435823718"><ele>96.33333333333333</ele><time>2026-03-28T14:24:48Z</time></trkpt><trkpt lat="45.81769933562798" lon="10.794785326959925"><ele>95.16666666666666</ele><time>2026-03-28T14:24:49Z</time></trkpt><trkpt lat="45.81764114882082" lon="10.794693839613316"><ele>94.0</ele><time>2026-03-28T14:24:50Z</time></trkpt><trkpt lat="45.81758699172641" lon="10.794601543928852"><ele>94.0</ele><time>2026-03-28T14:24:51Z</time></trkpt><trkpt lat="45.817534401227135" lon="10.794508363035765"><ele>94.0</ele><time>2026-03-28T14:24:52Z</time></trkpt><trkpt lat="45.81748795602059" lon="10.794406335118675"><ele>94.0</ele><time>2026-03-28T14:24:53Z</time></trkpt><trkpt lat="45.81744134958072" lon="10.794301898745337"><ele>94.0</ele><time>2026-03-28T14:24:54Z</time></trkpt><trkpt lat="45.81740347142597" lon="10.794196100498704"><ele>94.0</ele><time>2026-03-28T14:24:55Z</time></trkpt><trkpt lat="45.81737324112597" lon="10.79409185325655"><ele>94.0</ele><time>2026-03-28T14:24:56Z</time></trkpt><trkpt lat="45.817343091584675" lon="10.793992843256115"><ele>98.66666666666666</ele><time>2026-03-28T14:24:57Z</time></trkpt><trkpt lat="45.8173127887247" lon="10.793898944879723"><ele>103.33333333333333</ele><time>2026-03-28T14:24:58Z</time></trkpt><trkpt lat="45.817277661617965" lon="10.793808197141912"><ele>108.0</ele><time>2026-03-28T14:24:59Z</time></trkpt><trkpt lat="45.817243942875294" lon="10.793707666250892"><ele>112.66666666666666</ele><time>2026-03-28T14:25:00Z</time></trkpt><trkpt lat="45.81720605251449" lon="10.793596392831796"><ele>117.33333333333333</ele><time>2026-03-28T14:25:01Z</time></trkpt><trkpt lat="45.81717273733147" lon="10.793475821732597"><ele>122.0</ele><time>2026-03-28T14:25:02Z</time></trkpt><trkpt lat="45.81713471800008" lon="10.793350413794276"><ele>125.99999999999999</ele><time>2026-03-28T14:25:03Z</time></trkpt><trkpt lat="45.81710211908917" lon="10.793228775905698"><ele>130.0</ele><time>2026-03-28T14:25:04Z</time></trkpt><trkpt lat="45.81705697980529" lon="10.79312221619093"><ele>134.0</ele><time>2026-03-28T14:25:05Z</time></trkpt><trkpt lat="45.817006771880116" lon="10.793012349491358"><ele>138.0</ele><time>2026-03-28T14:25:06Z</time></trkpt><trkpt lat="45.81695992740309" lon="10.792909146220925"><ele>142.0</ele><time>2026-03-28T14:25:07Z</time></trkpt><trkpt lat="45.8169131574338" lon="10.792806385780404"><ele>146.0</ele><time>2026-03-28T14:25:08Z</time></trkpt><trkpt lat="45.816866684732254" lon="10.792706824265666"><ele>143.6</ele><time>2026-03-28T14:25:09Z</time></trkpt><trkpt lat="45.81681517391471" lon="10.792605093413384"><ele>141.2</ele><time>2026-03-28T14:25:10.016Z</time></trkpt><trkpt lat="45.81675559063658" lon="10.792515467669293"><ele>138.8</ele><time>2026-03-28T14:25:11.017Z</time></trkpt><trkpt lat="45.81670644810506" lon="10.792428207474384"><ele>136.4</ele><time>2026-03-28T14:25:12.026Z</time></trkpt><trkpt lat="45.81665369856534" lon="10.792350848039371"><ele>134.0</ele><time>2026-03-28T14:25:13.021Z</time></trkpt><trkpt lat="45.816065709984144" lon="10.79159394845269"><ele>100.0</ele><time>2026-03-28T14:25:24.545Z</time></trkpt><trkpt lat="45.81499545373564" lon="10.791321890438713"><ele>100.0</ele><time>2026-03-28T14:25:30Z</time></trkpt><trkpt lat="45.81488825072926" lon="10.79131435884584"><ele>100.0</ele><time>2026-03-28T14:25:31Z</time></trkpt><trkpt lat="45.81478533561409" lon="10.791406187853836"><ele>100.0</ele><time>2026-03-28T14:25:32Z</time></trkpt><trkpt lat="45.81467690585375" lon="10.791426807109227"><ele>100.0</ele><time>2026-03-28T14:25:33Z</time></trkpt><trkpt lat="45.8145813144929" lon="10.791450833040034"><ele>100.0</ele><time>2026-03-28T14:25:34Z</time></trkpt><trkpt lat="45.81448371561262" lon="10.791502717945393"><ele>100.0</ele><time>2026-03-28T14:25:35Z</time></trkpt><trkpt lat="45.81438987609088" lon="10.79153753942094"><ele>100.0</ele><time>2026-03-28T14:25:36Z</time></trkpt><trkpt lat="45.8143021621384" lon="10.79158310144732"><ele>100.0</ele><time>2026-03-28T14:25:37Z</time></trkpt><trkpt lat="45.81422953028319" lon="10.79162059130906"><ele>100.0</ele><time>2026-03-28T14:25:38Z</time></trkpt><trkpt lat="45.814139261841646" lon="10.79164373289437"><ele>100.0</ele><time>2026-03-28T14:25:39Z</time></trkpt><trkpt lat="45.81405272822425" lon="10.791688399457131"><ele>99.83333333333334</ele><time>2026-03-28T14:25:40Z</time></trkpt><trkpt lat="45.81397928394635" lon="10.791708997203147"><ele>99.66666666666667</ele><time>2026-03-28T14:25:42Z</time></trkpt><trkpt lat="45.81392512889422" lon="10.791656466150954"><ele>99.5</ele><time>2026-03-28T14:25:44Z</time></trkpt><trkpt lat="45.81385987291147" lon="10.791659457125109"><ele>99.33333333333334</ele><time>2026-03-28T14:25:48Z</time></trkpt><trkpt lat="45.81382521722497" lon="10.791772869718598"><ele>99.16666666666667</ele><time>2026-03-28T14:29:08.999Z</time></trkpt><trkpt lat="45.81376316049962" lon="10.791846100779559"><ele>99.0</ele><time>2026-03-28T14:29:10.999Z</time></trkpt><trkpt lat="45.81367350498849" lon="10.79191922506523"><ele>97.80000000000001</ele><time>2026-03-28T14:29:12.999Z</time></trkpt><trkpt lat="45.81354071483446" lon="10.791995055361497"><ele>96.60000000000001</ele><time>2026-03-28T14:29:14.999Z</time></trkpt><trkpt lat="45.81345088908261" lon="10.792002407389777"><ele>95.4</ele><time>2026-03-28T14:29:15.999Z</time></trkpt><trkpt lat="45.81337078020024" lon="10.79204411230788"><ele>94.2</ele><time>2026-03-28T14:29:16.999Z</time></trkpt><trkpt lat="45.8132966139643" lon="10.79207915384414"><ele>93.0</ele><time>2026-03-28T14:29:17.999Z</time></trkpt><trkpt lat="45.81321477568708" lon="10.792115358411072"><ele>93.0</ele><time>2026-03-28T14:29:18.999Z</time></trkpt><trkpt lat="45.81312715800764" lon="10.792150499414813"><ele>93.0</ele><time>2026-03-28T14:29:19.999Z</time></trkpt><trkpt lat="45.81304042296801" lon="10.792178932159784"><ele>93.0</ele><time>2026-03-28T14:29:20.999Z</time></trkpt><trkpt lat="45.812937617759005" lon="10.792207001296648"><ele>93.0</ele><time>2026-03-28T14:29:21.999Z</time></trkpt><trkpt lat="45.81283325032489" lon="10.79223013615593"><ele>93.0</ele><time>2026-03-28T14:29:22.999Z</time></trkpt><trkpt lat="45.81272931565484" lon="10.79224603656067"><ele>93.75</ele><time>2026-03-28T14:29:23.999Z</time></trkpt><trkpt lat="45.812621844841324" lon="10.792258047780846"><ele>94.5</ele><time>2026-03-28T14:29:24.999Z</time></trkpt><trkpt lat="45.81251296659161" lon="10.79226474111161"><ele>95.25</ele><time>2026-03-28T14:29:25.999Z</time></trkpt><trkpt lat="45.81239682951379" lon="10.792264398471938"><ele>96.0</ele><time>2026-03-28T14:29:26.999Z</time></trkpt><trkpt lat="45.81227689493051" lon="10.792254338107206"><ele>96.0</ele><time>2026-03-28T14:29:27.999Z</time></trkpt><trkpt lat="45.81215788860364" lon="10.792238421599905"><ele>96.0</ele><time>2026-03-28T14:29:28.999Z</time></trkpt><trkpt lat="45.81203692615195" lon="10.79221454238696"><ele>96.0</ele><time>2026-03-28T14:29:29.999Z</time></trkpt><trkpt lat="45.81191087519773" lon="10.792181926291743"><ele>96.0</ele><time>2026-03-28T14:29:30.999Z</time></trkpt><trkpt lat="45.811780358290626" lon="10.792141195880227"><ele>95.5</ele><time>2026-03-28T14:29:31.999Z</time></trkpt><trkpt lat="45.81164829366654" lon="10.79210196073163"><ele>95.0</ele><time>2026-03-28T14:29:32.999Z</time></trkpt><trkpt lat="45.81152491964231" lon="10.792066063831248"><ele>94.5</ele><time>2026-03-28T14:29:33.999Z</time></trkpt><trkpt lat="45.81141118620428" lon="10.792031084062769"><ele>94.0</ele><time>2026-03-28T14:29:34.999Z</time></trkpt><trkpt lat="45.81129606623261" lon="10.791991013122798"><ele>94.0</ele><time>2026-03-28T14:29:35.999Z</time></trkpt><trkpt lat="45.811189369447234" lon="10.791944855089952"><ele>94.0</ele><time>2026-03-28T14:29:36.999Z</time></trkpt><trkpt lat="45.81108953061196" lon="10.791894225515424"><ele>94.0</ele><time>2026-03-28T14:29:37.999Z</time></trkpt><trkpt lat="45.81098897253699" lon="10.791832365941254"><ele>94.0</ele><time>2026-03-28T14:29:38.999Z</time></trkpt><trkpt lat="45.81088243863511" lon="10.791754627284723"><ele>94.0</ele><time>2026-03-28T14:29:39.999Z</time></trkpt><trkpt lat="45.81078631885696" lon="10.791665516454445"><ele>94.5</ele><time>2026-03-28T14:29:40.999Z</time></trkpt><trkpt lat="45.810687169171445" lon="10.79156751911216"><ele>95.0</ele><time>2026-03-28T14:29:41.999Z</time></trkpt><trkpt lat="45.81058562675249" lon="10.791467156734015"><ele>95.5</ele><time>2026-03-28T14:29:42.999Z</time></trkpt><trkpt lat="45.810486183543276" lon="10.791368869266035"><ele>96.0</ele><time>2026-03-28T14:29:43.999Z</time></trkpt><trkpt lat="45.81038067800861" lon="10.791267875129384"><ele>96.0</ele><time>2026-03-28T14:29:44.999Z</time></trkpt><trkpt lat="45.810271307390956" lon="10.79116764706254"><ele>96.0</ele><time>2026-03-28T14:29:45.999Z</time></trkpt><trkpt lat="45.81015716347224" lon="10.791070387078339"><ele>96.0</ele><time>2026-03-28T14:29:46.999Z</time></trkpt><trkpt lat="45.810044319140815" lon="10.790977746346947"><ele>96.0</ele><time>2026-03-28T14:29:47.999Z</time></trkpt><trkpt lat="45.80993927157268" lon="10.790891195555188"><ele>95.6</ele><time>2026-03-28T14:29:48.999Z</time></trkpt><trkpt lat="45.80984274621265" lon="10.790810694382396"><ele>95.19999999999999</ele><time>2026-03-28T14:29:49.999Z</time></trkpt><trkpt lat="45.80975173083806" lon="10.790734386551604"><ele>94.80000000000001</ele><time>2026-03-28T14:29:50.999Z</time></trkpt><trkpt lat="45.80966836317866" lon="10.790665563531128"><ele>94.4</ele><time>2026-03-28T14:29:51.999Z</time></trkpt><trkpt lat="45.809600140391275" lon="10.790608974942572"><ele>94.0</ele><time>2026-03-28T14:29:52.999Z</time></trkpt><trkpt lat="45.809516416814546" lon="10.79053934537505"><ele>94.0</ele><time>2026-03-28T14:29:54.999Z</time></trkpt><trkpt lat="45.8094334612967" lon="10.790470134193543"><ele>94.0</ele><time>2026-03-28T14:29:56.999Z</time></trkpt><trkpt lat="45.809342289408" lon="10.790394068007528"><ele>94.0</ele><time>2026-03-28T14:29:58.999Z</time></trkpt><trkpt lat="45.80923679408247" lon="10.790306051526327"><ele>94.0</ele><time>2026-03-28T14:30:00.999Z</time></trkpt><trkpt lat="45.80917306609589" lon="10.790252881960779"><ele>94.0</ele><time>2026-03-28T14:30:01.999Z</time></trkpt><trkpt lat="45.80911657467879" lon="10.790199423227802"><ele>94.2</ele><time>2026-03-28T14:30:02.999Z</time></trkpt><trkpt lat="45.80905633295589" lon="10.790138035388507"><ele>94.4</ele><time>2026-03-28T14:30:03.999Z</time></trkpt><trkpt lat="45.80899476333466" lon="10.790072559979423"><ele>94.6</ele><time>2026-03-28T14:30:04.999Z</time></trkpt><trkpt lat="45.80891562050468" lon="10.789987417960923"><ele>94.8</ele><time>2026-03-28T14:30:05.999Z</time></trkpt><trkpt lat="45.80883497329323" lon="10.7898825247455"><ele>95.0</ele><time>2026-03-28T14:30:06.999Z</time></trkpt><trkpt lat="45.80875455288412" lon="10.789776490665995"><ele>95.0</ele><time>2026-03-28T14:30:07.999Z</time></trkpt><trkpt lat="45.80867136569225" lon="10.789656108395128"><ele>95.0</ele><time>2026-03-28T14:30:08.999Z</time></trkpt><trkpt lat="45.80858021418517" lon="10.789542269024365"><ele>95.0</ele><time>2026-03-28T14:30:09.999Z</time></trkpt><trkpt lat="45.808510367471236" lon="10.789407682975066"><ele>95.0</ele><time>2026-03-28T14:30:10.999Z</time></trkpt><trkpt lat="45.80844388770981" lon="10.789281304408693"><ele>94.0</ele><time>2026-03-28T14:30:11.999Z</time></trkpt><trkpt lat="45.808378185241104" lon="10.789153517460132"><ele>93.0</ele><time>2026-03-28T14:30:12.999Z</time></trkpt><trkpt lat="45.808314641585575" lon="10.78902367635482"><ele>92.0</ele><time>2026-03-28T14:30:13.999Z</time></trkpt><trkpt lat="45.80826123342773" lon="10.788892144052614"><ele>91.0</ele><time>2026-03-28T14:30:14.999Z</time></trkpt><trkpt lat="45.808209058580594" lon="10.78876335487992"><ele>90.0</ele><time>2026-03-28T14:30:15.999Z</time></trkpt><trkpt lat="45.80815524511318" lon="10.788642403588172"><ele>90.0</ele><time>2026-03-28T14:30:16.999Z</time></trkpt><trkpt lat="45.80810275869053" lon="10.78852530046113"><ele>90.0</ele><time>2026-03-28T14:30:17.999Z</time></trkpt><trkpt lat="45.808043850528065" lon="10.788421051966923"><ele>90.0</ele><time>2026-03-28T14:30:18.999Z</time></trkpt><trkpt lat="45.807971986036904" lon="10.788324644628664"><ele>90.0</ele><time>2026-03-28T14:30:19.999Z</time></trkpt><trkpt lat="45.80791740321215" lon="10.78825016363377"><ele>90.0</ele><time>2026-03-28T14:30:20.999Z</time></trkpt><trkpt lat="45.80787204141076" lon="10.788185991363422"><ele>90.0</ele><time>2026-03-28T14:30:21.999Z</time></trkpt><trkpt lat="45.80782356897529" lon="10.788124382340172"><ele>90.5</ele><time>2026-03-28T14:30:22.999Z</time></trkpt><trkpt lat="45.80776166113855" lon="10.788055105830232"><ele>91.0</ele><time>2026-03-28T14:30:24Z</time></trkpt><trkpt lat="45.80769547842486" lon="10.787985901599194"><ele>91.5</ele><time>2026-03-28T14:30:25Z</time></trkpt><trkpt lat="45.80762442986326" lon="10.787918234053148"><ele>92.0</ele><time>2026-03-28T14:30:26Z</time></trkpt><trkpt lat="45.807548262468615" lon="10.787856861756772"><ele>92.5</ele><time>2026-03-28T14:30:27Z</time></trkpt><trkpt lat="45.80746353762652" lon="10.78780127160666"><ele>93.0</ele><time>2026-03-28T14:30:28Z</time></trkpt><trkpt lat="45.807380628559706" lon="10.787744704471473"><ele>93.4</ele><time>2026-03-28T14:30:29Z</time></trkpt><trkpt lat="45.80729301663403" lon="10.787695578643767"><ele>93.80000000000001</ele><time>2026-03-28T14:30:30Z</time></trkpt><trkpt lat="45.80720572913155" lon="10.787653677493225"><ele>94.2</ele><time>2026-03-28T14:30:31Z</time></trkpt><trkpt lat="45.80712102538096" lon="10.787595648464494"><ele>94.6</ele><time>2026-03-28T14:30:32Z</time></trkpt><trkpt lat="45.80703003263869" lon="10.787560383965063"><ele>95.0</ele><time>2026-03-28T14:30:33Z</time></trkpt><trkpt lat="45.80693052695272" lon="10.78752442145507"><ele>93.75</ele><time>2026-03-28T14:30:34Z</time></trkpt><trkpt lat="45.806820883248164" lon="10.787485434539363"><ele>92.5</ele><time>2026-03-28T14:30:35Z</time></trkpt><trkpt lat="45.806710933395465" lon="10.787450817352296"><ele>91.25</ele><time>2026-03-28T14:30:36Z</time></trkpt><trkpt lat="45.80660088994256" lon="10.787420558255857"><ele>90.0</ele><time>2026-03-28T14:30:37Z</time></trkpt><trkpt lat="45.80648448029435" lon="10.787392262816557"><ele>90.0</ele><time>2026-03-28T14:30:38Z</time></trkpt><trkpt lat="45.80636308341381" lon="10.787368259005024"><ele>90.0</ele><time>2026-03-28T14:30:39Z</time></trkpt><trkpt lat="45.806239979409185" lon="10.78734813517174"><ele>90.0</ele><time>2026-03-28T14:30:40Z</time></trkpt><trkpt lat="45.80610825815971" lon="10.7873351971876"><ele>90.0</ele><time>2026-03-28T14:30:41Z</time></trkpt><trkpt lat="45.805962242990006" lon="10.787326801795373"><ele>89.0</ele><time>2026-03-28T14:30:42Z</time></trkpt><trkpt lat="45.80580173305146" lon="10.78732514699688"><ele>88.0</ele><time>2026-03-28T14:30:43Z</time></trkpt><trkpt lat="45.80562964483154" lon="10.787331259584732"><ele>87.0</ele><time>2026-03-28T14:30:44Z</time></trkpt><trkpt lat="45.80544637817596" lon="10.787342558586552"><ele>87.0</ele><time>2026-03-28T14:30:45Z</time></trkpt><trkpt lat="45.80525641360894" lon="10.787354771531653"><ele>87.0</ele><time>2026-03-28T14:30:46Z</time></trkpt><trkpt lat="45.80505680175352" lon="10.7873673465028"><ele>87.0</ele><time>2026-03-28T14:30:47Z</time></trkpt><trkpt lat="45.80485225037581" lon="10.787425943558445"><ele>86.66666666666667</ele><time>2026-03-28T14:30:48Z</time></trkpt><trkpt lat="45.804655368146136" lon="10.787438452948846"><ele>86.33333333333334</ele><time>2026-03-28T14:30:49Z</time></trkpt><trkpt lat="45.804462012087725" lon="10.787439406582012"><ele>86.0</ele><time>2026-03-28T14:30:50Z</time></trkpt><trkpt lat="45.80428003784165" lon="10.787419953763443"><ele>85.66666666666667</ele><time>2026-03-28T14:30:51Z</time></trkpt><trkpt lat="45.804098790042616" lon="10.787390571272581"><ele>85.33333333333333</ele><time>2026-03-28T14:30:52Z</time></trkpt><trkpt lat="45.80392789809671" lon="10.787351151935143"><ele>85.0</ele><time>2026-03-28T14:30:53Z</time></trkpt><trkpt lat="45.80376434368293" lon="10.787273855950488"><ele>85.0</ele><time>2026-03-28T14:30:54Z</time></trkpt><trkpt lat="45.80359652850673" lon="10.787205696911766"><ele>85.0</ele><time>2026-03-28T14:30:55Z</time></trkpt><trkpt lat="45.80341939190725" lon="10.787152541634232"><ele>85.0</ele><time>2026-03-28T14:30:56Z</time></trkpt><trkpt lat="45.80324699154339" lon="10.78708121574"><ele>83.66666666666666</ele><time>2026-03-28T14:30:57Z</time></trkpt><trkpt lat="45.80308242985296" lon="10.786986750319485"><ele>82.33333333333333</ele><time>2026-03-28T14:30:58Z</time></trkpt><trkpt lat="45.80291732634344" lon="10.786917001477038"><ele>81.0</ele><time>2026-03-28T14:30:59Z</time></trkpt><trkpt lat="45.802758946827" lon="10.786850848148843"><ele>82.33333333333333</ele><time>2026-03-28T14:31:00Z</time></trkpt><trkpt lat="45.80260776417016" lon="10.786787700762558"><ele>83.66666666666666</ele><time>2026-03-28T14:31:01Z</time></trkpt><trkpt lat="45.80246387660576" lon="10.786727527955897"><ele>85.0</ele><time>2026-03-28T14:31:02Z</time></trkpt><trkpt lat="45.802322224321465" lon="10.786664155056961"><ele>85.0</ele><time>2026-03-28T14:31:03Z</time></trkpt><trkpt lat="45.80217574566895" lon="10.786618755381477"><ele>85.0</ele><time>2026-03-28T14:31:04Z</time></trkpt><trkpt lat="45.80203685152817" lon="10.786530909282973"><ele>85.0</ele><time>2026-03-28T14:31:05Z</time></trkpt><trkpt lat="45.80189959751105" lon="10.786438504632493"><ele>82.0</ele><time>2026-03-28T14:31:06Z</time></trkpt><trkpt lat="45.801773585897784" lon="10.786316246321537"><ele>79.0</ele><time>2026-03-28T14:31:07Z</time></trkpt><trkpt lat="45.801643741319644" lon="10.78619708738674"><ele>76.0</ele><time>2026-03-28T14:31:08Z</time></trkpt><trkpt lat="45.801515202018024" lon="10.786061793848983"><ele>78.25</ele><time>2026-03-28T14:31:09Z</time></trkpt><trkpt lat="45.801392535838694" lon="10.785926570001626"><ele>80.5</ele><time>2026-03-28T14:31:10Z</time></trkpt><trkpt lat="45.80127537432717" lon="10.785795884477128"><ele>82.75</ele><time>2026-03-28T14:31:11Z</time></trkpt><trkpt lat="45.8011651539989" lon="10.785673289704484"><ele>85.0</ele><time>2026-03-28T14:31:12Z</time></trkpt><trkpt lat="45.80105925253405" lon="10.785551100136596"><ele>84.25</ele><time>2026-03-28T14:31:13Z</time></trkpt><trkpt lat="45.80095019009899" lon="10.785438099588749"><ele>83.5</ele><time>2026-03-28T14:31:14Z</time></trkpt><trkpt lat="45.800860536750406" lon="10.785289421028757"><ele>82.75</ele><time>2026-03-28T14:31:15Z</time></trkpt><trkpt lat="45.800781227870765" lon="10.785124421482324"><ele>82.0</ele><time>2026-03-28T14:31:16Z</time></trkpt><trkpt lat="45.800710922705356" lon="10.784943285029309"><ele>82.0</ele><time>2026-03-28T14:31:17Z</time></trkpt><trkpt lat="45.80065420325368" lon="10.784742641199813"><ele>82.0</ele><time>2026-03-28T14:31:18Z</time></trkpt><trkpt lat="45.80059771726104" lon="10.784535511276841"><ele>82.0</ele><time>2026-03-28T14:31:19Z</time></trkpt><trkpt lat="45.80053866770509" lon="10.784324792942169"><ele>84.5</ele><time>2026-03-28T14:31:20Z</time></trkpt><trkpt lat="45.80048355948282" lon="10.784124072412473"><ele>87.0</ele><time>2026-03-28T14:31:21Z</time></trkpt><trkpt lat="45.80042845596822" lon="10.783932280161338"><ele>89.5</ele><time>2026-03-28T14:31:22Z</time></trkpt><trkpt lat="45.80036485731408" lon="10.783760581219935"><ele>92.0</ele><time>2026-03-28T14:31:23Z</time></trkpt><trkpt lat="45.80029164635097" lon="10.783608029001964"><ele>96.75</ele><time>2026-03-28T14:31:24Z</time></trkpt><trkpt lat="45.80020669476796" lon="10.783473569251871"><ele>101.5</ele><time>2026-03-28T14:31:25Z</time></trkpt><trkpt lat="45.80008575859717" lon="10.783412987951593"><ele>106.25</ele><time>2026-03-28T14:31:26Z</time></trkpt><trkpt lat="45.79997438379366" lon="10.78337672387152"><ele>111.0</ele><time>2026-03-28T14:31:27Z</time></trkpt><trkpt lat="45.799856043637774" lon="10.783365181813815"><ele>111.0</ele><time>2026-03-28T14:31:28Z</time></trkpt><trkpt lat="45.79973229942673" lon="10.78333537259985"><ele>111.0</ele><time>2026-03-28T14:31:29Z</time></trkpt><trkpt lat="45.79960948025431" lon="10.783328466555774"><ele>111.0</ele><time>2026-03-28T14:31:30Z</time></trkpt><trkpt lat="45.7994758056583" lon="10.783320950120967"><ele>111.0</ele><time>2026-03-28T14:31:31Z</time></trkpt><trkpt lat="45.79933555711452" lon="10.783313064038902"><ele>103.0</ele><time>2026-03-28T14:31:32.021Z</time></trkpt><trkpt lat="45.79920595709399" lon="10.78330009543987"><ele>95.0</ele><time>2026-03-28T14:31:33.016Z</time></trkpt><trkpt lat="45.79907462171389" lon="10.783272202494413"><ele>87.0</ele><time>2026-03-28T14:31:34.019Z</time></trkpt><trkpt lat="45.79893998101341" lon="10.783213780914332"><ele>79.0</ele><time>2026-03-28T14:31:35.023Z</time></trkpt><trkpt lat="45.79879646925132" lon="10.783143025801824"><ele>79.0</ele><time>2026-03-28T14:31:36.026Z</time></trkpt><trkpt lat="45.79864976997952" lon="10.783070454091945"><ele>79.0</ele><time>2026-03-28T14:31:37Z</time></trkpt><trkpt lat="45.79850757219423" lon="10.782999949522134"><ele>79.0</ele><time>2026-03-28T14:31:38Z</time></trkpt><trkpt lat="45.79931590806954" lon="10.783285602527467"><ele>78.0</ele><time>2026-03-28T14:31:39Z</time></trkpt><trkpt lat="45.79823376211756" lon="10.782860585935639"><ele>78.0</ele><time>2026-03-28T14:31:40Z</time></trkpt><trkpt lat="45.7980780461798" lon="10.782827778022163"><ele>78.0</ele><time>2026-03-28T14:31:41Z</time></trkpt><trkpt lat="45.79790976681066" lon="10.782830186539714"><ele>78.0</ele><time>2026-03-28T14:31:42Z</time></trkpt><trkpt lat="45.79775901536866" lon="10.782855930319496"><ele>78.0</ele><time>2026-03-28T14:31:43Z</time></trkpt><trkpt lat="45.797609796725375" lon="10.78287571357536"><ele>78.0</ele><time>2026-03-28T14:31:44Z</time></trkpt><trkpt lat="45.79746043652201" lon="10.782859321249047"><ele>78.0</ele><time>2026-03-28T14:31:45Z</time></trkpt><trkpt lat="45.797301559267986" lon="10.782837312932417"><ele>78.0</ele><time>2026-03-28T14:31:46Z</time></trkpt><trkpt lat="45.79714183788586" lon="10.782817664087169"><ele>78.0</ele><time>2026-03-28T14:31:47Z</time></trkpt><trkpt lat="45.79698084101481" lon="10.782808187675023"><ele>78.0</ele><time>2026-03-28T14:31:48Z</time></trkpt><trkpt lat="45.79682066972894" lon="10.782810645878698"><ele>78.0</ele><time>2026-03-28T14:31:49Z</time></trkpt><trkpt lat="45.796665959045775" lon="10.78281989968976"><ele>78.0</ele><time>2026-03-28T14:31:50Z</time></trkpt><trkpt lat="45.79651378410435" lon="10.78283961922432"><ele>78.0</ele><time>2026-03-28T14:31:51Z</time></trkpt><trkpt lat="45.79637968060582" lon="10.782861200902275"><ele>78.0</ele><time>2026-03-28T14:31:52Z</time></trkpt><trkpt lat="45.79626411646256" lon="10.782853942323744"><ele>78.0</ele><time>2026-03-28T14:31:53Z</time></trkpt><trkpt lat="45.79614961625732" lon="10.782815140813433"><ele>78.0</ele><time>2026-03-28T14:31:54Z</time></trkpt><trkpt lat="45.79604144059866" lon="10.782750481320425"><ele>78.0</ele><time>2026-03-28T14:31:55Z</time></trkpt><trkpt lat="45.795929687054944" lon="10.782667130965015"><ele>78.0</ele><time>2026-03-28T14:31:56Z</time></trkpt><trkpt lat="45.79580789661863" lon="10.782586468673742"><ele>78.0</ele><time>2026-03-28T14:31:57Z</time></trkpt><trkpt lat="45.795678283260706" lon="10.78251344105773"><ele>78.0</ele><time>2026-03-28T14:31:58Z</time></trkpt><trkpt lat="45.79553803234754" lon="10.782445169709188"><ele>78.0</ele><time>2026-03-28T14:31:59Z</time></trkpt><trkpt lat="45.795393439853996" lon="10.782387533293603"><ele>78.0</ele><time>2026-03-28T14:32:00Z</time></trkpt><trkpt lat="45.79524945654587" lon="10.782335518385507"><ele>78.0</ele><time>2026-03-28T14:32:01Z</time></trkpt><trkpt lat="45.79510714202136" lon="10.782282973183374"><ele>78.0</ele><time>2026-03-28T14:32:02Z</time></trkpt><trkpt lat="45.79496835282187" lon="10.78222288957433"><ele>78.0</ele><time>2026-03-28T14:32:03Z</time></trkpt><trkpt lat="45.794841937936276" lon="10.782147654501452"><ele>78.0</ele><time>2026-03-28T14:32:04Z</time></trkpt><trkpt lat="45.794725197917856" lon="10.782052177292766"><ele>103.5</ele><time>2026-03-28T14:32:05Z</time></trkpt><trkpt lat="45.79461294955889" lon="10.781937457042009"><ele>129.0</ele><time>2026-03-28T14:32:06Z</time></trkpt><trkpt lat="45.79449574626734" lon="10.781810757907724"><ele>154.5</ele><time>2026-03-28T14:32:07Z</time></trkpt><trkpt lat="45.79437277297282" lon="10.781681438170725"><ele>180.0</ele><time>2026-03-28T14:32:08Z</time></trkpt><trkpt lat="45.794245581959544" lon="10.78156195686336"><ele>180.0</ele><time>2026-03-28T14:32:09Z</time></trkpt><trkpt lat="45.794114651072995" lon="10.781445938909616"><ele>180.0</ele><time>2026-03-28T14:32:10Z</time></trkpt><trkpt lat="45.793982918039035" lon="10.781327311356248"><ele>180.0</ele><time>2026-03-28T14:32:11Z</time></trkpt><trkpt lat="45.793851380095" lon="10.781203164524646"><ele>198.33333333333331</ele><time>2026-03-28T14:32:12Z</time></trkpt><trkpt lat="45.793717507661945" lon="10.78107620054982"><ele>216.66666666666666</ele><time>2026-03-28T14:32:13Z</time></trkpt><trkpt lat="45.793583259771765" lon="10.780947426321033"><ele>235.0</ele><time>2026-03-28T14:32:14Z</time></trkpt><trkpt lat="45.79344542242802" lon="10.780816663696594"><ele>235.0</ele><time>2026-03-28T14:32:15Z</time></trkpt><trkpt lat="45.79330172926424" lon="10.780690373487934"><ele>235.0</ele><time>2026-03-28T14:32:16Z</time></trkpt><trkpt lat="45.79315361158981" lon="10.7805757196116"><ele>235.0</ele><time>2026-03-28T14:32:17Z</time></trkpt><trkpt lat="45.79300290025018" lon="10.780469328056643"><ele>239.66666666666666</ele><time>2026-03-28T14:32:18Z</time></trkpt><trkpt lat="45.79285130590278" lon="10.780366921180836"><ele>244.33333333333331</ele><time>2026-03-28T14:32:19Z</time></trkpt><trkpt lat="45.79269257187892" lon="10.780268980287978"><ele>249.0</ele><time>2026-03-28T14:32:20Z</time></trkpt><trkpt lat="45.79253178059656" lon="10.780180184938907"><ele>249.0</ele><time>2026-03-28T14:32:21Z</time></trkpt><trkpt lat="45.79243311894956" lon="10.78012661637674"><ele>249.0</ele><time>2026-03-28T14:32:22Z</time></trkpt><trkpt lat="45.79227286487979" lon="10.780013647469104"><ele>249.0</ele><time>2026-03-28T14:32:23Z</time></trkpt><trkpt lat="45.79211165346978" lon="10.779902171271017"><ele>249.0</ele><time>2026-03-28T14:32:24Z</time></trkpt><trkpt lat="45.7919656018871" lon="10.77982231752973"><ele>249.0</ele><time>2026-03-28T14:32:25Z</time></trkpt><trkpt lat="45.791814092290274" lon="10.779721478735464"><ele>249.0</ele><time>2026-03-28T14:32:26Z</time></trkpt><trkpt lat="45.791658950714115" lon="10.779618223417593"><ele>232.0</ele><time>2026-03-28T14:32:27.023Z</time></trkpt><trkpt lat="45.78985374190911" lon="10.778697245580762"><ele>235.0</ele><time>2026-03-28T14:32:30.078Z</time></trkpt><trkpt lat="45.7893943999546" lon="10.77808362199076"><ele>262.0</ele><time>2026-03-28T14:32:31.078Z</time></trkpt><trkpt lat="45.78885529666539" lon="10.777642094443259"><ele>286.0</ele><time>2026-03-28T14:32:32.073Z</time></trkpt><trkpt lat="45.788264466585275" lon="10.77732296652086"><ele>286.0</ele><time>2026-03-28T14:32:33.076Z</time></trkpt><trkpt lat="45.78767516790155" lon="10.77700416312218"><ele>350.0</ele><time>2026-03-28T14:32:34.077Z</time></trkpt><trkpt lat="45.787073847934046" lon="10.776736635841417"><ele>350.0</ele><time>2026-03-28T14:32:35.078Z</time></trkpt><trkpt lat="45.78644942411871" lon="10.776681758364175"><ele>350.0</ele><time>2026-03-28T14:32:36.074Z</time></trkpt><trkpt lat="45.7858288410331" lon="10.776843629688234"><ele>350.0</ele><time>2026-03-28T14:32:37.078Z</time></trkpt><trkpt lat="45.7852272202319" lon="10.77710953516658"><ele>350.0</ele><time>2026-03-28T14:32:38.078Z</time></trkpt><trkpt lat="45.7847902" lon="10.7773022"><ele>95.0</ele><time>2026-03-28T14:32:39.078Z</time></trkpt><trkpt lat="45.784156043125115" lon="10.777597781280779"><ele>95.0</ele><time>2026-03-28T14:33:18Z</time></trkpt><trkpt lat="45.784028886424885" lon="10.777643305571688"><ele>95.0</ele><time>2026-03-28T14:33:19Z</time></trkpt><trkpt lat="45.78387834656588" lon="10.777650928903139"><ele>95.0</ele><time>2026-03-28T14:33:20Z</time></trkpt><trkpt lat="45.78375279878095" lon="10.777619037958912"><ele>95.0</ele><time>2026-03-28T14:33:21Z</time></trkpt><trkpt lat="45.78362404517477" lon="10.777608937077586"><ele>93.5</ele><time>2026-03-28T14:33:22Z</time></trkpt><trkpt lat="45.783495745453614" lon="10.777592371331993"><ele>92.0</ele><time>2026-03-28T14:33:23Z</time></trkpt><trkpt lat="45.78336384705277" lon="10.777569954150751"><ele>90.5</ele><time>2026-03-28T14:33:24Z</time></trkpt><trkpt lat="45.78322905436545" lon="10.777541219174774"><ele>89.0</ele><time>2026-03-28T14:33:25Z</time></trkpt><trkpt lat="45.7830938287562" lon="10.777501370595939"><ele>89.0</ele><time>2026-03-28T14:33:26Z</time></trkpt><trkpt lat="45.78295851914389" lon="10.777451109562541"><ele>89.0</ele><time>2026-03-28T14:33:27Z</time></trkpt><trkpt lat="45.7828241788219" lon="10.777395900626406"><ele>89.0</ele><time>2026-03-28T14:33:28Z</time></trkpt><trkpt lat="45.782685235162944" lon="10.777336920886388"><ele>89.0</ele><time>2026-03-28T14:33:29Z</time></trkpt><trkpt lat="45.78254374185618" lon="10.777276860788067"><ele>87.66666666666667</ele><time>2026-03-28T14:33:30Z</time></trkpt><trkpt lat="45.782398394820895" lon="10.777217067428367"><ele>86.33333333333333</ele><time>2026-03-28T14:33:31Z</time></trkpt><trkpt lat="45.78225176154035" lon="10.7771577803283"><ele>85.0</ele><time>2026-03-28T14:33:32Z</time></trkpt><trkpt lat="45.78210759369052" lon="10.77709806877832"><ele>85.0</ele><time>2026-03-28T14:33:33Z</time></trkpt><trkpt lat="45.7819746085578" lon="10.777035664450656"><ele>85.0</ele><time>2026-03-28T14:33:34Z</time></trkpt><trkpt lat="45.78184843184018" lon="10.776960068742325"><ele>85.0</ele><time>2026-03-28T14:33:35Z</time></trkpt><trkpt lat="45.78173551580953" lon="10.776867475837369"><ele>85.0</ele><time>2026-03-28T14:33:36Z</time></trkpt><trkpt lat="45.78162833163119" lon="10.776738008758988"><ele>87.25</ele><time>2026-03-28T14:33:37Z</time></trkpt><trkpt lat="45.781539547875234" lon="10.776592593320071"><ele>89.5</ele><time>2026-03-28T14:33:38Z</time></trkpt><trkpt lat="45.781473509935076" lon="10.776442154170732"><ele>91.75</ele><time>2026-03-28T14:33:39Z</time></trkpt><trkpt lat="45.78141816114842" lon="10.776278523439604"><ele>94.0</ele><time>2026-03-28T14:33:40Z</time></trkpt><trkpt lat="45.78138618501444" lon="10.776125611024558"><ele>100.25</ele><time>2026-03-28T14:33:41Z</time></trkpt><trkpt lat="45.781347894598895" lon="10.77593302531945"><ele>106.5</ele><time>2026-03-28T14:33:42Z</time></trkpt><trkpt lat="45.78130596858098" lon="10.775730264068736"><ele>112.75</ele><time>2026-03-28T14:33:43Z</time></trkpt><trkpt lat="45.781265825055115" lon="10.775539767245979"><ele>119.0</ele><time>2026-03-28T14:33:44Z</time></trkpt><trkpt lat="45.78121672087001" lon="10.775328892050137"><ele>126.66666666666666</ele><time>2026-03-28T14:33:45Z</time></trkpt><trkpt lat="45.78115200691203" lon="10.775095870479445"><ele>134.33333333333334</ele><time>2026-03-28T14:33:46Z</time></trkpt><trkpt lat="45.78109101506271" lon="10.774908514917602"><ele>142.0</ele><time>2026-03-28T14:33:47Z</time></trkpt><trkpt lat="45.78102578127457" lon="10.774722359776481"><ele>131.66666666666669</ele><time>2026-03-28T14:33:48Z</time></trkpt><trkpt lat="45.7809443216294" lon="10.774516272793838"><ele>121.33333333333334</ele><time>2026-03-28T14:33:49Z</time></trkpt><trkpt lat="45.78085823011959" lon="10.774328043701805"><ele>111.0</ele><time>2026-03-28T14:33:50Z</time></trkpt><trkpt lat="45.780652900245165" lon="10.774075560616602"><ele>111.0</ele><time>2026-03-28T14:33:51Z</time></trkpt><trkpt lat="45.78051852745556" lon="10.773988214039214"><ele>111.0</ele><time>2026-03-28T14:33:52Z</time></trkpt><trkpt lat="45.78040515084279" lon="10.773906726472731"><ele>111.0</ele><time>2026-03-28T14:33:53Z</time></trkpt><trkpt lat="45.780300712382164" lon="10.77382956502003"><ele>111.0</ele><time>2026-03-28T14:33:54Z</time></trkpt><trkpt lat="45.780361659414375" lon="10.773891733644163"><ele>111.0</ele><time>2026-03-28T14:33:55Z</time></trkpt><trkpt lat="45.78024611756032" lon="10.773783471986265"><ele>111.0</ele><time>2026-03-28T14:33:56Z</time></trkpt><trkpt lat="45.780140939125964" lon="10.773671558879887"><ele>111.0</ele><time>2026-03-28T14:33:57Z</time></trkpt><trkpt lat="45.78001464453244" lon="10.773563402210698"><ele>111.0</ele><time>2026-03-28T14:33:58Z</time></trkpt><trkpt lat="45.77988532095434" lon="10.773449949889379"><ele>110.75</ele><time>2026-03-28T14:33:59Z</time></trkpt><trkpt lat="45.77976218394161" lon="10.773348985855124"><ele>110.5</ele><time>2026-03-28T14:34:00Z</time></trkpt><trkpt lat="45.7796416316466" lon="10.773229137363662"><ele>110.25</ele><time>2026-03-28T14:34:01Z</time></trkpt><trkpt lat="45.77952546811004" lon="10.773091583431457"><ele>110.0</ele><time>2026-03-28T14:34:02Z</time></trkpt><trkpt lat="45.7794260998289" lon="10.772936756041625"><ele>106.33333333333333</ele><time>2026-03-28T14:34:03Z</time></trkpt><trkpt lat="45.77929673568283" lon="10.772808129409142"><ele>102.66666666666666</ele><time>2026-03-28T14:34:04Z</time></trkpt><trkpt lat="45.779187897999535" lon="10.772666688632665"><ele>99.0</ele><time>2026-03-28T14:34:05Z</time></trkpt><trkpt lat="45.779083878985055" lon="10.772495650130908"><ele>99.0</ele><time>2026-03-28T14:34:06.017Z</time></trkpt><trkpt lat="45.77896721541458" lon="10.772332572387764"><ele>99.0</ele><time>2026-03-28T14:34:07.019Z</time></trkpt><trkpt lat="45.7788480242737" lon="10.772166892637724"><ele>99.0</ele><time>2026-03-28T14:34:08.018Z</time></trkpt><trkpt lat="45.77872963026858" lon="10.772002388553586"><ele>95.66666666666667</ele><time>2026-03-28T14:34:09.018Z</time></trkpt><trkpt lat="45.77859397907652" lon="10.771813567200667"><ele>92.33333333333334</ele><time>2026-03-28T14:34:10.021Z</time></trkpt><trkpt lat="45.77846026945798" lon="10.771626299877354"><ele>89.0</ele><time>2026-03-28T14:34:11.022Z</time></trkpt><trkpt lat="45.778332585514825" lon="10.77144747188113"><ele>89.0</ele><time>2026-03-28T14:34:12Z</time></trkpt><trkpt lat="45.77820071785101" lon="10.771262798666044"><ele>89.0</ele><time>2026-03-28T14:34:13Z</time></trkpt><trkpt lat="45.77806393637228" lon="10.771071281644321"><ele>89.0</ele><time>2026-03-28T14:34:14Z</time></trkpt><trkpt lat="45.77789503882701" lon="10.77083479707428"><ele>106.66666666666667</ele><time>2026-03-28T14:34:15Z</time></trkpt><trkpt lat="45.777787398832544" lon="10.770684687092372"><ele>124.33333333333334</ele><time>2026-03-28T14:34:16Z</time></trkpt><trkpt lat="45.777674389284236" lon="10.770527217216534"><ele>142.0</ele><time>2026-03-28T14:34:17Z</time></trkpt><trkpt lat="45.77754769818104" lon="10.77035224510452"><ele>142.0</ele><time>2026-03-28T14:34:18Z</time></trkpt><trkpt lat="45.777424808265955" lon="10.77018775241596"><ele>142.0</ele><time>2026-03-28T14:34:19Z</time></trkpt><trkpt lat="45.77730557171924" lon="10.770041906218145"><ele>142.0</ele><time>2026-03-28T14:34:20Z</time></trkpt><trkpt lat="45.777173535606956" lon="10.76989883708084"><ele>142.0</ele><time>2026-03-28T14:34:21Z</time></trkpt><trkpt lat="45.777034846010665" lon="10.769755443774724"><ele>142.0</ele><time>2026-03-28T14:34:22Z</time></trkpt><trkpt lat="45.77690333656481" lon="10.769620899839099"><ele>142.0</ele><time>2026-03-28T14:34:23Z</time></trkpt><trkpt lat="45.77677063617711" lon="10.769484616391795"><ele>142.0</ele><time>2026-03-28T14:34:24Z</time></trkpt><trkpt lat="45.77664206877445" lon="10.76935172796881"><ele>142.0</ele><time>2026-03-28T14:34:25Z</time></trkpt><trkpt lat="45.77651048878057" lon="10.76921614964277"><ele>142.0</ele><time>2026-03-28T14:34:26Z</time></trkpt><trkpt lat="45.7763807682868" lon="10.76908259847"><ele>142.0</ele><time>2026-03-28T14:34:27Z</time></trkpt><trkpt lat="45.77626406273562" lon="10.768962620545071"><ele>142.0</ele><time>2026-03-28T14:34:28Z</time></trkpt><trkpt lat="45.77614228279474" lon="10.768835867484265"><ele>142.0</ele><time>2026-03-28T14:34:29Z</time></trkpt><trkpt lat="45.776023077922105" lon="10.768712397802371"><ele>142.0</ele><time>2026-03-28T14:34:30Z</time></trkpt><trkpt lat="45.77591669919882" lon="10.768602214884671"><ele>142.0</ele><time>2026-03-28T14:34:31Z</time></trkpt><trkpt lat="45.77599000058145" lon="10.768678137407862"><ele>142.0</ele><time>2026-03-28T14:34:32Z</time></trkpt><trkpt lat="45.775886028375105" lon="10.768565867462666"><ele>142.0</ele><time>2026-03-28T14:34:33Z</time></trkpt><trkpt lat="45.775783107629024" lon="10.768449684126875"><ele>142.0</ele><time>2026-03-28T14:34:34Z</time></trkpt><trkpt lat="45.775641011502955" lon="10.768393485398196"><ele>142.0</ele><time>2026-03-28T14:34:35Z</time></trkpt><trkpt lat="45.7755468725628" lon="10.76826073018146"><ele>142.0</ele><time>2026-03-28T14:34:36Z</time></trkpt><trkpt lat="45.775448529006724" lon="10.768122308645454"><ele>142.0</ele><time>2026-03-28T14:34:37Z</time></trkpt><trkpt lat="45.77535500834918" lon="10.767973767322122"><ele>142.0</ele><time>2026-03-28T14:34:38.024Z</time></trkpt><trkpt lat="45.77525448678608" lon="10.767826436738689"><ele>194.33333333333334</ele><time>2026-03-28T14:34:39.026Z</time></trkpt><trkpt lat="45.77519054345398" lon="10.767632142315287"><ele>246.66666666666669</ele><time>2026-03-28T14:34:40.023Z</time></trkpt><trkpt lat="45.775092958293" lon="10.767472411297996"><ele>299.0</ele><time>2026-03-28T14:34:41.026Z</time></trkpt><trkpt lat="45.77360050884024" lon="10.76576822293807"><ele>285.0</ele><time>2026-03-28T14:34:44.076Z</time></trkpt><trkpt lat="45.77301802670444" lon="10.765423469111512"><ele>314.0</ele><time>2026-03-28T14:34:45.078Z</time></trkpt><trkpt lat="45.77242871664301" lon="10.765105822843509"><ele>314.0</ele><time>2026-03-28T14:34:46.078Z</time></trkpt><trkpt lat="45.77183988517372" lon="10.76478680683992"><ele>314.0</ele><time>2026-03-28T14:34:47.078Z</time></trkpt><trkpt lat="45.76937367678226" lon="10.762955434630404"><ele>333.5</ele><time>2026-03-28T14:35:27Z</time></trkpt><trkpt lat="45.769264426219685" lon="10.762841134707191"><ele>353.0</ele><time>2026-03-28T14:35:28Z</time></trkpt><trkpt lat="45.76911378157282" lon="10.76273747774561"><ele>372.5</ele><time>2026-03-28T14:35:29Z</time></trkpt><trkpt lat="45.76902773110217" lon="10.762621900449227"><ele>392.0</ele><time>2026-03-28T14:35:30Z</time></trkpt><trkpt lat="45.76893702254717" lon="10.76252752711136"><ele>391.99999999999994</ele><time>2026-03-28T14:35:31Z</time></trkpt><trkpt lat="45.768852921541864" lon="10.762439546359003"><ele>392.0</ele><time>2026-03-28T14:35:32Z</time></trkpt><trkpt lat="45.76876953098949" lon="10.762377960489449"><ele>392.0</ele><time>2026-03-28T14:35:33Z</time></trkpt><trkpt lat="45.76871544606412" lon="10.762296914340077"><ele>392.0</ele><time>2026-03-28T14:35:34Z</time></trkpt><trkpt lat="45.76865146398449" lon="10.762195615839751"><ele>391.99999999999994</ele><time>2026-03-28T14:35:36Z</time></trkpt><trkpt lat="45.76862948099127" lon="10.762101692717877"><ele>392.0</ele><time>2026-03-28T14:35:38Z</time></trkpt><trkpt lat="45.768644156870714" lon="10.761986433110593"><ele>391.99999999999994</ele><time>2026-03-28T14:35:40Z</time></trkpt><trkpt lat="45.76864034728484" lon="10.761855099826002"><ele>392.0</ele><time>2026-03-28T14:35:42Z</time></trkpt><trkpt lat="45.76861292978606" lon="10.761770813058478"><ele>392.0</ele><time>2026-03-28T14:35:43Z</time></trkpt><trkpt lat="45.76854378952587" lon="10.761722394790498"><ele>392.0</ele><time>2026-03-28T14:35:44Z</time></trkpt><trkpt lat="45.76845859062704" lon="10.761728940187782"><ele>391.99999999999994</ele><time>2026-03-28T14:35:45Z</time></trkpt><trkpt lat="45.76838189357612" lon="10.761715823115074"><ele>392.0</ele><time>2026-03-28T14:35:46Z</time></trkpt><trkpt lat="45.76830213567148" lon="10.761705246703947"><ele>392.0</ele><time>2026-03-28T14:35:47Z</time></trkpt><trkpt lat="45.76821171370956" lon="10.761710429427845"><ele>392.0</ele><time>2026-03-28T14:35:48Z</time></trkpt><trkpt lat="45.768130600866456" lon="10.761661784564684"><ele>392.0</ele><time>2026-03-28T14:35:49Z</time></trkpt><trkpt lat="45.7680895964175" lon="10.761568540347952"><ele>392.0</ele><time>2026-03-28T14:35:50Z</time></trkpt><trkpt lat="45.76800512826038" lon="10.761476814169155"><ele>392.0</ele><time>2026-03-28T14:35:51Z</time></trkpt><trkpt lat="45.76792632884365" lon="10.761354837245978"><ele>405.5</ele><time>2026-03-28T14:35:52Z</time></trkpt><trkpt lat="45.767847064663265" lon="10.761227023200158"><ele>419.0</ele><time>2026-03-28T14:35:53Z</time></trkpt><trkpt lat="45.7677662565886" lon="10.761110504059502"><ele>432.5</ele><time>2026-03-28T14:35:54Z</time></trkpt><trkpt lat="45.767681319903765" lon="10.76100116182744"><ele>446.0</ele><time>2026-03-28T14:35:55Z</time></trkpt><trkpt lat="45.767593375385985" lon="10.76090787873176"><ele>446.0</ele><time>2026-03-28T14:35:56Z</time></trkpt><trkpt lat="45.76750687367868" lon="10.76083580861656"><ele>446.0</ele><time>2026-03-28T14:35:57Z</time></trkpt><trkpt lat="45.767419829527974" lon="10.760773954123023"><ele>446.0</ele><time>2026-03-28T14:35:58Z</time></trkpt><trkpt lat="45.767336650426486" lon="10.760714040885794"><ele>446.0</ele><time>2026-03-28T14:35:59Z</time></trkpt><trkpt lat="45.767254544931056" lon="10.760646196181716"><ele>446.0</ele><time>2026-03-28T14:36:00Z</time></trkpt><trkpt lat="45.76717680097324" lon="10.760550486736475"><ele>446.0</ele><time>2026-03-28T14:36:01Z</time></trkpt><trkpt lat="45.76709368068432" lon="10.760448489788736"><ele>446.0</ele><time>2026-03-28T14:36:02Z</time></trkpt><trkpt lat="45.767005305953404" lon="10.760348883589412"><ele>446.0</ele><time>2026-03-28T14:36:03Z</time></trkpt><trkpt lat="45.76691802961358" lon="10.7602478293084"><ele>446.0</ele><time>2026-03-28T14:36:04Z</time></trkpt><trkpt lat="45.76683120476454" lon="10.760158974545305"><ele>446.0</ele><time>2026-03-28T14:36:05Z</time></trkpt><trkpt lat="45.76674444531624" lon="10.760096367621339"><ele>446.6</ele><time>2026-03-28T14:36:06Z</time></trkpt><trkpt lat="45.76666402731219" lon="10.760049683622148"><ele>447.20000000000005</ele><time>2026-03-28T14:36:07Z</time></trkpt><trkpt lat="45.766583193076116" lon="10.759994426191005"><ele>447.79999999999995</ele><time>2026-03-28T14:36:08Z</time></trkpt><trkpt lat="45.76651525198351" lon="10.759895277654916"><ele>448.4</ele><time>2026-03-28T14:36:09Z</time></trkpt><trkpt lat="45.766449171067556" lon="10.759768095503075"><ele>449.0</ele><time>2026-03-28T14:36:10Z</time></trkpt><trkpt lat="45.76637611337053" lon="10.759642363691416"><ele>449.0</ele><time>2026-03-28T14:36:11Z</time></trkpt><trkpt lat="45.76630009908812" lon="10.759536608699252"><ele>449.0</ele><time>2026-03-28T14:36:12Z</time></trkpt><trkpt lat="45.76622443523192" lon="10.75942431559205"><ele>449.0</ele><time>2026-03-28T14:36:13Z</time></trkpt><trkpt lat="45.76615174963133" lon="10.759323871378882"><ele>449.0</ele><time>2026-03-28T14:36:14Z</time></trkpt><trkpt lat="45.766058237973226" lon="10.759267698137773"><ele>449.0</ele><time>2026-03-28T14:36:15Z</time></trkpt><trkpt lat="45.7659476647545" lon="10.759244439804673"><ele>446.0</ele><time>2026-03-28T14:36:16Z</time></trkpt><trkpt lat="45.76584904126189" lon="10.75919954441319"><ele>443.0</ele><time>2026-03-28T14:36:17Z</time></trkpt><trkpt lat="45.76577448185879" lon="10.759105461544213"><ele>440.0</ele><time>2026-03-28T14:36:18Z</time></trkpt><trkpt lat="45.76570426315412" lon="10.759054105903441"><ele>437.0</ele><time>2026-03-28T14:36:19Z</time></trkpt><trkpt lat="45.76561227750108" lon="10.758941183708354"><ele>434.0</ele><time>2026-03-28T14:36:21Z</time></trkpt><trkpt lat="45.76557349317282" lon="10.758846105186704"><ele>433.99999999999994</ele><time>2026-03-28T14:36:22Z</time></trkpt><trkpt lat="45.765553515293085" lon="10.758715313133687"><ele>434.0</ele><time>2026-03-28T14:36:23Z</time></trkpt><trkpt lat="45.76550192401061" lon="10.758606059219309"><ele>434.0</ele><time>2026-03-28T14:36:24Z</time></trkpt><trkpt lat="45.76546727691138" lon="10.75850009282529"><ele>434.0</ele><time>2026-03-28T14:36:25Z</time></trkpt><trkpt lat="45.765429468982546" lon="10.758410924917069"><ele>433.99999999999994</ele><time>2026-03-28T14:36:26Z</time></trkpt><trkpt lat="45.7653550319624" lon="10.758354245631786"><ele>434.0</ele><time>2026-03-28T14:36:27Z</time></trkpt><trkpt lat="45.765263521880364" lon="10.758368778702014"><ele>432.6</ele><time>2026-03-28T14:36:28Z</time></trkpt><trkpt lat="45.76517787384175" lon="10.758386429664977"><ele>431.2</ele><time>2026-03-28T14:36:29Z</time></trkpt><trkpt lat="45.76509761351185" lon="10.758375502754536"><ele>429.80000000000007</ele><time>2026-03-28T14:36:30Z</time></trkpt><trkpt lat="45.76502169013865" lon="10.758329172798781"><ele>428.40000000000003</ele><time>2026-03-28T14:36:31Z</time></trkpt><trkpt lat="45.764941717215045" lon="10.75825729937206"><ele>427.0</ele><time>2026-03-28T14:36:32Z</time></trkpt><trkpt lat="45.76485459037587" lon="10.75816138777443"><ele>427.0</ele><time>2026-03-28T14:36:33Z</time></trkpt><trkpt lat="45.76476208319869" lon="10.758052651872937"><ele>427.00000000000006</ele><time>2026-03-28T14:36:34Z</time></trkpt><trkpt lat="45.76467911307364" lon="10.757954134645317"><ele>427.00000000000006</ele><time>2026-03-28T14:36:35Z</time></trkpt><trkpt lat="45.76460739967327" lon="10.757868789876909"><ele>427.0</ele><time>2026-03-28T14:36:36Z</time></trkpt><trkpt lat="45.7645463605389" lon="10.757792059568441"><ele>427.0</ele><time>2026-03-28T14:36:37Z</time></trkpt><trkpt lat="45.76448030927031" lon="10.757695252420268"><ele>422.0</ele><time>2026-03-28T14:36:38Z</time></trkpt><trkpt lat="45.76442628192033" lon="10.757567979340692"><ele>417.00000000000006</ele><time>2026-03-28T14:36:39Z</time></trkpt><trkpt lat="45.76435824790705" lon="10.757436160105852"><ele>412.0</ele><time>2026-03-28T14:36:40Z</time></trkpt><trkpt lat="45.76428784520175" lon="10.757317804885536"><ele>407.0</ele><time>2026-03-28T14:36:41Z</time></trkpt><trkpt lat="45.76421272066353" lon="10.757194964801483"><ele>402.0</ele><time>2026-03-28T14:36:42Z</time></trkpt><trkpt lat="45.76414297967968" lon="10.757088531774416"><ele>402.0</ele><time>2026-03-28T14:36:43Z</time></trkpt><trkpt lat="45.76407919494379" lon="10.757006424289075"><ele>402.0</ele><time>2026-03-28T14:36:44Z</time></trkpt><trkpt lat="45.76400747919716" lon="10.756961876033232"><ele>402.0</ele><time>2026-03-28T14:36:45Z</time></trkpt><trkpt lat="45.76393497044593" lon="10.756942115490643"><ele>402.0</ele><time>2026-03-28T14:36:46Z</time></trkpt><trkpt lat="45.76385260075731" lon="10.756857242955713"><ele>402.0</ele><time>2026-03-28T14:36:48Z</time></trkpt><trkpt lat="45.76388195325593" lon="10.756722898615863"><ele>402.0</ele><time>2026-03-28T14:36:50Z</time></trkpt><trkpt lat="45.763983196876104" lon="10.756675720412405"><ele>402.0</ele><time>2026-03-28T14:36:52Z</time></trkpt><trkpt lat="45.764061190451166" lon="10.756710682075203"><ele>402.0</ele><time>2026-03-28T14:36:54Z</time></trkpt><trkpt lat="45.76409891503477" lon="10.75688265170606"><ele>402.0</ele><time>2026-03-28T14:36:56Z</time></trkpt><trkpt lat="45.7641760995455" lon="10.756992312094699"><ele>402.0</ele><time>2026-03-28T14:36:57Z</time></trkpt><trkpt lat="45.76437202113384" lon="10.757270669143203"><ele>408.25</ele><time>2026-03-28T14:36:58Z</time></trkpt><trkpt lat="45.76449548391811" lon="10.757419913894804"><ele>414.5</ele><time>2026-03-28T14:36:59Z</time></trkpt><trkpt lat="45.764599257439315" lon="10.75757325912251"><ele>420.75</ele><time>2026-03-28T14:37:00Z</time></trkpt><trkpt lat="45.76469630629437" lon="10.757713601698097"><ele>427.0</ele><time>2026-03-28T14:37:01Z</time></trkpt><trkpt lat="45.7647790314585" lon="10.7578285833155"><ele>427.0</ele><time>2026-03-28T14:37:02Z</time></trkpt><trkpt lat="45.76485415209569" lon="10.757926150189913"><ele>427.00000000000006</ele><time>2026-03-28T14:37:03Z</time></trkpt><trkpt lat="45.76493591260988" lon="10.758001658912825"><ele>427.00000000000006</ele><time>2026-03-28T14:37:04Z</time></trkpt><trkpt lat="45.765037424325925" lon="10.758059061616061"><ele>427.0</ele><time>2026-03-28T14:37:05Z</time></trkpt><trkpt lat="45.76514212198668" lon="10.758083768267321"><ele>427.0</ele><time>2026-03-28T14:37:06Z</time></trkpt><trkpt lat="45.7652625675403" lon="10.758071130950132"><ele>437.75</ele><time>2026-03-28T14:37:07Z</time></trkpt><trkpt lat="45.76538199663552" lon="10.758044080973416"><ele>448.5</ele><time>2026-03-28T14:37:08Z</time></trkpt><trkpt lat="45.76551840091703" lon="10.758032491030896"><ele>459.25</ele><time>2026-03-28T14:37:09Z</time></trkpt><trkpt lat="45.76565829192386" lon="10.758008432728207"><ele>470.0</ele><time>2026-03-28T14:37:10Z</time></trkpt><trkpt lat="45.765791016018206" lon="10.758006950774659"><ele>470.0</ele><time>2026-03-28T14:37:11Z</time></trkpt><trkpt lat="45.765935287363206" lon="10.758008148153817"><ele>470.0</ele><time>2026-03-28T14:37:12.02Z</time></trkpt><trkpt lat="45.7660798638408" lon="10.758044134709086"><ele>470.0</ele><time>2026-03-28T14:37:13.017Z</time></trkpt><trkpt lat="45.76623049188851" lon="10.75808265266048"><ele>470.0</ele><time>2026-03-28T14:37:14.021Z</time></trkpt><trkpt lat="45.76594725452743" lon="10.75801486137029"><ele>491.0</ele><time>2026-03-28T14:37:15.015Z</time></trkpt><trkpt lat="45.76766820213472" lon="10.759133876404832"><ele>497.0</ele><time>2026-03-28T14:37:20.077Z</time></trkpt><trkpt lat="45.7680450908831" lon="10.759486818716063"><ele>497.0</ele><time>2026-03-28T14:37:21.079Z</time></trkpt><trkpt lat="45.7684198156296" lon="10.759840479721271"><ele>497.0</ele><time>2026-03-28T14:37:22.077Z</time></trkpt><trkpt lat="45.768794610595506" lon="10.760195975618618"><ele>487.5</ele><time>2026-03-28T14:37:23.077Z</time></trkpt><trkpt lat="45.769169895180276" lon="10.76055038586207"><ele>478.0</ele><time>2026-03-28T14:37:24.077Z</time></trkpt><trkpt lat="45.76954551161569" lon="10.76090417484747"><ele>435.0</ele><time>2026-03-28T14:37:25.077Z</time></trkpt><trkpt lat="45.76990111880383" lon="10.761295843755171"><ele>392.0</ele><time>2026-03-28T14:37:26.077Z</time></trkpt><trkpt lat="45.77017993342155" lon="10.76179696547178"><ele>336.0</ele><time>2026-03-28T14:37:27.076Z</time></trkpt><trkpt lat="45.77062962115348" lon="10.76261278242875"><ele>336.0</ele><time>2026-03-28T14:37:47Z</time></trkpt><trkpt lat="45.77068381882816" lon="10.76273508202039"><ele>336.0</ele><time>2026-03-28T14:37:48Z</time></trkpt><trkpt lat="45.770740355840694" lon="10.762964000776146"><ele>336.0</ele><time>2026-03-28T14:37:49Z</time></trkpt><trkpt lat="45.770707292544905" lon="10.763227264866833"><ele>336.0</ele><time>2026-03-28T14:37:50Z</time></trkpt><trkpt lat="45.770773688337336" lon="10.763318314048599"><ele>336.0</ele><time>2026-03-28T14:37:51Z</time></trkpt><trkpt lat="45.77081683780529" lon="10.763400534340096"><ele>336.0</ele><time>2026-03-28T14:37:52Z</time></trkpt><trkpt lat="45.77084131454594" lon="10.763507231352326"><ele>336.0</ele><time>2026-03-28T14:37:53Z</time></trkpt><trkpt lat="45.77087583438894" lon="10.763683913671052"><ele>336.0</ele><time>2026-03-28T14:37:54Z</time></trkpt><trkpt lat="45.77089998503272" lon="10.763826488488146"><ele>287.6</ele><time>2026-03-28T14:37:55Z</time></trkpt><trkpt lat="45.77094190879548" lon="10.76400401762935"><ele>239.20000000000002</ele><time>2026-03-28T14:37:56Z</time></trkpt><trkpt lat="45.77098744097251" lon="10.76411012698566"><ele>190.8</ele><time>2026-03-28T14:37:57Z</time></trkpt><trkpt lat="45.771022208687185" lon="10.764237502777176"><ele>142.4</ele><time>2026-03-28T14:37:58Z</time></trkpt><trkpt lat="45.770988112190246" lon="10.764336164928826"><ele>94.0</ele><time>2026-03-28T14:37:59Z</time></trkpt><trkpt lat="45.77102089813663" lon="10.764549686087348"><ele>94.0</ele><time>2026-03-28T14:38:01Z</time></trkpt><trkpt lat="45.771093506928196" lon="10.764702485958232"><ele>94.0</ele><time>2026-03-28T14:38:02Z</time></trkpt><trkpt lat="45.7711568962534" lon="10.764812148445099"><ele>94.0</ele><time>2026-03-28T14:38:03Z</time></trkpt><trkpt lat="45.77121009271697" lon="10.764898629758108"><ele>94.0</ele><time>2026-03-28T14:38:04Z</time></trkpt><trkpt lat="45.771277599792604" lon="10.76498780865229"><ele>94.0</ele><time>2026-03-28T14:38:05Z</time></trkpt><trkpt lat="45.7713484742361" lon="10.765055462096186"><ele>126.5</ele><time>2026-03-28T14:38:06Z</time></trkpt><trkpt lat="45.77143737114292" lon="10.765148242718354"><ele>159.0</ele><time>2026-03-28T14:38:07Z</time></trkpt><trkpt lat="45.77158479592129" lon="10.765156591246853"><ele>191.5</ele><time>2026-03-28T14:38:08Z</time></trkpt><trkpt lat="45.77167149232273" lon="10.765250250540003"><ele>224.0</ele><time>2026-03-28T14:38:09Z</time></trkpt><trkpt lat="45.77180194271934" lon="10.765328525566362"><ele>235.2</ele><time>2026-03-28T14:38:11Z</time></trkpt><trkpt lat="45.7719191904024" lon="10.765338618308993"><ele>246.39999999999998</ele><time>2026-03-28T14:38:12Z</time></trkpt><trkpt lat="45.772025686568284" lon="10.765376007257782"><ele>257.6</ele><time>2026-03-28T14:38:13Z</time></trkpt><trkpt lat="45.7721065279764" lon="10.765452340489452"><ele>268.8</ele><time>2026-03-28T14:38:14Z</time></trkpt><trkpt lat="45.77218576496095" lon="10.765532653205838"><ele>280.0</ele><time>2026-03-28T14:38:15.024Z</time></trkpt><trkpt lat="45.77226131115404" lon="10.765611466035551"><ele>280.0</ele><time>2026-03-28T14:38:16.019Z</time></trkpt><trkpt lat="45.77238153896833" lon="10.765812273932182"><ele>280.0</ele><time>2026-03-28T14:38:17.018Z</time></trkpt><trkpt lat="45.77230646651306" lon="10.765681877065923"><ele>280.0</ele><time>2026-03-28T14:38:18Z</time></trkpt><trkpt lat="45.77240444395491" lon="10.765829937330086"><ele>280.0</ele><time>2026-03-28T14:38:19Z</time></trkpt><trkpt lat="45.77249077469998" lon="10.765851496620032"><ele>280.0</ele><time>2026-03-28T14:38:20Z</time></trkpt><trkpt lat="45.772578409871066" lon="10.765868821472633"><ele>280.0</ele><time>2026-03-28T14:38:21Z</time></trkpt><trkpt lat="45.77266509172601" lon="10.765908566933625"><ele>280.0</ele><time>2026-03-28T14:38:22Z</time></trkpt><trkpt lat="45.77275475173482" lon="10.765938105942348"><ele>280.0</ele><time>2026-03-28T14:38:23Z</time></trkpt><trkpt lat="45.77283713171655" lon="10.765965042273349"><ele>280.0</ele><time>2026-03-28T14:38:24Z</time></trkpt><trkpt lat="45.772891609131264" lon="10.766075298569064"><ele>280.0</ele><time>2026-03-28T14:38:25.022Z</time></trkpt><trkpt lat="45.773017197747215" lon="10.766178390669511"><ele>280.0</ele><time>2026-03-28T14:38:26.016Z</time></trkpt><trkpt lat="45.77311225109266" lon="10.766264765037437"><ele>280.0</ele><time>2026-03-28T14:38:27.013Z</time></trkpt><trkpt lat="45.773201661411534" lon="10.766341150428737"><ele>280.0</ele><time>2026-03-28T14:38:28.015Z</time></trkpt><trkpt lat="45.77314920068174" lon="10.766214035311158"><ele>282.0</ele><time>2026-03-28T14:38:29Z</time></trkpt><trkpt lat="45.773372210071344" lon="10.766406036922374"><ele>284.0</ele><time>2026-03-28T14:38:31Z</time></trkpt><trkpt lat="45.773442877921454" lon="10.766422891130963"><ele>286.0</ele><time>2026-03-28T14:38:32Z</time></trkpt><trkpt lat="45.77352495669822" lon="10.766474318950463"><ele>288.0</ele><time>2026-03-28T14:38:33.019Z</time></trkpt><trkpt lat="45.77406909321041" lon="10.766352033252609"><ele>288.0</ele><time>2026-03-28T14:38:39Z</time></trkpt><trkpt lat="45.774149106812025" lon="10.766318874727423"><ele>288.0</ele><time>2026-03-28T14:38:40Z</time></trkpt><trkpt lat="45.77426398225218" lon="10.766232196160379"><ele>288.0</ele><time>2026-03-28T14:38:41Z</time></trkpt><trkpt lat="45.77427109111796" lon="10.766043611306808"><ele>288.0</ele><time>2026-03-28T14:38:43Z</time></trkpt><trkpt lat="45.77426453475131" lon="10.765921267000632"><ele>288.0</ele><time>2026-03-28T14:38:44Z</time></trkpt><trkpt lat="45.77420478637121" lon="10.765724123557758"><ele>288.75</ele><time>2026-03-28T14:38:45Z</time></trkpt><trkpt lat="45.774184268347454" lon="10.765548976747946"><ele>289.5</ele><time>2026-03-28T14:38:46Z</time></trkpt><trkpt lat="45.774153103748425" lon="10.76541406946555"><ele>290.25</ele><time>2026-03-28T14:38:47Z</time></trkpt><trkpt lat="45.774112159754665" lon="10.765269249191869"><ele>291.0</ele><time>2026-03-28T14:38:48Z</time></trkpt><trkpt lat="45.77407486274835" lon="10.765100565151736"><ele>291.0</ele><time>2026-03-28T14:38:49Z</time></trkpt><trkpt lat="45.77404392125883" lon="10.764929555659371"><ele>291.0</ele><time>2026-03-28T14:38:50Z</time></trkpt><trkpt lat="45.77402346924333" lon="10.764779805649319"><ele>291.0</ele><time>2026-03-28T14:38:51Z</time></trkpt><trkpt lat="45.774026570694055" lon="10.764640709798908"><ele>291.0</ele><time>2026-03-28T14:38:52Z</time></trkpt><trkpt lat="45.77401906093521" lon="10.764528554220371"><ele>291.0</ele><time>2026-03-28T14:38:53Z</time></trkpt><trkpt lat="45.77395473140874" lon="10.764449958073756"><ele>291.0</ele><time>2026-03-28T14:38:55Z</time></trkpt><trkpt lat="45.7738706594558" lon="10.76446944339664"><ele>291.0</ele><time>2026-03-28T14:38:56Z</time></trkpt><trkpt lat="45.773813286388275" lon="10.764624948569333"><ele>291.0</ele><time>2026-03-28T14:38:58Z</time></trkpt><trkpt lat="45.77381306120385" lon="10.764749149213982"><ele>291.0</ele><time>2026-03-28T14:38:59Z</time></trkpt><trkpt lat="45.77379808681704" lon="10.764910789562451"><ele>291.0</ele><time>2026-03-28T14:39:00Z</time></trkpt><trkpt lat="45.77379525591267" lon="10.76506419564148"><ele>292.6</ele><time>2026-03-28T14:39:01Z</time></trkpt><trkpt lat="45.77380469319836" lon="10.76522454821476"><ele>294.20000000000005</ele><time>2026-03-28T14:39:02Z</time></trkpt><trkpt lat="45.773859925429036" lon="10.76533371103633"><ele>295.79999999999995</ele><time>2026-03-28T14:39:03Z</time></trkpt><trkpt lat="45.773908986788996" lon="10.765431124216173"><ele>297.4</ele><time>2026-03-28T14:39:04Z</time></trkpt><trkpt lat="45.77390394715569" lon="10.765544929392295"><ele>299.0</ele><time>2026-03-28T14:39:05Z</time></trkpt><trkpt lat="45.77391871387886" lon="10.765674224710574"><ele>299.0</ele><time>2026-03-28T14:39:06Z</time></trkpt><trkpt lat="45.77393246095041" lon="10.765776757746357"><ele>299.0</ele><time>2026-03-28T14:39:07Z</time></trkpt><trkpt lat="45.77392424340738" lon="10.765937504493516"><ele>299.0</ele><time>2026-03-28T14:39:09Z</time></trkpt><trkpt lat="45.77388450411109" lon="10.766029647392006"><ele>299.0</ele><time>2026-03-28T14:39:10Z</time></trkpt><trkpt lat="45.77385371809371" lon="10.76615194371751"><ele>299.0</ele><time>2026-03-28T14:39:11Z</time></trkpt><trkpt lat="45.773837418493926" lon="10.766262001397392"><ele>299.0</ele><time>2026-03-28T14:39:12Z</time></trkpt><trkpt lat="45.773807353246724" lon="10.766391029247567"><ele>299.0</ele><time>2026-03-28T14:39:14Z</time></trkpt><trkpt lat="45.77373697409276" lon="10.766377518376991"><ele>299.0</ele><time>2026-03-28T14:39:16Z</time></trkpt><trkpt lat="45.77372500756363" lon="10.766279651331587"><ele>299.0</ele><time>2026-03-28T14:39:17Z</time></trkpt><trkpt lat="45.7737497452693" lon="10.766180959237104"><ele>299.0</ele><time>2026-03-28T14:39:18Z</time></trkpt><trkpt lat="45.773805386088064" lon="10.766083521252257"><ele>299.0</ele><time>2026-03-28T14:39:19Z</time></trkpt><trkpt lat="45.773852543988106" lon="10.765965144860278"><ele>299.0</ele><time>2026-03-28T14:39:20Z</time></trkpt><trkpt lat="45.773884722854135" lon="10.76583765848142"><ele>299.0</ele><time>2026-03-28T14:39:21Z</time></trkpt><trkpt lat="45.773902336362596" lon="10.765715467146814"><ele>299.0</ele><time>2026-03-28T14:39:22Z</time></trkpt><trkpt lat="45.773888414070896" lon="10.765578422506598"><ele>299.0</ele><time>2026-03-28T14:39:23Z</time></trkpt><trkpt lat="45.77387087689919" lon="10.765475436030814"><ele>299.0</ele><time>2026-03-28T14:39:24Z</time></trkpt><trkpt lat="45.77380164415113" lon="10.765333057369393"><ele>299.0</ele><time>2026-03-28T14:39:26Z</time></trkpt><trkpt lat="45.773731275107" lon="10.765262258342663"><ele>297.4</ele><time>2026-03-28T14:39:27Z</time></trkpt><trkpt lat="45.77367516621986" lon="10.765181441130778"><ele>295.79999999999995</ele><time>2026-03-28T14:39:28Z</time></trkpt><trkpt lat="45.77366956794087" lon="10.765049715961483"><ele>294.20000000000005</ele><time>2026-03-28T14:39:29Z</time></trkpt><trkpt lat="45.7736717445081" lon="10.764888157917909"><ele>292.6</ele><time>2026-03-28T14:39:30Z</time></trkpt><trkpt lat="45.773676612487286" lon="10.764716928562171"><ele>291.0</ele><time>2026-03-28T14:39:31Z</time></trkpt><trkpt lat="45.77369928085672" lon="10.76452718748186"><ele>293.0</ele><time>2026-03-28T14:39:32Z</time></trkpt><trkpt lat="45.77372378905277" lon="10.764323717864334"><ele>295.0</ele><time>2026-03-28T14:39:33Z</time></trkpt><trkpt lat="45.77374578273854" lon="10.76414182846548"><ele>297.0</ele><time>2026-03-28T14:39:34Z</time></trkpt><trkpt lat="45.77376917292935" lon="10.763974228478158"><ele>299.0</ele><time>2026-03-28T14:39:35Z</time></trkpt><trkpt lat="45.77379248421728" lon="10.763834208516576"><ele>299.0</ele><time>2026-03-28T14:39:36Z</time></trkpt><trkpt lat="45.773831295381584" lon="10.763746317469138"><ele>299.0</ele><time>2026-03-28T14:39:37Z</time></trkpt><trkpt lat="45.77387142936572" lon="10.76366471565447"><ele>299.0</ele><time>2026-03-28T14:39:38Z</time></trkpt><trkpt lat="45.77391209903773" lon="10.76356103646452"><ele>299.0</ele><time>2026-03-28T14:39:39Z</time></trkpt><trkpt lat="45.77394257330338" lon="10.763442445015574"><ele>299.0</ele><time>2026-03-28T14:39:40Z</time></trkpt><trkpt lat="45.7739660397902" lon="10.763312267124286"><ele>299.0</ele><time>2026-03-28T14:39:41Z</time></trkpt><trkpt lat="45.77396556094255" lon="10.763210791291735"><ele>301.8</ele><time>2026-03-28T14:39:42Z</time></trkpt><trkpt lat="45.77399003363448" lon="10.76311399047377"><ele>304.59999999999997</ele><time>2026-03-28T14:39:43Z</time></trkpt><trkpt lat="45.77407180954838" lon="10.76299169100555"><ele>307.4</ele><time>2026-03-28T14:39:45Z</time></trkpt><trkpt lat="45.77411236608655" lon="10.76290925139787"><ele>310.2</ele><time>2026-03-28T14:39:46Z</time></trkpt><trkpt lat="45.774200407939205" lon="10.762852800871178"><ele>313.0</ele><time>2026-03-28T14:39:47Z</time></trkpt><trkpt lat="45.77492456850416" lon="10.762620957055484"><ele>315.8</ele><time>2026-03-28T14:39:56Z</time></trkpt><trkpt lat="45.77501015954327" lon="10.762552108606696"><ele>318.6</ele><time>2026-03-28T14:39:57Z</time></trkpt><trkpt lat="45.77498787972664" lon="10.762282362144628"><ele>321.40000000000003</ele><time>2026-03-28T14:39:58Z</time></trkpt><trkpt lat="45.77505119315683" lon="10.762231907918816"><ele>324.20000000000005</ele><time>2026-03-28T14:39:59Z</time></trkpt><trkpt lat="45.775120567694664" lon="10.762178822370744"><ele>327.0</ele><time>2026-03-28T14:40:00Z</time></trkpt><trkpt lat="45.77519190132684" lon="10.76213165490442"><ele>330.0</ele><time>2026-03-28T14:40:01Z</time></trkpt><trkpt lat="45.77525084282493" lon="10.762079245027715"><ele>333.0</ele><time>2026-03-28T14:40:02Z</time></trkpt><trkpt lat="45.77544218834836" lon="10.762006670285228"><ele>336.0</ele><time>2026-03-28T14:40:03Z</time></trkpt><trkpt lat="45.775545665345376" lon="10.762020261396534"><ele>339.0</ele><time>2026-03-28T14:40:04Z</time></trkpt><trkpt lat="45.77553709523114" lon="10.76176695722736"><ele>339.0</ele><time>2026-03-28T14:40:05Z</time></trkpt><trkpt lat="45.77564612267942" lon="10.7618005602732"><ele>339.0</ele><time>2026-03-28T14:40:06Z</time></trkpt><trkpt lat="45.77571977035234" lon="10.761706184531665"><ele>339.0</ele><time>2026-03-28T14:40:07Z</time></trkpt><trkpt lat="45.775786168122465" lon="10.76161279442636"><ele>339.0</ele><time>2026-03-28T14:40:08.02Z</time></trkpt><trkpt lat="45.77584927043781" lon="10.761522165784225"><ele>339.0</ele><time>2026-03-28T14:40:09.019Z</time></trkpt><trkpt lat="45.77592701216912" lon="10.761427472881593"><ele>337.0</ele><time>2026-03-28T14:40:10.022Z</time></trkpt><trkpt lat="45.776042265680076" lon="10.761633157383555"><ele>335.0</ele><time>2026-03-28T14:40:11.02Z</time></trkpt><trkpt lat="45.776051506056824" lon="10.761414148966688"><ele>333.0</ele><time>2026-03-28T14:40:12.023Z</time></trkpt><trkpt lat="45.77610261728645" lon="10.761345506107405"><ele>331.0</ele><time>2026-03-28T14:40:13.021Z</time></trkpt><trkpt lat="45.7761547768803" lon="10.76126531746071"><ele>331.0</ele><time>2026-03-28T14:40:14Z</time></trkpt><trkpt lat="45.776206002058274" lon="10.761187289290245"><ele>331.0</ele><time>2026-03-28T14:40:15Z</time></trkpt><trkpt lat="45.776247257173615" lon="10.761055142958789"><ele>331.0</ele><time>2026-03-28T14:40:16Z</time></trkpt><trkpt lat="45.77631671309786" lon="10.760960190100295"><ele>331.0</ele><time>2026-03-28T14:40:17Z</time></trkpt><trkpt lat="45.77635360054052" lon="10.760826108824968"><ele>331.0</ele><time>2026-03-28T14:40:18Z</time></trkpt><trkpt lat="45.77638652135476" lon="10.760706652444412"><ele>327.0</ele><time>2026-03-28T14:40:19Z</time></trkpt><trkpt lat="45.77640732070454" lon="10.760617600941503"><ele>323.0</ele><time>2026-03-28T14:40:20Z</time></trkpt><trkpt lat="45.77647406631245" lon="10.760546050674842"><ele>319.0</ele><time>2026-03-28T14:40:21Z</time></trkpt><trkpt lat="45.7765638921038" lon="10.76044910725152"><ele>315.0</ele><time>2026-03-28T14:40:22Z</time></trkpt><trkpt lat="45.77665605175863" lon="10.760345351754296"><ele>311.0</ele><time>2026-03-28T14:40:23Z</time></trkpt><trkpt lat="45.77675025697352" lon="10.760240380622292"><ele>311.0</ele><time>2026-03-28T14:40:24Z</time></trkpt><trkpt lat="45.77683509496899" lon="10.760132526762588"><ele>311.0</ele><time>2026-03-28T14:40:25Z</time></trkpt><trkpt lat="45.77691755764133" lon="10.760047083677506"><ele>311.0</ele><time>2026-03-28T14:40:26Z</time></trkpt><trkpt lat="45.776990929251234" lon="10.759962050705083"><ele>311.0</ele><time>2026-03-28T14:40:27Z</time></trkpt><trkpt lat="45.777055130742895" lon="10.759891428822216"><ele>311.0</ele><time>2026-03-28T14:40:28Z</time></trkpt><trkpt lat="45.77712552129175" lon="10.75985982314373"><ele>311.0</ele><time>2026-03-28T14:40:29Z</time></trkpt><trkpt lat="45.77718397393058" lon="10.75992085429547"><ele>311.0</ele><time>2026-03-28T14:40:30Z</time></trkpt><trkpt lat="45.77720894725644" lon="10.760008500795037"><ele>311.0</ele><time>2026-03-28T14:40:31Z</time></trkpt><trkpt lat="45.7771998985541" lon="10.760131578249494"><ele>311.0</ele><time>2026-03-28T14:40:32Z</time></trkpt><trkpt lat="45.77715845879434" lon="10.76024159312515"><ele>311.0</ele><time>2026-03-28T14:40:33Z</time></trkpt><trkpt lat="45.77709742809647" lon="10.76034476365595"><ele>311.0</ele><time>2026-03-28T14:40:34Z</time></trkpt><trkpt lat="45.77702965853123" lon="10.76046296194834"><ele>311.0</ele><time>2026-03-28T14:40:35Z</time></trkpt><trkpt lat="45.7769319236814" lon="10.76052380509998"><ele>311.0</ele><time>2026-03-28T14:40:36Z</time></trkpt><trkpt lat="45.776813437862835" lon="10.760545074640875"><ele>311.0</ele><time>2026-03-28T14:40:37Z</time></trkpt><trkpt lat="45.776725055165294" lon="10.760608200647415"><ele>311.0</ele><time>2026-03-28T14:40:38Z</time></trkpt><trkpt lat="45.776658176630384" lon="10.760663431323998"><ele>311.0</ele><time>2026-03-28T14:40:39Z</time></trkpt><trkpt lat="45.77659461366284" lon="10.760730437165334"><ele>311.0</ele><time>2026-03-28T14:40:40Z</time></trkpt><trkpt lat="45.776549922001564" lon="10.76083948891962"><ele>311.0</ele><time>2026-03-28T14:40:41Z</time></trkpt><trkpt lat="45.77649984676376" lon="10.760911550049304"><ele>311.0</ele><time>2026-03-28T14:40:42Z</time></trkpt><trkpt lat="45.7764062631819" lon="10.760876688842282"><ele>311.0</ele><time>2026-03-28T14:40:44Z</time></trkpt><trkpt lat="45.77633404480237" lon="10.760851405576624"><ele>311.0</ele><time>2026-03-28T14:40:45Z</time></trkpt><trkpt lat="45.776269120226104" lon="10.76082066556801"><ele>311.0</ele><time>2026-03-28T14:40:46Z</time></trkpt><trkpt lat="45.776247285453536" lon="10.760658526046289"><ele>311.0</ele><time>2026-03-28T14:40:48Z</time></trkpt><trkpt lat="45.77627973470689" lon="10.76053793336327"><ele>311.0</ele><time>2026-03-28T14:40:49Z</time></trkpt><trkpt lat="45.77631008246536" lon="10.760402047915598"><ele>311.0</ele><time>2026-03-28T14:40:50Z</time></trkpt><trkpt lat="45.776334825666325" lon="10.76025499939296"><ele>311.0</ele><time>2026-03-28T14:40:51Z</time></trkpt><trkpt lat="45.776374637790965" lon="10.76012699000907"><ele>311.0</ele><time>2026-03-28T14:40:52Z</time></trkpt><trkpt lat="45.77644382195814" lon="10.760044798562893"><ele>313.25</ele><time>2026-03-28T14:40:53Z</time></trkpt><trkpt lat="45.776538367244754" lon="10.759978999367505"><ele>315.5</ele><time>2026-03-28T14:40:54Z</time></trkpt><trkpt lat="45.776636901235065" lon="10.75990822385552"><ele>317.75</ele><time>2026-03-28T14:40:55Z</time></trkpt><trkpt lat="45.776770263169674" lon="10.75985580282835"><ele>320.0</ele><time>2026-03-28T14:40:56Z</time></trkpt><trkpt lat="45.77682433029249" lon="10.759723975317238"><ele>317.75</ele><time>2026-03-28T14:40:57Z</time></trkpt><trkpt lat="45.77689427119711" lon="10.759627897198087"><ele>315.5</ele><time>2026-03-28T14:40:58Z</time></trkpt><trkpt lat="45.77696275418618" lon="10.759495737641414"><ele>313.25</ele><time>2026-03-28T14:40:59Z</time></trkpt><trkpt lat="45.777053538530325" lon="10.759376642897445"><ele>311.0</ele><time>2026-03-28T14:41:00Z</time></trkpt><trkpt lat="45.77713560121486" lon="10.75924779934716"><ele>310.6</ele><time>2026-03-28T14:41:01Z</time></trkpt><trkpt lat="45.777203728382744" lon="10.75910664352459"><ele>310.20000000000005</ele><time>2026-03-28T14:41:02Z</time></trkpt><trkpt lat="45.777262373492945" lon="10.758978320180802"><ele>309.79999999999995</ele><time>2026-03-28T14:41:03Z</time></trkpt><trkpt lat="45.77735246467338" lon="10.758892781417307"><ele>309.4</ele><time>2026-03-28T14:41:04Z</time></trkpt><trkpt lat="45.77743361622045" lon="10.758798664659514"><ele>309.0</ele><time>2026-03-28T14:41:05Z</time></trkpt><trkpt lat="45.777538140478015" lon="10.758667259912363"><ele>309.0</ele><time>2026-03-28T14:41:06Z</time></trkpt><trkpt lat="45.777620433907906" lon="10.758556767462807"><ele>309.0</ele><time>2026-03-28T14:41:07Z</time></trkpt><trkpt lat="45.77769036468626" lon="10.758456698863437"><ele>309.0</ele><time>2026-03-28T14:41:08Z</time></trkpt><trkpt lat="45.77776569916746" lon="10.75838162970402"><ele>309.0</ele><time>2026-03-28T14:41:09Z</time></trkpt><trkpt lat="45.77784080781352" lon="10.758332253044223"><ele>309.0</ele><time>2026-03-28T14:41:10Z</time></trkpt><trkpt lat="45.777939064237266" lon="10.758354915823984"><ele>310.0</ele><time>2026-03-28T14:41:11Z</time></trkpt><trkpt lat="45.778016794287886" lon="10.758435385641299"><ele>311.0</ele><time>2026-03-28T14:41:12Z</time></trkpt><trkpt lat="45.77807046060465" lon="10.7585515173428"><ele>312.0</ele><time>2026-03-28T14:41:13Z</time></trkpt><trkpt lat="45.77806331299698" lon="10.758698959638998"><ele>313.0</ele><time>2026-03-28T14:41:14Z</time></trkpt><trkpt lat="45.77804390000655" lon="10.758826073207388"><ele>314.0</ele><time>2026-03-28T14:41:15Z</time></trkpt><trkpt lat="45.77797555993006" lon="10.758929042030703"><ele>314.0</ele><time>2026-03-28T14:41:16Z</time></trkpt><trkpt lat="45.77796451747269" lon="10.75903936712143"><ele>314.0</ele><time>2026-03-28T14:41:17Z</time></trkpt><trkpt lat="45.77794795397935" lon="10.7591374538563"><ele>314.0</ele><time>2026-03-28T14:41:18Z</time></trkpt><trkpt lat="45.777977484895274" lon="10.759221483141182"><ele>314.0</ele><time>2026-03-28T14:41:19Z</time></trkpt><trkpt lat="45.778027186676546" lon="10.759308404781246"><ele>314.0</ele><time>2026-03-28T14:41:20Z</time></trkpt><trkpt lat="45.77809266378844" lon="10.75940996238706"><ele>314.0</ele><time>2026-03-28T14:41:21Z</time></trkpt><trkpt lat="45.77813673663715" lon="10.75954048798231"><ele>316.5</ele><time>2026-03-28T14:41:22Z</time></trkpt><trkpt lat="45.77818481289756" lon="10.759664769189301"><ele>319.0</ele><time>2026-03-28T14:41:23Z</time></trkpt><trkpt lat="45.77823484150805" lon="10.759744308707585"><ele>321.5</ele><time>2026-03-28T14:41:24Z</time></trkpt><trkpt lat="45.77831146984856" lon="10.759763424062413"><ele>324.0</ele><time>2026-03-28T14:41:25Z</time></trkpt><trkpt lat="45.778395612590366" lon="10.759754486727203"><ele>326.5</ele><time>2026-03-28T14:41:26Z</time></trkpt><trkpt lat="45.7784733112294" lon="10.759706450533916"><ele>329.0</ele><time>2026-03-28T14:41:27Z</time></trkpt><trkpt lat="45.77857125648223" lon="10.759625933357265"><ele>332.25</ele><time>2026-03-28T14:41:28Z</time></trkpt><trkpt lat="45.77867611477176" lon="10.759566301406027"><ele>335.5</ele><time>2026-03-28T14:41:29Z</time></trkpt><trkpt lat="45.77878549191469" lon="10.759492041089796"><ele>338.75</ele><time>2026-03-28T14:41:30Z</time></trkpt><trkpt lat="45.778891841812" lon="10.759426856514963"><ele>342.0</ele><time>2026-03-28T14:41:31Z</time></trkpt><trkpt lat="45.77899209221901" lon="10.759393201260378"><ele>342.0</ele><time>2026-03-28T14:41:32Z</time></trkpt><trkpt lat="45.77909220039148" lon="10.759384615914028"><ele>342.0</ele><time>2026-03-28T14:41:33Z</time></trkpt><trkpt lat="45.77917678121732" lon="10.759377362064521"><ele>342.0</ele><time>2026-03-28T14:41:34Z</time></trkpt><trkpt lat="45.77925673480212" lon="10.759419090574541"><ele>342.0</ele><time>2026-03-28T14:41:35Z</time></trkpt><trkpt lat="45.77935461927269" lon="10.759433923358968"><ele>342.0</ele><time>2026-03-28T14:41:36Z</time></trkpt><trkpt lat="45.779460055344956" lon="10.759483955897085"><ele>340.3333333333333</ele><time>2026-03-28T14:41:37Z</time></trkpt><trkpt lat="45.77955897350461" lon="10.75952880956729"><ele>338.6666666666667</ele><time>2026-03-28T14:41:38Z</time></trkpt><trkpt lat="45.77965686776324" lon="10.759538140379638"><ele>337.0</ele><time>2026-03-28T14:41:39Z</time></trkpt><trkpt lat="45.77973010717991" lon="10.759496093813317"><ele>335.33333333333337</ele><time>2026-03-28T14:41:40Z</time></trkpt><trkpt lat="45.7797749047473" lon="10.759416029278045"><ele>333.6666666666667</ele><time>2026-03-28T14:41:41Z</time></trkpt><trkpt lat="45.77979196394283" lon="10.759318198890906"><ele>332.0</ele><time>2026-03-28T14:41:42Z</time></trkpt><trkpt lat="45.77978085393475" lon="10.759224845069873"><ele>332.0</ele><time>2026-03-28T14:41:43Z</time></trkpt><trkpt lat="45.779729601517" lon="10.759123644010296"><ele>332.0</ele><time>2026-03-28T14:41:44Z</time></trkpt><trkpt lat="45.77966686834325" lon="10.759044987706531"><ele>332.0</ele><time>2026-03-28T14:41:45Z</time></trkpt><trkpt lat="45.77957966843547" lon="10.758974068061098"><ele>332.0</ele><time>2026-03-28T14:41:46Z</time></trkpt><trkpt lat="45.779475934477325" lon="10.758911360009746"><ele>332.0</ele><time>2026-03-28T14:41:47Z</time></trkpt><trkpt lat="45.77935480709827" lon="10.758856444354686"><ele>330.5</ele><time>2026-03-28T14:41:48Z</time></trkpt><trkpt lat="45.77922459375182" lon="10.75881101346832"><ele>329.0</ele><time>2026-03-28T14:41:49Z</time></trkpt><trkpt lat="45.779097600718416" lon="10.758784689926458"><ele>327.5</ele><time>2026-03-28T14:41:50Z</time></trkpt><trkpt lat="45.7789622957035" lon="10.758745752998502"><ele>326.0</ele><time>2026-03-28T14:41:51Z</time></trkpt><trkpt lat="45.778833085625564" lon="10.75873473184725"><ele>326.0</ele><time>2026-03-28T14:41:52Z</time></trkpt><trkpt lat="45.778731955166776" lon="10.758714063875578"><ele>326.0</ele><time>2026-03-28T14:41:53Z</time></trkpt><trkpt lat="45.778644876443835" lon="10.75865834656422"><ele>326.0</ele><time>2026-03-28T14:41:54Z</time></trkpt><trkpt lat="45.778566042450414" lon="10.758588201271548"><ele>326.0</ele><time>2026-03-28T14:41:55Z</time></trkpt><trkpt lat="45.77849943504681" lon="10.758536993420872"><ele>326.0</ele><time>2026-03-28T14:41:56Z</time></trkpt><trkpt lat="45.778485627120546" lon="10.758440504480658"><ele>326.0</ele><time>2026-03-28T14:41:57Z</time></trkpt><trkpt lat="45.77849597395097" lon="10.75833187053227"><ele>326.0</ele><time>2026-03-28T14:41:58Z</time></trkpt><trkpt lat="45.77851065255226" lon="10.758217387241881"><ele>326.0</ele><time>2026-03-28T14:41:59Z</time></trkpt><trkpt lat="45.778518369268006" lon="10.758090452551865"><ele>326.0</ele><time>2026-03-28T14:42:00Z</time></trkpt><trkpt lat="45.77849414328713" lon="10.75797296346924"><ele>326.0</ele><time>2026-03-28T14:42:01Z</time></trkpt><trkpt lat="45.77843666969567" lon="10.757883515528402"><ele>326.0</ele><time>2026-03-28T14:42:02Z</time></trkpt><trkpt lat="45.778349248583886" lon="10.757803758084039"><ele>326.0</ele><time>2026-03-28T14:42:03Z</time></trkpt><trkpt lat="45.77826505764576" lon="10.75769834213906"><ele>331.1666666666667</ele><time>2026-03-28T14:42:04Z</time></trkpt><trkpt lat="45.77818204123842" lon="10.75761875803186"><ele>336.33333333333337</ele><time>2026-03-28T14:42:05Z</time></trkpt><trkpt lat="45.77810509367719" lon="10.75756673731116"><ele>341.5</ele><time>2026-03-28T14:42:06Z</time></trkpt><trkpt lat="45.778060930719896" lon="10.757479841102434"><ele>346.6666666666667</ele><time>2026-03-28T14:42:07Z</time></trkpt><trkpt lat="45.77804949888834" lon="10.757378375076641"><ele>351.8333333333333</ele><time>2026-03-28T14:42:08Z</time></trkpt><trkpt lat="45.77805176881132" lon="10.75727220758421"><ele>357.0</ele><time>2026-03-28T14:42:09Z</time></trkpt><trkpt lat="45.77802947564729" lon="10.757172617477849"><ele>357.0</ele><time>2026-03-28T14:42:10Z</time></trkpt><trkpt lat="45.77788364485913" lon="10.757070561230305"><ele>357.0</ele><time>2026-03-28T14:42:12Z</time></trkpt><trkpt lat="45.77779523100888" lon="10.756988041441488"><ele>357.0</ele><time>2026-03-28T14:42:13Z</time></trkpt><trkpt lat="45.77774903040251" lon="10.756884358950801"><ele>357.0</ele><time>2026-03-28T14:42:14Z</time></trkpt><trkpt lat="45.77770233477849" lon="10.756798316300767"><ele>357.0</ele><time>2026-03-28T14:42:15Z</time></trkpt><trkpt lat="45.77758843900757" lon="10.756754779927894"><ele>357.0</ele><time>2026-03-28T14:42:17Z</time></trkpt><trkpt lat="45.77752982822925" lon="10.756822467594692"><ele>357.0</ele><time>2026-03-28T14:42:18Z</time></trkpt><trkpt lat="45.777497847704154" lon="10.756948694978574"><ele>357.0</ele><time>2026-03-28T14:42:19Z</time></trkpt><trkpt lat="45.77751778407996" lon="10.757100529673751"><ele>357.0</ele><time>2026-03-28T14:42:20Z</time></trkpt><trkpt lat="45.777508256260624" lon="10.757252172262875"><ele>357.0</ele><time>2026-03-28T14:42:21Z</time></trkpt><trkpt lat="45.7775102113473" lon="10.757415515820815"><ele>357.0</ele><time>2026-03-28T14:42:22Z</time></trkpt><trkpt lat="45.77750918652519" lon="10.75757536914108"><ele>357.0</ele><time>2026-03-28T14:42:23Z</time></trkpt><trkpt lat="45.77748934004974" lon="10.757717579039218"><ele>357.0</ele><time>2026-03-28T14:42:24Z</time></trkpt><trkpt lat="45.777454519792066" lon="10.757855879244014"><ele>357.0</ele><time>2026-03-28T14:42:25Z</time></trkpt><trkpt lat="45.77740952992133" lon="10.757981647767853"><ele>357.0</ele><time>2026-03-28T14:42:26Z</time></trkpt><trkpt lat="45.77736095453651" lon="10.758075634681218"><ele>353.0</ele><time>2026-03-28T14:42:27Z</time></trkpt><trkpt lat="45.7773038506951" lon="10.758154596402644"><ele>349.0</ele><time>2026-03-28T14:42:28Z</time></trkpt><trkpt lat="45.77723238227607" lon="10.758222631461669"><ele>345.0</ele><time>2026-03-28T14:42:29Z</time></trkpt><trkpt lat="45.77714595363167" lon="10.758301183326704"><ele>341.0</ele><time>2026-03-28T14:42:30Z</time></trkpt><trkpt lat="45.77705316524367" lon="10.758373715591151"><ele>337.0</ele><time>2026-03-28T14:42:31Z</time></trkpt><trkpt lat="45.77695230471285" lon="10.75844255727984"><ele>338.0</ele><time>2026-03-28T14:42:32Z</time></trkpt><trkpt lat="45.776837956471496" lon="10.758494849143192"><ele>339.0</ele><time>2026-03-28T14:42:33Z</time></trkpt><trkpt lat="45.776711694410835" lon="10.758542903799574"><ele>340.0</ele><time>2026-03-28T14:42:34Z</time></trkpt><trkpt lat="45.77658817999327" lon="10.758621949629992"><ele>341.0</ele><time>2026-03-28T14:42:35Z</time></trkpt><trkpt lat="45.776470239030225" lon="10.758706156193096"><ele>341.0</ele><time>2026-03-28T14:42:36Z</time></trkpt><trkpt lat="45.77635004993674" lon="10.75873600798511"><ele>341.0</ele><time>2026-03-28T14:42:37Z</time></trkpt><trkpt lat="45.77623445916339" lon="10.758747561876826"><ele>341.0</ele><time>2026-03-28T14:42:38Z</time></trkpt><trkpt lat="45.776131972762535" lon="10.75875884587972"><ele>341.0</ele><time>2026-03-28T14:42:39Z</time></trkpt><trkpt lat="45.77604551453302" lon="10.758768995991069"><ele>341.0</ele><time>2026-03-28T14:42:40Z</time></trkpt><trkpt lat="45.77597020099661" lon="10.758793292752113"><ele>344.0</ele><time>2026-03-28T14:42:41Z</time></trkpt><trkpt lat="45.77591011480368" lon="10.758865855652088"><ele>347.0</ele><time>2026-03-28T14:42:42Z</time></trkpt><trkpt lat="45.77585119982984" lon="10.758963996682452"><ele>350.0</ele><time>2026-03-28T14:42:43Z</time></trkpt><trkpt lat="45.77586863193377" lon="10.759144746109028"><ele>353.0</ele><time>2026-03-28T14:42:44Z</time></trkpt><trkpt lat="45.77585047142663" lon="10.759284034835968"><ele>356.0</ele><time>2026-03-28T14:42:45Z</time></trkpt><trkpt lat="45.775794409026005" lon="10.75942191147331"><ele>356.0</ele><time>2026-03-28T14:42:46Z</time></trkpt><trkpt lat="45.77572798802279" lon="10.759570189972242"><ele>356.0</ele><time>2026-03-28T14:42:47Z</time></trkpt><trkpt lat="45.775672165130054" lon="10.759728960238123"><ele>356.0</ele><time>2026-03-28T14:42:48Z</time></trkpt><trkpt lat="45.775619879981114" lon="10.759873137625277"><ele>356.0</ele><time>2026-03-28T14:42:49Z</time></trkpt><trkpt lat="45.77555043546832" lon="10.760011995601184"><ele>356.0</ele><time>2026-03-28T14:42:50Z</time></trkpt><trkpt lat="45.77547372261639" lon="10.760150250814178"><ele>356.0</ele><time>2026-03-28T14:42:51Z</time></trkpt><trkpt lat="45.77539214019793" lon="10.760286747175162"><ele>356.0</ele><time>2026-03-28T14:42:52Z</time></trkpt><trkpt lat="45.77530840600844" lon="10.760422195315693"><ele>356.0</ele><time>2026-03-28T14:42:53Z</time></trkpt><trkpt lat="45.775233554294914" lon="10.76054771855122"><ele>359.75</ele><time>2026-03-28T14:42:54Z</time></trkpt><trkpt lat="45.77516401584489" lon="10.760664817528538"><ele>363.5</ele><time>2026-03-28T14:42:55Z</time></trkpt><trkpt lat="45.77508848012804" lon="10.760795382148034"><ele>367.25</ele><time>2026-03-28T14:42:56Z</time></trkpt><trkpt lat="45.775006986250695" lon="10.760917355163794"><ele>371.0</ele><time>2026-03-28T14:42:57Z</time></trkpt><trkpt lat="45.77491582729424" lon="10.761002078157986"><ele>371.0</ele><time>2026-03-28T14:42:58Z</time></trkpt><trkpt lat="45.77480572427975" lon="10.76100784798019"><ele>371.0</ele><time>2026-03-28T14:42:59Z</time></trkpt><trkpt lat="45.774683192450645" lon="10.761021943222651"><ele>371.0</ele><time>2026-03-28T14:43:00Z</time></trkpt><trkpt lat="45.77455661983168" lon="10.761071758957451"><ele>371.0</ele><time>2026-03-28T14:43:01Z</time></trkpt><trkpt lat="45.77443748043458" lon="10.761177000265292"><ele>370.0</ele><time>2026-03-28T14:43:02Z</time></trkpt><trkpt lat="45.774301066177486" lon="10.761255839059269"><ele>369.0</ele><time>2026-03-28T14:43:03Z</time></trkpt><trkpt lat="45.774153840065" lon="10.761283298593673"><ele>368.0</ele><time>2026-03-28T14:43:04Z</time></trkpt><trkpt lat="45.77400867703886" lon="10.76131445536405"><ele>367.0</ele><time>2026-03-28T14:43:05Z</time></trkpt><trkpt lat="45.773878923043675" lon="10.761379405693509"><ele>367.0</ele><time>2026-03-28T14:43:06Z</time></trkpt><trkpt lat="45.773770413596296" lon="10.761453867418314"><ele>367.0</ele><time>2026-03-28T14:43:07Z</time></trkpt><trkpt lat="45.77367994035748" lon="10.761518394589904"><ele>367.0</ele><time>2026-03-28T14:43:08Z</time></trkpt><trkpt lat="45.77360015568351" lon="10.761579922914395"><ele>367.0</ele><time>2026-03-28T14:43:09Z</time></trkpt><trkpt lat="45.77351016110896" lon="10.761592153684946"><ele>367.0</ele><time>2026-03-28T14:43:10Z</time></trkpt><trkpt lat="45.77341572683744" lon="10.761537588142625"><ele>369.75</ele><time>2026-03-28T14:43:11Z</time></trkpt><trkpt lat="45.773325720431245" lon="10.761458193869112"><ele>372.5</ele><time>2026-03-28T14:43:12Z</time></trkpt><trkpt lat="45.773220526876834" lon="10.761373388718534"><ele>375.25</ele><time>2026-03-28T14:43:13Z</time></trkpt><trkpt lat="45.77309808426611" lon="10.76129837117846"><ele>378.0</ele><time>2026-03-28T14:43:14Z</time></trkpt><trkpt lat="45.77299899425227" lon="10.761159477466638"><ele>382.0</ele><time>2026-03-28T14:43:15Z</time></trkpt><trkpt lat="45.77290086275168" lon="10.761028451232558"><ele>386.0</ele><time>2026-03-28T14:43:16Z</time></trkpt><trkpt lat="45.77281294540599" lon="10.760908336579371"><ele>390.0</ele><time>2026-03-28T14:43:17Z</time></trkpt><trkpt lat="45.77272250021627" lon="10.76082502969852"><ele>394.0</ele><time>2026-03-28T14:43:18Z</time></trkpt><trkpt lat="45.772655445891715" lon="10.760737176280632"><ele>394.0</ele><time>2026-03-28T14:43:19Z</time></trkpt><trkpt lat="45.77256444491049" lon="10.760730602417285"><ele>394.0</ele><time>2026-03-28T14:43:20Z</time></trkpt><trkpt lat="45.77247662495346" lon="10.760723026259834"><ele>394.0</ele><time>2026-03-28T14:43:21Z</time></trkpt><trkpt lat="45.77239391679818" lon="10.760806790663139"><ele>394.0</ele><time>2026-03-28T14:43:22Z</time></trkpt><trkpt lat="45.77232791685205" lon="10.760907624646212"><ele>394.0</ele><time>2026-03-28T14:43:23Z</time></trkpt><trkpt lat="45.77228019200511" lon="10.761040714680291"><ele>392.79999999999995</ele><time>2026-03-28T14:43:24Z</time></trkpt><trkpt lat="45.77223879679511" lon="10.761183179557934"><ele>391.59999999999997</ele><time>2026-03-28T14:43:25Z</time></trkpt><trkpt lat="45.772199462875285" lon="10.76133114801687"><ele>390.4</ele><time>2026-03-28T14:43:26Z</time></trkpt><trkpt lat="45.7721763861552" lon="10.76149396976792"><ele>389.2</ele><time>2026-03-28T14:43:27Z</time></trkpt><trkpt lat="45.772184771849744" lon="10.761654785326048"><ele>388.0</ele><time>2026-03-28T14:43:28Z</time></trkpt><trkpt lat="45.77221123646696" lon="10.76180416578068"><ele>387.2</ele><time>2026-03-28T14:43:29Z</time></trkpt><trkpt lat="45.77224510431494" lon="10.761924110154721"><ele>386.4</ele><time>2026-03-28T14:43:30Z</time></trkpt><trkpt lat="45.772204041582214" lon="10.762077941759795"><ele>385.59999999999997</ele><time>2026-03-28T14:43:32Z</time></trkpt><trkpt lat="45.772088000355744" lon="10.76205720779021"><ele>384.79999999999995</ele><time>2026-03-28T14:43:34Z</time></trkpt><trkpt lat="45.772046693993275" lon="10.761982131013927"><ele>384.0</ele><time>2026-03-28T14:43:35Z</time></trkpt><trkpt lat="45.77205573194361" lon="10.76188939002323"><ele>384.6666666666667</ele><time>2026-03-28T14:43:36Z</time></trkpt><trkpt lat="45.772072304449814" lon="10.761795831140669"><ele>385.33333333333337</ele><time>2026-03-28T14:43:37Z</time></trkpt><trkpt lat="45.772073526176854" lon="10.761678848072345"><ele>386.0</ele><time>2026-03-28T14:43:38Z</time></trkpt><trkpt lat="45.77209489204012" lon="10.761544140076316"><ele>386.6666666666667</ele><time>2026-03-28T14:43:39Z</time></trkpt><trkpt lat="45.7721166442108" lon="10.761405508502202"><ele>387.33333333333337</ele><time>2026-03-28T14:43:40Z</time></trkpt><trkpt lat="45.77213745693013" lon="10.761277136730248"><ele>388.0</ele><time>2026-03-28T14:43:41Z</time></trkpt><trkpt lat="45.77215186965603" lon="10.76115873491686"><ele>388.00000000000006</ele><time>2026-03-28T14:43:42Z</time></trkpt><trkpt lat="45.77214431556213" lon="10.761050139233717"><ele>388.0</ele><time>2026-03-28T14:43:43Z</time></trkpt><trkpt lat="45.772118086931684" lon="10.760942099533883"><ele>388.0</ele><time>2026-03-28T14:43:44Z</time></trkpt><trkpt lat="45.772086469167675" lon="10.760859252991397"><ele>388.0</ele><time>2026-03-28T14:43:45Z</time></trkpt><trkpt lat="45.77204390900454" lon="10.760710812265458"><ele>388.00000000000006</ele><time>2026-03-28T14:43:47Z</time></trkpt><trkpt lat="45.77199749339182" lon="10.760572110188765"><ele>388.0</ele><time>2026-03-28T14:43:49Z</time></trkpt><trkpt lat="45.771981099965686" lon="10.760466540463012"><ele>389.2</ele><time>2026-03-28T14:43:51Z</time></trkpt><trkpt lat="45.77196296418211" lon="10.760371664880779"><ele>390.4</ele><time>2026-03-28T14:43:56Z</time></trkpt><trkpt lat="45.771962373621754" lon="10.760259531451538"><ele>391.59999999999997</ele><time>2026-03-28T14:44:00Z</time></trkpt><trkpt lat="45.7719126730171" lon="10.760156280307513"><ele>392.79999999999995</ele><time>2026-03-28T14:44:02Z</time></trkpt><trkpt lat="45.77181452910566" lon="10.76009634782374"><ele>394.0</ele><time>2026-03-28T14:44:04Z</time></trkpt><trkpt lat="45.7717180211318" lon="10.760168378946707"><ele>396.79999999999995</ele><time>2026-03-28T14:44:06Z</time></trkpt><trkpt lat="45.77163212314747" lon="10.760237774172474"><ele>399.59999999999997</ele><time>2026-03-28T14:44:08Z</time></trkpt><trkpt lat="45.77156706471176" lon="10.760251497440406"><ele>402.4</ele><time>2026-03-28T14:44:11Z</time></trkpt><trkpt lat="45.77154237056014" lon="10.760115875147513"><ele>405.2</ele><time>2026-03-28T14:44:13Z</time></trkpt><trkpt lat="45.771527781994024" lon="10.759979005519465"><ele>408.0</ele><time>2026-03-28T14:44:15Z</time></trkpt><trkpt lat="45.771518648827794" lon="10.759833325545388"><ele>408.4</ele><time>2026-03-28T14:44:17Z</time></trkpt><trkpt lat="45.77153972422892" lon="10.759686964318483"><ele>408.79999999999995</ele><time>2026-03-28T14:44:19Z</time></trkpt><trkpt lat="45.77156135941135" lon="10.759540389245602"><ele>409.2</ele><time>2026-03-28T14:44:21Z</time></trkpt><trkpt lat="45.77154657858704" lon="10.759401556135732"><ele>409.6</ele><time>2026-03-28T14:44:23Z</time></trkpt><trkpt lat="45.771495674859146" lon="10.759266022727912"><ele>410.0</ele><time>2026-03-28T14:44:25Z</time></trkpt><trkpt lat="45.77142450775676" lon="10.759153164964344"><ele>412.0</ele><time>2026-03-28T14:44:27Z</time></trkpt><trkpt lat="45.77134604302365" lon="10.759027421894611"><ele>414.0</ele><time>2026-03-28T14:44:29Z</time></trkpt><trkpt lat="45.771227360067314" lon="10.758976658442142"><ele>416.0</ele><time>2026-03-28T14:44:31Z</time></trkpt><trkpt lat="45.77114711081239" lon="10.758978973598808"><ele>418.0</ele><time>2026-03-28T14:44:32Z</time></trkpt><trkpt lat="45.771054119486564" lon="10.758996141845362"><ele>420.0</ele><time>2026-03-28T14:44:33Z</time></trkpt><trkpt lat="45.77096563786023" lon="10.759014426170227"><ele>420.8333333333333</ele><time>2026-03-28T14:44:34Z</time></trkpt><trkpt lat="45.77088484489202" lon="10.759010729400707"><ele>421.66666666666663</ele><time>2026-03-28T14:44:35Z</time></trkpt><trkpt lat="45.77079703467156" lon="10.759021805962458"><ele>422.5</ele><time>2026-03-28T14:44:36Z</time></trkpt><trkpt lat="45.77071028991729" lon="10.759023692636356"><ele>423.3333333333333</ele><time>2026-03-28T14:44:37Z</time></trkpt><trkpt lat="45.770626385014886" lon="10.7589868996563"><ele>424.16666666666663</ele><time>2026-03-28T14:44:38Z</time></trkpt><trkpt lat="45.77056796775966" lon="10.758916161511841"><ele>425.0</ele><time>2026-03-28T14:44:39Z</time></trkpt><trkpt lat="45.77049998993491" lon="10.758881870730228"><ele>425.0</ele><time>2026-03-28T14:44:40Z</time></trkpt><trkpt lat="45.770429659219346" lon="10.758818465005772"><ele>425.0</ele><time>2026-03-28T14:44:41Z</time></trkpt><trkpt lat="45.77035311231233" lon="10.758745739670823"><ele>425.0</ele><time>2026-03-28T14:44:42Z</time></trkpt><trkpt lat="45.77028749486978" lon="10.758687053715265"><ele>425.0</ele><time>2026-03-28T14:44:43Z</time></trkpt><trkpt lat="45.770195132440016" lon="10.7586203363284"><ele>425.0</ele><time>2026-03-28T14:44:45Z</time></trkpt><trkpt lat="45.77009892378989" lon="10.758541106572844"><ele>428.2</ele><time>2026-03-28T14:44:47Z</time></trkpt><trkpt lat="45.7700271542127" lon="10.758486515728123"><ele>431.4</ele><time>2026-03-28T14:44:48Z</time></trkpt><trkpt lat="45.76994614190726" lon="10.758427147055814"><ele>434.6</ele><time>2026-03-28T14:44:49Z</time></trkpt><trkpt lat="45.769861725997075" lon="10.75835190280651"><ele>437.8</ele><time>2026-03-28T14:44:50Z</time></trkpt><trkpt lat="45.76977598534135" lon="10.758270449449467"><ele>441.0</ele><time>2026-03-28T14:44:51Z</time></trkpt><trkpt lat="45.769700771146425" lon="10.758195151413675"><ele>441.0</ele><time>2026-03-28T14:44:52Z</time></trkpt><trkpt lat="45.7696482406605" lon="10.758125750250116"><ele>441.0</ele><time>2026-03-28T14:44:53Z</time></trkpt><trkpt lat="45.76959554513841" lon="10.758066345454493"><ele>441.0</ele><time>2026-03-28T14:44:54Z</time></trkpt><trkpt lat="45.76948283180147" lon="10.757943858478228"><ele>441.0</ele><time>2026-03-28T14:44:56Z</time></trkpt><trkpt lat="45.76940689631904" lon="10.757883988270125"><ele>441.0</ele><time>2026-03-28T14:44:57Z</time></trkpt><trkpt lat="45.7693200276522" lon="10.757824391670047"><ele>441.0</ele><time>2026-03-28T14:44:58Z</time></trkpt><trkpt lat="45.769255561525355" lon="10.757747442549489"><ele>441.0</ele><time>2026-03-28T14:44:59Z</time></trkpt><trkpt lat="45.769193758326445" lon="10.757696979231063"><ele>441.0</ele><time>2026-03-28T14:45:00Z</time></trkpt><trkpt lat="45.76913936936743" lon="10.757651169493972"><ele>441.0</ele><time>2026-03-28T14:45:01Z</time></trkpt><trkpt lat="45.76904622391794" lon="10.75756375344436"><ele>441.0</ele><time>2026-03-28T14:45:03Z</time></trkpt><trkpt lat="45.768972274645805" lon="10.757448570185261"><ele>441.0</ele><time>2026-03-28T14:45:05Z</time></trkpt><trkpt lat="45.76893260074298" lon="10.75737562719298"><ele>441.0</ele><time>2026-03-28T14:45:06Z</time></trkpt><trkpt lat="45.768885824414724" lon="10.757292475552145"><ele>441.0</ele><time>2026-03-28T14:45:07Z</time></trkpt><trkpt lat="45.76882249568092" lon="10.757221851536828"><ele>441.0</ele><time>2026-03-28T14:45:08Z</time></trkpt><trkpt lat="45.76877472609081" lon="10.757119385966986"><ele>441.0</ele><time>2026-03-28T14:45:09Z</time></trkpt><trkpt lat="45.7687263287419" lon="10.757002672901502"><ele>441.0</ele><time>2026-03-28T14:45:10Z</time></trkpt><trkpt lat="45.76867569132129" lon="10.756874096230186"><ele>441.0</ele><time>2026-03-28T14:45:11Z</time></trkpt><trkpt lat="45.76862238972337" lon="10.756755549522046"><ele>440.6666666666667</ele><time>2026-03-28T14:45:12Z</time></trkpt><trkpt lat="45.76856747380764" lon="10.756665974405529"><ele>440.33333333333337</ele><time>2026-03-28T14:45:13Z</time></trkpt><trkpt lat="45.76850972053193" lon="10.7565879503412"><ele>440.0</ele><time>2026-03-28T14:45:14Z</time></trkpt><trkpt lat="45.7684565989875" lon="10.756498210269259"><ele>439.6666666666667</ele><time>2026-03-28T14:45:15Z</time></trkpt><trkpt lat="45.76839101492408" lon="10.756399464254553"><ele>439.33333333333337</ele><time>2026-03-28T14:45:16Z</time></trkpt><trkpt lat="45.76832365977611" lon="10.75629463377866"><ele>439.0</ele><time>2026-03-28T14:45:17Z</time></trkpt><trkpt lat="45.76826185095982" lon="10.756165793771721"><ele>439.0</ele><time>2026-03-28T14:45:18Z</time></trkpt><trkpt lat="45.76818171242264" lon="10.756067212306199"><ele>439.0</ele><time>2026-03-28T14:45:19Z</time></trkpt><trkpt lat="45.768131537074154" lon="10.755960531461017"><ele>439.0</ele><time>2026-03-28T14:45:20Z</time></trkpt><trkpt lat="45.76808459946162" lon="10.755855117825297"><ele>439.0</ele><time>2026-03-28T14:45:21Z</time></trkpt><trkpt lat="45.76802570294611" lon="10.755736762462186"><ele>439.0</ele><time>2026-03-28T14:45:22Z</time></trkpt><trkpt lat="45.76795680400237" lon="10.755616758443745"><ele>439.79999999999995</ele><time>2026-03-28T14:45:23Z</time></trkpt><trkpt lat="45.76788489520225" lon="10.755501506012555"><ele>440.59999999999997</ele><time>2026-03-28T14:45:24Z</time></trkpt><trkpt lat="45.76782059706805" lon="10.755397269678848"><ele>441.4</ele><time>2026-03-28T14:45:25Z</time></trkpt><trkpt lat="45.76774419982187" lon="10.755320570248974"><ele>442.2</ele><time>2026-03-28T14:45:26Z</time></trkpt><trkpt lat="45.767662678295636" lon="10.755240585721381"><ele>443.0</ele><time>2026-03-28T14:45:27Z</time></trkpt><trkpt lat="45.767596367913924" lon="10.755157832756264"><ele>442.99999999999994</ele><time>2026-03-28T14:45:28Z</time></trkpt><trkpt lat="45.76753141022296" lon="10.75508636138726"><ele>443.0</ele><time>2026-03-28T14:45:29Z</time></trkpt><trkpt lat="45.76747156586543" lon="10.755011906186464"><ele>443.0</ele><time>2026-03-28T14:45:30Z</time></trkpt><trkpt lat="45.76741907089056" lon="10.754927077945268"><ele>443.0</ele><time>2026-03-28T14:45:31Z</time></trkpt><trkpt lat="45.767375172032814" lon="10.754825923559196"><ele>442.99999999999994</ele><time>2026-03-28T14:45:32Z</time></trkpt><trkpt lat="45.76734127657348" lon="10.754713156405064"><ele>443.0</ele><time>2026-03-28T14:45:33Z</time></trkpt><trkpt lat="45.76731945217604" lon="10.75458524721468"><ele>443.0</ele><time>2026-03-28T14:45:34Z</time></trkpt><trkpt lat="45.76730010056205" lon="10.754451721816457"><ele>442.99999999999994</ele><time>2026-03-28T14:45:35Z</time></trkpt><trkpt lat="45.7672835500782" lon="10.754320593897313"><ele>442.99999999999994</ele><time>2026-03-28T14:45:36Z</time></trkpt><trkpt lat="45.76726394980651" lon="10.7541871633364"><ele>443.0</ele><time>2026-03-28T14:45:37Z</time></trkpt><trkpt lat="45.76724040271598" lon="10.754046332126723"><ele>443.0</ele><time>2026-03-28T14:45:38Z</time></trkpt><trkpt lat="45.76721040159917" lon="10.753904333461609"><ele>445.49999999999994</ele><time>2026-03-28T14:45:39Z</time></trkpt><trkpt lat="45.76717318250467" lon="10.753770128051002"><ele>448.0</ele><time>2026-03-28T14:45:40Z</time></trkpt><trkpt lat="45.76713799442384" lon="10.75364616492303"><ele>450.5</ele><time>2026-03-28T14:45:41Z</time></trkpt><trkpt lat="45.76709314266388" lon="10.753534694424413"><ele>453.0</ele><time>2026-03-28T14:45:42Z</time></trkpt><trkpt lat="45.767055018349176" lon="10.753435193273827"><ele>455.49999999999994</ele><time>2026-03-28T14:45:43Z</time></trkpt><trkpt lat="45.767006639655115" lon="10.753344450556835"><ele>458.0</ele><time>2026-03-28T14:45:44Z</time></trkpt><trkpt lat="45.766952049951875" lon="10.753255067247782"><ele>457.2</ele><time>2026-03-28T14:45:45Z</time></trkpt><trkpt lat="45.76689560774583" lon="10.753167302368018"><ele>456.4</ele><time>2026-03-28T14:45:46Z</time></trkpt><trkpt lat="45.766846058392915" lon="10.753087279872588"><ele>455.59999999999997</ele><time>2026-03-28T14:45:47Z</time></trkpt><trkpt lat="45.76677342387536" lon="10.752940167864558"><ele>454.79999999999995</ele><time>2026-03-28T14:45:49Z</time></trkpt><trkpt lat="45.76674340475596" lon="10.752856944663206"><ele>454.0</ele><time>2026-03-28T14:45:50Z</time></trkpt><trkpt lat="45.766709858547586" lon="10.752699368458414"><ele>454.00000000000006</ele><time>2026-03-28T14:45:52Z</time></trkpt><trkpt lat="45.766688642038474" lon="10.752568406190994"><ele>454.0</ele><time>2026-03-28T14:45:54Z</time></trkpt><trkpt lat="45.766653138062225" lon="10.752471153300197"><ele>454.0</ele><time>2026-03-28T14:45:56Z</time></trkpt><trkpt lat="45.76660770780789" lon="10.752371340676715"><ele>454.0</ele><time>2026-03-28T14:45:58Z</time></trkpt><trkpt lat="45.766573627467096" lon="10.752263906188125"><ele>454.00000000000006</ele><time>2026-03-28T14:46:00Z</time></trkpt><trkpt lat="45.766565177772776" lon="10.752164379127901"><ele>454.0</ele><time>2026-03-28T14:46:02Z</time></trkpt><trkpt lat="45.76650917897001" lon="10.752037296000495"><ele>454.0</ele><time>2026-03-28T14:46:43Z</time></trkpt><trkpt lat="45.76642402457942" lon="10.751942225814142"><ele>454.0</ele><time>2026-03-28T14:46:45Z</time></trkpt><trkpt lat="45.76636076548666" lon="10.751803353482327"><ele>454.0</ele><time>2026-03-28T14:46:47Z</time></trkpt><trkpt lat="45.76630488289104" lon="10.75171990541092"><ele>454.0</ele><time>2026-03-28T14:46:48Z</time></trkpt><trkpt lat="45.76626250755056" lon="10.751606152713906"><ele>454.0</ele><time>2026-03-28T14:46:49Z</time></trkpt><trkpt lat="45.766220519094254" lon="10.75148881471396"><ele>452.79999999999995</ele><time>2026-03-28T14:46:50Z</time></trkpt><trkpt lat="45.7661681939464" lon="10.75137427590628"><ele>451.59999999999997</ele><time>2026-03-28T14:46:51Z</time></trkpt><trkpt lat="45.76611162451972" lon="10.751256347071587"><ele>450.4</ele><time>2026-03-28T14:46:52Z</time></trkpt><trkpt lat="45.76606498146455" lon="10.751151966480657"><ele>449.2</ele><time>2026-03-28T14:46:53Z</time></trkpt><trkpt lat="45.76602502640106" lon="10.75104788053406"><ele>448.0</ele><time>2026-03-28T14:46:54Z</time></trkpt><trkpt lat="45.7660192342955" lon="10.750924105925527"><ele>448.0</ele><time>2026-03-28T14:46:55Z</time></trkpt><trkpt lat="45.765991989981494" lon="10.750780604766934"><ele>447.99999999999994</ele><time>2026-03-28T14:46:56Z</time></trkpt><trkpt lat="45.76599743530636" lon="10.750620636184774"><ele>447.99999999999994</ele><time>2026-03-28T14:46:57Z</time></trkpt><trkpt lat="45.766013600752956" lon="10.750455144602647"><ele>448.0</ele><time>2026-03-28T14:46:58Z</time></trkpt><trkpt lat="45.7660213967155" lon="10.750293600915189"><ele>448.0</ele><time>2026-03-28T14:46:59Z</time></trkpt><trkpt lat="45.76600700440139" lon="10.75014133462387"><ele>451.4</ele><time>2026-03-28T14:47:00Z</time></trkpt><trkpt lat="45.76597088680127" lon="10.750010902405531"><ele>454.79999999999995</ele><time>2026-03-28T14:47:01Z</time></trkpt><trkpt lat="45.76589940469448" lon="10.749898588907099"><ele>458.2</ele><time>2026-03-28T14:47:02Z</time></trkpt><trkpt lat="45.76581988288938" lon="10.74981127350028"><ele>461.6</ele><time>2026-03-28T14:47:03Z</time></trkpt><trkpt lat="45.765736383347125" lon="10.749735087098642"><ele>465.0</ele><time>2026-03-28T14:47:04Z</time></trkpt><trkpt lat="45.76567802167389" lon="10.749666874196196"><ele>465.0</ele><time>2026-03-28T14:47:05Z</time></trkpt><trkpt lat="45.76559247742468" lon="10.74953773765399"><ele>465.0</ele><time>2026-03-28T14:47:07Z</time></trkpt><trkpt lat="45.765519206121155" lon="10.749502811861909"><ele>465.0</ele><time>2026-03-28T14:47:08Z</time></trkpt><trkpt lat="45.765420603812515" lon="10.749502232473352"><ele>465.0</ele><time>2026-03-28T14:47:09Z</time></trkpt><trkpt lat="45.76531289185166" lon="10.749526199612227"><ele>465.0</ele><time>2026-03-28T14:47:10Z</time></trkpt><trkpt lat="45.765201985062255" lon="10.74955793812181"><ele>462.4</ele><time>2026-03-28T14:47:11Z</time></trkpt><trkpt lat="45.76510516136954" lon="10.749604053521958"><ele>459.8</ele><time>2026-03-28T14:47:12Z</time></trkpt><trkpt lat="45.76502708704988" lon="10.74965186410542"><ele>457.20000000000005</ele><time>2026-03-28T14:47:13Z</time></trkpt><trkpt lat="45.764935784154844" lon="10.74965899768794"><ele>454.6</ele><time>2026-03-28T14:47:14Z</time></trkpt><trkpt lat="45.764838228236904" lon="10.749685635860196"><ele>452.0</ele><time>2026-03-28T14:47:15Z</time></trkpt><trkpt lat="45.76473868855742" lon="10.749704775039449"><ele>452.0</ele><time>2026-03-28T14:47:16Z</time></trkpt><trkpt lat="45.76463521551349" lon="10.749703245712507"><ele>452.00000000000006</ele><time>2026-03-28T14:47:17Z</time></trkpt><trkpt lat="45.76454089843904" lon="10.749684555124333"><ele>452.00000000000006</ele><time>2026-03-28T14:47:18Z</time></trkpt><trkpt lat="45.764448791196926" lon="10.749662415382073"><ele>452.0</ele><time>2026-03-28T14:47:19Z</time></trkpt><trkpt lat="45.76434808201847" lon="10.74964373432459"><ele>452.0</ele><time>2026-03-28T14:47:20Z</time></trkpt><trkpt lat="45.76423752697477" lon="10.74963318652608"><ele>453.20000000000005</ele><time>2026-03-28T14:47:21Z</time></trkpt><trkpt lat="45.764127359287876" lon="10.749633519649768"><ele>454.40000000000003</ele><time>2026-03-28T14:47:22Z</time></trkpt><trkpt lat="45.7640260385266" lon="10.74963656724087"><ele>455.59999999999997</ele><time>2026-03-28T14:47:23Z</time></trkpt><trkpt lat="45.76392519224105" lon="10.74964797869683"><ele>456.79999999999995</ele><time>2026-03-28T14:47:24Z</time></trkpt><trkpt lat="45.76382694765003" lon="10.749660198029442"><ele>458.0</ele><time>2026-03-28T14:47:25Z</time></trkpt><trkpt lat="45.763727537408265" lon="10.749670951490678"><ele>458.0</ele><time>2026-03-28T14:47:26Z</time></trkpt><trkpt lat="45.76362388415548" lon="10.749681146893003"><ele>457.99999999999994</ele><time>2026-03-28T14:47:27Z</time></trkpt><trkpt lat="45.76352500672821" lon="10.749683388979633"><ele>457.99999999999994</ele><time>2026-03-28T14:47:28Z</time></trkpt><trkpt lat="45.763430229004605" lon="10.749709044345375"><ele>458.0</ele><time>2026-03-28T14:47:29Z</time></trkpt><trkpt lat="45.76333369298516" lon="10.749664658543637"><ele>458.0</ele><time>2026-03-28T14:47:30Z</time></trkpt><trkpt lat="45.76323940857787" lon="10.749598748186257"><ele>456.75</ele><time>2026-03-28T14:47:31Z</time></trkpt><trkpt lat="45.76314430887955" lon="10.749515834924853"><ele>455.5</ele><time>2026-03-28T14:47:32Z</time></trkpt><trkpt lat="45.76305495981691" lon="10.749394405854442"><ele>454.25</ele><time>2026-03-28T14:47:33Z</time></trkpt><trkpt lat="45.76294603598339" lon="10.74931200381924"><ele>453.0</ele><time>2026-03-28T14:47:34Z</time></trkpt><trkpt lat="45.762835919593336" lon="10.749229744672446"><ele>456.75</ele><time>2026-03-28T14:47:35Z</time></trkpt><trkpt lat="45.762731458343396" lon="10.749140215868522"><ele>460.5</ele><time>2026-03-28T14:47:36Z</time></trkpt><trkpt lat="45.76262646834585" lon="10.749045607100184"><ele>464.25</ele><time>2026-03-28T14:47:37Z</time></trkpt><trkpt lat="45.76252515595999" lon="10.748950829475952"><ele>468.0</ele><time>2026-03-28T14:47:38Z</time></trkpt><trkpt lat="45.76242937117153" lon="10.748856395639795"><ele>468.0</ele><time>2026-03-28T14:47:39Z</time></trkpt><trkpt lat="45.76234050596976" lon="10.748771475169203"><ele>467.99999999999994</ele><time>2026-03-28T14:47:40Z</time></trkpt><trkpt lat="45.7622579466247" lon="10.748688582014786"><ele>467.99999999999994</ele><time>2026-03-28T14:47:41Z</time></trkpt><trkpt lat="45.76217083657908" lon="10.748621465481905"><ele>468.0</ele><time>2026-03-28T14:47:42Z</time></trkpt><trkpt lat="45.7621150165716" lon="10.748506609872372"><ele>468.0</ele><time>2026-03-28T14:47:43Z</time></trkpt><trkpt lat="45.76204104037426" lon="10.748407930825193"><ele>467.2</ele><time>2026-03-28T14:47:44Z</time></trkpt><trkpt lat="45.76197914811295" lon="10.748293859959382"><ele>466.4</ele><time>2026-03-28T14:47:45Z</time></trkpt><trkpt lat="45.76191248795188" lon="10.74819044818854"><ele>465.59999999999997</ele><time>2026-03-28T14:47:46Z</time></trkpt><trkpt lat="45.761855600905434" lon="10.748089776170653"><ele>464.79999999999995</ele><time>2026-03-28T14:47:47Z</time></trkpt><trkpt lat="45.761818740319875" lon="10.74796322247409"><ele>464.0</ele><time>2026-03-28T14:47:48Z</time></trkpt><trkpt lat="45.76176519778451" lon="10.747849858565344"><ele>467.0</ele><time>2026-03-28T14:47:49Z</time></trkpt><trkpt lat="45.76174324453146" lon="10.747709112868108"><ele>470.0</ele><time>2026-03-28T14:47:50Z</time></trkpt><trkpt lat="45.76174807835089" lon="10.747565371027045"><ele>473.0</ele><time>2026-03-28T14:47:51Z</time></trkpt><trkpt lat="45.761732654585515" lon="10.747434135220523"><ele>476.0</ele><time>2026-03-28T14:47:52Z</time></trkpt><trkpt lat="45.761701304834084" lon="10.747315810738632"><ele>479.0</ele><time>2026-03-28T14:47:53Z</time></trkpt><trkpt lat="45.761649389415076" lon="10.74720010499916"><ele>479.0</ele><time>2026-03-28T14:47:54Z</time></trkpt><trkpt lat="45.7615709854149" lon="10.747110221177651"><ele>479.0</ele><time>2026-03-28T14:47:55Z</time></trkpt><trkpt lat="45.7614914298175" lon="10.74700613551685"><ele>479.0</ele><time>2026-03-28T14:47:56Z</time></trkpt><trkpt lat="45.76141073201555" lon="10.746894087422527"><ele>479.0</ele><time>2026-03-28T14:47:57Z</time></trkpt><trkpt lat="45.7613550647571" lon="10.746749747668652"><ele>479.0</ele><time>2026-03-28T14:47:58Z</time></trkpt><trkpt lat="45.76127809345906" lon="10.746624808295893"><ele>477.79999999999995</ele><time>2026-03-28T14:47:59Z</time></trkpt><trkpt lat="45.761216574662235" lon="10.746483694244963"><ele>476.59999999999997</ele><time>2026-03-28T14:48:00Z</time></trkpt><trkpt lat="45.761153316484595" lon="10.746351980506505"><ele>475.4</ele><time>2026-03-28T14:48:01Z</time></trkpt><trkpt lat="45.761096333405995" lon="10.746235666378222"><ele>474.2</ele><time>2026-03-28T14:48:02Z</time></trkpt><trkpt lat="45.76104253928486" lon="10.746133676467016"><ele>473.0</ele><time>2026-03-28T14:48:03Z</time></trkpt><trkpt lat="45.76099581713517" lon="10.74604611494014"><ele>472.99999999999994</ele><time>2026-03-28T14:48:04Z</time></trkpt><trkpt lat="45.76090669261657" lon="10.745942646281653"><ele>473.0</ele><time>2026-03-28T14:48:06Z</time></trkpt><trkpt lat="45.76084891985772" lon="10.74589300887317"><ele>473.0</ele><time>2026-03-28T14:48:08Z</time></trkpt><trkpt lat="45.760867848658634" lon="10.745985813206405"><ele>473.0</ele><time>2026-03-28T14:50:00Z</time></trkpt><trkpt lat="45.760952102834935" lon="10.746033107531371"><ele>472.99999999999994</ele><time>2026-03-28T14:50:03Z</time></trkpt><trkpt lat="45.76102231271745" lon="10.746125559386135"><ele>473.0</ele><time>2026-03-28T14:50:05Z</time></trkpt><trkpt lat="45.761080583787844" lon="10.74624059988683"><ele>477.3333333333333</ele><time>2026-03-28T14:50:07Z</time></trkpt><trkpt lat="45.76114316508695" lon="10.74638578683318"><ele>481.66666666666663</ele><time>2026-03-28T14:50:09Z</time></trkpt><trkpt lat="45.76118478306222" lon="10.746465487447178"><ele>486.0</ele><time>2026-03-28T14:50:10Z</time></trkpt><trkpt lat="45.76122400953869" lon="10.746546669762388"><ele>490.33333333333337</ele><time>2026-03-28T14:50:11Z</time></trkpt><trkpt lat="45.761266690525844" lon="10.746641217051057"><ele>494.6666666666667</ele><time>2026-03-28T14:50:12Z</time></trkpt><trkpt lat="45.761317124307254" lon="10.746748564452302"><ele>499.0</ele><time>2026-03-28T14:50:13Z</time></trkpt><trkpt lat="45.7613738215573" lon="10.74686064300077"><ele>495.0</ele><time>2026-03-28T14:50:14Z</time></trkpt><trkpt lat="45.76143697699706" lon="10.746966002922935"><ele>491.0</ele><time>2026-03-28T14:50:15Z</time></trkpt><trkpt lat="45.76150403795609" lon="10.74705176663304"><ele>487.0</ele><time>2026-03-28T14:50:16Z</time></trkpt><trkpt lat="45.76157125033506" lon="10.747132954357648"><ele>483.0</ele><time>2026-03-28T14:50:17Z</time></trkpt><trkpt lat="45.76163113541484" lon="10.747220795946076"><ele>479.0</ele><time>2026-03-28T14:50:18Z</time></trkpt><trkpt lat="45.761681860345085" lon="10.74733002330817"><ele>478.99999999999994</ele><time>2026-03-28T14:50:19Z</time></trkpt><trkpt lat="45.76171500213356" lon="10.747456484836299"><ele>479.0</ele><time>2026-03-28T14:50:20Z</time></trkpt><trkpt lat="45.76173007864057" lon="10.747580996752713"><ele>479.0</ele><time>2026-03-28T14:50:21Z</time></trkpt><trkpt lat="45.76173085513454" lon="10.74770341784808"><ele>479.0</ele><time>2026-03-28T14:50:22Z</time></trkpt><trkpt lat="45.761734871424345" lon="10.74781927042914"><ele>478.99999999999994</ele><time>2026-03-28T14:50:23Z</time></trkpt><trkpt lat="45.76176369394649" lon="10.747935973344592"><ele>479.0</ele><time>2026-03-28T14:50:24Z</time></trkpt><trkpt lat="45.761814412984315" lon="10.748056308665905"><ele>476.79999999999995</ele><time>2026-03-28T14:50:25Z</time></trkpt><trkpt lat="45.761881895018426" lon="10.748181641617697"><ele>474.59999999999997</ele><time>2026-03-28T14:50:26Z</time></trkpt><trkpt lat="45.76195501162228" lon="10.748310620538023"><ele>472.4</ele><time>2026-03-28T14:50:27Z</time></trkpt><trkpt lat="45.76202701500793" lon="10.748432724275583"><ele>470.2</ele><time>2026-03-28T14:50:28Z</time></trkpt><trkpt lat="45.76209928985337" lon="10.748546059625854"><ele>468.0</ele><time>2026-03-28T14:50:28.999Z</time></trkpt><trkpt lat="45.762175227964974" lon="10.748648702151515"><ele>468.0</ele><time>2026-03-28T14:50:29.999Z</time></trkpt><trkpt lat="45.762260356999114" lon="10.748738559424606"><ele>468.0</ele><time>2026-03-28T14:50:30.999Z</time></trkpt><trkpt lat="45.76235309477571" lon="10.748827292847606"><ele>468.0</ele><time>2026-03-28T14:50:31.999Z</time></trkpt><trkpt lat="45.762452916734" lon="10.748926149306804"><ele>468.0</ele><time>2026-03-28T14:50:33Z</time></trkpt><trkpt lat="45.762551813543645" lon="10.749020940861339"><ele>468.0</ele><time>2026-03-28T14:50:34Z</time></trkpt><trkpt lat="45.76265194330547" lon="10.749116700565528"><ele>468.0</ele><time>2026-03-28T14:50:35Z</time></trkpt><trkpt lat="45.76275625012001" lon="10.74920894426688"><ele>468.0</ele><time>2026-03-28T14:50:36Z</time></trkpt><trkpt lat="45.76286369147662" lon="10.74929644337953"><ele>468.0</ele><time>2026-03-28T14:50:37Z</time></trkpt><trkpt lat="45.762971574795635" lon="10.74938367934615"><ele>464.25</ele><time>2026-03-28T14:50:38Z</time></trkpt><trkpt lat="45.76307980388321" lon="10.749465519347716"><ele>460.5</ele><time>2026-03-28T14:50:39Z</time></trkpt><trkpt lat="45.76318192047885" lon="10.749547655150959"><ele>456.75</ele><time>2026-03-28T14:50:40Z</time></trkpt><trkpt lat="45.763279664961594" lon="10.749619658438434"><ele>453.0</ele><time>2026-03-28T14:50:41Z</time></trkpt><trkpt lat="45.76338071830131" lon="10.749680716074124"><ele>453.0</ele><time>2026-03-28T14:50:42Z</time></trkpt><trkpt lat="45.7634876614966" lon="10.749717286578731"><ele>452.99999999999994</ele><time>2026-03-28T14:50:43Z</time></trkpt><trkpt lat="45.763596715621944" lon="10.7497235240313"><ele>452.99999999999994</ele><time>2026-03-28T14:50:44Z</time></trkpt><trkpt lat="45.763709138141785" lon="10.749710278394396"><ele>453.0</ele><time>2026-03-28T14:50:45Z</time></trkpt><trkpt lat="45.76382382884052" lon="10.749692527494553"><ele>453.0</ele><time>2026-03-28T14:50:46Z</time></trkpt><trkpt lat="45.763921874518445" lon="10.749685817285656"><ele>452.79999999999995</ele><time>2026-03-28T14:50:47Z</time></trkpt><trkpt lat="45.7640079775484" lon="10.74968785621144"><ele>452.59999999999997</ele><time>2026-03-28T14:50:48Z</time></trkpt><trkpt lat="45.76410125613164" lon="10.74967508772226"><ele>452.40000000000003</ele><time>2026-03-28T14:50:49Z</time></trkpt><trkpt lat="45.76420359581913" lon="10.749674251765683"><ele>452.20000000000005</ele><time>2026-03-28T14:50:50Z</time></trkpt><trkpt lat="45.764314591857975" lon="10.749683571076716"><ele>452.0</ele><time>2026-03-28T14:50:51Z</time></trkpt><trkpt lat="45.76442559601767" lon="10.74970503080015"><ele>452.0</ele><time>2026-03-28T14:50:52Z</time></trkpt><trkpt lat="45.76452808948048" lon="10.749730053821002"><ele>452.00000000000006</ele><time>2026-03-28T14:50:53Z</time></trkpt><trkpt lat="45.76463739739012" lon="10.749747233019047"><ele>452.00000000000006</ele><time>2026-03-28T14:50:54Z</time></trkpt><trkpt lat="45.7647539384696" lon="10.749741584414734"><ele>452.0</ele><time>2026-03-28T14:50:55Z</time></trkpt><trkpt lat="45.76486840717533" lon="10.749719019515295"><ele>452.0</ele><time>2026-03-28T14:50:56Z</time></trkpt><trkpt lat="45.76497627089499" lon="10.749690699578634"><ele>452.0</ele><time>2026-03-28T14:50:57Z</time></trkpt><trkpt lat="45.76507603468708" lon="10.749653646642527"><ele>452.00000000000006</ele><time>2026-03-28T14:50:58Z</time></trkpt><trkpt lat="45.765171194287205" lon="10.749596105604875"><ele>452.00000000000006</ele><time>2026-03-28T14:50:59Z</time></trkpt><trkpt lat="45.76526601421733" lon="10.749543536053338"><ele>452.0</ele><time>2026-03-28T14:51:00Z</time></trkpt><trkpt lat="45.765362923500554" lon="10.749518502408536"><ele>452.0</ele><time>2026-03-28T14:51:01Z</time></trkpt><trkpt lat="45.76545620583091" lon="10.749525539029282"><ele>454.6</ele><time>2026-03-28T14:51:02Z</time></trkpt><trkpt lat="45.76554028743779" lon="10.749562516339015"><ele>457.20000000000005</ele><time>2026-03-28T14:51:03Z</time></trkpt><trkpt lat="45.76561902425254" lon="10.749636314710834"><ele>459.8</ele><time>2026-03-28T14:51:04Z</time></trkpt><trkpt lat="45.765694417762866" lon="10.749724263275064"><ele>462.4</ele><time>2026-03-28T14:51:05Z</time></trkpt><trkpt lat="45.765766665668274" lon="10.749814207635687"><ele>465.0</ele><time>2026-03-28T14:51:06Z</time></trkpt><trkpt lat="45.76583895446307" lon="10.7499074341438"><ele>465.0</ele><time>2026-03-28T14:51:07Z</time></trkpt><trkpt lat="45.76590980465559" lon="10.750007904319226"><ele>465.0</ele><time>2026-03-28T14:51:08Z</time></trkpt><trkpt lat="45.765965355328305" lon="10.750126726618305"><ele>465.0</ele><time>2026-03-28T14:51:09Z</time></trkpt><trkpt lat="45.765994385926746" lon="10.750259501875762"><ele>465.0</ele><time>2026-03-28T14:51:10Z</time></trkpt><trkpt lat="45.765991577167405" lon="10.750398017641603"><ele>465.0</ele><time>2026-03-28T14:51:11Z</time></trkpt><trkpt lat="45.765983952731716" lon="10.750532121652379"><ele>465.4</ele><time>2026-03-28T14:51:12Z</time></trkpt><trkpt lat="45.76597603077354" lon="10.750670958947161"><ele>465.8</ele><time>2026-03-28T14:51:13Z</time></trkpt><trkpt lat="45.76597614462355" lon="10.750806961750717"><ele>466.20000000000005</ele><time>2026-03-28T14:51:14Z</time></trkpt><trkpt lat="45.765987285917305" lon="10.750936870041468"><ele>466.6</ele><time>2026-03-28T14:51:15Z</time></trkpt><trkpt lat="45.76601411327433" lon="10.751052016765257"><ele>467.0</ele><time>2026-03-28T14:51:16Z</time></trkpt><trkpt lat="45.76605906470365" lon="10.751159337211762"><ele>467.0</ele><time>2026-03-28T14:51:17Z</time></trkpt><trkpt lat="45.76610754695761" lon="10.751270148752663"><ele>467.00000000000006</ele><time>2026-03-28T14:51:18Z</time></trkpt><trkpt lat="45.76615793067537" lon="10.751388075715301"><ele>467.00000000000006</ele><time>2026-03-28T14:51:19Z</time></trkpt><trkpt lat="45.76620715409647" lon="10.75150693877418"><ele>467.0</ele><time>2026-03-28T14:51:20Z</time></trkpt><trkpt lat="45.76625424514514" lon="10.751622750844017"><ele>467.0</ele><time>2026-03-28T14:51:21Z</time></trkpt><trkpt lat="45.76629786418049" lon="10.751730558551037"><ele>466.99999999999994</ele><time>2026-03-28T14:51:22Z</time></trkpt><trkpt lat="45.76633789051124" lon="10.751808949174997"><ele>467.0</ele><time>2026-03-28T14:51:23Z</time></trkpt><trkpt lat="45.76637010831744" lon="10.75188734841422"><ele>467.0</ele><time>2026-03-28T14:51:24Z</time></trkpt><trkpt lat="45.766409651474426" lon="10.751961160572629"><ele>467.0</ele><time>2026-03-28T14:51:25Z</time></trkpt><trkpt lat="45.76649739674077" lon="10.752082407216943"><ele>466.99999999999994</ele><time>2026-03-28T14:51:27Z</time></trkpt><trkpt lat="45.76653158242318" lon="10.752168876889609"><ele>467.0</ele><time>2026-03-28T14:51:28Z</time></trkpt><trkpt lat="45.7665567889998" lon="10.75227661230482"><ele>464.8333333333333</ele><time>2026-03-28T14:51:29Z</time></trkpt><trkpt lat="45.766583770399095" lon="10.752378411197732"><ele>462.66666666666663</ele><time>2026-03-28T14:51:30Z</time></trkpt><trkpt lat="45.766619309493365" lon="10.752465821479602"><ele>460.5</ele><time>2026-03-28T14:51:31Z</time></trkpt><trkpt lat="45.76667555232527" lon="10.75262057241307"><ele>458.33333333333337</ele><time>2026-03-28T14:51:33Z</time></trkpt><trkpt lat="45.766688272305416" lon="10.75271307697871"><ele>456.1666666666667</ele><time>2026-03-28T14:51:34Z</time></trkpt><trkpt lat="45.76670225656148" lon="10.752808253712988"><ele>454.0</ele><time>2026-03-28T14:51:35Z</time></trkpt><trkpt lat="45.76672888774252" lon="10.752894081767652"><ele>452.14285714285717</ele><time>2026-03-28T14:51:36Z</time></trkpt><trkpt lat="45.766757924633055" lon="10.752975206490612"><ele>450.28571428571433</ele><time>2026-03-28T14:51:37Z</time></trkpt><trkpt lat="45.766788552958005" lon="10.753054258201324"><ele>448.42857142857144</ele><time>2026-03-28T14:51:38Z</time></trkpt><trkpt lat="45.766831647528015" lon="10.753124642503535"><ele>446.57142857142856</ele><time>2026-03-28T14:51:39Z</time></trkpt><trkpt lat="45.76688390146329" lon="10.75319727040531"><ele>444.7142857142857</ele><time>2026-03-28T14:51:40Z</time></trkpt><trkpt lat="45.7669352248027" lon="10.753279187216867"><ele>442.8571428571429</ele><time>2026-03-28T14:51:41Z</time></trkpt><trkpt lat="45.76698907853543" lon="10.7533644846602"><ele>441.0</ele><time>2026-03-28T14:51:42Z</time></trkpt><trkpt lat="45.767039307190345" lon="10.753459138866635"><ele>443.8333333333333</ele><time>2026-03-28T14:51:43Z</time></trkpt><trkpt lat="45.767070109221784" lon="10.753568682502939"><ele>446.66666666666663</ele><time>2026-03-28T14:51:44Z</time></trkpt><trkpt lat="45.76711176337338" lon="10.753677548396533"><ele>449.5</ele><time>2026-03-28T14:51:45Z</time></trkpt><trkpt lat="45.767148995665906" lon="10.753780944057743"><ele>452.3333333333333</ele><time>2026-03-28T14:51:46Z</time></trkpt><trkpt lat="45.76717855184523" lon="10.753894322146408"><ele>455.16666666666663</ele><time>2026-03-28T14:51:47Z</time></trkpt><trkpt lat="45.76720129876557" lon="10.75401375721578"><ele>458.0</ele><time>2026-03-28T14:51:48Z</time></trkpt><trkpt lat="45.76722258311736" lon="10.75413756367753"><ele>457.99999999999994</ele><time>2026-03-28T14:51:49Z</time></trkpt><trkpt lat="45.76724035139253" lon="10.754255918175883"><ele>458.0</ele><time>2026-03-28T14:51:50Z</time></trkpt><trkpt lat="45.76725827867429" lon="10.754375332153968"><ele>458.0</ele><time>2026-03-28T14:51:51Z</time></trkpt><trkpt lat="45.76727659647023" lon="10.754497347777535"><ele>458.0</ele><time>2026-03-28T14:51:52Z</time></trkpt><trkpt lat="45.767313650151394" lon="10.75461623935292"><ele>457.99999999999994</ele><time>2026-03-28T14:51:53Z</time></trkpt><trkpt lat="45.76733827713429" lon="10.75473336820809"><ele>458.0</ele><time>2026-03-28T14:51:54Z</time></trkpt><trkpt lat="45.76736106048091" lon="10.7548610294514"><ele>456.2</ele><time>2026-03-28T14:51:55Z</time></trkpt><trkpt lat="45.767414489298375" lon="10.75497538498615"><ele>454.4</ele><time>2026-03-28T14:51:56Z</time></trkpt><trkpt lat="45.767485853104425" lon="10.755069131116203"><ele>452.59999999999997</ele><time>2026-03-28T14:51:57Z</time></trkpt><trkpt lat="45.76755868333865" lon="10.755154218065623"><ele>450.79999999999995</ele><time>2026-03-28T14:51:58Z</time></trkpt><trkpt lat="45.76763229358994" lon="10.755237542429784"><ele>449.0</ele><time>2026-03-28T14:51:59Z</time></trkpt><trkpt lat="45.767706193475284" lon="10.755320614759267"><ele>448.99999999999994</ele><time>2026-03-28T14:52:00Z</time></trkpt><trkpt lat="45.7677842237352" lon="10.75538225195519"><ele>449.0</ele><time>2026-03-28T14:52:01Z</time></trkpt><trkpt lat="45.767847000652196" lon="10.755464898368821"><ele>449.0</ele><time>2026-03-28T14:52:02Z</time></trkpt><trkpt lat="45.767905488888566" lon="10.755554819086711"><ele>449.0</ele><time>2026-03-28T14:52:03Z</time></trkpt><trkpt lat="45.76796692884632" lon="10.755651603624866"><ele>448.99999999999994</ele><time>2026-03-28T14:52:04Z</time></trkpt><trkpt lat="45.768024246825156" lon="10.755755843326275"><ele>449.0</ele><time>2026-03-28T14:52:05Z</time></trkpt><trkpt lat="45.76807884948961" lon="10.755865223279324"><ele>449.0</ele><time>2026-03-28T14:52:06Z</time></trkpt><trkpt lat="45.76813194534038" lon="10.755979024057515"><ele>449.0</ele><time>2026-03-28T14:52:07Z</time></trkpt><trkpt lat="45.76818850266038" lon="10.756093024854442"><ele>449.0</ele><time>2026-03-28T14:52:08Z</time></trkpt><trkpt lat="45.76825461064945" lon="10.756198101207932"><ele>449.0</ele><time>2026-03-28T14:52:09Z</time></trkpt><trkpt lat="45.76831816004073" lon="10.756303894430056"><ele>449.0</ele><time>2026-03-28T14:52:10Z</time></trkpt><trkpt lat="45.768381160832284" lon="10.756408173159222"><ele>449.79999999999995</ele><time>2026-03-28T14:52:11Z</time></trkpt><trkpt lat="45.76844209938538" lon="10.756509584162792"><ele>450.59999999999997</ele><time>2026-03-28T14:52:12Z</time></trkpt><trkpt lat="45.76850247509236" lon="10.756609679700755"><ele>451.4</ele><time>2026-03-28T14:52:13Z</time></trkpt><trkpt lat="45.768561809604776" lon="10.756708580826771"><ele>452.2</ele><time>2026-03-28T14:52:14Z</time></trkpt><trkpt lat="45.76862249215286" lon="10.756807235565113"><ele>453.0</ele><time>2026-03-28T14:52:15Z</time></trkpt><trkpt lat="45.76867866853539" lon="10.756913693229189"><ele>451.0</ele><time>2026-03-28T14:52:16Z</time></trkpt><trkpt lat="45.76872787992121" lon="10.757024811961852"><ele>449.0</ele><time>2026-03-28T14:52:17Z</time></trkpt><trkpt lat="45.76877554422878" lon="10.75713514918968"><ele>447.0</ele><time>2026-03-28T14:52:18Z</time></trkpt><trkpt lat="45.76881922863703" lon="10.757236355123304"><ele>445.0</ele><time>2026-03-28T14:52:19Z</time></trkpt><trkpt lat="45.768860439902056" lon="10.75730986162438"><ele>443.0</ele><time>2026-03-28T14:52:20Z</time></trkpt><trkpt lat="45.7689270956143" lon="10.757422519971158"><ele>441.0</ele><time>2026-03-28T14:52:22Z</time></trkpt><trkpt lat="45.768953386309605" lon="10.757520330857162"><ele>441.0</ele><time>2026-03-28T14:52:25Z</time></trkpt><trkpt lat="45.76889341935342" lon="10.757635206988038"><ele>441.0</ele><time>2026-03-28T14:52:28Z</time></trkpt><trkpt lat="45.76883074341755" lon="10.75777733568597"><ele>441.0</ele><time>2026-03-28T14:52:30Z</time></trkpt><trkpt lat="45.768793739036916" lon="10.757856593810743"><ele>441.0</ele><time>2026-03-28T14:52:31Z</time></trkpt><trkpt lat="45.76876042281199" lon="10.757938386124053"><ele>441.0</ele><time>2026-03-28T14:52:32Z</time></trkpt><trkpt lat="45.76870133715523" lon="10.758099910338085"><ele>441.0</ele><time>2026-03-28T14:52:34Z</time></trkpt><trkpt lat="45.76862606950138" lon="10.75824174737112"><ele>441.0</ele><time>2026-03-28T14:52:36Z</time></trkpt><trkpt lat="45.768564379202196" lon="10.75837717996107"><ele>441.0</ele><time>2026-03-28T14:52:38Z</time></trkpt><trkpt lat="45.76851843169648" lon="10.75846407080975"><ele>441.0</ele><time>2026-03-28T14:52:40Z</time></trkpt><trkpt lat="45.768520890483614" lon="10.758556544220466"><ele>441.0</ele><time>2026-03-28T14:52:43Z</time></trkpt><trkpt lat="45.76851495648511" lon="10.758671323829752"><ele>441.0</ele><time>2026-03-28T14:53:23Z</time></trkpt><trkpt lat="45.768458929922375" lon="10.758724309984563"><ele>441.0</ele><time>2026-03-28T14:53:25Z</time></trkpt><trkpt lat="45.76850352777679" lon="10.758622776481236"><ele>441.0</ele><time>2026-03-28T14:53:29Z</time></trkpt><trkpt lat="45.768517465805495" lon="10.758478794407289"><ele>441.0</ele><time>2026-03-28T14:53:33Z</time></trkpt><trkpt lat="45.76857439708766" lon="10.758419124192342"><ele>441.0</ele><time>2026-03-28T14:53:34Z</time></trkpt><trkpt lat="45.768633682455985" lon="10.7582893840322"><ele>441.0</ele><time>2026-03-28T14:53:36Z</time></trkpt><trkpt lat="45.768698865278836" lon="10.75814238879781"><ele>441.0</ele><time>2026-03-28T14:53:38Z</time></trkpt><trkpt lat="45.76873479187892" lon="10.758064206111452"><ele>441.0</ele><time>2026-03-28T14:53:39Z</time></trkpt><trkpt lat="45.76876703232749" lon="10.757980657618186"><ele>441.0</ele><time>2026-03-28T14:53:40Z</time></trkpt><trkpt lat="45.76879703775616" lon="10.757898159553553"><ele>441.0</ele><time>2026-03-28T14:53:41Z</time></trkpt><trkpt lat="45.7688438080615" lon="10.757767408299104"><ele>441.0</ele><time>2026-03-28T14:53:43Z</time></trkpt><trkpt lat="45.76888737212351" lon="10.757671467258819"><ele>441.0</ele><time>2026-03-28T14:53:45Z</time></trkpt><trkpt lat="45.76893194082899" lon="10.757591314452421"><ele>441.0</ele><time>2026-03-28T14:53:47Z</time></trkpt><trkpt lat="45.769017463331984" lon="10.75758129035287"><ele>441.0</ele><time>2026-03-28T14:53:50Z</time></trkpt><trkpt lat="45.769104597949315" lon="10.757671363234676"><ele>441.0</ele><time>2026-03-28T14:53:52Z</time></trkpt><trkpt lat="45.769190203462465" lon="10.757756191451572"><ele>441.0</ele><time>2026-03-28T14:53:54Z</time></trkpt><trkpt lat="45.76930183990186" lon="10.757840393994032"><ele>441.0</ele><time>2026-03-28T14:53:56Z</time></trkpt><trkpt lat="45.769364945277346" lon="10.757894541859946"><ele>441.0</ele><time>2026-03-28T14:53:57Z</time></trkpt><trkpt lat="45.769429620515474" lon="10.75795476931343"><ele>441.0</ele><time>2026-03-28T14:53:58Z</time></trkpt><trkpt lat="45.76949728734904" lon="10.758014361165312"><ele>441.0</ele><time>2026-03-28T14:53:59Z</time></trkpt><trkpt lat="45.76956544871263" lon="10.758080971302656"><ele>441.0</ele><time>2026-03-28T14:54:00Z</time></trkpt><trkpt lat="45.76962919490893" lon="10.758156242042364"><ele>441.0</ele><time>2026-03-28T14:54:01Z</time></trkpt><trkpt lat="45.76968869557975" lon="10.75822803661723"><ele>441.0</ele><time>2026-03-28T14:54:02Z</time></trkpt><trkpt lat="45.76975386735606" lon="10.758295123902212"><ele>441.0</ele><time>2026-03-28T14:54:03Z</time></trkpt><trkpt lat="45.7698231115305" lon="10.758359329919196"><ele>441.0</ele><time>2026-03-28T14:54:04Z</time></trkpt><trkpt lat="45.76989428740086" lon="10.758422258499877"><ele>441.0</ele><time>2026-03-28T14:54:05Z</time></trkpt><trkpt lat="45.76996577646495" lon="10.758481985689617"><ele>441.0</ele><time>2026-03-28T14:54:06Z</time></trkpt><trkpt lat="45.770035048215625" lon="10.758536954024999"><ele>441.0</ele><time>2026-03-28T14:54:07Z</time></trkpt><trkpt lat="45.77010451758156" lon="10.758590482847731"><ele>441.0</ele><time>2026-03-28T14:54:08Z</time></trkpt><trkpt lat="45.77017103594039" lon="10.758642272738259"><ele>438.3333333333333</ele><time>2026-03-28T14:54:09Z</time></trkpt><trkpt lat="45.77024353483694" lon="10.758699239732595"><ele>435.66666666666663</ele><time>2026-03-28T14:54:11Z</time></trkpt><trkpt lat="45.77031334190581" lon="10.758750330110525"><ele>433.0</ele><time>2026-03-28T14:54:13Z</time></trkpt><trkpt lat="45.77042428313325" lon="10.758829779833556"><ele>430.3333333333333</ele><time>2026-03-28T14:54:15Z</time></trkpt><trkpt lat="45.77048794489286" lon="10.758882310951567"><ele>427.66666666666663</ele><time>2026-03-28T14:54:16Z</time></trkpt><trkpt lat="45.77054799981502" lon="10.758940380781839"><ele>425.0</ele><time>2026-03-28T14:54:17Z</time></trkpt><trkpt lat="45.77061118968598" lon="10.758996136338705"><ele>424.99999999999994</ele><time>2026-03-28T14:54:18Z</time></trkpt><trkpt lat="45.770683392502775" lon="10.759037084705152"><ele>425.0</ele><time>2026-03-28T14:54:19Z</time></trkpt><trkpt lat="45.770758386500184" lon="10.759053615977203"><ele>425.0</ele><time>2026-03-28T14:54:20Z</time></trkpt><trkpt lat="45.770835506823836" lon="10.75905161301429"><ele>425.0</ele><time>2026-03-28T14:54:21Z</time></trkpt><trkpt lat="45.77091485429123" lon="10.759039651904331"><ele>424.99999999999994</ele><time>2026-03-28T14:54:22Z</time></trkpt><trkpt lat="45.770997327108574" lon="10.75903074044751"><ele>425.0</ele><time>2026-03-28T14:54:23Z</time></trkpt><trkpt lat="45.77107187181529" lon="10.759014735820564"><ele>424.2857142857143</ele><time>2026-03-28T14:54:24Z</time></trkpt><trkpt lat="45.771144860942066" lon="10.759006234896571"><ele>423.57142857142856</ele><time>2026-03-28T14:54:25Z</time></trkpt><trkpt lat="45.77121511499585" lon="10.759021563592194"><ele>422.8571428571429</ele><time>2026-03-28T14:54:26Z</time></trkpt><trkpt lat="45.77129194792675" lon="10.759048407556193"><ele>422.1428571428571</ele><time>2026-03-28T14:54:27Z</time></trkpt><trkpt lat="45.77134656345775" lon="10.759102148583825"><ele>421.42857142857144</ele><time>2026-03-28T14:54:28Z</time></trkpt><trkpt lat="45.771395576054175" lon="10.759166771541228"><ele>420.7142857142857</ele><time>2026-03-28T14:54:29Z</time></trkpt><trkpt lat="45.771434921878644" lon="10.759246269486857"><ele>420.0</ele><time>2026-03-28T14:54:30Z</time></trkpt><trkpt lat="45.7715068865596" lon="10.759380697394985"><ele>418.0</ele><time>2026-03-28T14:54:32Z</time></trkpt><trkpt lat="45.77153132406466" lon="10.759535463915217"><ele>416.0</ele><time>2026-03-28T14:54:34Z</time></trkpt><trkpt lat="45.771522113290935" lon="10.759632871846227"><ele>414.0</ele><time>2026-03-28T14:54:36Z</time></trkpt><trkpt lat="45.77151570929419" lon="10.759724170259526"><ele>412.0</ele><time>2026-03-28T14:54:38Z</time></trkpt><trkpt lat="45.771501800533876" lon="10.759878321939304"><ele>410.0</ele><time>2026-03-28T14:54:40Z</time></trkpt><trkpt lat="45.77150712513823" lon="10.760044201867856"><ele>409.99999999999994</ele><time>2026-03-28T14:54:42Z</time></trkpt><trkpt lat="45.77152872984073" lon="10.760162357253977"><ele>410.0</ele><time>2026-03-28T14:54:44Z</time></trkpt><trkpt lat="45.771542334439125" lon="10.760258630366232"><ele>410.0</ele><time>2026-03-28T14:54:47Z</time></trkpt><trkpt lat="45.77159431823222" lon="10.760317695755353"><ele>410.0</ele><time>2026-03-28T14:54:52Z</time></trkpt><trkpt lat="45.77166490262451" lon="10.760260171859386"><ele>409.99999999999994</ele><time>2026-03-28T14:54:56Z</time></trkpt><trkpt lat="45.77173015193004" lon="10.760178475455685"><ele>410.0</ele><time>2026-03-28T14:54:58Z</time></trkpt><trkpt lat="45.77179179676299" lon="10.76013618719651"><ele>409.66666666666663</ele><time>2026-03-28T14:55:01Z</time></trkpt><trkpt lat="45.7718458191034" lon="10.76021081251522"><ele>409.3333333333333</ele><time>2026-03-28T14:55:03Z</time></trkpt><trkpt lat="45.77187648565488" lon="10.760330110839773"><ele>409.0</ele><time>2026-03-28T14:55:06Z</time></trkpt><trkpt lat="45.77193710571116" lon="10.760382564112422"><ele>408.66666666666663</ele><time>2026-03-28T14:55:09Z</time></trkpt><trkpt lat="45.77196838579995" lon="10.760483472509783"><ele>408.3333333333333</ele><time>2026-03-28T14:55:14Z</time></trkpt><trkpt lat="45.77197531969713" lon="10.760581933187824"><ele>408.0</ele><time>2026-03-28T14:55:16Z</time></trkpt><trkpt lat="45.77200997663169" lon="10.76069700570775"><ele>405.2</ele><time>2026-03-28T14:55:19Z</time></trkpt><trkpt lat="45.77203827997422" lon="10.760806292808192"><ele>402.4</ele><time>2026-03-28T14:55:22Z</time></trkpt><trkpt lat="45.77206205495084" lon="10.76089535934936"><ele>399.59999999999997</ele><time>2026-03-28T14:55:25Z</time></trkpt><trkpt lat="45.7720995861424" lon="10.760979370346242"><ele>396.79999999999995</ele><time>2026-03-28T14:55:28Z</time></trkpt><trkpt lat="45.77207191731689" lon="10.760886142634286"><ele>394.0</ele><time>2026-03-28T14:55:52Z</time></trkpt><trkpt lat="45.77218926091792" lon="10.760528619333165"><ele>394.0</ele><time>2026-03-28T14:55:54Z</time></trkpt><trkpt lat="45.77202133157449" lon="10.76063472903823"><ele>394.0</ele><time>2026-03-28T14:55:56Z</time></trkpt><trkpt lat="45.77208409007828" lon="10.760373909032422"><ele>394.0</ele><time>2026-03-28T14:55:58Z</time></trkpt><trkpt lat="45.77203646837754" lon="10.760303858951072"><ele>394.0</ele><time>2026-03-28T14:56:00Z</time></trkpt><trkpt lat="45.771992322200724" lon="10.7602389213997"><ele>396.2</ele><time>2026-03-28T14:56:02Z</time></trkpt><trkpt lat="45.77190144795386" lon="10.760168043132827"><ele>398.4</ele><time>2026-03-28T14:56:04Z</time></trkpt><trkpt lat="45.77181400122102" lon="10.76011677862178"><ele>400.6</ele><time>2026-03-28T14:56:06Z</time></trkpt><trkpt lat="45.771729693008766" lon="10.760174754461646"><ele>402.8</ele><time>2026-03-28T14:56:08Z</time></trkpt><trkpt lat="45.77164354232558" lon="10.760230293538061"><ele>405.0</ele><time>2026-03-28T14:56:10Z</time></trkpt><trkpt lat="45.77157479860123" lon="10.76025889060276"><ele>406.0</ele><time>2026-03-28T14:56:12Z</time></trkpt><trkpt lat="45.77153688609895" lon="10.76013431857066"><ele>407.0</ele><time>2026-03-28T14:56:14Z</time></trkpt><trkpt lat="45.771522595962" lon="10.759988847775327"><ele>408.0</ele><time>2026-03-28T14:56:16Z</time></trkpt><trkpt lat="45.7715218489087" lon="10.7598582633448"><ele>409.0</ele><time>2026-03-28T14:56:18Z</time></trkpt><trkpt lat="45.771537573740716" lon="10.759753666166864"><ele>410.0</ele><time>2026-03-28T14:56:20Z</time></trkpt><trkpt lat="45.77143262217118" lon="10.759703424301934"><ele>409.99999999999994</ele><time>2026-03-28T14:56:24Z</time></trkpt><trkpt lat="45.77134416778785" lon="10.759708590841766"><ele>410.0</ele><time>2026-03-28T14:56:33Z</time></trkpt><trkpt lat="45.771263232249005" lon="10.759705648633743"><ele>410.0</ele><time>2026-03-28T14:56:35Z</time></trkpt><trkpt lat="45.77119063970591" lon="10.75970406226017"><ele>410.0</ele><time>2026-03-28T14:56:37Z</time></trkpt><trkpt lat="45.77111357303022" lon="10.75971553780814"><ele>409.99999999999994</ele><time>2026-03-28T14:56:39Z</time></trkpt><trkpt lat="45.77104672115722" lon="10.759719270073871"><ele>410.0</ele><time>2026-03-28T14:56:41Z</time></trkpt><trkpt lat="45.77098273569537" lon="10.759721043804111"><ele>410.8333333333333</ele><time>2026-03-28T14:56:43Z</time></trkpt><trkpt lat="45.770890331547925" lon="10.75972105392514"><ele>411.66666666666663</ele><time>2026-03-28T14:56:46Z</time></trkpt><trkpt lat="45.77079825156508" lon="10.759723264911559"><ele>412.5</ele><time>2026-03-28T14:56:49Z</time></trkpt><trkpt lat="45.77072454249043" lon="10.759729425393703"><ele>413.33333333333337</ele><time>2026-03-28T14:56:52Z</time></trkpt><trkpt lat="45.770792944872376" lon="10.759706294069579"><ele>414.1666666666667</ele><time>2026-03-28T14:57:11Z</time></trkpt><trkpt lat="45.770898455003305" lon="10.759705877844045"><ele>415.0</ele><time>2026-03-28T14:57:14Z</time></trkpt><trkpt lat="45.770987786153555" lon="10.759703300979076"><ele>414.0</ele><time>2026-03-28T14:57:16Z</time></trkpt><trkpt lat="45.771088805781005" lon="10.75970038692598"><ele>413.0</ele><time>2026-03-28T14:57:18Z</time></trkpt><trkpt lat="45.77118817243854" lon="10.759697846173541"><ele>412.0</ele><time>2026-03-28T14:57:20Z</time></trkpt><trkpt lat="45.77127042009027" lon="10.759695701496746"><ele>411.0</ele><time>2026-03-28T14:57:22Z</time></trkpt><trkpt lat="45.771201237308794" lon="10.759697505554879"><ele>410.0</ele><time>2026-03-28T14:57:35Z</time></trkpt><trkpt lat="45.77109814316211" lon="10.759700193804523"><ele>410.8333333333333</ele><time>2026-03-28T14:57:37Z</time></trkpt><trkpt lat="45.77099613873998" lon="10.759703060038508"><ele>411.66666666666663</ele><time>2026-03-28T14:57:39Z</time></trkpt><trkpt lat="45.77093159985065" lon="10.759704921740717"><ele>412.5</ele><time>2026-03-28T14:57:40Z</time></trkpt><trkpt lat="45.77085489466937" lon="10.7597063087729"><ele>413.33333333333337</ele><time>2026-03-28T14:57:41Z</time></trkpt><trkpt lat="45.77076235013213" lon="10.759703870730316"><ele>414.1666666666667</ele><time>2026-03-28T14:57:42Z</time></trkpt><trkpt lat="45.77069472791767" lon="10.759698514353824"><ele>415.0</ele><time>2026-03-28T14:57:43Z</time></trkpt><trkpt lat="45.77050828010462" lon="10.759578786440741"><ele>415.0</ele><time>2026-03-28T14:57:44Z</time></trkpt><trkpt lat="45.77044515240179" lon="10.759545688953112"><ele>415.0</ele><time>2026-03-28T14:57:45Z</time></trkpt><trkpt lat="45.77038304130378" lon="10.759513124572939"><ele>415.0</ele><time>2026-03-28T14:57:46Z</time></trkpt><trkpt lat="45.770876904880375" lon="10.759246916196407"><ele>425.0</ele><time>2026-03-28T14:57:47Z</time></trkpt><trkpt lat="45.770367926331005" lon="10.758779138689535"><ele>425.0</ele><time>2026-03-28T14:57:49Z</time></trkpt><trkpt lat="45.77027706608311" lon="10.758700722868502"><ele>425.0</ele><time>2026-03-28T14:57:51Z</time></trkpt><trkpt lat="45.770217350983486" lon="10.758643539009645"><ele>425.0</ele><time>2026-03-28T14:57:53Z</time></trkpt><trkpt lat="45.77013712077352" lon="10.758582463340979"><ele>425.0</ele><time>2026-03-28T14:57:55Z</time></trkpt><trkpt lat="45.77003469013378" lon="10.758497485395269"><ele>425.0</ele><time>2026-03-28T14:57:57Z</time></trkpt><trkpt lat="45.76997700064942" lon="10.758449354643735"><ele>427.2857142857143</ele><time>2026-03-28T14:57:58Z</time></trkpt><trkpt lat="45.76991885044318" lon="10.758402351282884"><ele>429.57142857142856</ele><time>2026-03-28T14:57:59Z</time></trkpt><trkpt lat="45.769858974780455" lon="10.758351095035401"><ele>431.8571428571429</ele><time>2026-03-28T14:58:00Z</time></trkpt><trkpt lat="45.76979696265075" lon="10.758295625039047"><ele>434.1428571428571</ele><time>2026-03-28T14:58:01Z</time></trkpt><trkpt lat="45.76974444736089" lon="10.758242927542891"><ele>436.42857142857144</ele><time>2026-03-28T14:58:02Z</time></trkpt><trkpt lat="45.76969249213051" lon="10.758181452769676"><ele>438.7142857142857</ele><time>2026-03-28T14:58:03Z</time></trkpt><trkpt lat="45.769639016890224" lon="10.758117474511184"><ele>441.0</ele><time>2026-03-28T14:58:04Z</time></trkpt><trkpt lat="45.76958263866906" lon="10.75805312862301"><ele>441.0</ele><time>2026-03-28T14:58:05Z</time></trkpt><trkpt lat="45.76952289632891" lon="10.757988547019252"><ele>441.0</ele><time>2026-03-28T14:58:06Z</time></trkpt><trkpt lat="45.76945990871258" lon="10.757921827547133"><ele>441.0</ele><time>2026-03-28T14:58:07Z</time></trkpt><trkpt lat="45.76939192656369" lon="10.757863222771674"><ele>441.0</ele><time>2026-03-28T14:58:08Z</time></trkpt><trkpt lat="45.76932237233765" lon="10.757814400304998"><ele>441.0</ele><time>2026-03-28T14:58:09Z</time></trkpt><trkpt lat="45.769259932894805" lon="10.757765428055867"><ele>441.0</ele><time>2026-03-28T14:58:10Z</time></trkpt><trkpt lat="45.76920279379546" lon="10.757720872180416"><ele>441.0</ele><time>2026-03-28T14:58:11Z</time></trkpt><trkpt lat="45.7691034100499" lon="10.757636613809819"><ele>441.0</ele><time>2026-03-28T14:58:13Z</time></trkpt><trkpt lat="45.76903049232356" lon="10.757536846016206"><ele>441.0</ele><time>2026-03-28T14:58:15Z</time></trkpt><trkpt lat="45.768895376241154" lon="10.757613798182355"><ele>441.0</ele><time>2026-03-28T14:58:18Z</time></trkpt><trkpt lat="45.76884391782455" lon="10.757760096855257"><ele>441.0</ele><time>2026-03-28T14:58:20Z</time></trkpt><trkpt lat="45.768811505515146" lon="10.75783956984876"><ele>441.0</ele><time>2026-03-28T14:58:21Z</time></trkpt><trkpt lat="45.76877452132821" lon="10.75792568689413"><ele>439.8333333333333</ele><time>2026-03-28T14:58:22Z</time></trkpt><trkpt lat="45.76874057878282" lon="10.758019651482554"><ele>438.66666666666663</ele><time>2026-03-28T14:58:23Z</time></trkpt><trkpt lat="45.76870268713404" lon="10.758112404492202"><ele>437.5</ele><time>2026-03-28T14:58:24Z</time></trkpt><trkpt lat="45.768651409872" lon="10.758186113537862"><ele>436.3333333333333</ele><time>2026-03-28T14:58:25Z</time></trkpt><trkpt lat="45.76858629823878" lon="10.75832059282867"><ele>435.16666666666663</ele><time>2026-03-28T14:58:27Z</time></trkpt><trkpt lat="45.76854063199923" lon="10.758415959692131"><ele>434.0</ele><time>2026-03-28T14:58:29Z</time></trkpt><trkpt lat="45.76850963013767" lon="10.758514273158813"><ele>435.16666666666663</ele><time>2026-03-28T14:58:31Z</time></trkpt><trkpt lat="45.768511232656685" lon="10.758631306693799"><ele>436.3333333333333</ele><time>2026-03-28T14:58:34Z</time></trkpt><trkpt lat="45.7686132912191" lon="10.758632660237094"><ele>437.5</ele><time>2026-03-28T14:58:37Z</time></trkpt><trkpt lat="45.768678632711996" lon="10.758688154974596"><ele>438.66666666666663</ele><time>2026-03-28T14:58:39Z</time></trkpt><trkpt lat="45.7687346008344" lon="10.758743130367586"><ele>439.8333333333333</ele><time>2026-03-28T14:58:41Z</time></trkpt><trkpt lat="45.7686678929085" lon="10.75882839483788"><ele>441.0</ele><time>2026-03-28T14:58:44Z</time></trkpt><trkpt lat="45.768629999269706" lon="10.758909167329023"><ele>441.0</ele><time>2026-03-28T14:58:47Z</time></trkpt><trkpt lat="45.768563980320664" lon="10.75888014432332"><ele>441.0</ele><time>2026-03-28T15:00:39Z</time></trkpt><trkpt lat="45.76850613518487" lon="10.758970992748061"><ele>441.0</ele><time>2026-03-28T15:00:45Z</time></trkpt><trkpt lat="45.76843189078264" lon="10.759028079138076"><ele>441.0</ele><time>2026-03-28T15:00:49Z</time></trkpt><trkpt lat="45.76842291216474" lon="10.759117849067254"><ele>441.0</ele><time>2026-03-28T15:00:53Z</time></trkpt><trkpt lat="45.768396459642304" lon="10.75920004737269"><ele>441.0</ele><time>2026-03-28T15:01:05Z</time></trkpt><trkpt lat="45.76837181739163" lon="10.759286632010165"><ele>441.0</ele><time>2026-03-28T15:01:36Z</time></trkpt><trkpt lat="45.768421641784265" lon="10.75920867970571"><ele>441.0</ele><time>2026-03-28T15:06:01Z</time></trkpt><trkpt lat="45.768399315274166" lon="10.75908108147639"><ele>441.0</ele><time>2026-03-28T15:06:20.999Z</time></trkpt><trkpt lat="45.76845518613125" lon="10.759010375306127"><ele>441.0</ele><time>2026-03-28T15:06:46.024Z</time></trkpt><trkpt lat="45.76852400552938" lon="10.75895585491022"><ele>441.0</ele><time>2026-03-28T15:06:50.999Z</time></trkpt><trkpt lat="45.76850654550456" lon="10.758868895101196"><ele>441.0</ele><time>2026-03-28T15:06:59.999Z</time></trkpt><trkpt lat="45.76851640168294" lon="10.758984770896392"><ele>441.0</ele><time>2026-03-28T15:38:59.001Z</time></trkpt><trkpt lat="45.768480920167825" lon="10.759077171552082"><ele>441.0</ele><time>2026-03-28T15:39:05.001Z</time></trkpt><trkpt lat="45.76844495984879" lon="10.758986164651173"><ele>441.0</ele><time>2026-03-28T15:39:12.001Z</time></trkpt><trkpt lat="45.76845833303707" lon="10.758880450530468"><ele>441.0</ele><time>2026-03-28T15:39:20.001Z</time></trkpt><trkpt lat="45.768457460236014" lon="10.758712551176485"><ele>441.0</ele><time>2026-03-28T15:40:07.002Z</time></trkpt><trkpt lat="45.76847945898699" lon="10.758849939039411"><ele>441.0</ele><time>2026-03-28T15:40:11.002Z</time></trkpt><trkpt lat="45.76848661654856" lon="10.758941190617037"><ele>441.0</ele><time>2026-03-28T15:40:17.002Z</time></trkpt><trkpt lat="45.76847812813629" lon="10.759166044211467"><ele>441.0</ele><time>2026-03-28T15:40:23.002Z</time></trkpt><trkpt lat="45.76844242259165" lon="10.759044139854527"><ele>441.0</ele><time>2026-03-28T15:40:26.002Z</time></trkpt><trkpt lat="45.76853946786938" lon="10.758865987892037"><ele>441.0</ele><time>2026-03-28T15:40:32.002Z</time></trkpt><trkpt lat="45.768464249782674" lon="10.759059949081772"><ele>441.0</ele><time>2026-03-28T15:40:44.002Z</time></trkpt><trkpt lat="45.76854232788708" lon="10.759054507153111"><ele>441.0</ele><time>2026-03-28T15:41:06.001Z</time></trkpt><trkpt lat="45.76840305165665" lon="10.759047717543172"><ele>441.0</ele><time>2026-03-28T15:41:25.001Z</time></trkpt><trkpt lat="45.76851384484918" lon="10.758884406806743"><ele>441.0</ele><time>2026-03-28T15:41:31.001Z</time></trkpt><trkpt lat="45.76845072461913" lon="10.758928547434447"><ele>441.0</ele><time>2026-03-28T15:41:34.001Z</time></trkpt><trkpt lat="45.768502698443484" lon="10.758861317819669"><ele>441.0</ele><time>2026-03-28T15:42:09.001Z</time></trkpt><trkpt lat="45.76849275971195" lon="10.758770363375413"><ele>438.85714285714283</ele><time>2026-03-28T15:43:56.001Z</time></trkpt><trkpt lat="45.76852795610716" lon="10.758848233327663"><ele>436.7142857142857</ele><time>2026-03-28T15:44:05.001Z</time></trkpt><trkpt lat="45.768580957627556" lon="10.758773301568494"><ele>434.57142857142856</ele><time>2026-03-28T15:44:09.001Z</time></trkpt><trkpt lat="45.76857777468554" lon="10.758863690577815"><ele>432.42857142857144</ele><time>2026-03-28T15:44:23.001Z</time></trkpt><trkpt lat="45.76863756565531" lon="10.758916564119549"><ele>430.2857142857143</ele><time>2026-03-28T15:44:29.001Z</time></trkpt><trkpt lat="45.76868551180196" lon="10.758833154783241"><ele>428.1428571428571</ele><time>2026-03-28T15:46:28.001Z</time></trkpt><trkpt lat="45.76866374847474" lon="10.758744155365916"><ele>426.0</ele><time>2026-03-28T15:46:30.001Z</time></trkpt><trkpt lat="45.76860503209367" lon="10.758690628018668"><ele>426.0</ele><time>2026-03-28T15:46:32.001Z</time></trkpt><trkpt lat="45.768542155595746" lon="10.75866013656663"><ele>426.0</ele><time>2026-03-28T15:46:34.001Z</time></trkpt><trkpt lat="45.7685040128238" lon="10.758538880443147"><ele>426.0</ele><time>2026-03-28T15:46:37.001Z</time></trkpt><trkpt lat="45.76854674097849" lon="10.758441080250176"><ele>426.0</ele><time>2026-03-28T15:46:39.001Z</time></trkpt><trkpt lat="45.76859181589668" lon="10.758333956618616"><ele>426.0</ele><time>2026-03-28T15:46:41.001Z</time></trkpt><trkpt lat="45.768643122777696" lon="10.758205824151382"><ele>426.0</ele><time>2026-03-28T15:46:43.001Z</time></trkpt><trkpt lat="45.76871233491898" lon="10.758083878068307"><ele>427.6</ele><time>2026-03-28T15:46:45.001Z</time></trkpt><trkpt lat="45.76877303079223" lon="10.757964813425085"><ele>429.20000000000005</ele><time>2026-03-28T15:46:47.001Z</time></trkpt><trkpt lat="45.76883340832107" lon="10.757857152433331"><ele>430.79999999999995</ele><time>2026-03-28T15:46:49.001Z</time></trkpt><trkpt lat="45.76888269723338" lon="10.75774080254559"><ele>432.4</ele><time>2026-03-28T15:46:51.001Z</time></trkpt><trkpt lat="45.76892938877775" lon="10.757630584233778"><ele>434.0</ele><time>2026-03-28T15:46:53.001Z</time></trkpt><trkpt lat="45.76896763756626" lon="10.757541146106783"><ele>434.0</ele><time>2026-03-28T15:46:56.001Z</time></trkpt><trkpt lat="45.76904386283358" lon="10.757609181551214"><ele>434.0</ele><time>2026-03-28T15:46:59.001Z</time></trkpt><trkpt lat="45.769140347741576" lon="10.75769893270416"><ele>434.0</ele><time>2026-03-28T15:47:01.001Z</time></trkpt><trkpt lat="45.76923931878796" lon="10.757781890681335"><ele>434.0</ele><time>2026-03-28T15:47:03.001Z</time></trkpt><trkpt lat="45.769302119714254" lon="10.757825563272059"><ele>434.0</ele><time>2026-03-28T15:47:04.001Z</time></trkpt><trkpt lat="45.769367241340014" lon="10.757874653222958"><ele>435.0</ele><time>2026-03-28T15:47:05.001Z</time></trkpt><trkpt lat="45.76943713800377" lon="10.757926817811818"><ele>436.0</ele><time>2026-03-28T15:47:06.001Z</time></trkpt><trkpt lat="45.76949511787344" lon="10.757986536692735"><ele>437.0</ele><time>2026-03-28T15:47:07.001Z</time></trkpt><trkpt lat="45.76956016304193" lon="10.75803833139456"><ele>438.0</ele><time>2026-03-28T15:47:08.001Z</time></trkpt><trkpt lat="45.76961070989606" lon="10.758106369673866"><ele>439.0</ele><time>2026-03-28T15:47:09.001Z</time></trkpt><trkpt lat="45.76966378654503" lon="10.758169438442621"><ele>440.0</ele><time>2026-03-28T15:47:10.001Z</time></trkpt><trkpt lat="45.769713811889865" lon="10.758228638261256"><ele>441.0</ele><time>2026-03-28T15:47:11.001Z</time></trkpt><trkpt lat="45.769768553173385" lon="10.758284843963896"><ele>441.0</ele><time>2026-03-28T15:47:12.001Z</time></trkpt><trkpt lat="45.769828366872595" lon="10.758344325181803"><ele>441.0</ele><time>2026-03-28T15:47:13.001Z</time></trkpt><trkpt lat="45.76989498481274" lon="10.758403720559427"><ele>441.0</ele><time>2026-03-28T15:47:14.001Z</time></trkpt><trkpt lat="45.76996457175564" lon="10.758460655047752"><ele>441.0</ele><time>2026-03-28T15:47:15.001Z</time></trkpt><trkpt lat="45.770036037489376" lon="10.758515976015323"><ele>441.0</ele><time>2026-03-28T15:47:16.001Z</time></trkpt><trkpt lat="45.77010398051701" lon="10.758565634344022"><ele>441.0</ele><time>2026-03-28T15:47:17.001Z</time></trkpt><trkpt lat="45.77017221384456" lon="10.758617003335154"><ele>437.8</ele><time>2026-03-28T15:47:18.001Z</time></trkpt><trkpt lat="45.77022418752567" lon="10.75868583989084"><ele>434.6</ele><time>2026-03-28T15:47:19.001Z</time></trkpt><trkpt lat="45.77033221843846" lon="10.758772329094706"><ele>431.4</ele><time>2026-03-28T15:47:21.001Z</time></trkpt><trkpt lat="45.770436492959156" lon="10.7588595765261"><ele>428.2</ele><time>2026-03-28T15:47:23.001Z</time></trkpt><trkpt lat="45.77054558035626" lon="10.758952484399217"><ele>425.0</ele><time>2026-03-28T15:47:25.001Z</time></trkpt><trkpt lat="45.770614772128326" lon="10.758985314080899"><ele>425.0</ele><time>2026-03-28T15:47:26.001Z</time></trkpt><trkpt lat="45.77068278766366" lon="10.759029091863841"><ele>425.0</ele><time>2026-03-28T15:47:27.001Z</time></trkpt><trkpt lat="45.77074738206688" lon="10.759057293604867"><ele>425.0</ele><time>2026-03-28T15:47:28.001Z</time></trkpt><trkpt lat="45.770812705123745" lon="10.75906766580497"><ele>425.0</ele><time>2026-03-28T15:47:29.001Z</time></trkpt><trkpt lat="45.77088108153617" lon="10.75906102858832"><ele>425.0</ele><time>2026-03-28T15:47:30.001Z</time></trkpt><trkpt lat="45.770955016916176" lon="10.759046325301407"><ele>425.0</ele><time>2026-03-28T15:47:31.001Z</time></trkpt><trkpt lat="45.77103578142633" lon="10.759019616849233"><ele>425.0</ele><time>2026-03-28T15:47:32Z</time></trkpt><trkpt lat="45.77111201792788" lon="10.759010901047878"><ele>424.16666666666663</ele><time>2026-03-28T15:47:33Z</time></trkpt><trkpt lat="45.7711903896532" lon="10.759013964485938"><ele>423.3333333333333</ele><time>2026-03-28T15:47:34Z</time></trkpt><trkpt lat="45.771266174317" lon="10.759029510393676"><ele>422.5</ele><time>2026-03-28T15:47:35Z</time></trkpt><trkpt lat="45.771335692769966" lon="10.759058294323578"><ele>421.66666666666663</ele><time>2026-03-28T15:47:36Z</time></trkpt><trkpt lat="45.77140027070203" lon="10.759116501500847"><ele>420.8333333333333</ele><time>2026-03-28T15:47:37Z</time></trkpt><trkpt lat="45.77142806301222" lon="10.759225305433095"><ele>420.0</ele><time>2026-03-28T15:47:38Z</time></trkpt><trkpt lat="45.771479437244444" lon="10.759295703560458"><ele>418.3333333333333</ele><time>2026-03-28T15:47:39Z</time></trkpt><trkpt lat="45.771519667419675" lon="10.759381624587682"><ele>416.66666666666663</ele><time>2026-03-28T15:47:40Z</time></trkpt><trkpt lat="45.77155519845266" lon="10.759469755539989"><ele>415.0</ele><time>2026-03-28T15:47:41Z</time></trkpt><trkpt lat="45.771538438305114" lon="10.759577861112456"><ele>413.3333333333333</ele><time>2026-03-28T15:47:42Z</time></trkpt><trkpt lat="45.77151658716003" lon="10.759684366447082"><ele>411.66666666666663</ele><time>2026-03-28T15:47:43Z</time></trkpt><trkpt lat="45.771501322396084" lon="10.75980638112916"><ele>410.0</ele><time>2026-03-28T15:47:44Z</time></trkpt><trkpt lat="45.771497556427754" lon="10.759928833380396"><ele>409.99999999999994</ele><time>2026-03-28T15:47:45Z</time></trkpt><trkpt lat="45.77150539027791" lon="10.760046900883417"><ele>410.0</ele><time>2026-03-28T15:47:46Z</time></trkpt><trkpt lat="45.77151624226608" lon="10.760141173203735"><ele>410.0</ele><time>2026-03-28T15:47:47Z</time></trkpt><trkpt lat="45.77153109664831" lon="10.760232287522184"><ele>410.0</ele><time>2026-03-28T15:47:48Z</time></trkpt><trkpt lat="45.77156990321804" lon="10.76033268398966"><ele>409.99999999999994</ele><time>2026-03-28T15:47:50Z</time></trkpt><trkpt lat="45.77164525157902" lon="10.760305057863508"><ele>410.0</ele><time>2026-03-28T15:47:51Z</time></trkpt><trkpt lat="45.771717399173184" lon="10.760220549979747"><ele>410.0</ele><time>2026-03-28T15:47:53Z</time></trkpt><trkpt lat="45.77181273292033" lon="10.76012809376101"><ele>410.0</ele><time>2026-03-28T15:47:55Z</time></trkpt><trkpt lat="45.77190109880453" lon="10.760209404098932"><ele>410.0</ele><time>2026-03-28T15:47:57Z</time></trkpt><trkpt lat="45.77190491840348" lon="10.760315504727712"><ele>410.0</ele><time>2026-03-28T15:47:59Z</time></trkpt><trkpt lat="45.77211776321037" lon="10.760342032928857"><ele>409.16666666666663</ele><time>2026-03-28T15:48:13Z</time></trkpt><trkpt lat="45.77208951895504" lon="10.760191363454833"><ele>408.3333333333333</ele><time>2026-03-28T15:48:15Z</time></trkpt><trkpt lat="45.772189425718764" lon="10.76017714486648"><ele>407.5</ele><time>2026-03-28T15:48:17Z</time></trkpt><trkpt lat="45.772262060046515" lon="10.760127942320857"><ele>406.66666666666663</ele><time>2026-03-28T15:48:18Z</time></trkpt><trkpt lat="45.77233707988479" lon="10.76009710738303"><ele>405.8333333333333</ele><time>2026-03-28T15:48:19Z</time></trkpt><trkpt lat="45.77241438809271" lon="10.76006594525844"><ele>405.0</ele><time>2026-03-28T15:48:20Z</time></trkpt><trkpt lat="45.772493213776826" lon="10.760022245476824"><ele>405.0</ele><time>2026-03-28T15:48:21Z</time></trkpt><trkpt lat="45.77256912297986" lon="10.75999226946148"><ele>405.0</ele><time>2026-03-28T15:48:22Z</time></trkpt><trkpt lat="45.77264554109967" lon="10.759969569323228"><ele>405.0</ele><time>2026-03-28T15:48:23Z</time></trkpt><trkpt lat="45.772735989047064" lon="10.759935029416337"><ele>405.0</ele><time>2026-03-28T15:48:24Z</time></trkpt><trkpt lat="45.772831716628616" lon="10.759906556451853"><ele>405.0</ele><time>2026-03-28T15:48:25Z</time></trkpt><trkpt lat="45.77293088680529" lon="10.759883477253192"><ele>405.0</ele><time>2026-03-28T15:48:26Z</time></trkpt><trkpt lat="45.77302794737451" lon="10.759847204611555"><ele>405.4</ele><time>2026-03-28T15:48:27Z</time></trkpt><trkpt lat="45.773123914102" lon="10.759799032190731"><ele>405.8</ele><time>2026-03-28T15:48:28Z</time></trkpt><trkpt lat="45.7732160699783" lon="10.759740920747685"><ele>406.20000000000005</ele><time>2026-03-28T15:48:29Z</time></trkpt><trkpt lat="45.77330552894922" lon="10.75966770854273"><ele>406.6</ele><time>2026-03-28T15:48:30Z</time></trkpt><trkpt lat="45.773393254993714" lon="10.759571033383683"><ele>407.0</ele><time>2026-03-28T15:48:31Z</time></trkpt><trkpt lat="45.773491127793285" lon="10.759482959547645"><ele>406.25</ele><time>2026-03-28T15:48:32Z</time></trkpt><trkpt lat="45.77358258992039" lon="10.759378563308026"><ele>405.5</ele><time>2026-03-28T15:48:33.001Z</time></trkpt><trkpt lat="45.773662972904326" lon="10.759259636988725"><ele>404.75</ele><time>2026-03-28T15:48:34.001Z</time></trkpt><trkpt lat="45.77374355224827" lon="10.759140139475544"><ele>404.0</ele><time>2026-03-28T15:48:35.001Z</time></trkpt><trkpt lat="45.773832625516654" lon="10.759021933381899"><ele>405.0</ele><time>2026-03-28T15:48:36.001Z</time></trkpt><trkpt lat="45.77392501328664" lon="10.758899770283282"><ele>406.0</ele><time>2026-03-28T15:48:37.001Z</time></trkpt><trkpt lat="45.77400900048658" lon="10.758771573008453"><ele>407.0</ele><time>2026-03-28T15:48:38.001Z</time></trkpt><trkpt lat="45.774078780035026" lon="10.7586225233682"><ele>408.0</ele><time>2026-03-28T15:48:39.001Z</time></trkpt><trkpt lat="45.774133838572844" lon="10.758485192612603"><ele>408.0</ele><time>2026-03-28T15:48:40.001Z</time></trkpt><trkpt lat="45.77418606553966" lon="10.758337874690936"><ele>408.0</ele><time>2026-03-28T15:48:41.001Z</time></trkpt><trkpt lat="45.774245863729256" lon="10.758194520476637"><ele>408.0</ele><time>2026-03-28T15:48:42.001Z</time></trkpt><trkpt lat="45.77431956451257" lon="10.758053678010116"><ele>408.0</ele><time>2026-03-28T15:48:43.001Z</time></trkpt><trkpt lat="45.77439439154708" lon="10.757897438686486"><ele>407.25</ele><time>2026-03-28T15:48:44.001Z</time></trkpt><trkpt lat="45.7744761027918" lon="10.757763738181426"><ele>406.5</ele><time>2026-03-28T15:48:45.001Z</time></trkpt><trkpt lat="45.77458136937431" lon="10.757652748935906"><ele>405.75</ele><time>2026-03-28T15:48:46.001Z</time></trkpt><trkpt lat="45.77466592850983" lon="10.757512970505111"><ele>405.0</ele><time>2026-03-28T15:48:47.001Z</time></trkpt><trkpt lat="45.774750417882366" lon="10.757377291397816"><ele>405.0</ele><time>2026-03-28T15:48:48.001Z</time></trkpt><trkpt lat="45.7748122248255" lon="10.757220523938553"><ele>405.0</ele><time>2026-03-28T15:48:49.001Z</time></trkpt><trkpt lat="45.77487953363826" lon="10.757077301918482"><ele>405.0</ele><time>2026-03-28T15:48:50.001Z</time></trkpt><trkpt lat="45.774925592509426" lon="10.756950842984649"><ele>405.0</ele><time>2026-03-28T15:48:51.001Z</time></trkpt><trkpt lat="45.77495720524908" lon="10.756790025087655"><ele>407.6</ele><time>2026-03-28T15:48:52.001Z</time></trkpt><trkpt lat="45.77500274190224" lon="10.756634237367678"><ele>410.2</ele><time>2026-03-28T15:48:53.001Z</time></trkpt><trkpt lat="45.774998065533445" lon="10.756465866722417"><ele>412.79999999999995</ele><time>2026-03-28T15:48:54.001Z</time></trkpt><trkpt lat="45.774980745262724" lon="10.756320025850457"><ele>415.4</ele><time>2026-03-28T15:48:55.001Z</time></trkpt><trkpt lat="45.774975721188774" lon="10.756197912745359"><ele>418.0</ele><time>2026-03-28T15:48:56.001Z</time></trkpt><trkpt lat="45.775002366524106" lon="10.75608136384692"><ele>417.4</ele><time>2026-03-28T15:48:57.001Z</time></trkpt><trkpt lat="45.77506227278846" lon="10.756005179978754"><ele>416.79999999999995</ele><time>2026-03-28T15:48:58.001Z</time></trkpt><trkpt lat="45.77513731286109" lon="10.755964549426617"><ele>416.2</ele><time>2026-03-28T15:48:59.001Z</time></trkpt><trkpt lat="45.77521335175942" lon="10.75590644176598"><ele>415.6</ele><time>2026-03-28T15:49:00.001Z</time></trkpt><trkpt lat="45.77528444007428" lon="10.755817237587527"><ele>415.0</ele><time>2026-03-28T15:49:01.001Z</time></trkpt><trkpt lat="45.775325243244176" lon="10.755672354558818"><ele>415.0</ele><time>2026-03-28T15:49:02.001Z</time></trkpt><trkpt lat="45.77534450219267" lon="10.755527441726594"><ele>415.0</ele><time>2026-03-28T15:49:03.001Z</time></trkpt><trkpt lat="45.77535244196618" lon="10.755378853112123"><ele>415.0</ele><time>2026-03-28T15:49:04.001Z</time></trkpt><trkpt lat="45.77532714241443" lon="10.755225532176082"><ele>415.0</ele><time>2026-03-28T15:49:05.001Z</time></trkpt><trkpt lat="45.77534617753069" lon="10.755107925917226"><ele>415.0</ele><time>2026-03-28T15:49:06.001Z</time></trkpt><trkpt lat="45.77536923890634" lon="10.755018213951702"><ele>417.6</ele><time>2026-03-28T15:49:07.001Z</time></trkpt><trkpt lat="45.77549207609944" lon="10.754979930449961"><ele>420.2</ele><time>2026-03-28T15:49:09.001Z</time></trkpt><trkpt lat="45.77558424211438" lon="10.755003221732867"><ele>422.79999999999995</ele><time>2026-03-28T15:49:10.001Z</time></trkpt><trkpt lat="45.77568225003835" lon="10.755031127001118"><ele>425.4</ele><time>2026-03-28T15:49:11.001Z</time></trkpt><trkpt lat="45.7757719800345" lon="10.755071379991055"><ele>428.0</ele><time>2026-03-28T15:49:12.001Z</time></trkpt><trkpt lat="45.775863598437255" lon="10.755079919324649"><ele>427.99999999999994</ele><time>2026-03-28T15:49:13.001Z</time></trkpt><trkpt lat="45.77595667417604" lon="10.75506511591898"><ele>428.0</ele><time>2026-03-28T15:49:14.001Z</time></trkpt><trkpt lat="45.77603267876882" lon="10.75502842740863"><ele>428.0</ele><time>2026-03-28T15:49:15.001Z</time></trkpt><trkpt lat="45.77611065821767" lon="10.754967255289293"><ele>428.0</ele><time>2026-03-28T15:49:16.001Z</time></trkpt><trkpt lat="45.776174886962856" lon="10.754874016306537"><ele>427.99999999999994</ele><time>2026-03-28T15:49:17.001Z</time></trkpt><trkpt lat="45.77621508939247" lon="10.754761316362647"><ele>428.0</ele><time>2026-03-28T15:49:18.001Z</time></trkpt><trkpt lat="45.77625646096308" lon="10.754636155588102"><ele>427.3333333333333</ele><time>2026-03-28T15:49:19.001Z</time></trkpt><trkpt lat="45.77632484842762" lon="10.754534776504055"><ele>426.66666666666663</ele><time>2026-03-28T15:49:20.001Z</time></trkpt><trkpt lat="45.77638771467887" lon="10.754424850059095"><ele>426.0</ele><time>2026-03-28T15:49:21.001Z</time></trkpt><trkpt lat="45.776438809853865" lon="10.754311713288804"><ele>425.33333333333337</ele><time>2026-03-28T15:49:22.001Z</time></trkpt><trkpt lat="45.77648093684407" lon="10.75421120069601"><ele>424.6666666666667</ele><time>2026-03-28T15:49:23.001Z</time></trkpt><trkpt lat="45.77649830554986" lon="10.754107226530685"><ele>424.0</ele><time>2026-03-28T15:49:24.001Z</time></trkpt><trkpt lat="45.77649591815939" lon="10.754008611542737"><ele>424.0</ele><time>2026-03-28T15:49:25.001Z</time></trkpt><trkpt lat="45.776474671885246" lon="10.75385720854131"><ele>424.0</ele><time>2026-03-28T15:49:26Z</time></trkpt><trkpt lat="45.77644766770392" lon="10.753713945221568"><ele>424.0</ele><time>2026-03-28T15:49:27Z</time></trkpt><trkpt lat="45.776457343503466" lon="10.753565414325644"><ele>424.0</ele><time>2026-03-28T15:49:28Z</time></trkpt><trkpt lat="45.77646475569489" lon="10.753417048037685"><ele>424.0</ele><time>2026-03-28T15:49:29Z</time></trkpt><trkpt lat="45.77648445585896" lon="10.75327022230596"><ele>425.25</ele><time>2026-03-28T15:49:30Z</time></trkpt><trkpt lat="45.77652543164015" lon="10.753129299485837"><ele>426.5</ele><time>2026-03-28T15:49:31Z</time></trkpt><trkpt lat="45.776585345503214" lon="10.752987242804954"><ele>427.75</ele><time>2026-03-28T15:49:32Z</time></trkpt><trkpt lat="45.77665471138619" lon="10.752838567692894"><ele>429.0</ele><time>2026-03-28T15:49:33Z</time></trkpt><trkpt lat="45.776727286549665" lon="10.75270620347279"><ele>431.79999999999995</ele><time>2026-03-28T15:49:34Z</time></trkpt><trkpt lat="45.77680207196287" lon="10.7525750815021"><ele>434.59999999999997</ele><time>2026-03-28T15:49:35Z</time></trkpt><trkpt lat="45.77687040936899" lon="10.752438708379175"><ele>437.4</ele><time>2026-03-28T15:49:36Z</time></trkpt><trkpt lat="45.7769625496072" lon="10.75236748127688"><ele>440.2</ele><time>2026-03-28T15:49:37Z</time></trkpt><trkpt lat="45.777044091788476" lon="10.752302880650051"><ele>443.0</ele><time>2026-03-28T15:49:38Z</time></trkpt><trkpt lat="45.777124406593565" lon="10.752258625288137"><ele>443.66666666666663</ele><time>2026-03-28T15:49:39Z</time></trkpt><trkpt lat="45.77720964645392" lon="10.752270559952818"><ele>444.3333333333333</ele><time>2026-03-28T15:49:40Z</time></trkpt><trkpt lat="45.77729564738134" lon="10.752300830653239"><ele>445.0</ele><time>2026-03-28T15:49:41Z</time></trkpt><trkpt lat="45.77736916893649" lon="10.752352467567228"><ele>445.66666666666663</ele><time>2026-03-28T15:49:42Z</time></trkpt><trkpt lat="45.77740243275787" lon="10.752452354036626"><ele>446.3333333333333</ele><time>2026-03-28T15:49:43Z</time></trkpt><trkpt lat="45.77737785589567" lon="10.752562310901512"><ele>447.0</ele><time>2026-03-28T15:49:44Z</time></trkpt><trkpt lat="45.77737744442856" lon="10.752685666790807"><ele>444.0</ele><time>2026-03-28T15:49:45Z</time></trkpt><trkpt lat="45.7773825231927" lon="10.752812872257806"><ele>441.00000000000006</ele><time>2026-03-28T15:49:46Z</time></trkpt><trkpt lat="45.77742492521657" lon="10.752947870579472"><ele>438.00000000000006</ele><time>2026-03-28T15:49:47Z</time></trkpt><trkpt lat="45.77748091747483" lon="10.7530838705635"><ele>435.0</ele><time>2026-03-28T15:49:48Z</time></trkpt><trkpt lat="45.77754865658637" lon="10.753208220374672"><ele>432.0</ele><time>2026-03-28T15:49:49Z</time></trkpt><trkpt lat="45.77762492337785" lon="10.753310855240139"><ele>434.40000000000003</ele><time>2026-03-28T15:49:50Z</time></trkpt><trkpt lat="45.777697093387125" lon="10.753381691232756"><ele>436.80000000000007</ele><time>2026-03-28T15:49:51Z</time></trkpt><trkpt lat="45.77777080027078" lon="10.753426621901006"><ele>439.2</ele><time>2026-03-28T15:49:52Z</time></trkpt><trkpt lat="45.77785865171421" lon="10.753455049556587"><ele>441.6</ele><time>2026-03-28T15:49:53Z</time></trkpt><trkpt lat="45.77796754914182" lon="10.753445838969325"><ele>444.0</ele><time>2026-03-28T15:49:54Z</time></trkpt><trkpt lat="45.77810085512283" lon="10.75341846379068"><ele>444.0</ele><time>2026-03-28T15:49:55Z</time></trkpt><trkpt lat="45.778263917170925" lon="10.753396797472643"><ele>444.0</ele><time>2026-03-28T15:49:56Z</time></trkpt><trkpt lat="45.77841297719256" lon="10.753404686193504"><ele>444.0</ele><time>2026-03-28T15:49:57Z</time></trkpt><trkpt lat="45.77857088267644" lon="10.75341141665064"><ele>445.0</ele><time>2026-03-28T15:49:58Z</time></trkpt><trkpt lat="45.77872445692648" lon="10.753433094334518"><ele>446.0</ele><time>2026-03-28T15:49:59Z</time></trkpt><trkpt lat="45.77886654189459" lon="10.753474209090816"><ele>447.0</ele><time>2026-03-28T15:50:00Z</time></trkpt><trkpt lat="45.77899997626476" lon="10.753533807074342"><ele>448.0</ele><time>2026-03-28T15:50:01Z</time></trkpt><trkpt lat="45.77913422578238" lon="10.753605880927902"><ele>447.25</ele><time>2026-03-28T15:50:02Z</time></trkpt><trkpt lat="45.77925355476839" lon="10.753729904292618"><ele>446.5</ele><time>2026-03-28T15:50:03Z</time></trkpt><trkpt lat="45.77935617935189" lon="10.753865318508456"><ele>445.75</ele><time>2026-03-28T15:50:04Z</time></trkpt><trkpt lat="45.7794407539833" lon="10.75402119207879"><ele>445.0</ele><time>2026-03-28T15:50:05Z</time></trkpt><trkpt lat="45.77952492134201" lon="10.75418020396585"><ele>445.0</ele><time>2026-03-28T15:50:06Z</time></trkpt><trkpt lat="45.77961624648938" lon="10.754319276629277"><ele>445.0</ele><time>2026-03-28T15:50:07Z</time></trkpt><trkpt lat="45.77968913942145" lon="10.754442083673604"><ele>445.0</ele><time>2026-03-28T15:50:08Z</time></trkpt><trkpt lat="45.77976520533345" lon="10.754502723987256"><ele>445.0</ele><time>2026-03-28T15:50:09Z</time></trkpt><trkpt lat="45.779838854524364" lon="10.75449598839877"><ele>445.0</ele><time>2026-03-28T15:50:10Z</time></trkpt><trkpt lat="45.77991096450866" lon="10.754480288956344"><ele>443.1666666666667</ele><time>2026-03-28T15:50:11Z</time></trkpt><trkpt lat="45.779987108539785" lon="10.754474369977798"><ele>441.33333333333337</ele><time>2026-03-28T15:50:12Z</time></trkpt><trkpt lat="45.78006503439903" lon="10.754492858074807"><ele>439.5</ele><time>2026-03-28T15:50:13Z</time></trkpt><trkpt lat="45.78015081010869" lon="10.754512641087931"><ele>437.66666666666663</ele><time>2026-03-28T15:50:14Z</time></trkpt><trkpt lat="45.78024001913032" lon="10.754528384527953"><ele>435.8333333333333</ele><time>2026-03-28T15:50:15Z</time></trkpt><trkpt lat="45.7803275920516" lon="10.754531358169984"><ele>434.0</ele><time>2026-03-28T15:50:16Z</time></trkpt><trkpt lat="45.78042984227815" lon="10.754510576293045"><ele>432.49999999999994</ele><time>2026-03-28T15:50:17Z</time></trkpt><trkpt lat="45.78052946438279" lon="10.754477107626231"><ele>431.0</ele><time>2026-03-28T15:50:18Z</time></trkpt><trkpt lat="45.78061150678288" lon="10.754436932624463"><ele>429.5</ele><time>2026-03-28T15:50:19Z</time></trkpt><trkpt lat="45.78068512530821" lon="10.754400384675181"><ele>428.0</ele><time>2026-03-28T15:50:20Z</time></trkpt><trkpt lat="45.78075746738745" lon="10.754367833633754"><ele>426.49999999999994</ele><time>2026-03-28T15:50:21Z</time></trkpt><trkpt lat="45.780821084845584" lon="10.754343881012636"><ele>425.0</ele><time>2026-03-28T15:50:22Z</time></trkpt><trkpt lat="45.780886002750016" lon="10.75430576370286"><ele>425.4</ele><time>2026-03-28T15:50:23Z</time></trkpt><trkpt lat="45.78095282840073" lon="10.754260297779176"><ele>425.8</ele><time>2026-03-28T15:50:24Z</time></trkpt><trkpt lat="45.781026456654516" lon="10.754195742488426"><ele>426.20000000000005</ele><time>2026-03-28T15:50:25Z</time></trkpt><trkpt lat="45.781116598798654" lon="10.754133923483112"><ele>426.6</ele><time>2026-03-28T15:50:26Z</time></trkpt><trkpt lat="45.78120458240484" lon="10.754041041811945"><ele>427.0</ele><time>2026-03-28T15:50:27Z</time></trkpt><trkpt lat="45.78128884614723" lon="10.753918853854254"><ele>427.0</ele><time>2026-03-28T15:50:28Z</time></trkpt><trkpt lat="45.78139042137329" lon="10.753806427164795"><ele>427.0</ele><time>2026-03-28T15:50:29Z</time></trkpt><trkpt lat="45.78149456077665" lon="10.753684387315671"><ele>427.0</ele><time>2026-03-28T15:50:30Z</time></trkpt><trkpt lat="45.78156575590765" lon="10.753530621213603"><ele>427.0</ele><time>2026-03-28T15:50:31Z</time></trkpt><trkpt lat="45.781657557821205" lon="10.753385014785431"><ele>421.5</ele><time>2026-03-28T15:50:32Z</time></trkpt><trkpt lat="45.78173887281314" lon="10.753229459564935"><ele>416.0</ele><time>2026-03-28T15:50:33Z</time></trkpt><trkpt lat="45.78181456460088" lon="10.75306564835951"><ele>410.5</ele><time>2026-03-28T15:50:34Z</time></trkpt><trkpt lat="45.78187442718376" lon="10.752885323027638"><ele>405.0</ele><time>2026-03-28T15:50:35Z</time></trkpt><trkpt lat="45.781924485069865" lon="10.752717763783975"><ele>412.75</ele><time>2026-03-28T15:50:36Z</time></trkpt><trkpt lat="45.7819590509355" lon="10.752551191282562"><ele>420.5</ele><time>2026-03-28T15:50:37Z</time></trkpt><trkpt lat="45.78200786063627" lon="10.752387708662662"><ele>428.25</ele><time>2026-03-28T15:50:38Z</time></trkpt><trkpt lat="45.7820410465916" lon="10.75222879582879"><ele>436.0</ele><time>2026-03-28T15:50:39Z</time></trkpt><trkpt lat="45.78207267025913" lon="10.752078204237995"><ele>436.00000000000006</ele><time>2026-03-28T15:50:40Z</time></trkpt><trkpt lat="45.782108199399936" lon="10.75193821368925"><ele>436.0</ele><time>2026-03-28T15:50:41Z</time></trkpt><trkpt lat="45.78212727226074" lon="10.751814770644447"><ele>436.0</ele><time>2026-03-28T15:50:42Z</time></trkpt><trkpt lat="45.78216196265134" lon="10.751700157519723"><ele>436.0</ele><time>2026-03-28T15:50:43Z</time></trkpt><trkpt lat="45.78221457650193" lon="10.751613143437618"><ele>436.00000000000006</ele><time>2026-03-28T15:50:44Z</time></trkpt><trkpt lat="45.78229004939459" lon="10.751606150790842"><ele>436.0</ele><time>2026-03-28T15:50:45Z</time></trkpt><trkpt lat="45.782364282200426" lon="10.751580324397052"><ele>431.83333333333337</ele><time>2026-03-28T15:50:46Z</time></trkpt><trkpt lat="45.78243342876018" lon="10.751561114973331"><ele>427.6666666666667</ele><time>2026-03-28T15:50:47Z</time></trkpt><trkpt lat="45.78250609664794" lon="10.751531781376643"><ele>423.5</ele><time>2026-03-28T15:50:48Z</time></trkpt><trkpt lat="45.78257208685256" lon="10.751502433498478"><ele>419.33333333333337</ele><time>2026-03-28T15:50:49Z</time></trkpt><trkpt lat="45.782656142421814" lon="10.751389981270746"><ele>415.1666666666667</ele><time>2026-03-28T15:50:51Z</time></trkpt><trkpt lat="45.782695297772435" lon="10.751301163563243"><ele>411.0</ele><time>2026-03-28T15:50:52Z</time></trkpt><trkpt lat="45.78273467131549" lon="10.751186870976193"><ele>411.0</ele><time>2026-03-28T15:50:53Z</time></trkpt><trkpt lat="45.78277509026574" lon="10.751066795002776"><ele>411.0</ele><time>2026-03-28T15:50:54Z</time></trkpt><trkpt lat="45.78280226601116" lon="10.750949833657552"><ele>411.0</ele><time>2026-03-28T15:50:55Z</time></trkpt><trkpt lat="45.78279715292083" lon="10.750828602861251"><ele>411.0</ele><time>2026-03-28T15:50:56Z</time></trkpt><trkpt lat="45.782774394748884" lon="10.75072087096135"><ele>411.0</ele><time>2026-03-28T15:50:57Z</time></trkpt><trkpt lat="45.782740943686534" lon="10.750609299914755"><ele>411.0</ele><time>2026-03-28T15:50:58Z</time></trkpt><trkpt lat="45.782688732581185" lon="10.750484607189264"><ele>425.0</ele><time>2026-03-28T15:50:59Z</time></trkpt><trkpt lat="45.78264090830725" lon="10.750347693167253"><ele>439.0</ele><time>2026-03-28T15:51:00Z</time></trkpt><trkpt lat="45.78260294353607" lon="10.750202632198803"><ele>453.0</ele><time>2026-03-28T15:51:01Z</time></trkpt><trkpt lat="45.7825832053359" lon="10.750079656282546"><ele>467.0</ele><time>2026-03-28T15:51:02Z</time></trkpt><trkpt lat="45.78257922769253" lon="10.74995341669778"><ele>481.0</ele><time>2026-03-28T15:51:03Z</time></trkpt><trkpt lat="45.78258031576781" lon="10.749831182688295"><ele>481.33333333333337</ele><time>2026-03-28T15:51:04Z</time></trkpt><trkpt lat="45.78257634527973" lon="10.749717203414878"><ele>481.6666666666667</ele><time>2026-03-28T15:51:05Z</time></trkpt><trkpt lat="45.782552419780046" lon="10.749603320616481"><ele>482.0</ele><time>2026-03-28T15:51:06Z</time></trkpt><trkpt lat="45.782530407664126" lon="10.74948940615679"><ele>482.33333333333337</ele><time>2026-03-28T15:51:07Z</time></trkpt><trkpt lat="45.782496138332355" lon="10.749373997420259"><ele>482.6666666666667</ele><time>2026-03-28T15:51:08Z</time></trkpt><trkpt lat="45.78244317644864" lon="10.74925040948778"><ele>483.0</ele><time>2026-03-28T15:51:09Z</time></trkpt><trkpt lat="45.782389468447555" lon="10.749125979375023"><ele>482.0</ele><time>2026-03-28T15:51:10Z</time></trkpt><trkpt lat="45.782349498636954" lon="10.748979762767032"><ele>480.99999999999994</ele><time>2026-03-28T15:51:11Z</time></trkpt><trkpt lat="45.78229212965754" lon="10.748840055293435"><ele>479.99999999999994</ele><time>2026-03-28T15:51:12Z</time></trkpt><trkpt lat="45.78225430130895" lon="10.748700661413592"><ele>479.0</ele><time>2026-03-28T15:51:13Z</time></trkpt><trkpt lat="45.782257043362584" lon="10.748572590553996"><ele>478.0</ele><time>2026-03-28T15:51:14Z</time></trkpt><trkpt lat="45.782275877805226" lon="10.748453727170173"><ele>478.00000000000006</ele><time>2026-03-28T15:51:15Z</time></trkpt><trkpt lat="45.78236210282521" lon="10.748392362581395"><ele>478.0</ele><time>2026-03-28T15:51:16.001Z</time></trkpt><trkpt lat="45.78242378849594" lon="10.748296617920548"><ele>478.0</ele><time>2026-03-28T15:51:17.001Z</time></trkpt><trkpt lat="45.78246945941642" lon="10.748196254128795"><ele>478.0</ele><time>2026-03-28T15:51:18.001Z</time></trkpt><trkpt lat="45.78247364510371" lon="10.748088341168314"><ele>478.00000000000006</ele><time>2026-03-28T15:51:19.001Z</time></trkpt><trkpt lat="45.78244331807123" lon="10.747995144836842"><ele>478.0</ele><time>2026-03-28T15:51:20.001Z</time></trkpt><trkpt lat="45.782362697169894" lon="10.747912476126121"><ele>478.0</ele><time>2026-03-28T15:51:21.001Z</time></trkpt><trkpt lat="45.782270597951296" lon="10.747834731374398"><ele>477.99999999999994</ele><time>2026-03-28T15:51:22.001Z</time></trkpt><trkpt lat="45.78221603959669" lon="10.747720754931736"><ele>477.99999999999994</ele><time>2026-03-28T15:51:23.001Z</time></trkpt><trkpt lat="45.78220435363215" lon="10.747586464647323"><ele>478.0</ele><time>2026-03-28T15:51:24.001Z</time></trkpt><trkpt lat="45.78222529145602" lon="10.747440420776268"><ele>478.0</ele><time>2026-03-28T15:51:25.001Z</time></trkpt><trkpt lat="45.7822932232182" lon="10.747304316290476"><ele>478.59999999999997</ele><time>2026-03-28T15:51:26.001Z</time></trkpt><trkpt lat="45.78237197355391" lon="10.747162520711234"><ele>479.19999999999993</ele><time>2026-03-28T15:51:27.001Z</time></trkpt><trkpt lat="45.7824686195972" lon="10.747027221946723"><ele>479.8</ele><time>2026-03-28T15:51:28.001Z</time></trkpt><trkpt lat="45.782536908251984" lon="10.746913708076157"><ele>480.4</ele><time>2026-03-28T15:51:29Z</time></trkpt><trkpt lat="45.78259525295821" lon="10.7468461386909"><ele>481.0</ele><time>2026-03-28T15:51:30Z</time></trkpt><trkpt lat="45.782648470398925" lon="10.746761727912881"><ele>480.6666666666667</ele><time>2026-03-28T15:51:32Z</time></trkpt><trkpt lat="45.78268978648123" lon="10.746692496426382"><ele>480.33333333333337</ele><time>2026-03-28T15:51:34Z</time></trkpt><trkpt lat="45.78277152653367" lon="10.746573903358671"><ele>480.0</ele><time>2026-03-28T15:51:36Z</time></trkpt><trkpt lat="45.782828642593145" lon="10.746500851533511"><ele>479.66666666666663</ele><time>2026-03-28T15:51:37Z</time></trkpt><trkpt lat="45.78290224583536" lon="10.746440810557324"><ele>479.3333333333333</ele><time>2026-03-28T15:51:38Z</time></trkpt><trkpt lat="45.78298545216983" lon="10.746361784994736"><ele>479.0</ele><time>2026-03-28T15:51:39Z</time></trkpt><trkpt lat="45.783087770638716" lon="10.74629983925362"><ele>479.0</ele><time>2026-03-28T15:51:40Z</time></trkpt><trkpt lat="45.78319340132366" lon="10.746259373189478"><ele>479.0</ele><time>2026-03-28T15:51:41Z</time></trkpt><trkpt lat="45.783300486701464" lon="10.74624849208839"><ele>479.0</ele><time>2026-03-28T15:51:42Z</time></trkpt><trkpt lat="45.78339538314845" lon="10.74625612840129"><ele>479.0</ele><time>2026-03-28T15:51:43Z</time></trkpt><trkpt lat="45.78348770234804" lon="10.746239300905852"><ele>479.0</ele><time>2026-03-28T15:51:44Z</time></trkpt><trkpt lat="45.78357317969239" lon="10.74617913833423"><ele>477.4</ele><time>2026-03-28T15:51:45Z</time></trkpt><trkpt lat="45.78364118248435" lon="10.746080839853475"><ele>475.79999999999995</ele><time>2026-03-28T15:51:46Z</time></trkpt><trkpt lat="45.78368993058645" lon="10.745934224662856"><ele>474.20000000000005</ele><time>2026-03-28T15:51:47Z</time></trkpt><trkpt lat="45.7837553691487" lon="10.745784134719683"><ele>472.6</ele><time>2026-03-28T15:51:48Z</time></trkpt><trkpt lat="45.78382511798798" lon="10.745653157457996"><ele>471.0</ele><time>2026-03-28T15:51:49Z</time></trkpt><trkpt lat="45.783886870980865" lon="10.745544284974041"><ele>471.0</ele><time>2026-03-28T15:51:50Z</time></trkpt><trkpt lat="45.78392652047582" lon="10.74544670973551"><ele>471.0</ele><time>2026-03-28T15:51:51Z</time></trkpt><trkpt lat="45.783926618971854" lon="10.74532294816702"><ele>471.0</ele><time>2026-03-28T15:51:52Z</time></trkpt><trkpt lat="45.78390824973237" lon="10.745197572205521"><ele>471.0</ele><time>2026-03-28T15:51:53Z</time></trkpt><trkpt lat="45.78390193943352" lon="10.7450725837461"><ele>471.0</ele><time>2026-03-28T15:51:54Z</time></trkpt><trkpt lat="45.78387942138246" lon="10.744952880541256"><ele>471.0</ele><time>2026-03-28T15:51:55Z</time></trkpt><trkpt lat="45.783832683265196" lon="10.744869718283743"><ele>472.20000000000005</ele><time>2026-03-28T15:51:56Z</time></trkpt><trkpt lat="45.783767637672646" lon="10.744825995386018"><ele>473.40000000000003</ele><time>2026-03-28T15:51:57Z</time></trkpt><trkpt lat="45.783683196677764" lon="10.744786476973305"><ele>474.6</ele><time>2026-03-28T15:51:58Z</time></trkpt><trkpt lat="45.783591836702165" lon="10.74473784899477"><ele>475.8</ele><time>2026-03-28T15:51:59Z</time></trkpt><trkpt lat="45.78349714833412" lon="10.744652255696789"><ele>477.0</ele><time>2026-03-28T15:52:00Z</time></trkpt><trkpt lat="45.783405913342236" lon="10.744552495442829"><ele>482.20000000000005</ele><time>2026-03-28T15:52:01Z</time></trkpt><trkpt lat="45.783312969954885" lon="10.744429061703123"><ele>487.40000000000003</ele><time>2026-03-28T15:52:02Z</time></trkpt><trkpt lat="45.78322996053376" lon="10.744306220488639"><ele>492.59999999999997</ele><time>2026-03-28T15:52:03Z</time></trkpt><trkpt lat="45.78316320734782" lon="10.74417294176972"><ele>497.79999999999995</ele><time>2026-03-28T15:52:04Z</time></trkpt><trkpt lat="45.783129151745484" lon="10.744055218676024"><ele>503.0</ele><time>2026-03-28T15:52:05Z</time></trkpt><trkpt lat="45.783155556909485" lon="10.743922880401652"><ele>503.0</ele><time>2026-03-28T15:52:06Z</time></trkpt><trkpt lat="45.78323038241903" lon="10.7438329479733"><ele>502.99999999999994</ele><time>2026-03-28T15:52:07Z</time></trkpt><trkpt lat="45.78332869631489" lon="10.743793412481015"><ele>502.99999999999994</ele><time>2026-03-28T15:52:08Z</time></trkpt><trkpt lat="45.78344618680664" lon="10.743796387550303"><ele>503.0</ele><time>2026-03-28T15:52:09Z</time></trkpt><trkpt lat="45.783551017980784" lon="10.743798107962355"><ele>503.0</ele><time>2026-03-28T15:52:10Z</time></trkpt><trkpt lat="45.78361865407647" lon="10.74374692141606"><ele>501.59999999999997</ele><time>2026-03-28T15:52:11Z</time></trkpt><trkpt lat="45.78365838515131" lon="10.743659155026146"><ele>500.19999999999993</ele><time>2026-03-28T15:52:12Z</time></trkpt><trkpt lat="45.78368953315542" lon="10.7435433118666"><ele>498.8</ele><time>2026-03-28T15:52:13Z</time></trkpt><trkpt lat="45.78369179344958" lon="10.74338188415952"><ele>497.4</ele><time>2026-03-28T15:52:14Z</time></trkpt><trkpt lat="45.7836727714355" lon="10.743216382837076"><ele>496.0</ele><time>2026-03-28T15:52:15Z</time></trkpt><trkpt lat="45.78366135113858" lon="10.743047121658316"><ele>496.0</ele><time>2026-03-28T15:52:16Z</time></trkpt><trkpt lat="45.783643188620076" lon="10.742900302125825"><ele>496.0</ele><time>2026-03-28T15:52:17Z</time></trkpt><trkpt lat="45.783598167744415" lon="10.742749833611702"><ele>496.0</ele><time>2026-03-28T15:52:18Z</time></trkpt><trkpt lat="45.78358154354074" lon="10.742586226897606"><ele>496.0</ele><time>2026-03-28T15:52:19Z</time></trkpt><trkpt lat="45.78357692497156" lon="10.742409749831305"><ele>498.5</ele><time>2026-03-28T15:52:20Z</time></trkpt><trkpt lat="45.783653334522974" lon="10.742267686827146"><ele>501.0</ele><time>2026-03-28T15:52:21Z</time></trkpt><trkpt lat="45.78374358410411" lon="10.74217026159571"><ele>503.5</ele><time>2026-03-28T15:52:22Z</time></trkpt><trkpt lat="45.783852577529274" lon="10.74211703663668"><ele>506.0</ele><time>2026-03-28T15:52:23Z</time></trkpt><trkpt lat="45.78397255092824" lon="10.742110532663306"><ele>506.0</ele><time>2026-03-28T15:52:24Z</time></trkpt><trkpt lat="45.784080963297086" lon="10.742157583062049"><ele>506.0</ele><time>2026-03-28T15:52:25Z</time></trkpt><trkpt lat="45.78418763658776" lon="10.742261061482651"><ele>506.0</ele><time>2026-03-28T15:52:26Z</time></trkpt><trkpt lat="45.78430554408853" lon="10.742382506624955"><ele>506.0</ele><time>2026-03-28T15:52:27Z</time></trkpt><trkpt lat="45.784424555756864" lon="10.742485720668896"><ele>507.0</ele><time>2026-03-28T15:52:28Z</time></trkpt><trkpt lat="45.78452803121538" lon="10.74259327347407"><ele>508.0</ele><time>2026-03-28T15:52:29Z</time></trkpt><trkpt lat="45.78463548139439" lon="10.742697366763299"><ele>509.0</ele><time>2026-03-28T15:52:30Z</time></trkpt><trkpt lat="45.78474050562971" lon="10.74280367648444"><ele>510.0</ele><time>2026-03-28T15:52:31Z</time></trkpt><trkpt lat="45.78484360554069" lon="10.742903285127356"><ele>510.0</ele><time>2026-03-28T15:52:32Z</time></trkpt><trkpt lat="45.78492888073403" lon="10.742995508210901"><ele>510.0</ele><time>2026-03-28T15:52:33Z</time></trkpt><trkpt lat="45.78502582590918" lon="10.743095846290062"><ele>510.0</ele><time>2026-03-28T15:52:34Z</time></trkpt><trkpt lat="45.78512387286691" lon="10.743193084338102"><ele>510.0</ele><time>2026-03-28T15:52:35.016Z</time></trkpt><trkpt lat="45.78522012185221" lon="10.743291185144123"><ele>506.0</ele><time>2026-03-28T15:52:36.019Z</time></trkpt><trkpt lat="45.78531674312843" lon="10.743351345459345"><ele>502.0</ele><time>2026-03-28T15:52:37Z</time></trkpt><trkpt lat="45.78530047504229" lon="10.743236741333835"><ele>498.0</ele><time>2026-03-28T15:52:38Z</time></trkpt><trkpt lat="45.7853625700519" lon="10.743105678210037"><ele>494.0</ele><time>2026-03-28T15:52:39Z</time></trkpt><trkpt lat="45.78541662679719" lon="10.743023190918862"><ele>490.0</ele><time>2026-03-28T15:52:40Z</time></trkpt><trkpt lat="45.785452434412335" lon="10.742929760980923"><ele>490.0</ele><time>2026-03-28T15:52:41Z</time></trkpt><trkpt lat="45.785517087671074" lon="10.742835387065128"><ele>490.0</ele><time>2026-03-28T15:52:42Z</time></trkpt><trkpt lat="45.78558859812245" lon="10.742746606248343"><ele>490.0</ele><time>2026-03-28T15:52:43Z</time></trkpt><trkpt lat="45.78567739185685" lon="10.742644553673935"><ele>490.0</ele><time>2026-03-28T15:52:44Z</time></trkpt><trkpt lat="45.78575863520971" lon="10.742545724143174"><ele>490.0</ele><time>2026-03-28T15:52:45Z</time></trkpt><trkpt lat="45.785840495715746" lon="10.74244491908824"><ele>489.6666666666667</ele><time>2026-03-28T15:52:46Z</time></trkpt><trkpt lat="45.7859010695252" lon="10.74237230620031"><ele>489.33333333333337</ele><time>2026-03-28T15:52:47Z</time></trkpt><trkpt lat="45.78595526750341" lon="10.742307336445164"><ele>489.0</ele><time>2026-03-28T15:52:48Z</time></trkpt><trkpt lat="45.78599803470728" lon="10.742240025145035"><ele>488.66666666666663</ele><time>2026-03-28T15:52:52Z</time></trkpt><trkpt lat="45.78606865984388" lon="10.742104854731915"><ele>488.3333333333333</ele><time>2026-03-28T15:53:02Z</time></trkpt><trkpt lat="45.78609835778496" lon="10.742017507750147"><ele>488.0</ele><time>2026-03-28T15:53:03Z</time></trkpt><trkpt lat="45.78615798747178" lon="10.741870163028105"><ele>491.2</ele><time>2026-03-28T15:53:05Z</time></trkpt><trkpt lat="45.78620651027912" lon="10.7417796184014"><ele>494.4</ele><time>2026-03-28T15:53:06Z</time></trkpt><trkpt lat="45.786262792356695" lon="10.741661521213917"><ele>497.59999999999997</ele><time>2026-03-28T15:53:07Z</time></trkpt><trkpt lat="45.78630677196438" lon="10.741538084988498"><ele>500.79999999999995</ele><time>2026-03-28T15:53:08Z</time></trkpt><trkpt lat="45.786349797050505" lon="10.74142017392732"><ele>504.0</ele><time>2026-03-28T15:53:09Z</time></trkpt><trkpt lat="45.786391027440324" lon="10.741304069373445"><ele>504.0</ele><time>2026-03-28T15:53:10Z</time></trkpt><trkpt lat="45.78644094438978" lon="10.74115881829705"><ele>504.0</ele><time>2026-03-28T15:53:11Z</time></trkpt><trkpt lat="45.78649053881121" lon="10.741020406826214"><ele>504.0</ele><time>2026-03-28T15:53:12Z</time></trkpt><trkpt lat="45.7865520486435" lon="10.740881506241182"><ele>504.0</ele><time>2026-03-28T15:53:13Z</time></trkpt><trkpt lat="45.786640947272765" lon="10.740759919157552"><ele>507.25</ele><time>2026-03-28T15:53:14Z</time></trkpt><trkpt lat="45.78671308309141" lon="10.740625050221825"><ele>510.5</ele><time>2026-03-28T15:53:15Z</time></trkpt><trkpt lat="45.786770518137814" lon="10.740482210887668"><ele>513.75</ele><time>2026-03-28T15:53:16Z</time></trkpt><trkpt lat="45.78683170019646" lon="10.740323026624097"><ele>517.0</ele><time>2026-03-28T15:53:17Z</time></trkpt><trkpt lat="45.786903547964485" lon="10.740159740535416"><ele>518.5</ele><time>2026-03-28T15:53:18Z</time></trkpt><trkpt lat="45.78698888416449" lon="10.740018078706237"><ele>520.0</ele><time>2026-03-28T15:53:19Z</time></trkpt><trkpt lat="45.7870823194119" lon="10.739907853487109"><ele>521.5</ele><time>2026-03-28T15:53:20Z</time></trkpt><trkpt lat="45.78718321699203" lon="10.739836468360966"><ele>523.0</ele><time>2026-03-28T15:53:21Z</time></trkpt><trkpt lat="45.78730011624428" lon="10.739793265145435"><ele>523.0</ele><time>2026-03-28T15:53:22Z</time></trkpt><trkpt lat="45.78741742582946" lon="10.739805563973752"><ele>523.0</ele><time>2026-03-28T15:53:23Z</time></trkpt><trkpt lat="45.78752199709456" lon="10.739870162205644"><ele>523.0</ele><time>2026-03-28T15:53:24Z</time></trkpt><trkpt lat="45.787631586782304" lon="10.739963094164104"><ele>523.0</ele><time>2026-03-28T15:53:25Z</time></trkpt><trkpt lat="45.787762536210465" lon="10.740038104536199"><ele>527.5</ele><time>2026-03-28T15:53:26Z</time></trkpt><trkpt lat="45.78790069564725" lon="10.740122786486818"><ele>532.0</ele><time>2026-03-28T15:53:27Z</time></trkpt><trkpt lat="45.78803406118614" lon="10.740223425388445"><ele>536.5</ele><time>2026-03-28T15:53:28Z</time></trkpt><trkpt lat="45.788156416778094" lon="10.740299517046445"><ele>541.0</ele><time>2026-03-28T15:53:29Z</time></trkpt><trkpt lat="45.78824602488157" lon="10.74037019389863"><ele>541.2</ele><time>2026-03-28T15:53:30Z</time></trkpt><trkpt lat="45.78831263547745" lon="10.740445650546777"><ele>541.4000000000001</ele><time>2026-03-28T15:53:31Z</time></trkpt><trkpt lat="45.78832560246975" lon="10.740548847225007"><ele>541.6</ele><time>2026-03-28T15:53:32Z</time></trkpt><trkpt lat="45.78832504704375" lon="10.740666842925325"><ele>541.8000000000001</ele><time>2026-03-28T15:53:33Z</time></trkpt><trkpt lat="45.78824569929366" lon="10.740792785793406"><ele>542.0</ele><time>2026-03-28T15:53:34Z</time></trkpt><trkpt lat="45.788239871602364" lon="10.740943931850943"><ele>542.8333333333333</ele><time>2026-03-28T15:53:35Z</time></trkpt><trkpt lat="45.78821879802066" lon="10.741093794698214"><ele>543.6666666666666</ele><time>2026-03-28T15:53:36Z</time></trkpt><trkpt lat="45.78821362395417" lon="10.74118498869904"><ele>544.5</ele><time>2026-03-28T15:53:38Z</time></trkpt><trkpt lat="45.78820847622451" lon="10.74130358900548"><ele>545.3333333333334</ele><time>2026-03-28T15:53:43Z</time></trkpt><trkpt lat="45.788188705933145" lon="10.741419148783402"><ele>546.1666666666667</ele><time>2026-03-28T15:53:45Z</time></trkpt><trkpt lat="45.78817202286546" lon="10.741509485328542"><ele>547.0</ele><time>2026-03-28T15:53:46Z</time></trkpt><trkpt lat="45.78812677659775" lon="10.741692632766732"><ele>547.0</ele><time>2026-03-28T15:53:48Z</time></trkpt><trkpt lat="45.78808819133343" lon="10.741809907109035"><ele>547.0</ele><time>2026-03-28T15:53:49Z</time></trkpt><trkpt lat="45.788053823345244" lon="10.74191289266613"><ele>547.0</ele><time>2026-03-28T15:53:50Z</time></trkpt><trkpt lat="45.78803168195098" lon="10.742041974112242"><ele>547.0</ele><time>2026-03-28T15:53:51Z</time></trkpt><trkpt lat="45.78802090259374" lon="10.742199483944008"><ele>547.0</ele><time>2026-03-28T15:53:52Z</time></trkpt><trkpt lat="45.78801638657367" lon="10.742367607426658"><ele>546.6</ele><time>2026-03-28T15:53:53Z</time></trkpt><trkpt lat="45.787996255481104" lon="10.74255300813275"><ele>546.2</ele><time>2026-03-28T15:53:54Z</time></trkpt><trkpt lat="45.787989550617326" lon="10.7426802226329"><ele>545.8</ele><time>2026-03-28T15:53:55Z</time></trkpt><trkpt lat="45.787989403639315" lon="10.74281260606096"><ele>545.4</ele><time>2026-03-28T15:53:56Z</time></trkpt><trkpt lat="45.78802324671099" lon="10.742934295341756"><ele>545.0</ele><time>2026-03-28T15:53:57Z</time></trkpt><trkpt lat="45.788064577078735" lon="10.74305799948746"><ele>544.25</ele><time>2026-03-28T15:53:58Z</time></trkpt><trkpt lat="45.78810543146597" lon="10.743234959251888"><ele>543.5</ele><time>2026-03-28T15:53:59Z</time></trkpt><trkpt lat="45.788174564860974" lon="10.743317810865376"><ele>542.75</ele><time>2026-03-28T15:54:00Z</time></trkpt><trkpt lat="45.78836598855449" lon="10.74317068209085"><ele>542.0</ele><time>2026-03-28T15:54:01Z</time></trkpt><trkpt lat="45.788482234756586" lon="10.743189028686782"><ele>545.75</ele><time>2026-03-28T15:54:02Z</time></trkpt><trkpt lat="45.788594019263144" lon="10.743240877459382"><ele>549.5</ele><time>2026-03-28T15:54:03Z</time></trkpt><trkpt lat="45.78870805990396" lon="10.743304821223482"><ele>553.25</ele><time>2026-03-28T15:54:04Z</time></trkpt><trkpt lat="45.78881498569886" lon="10.743370458299351"><ele>557.0</ele><time>2026-03-28T15:54:05Z</time></trkpt><trkpt lat="45.788912825153666" lon="10.743437682890555"><ele>557.0</ele><time>2026-03-28T15:54:06Z</time></trkpt><trkpt lat="45.788996232386836" lon="10.743534204620124"><ele>557.0</ele><time>2026-03-28T15:54:07Z</time></trkpt><trkpt lat="45.789059058373226" lon="10.74365832851862"><ele>557.0</ele><time>2026-03-28T15:54:08Z</time></trkpt><trkpt lat="45.78910320253882" lon="10.74380723319045"><ele>557.0</ele><time>2026-03-28T15:54:09Z</time></trkpt><trkpt lat="45.789146390325996" lon="10.743958901441701"><ele>557.0</ele><time>2026-03-28T15:54:10Z</time></trkpt><trkpt lat="45.78920458002968" lon="10.744095246931776"><ele>558.0</ele><time>2026-03-28T15:54:11Z</time></trkpt><trkpt lat="45.78927879137546" lon="10.7442302140519"><ele>559.0</ele><time>2026-03-28T15:54:12Z</time></trkpt><trkpt lat="45.78935272683424" lon="10.744353769680933"><ele>560.0</ele><time>2026-03-28T15:54:13Z</time></trkpt><trkpt lat="45.78942167908372" lon="10.744488743690155"><ele>561.0</ele><time>2026-03-28T15:54:14Z</time></trkpt><trkpt lat="45.7894916918783" lon="10.744646649120227"><ele>561.0</ele><time>2026-03-28T15:54:15Z</time></trkpt><trkpt lat="45.78953571957194" lon="10.744833335050133"><ele>561.0</ele><time>2026-03-28T15:54:16Z</time></trkpt><trkpt lat="45.789591050049985" lon="10.745027268526071"><ele>561.0</ele><time>2026-03-28T15:54:17Z</time></trkpt><trkpt lat="45.789623627163145" lon="10.74524860460213"><ele>561.0</ele><time>2026-03-28T15:54:18Z</time></trkpt><trkpt lat="45.789658713309876" lon="10.745484969836415"><ele>561.0</ele><time>2026-03-28T15:54:19Z</time></trkpt><trkpt lat="45.78969655659894" lon="10.745729358882349"><ele>561.0</ele><time>2026-03-28T15:54:20Z</time></trkpt><trkpt lat="45.789720867823455" lon="10.745977425536617"><ele>561.0</ele><time>2026-03-28T15:54:21Z</time></trkpt><trkpt lat="45.789753088243735" lon="10.746209997328492"><ele>562.75</ele><time>2026-03-28T15:54:22Z</time></trkpt><trkpt lat="45.78977468905868" lon="10.746419649893063"><ele>564.5</ele><time>2026-03-28T15:54:23Z</time></trkpt><trkpt lat="45.78978105688155" lon="10.746614088347533"><ele>566.25</ele><time>2026-03-28T15:54:24Z</time></trkpt><trkpt lat="45.789763843502946" lon="10.746805936796473"><ele>568.0</ele><time>2026-03-28T15:54:25Z</time></trkpt><trkpt lat="45.78972312270888" lon="10.746989585934957"><ele>570.75</ele><time>2026-03-28T15:54:26Z</time></trkpt><trkpt lat="45.78965977527893" lon="10.747168954953054"><ele>573.5</ele><time>2026-03-28T15:54:27Z</time></trkpt><trkpt lat="45.78958594090076" lon="10.747348677570713"><ele>576.25</ele><time>2026-03-28T15:54:28Z</time></trkpt><trkpt lat="45.7895068485969" lon="10.747545307195663"><ele>579.0</ele><time>2026-03-28T15:54:29Z</time></trkpt><trkpt lat="45.789425954652884" lon="10.747736598256221"><ele>580.75</ele><time>2026-03-28T15:54:30Z</time></trkpt><trkpt lat="45.78935494206703" lon="10.7479229252881"><ele>582.5</ele><time>2026-03-28T15:54:31Z</time></trkpt><trkpt lat="45.7893056607822" lon="10.748089312377264"><ele>584.25</ele><time>2026-03-28T15:54:32Z</time></trkpt><trkpt lat="45.78929269491816" lon="10.748240030163391"><ele>586.0</ele><time>2026-03-28T15:54:33Z</time></trkpt><trkpt lat="45.78931999989796" lon="10.74839209404698"><ele>587.8</ele><time>2026-03-28T15:54:34Z</time></trkpt><trkpt lat="45.78936774045252" lon="10.74854831830997"><ele>589.6</ele><time>2026-03-28T15:54:35Z</time></trkpt><trkpt lat="45.789410620614206" lon="10.748701188010227"><ele>591.4</ele><time>2026-03-28T15:54:36Z</time></trkpt><trkpt lat="45.789434669332" lon="10.748821031210598"><ele>593.2</ele><time>2026-03-28T15:54:37Z</time></trkpt><trkpt lat="45.78944694081977" lon="10.748921574199365"><ele>595.0</ele><time>2026-03-28T15:54:39Z</time></trkpt><trkpt lat="45.78944565559252" lon="10.749026717892614"><ele>595.0</ele><time>2026-03-28T15:54:43Z</time></trkpt><trkpt lat="45.7894220577485" lon="10.74915678619858"><ele>595.0</ele><time>2026-03-28T15:54:45Z</time></trkpt><trkpt lat="45.78939977277304" lon="10.749253578714619"><ele>595.0</ele><time>2026-03-28T15:54:46Z</time></trkpt><trkpt lat="45.78936843127324" lon="10.74942396268251"><ele>595.0</ele><time>2026-03-28T15:54:48Z</time></trkpt><trkpt lat="45.789365874642534" lon="10.749547075125836"><ele>595.0</ele><time>2026-03-28T15:54:49Z</time></trkpt><trkpt lat="45.7893835855097" lon="10.749688499490425"><ele>595.4</ele><time>2026-03-28T15:54:50Z</time></trkpt><trkpt lat="45.78942640210267" lon="10.749837986509716"><ele>595.8</ele><time>2026-03-28T15:54:51Z</time></trkpt><trkpt lat="45.78941957274125" lon="10.749973496576867"><ele>596.2</ele><time>2026-03-28T15:54:52Z</time></trkpt><trkpt lat="45.78940339592993" lon="10.750100533941989"><ele>596.6</ele><time>2026-03-28T15:54:53Z</time></trkpt><trkpt lat="45.78936219435183" lon="10.750233413405262"><ele>597.0</ele><time>2026-03-28T15:54:54Z</time></trkpt><trkpt lat="45.789304388464735" lon="10.750392260918803"><ele>589.6</ele><time>2026-03-28T15:54:55Z</time></trkpt><trkpt lat="45.789258591457155" lon="10.75055475264824"><ele>582.2</ele><time>2026-03-28T15:54:56Z</time></trkpt><trkpt lat="45.78921409441975" lon="10.750683813047791"><ele>574.8</ele><time>2026-03-28T15:54:57Z</time></trkpt><trkpt lat="45.789205317511566" lon="10.750801824679433"><ele>567.4</ele><time>2026-03-28T15:54:58Z</time></trkpt><trkpt lat="45.789227596795435" lon="10.750907672883507"><ele>560.0</ele><time>2026-03-28T15:54:59Z</time></trkpt><trkpt lat="45.789285788221044" lon="10.750984462124594"><ele>566.1666666666666</ele><time>2026-03-28T15:55:00Z</time></trkpt><trkpt lat="45.78936625051446" lon="10.751014283286992"><ele>572.3333333333333</ele><time>2026-03-28T15:55:01Z</time></trkpt><trkpt lat="45.789453116292584" lon="10.750993377631303"><ele>578.5</ele><time>2026-03-28T15:55:02Z</time></trkpt><trkpt lat="45.78952776124232" lon="10.75092160044906"><ele>584.6666666666666</ele><time>2026-03-28T15:55:03Z</time></trkpt><trkpt lat="45.789582783278064" lon="10.75084281972494"><ele>590.8333333333334</ele><time>2026-03-28T15:55:04Z</time></trkpt><trkpt lat="45.78957984997275" lon="10.750690931951228"><ele>597.0</ele><time>2026-03-28T15:55:05Z</time></trkpt><trkpt lat="45.7895868545184" lon="10.75055870220141"><ele>597.0</ele><time>2026-03-28T15:55:06Z</time></trkpt><trkpt lat="45.78959830038177" lon="10.750410486560904"><ele>597.0</ele><time>2026-03-28T15:55:07Z</time></trkpt><trkpt lat="45.78961277677176" lon="10.750260187830435"><ele>597.0</ele><time>2026-03-28T15:55:08Z</time></trkpt><trkpt lat="45.789625585492374" lon="10.750104235447097"><ele>597.0</ele><time>2026-03-28T15:55:09Z</time></trkpt><trkpt lat="45.789631049052765" lon="10.74994398068487"><ele>597.0</ele><time>2026-03-28T15:55:10Z</time></trkpt><trkpt lat="45.78962458386804" lon="10.749784513631234"><ele>596.6666666666666</ele><time>2026-03-28T15:55:11Z</time></trkpt><trkpt lat="45.789598418268156" lon="10.749647083971402"><ele>596.3333333333334</ele><time>2026-03-28T15:55:12Z</time></trkpt><trkpt lat="45.78956801092168" lon="10.749534849287311"><ele>596.0</ele><time>2026-03-28T15:55:13Z</time></trkpt><trkpt lat="45.78957738501576" lon="10.749426994256803"><ele>595.6666666666667</ele><time>2026-03-28T15:55:14Z</time></trkpt><trkpt lat="45.789596801644564" lon="10.749339269436112"><ele>595.3333333333334</ele><time>2026-03-28T15:55:15Z</time></trkpt><trkpt lat="45.78963375007438" lon="10.749249642889241"><ele>595.0</ele><time>2026-03-28T15:55:16Z</time></trkpt><trkpt lat="45.78967737935844" lon="10.749150986093548"><ele>595.0</ele><time>2026-03-28T15:55:17Z</time></trkpt><trkpt lat="45.78971243978619" lon="10.749038148066338"><ele>595.0</ele><time>2026-03-28T15:55:18Z</time></trkpt><trkpt lat="45.78976394723262" lon="10.748968135364017"><ele>595.0</ele><time>2026-03-28T15:55:19Z</time></trkpt><trkpt lat="45.78981815259256" lon="10.748858210177145"><ele>595.0</ele><time>2026-03-28T15:55:21Z</time></trkpt><trkpt lat="45.789826984769" lon="10.748729780993925"><ele>595.0</ele><time>2026-03-28T15:57:14Z</time></trkpt><trkpt lat="45.7898928324687" lon="10.748699878868509"><ele>595.0</ele><time>2026-03-28T15:57:16Z</time></trkpt><trkpt lat="45.78995837224229" lon="10.748613589774664"><ele>593.5</ele><time>2026-03-28T15:57:18Z</time></trkpt><trkpt lat="45.790007232771735" lon="10.74851233616922"><ele>592.0</ele><time>2026-03-28T15:57:20Z</time></trkpt><trkpt lat="45.790088381850765" lon="10.748380149486202"><ele>590.5</ele><time>2026-03-28T15:57:22Z</time></trkpt><trkpt lat="45.79014221829952" lon="10.748304601708714"><ele>589.0</ele><time>2026-03-28T15:57:23Z</time></trkpt><trkpt lat="45.790196570512705" lon="10.748230624438827"><ele>587.5</ele><time>2026-03-28T15:57:24Z</time></trkpt><trkpt lat="45.79025037136892" lon="10.748158496972053"><ele>586.0</ele><time>2026-03-28T15:57:25Z</time></trkpt><trkpt lat="45.79031154503313" lon="10.74806541014645"><ele>589.4</ele><time>2026-03-28T15:57:26Z</time></trkpt><trkpt lat="45.79037917391298" lon="10.747959308054368"><ele>592.8</ele><time>2026-03-28T15:57:27Z</time></trkpt><trkpt lat="45.790454172086065" lon="10.747848209591048"><ele>596.1999999999999</ele><time>2026-03-28T15:57:28Z</time></trkpt><trkpt lat="45.790528281981175" lon="10.747726521715038"><ele>599.6</ele><time>2026-03-28T15:57:29Z</time></trkpt><trkpt lat="45.79059939702823" lon="10.747613334025257"><ele>603.0</ele><time>2026-03-28T15:57:30Z</time></trkpt><trkpt lat="45.790661781250876" lon="10.747511161732742"><ele>603.0</ele><time>2026-03-28T15:57:31Z</time></trkpt><trkpt lat="45.790708680326325" lon="10.747419634130976"><ele>603.0</ele><time>2026-03-28T15:57:32Z</time></trkpt><trkpt lat="45.7907460762788" lon="10.747341952555233"><ele>603.0</ele><time>2026-03-28T15:57:33Z</time></trkpt><trkpt lat="45.79081159672426" lon="10.747210102436059"><ele>603.0</ele><time>2026-03-28T15:57:35Z</time></trkpt><trkpt lat="45.790869290384855" lon="10.747145692925196"><ele>603.0</ele><time>2026-03-28T15:57:36Z</time></trkpt><trkpt lat="45.790918126692105" lon="10.747057881488736"><ele>603.0</ele><time>2026-03-28T15:57:37Z</time></trkpt><trkpt lat="45.79096244519953" lon="10.746942215669307"><ele>606.4</ele><time>2026-03-28T15:57:38Z</time></trkpt><trkpt lat="45.79102202265366" lon="10.746833587787442"><ele>609.8</ele><time>2026-03-28T15:57:39Z</time></trkpt><trkpt lat="45.79108922489176" lon="10.746719426394167"><ele>613.2</ele><time>2026-03-28T15:57:40Z</time></trkpt><trkpt lat="45.791178869716745" lon="10.746606171225048"><ele>616.6</ele><time>2026-03-28T15:57:41Z</time></trkpt><trkpt lat="45.79125677932293" lon="10.7464789155206"><ele>620.0</ele><time>2026-03-28T15:57:42Z</time></trkpt><trkpt lat="45.79133122902572" lon="10.746354484690146"><ele>620.0</ele><time>2026-03-28T15:57:43Z</time></trkpt><trkpt lat="45.791407400844435" lon="10.746211009530859"><ele>620.0</ele><time>2026-03-28T15:57:44Z</time></trkpt><trkpt lat="45.791475960239396" lon="10.746044182131113"><ele>620.0</ele><time>2026-03-28T15:57:45Z</time></trkpt><trkpt lat="45.79156911860771" lon="10.745908169319828"><ele>620.0</ele><time>2026-03-28T15:57:46Z</time></trkpt><trkpt lat="45.79164944769375" lon="10.74575452370331"><ele>618.0</ele><time>2026-03-28T15:57:47Z</time></trkpt><trkpt lat="45.791726074454" lon="10.745580394993082"><ele>616.0</ele><time>2026-03-28T15:57:48Z</time></trkpt><trkpt lat="45.7917991277944" lon="10.74539161127093"><ele>614.0</ele><time>2026-03-28T15:57:49Z</time></trkpt><trkpt lat="45.79184886317538" lon="10.74520695433305"><ele>612.0</ele><time>2026-03-28T15:57:50Z</time></trkpt><trkpt lat="45.791903469168695" lon="10.745036364240233"><ele>616.2</ele><time>2026-03-28T15:57:51Z</time></trkpt><trkpt lat="45.79196121672631" lon="10.744887750705267"><ele>620.4000000000001</ele><time>2026-03-28T15:57:52Z</time></trkpt><trkpt lat="45.7920063648042" lon="10.744754885597086"><ele>624.5999999999999</ele><time>2026-03-28T15:57:53Z</time></trkpt><trkpt lat="45.792041116174914" lon="10.744633529014836"><ele>628.8</ele><time>2026-03-28T15:57:54Z</time></trkpt><trkpt lat="45.792101662899974" lon="10.744539433473019"><ele>633.0</ele><time>2026-03-28T15:57:55Z</time></trkpt><trkpt lat="45.79216516847561" lon="10.744453109482112"><ele>632.3333333333334</ele><time>2026-03-28T15:57:56Z</time></trkpt><trkpt lat="45.79221286455064" lon="10.744359727361338"><ele>631.6666666666666</ele><time>2026-03-28T15:57:57Z</time></trkpt><trkpt lat="45.79225151902409" lon="10.744263355404014"><ele>631.0</ele><time>2026-03-28T15:57:58Z</time></trkpt><trkpt lat="45.79229157897842" lon="10.74416545684804"><ele>630.3333333333333</ele><time>2026-03-28T15:57:59Z</time></trkpt><trkpt lat="45.79234619250795" lon="10.744077054209004"><ele>629.6666666666666</ele><time>2026-03-28T15:58:00Z</time></trkpt><trkpt lat="45.79238519495792" lon="10.74397368634555"><ele>629.0</ele><time>2026-03-28T15:58:01Z</time></trkpt><trkpt lat="45.79241841857176" lon="10.743870792869862"><ele>629.0</ele><time>2026-03-28T15:58:02Z</time></trkpt><trkpt lat="45.79244689080586" lon="10.74377583638364"><ele>629.0</ele><time>2026-03-28T15:58:03Z</time></trkpt><trkpt lat="45.792476191094316" lon="10.743644121435842"><ele>629.0</ele><time>2026-03-28T15:58:05Z</time></trkpt><trkpt lat="45.792515033413444" lon="10.743535862200421"><ele>629.0</ele><time>2026-03-28T15:58:09Z</time></trkpt><trkpt lat="45.79257078050428" lon="10.74341041688223"><ele>629.0</ele><time>2026-03-28T15:58:11Z</time></trkpt><trkpt lat="45.79264574885609" lon="10.743264651154632"><ele>628.75</ele><time>2026-03-28T15:58:13Z</time></trkpt><trkpt lat="45.792669432245646" lon="10.743124678055212"><ele>628.5</ele><time>2026-03-28T15:58:15Z</time></trkpt><trkpt lat="45.79268252772923" lon="10.742977729874875"><ele>628.25</ele><time>2026-03-28T15:58:17Z</time></trkpt><trkpt lat="45.79274698784264" lon="10.742801498394492"><ele>628.0</ele><time>2026-03-28T15:58:19Z</time></trkpt><trkpt lat="45.79264240639707" lon="10.74266888729327"><ele>628.6</ele><time>2026-03-28T15:58:21Z</time></trkpt><trkpt lat="45.792604980942606" lon="10.742519522077155"><ele>629.1999999999999</ele><time>2026-03-28T15:58:23Z</time></trkpt><trkpt lat="45.792571595549084" lon="10.742355177686667"><ele>629.8</ele><time>2026-03-28T15:58:25Z</time></trkpt><trkpt lat="45.79252512206081" lon="10.742227306173644"><ele>630.4</ele><time>2026-03-28T15:58:27Z</time></trkpt><trkpt lat="45.79246014159266" lon="10.742089718885577"><ele>631.0</ele><time>2026-03-28T15:58:29Z</time></trkpt><trkpt lat="45.79238632816303" lon="10.741955759568606"><ele>631.0</ele><time>2026-03-28T15:58:31Z</time></trkpt><trkpt lat="45.79234247058946" lon="10.741883882114662"><ele>631.0</ele><time>2026-03-28T15:58:32Z</time></trkpt><trkpt lat="45.79229736601435" lon="10.741804375033977"><ele>631.0</ele><time>2026-03-28T15:58:33Z</time></trkpt><trkpt lat="45.79226928988435" lon="10.741711411335785"><ele>631.0</ele><time>2026-03-28T15:58:34Z</time></trkpt><trkpt lat="45.792221255444204" lon="10.741646926638065"><ele>631.0</ele><time>2026-03-28T15:58:35Z</time></trkpt><trkpt lat="45.792188111294095" lon="10.741569732534584"><ele>631.0</ele><time>2026-03-28T15:58:36Z</time></trkpt><trkpt lat="45.792094821611" lon="10.741442577097013"><ele>632.0</ele><time>2026-03-28T15:58:38Z</time></trkpt><trkpt lat="45.79203728953169" lon="10.741380365508183"><ele>633.0</ele><time>2026-03-28T15:58:39Z</time></trkpt><trkpt lat="45.79197804173401" lon="10.741325931313275"><ele>634.0</ele><time>2026-03-28T15:58:40Z</time></trkpt><trkpt lat="45.7919217175314" lon="10.741285504104985"><ele>635.0</ele><time>2026-03-28T15:58:41Z</time></trkpt><trkpt lat="45.79185944306592" lon="10.741242391909887"><ele>636.0</ele><time>2026-03-28T15:58:42Z</time></trkpt><trkpt lat="45.791787022533555" lon="10.741200381682983"><ele>637.0</ele><time>2026-03-28T15:58:43Z</time></trkpt><trkpt lat="45.7917082135612" lon="10.741160652223575"><ele>638.0</ele><time>2026-03-28T15:58:44Z</time></trkpt><trkpt lat="45.791624845374784" lon="10.741115210058386"><ele>637.1666666666666</ele><time>2026-03-28T15:58:45Z</time></trkpt><trkpt lat="45.79154098247741" lon="10.74109479465105"><ele>636.3333333333333</ele><time>2026-03-28T15:58:46Z</time></trkpt><trkpt lat="45.791459192499836" lon="10.741069124805911"><ele>635.5</ele><time>2026-03-28T15:58:47Z</time></trkpt><trkpt lat="45.79138046115421" lon="10.741044646236105"><ele>634.6666666666666</ele><time>2026-03-28T15:58:48Z</time></trkpt><trkpt lat="45.791301122153975" lon="10.741026528093782"><ele>633.8333333333334</ele><time>2026-03-28T15:58:49Z</time></trkpt><trkpt lat="45.79121787979286" lon="10.741008180609885"><ele>633.0</ele><time>2026-03-28T15:58:50Z</time></trkpt><trkpt lat="45.791131866013195" lon="10.74098544119043"><ele>633.0</ele><time>2026-03-28T15:58:51Z</time></trkpt><trkpt lat="45.79103786888593" lon="10.740958766650644"><ele>633.0</ele><time>2026-03-28T15:58:52Z</time></trkpt><trkpt lat="45.79094232648524" lon="10.740930548923082"><ele>633.0</ele><time>2026-03-28T15:58:53Z</time></trkpt><trkpt lat="45.79084034765801" lon="10.740899188196622"><ele>633.0</ele><time>2026-03-28T15:58:54Z</time></trkpt><trkpt lat="45.7907374256755" lon="10.740853334191758"><ele>633.0</ele><time>2026-03-28T15:58:55Z</time></trkpt><trkpt lat="45.790635957802934" lon="10.740816496856713"><ele>630.8333333333334</ele><time>2026-03-28T15:58:56Z</time></trkpt><trkpt lat="45.79054870757337" lon="10.74076012776738"><ele>628.6666666666666</ele><time>2026-03-28T15:58:57Z</time></trkpt><trkpt lat="45.79047811242382" lon="10.740680682963516"><ele>626.5</ele><time>2026-03-28T15:58:58Z</time></trkpt><trkpt lat="45.79042409204108" lon="10.740582408847098"><ele>624.3333333333333</ele><time>2026-03-28T15:58:59Z</time></trkpt><trkpt lat="45.79039905674571" lon="10.740473625263848"><ele>622.1666666666666</ele><time>2026-03-28T15:59:00Z</time></trkpt><trkpt lat="45.79039673841906" lon="10.740357810268618"><ele>620.0</ele><time>2026-03-28T15:59:01Z</time></trkpt><trkpt lat="45.79042020237962" lon="10.740228084227299"><ele>622.6</ele><time>2026-03-28T15:59:02Z</time></trkpt><trkpt lat="45.79044292726034" lon="10.740097626965401"><ele>625.2</ele><time>2026-03-28T15:59:03Z</time></trkpt><trkpt lat="45.790482358749045" lon="10.739973458132782"><ele>627.8</ele><time>2026-03-28T15:59:04Z</time></trkpt><trkpt lat="45.79053843433245" lon="10.73985173313817"><ele>630.4</ele><time>2026-03-28T15:59:05Z</time></trkpt><trkpt lat="45.79058812581064" lon="10.739725884221258"><ele>633.0</ele><time>2026-03-28T15:59:06Z</time></trkpt><trkpt lat="45.79061748921514" lon="10.739589648789678"><ele>633.0</ele><time>2026-03-28T15:59:07Z</time></trkpt><trkpt lat="45.79064410388007" lon="10.739461398153518"><ele>633.0</ele><time>2026-03-28T15:59:08Z</time></trkpt><trkpt lat="45.79066793740803" lon="10.739329988552242"><ele>633.0</ele><time>2026-03-28T15:59:09Z</time></trkpt><trkpt lat="45.790666927792515" lon="10.73919393409958"><ele>633.0</ele><time>2026-03-28T15:59:10Z</time></trkpt><trkpt lat="45.79063377562599" lon="10.739060801784815"><ele>633.0</ele><time>2026-03-28T15:59:11Z</time></trkpt><trkpt lat="45.79060265743035" lon="10.738941855019798"><ele>635.4</ele><time>2026-03-28T15:59:12Z</time></trkpt><trkpt lat="45.79054046003621" lon="10.738833864102684"><ele>637.8</ele><time>2026-03-28T15:59:13Z</time></trkpt><trkpt lat="45.79045310230665" lon="10.738736422432417"><ele>640.2</ele><time>2026-03-28T15:59:14Z</time></trkpt><trkpt lat="45.79036460340212" lon="10.738631170269077"><ele>642.6</ele><time>2026-03-28T15:59:15Z</time></trkpt><trkpt lat="45.79027771095922" lon="10.738524993421949"><ele>645.0</ele><time>2026-03-28T15:59:16Z</time></trkpt><trkpt lat="45.79018938863367" lon="10.738423052377465"><ele>643.4</ele><time>2026-03-28T15:59:17Z</time></trkpt><trkpt lat="45.790107602743745" lon="10.73832474148097"><ele>641.8</ele><time>2026-03-28T15:59:18Z</time></trkpt><trkpt lat="45.790028606362796" lon="10.738231613177033"><ele>640.2</ele><time>2026-03-28T15:59:19Z</time></trkpt><trkpt lat="45.78994125742512" lon="10.738142056765467"><ele>638.6</ele><time>2026-03-28T15:59:20Z</time></trkpt><trkpt lat="45.789827706015124" lon="10.738111647834687"><ele>637.0</ele><time>2026-03-28T15:59:21Z</time></trkpt><trkpt lat="45.78971881107241" lon="10.73806126798371"><ele>637.0</ele><time>2026-03-28T15:59:22Z</time></trkpt><trkpt lat="45.78961474100552" lon="10.737992884212947"><ele>637.0</ele><time>2026-03-28T15:59:23Z</time></trkpt><trkpt lat="45.78950674669752" lon="10.737917065438536"><ele>637.0</ele><time>2026-03-28T15:59:24Z</time></trkpt><trkpt lat="45.78940981607877" lon="10.73784046020027"><ele>637.0</ele><time>2026-03-28T15:59:25Z</time></trkpt><trkpt lat="45.78934333392752" lon="10.737761015138801"><ele>637.0</ele><time>2026-03-28T15:59:26Z</time></trkpt><trkpt lat="45.789314094731324" lon="10.737639799980403"><ele>638.4000000000001</ele><time>2026-03-28T15:59:27Z</time></trkpt><trkpt lat="45.78925431077985" lon="10.737525977828716"><ele>639.8000000000001</ele><time>2026-03-28T15:59:28Z</time></trkpt><trkpt lat="45.789185081555935" lon="10.737411739807307"><ele>641.2</ele><time>2026-03-28T15:59:29Z</time></trkpt><trkpt lat="45.789110473614905" lon="10.737300015330241"><ele>642.6</ele><time>2026-03-28T15:59:30Z</time></trkpt><trkpt lat="45.788994816436386" lon="10.737250517162563"><ele>644.0</ele><time>2026-03-28T15:59:31Z</time></trkpt><trkpt lat="45.78886742879915" lon="10.737228218514469"><ele>644.0</ele><time>2026-03-28T15:59:32Z</time></trkpt><trkpt lat="45.78873686791147" lon="10.73721735074054"><ele>644.0</ele><time>2026-03-28T15:59:33Z</time></trkpt><trkpt lat="45.788608351972165" lon="10.737226750762753"><ele>644.0</ele><time>2026-03-28T15:59:34Z</time></trkpt><trkpt lat="45.78849629513322" lon="10.737209101379394"><ele>644.0</ele><time>2026-03-28T15:59:35Z</time></trkpt><trkpt lat="45.78838955235724" lon="10.737188517564007"><ele>641.0</ele><time>2026-03-28T15:59:36Z</time></trkpt><trkpt lat="45.78828034468068" lon="10.737139421120235"><ele>638.0</ele><time>2026-03-28T15:59:37Z</time></trkpt><trkpt lat="45.788171432812156" lon="10.737064131536021"><ele>635.0</ele><time>2026-03-28T15:59:38Z</time></trkpt><trkpt lat="45.78806000122472" lon="10.736991459252335"><ele>632.0</ele><time>2026-03-28T15:59:39Z</time></trkpt><trkpt lat="45.78794683442434" lon="10.736924327228193"><ele>630.5</ele><time>2026-03-28T15:59:40Z</time></trkpt><trkpt lat="45.78783506092573" lon="10.736864761979835"><ele>629.0</ele><time>2026-03-28T15:59:41Z</time></trkpt><trkpt lat="45.78771657226132" lon="10.736831356918783"><ele>627.5</ele><time>2026-03-28T15:59:42Z</time></trkpt><trkpt lat="45.78759044731984" lon="10.736818035143544"><ele>626.0</ele><time>2026-03-28T15:59:43Z</time></trkpt><trkpt lat="45.78747037734607" lon="10.73688630124004"><ele>626.0</ele><time>2026-03-28T15:59:44Z</time></trkpt><trkpt lat="45.78735666623477" lon="10.73690574047961"><ele>626.0</ele><time>2026-03-28T15:59:45Z</time></trkpt><trkpt lat="45.7872597719148" lon="10.736809564661682"><ele>626.0</ele><time>2026-03-28T15:59:46Z</time></trkpt><trkpt lat="45.78713786465945" lon="10.7367896072624"><ele>626.0</ele><time>2026-03-28T15:59:47Z</time></trkpt><trkpt lat="45.787024829410754" lon="10.736803507882339"><ele>630.0</ele><time>2026-03-28T15:59:48Z</time></trkpt><trkpt lat="45.78692269736502" lon="10.736778977762983"><ele>634.0</ele><time>2026-03-28T15:59:49Z</time></trkpt><trkpt lat="45.78684952546494" lon="10.7366795522749"><ele>638.0</ele><time>2026-03-28T15:59:50Z</time></trkpt><trkpt lat="45.786767958010564" lon="10.736573929585726"><ele>642.0</ele><time>2026-03-28T15:59:51Z</time></trkpt><trkpt lat="45.78670300935454" lon="10.736429047179449"><ele>646.0</ele><time>2026-03-28T15:59:52Z</time></trkpt><trkpt lat="45.786646494919914" lon="10.736267208526012"><ele>646.0</ele><time>2026-03-28T15:59:53Z</time></trkpt><trkpt lat="45.78660043079966" lon="10.736089239312228"><ele>646.0</ele><time>2026-03-28T15:59:54Z</time></trkpt><trkpt lat="45.78655151730644" lon="10.735904975279631"><ele>646.0</ele><time>2026-03-28T15:59:55Z</time></trkpt><trkpt lat="45.786503293184055" lon="10.735729063913473"><ele>646.0</ele><time>2026-03-28T15:59:56Z</time></trkpt><trkpt lat="45.786465732201734" lon="10.73556489971354"><ele>650.4</ele><time>2026-03-28T15:59:57Z</time></trkpt><trkpt lat="45.78643093734089" lon="10.735412292053953"><ele>654.8</ele><time>2026-03-28T15:59:58Z</time></trkpt><trkpt lat="45.78638708584372" lon="10.735271917525706"><ele>659.1999999999999</ele><time>2026-03-28T15:59:59Z</time></trkpt><trkpt lat="45.7863231040532" lon="10.73514577860728"><ele>663.5999999999999</ele><time>2026-03-28T16:00:00Z</time></trkpt><trkpt lat="45.786242705805336" lon="10.735024954057417"><ele>668.0</ele><time>2026-03-28T16:00:01Z</time></trkpt><trkpt lat="45.78614794449492" lon="10.734909929998722"><ele>667.2</ele><time>2026-03-28T16:00:02Z</time></trkpt><trkpt lat="45.78605172348218" lon="10.734794680483457"><ele>666.4</ele><time>2026-03-28T16:00:03Z</time></trkpt><trkpt lat="45.785956888789094" lon="10.734722500307386"><ele>665.6</ele><time>2026-03-28T16:00:04Z</time></trkpt><trkpt lat="45.78585443529704" lon="10.734698596547174"><ele>664.8000000000001</ele><time>2026-03-28T16:00:05Z</time></trkpt><trkpt lat="45.78575062999816" lon="10.734690516265157"><ele>664.0</ele><time>2026-03-28T16:00:06Z</time></trkpt><trkpt lat="45.785646247818406" lon="10.734651538209576"><ele>664.0</ele><time>2026-03-28T16:00:07Z</time></trkpt><trkpt lat="45.78554770649767" lon="10.734583710662138"><ele>664.0</ele><time>2026-03-28T16:00:08Z</time></trkpt><trkpt lat="45.78545701340323" lon="10.73448509547275"><ele>664.0</ele><time>2026-03-28T16:00:09Z</time></trkpt><trkpt lat="45.785377234933016" lon="10.734366375615737"><ele>664.0</ele><time>2026-03-28T16:00:10Z</time></trkpt><trkpt lat="45.785296426738384" lon="10.734247289221555"><ele>664.0</ele><time>2026-03-28T16:00:11Z</time></trkpt><trkpt lat="45.78522460342147" lon="10.734119960816837"><ele>664.0</ele><time>2026-03-28T16:00:12Z</time></trkpt><trkpt lat="45.785139560769814" lon="10.734014208118426"><ele>664.0</ele><time>2026-03-28T16:00:13Z</time></trkpt><trkpt lat="45.78504447037682" lon="10.733932225102567"><ele>664.0</ele><time>2026-03-28T16:00:14Z</time></trkpt><trkpt lat="45.784963655244994" lon="10.733828480478195"><ele>664.0</ele><time>2026-03-28T16:00:15Z</time></trkpt><trkpt lat="45.78489626843863" lon="10.733712508826585"><ele>664.0</ele><time>2026-03-28T16:00:16Z</time></trkpt><trkpt lat="45.78484793950725" lon="10.733582175295101"><ele>664.0</ele><time>2026-03-28T16:00:17Z</time></trkpt><trkpt lat="45.78482052815808" lon="10.733441455461046"><ele>664.0</ele><time>2026-03-28T16:00:18Z</time></trkpt><trkpt lat="45.78480307748013" lon="10.73329361286247"><ele>664.0</ele><time>2026-03-28T16:00:19Z</time></trkpt><trkpt lat="45.78478064319917" lon="10.733145443549427"><ele>664.0</ele><time>2026-03-28T16:00:20Z</time></trkpt><trkpt lat="45.78475826062224" lon="10.733002213346"><ele>664.4000000000001</ele><time>2026-03-28T16:00:21Z</time></trkpt><trkpt lat="45.784693311175744" lon="10.732879402490035"><ele>664.8</ele><time>2026-03-28T16:00:22Z</time></trkpt><trkpt lat="45.78460244501589" lon="10.73280020461522"><ele>665.2</ele><time>2026-03-28T16:00:23Z</time></trkpt><trkpt lat="45.78451533745001" lon="10.732713177012908"><ele>665.5999999999999</ele><time>2026-03-28T16:00:24Z</time></trkpt><trkpt lat="45.784430401254596" lon="10.732604202707082"><ele>666.0</ele><time>2026-03-28T16:00:25Z</time></trkpt><trkpt lat="45.7843562373971" lon="10.732459974914187"><ele>667.75</ele><time>2026-03-28T16:00:26Z</time></trkpt><trkpt lat="45.784296713468756" lon="10.732289360773166"><ele>669.5</ele><time>2026-03-28T16:00:27Z</time></trkpt><trkpt lat="45.78423659358336" lon="10.732119325375175"><ele>671.25</ele><time>2026-03-28T16:00:28Z</time></trkpt><trkpt lat="45.784171126570634" lon="10.731926965748748"><ele>673.0</ele><time>2026-03-28T16:00:29Z</time></trkpt><trkpt lat="45.784067568881284" lon="10.73176112461491"><ele>673.0</ele><time>2026-03-28T16:00:30Z</time></trkpt><trkpt lat="45.78396555874136" lon="10.73161659836744"><ele>673.0</ele><time>2026-03-28T16:00:31Z</time></trkpt><trkpt lat="45.783858088054636" lon="10.73149424104398"><ele>673.0</ele><time>2026-03-28T16:00:32Z</time></trkpt><trkpt lat="45.78374348832208" lon="10.731398164924336"><ele>673.0</ele><time>2026-03-28T16:00:33Z</time></trkpt><trkpt lat="45.783648187244474" lon="10.731274721342167"><ele>673.0</ele><time>2026-03-28T16:00:34Z</time></trkpt><trkpt lat="45.7835700668061" lon="10.731136237647508"><ele>673.0</ele><time>2026-03-28T16:00:35Z</time></trkpt><trkpt lat="45.783509024019516" lon="10.73097880644256"><ele>673.0</ele><time>2026-03-28T16:00:36Z</time></trkpt><trkpt lat="45.78345821578416" lon="10.730802836768481"><ele>673.0</ele><time>2026-03-28T16:00:37Z</time></trkpt><trkpt lat="45.78341579159991" lon="10.730610056367372"><ele>670.75</ele><time>2026-03-28T16:00:38Z</time></trkpt><trkpt lat="45.78336857943742" lon="10.730427555156606"><ele>668.5</ele><time>2026-03-28T16:00:39Z</time></trkpt><trkpt lat="45.78331138827959" lon="10.730258572143093"><ele>666.25</ele><time>2026-03-28T16:00:40Z</time></trkpt><trkpt lat="45.783249186693716" lon="10.730096283445786"><ele>664.0</ele><time>2026-03-28T16:00:41Z</time></trkpt><trkpt lat="45.78318837687664" lon="10.729939033939111"><ele>664.0</ele><time>2026-03-28T16:00:42Z</time></trkpt><trkpt lat="45.78312365863006" lon="10.729787528028673"><ele>664.0</ele><time>2026-03-28T16:00:43Z</time></trkpt><trkpt lat="45.78307034577096" lon="10.729629134282549"><ele>664.0</ele><time>2026-03-28T16:00:44Z</time></trkpt><trkpt lat="45.783028990516485" lon="10.729471165225071"><ele>664.0</ele><time>2026-03-28T16:00:45Z</time></trkpt><trkpt lat="45.78299056661573" lon="10.72932980317563"><ele>665.3333333333334</ele><time>2026-03-28T16:00:46Z</time></trkpt><trkpt lat="45.78296159037641" lon="10.729195950753128"><ele>666.6666666666667</ele><time>2026-03-28T16:00:47Z</time></trkpt><trkpt lat="45.782959698075004" lon="10.729069449977581"><ele>668.0</ele><time>2026-03-28T16:00:48Z</time></trkpt><trkpt lat="45.78297879589729" lon="10.728961348772089"><ele>669.3333333333334</ele><time>2026-03-28T16:00:49Z</time></trkpt><trkpt lat="45.7829914544188" lon="10.728865496036146"><ele>670.6666666666666</ele><time>2026-03-28T16:00:50Z</time></trkpt><trkpt lat="45.78296949839824" lon="10.728750801294407"><ele>672.0</ele><time>2026-03-28T16:00:51Z</time></trkpt><trkpt lat="45.78292210791249" lon="10.728636007869234"><ele>673.8</ele><time>2026-03-28T16:00:52Z</time></trkpt><trkpt lat="45.78286778940499" lon="10.728517618731312"><ele>675.6</ele><time>2026-03-28T16:00:53Z</time></trkpt><trkpt lat="45.78282283116182" lon="10.728393749144866"><ele>677.4</ele><time>2026-03-28T16:00:54Z</time></trkpt><trkpt lat="45.78279494259979" lon="10.728259916414546"><ele>679.1999999999999</ele><time>2026-03-28T16:00:55Z</time></trkpt><trkpt lat="45.782784692719666" lon="10.728117478394129"><ele>681.0</ele><time>2026-03-28T16:00:56Z</time></trkpt><trkpt lat="45.78279715630903" lon="10.727954863018933"><ele>681.0</ele><time>2026-03-28T16:00:57Z</time></trkpt><trkpt lat="45.78281482092663" lon="10.72777479211449"><ele>681.0</ele><time>2026-03-28T16:00:58Z</time></trkpt><trkpt lat="45.78279613997466" lon="10.727588938558284"><ele>681.0</ele><time>2026-03-28T16:00:59Z</time></trkpt><trkpt lat="45.782766764642645" lon="10.727414781226512"><ele>681.0</ele><time>2026-03-28T16:01:00Z</time></trkpt><trkpt lat="45.7827373623398" lon="10.727243002099275"><ele>681.5</ele><time>2026-03-28T16:01:01Z</time></trkpt><trkpt lat="45.78270371287793" lon="10.727071869890176"><ele>682.0</ele><time>2026-03-28T16:01:02Z</time></trkpt><trkpt lat="45.78270124459998" lon="10.726882718911462"><ele>682.5</ele><time>2026-03-28T16:01:03Z</time></trkpt><trkpt lat="45.782710432928205" lon="10.726680407308892"><ele>683.0</ele><time>2026-03-28T16:01:04Z</time></trkpt><trkpt lat="45.782731262435796" lon="10.726477645989798"><ele>681.25</ele><time>2026-03-28T16:01:05Z</time></trkpt><trkpt lat="45.78273918320033" lon="10.726285363640836"><ele>679.5</ele><time>2026-03-28T16:01:06Z</time></trkpt><trkpt lat="45.78275856247499" lon="10.726100528981425"><ele>677.75</ele><time>2026-03-28T16:01:07Z</time></trkpt><trkpt lat="45.78274101845012" lon="10.72591253075972"><ele>676.0</ele><time>2026-03-28T16:01:08Z</time></trkpt><trkpt lat="45.78271694442516" lon="10.725731113008415"><ele>673.0</ele><time>2026-03-28T16:01:09Z</time></trkpt><trkpt lat="45.78269605488665" lon="10.725584240448551"><ele>670.0</ele><time>2026-03-28T16:01:10Z</time></trkpt><trkpt lat="45.78267884322101" lon="10.725463679399768"><ele>667.0</ele><time>2026-03-28T16:01:11Z</time></trkpt><trkpt lat="45.78267020378688" lon="10.72535567419429"><ele>664.0</ele><time>2026-03-28T16:01:12Z</time></trkpt><trkpt lat="45.78266318975957" lon="10.725235250214684"><ele>661.0</ele><time>2026-03-28T16:01:13Z</time></trkpt><trkpt lat="45.782653111229635" lon="10.725104854783067"><ele>658.0</ele><time>2026-03-28T16:01:14Z</time></trkpt><trkpt lat="45.782643360170496" lon="10.72496291259537"><ele>652.6</ele><time>2026-03-28T16:01:15Z</time></trkpt><trkpt lat="45.78263962750277" lon="10.724815468660472"><ele>647.1999999999999</ele><time>2026-03-28T16:01:16Z</time></trkpt><trkpt lat="45.78262878986517" lon="10.724672860786036"><ele>641.8</ele><time>2026-03-28T16:01:17Z</time></trkpt><trkpt lat="45.78261846329836" lon="10.724521408986767"><ele>636.4</ele><time>2026-03-28T16:01:18Z</time></trkpt><trkpt lat="45.782608544388324" lon="10.724364518986436"><ele>631.0</ele><time>2026-03-28T16:01:19Z</time></trkpt><trkpt lat="45.782597813422825" lon="10.72422020322667"><ele>630.0</ele><time>2026-03-28T16:01:20Z</time></trkpt><trkpt lat="45.78259350282264" lon="10.72407531543872"><ele>629.0</ele><time>2026-03-28T16:01:21Z</time></trkpt><trkpt lat="45.78258114790706" lon="10.723936337462154"><ele>628.0</ele><time>2026-03-28T16:01:22Z</time></trkpt><trkpt lat="45.78257344409934" lon="10.723798775546177"><ele>627.0</ele><time>2026-03-28T16:01:23Z</time></trkpt><trkpt lat="45.782551605236655" lon="10.723662039769634"><ele>626.0</ele><time>2026-03-28T16:01:24Z</time></trkpt><trkpt lat="45.78254171238443" lon="10.723520924029739"><ele>626.0</ele><time>2026-03-28T16:01:25Z</time></trkpt><trkpt lat="45.78252896393205" lon="10.7233771769046"><ele>626.0</ele><time>2026-03-28T16:01:26Z</time></trkpt><trkpt lat="45.78251757014977" lon="10.723230520791187"><ele>626.0</ele><time>2026-03-28T16:01:27Z</time></trkpt><trkpt lat="45.782508317468974" lon="10.723091675761323"><ele>626.0</ele><time>2026-03-28T16:01:28Z</time></trkpt><trkpt lat="45.782503279957055" lon="10.722966520749972"><ele>626.0</ele><time>2026-03-28T16:01:29Z</time></trkpt><trkpt lat="45.782496641229635" lon="10.722834158157816"><ele>625.8333333333333</ele><time>2026-03-28T16:01:30Z</time></trkpt><trkpt lat="45.78247949237841" lon="10.722710238097928"><ele>625.6666666666666</ele><time>2026-03-28T16:01:31Z</time></trkpt><trkpt lat="45.782463972026356" lon="10.722590050078676"><ele>625.5</ele><time>2026-03-28T16:01:32Z</time></trkpt><trkpt lat="45.782450310835635" lon="10.722466551546505"><ele>625.3333333333334</ele><time>2026-03-28T16:01:33Z</time></trkpt><trkpt lat="45.78244020261729" lon="10.722347359940226"><ele>625.1666666666667</ele><time>2026-03-28T16:01:34Z</time></trkpt><trkpt lat="45.782441463001966" lon="10.722217115644535"><ele>625.0</ele><time>2026-03-28T16:01:35Z</time></trkpt><trkpt lat="45.78240020199577" lon="10.722092112243967"><ele>625.0</ele><time>2026-03-28T16:01:36Z</time></trkpt><trkpt lat="45.78237186702816" lon="10.721954626215624"><ele>625.0</ele><time>2026-03-28T16:01:37Z</time></trkpt><trkpt lat="45.78235386372413" lon="10.721819647081649"><ele>625.0</ele><time>2026-03-28T16:01:38Z</time></trkpt><trkpt lat="45.78233585902383" lon="10.721690528396788"><ele>625.0</ele><time>2026-03-28T16:01:39Z</time></trkpt><trkpt lat="45.78231563583044" lon="10.721560835265688"><ele>625.0</ele><time>2026-03-28T16:01:40Z</time></trkpt><trkpt lat="45.78229742167642" lon="10.721441425287285"><ele>624.6666666666667</ele><time>2026-03-28T16:01:41Z</time></trkpt><trkpt lat="45.78228754648227" lon="10.721331611464093"><ele>624.3333333333334</ele><time>2026-03-28T16:01:42Z</time></trkpt><trkpt lat="45.78228853624257" lon="10.721232682039638"><ele>624.0</ele><time>2026-03-28T16:01:43Z</time></trkpt><trkpt lat="45.78230428490034" lon="10.721128808711166"><ele>623.6666666666666</ele><time>2026-03-28T16:01:44Z</time></trkpt><trkpt lat="45.782347038298155" lon="10.721030194312762"><ele>623.3333333333333</ele><time>2026-03-28T16:01:45Z</time></trkpt><trkpt lat="45.78241488033638" lon="10.720947545972235"><ele>623.0</ele><time>2026-03-28T16:01:46Z</time></trkpt><trkpt lat="45.78249656667487" lon="10.720864964318785"><ele>621.6666666666666</ele><time>2026-03-28T16:01:47Z</time></trkpt><trkpt lat="45.78256916045054" lon="10.720792150009522"><ele>620.3333333333333</ele><time>2026-03-28T16:01:48Z</time></trkpt><trkpt lat="45.78264022022214" lon="10.720753955368757"><ele>619.0</ele><time>2026-03-28T16:01:49Z</time></trkpt><trkpt lat="45.782720268493776" lon="10.7207665838526"><ele>617.6666666666666</ele><time>2026-03-28T16:01:50Z</time></trkpt><trkpt lat="45.78280101571456" lon="10.720803239172113"><ele>616.3333333333334</ele><time>2026-03-28T16:01:51Z</time></trkpt><trkpt lat="45.782883712115456" lon="10.720841796255465"><ele>615.0</ele><time>2026-03-28T16:01:52Z</time></trkpt><trkpt lat="45.7829729732085" lon="10.720875412162941"><ele>613.0</ele><time>2026-03-28T16:01:53.001Z</time></trkpt><trkpt lat="45.78306100145137" lon="10.720913299015313"><ele>611.0</ele><time>2026-03-28T16:01:54.001Z</time></trkpt><trkpt lat="45.78315566069976" lon="10.72093888894945"><ele>609.0</ele><time>2026-03-28T16:01:55.001Z</time></trkpt><trkpt lat="45.783245512487774" lon="10.720997446353934"><ele>607.0</ele><time>2026-03-28T16:01:56.001Z</time></trkpt><trkpt lat="45.78332469334882" lon="10.72104582539839"><ele>605.0</ele><time>2026-03-28T16:01:57.001Z</time></trkpt><trkpt lat="45.7834116379744" lon="10.721029331916336"><ele>605.0</ele><time>2026-03-28T16:01:58.001Z</time></trkpt><trkpt lat="45.78347831943556" lon="10.720986115412394"><ele>605.0</ele><time>2026-03-28T16:01:59.001Z</time></trkpt><trkpt lat="45.78355025162705" lon="10.721026994675931"><ele>605.0</ele><time>2026-03-28T16:02:01.001Z</time></trkpt><trkpt lat="45.78357325729017" lon="10.72113806730398"><ele>605.0</ele><time>2026-03-28T16:02:02.001Z</time></trkpt><trkpt lat="45.783596323575715" lon="10.721246078786356"><ele>605.0</ele><time>2026-03-28T16:02:03.001Z</time></trkpt><trkpt lat="45.78364225260535" lon="10.72134146783982"><ele>605.0</ele><time>2026-03-28T16:02:04Z</time></trkpt><trkpt lat="45.78371951737286" lon="10.72140312955425"><ele>605.0</ele><time>2026-03-28T16:02:05Z</time></trkpt><trkpt lat="45.783808043105395" lon="10.721416987538582"><ele>605.0</ele><time>2026-03-28T16:02:06Z</time></trkpt><trkpt lat="45.78389024320711" lon="10.721386144717908"><ele>605.0</ele><time>2026-03-28T16:02:07Z</time></trkpt><trkpt lat="45.783969033414245" lon="10.7213575232692"><ele>605.0</ele><time>2026-03-28T16:02:08Z</time></trkpt><trkpt lat="45.784048751517645" lon="10.721358358421446"><ele>605.0</ele><time>2026-03-28T16:02:10Z</time></trkpt><trkpt lat="45.78400621840908" lon="10.72121224595612"><ele>605.0</ele><time>2026-03-28T16:02:12Z</time></trkpt><trkpt lat="45.78393247231918" lon="10.721214236201096"><ele>605.0</ele><time>2026-03-28T16:02:13Z</time></trkpt><trkpt lat="45.78385680824473" lon="10.72123407250248"><ele>605.0</ele><time>2026-03-28T16:02:14Z</time></trkpt><trkpt lat="45.78377935134625" lon="10.72124889833278"><ele>605.0</ele><time>2026-03-28T16:02:15Z</time></trkpt><trkpt lat="45.783727059673645" lon="10.721186167357303"><ele>605.0</ele><time>2026-03-28T16:02:16Z</time></trkpt><trkpt lat="45.783702914914514" lon="10.721075118012623"><ele>605.0</ele><time>2026-03-28T16:02:17Z</time></trkpt><trkpt lat="45.78369429478875" lon="10.720951816369753"><ele>605.0</ele><time>2026-03-28T16:02:18Z</time></trkpt><trkpt lat="45.783695436653375" lon="10.720841392099825"><ele>601.1666666666666</ele><time>2026-03-28T16:02:19Z</time></trkpt><trkpt lat="45.7837103261186" lon="10.720737544476458"><ele>597.3333333333333</ele><time>2026-03-28T16:02:20Z</time></trkpt><trkpt lat="45.783713527398476" lon="10.720627059042915"><ele>593.5</ele><time>2026-03-28T16:02:21Z</time></trkpt><trkpt lat="45.78371815197733" lon="10.720515873352177"><ele>589.6666666666666</ele><time>2026-03-28T16:02:22Z</time></trkpt><trkpt lat="45.78371857692485" lon="10.72039879481455"><ele>585.8333333333334</ele><time>2026-03-28T16:02:23Z</time></trkpt><trkpt lat="45.783700429818225" lon="10.720290587965211"><ele>582.0</ele><time>2026-03-28T16:02:24Z</time></trkpt><trkpt lat="45.78366610493966" lon="10.720206863550601"><ele>585.8333333333334</ele><time>2026-03-28T16:02:25Z</time></trkpt><trkpt lat="45.78360647861478" lon="10.72016242414369"><ele>589.6666666666666</ele><time>2026-03-28T16:02:26Z</time></trkpt><trkpt lat="45.78352925837924" lon="10.720176147571085"><ele>593.5</ele><time>2026-03-28T16:02:27Z</time></trkpt><trkpt lat="45.78345004059429" lon="10.720250271982561"><ele>597.3333333333333</ele><time>2026-03-28T16:02:28Z</time></trkpt><trkpt lat="45.7833723050443" lon="10.72034403556428"><ele>601.1666666666666</ele><time>2026-03-28T16:02:29Z</time></trkpt><trkpt lat="45.78328521376144" lon="10.72040819802701"><ele>605.0</ele><time>2026-03-28T16:02:30Z</time></trkpt><trkpt lat="45.78317615403277" lon="10.720413413110832"><ele>605.0</ele><time>2026-03-28T16:02:31Z</time></trkpt><trkpt lat="45.783068362769754" lon="10.720328897943835"><ele>605.0</ele><time>2026-03-28T16:02:32Z</time></trkpt><trkpt lat="45.782975799989096" lon="10.720216360468294"><ele>605.0</ele><time>2026-03-28T16:02:33Z</time></trkpt><trkpt lat="45.78291077562652" lon="10.720110455663459"><ele>605.0</ele><time>2026-03-28T16:02:34Z</time></trkpt><trkpt lat="45.78288850207826" lon="10.719993234163901"><ele>605.0</ele><time>2026-03-28T16:02:35Z</time></trkpt><trkpt lat="45.78288624303352" lon="10.719888897924749"><ele>602.8333333333333</ele><time>2026-03-28T16:02:36Z</time></trkpt><trkpt lat="45.78285366501278" lon="10.719806834910191"><ele>600.6666666666666</ele><time>2026-03-28T16:02:37Z</time></trkpt><trkpt lat="45.78278104021521" lon="10.719782468922574"><ele>598.5</ele><time>2026-03-28T16:02:38Z</time></trkpt><trkpt lat="45.78268764996066" lon="10.71979083310114"><ele>596.3333333333334</ele><time>2026-03-28T16:02:39Z</time></trkpt><trkpt lat="45.78258659235955" lon="10.719823508555658"><ele>594.1666666666667</ele><time>2026-03-28T16:02:40Z</time></trkpt><trkpt lat="45.78250324227209" lon="10.71981710295727"><ele>592.0</ele><time>2026-03-28T16:02:41Z</time></trkpt><trkpt lat="45.78243017006006" lon="10.719720246019923"><ele>592.0</ele><time>2026-03-28T16:02:42Z</time></trkpt><trkpt lat="45.78237237631213" lon="10.719597897226928"><ele>592.0</ele><time>2026-03-28T16:02:43Z</time></trkpt><trkpt lat="45.78229833913433" lon="10.719507179459551"><ele>592.0</ele><time>2026-03-28T16:02:44Z</time></trkpt><trkpt lat="45.782209658264385" lon="10.719439181170433"><ele>592.0</ele><time>2026-03-28T16:02:45Z</time></trkpt><trkpt lat="45.78216082504036" lon="10.719347268130885"><ele>592.0</ele><time>2026-03-28T16:02:46Z</time></trkpt><trkpt lat="45.782162004738474" lon="10.719225437818334"><ele>588.0</ele><time>2026-03-28T16:02:47Z</time></trkpt><trkpt lat="45.78217633759552" lon="10.719125863751264"><ele>584.0</ele><time>2026-03-28T16:02:48Z</time></trkpt><trkpt lat="45.78213888269451" lon="10.71903982349714"><ele>580.0</ele><time>2026-03-28T16:02:49Z</time></trkpt><trkpt lat="45.78205481191739" lon="10.719014972084112"><ele>576.0</ele><time>2026-03-28T16:02:50Z</time></trkpt><trkpt lat="45.781958344776605" lon="10.719028537047032"><ele>572.0</ele><time>2026-03-28T16:02:51Z</time></trkpt><trkpt lat="45.78185177726422" lon="10.71905488238984"><ele>568.0</ele><time>2026-03-28T16:02:52Z</time></trkpt><trkpt lat="45.781744223438764" lon="10.719039994046302"><ele>568.0</ele><time>2026-03-28T16:02:53Z</time></trkpt><trkpt lat="45.78162730898227" lon="10.719016515964151"><ele>568.0</ele><time>2026-03-28T16:02:54Z</time></trkpt><trkpt lat="45.78152313170417" lon="10.719030633101893"><ele>568.0</ele><time>2026-03-28T16:02:56Z</time></trkpt><trkpt lat="45.78147010168876" lon="10.7191342442151"><ele>568.0</ele><time>2026-03-28T16:02:57Z</time></trkpt><trkpt lat="45.78142196826407" lon="10.719279383016115"><ele>568.0</ele><time>2026-03-28T16:02:58Z</time></trkpt><trkpt lat="45.78136127979515" lon="10.719407777049696"><ele>566.1999999999999</ele><time>2026-03-28T16:02:59Z</time></trkpt><trkpt lat="45.78127999402059" lon="10.71947911135835"><ele>564.4</ele><time>2026-03-28T16:03:00Z</time></trkpt><trkpt lat="45.781193984145496" lon="10.719504837589866"><ele>562.5999999999999</ele><time>2026-03-28T16:03:01Z</time></trkpt><trkpt lat="45.78109291229986" lon="10.71949350473324"><ele>560.8</ele><time>2026-03-28T16:03:02Z</time></trkpt><trkpt lat="45.781010181427014" lon="10.719400674118795"><ele>559.0</ele><time>2026-03-28T16:03:03Z</time></trkpt><trkpt lat="45.7809286755986" lon="10.719275836088032"><ele>559.0</ele><time>2026-03-28T16:03:04Z</time></trkpt><trkpt lat="45.78086967090947" lon="10.719110695550185"><ele>559.0</ele><time>2026-03-28T16:03:05Z</time></trkpt><trkpt lat="45.780834926389474" lon="10.718943374087168"><ele>559.0</ele><time>2026-03-28T16:03:06Z</time></trkpt><trkpt lat="45.78083730012262" lon="10.718802786228531"><ele>559.0</ele><time>2026-03-28T16:03:07Z</time></trkpt><trkpt lat="45.780844736931336" lon="10.718705844776265"><ele>559.0</ele><time>2026-03-28T16:03:08Z</time></trkpt><trkpt lat="45.780805353325135" lon="10.718608879144739"><ele>559.0</ele><time>2026-03-28T16:03:09Z</time></trkpt><trkpt lat="45.78073101340718" lon="10.718527300020268"><ele>559.0</ele><time>2026-03-28T16:03:10Z</time></trkpt><trkpt lat="45.78065070280774" lon="10.718480993877293"><ele>559.0</ele><time>2026-03-28T16:03:11Z</time></trkpt><trkpt lat="45.78056346192795" lon="10.718483829265947"><ele>559.0</ele><time>2026-03-28T16:03:12Z</time></trkpt><trkpt lat="45.78049150336932" lon="10.718555746039327"><ele>559.0</ele><time>2026-03-28T16:03:13Z</time></trkpt><trkpt lat="45.780430357535806" lon="10.718668908709693"><ele>559.0</ele><time>2026-03-28T16:03:14Z</time></trkpt><trkpt lat="45.780383117013834" lon="10.718815604732885"><ele>559.0</ele><time>2026-03-28T16:03:15Z</time></trkpt><trkpt lat="45.78031938432373" lon="10.71896823110035"><ele>559.0</ele><time>2026-03-28T16:03:16Z</time></trkpt><trkpt lat="45.780224956102714" lon="10.71909582269436"><ele>559.0</ele><time>2026-03-28T16:03:17Z</time></trkpt><trkpt lat="45.780138475035734" lon="10.71918838076512"><ele>559.8333333333334</ele><time>2026-03-28T16:03:18Z</time></trkpt><trkpt lat="45.78007888885281" lon="10.719274072976873"><ele>560.6666666666667</ele><time>2026-03-28T16:03:19Z</time></trkpt><trkpt lat="45.78005000352998" lon="10.719392938196572"><ele>561.5</ele><time>2026-03-28T16:03:20Z</time></trkpt><trkpt lat="45.78005556795912" lon="10.719530670798491"><ele>562.3333333333334</ele><time>2026-03-28T16:03:21Z</time></trkpt><trkpt lat="45.78008741792763" lon="10.71964313840025"><ele>563.1666666666666</ele><time>2026-03-28T16:03:22Z</time></trkpt><trkpt lat="45.780086254458595" lon="10.719736574073872"><ele>564.0</ele><time>2026-03-28T16:03:23Z</time></trkpt><trkpt lat="45.7799643379511" lon="10.719777554181576"><ele>564.0</ele><time>2026-03-28T16:03:25Z</time></trkpt><trkpt lat="45.77991595134559" lon="10.719699963925118"><ele>564.0</ele><time>2026-03-28T16:03:26Z</time></trkpt><trkpt lat="45.779903192931926" lon="10.719579625784158"><ele>564.0</ele><time>2026-03-28T16:03:27Z</time></trkpt><trkpt lat="45.77990635970303" lon="10.719422283952216"><ele>564.0</ele><time>2026-03-28T16:03:28Z</time></trkpt><trkpt lat="45.77990898436138" lon="10.719261067237102"><ele>564.0</ele><time>2026-03-28T16:03:29Z</time></trkpt><trkpt lat="45.77991536015682" lon="10.719099071809282"><ele>558.0</ele><time>2026-03-28T16:03:30Z</time></trkpt><trkpt lat="45.77994286493641" lon="10.718952497216637"><ele>552.0</ele><time>2026-03-28T16:03:31Z</time></trkpt><trkpt lat="45.779992596466734" lon="10.718806947938784"><ele>546.0</ele><time>2026-03-28T16:03:32Z</time></trkpt><trkpt lat="45.780063541688456" lon="10.718665387794454"><ele>540.0</ele><time>2026-03-28T16:03:33Z</time></trkpt><trkpt lat="45.780126772098285" lon="10.718516782035785"><ele>538.6</ele><time>2026-03-28T16:03:34Z</time></trkpt><trkpt lat="45.78018211432235" lon="10.7183586959466"><ele>537.2</ele><time>2026-03-28T16:03:35Z</time></trkpt><trkpt lat="45.780241573240126" lon="10.718205438898819"><ele>535.8</ele><time>2026-03-28T16:03:36Z</time></trkpt><trkpt lat="45.7803025426866" lon="10.718075993131354"><ele>534.4</ele><time>2026-03-28T16:03:37Z</time></trkpt><trkpt lat="45.78036693482973" lon="10.717978023228492"><ele>533.0</ele><time>2026-03-28T16:03:38Z</time></trkpt><trkpt lat="45.78041996023887" lon="10.717878067190322"><ele>533.0</ele><time>2026-03-28T16:03:39Z</time></trkpt><trkpt lat="45.780501951036655" lon="10.717806927053209"><ele>533.0</ele><time>2026-03-28T16:03:40Z</time></trkpt><trkpt lat="45.780600119211265" lon="10.717758127704254"><ele>533.0</ele><time>2026-03-28T16:03:41Z</time></trkpt><trkpt lat="45.78070386289514" lon="10.71774472580234"><ele>533.0</ele><time>2026-03-28T16:03:42Z</time></trkpt><trkpt lat="45.780813899021126" lon="10.717703006275793"><ele>533.0</ele><time>2026-03-28T16:03:43Z</time></trkpt><trkpt lat="45.78091691497857" lon="10.717679265661125"><ele>532.8</ele><time>2026-03-28T16:03:44Z</time></trkpt><trkpt lat="45.781004950377394" lon="10.717719082907871"><ele>532.5999999999999</ele><time>2026-03-28T16:03:45Z</time></trkpt><trkpt lat="45.78109190800195" lon="10.717785448527579"><ele>532.4000000000001</ele><time>2026-03-28T16:03:46Z</time></trkpt><trkpt lat="45.78117781563142" lon="10.717877246473831"><ele>532.2</ele><time>2026-03-28T16:03:47Z</time></trkpt><trkpt lat="45.781271790791344" lon="10.717888806881845"><ele>532.0</ele><time>2026-03-28T16:03:48Z</time></trkpt><trkpt lat="45.781325970721554" lon="10.717824371608952"><ele>524.0</ele><time>2026-03-28T16:03:49Z</time></trkpt><trkpt lat="45.7813958027076" lon="10.717728830781022"><ele>516.0</ele><time>2026-03-28T16:03:50Z</time></trkpt><trkpt lat="45.78150168634274" lon="10.717685357623347"><ele>508.00000000000006</ele><time>2026-03-28T16:03:51Z</time></trkpt><trkpt lat="45.781618347730735" lon="10.717663474138016"><ele>500.0</ele><time>2026-03-28T16:03:52Z</time></trkpt><trkpt lat="45.781740166993444" lon="10.717643424329507"><ele>492.0</ele><time>2026-03-28T16:03:53Z</time></trkpt><trkpt lat="45.78186342044371" lon="10.717637581564185"><ele>490.25</ele><time>2026-03-28T16:03:54Z</time></trkpt><trkpt lat="45.78198659076386" lon="10.71765245217822"><ele>488.5</ele><time>2026-03-28T16:03:55Z</time></trkpt><trkpt lat="45.78210924331093" lon="10.717669766996977"><ele>486.75</ele><time>2026-03-28T16:03:56Z</time></trkpt><trkpt lat="45.78223902207524" lon="10.717710517196167"><ele>485.0</ele><time>2026-03-28T16:03:57Z</time></trkpt><trkpt lat="45.78237085659821" lon="10.717753565560182"><ele>484.0</ele><time>2026-03-28T16:03:58Z</time></trkpt><trkpt lat="45.78250687443613" lon="10.71776711868335"><ele>483.0</ele><time>2026-03-28T16:03:59.001Z</time></trkpt><trkpt lat="45.78263053454943" lon="10.7177552381994"><ele>482.0</ele><time>2026-03-28T16:04:00.001Z</time></trkpt><trkpt lat="45.782736658636516" lon="10.717734581061809"><ele>481.0</ele><time>2026-03-28T16:04:01.001Z</time></trkpt><trkpt lat="45.78283991718601" lon="10.71773725964173"><ele>481.0</ele><time>2026-03-28T16:04:02.001Z</time></trkpt><trkpt lat="45.782929470239985" lon="10.717743414092311"><ele>481.0</ele><time>2026-03-28T16:04:03.001Z</time></trkpt><trkpt lat="45.78299341067494" lon="10.717664264527412"><ele>481.0</ele><time>2026-03-28T16:04:04.001Z</time></trkpt><trkpt lat="45.78307031175594" lon="10.71755702318393"><ele>481.0</ele><time>2026-03-28T16:04:05.001Z</time></trkpt><trkpt lat="45.783169849291774" lon="10.717424642021982"><ele>481.0</ele><time>2026-03-28T16:04:06.001Z</time></trkpt><trkpt lat="45.78329446665987" lon="10.71735273572491"><ele>481.0</ele><time>2026-03-28T16:04:07.001Z</time></trkpt><trkpt lat="45.78340661608106" lon="10.717259452301235"><ele>481.0</ele><time>2026-03-28T16:04:08.001Z</time></trkpt><trkpt lat="45.783500632559075" lon="10.717170426159935"><ele>481.0</ele><time>2026-03-28T16:04:09.001Z</time></trkpt><trkpt lat="45.78360790075205" lon="10.717104909242991"><ele>481.0</ele><time>2026-03-28T16:04:10.001Z</time></trkpt><trkpt lat="45.78373292024713" lon="10.717081164163574"><ele>479.25</ele><time>2026-03-28T16:04:11.001Z</time></trkpt><trkpt lat="45.783865791299796" lon="10.71709623687478"><ele>477.5</ele><time>2026-03-28T16:04:12.001Z</time></trkpt><trkpt lat="45.78399725803672" lon="10.717132793037345"><ele>475.75</ele><time>2026-03-28T16:04:13.001Z</time></trkpt><trkpt lat="45.784123716784556" lon="10.717187185502283"><ele>474.0</ele><time>2026-03-28T16:04:14.001Z</time></trkpt><trkpt lat="45.78423499518735" lon="10.717215363181612"><ele>474.0</ele><time>2026-03-28T16:04:15.001Z</time></trkpt><trkpt lat="45.7843342041682" lon="10.717249827092692"><ele>474.0</ele><time>2026-03-28T16:04:16Z</time></trkpt><trkpt lat="45.78442103801879" lon="10.717330144060604"><ele>474.0</ele><time>2026-03-28T16:04:17Z</time></trkpt><trkpt lat="45.78449365371579" lon="10.717417250014428"><ele>474.0</ele><time>2026-03-28T16:04:18Z</time></trkpt><trkpt lat="45.78458632809617" lon="10.717410908191512"><ele>474.0</ele><time>2026-03-28T16:04:20Z</time></trkpt><trkpt lat="45.78459260301775" lon="10.717177403963865"><ele>472.4</ele><time>2026-03-28T16:04:22Z</time></trkpt><trkpt lat="45.78453579503892" lon="10.717067567159424"><ele>470.79999999999995</ele><time>2026-03-28T16:04:23Z</time></trkpt><trkpt lat="45.78448057471097" lon="10.716934001853204"><ele>469.20000000000005</ele><time>2026-03-28T16:04:24Z</time></trkpt><trkpt lat="45.78444329080369" lon="10.716803027778361"><ele>467.6</ele><time>2026-03-28T16:04:25Z</time></trkpt><trkpt lat="45.78443734861796" lon="10.716684627833507"><ele>466.0</ele><time>2026-03-28T16:04:26Z</time></trkpt><trkpt lat="45.78440966752104" lon="10.716583272861072"><ele>466.0</ele><time>2026-03-28T16:04:27Z</time></trkpt><trkpt lat="45.784288930470964" lon="10.716595917788954"><ele>466.0</ele><time>2026-03-28T16:04:29Z</time></trkpt><trkpt lat="45.78421065194015" lon="10.716634597717725"><ele>466.0</ele><time>2026-03-28T16:04:30Z</time></trkpt><trkpt lat="45.78413805257158" lon="10.716626861714222"><ele>466.0</ele><time>2026-03-28T16:04:31Z</time></trkpt><trkpt lat="45.784067539012625" lon="10.716559499065925"><ele>466.0</ele><time>2026-03-28T16:04:32Z</time></trkpt><trkpt lat="45.783986517349994" lon="10.716463318445653"><ele>466.0</ele><time>2026-03-28T16:04:33Z</time></trkpt><trkpt lat="45.783913258665734" lon="10.716345009166572"><ele>466.0</ele><time>2026-03-28T16:04:34Z</time></trkpt><trkpt lat="45.78383086008081" lon="10.716221859867442"><ele>466.0</ele><time>2026-03-28T16:04:35Z</time></trkpt><trkpt lat="45.78374319410141" lon="10.716089019605146"><ele>466.0</ele><time>2026-03-28T16:04:36Z</time></trkpt><trkpt lat="45.783654545928314" lon="10.715972498800905"><ele>467.20000000000005</ele><time>2026-03-28T16:04:37Z</time></trkpt><trkpt lat="45.78354573158275" lon="10.715911496926333"><ele>468.40000000000003</ele><time>2026-03-28T16:04:38Z</time></trkpt><trkpt lat="45.7834387257313" lon="10.715877324601495"><ele>469.6</ele><time>2026-03-28T16:04:39Z</time></trkpt><trkpt lat="45.78335634314669" lon="10.71582389677285"><ele>470.8</ele><time>2026-03-28T16:04:40Z</time></trkpt><trkpt lat="45.783306397713936" lon="10.715715541902785"><ele>472.0</ele><time>2026-03-28T16:04:41Z</time></trkpt><trkpt lat="45.7832700043686" lon="10.715575920842285"><ele>472.0</ele><time>2026-03-28T16:04:42Z</time></trkpt><trkpt lat="45.78324192476303" lon="10.715454921205824"><ele>472.00000000000006</ele><time>2026-03-28T16:04:43Z</time></trkpt><trkpt lat="45.78318274439045" lon="10.715390251678429"><ele>472.00000000000006</ele><time>2026-03-28T16:04:44Z</time></trkpt><trkpt lat="45.78305568585167" lon="10.715436299672394"><ele>472.0</ele><time>2026-03-28T16:04:46Z</time></trkpt><trkpt lat="45.78299326783839" lon="10.7155190945532"><ele>472.0</ele><time>2026-03-28T16:04:47Z</time></trkpt><trkpt lat="45.78290744603229" lon="10.715573091115882"><ele>472.0</ele><time>2026-03-28T16:04:48Z</time></trkpt><trkpt lat="45.782818361658606" lon="10.715545632993296"><ele>472.00000000000006</ele><time>2026-03-28T16:04:49Z</time></trkpt><trkpt lat="45.782741477666626" lon="10.715442579513278"><ele>472.00000000000006</ele><time>2026-03-28T16:04:50Z</time></trkpt><trkpt lat="45.78266580296391" lon="10.715323585866754"><ele>472.0</ele><time>2026-03-28T16:04:51Z</time></trkpt><trkpt lat="45.7825665300676" lon="10.715255914268973"><ele>472.0</ele><time>2026-03-28T16:04:52Z</time></trkpt><trkpt lat="45.78244950559571" lon="10.715234718010986"><ele>475.75</ele><time>2026-03-28T16:04:53Z</time></trkpt><trkpt lat="45.78231996981935" lon="10.71521941006492"><ele>479.5</ele><time>2026-03-28T16:04:54Z</time></trkpt><trkpt lat="45.782188568355984" lon="10.71517206368709"><ele>483.25</ele><time>2026-03-28T16:04:55Z</time></trkpt><trkpt lat="45.78206089522567" lon="10.71510415665482"><ele>487.0</ele><time>2026-03-28T16:04:56Z</time></trkpt><trkpt lat="45.78196186110952" lon="10.715034341519495"><ele>487.0</ele><time>2026-03-28T16:04:57Z</time></trkpt><trkpt lat="45.78189485882857" lon="10.714951757937841"><ele>487.00000000000006</ele><time>2026-03-28T16:04:58Z</time></trkpt><trkpt lat="45.78184488560454" lon="10.714823093242835"><ele>487.00000000000006</ele><time>2026-03-28T16:04:59Z</time></trkpt><trkpt lat="45.78178775457177" lon="10.714709670479227"><ele>487.0</ele><time>2026-03-28T16:05:00Z</time></trkpt><trkpt lat="45.78169080188281" lon="10.714646458669936"><ele>487.0</ele><time>2026-03-28T16:05:01Z</time></trkpt><trkpt lat="45.78157413992815" lon="10.714605836008353"><ele>485.75</ele><time>2026-03-28T16:05:02Z</time></trkpt><trkpt lat="45.78144448156942" lon="10.714595417714133"><ele>484.5</ele><time>2026-03-28T16:05:03Z</time></trkpt><trkpt lat="45.781307766860394" lon="10.714620840606294"><ele>483.25</ele><time>2026-03-28T16:05:04Z</time></trkpt><trkpt lat="45.781169625705225" lon="10.71467226507418"><ele>482.0</ele><time>2026-03-28T16:05:05Z</time></trkpt><trkpt lat="45.7810302312802" lon="10.714711658738585"><ele>483.20000000000005</ele><time>2026-03-28T16:05:06Z</time></trkpt><trkpt lat="45.780904563313385" lon="10.714723470218901"><ele>484.40000000000003</ele><time>2026-03-28T16:05:07Z</time></trkpt><trkpt lat="45.78079836026337" lon="10.714723370436134"><ele>485.59999999999997</ele><time>2026-03-28T16:05:08Z</time></trkpt><trkpt lat="45.780717856116496" lon="10.714760395325522"><ele>486.79999999999995</ele><time>2026-03-28T16:05:09Z</time></trkpt><trkpt lat="45.780653324287975" lon="10.71484355008777"><ele>488.0</ele><time>2026-03-28T16:05:10Z</time></trkpt><trkpt lat="45.7806086398129" lon="10.71496043553903"><ele>488.0</ele><time>2026-03-28T16:05:11Z</time></trkpt><trkpt lat="45.780554954901184" lon="10.715074684176734"><ele>487.99999999999994</ele><time>2026-03-28T16:05:12Z</time></trkpt><trkpt lat="45.78049608555868" lon="10.715180832988008"><ele>487.99999999999994</ele><time>2026-03-28T16:05:13Z</time></trkpt><trkpt lat="45.780452531196204" lon="10.715264123334551"><ele>488.0</ele><time>2026-03-28T16:05:14Z</time></trkpt><trkpt lat="45.78035495252645" lon="10.715302323688674"><ele>488.0</ele><time>2026-03-28T16:05:16Z</time></trkpt><trkpt lat="45.78032682234652" lon="10.715133876695994"><ele>487.99999999999994</ele><time>2026-03-28T16:05:18Z</time></trkpt><trkpt lat="45.78035932559409" lon="10.715048640004914"><ele>488.0</ele><time>2026-03-28T16:05:19Z</time></trkpt><trkpt lat="45.780390107182285" lon="10.714941179650431"><ele>488.0</ele><time>2026-03-28T16:05:20Z</time></trkpt><trkpt lat="45.78040414338737" lon="10.714816407487575"><ele>488.0</ele><time>2026-03-28T16:05:21Z</time></trkpt><trkpt lat="45.78042035150615" lon="10.714679343638876"><ele>487.99999999999994</ele><time>2026-03-28T16:05:22Z</time></trkpt><trkpt lat="45.78044403713095" lon="10.714559911680695"><ele>488.0</ele><time>2026-03-28T16:05:23Z</time></trkpt><trkpt lat="45.7804810549688" lon="10.71443181827968"><ele>494.79999999999995</ele><time>2026-03-28T16:05:24Z</time></trkpt><trkpt lat="45.780522513315105" lon="10.714291431539268"><ele>501.59999999999997</ele><time>2026-03-28T16:05:25Z</time></trkpt><trkpt lat="45.780564448565336" lon="10.714160230349203"><ele>508.40000000000003</ele><time>2026-03-28T16:05:26Z</time></trkpt><trkpt lat="45.780619249214226" lon="10.714085390078775"><ele>515.2</ele><time>2026-03-28T16:05:27Z</time></trkpt><trkpt lat="45.780697654217896" lon="10.71405118082629"><ele>522.0</ele><time>2026-03-28T16:05:28Z</time></trkpt><trkpt lat="45.780819293514384" lon="10.71404961857025"><ele>522.0</ele><time>2026-03-28T16:05:29Z</time></trkpt><trkpt lat="45.78094144938004" lon="10.714037651748646"><ele>522.0</ele><time>2026-03-28T16:05:30Z</time></trkpt><trkpt lat="45.78106628944499" lon="10.71400878647964"><ele>522.0</ele><time>2026-03-28T16:05:31Z</time></trkpt><trkpt lat="45.78119873873474" lon="10.713968111975914"><ele>522.0</ele><time>2026-03-28T16:05:32Z</time></trkpt><trkpt lat="45.78131256071869" lon="10.713935881012885"><ele>520.8333333333334</ele><time>2026-03-28T16:05:33Z</time></trkpt><trkpt lat="45.781388638284824" lon="10.713892601010224"><ele>519.6666666666666</ele><time>2026-03-28T16:05:34Z</time></trkpt><trkpt lat="45.781450082046824" lon="10.713812290360964"><ele>518.5</ele><time>2026-03-28T16:05:35Z</time></trkpt><trkpt lat="45.78150114211812" lon="10.71373181020797"><ele>517.3333333333333</ele><time>2026-03-28T16:05:36Z</time></trkpt><trkpt lat="45.781531799519364" lon="10.71363889409402"><ele>516.1666666666666</ele><time>2026-03-28T16:05:37Z</time></trkpt><trkpt lat="45.781485925732795" lon="10.713531087611488"><ele>515.0</ele><time>2026-03-28T16:05:39Z</time></trkpt><trkpt lat="45.781392590960536" lon="10.713622213231936"><ele>515.0</ele><time>2026-03-28T16:05:41Z</time></trkpt><trkpt lat="45.78136117198429" lon="10.71372089953606"><ele>515.0</ele><time>2026-03-28T16:05:42Z</time></trkpt><trkpt lat="45.78130717262026" lon="10.713789797674442"><ele>515.0</ele><time>2026-03-28T16:05:43Z</time></trkpt><trkpt lat="45.78123069629724" lon="10.713823606405008"><ele>515.0</ele><time>2026-03-28T16:05:44Z</time></trkpt><trkpt lat="45.78112841854166" lon="10.713817167770838"><ele>515.0</ele><time>2026-03-28T16:05:45Z</time></trkpt><trkpt lat="45.78102363546494" lon="10.713809693938"><ele>515.0</ele><time>2026-03-28T16:05:46Z</time></trkpt><trkpt lat="45.78093485153646" lon="10.713806752630214"><ele>516.4</ele><time>2026-03-28T16:05:47Z</time></trkpt><trkpt lat="45.78084299016408" lon="10.71378138909976"><ele>517.8</ele><time>2026-03-28T16:05:48Z</time></trkpt><trkpt lat="45.78075391082819" lon="10.713719788210158"><ele>519.2</ele><time>2026-03-28T16:05:49Z</time></trkpt><trkpt lat="45.7806808768334" lon="10.71365593440705"><ele>520.6</ele><time>2026-03-28T16:05:50Z</time></trkpt><trkpt lat="45.78053725680698" lon="10.71372000233123"><ele>522.0</ele><time>2026-03-28T16:05:52Z</time></trkpt><trkpt lat="45.780437148822436" lon="10.713817189720055"><ele>522.0</ele><time>2026-03-28T16:05:53Z</time></trkpt><trkpt lat="45.78032951376693" lon="10.713873637563962"><ele>522.0</ele><time>2026-03-28T16:05:54Z</time></trkpt><trkpt lat="45.78020878280822" lon="10.713931825018408"><ele>522.0</ele><time>2026-03-28T16:05:55Z</time></trkpt><trkpt lat="45.78008251582467" lon="10.71399476359724"><ele>522.0</ele><time>2026-03-28T16:05:56Z</time></trkpt><trkpt lat="45.779953358220396" lon="10.714066017457972"><ele>522.25</ele><time>2026-03-28T16:05:57Z</time></trkpt><trkpt lat="45.779826252418665" lon="10.714157714635437"><ele>522.5</ele><time>2026-03-28T16:05:58Z</time></trkpt><trkpt lat="45.77970833066124" lon="10.714249894043991"><ele>522.75</ele><time>2026-03-28T16:05:59Z</time></trkpt><trkpt lat="45.77961263695527" lon="10.714345361435095"><ele>523.0</ele><time>2026-03-28T16:06:00Z</time></trkpt><trkpt lat="45.77954524710432" lon="10.71448360567151"><ele>523.0</ele><time>2026-03-28T16:06:01Z</time></trkpt><trkpt lat="45.77949771770983" lon="10.714642730621966"><ele>523.0</ele><time>2026-03-28T16:06:02Z</time></trkpt><trkpt lat="45.779464392287004" lon="10.71480970670614"><ele>523.0</ele><time>2026-03-28T16:06:03Z</time></trkpt><trkpt lat="45.779450191931126" lon="10.714947050313151"><ele>523.0</ele><time>2026-03-28T16:06:04Z</time></trkpt><trkpt lat="45.77941330088481" lon="10.71504745412983"><ele>523.0</ele><time>2026-03-28T16:06:05.001Z</time></trkpt><trkpt lat="45.779345073814206" lon="10.715112756347855"><ele>528.5</ele><time>2026-03-28T16:06:06.001Z</time></trkpt><trkpt lat="45.77924351709153" lon="10.715150764225779"><ele>534.0</ele><time>2026-03-28T16:06:07.001Z</time></trkpt><trkpt lat="45.77912272516943" lon="10.715210118877438"><ele>539.5</ele><time>2026-03-28T16:06:08.001Z</time></trkpt><trkpt lat="45.778990388773614" lon="10.715295064476356"><ele>545.0</ele><time>2026-03-28T16:06:09.001Z</time></trkpt><trkpt lat="45.778849314890245" lon="10.715391539739128"><ele>545.0</ele><time>2026-03-28T16:06:10.001Z</time></trkpt><trkpt lat="45.778724177478665" lon="10.715498289396905"><ele>545.0</ele><time>2026-03-28T16:06:11.001Z</time></trkpt><trkpt lat="45.77863372853639" lon="10.715594778761771"><ele>545.0</ele><time>2026-03-28T16:06:12.001Z</time></trkpt><trkpt lat="45.77856465334212" lon="10.715660486403529"><ele>545.0</ele><time>2026-03-28T16:06:13.001Z</time></trkpt><trkpt lat="45.77847385499883" lon="10.715704946316281"><ele>545.0</ele><time>2026-03-28T16:06:14.001Z</time></trkpt><trkpt lat="45.778372862880005" lon="10.715705551482987"><ele>545.6666666666666</ele><time>2026-03-28T16:06:15.001Z</time></trkpt><trkpt lat="45.77829456284044" lon="10.71566093953681"><ele>546.3333333333333</ele><time>2026-03-28T16:06:16.001Z</time></trkpt><trkpt lat="45.7782611889033" lon="10.715565014895267"><ele>547.0</ele><time>2026-03-28T16:06:17.001Z</time></trkpt><trkpt lat="45.77825630497489" lon="10.71544783154366"><ele>547.6666666666666</ele><time>2026-03-28T16:06:18.001Z</time></trkpt><trkpt lat="45.778280596790744" lon="10.715314130248162"><ele>548.3333333333334</ele><time>2026-03-28T16:06:19Z</time></trkpt><trkpt lat="45.778301609580645" lon="10.715169539292685"><ele>549.0</ele><time>2026-03-28T16:06:20Z</time></trkpt><trkpt lat="45.77830046637654" lon="10.715041287985208"><ele>552.2</ele><time>2026-03-28T16:06:21Z</time></trkpt><trkpt lat="45.77826017496338" lon="10.714940745683762"><ele>555.4</ele><time>2026-03-28T16:06:22Z</time></trkpt><trkpt lat="45.778185037055486" lon="10.714862984096285"><ele>558.6</ele><time>2026-03-28T16:06:23Z</time></trkpt><trkpt lat="45.778088817403926" lon="10.714821805646435"><ele>561.8</ele><time>2026-03-28T16:06:24Z</time></trkpt><trkpt lat="45.77799339333861" lon="10.714852460192933"><ele>565.0</ele><time>2026-03-28T16:06:25Z</time></trkpt><trkpt lat="45.77790810060722" lon="10.714965728424179"><ele>565.0</ele><time>2026-03-28T16:06:26Z</time></trkpt><trkpt lat="45.777820257121185" lon="10.715074372648129"><ele>565.0</ele><time>2026-03-28T16:06:27Z</time></trkpt><trkpt lat="45.77771618512493" lon="10.71516219815094"><ele>565.0</ele><time>2026-03-28T16:06:28Z</time></trkpt><trkpt lat="45.7776196956318" lon="10.715196034709534"><ele>565.0</ele><time>2026-03-28T16:06:29Z</time></trkpt><trkpt lat="45.77754515669877" lon="10.715170505496086"><ele>565.0</ele><time>2026-03-28T16:06:30Z</time></trkpt><trkpt lat="45.777484700353504" lon="10.715090950468284"><ele>565.8</ele><time>2026-03-28T16:06:31Z</time></trkpt><trkpt lat="45.77743677498817" lon="10.714959216318142"><ele>566.6</ele><time>2026-03-28T16:06:32Z</time></trkpt><trkpt lat="45.77739652872042" lon="10.714814624635807"><ele>567.4</ele><time>2026-03-28T16:06:33Z</time></trkpt><trkpt lat="45.77735179833848" lon="10.714685174027563"><ele>568.2</ele><time>2026-03-28T16:06:34Z</time></trkpt><trkpt lat="45.77729109398419" lon="10.714637059461065"><ele>569.0</ele><time>2026-03-28T16:06:35Z</time></trkpt><trkpt lat="45.7772021699099" lon="10.714666848101862"><ele>569.0</ele><time>2026-03-28T16:06:36Z</time></trkpt><trkpt lat="45.77710992633236" lon="10.714734644504265"><ele>569.0</ele><time>2026-03-28T16:06:37Z</time></trkpt><trkpt lat="45.77700673614504" lon="10.714838640950788"><ele>569.0</ele><time>2026-03-28T16:06:38Z</time></trkpt><trkpt lat="45.77690003895443" lon="10.71494260580516"><ele>569.0</ele><time>2026-03-28T16:06:39Z</time></trkpt><trkpt lat="45.77678151489657" lon="10.715046240134779"><ele>569.25</ele><time>2026-03-28T16:06:40Z</time></trkpt><trkpt lat="45.77665116685996" lon="10.715160774807432"><ele>569.5</ele><time>2026-03-28T16:06:41Z</time></trkpt><trkpt lat="45.77652587036474" lon="10.715280846831257"><ele>569.75</ele><time>2026-03-28T16:06:42Z</time></trkpt><trkpt lat="45.776428015934414" lon="10.715414386643603"><ele>570.0</ele><time>2026-03-28T16:06:43Z</time></trkpt><trkpt lat="45.776350035286306" lon="10.715524167815499"><ele>570.0</ele><time>2026-03-28T16:06:44Z</time></trkpt><trkpt lat="45.776295395396275" lon="10.71560765330426"><ele>570.0</ele><time>2026-03-28T16:06:45Z</time></trkpt><trkpt lat="45.776262156175605" lon="10.715685125039279"><ele>570.0</ele><time>2026-03-28T16:06:46Z</time></trkpt><trkpt lat="45.776179004090075" lon="10.715714259507127"><ele>570.0</ele><time>2026-03-28T16:06:48Z</time></trkpt><trkpt lat="45.776179344162884" lon="10.715546091239718"><ele>570.0</ele><time>2026-03-28T16:06:50Z</time></trkpt><trkpt lat="45.776234408702294" lon="10.71548079616296"><ele>570.0</ele><time>2026-03-28T16:06:51Z</time></trkpt><trkpt lat="45.77631103597652" lon="10.715398023457812"><ele>570.0</ele><time>2026-03-28T16:06:52Z</time></trkpt><trkpt lat="45.776399617467426" lon="10.715294180126056"><ele>570.0</ele><time>2026-03-28T16:06:53Z</time></trkpt><trkpt lat="45.77647854935126" lon="10.715187586234276"><ele>570.0</ele><time>2026-03-28T16:06:54Z</time></trkpt><trkpt lat="45.77656006682616" lon="10.71506973325468"><ele>570.0</ele><time>2026-03-28T16:06:55Z</time></trkpt><trkpt lat="45.77665513638377" lon="10.714936474891125"><ele>569.6666666666666</ele><time>2026-03-28T16:06:56Z</time></trkpt><trkpt lat="45.776762212959646" lon="10.714790101824532"><ele>569.3333333333333</ele><time>2026-03-28T16:06:57Z</time></trkpt><trkpt lat="45.77686256806151" lon="10.714613053355558"><ele>569.0</ele><time>2026-03-28T16:06:58Z</time></trkpt><trkpt lat="45.77696809650836" lon="10.714449099913818"><ele>574.6</ele><time>2026-03-28T16:06:59Z</time></trkpt><trkpt lat="45.77705973692603" lon="10.714304295014717"><ele>580.2</ele><time>2026-03-28T16:07:00Z</time></trkpt><trkpt lat="45.77714010541273" lon="10.71419420404234"><ele>585.8000000000001</ele><time>2026-03-28T16:07:01Z</time></trkpt><trkpt lat="45.77716328221931" lon="10.71407592427963"><ele>591.4</ele><time>2026-03-28T16:07:02Z</time></trkpt><trkpt lat="45.777248662590296" lon="10.714069989039757"><ele>597.0</ele><time>2026-03-28T16:07:03Z</time></trkpt><trkpt lat="45.77733058706793" lon="10.71412950748987"><ele>597.0</ele><time>2026-03-28T16:07:04Z</time></trkpt><trkpt lat="45.77739308211352" lon="10.714166513579071"><ele>597.0</ele><time>2026-03-28T16:07:05Z</time></trkpt><trkpt lat="45.777456255909925" lon="10.714128800220877"><ele>597.0</ele><time>2026-03-28T16:07:06Z</time></trkpt><trkpt lat="45.77738872610077" lon="10.714010063225068"><ele>597.0</ele><time>2026-03-28T16:07:08Z</time></trkpt><trkpt lat="45.7772993138974" lon="10.713974646553686"><ele>597.0</ele><time>2026-03-28T16:07:09Z</time></trkpt><trkpt lat="45.77720740345235" lon="10.713984170646933"><ele>597.0</ele><time>2026-03-28T16:07:10Z</time></trkpt><trkpt lat="45.77711308346049" lon="10.713991677814336"><ele>597.0</ele><time>2026-03-28T16:07:11Z</time></trkpt><trkpt lat="45.777030248719996" lon="10.714044730759973"><ele>597.0</ele><time>2026-03-28T16:07:12Z</time></trkpt><trkpt lat="45.77696065137061" lon="10.714170850572415"><ele>597.0</ele><time>2026-03-28T16:07:13Z</time></trkpt><trkpt lat="45.776888767283644" lon="10.71430563536259"><ele>597.0</ele><time>2026-03-28T16:07:14Z</time></trkpt><trkpt lat="45.77679010763071" lon="10.714423510458946"><ele>594.5</ele><time>2026-03-28T16:07:15Z</time></trkpt><trkpt lat="45.77666889437446" lon="10.714543750758065"><ele>592.0</ele><time>2026-03-28T16:07:16Z</time></trkpt><trkpt lat="45.77654314771298" lon="10.714670347191541"><ele>589.5</ele><time>2026-03-28T16:07:17Z</time></trkpt><trkpt lat="45.77642523548549" lon="10.714793790325443"><ele>587.0</ele><time>2026-03-28T16:07:18Z</time></trkpt><trkpt lat="45.776298075295735" lon="10.714888806511523"><ele>587.0</ele><time>2026-03-28T16:07:19Z</time></trkpt><trkpt lat="45.77616785950421" lon="10.714976616028965"><ele>587.0</ele><time>2026-03-28T16:07:20Z</time></trkpt><trkpt lat="45.776043869155686" lon="10.71503429248511"><ele>587.0</ele><time>2026-03-28T16:07:21Z</time></trkpt><trkpt lat="45.77591558664569" lon="10.715079764900668"><ele>587.0</ele><time>2026-03-28T16:07:22Z</time></trkpt><trkpt lat="45.77577644707514" lon="10.715121415164635"><ele>598.6666666666666</ele><time>2026-03-28T16:07:23Z</time></trkpt><trkpt lat="45.775628317392986" lon="10.715142165949134"><ele>610.3333333333334</ele><time>2026-03-28T16:07:24Z</time></trkpt><trkpt lat="45.775453935678506" lon="10.715156150177407"><ele>622.0</ele><time>2026-03-28T16:07:25Z</time></trkpt><trkpt lat="45.775294747983395" lon="10.715170179039944"><ele>625.6666666666667</ele><time>2026-03-28T16:07:26Z</time></trkpt><trkpt lat="45.77513203463882" lon="10.715203635904597"><ele>629.3333333333334</ele><time>2026-03-28T16:07:27Z</time></trkpt><trkpt lat="45.77497384256895" lon="10.715256561481635"><ele>633.0</ele><time>2026-03-28T16:07:28Z</time></trkpt><trkpt lat="45.77484272911095" lon="10.71529662901261"><ele>630.5</ele><time>2026-03-28T16:07:29Z</time></trkpt><trkpt lat="45.77471164927296" lon="10.715315726947166"><ele>628.0</ele><time>2026-03-28T16:07:30Z</time></trkpt><trkpt lat="45.77457659958957" lon="10.715310277414805"><ele>625.5</ele><time>2026-03-28T16:07:31Z</time></trkpt><trkpt lat="45.77444035413711" lon="10.715274815257676"><ele>623.0</ele><time>2026-03-28T16:07:32Z</time></trkpt><trkpt lat="45.774331201310794" lon="10.715254872274578"><ele>623.0</ele><time>2026-03-28T16:07:33Z</time></trkpt><trkpt lat="45.77423396815376" lon="10.71533209066815"><ele>623.0</ele><time>2026-03-28T16:07:34Z</time></trkpt><trkpt lat="45.774117641146056" lon="10.715443677078428"><ele>623.0</ele><time>2026-03-28T16:07:35Z</time></trkpt><trkpt lat="45.77399026879724" lon="10.715543166421977"><ele>623.0</ele><time>2026-03-28T16:07:36Z</time></trkpt><trkpt lat="45.7738570776442" lon="10.715627492736557"><ele>623.0</ele><time>2026-03-28T16:07:37Z</time></trkpt><trkpt lat="45.773732881522214" lon="10.715697117147217"><ele>623.0</ele><time>2026-03-28T16:07:38Z</time></trkpt><trkpt lat="45.773618921299025" lon="10.715737549295946"><ele>623.0</ele><time>2026-03-28T16:07:39Z</time></trkpt><trkpt lat="45.773505687911644" lon="10.715759135089076"><ele>623.0</ele><time>2026-03-28T16:07:40Z</time></trkpt><trkpt lat="45.77338610859592" lon="10.715760089334946"><ele>625.0</ele><time>2026-03-28T16:07:41Z</time></trkpt><trkpt lat="45.773253379694395" lon="10.715745082522853"><ele>627.0</ele><time>2026-03-28T16:07:42Z</time></trkpt><trkpt lat="45.77312505486019" lon="10.715703468584383"><ele>629.0</ele><time>2026-03-28T16:07:43Z</time></trkpt><trkpt lat="45.77302220661136" lon="10.715645763106961"><ele>631.0</ele><time>2026-03-28T16:07:44Z</time></trkpt><trkpt lat="45.77294121177986" lon="10.715582760923912"><ele>631.0</ele><time>2026-03-28T16:07:45Z</time></trkpt><trkpt lat="45.77286253689403" lon="10.715499378290517"><ele>631.0</ele><time>2026-03-28T16:07:46Z</time></trkpt><trkpt lat="45.772782328114054" lon="10.715386515046436"><ele>631.0</ele><time>2026-03-28T16:07:47Z</time></trkpt><trkpt lat="45.77270282893955" lon="10.71524887545398"><ele>631.0</ele><time>2026-03-28T16:07:48Z</time></trkpt><trkpt lat="45.77261027207064" lon="10.715098095534458"><ele>630.25</ele><time>2026-03-28T16:07:49Z</time></trkpt><trkpt lat="45.77249362031754" lon="10.71495872004138"><ele>629.5</ele><time>2026-03-28T16:07:50Z</time></trkpt><trkpt lat="45.77238130564669" lon="10.714824667304823"><ele>628.75</ele><time>2026-03-28T16:07:51Z</time></trkpt><trkpt lat="45.77228064862154" lon="10.71468781280127"><ele>628.0</ele><time>2026-03-28T16:07:52Z</time></trkpt><trkpt lat="45.77219013457891" lon="10.71454386209713"><ele>632.75</ele><time>2026-03-28T16:07:53Z</time></trkpt><trkpt lat="45.7720969498932" lon="10.714388243056145"><ele>637.5</ele><time>2026-03-28T16:07:54Z</time></trkpt><trkpt lat="45.77200624632942" lon="10.71423068964038"><ele>642.25</ele><time>2026-03-28T16:07:55Z</time></trkpt><trkpt lat="45.77192310748656" lon="10.714072329450115"><ele>647.0</ele><time>2026-03-28T16:07:56Z</time></trkpt><trkpt lat="45.77184195269529" lon="10.713925354256643"><ele>643.75</ele><time>2026-03-28T16:07:57Z</time></trkpt><trkpt lat="45.771728336974746" lon="10.713811198761244"><ele>640.5</ele><time>2026-03-28T16:07:58Z</time></trkpt><trkpt lat="45.77163854330186" lon="10.71367965522158"><ele>637.25</ele><time>2026-03-28T16:07:59Z</time></trkpt><trkpt lat="45.77158599480821" lon="10.713526294019992"><ele>634.0</ele><time>2026-03-28T16:08:00Z</time></trkpt><trkpt lat="45.77149529312552" lon="10.713414936009146"><ele>634.0</ele><time>2026-03-28T16:08:01Z</time></trkpt><trkpt lat="45.771409274601325" lon="10.713343236449731"><ele>634.0</ele><time>2026-03-28T16:08:02Z</time></trkpt><trkpt lat="45.7713184608591" lon="10.71326717349459"><ele>634.0</ele><time>2026-03-28T16:08:03Z</time></trkpt><trkpt lat="45.77124787130396" lon="10.713153999652782"><ele>634.0</ele><time>2026-03-28T16:08:04Z</time></trkpt><trkpt lat="45.77118942814066" lon="10.713036616814437"><ele>634.0</ele><time>2026-03-28T16:08:05Z</time></trkpt><trkpt lat="45.771102537413576" lon="10.712930860580322"><ele>629.25</ele><time>2026-03-28T16:08:06Z</time></trkpt><trkpt lat="45.77098578843337" lon="10.712823028754173"><ele>624.5</ele><time>2026-03-28T16:08:07Z</time></trkpt><trkpt lat="45.770867103357645" lon="10.712706884258003"><ele>619.75</ele><time>2026-03-28T16:08:08Z</time></trkpt><trkpt lat="45.77074431012629" lon="10.712602959854758"><ele>615.0</ele><time>2026-03-28T16:08:09Z</time></trkpt><trkpt lat="45.77063896120037" lon="10.712510857214648"><ele>615.0</ele><time>2026-03-28T16:08:10Z</time></trkpt><trkpt lat="45.770543748080236" lon="10.712436030264982"><ele>615.0</ele><time>2026-03-28T16:08:11Z</time></trkpt><trkpt lat="45.77047099717206" lon="10.71235862115179"><ele>615.0</ele><time>2026-03-28T16:08:12Z</time></trkpt><trkpt lat="45.77043182516839" lon="10.71225152606236"><ele>615.0</ele><time>2026-03-28T16:08:13Z</time></trkpt><trkpt lat="45.77040617248003" lon="10.712099110830803"><ele>615.0</ele><time>2026-03-28T16:08:14Z</time></trkpt><trkpt lat="45.77038064738646" lon="10.711919394826813"><ele>620.25</ele><time>2026-03-28T16:08:15Z</time></trkpt><trkpt lat="45.77034586157014" lon="10.711751424330775"><ele>625.5</ele><time>2026-03-28T16:08:16Z</time></trkpt><trkpt lat="45.77029587364479" lon="10.711579810468864"><ele>630.75</ele><time>2026-03-28T16:08:17Z</time></trkpt><trkpt lat="45.77024682760181" lon="10.711412756860325"><ele>636.0</ele><time>2026-03-28T16:08:18Z</time></trkpt><trkpt lat="45.77020971654212" lon="10.711255181818677"><ele>630.1666666666666</ele><time>2026-03-28T16:08:19Z</time></trkpt><trkpt lat="45.77018901435266" lon="10.711120627042133"><ele>624.3333333333334</ele><time>2026-03-28T16:08:20Z</time></trkpt><trkpt lat="45.7701870807783" lon="10.711008346511623"><ele>618.5</ele><time>2026-03-28T16:08:21Z</time></trkpt><trkpt lat="45.77016324106102" lon="10.710903801353401"><ele>612.6666666666667</ele><time>2026-03-28T16:08:23Z</time></trkpt><trkpt lat="45.770077046830124" lon="10.711007315081508"><ele>606.8333333333334</ele><time>2026-03-28T16:08:25Z</time></trkpt><trkpt lat="45.770084070345675" lon="10.711114031349652"><ele>601.0</ele><time>2026-03-28T16:08:26Z</time></trkpt><trkpt lat="45.77010875760572" lon="10.711259922632669"><ele>599.0</ele><time>2026-03-28T16:08:27Z</time></trkpt><trkpt lat="45.77014372599721" lon="10.711422685206623"><ele>597.0</ele><time>2026-03-28T16:08:28Z</time></trkpt><trkpt lat="45.77018183538227" lon="10.711611013438167"><ele>595.0</ele><time>2026-03-28T16:08:29Z</time></trkpt><trkpt lat="45.770204541597245" lon="10.711802920564145"><ele>593.0</ele><time>2026-03-28T16:08:30Z</time></trkpt><trkpt lat="45.770181836331055" lon="10.711988484782482"><ele>591.8</ele><time>2026-03-28T16:08:31Z</time></trkpt><trkpt lat="45.77016062897481" lon="10.71215326840732"><ele>590.5999999999999</ele><time>2026-03-28T16:08:32Z</time></trkpt><trkpt lat="45.77015006588828" lon="10.71228610577707"><ele>589.4000000000001</ele><time>2026-03-28T16:08:33Z</time></trkpt><trkpt lat="45.770145540693875" lon="10.712422403981115"><ele>588.2</ele><time>2026-03-28T16:08:34Z</time></trkpt><trkpt lat="45.770159279618014" lon="10.712544334678048"><ele>587.0</ele><time>2026-03-28T16:08:35Z</time></trkpt><trkpt lat="45.77016878400887" lon="10.712667555813148"><ele>587.0</ele><time>2026-03-28T16:08:36Z</time></trkpt><trkpt lat="45.77013504663438" lon="10.712779108908606"><ele>587.0</ele><time>2026-03-28T16:08:37Z</time></trkpt><trkpt lat="45.77006651861739" lon="10.712840774896142"><ele>587.0</ele><time>2026-03-28T16:08:38Z</time></trkpt><trkpt lat="45.76997413751538" lon="10.712813943179322"><ele>587.0</ele><time>2026-03-28T16:08:39Z</time></trkpt><trkpt lat="45.76989651124771" lon="10.71274739184519"><ele>587.0</ele><time>2026-03-28T16:08:40Z</time></trkpt><trkpt lat="45.76985412049818" lon="10.712613465827687"><ele>587.0</ele><time>2026-03-28T16:08:41Z</time></trkpt><trkpt lat="45.769834671980554" lon="10.712454914652014"><ele>587.0</ele><time>2026-03-28T16:08:42Z</time></trkpt><trkpt lat="45.76983340969222" lon="10.712267528928763"><ele>587.0</ele><time>2026-03-28T16:08:43Z</time></trkpt><trkpt lat="45.76982801453901" lon="10.712057023240963"><ele>587.0</ele><time>2026-03-28T16:08:44Z</time></trkpt><trkpt lat="45.76982463965377" lon="10.711870575352014"><ele>588.5</ele><time>2026-03-28T16:08:45Z</time></trkpt><trkpt lat="45.769828564396676" lon="10.711681359566436"><ele>590.0</ele><time>2026-03-28T16:08:46Z</time></trkpt><trkpt lat="45.769827516367585" lon="10.711473307904107"><ele>591.5</ele><time>2026-03-28T16:08:47Z</time></trkpt><trkpt lat="45.769802314746045" lon="10.711261988499476"><ele>593.0</ele><time>2026-03-28T16:08:48Z</time></trkpt><trkpt lat="45.769767253807316" lon="10.711031934294132"><ele>595.6666666666666</ele><time>2026-03-28T16:08:49Z</time></trkpt><trkpt lat="45.76973666130629" lon="10.710778875828336"><ele>598.3333333333334</ele><time>2026-03-28T16:08:50Z</time></trkpt><trkpt lat="45.76974512977853" lon="10.710527652827418"><ele>601.0</ele><time>2026-03-28T16:08:51Z</time></trkpt><trkpt lat="45.76978157111555" lon="10.710348421407907"><ele>602.4</ele><time>2026-03-28T16:08:52Z</time></trkpt><trkpt lat="45.769828850412544" lon="10.710219581108063"><ele>603.8</ele><time>2026-03-28T16:08:53Z</time></trkpt><trkpt lat="45.769857934074" lon="10.710108228226865"><ele>605.1999999999999</ele><time>2026-03-28T16:08:54Z</time></trkpt><trkpt lat="45.76983437433836" lon="10.709986053321355"><ele>606.6</ele><time>2026-03-28T16:08:56Z</time></trkpt><trkpt lat="45.769724819376826" lon="10.710015491911248"><ele>608.0</ele><time>2026-03-28T16:08:58Z</time></trkpt><trkpt lat="45.769698858857176" lon="10.71010895788252"><ele>606.6</ele><time>2026-03-28T16:08:59Z</time></trkpt><trkpt lat="45.76968009058082" lon="10.710257553856001"><ele>605.1999999999999</ele><time>2026-03-28T16:09:00Z</time></trkpt><trkpt lat="45.76963316634156" lon="10.71039611269881"><ele>603.8</ele><time>2026-03-28T16:09:01Z</time></trkpt><trkpt lat="45.769565689381515" lon="10.71052488726481"><ele>602.4</ele><time>2026-03-28T16:09:02Z</time></trkpt><trkpt lat="45.76952671176721" lon="10.710659942824675"><ele>601.0</ele><time>2026-03-28T16:09:03Z</time></trkpt><trkpt lat="45.769491351757395" lon="10.71083036285988"><ele>601.0</ele><time>2026-03-28T16:09:04Z</time></trkpt><trkpt lat="45.76945455313842" lon="10.711006881097832"><ele>601.0</ele><time>2026-03-28T16:09:05Z</time></trkpt><trkpt lat="45.76943585801462" lon="10.711180759390631"><ele>601.0</ele><time>2026-03-28T16:09:06Z</time></trkpt><trkpt lat="45.76944201738324" lon="10.71135031168085"><ele>601.0</ele><time>2026-03-28T16:09:07Z</time></trkpt><trkpt lat="45.769467656978115" lon="10.711530650483946"><ele>599.0</ele><time>2026-03-28T16:09:08Z</time></trkpt><trkpt lat="45.769489205221205" lon="10.711735693156363"><ele>597.0</ele><time>2026-03-28T16:09:09Z</time></trkpt><trkpt lat="45.76947987472177" lon="10.711923115233615"><ele>595.0</ele><time>2026-03-28T16:09:10Z</time></trkpt><trkpt lat="45.76944057751685" lon="10.712063819332965"><ele>593.0</ele><time>2026-03-28T16:09:11Z</time></trkpt><trkpt lat="45.76938951004861" lon="10.712165396843261"><ele>604.2</ele><time>2026-03-28T16:09:12Z</time></trkpt><trkpt lat="45.76933308006706" lon="10.712274466085812"><ele>615.4</ele><time>2026-03-28T16:09:13Z</time></trkpt><trkpt lat="45.76930959624565" lon="10.712405655943693"><ele>626.6</ele><time>2026-03-28T16:09:14Z</time></trkpt><trkpt lat="45.76930757182096" lon="10.712542714497046"><ele>637.8000000000001</ele><time>2026-03-28T16:09:15Z</time></trkpt><trkpt lat="45.76931412601616" lon="10.712669790428121"><ele>649.0</ele><time>2026-03-28T16:09:16Z</time></trkpt><trkpt lat="45.76935403805597" lon="10.712771141381243"><ele>636.8000000000001</ele><time>2026-03-28T16:09:17Z</time></trkpt><trkpt lat="45.76941792626178" lon="10.712828117904026"><ele>624.6</ele><time>2026-03-28T16:09:18Z</time></trkpt><trkpt lat="45.76951808573021" lon="10.71286716799119"><ele>612.4</ele><time>2026-03-28T16:09:19Z</time></trkpt><trkpt lat="45.769570755383455" lon="10.712964844334289"><ele>600.2</ele><time>2026-03-28T16:09:20Z</time></trkpt><trkpt lat="45.76957010656658" lon="10.71310202684336"><ele>588.0</ele><time>2026-03-28T16:09:21Z</time></trkpt><trkpt lat="45.769554873446765" lon="10.713251549098494"><ele>588.0</ele><time>2026-03-28T16:09:22Z</time></trkpt><trkpt lat="45.76953750030597" lon="10.713400640308421"><ele>588.0</ele><time>2026-03-28T16:09:23Z</time></trkpt><trkpt lat="45.769524552339725" lon="10.713545474838233"><ele>588.0</ele><time>2026-03-28T16:09:24Z</time></trkpt><trkpt lat="45.769545834474066" lon="10.71368332092316"><ele>588.0</ele><time>2026-03-28T16:09:25Z</time></trkpt><trkpt lat="45.769598180504346" lon="10.71379754307348"><ele>588.0</ele><time>2026-03-28T16:09:26Z</time></trkpt><trkpt lat="45.769668805700015" lon="10.713934787827093"><ele>592.0</ele><time>2026-03-28T16:09:27Z</time></trkpt><trkpt lat="45.769719843497015" lon="10.714077191352107"><ele>596.0</ele><time>2026-03-28T16:09:28Z</time></trkpt><trkpt lat="45.76974194632028" lon="10.714259317324327"><ele>600.0</ele><time>2026-03-28T16:09:29Z</time></trkpt><trkpt lat="45.769736584678114" lon="10.714456594112324"><ele>604.0</ele><time>2026-03-28T16:09:30Z</time></trkpt><trkpt lat="45.769745661189816" lon="10.71465076626731"><ele>607.75</ele><time>2026-03-28T16:09:31Z</time></trkpt><trkpt lat="45.769753582040586" lon="10.714827231236875"><ele>611.5</ele><time>2026-03-28T16:09:32Z</time></trkpt><trkpt lat="45.769722080611714" lon="10.714997483840623"><ele>615.25</ele><time>2026-03-28T16:09:33Z</time></trkpt><trkpt lat="45.76967907835823" lon="10.715191882268378"><ele>619.0</ele><time>2026-03-28T16:09:34Z</time></trkpt><trkpt lat="45.76964873731517" lon="10.715408763223971"><ele>621.25</ele><time>2026-03-28T16:09:35Z</time></trkpt><trkpt lat="45.76961609106647" lon="10.715621322149588"><ele>623.5</ele><time>2026-03-28T16:09:36Z</time></trkpt><trkpt lat="45.769606326075326" lon="10.715816968975718"><ele>625.75</ele><time>2026-03-28T16:09:37Z</time></trkpt><trkpt lat="45.76961034647507" lon="10.716008259122937"><ele>628.0</ele><time>2026-03-28T16:09:38Z</time></trkpt><trkpt lat="45.76962468469037" lon="10.716168279662591"><ele>630.0</ele><time>2026-03-28T16:09:39Z</time></trkpt><trkpt lat="45.769628120867615" lon="10.716299774319701"><ele>632.0</ele><time>2026-03-28T16:09:40Z</time></trkpt><trkpt lat="45.7696273680115" lon="10.716409654824858"><ele>634.0</ele><time>2026-03-28T16:09:41Z</time></trkpt><trkpt lat="45.76960723520515" lon="10.716502059359389"><ele>636.0</ele><time>2026-03-28T16:09:42Z</time></trkpt><trkpt lat="45.76955510840227" lon="10.7165698065548"><ele>638.0</ele><time>2026-03-28T16:09:43Z</time></trkpt><trkpt lat="45.76948975040452" lon="10.716621400741731"><ele>640.0</ele><time>2026-03-28T16:09:44Z</time></trkpt><trkpt lat="45.769389030014956" lon="10.71661620840139"><ele>641.5</ele><time>2026-03-28T16:09:45Z</time></trkpt><trkpt lat="45.76928052480523" lon="10.716621116262148"><ele>643.0</ele><time>2026-03-28T16:09:46Z</time></trkpt><trkpt lat="45.769168324284394" lon="10.716670691366776"><ele>644.5</ele><time>2026-03-28T16:09:47Z</time></trkpt><trkpt lat="45.76905047622466" lon="10.71674321361142"><ele>646.0</ele><time>2026-03-28T16:09:48Z</time></trkpt><trkpt lat="45.768931763984966" lon="10.716828828191433"><ele>643.0</ele><time>2026-03-28T16:09:49Z</time></trkpt><trkpt lat="45.76880674075305" lon="10.716932217374783"><ele>640.0</ele><time>2026-03-28T16:09:49.999Z</time></trkpt><trkpt lat="45.76867367424624" lon="10.716998900273051"><ele>637.0</ele><time>2026-03-28T16:09:50.999Z</time></trkpt><trkpt lat="45.7685670180161" lon="10.717092904317504"><ele>634.0</ele><time>2026-03-28T16:09:51.999Z</time></trkpt><trkpt lat="45.76845647426732" lon="10.717178138819747"><ele>634.0</ele><time>2026-03-28T16:09:52.999Z</time></trkpt><trkpt lat="45.76832643929115" lon="10.717247104275518"><ele>634.0</ele><time>2026-03-28T16:09:53.999Z</time></trkpt><trkpt lat="45.76818535113125" lon="10.717307390599425"><ele>634.0</ele><time>2026-03-28T16:09:54.999Z</time></trkpt><trkpt lat="45.768031185029436" lon="10.717355545683438"><ele>634.0</ele><time>2026-03-28T16:09:55.999Z</time></trkpt><trkpt lat="45.76787452838388" lon="10.717402974185807"><ele>634.0</ele><time>2026-03-28T16:09:56.999Z</time></trkpt><trkpt lat="45.76773059409393" lon="10.717461382477897"><ele>634.0</ele><time>2026-03-28T16:09:57.999Z</time></trkpt><trkpt lat="45.767613315227656" lon="10.717507740085656"><ele>634.0</ele><time>2026-03-28T16:09:58.999Z</time></trkpt><trkpt lat="45.767494579757425" lon="10.717542954723097"><ele>634.0</ele><time>2026-03-28T16:09:59.999Z</time></trkpt><trkpt lat="45.76736136967333" lon="10.717565531324617"><ele>636.25</ele><time>2026-03-28T16:10:00.999Z</time></trkpt><trkpt lat="45.76723025461145" lon="10.71758606930557"><ele>638.5</ele><time>2026-03-28T16:10:01.999Z</time></trkpt><trkpt lat="45.76708155850131" lon="10.717606338219595"><ele>640.75</ele><time>2026-03-28T16:10:02.999Z</time></trkpt><trkpt lat="45.76693153597227" lon="10.717622615534534"><ele>643.0</ele><time>2026-03-28T16:10:03.999Z</time></trkpt><trkpt lat="45.766780424114366" lon="10.717630918913068"><ele>644.75</ele><time>2026-03-28T16:10:04.999Z</time></trkpt><trkpt lat="45.766638340142336" lon="10.717626420522064"><ele>646.5</ele><time>2026-03-28T16:10:05.999Z</time></trkpt><trkpt lat="45.76649827895093" lon="10.717625073951096"><ele>648.25</ele><time>2026-03-28T16:10:06.999Z</time></trkpt><trkpt lat="45.76636348450445" lon="10.71763565552431"><ele>650.0</ele><time>2026-03-28T16:10:07.999Z</time></trkpt><trkpt lat="45.76622951369513" lon="10.717669942503852"><ele>650.0</ele><time>2026-03-28T16:10:08.999Z</time></trkpt><trkpt lat="45.76611609682751" lon="10.717719958741037"><ele>650.0</ele><time>2026-03-28T16:10:09.999Z</time></trkpt><trkpt lat="45.766017889767724" lon="10.71774728614787"><ele>650.0</ele><time>2026-03-28T16:10:10.999Z</time></trkpt><trkpt lat="45.765925352898776" lon="10.717740641244909"><ele>650.0</ele><time>2026-03-28T16:10:11.999Z</time></trkpt><trkpt lat="45.76582907737465" lon="10.717702245396"><ele>650.0</ele><time>2026-03-28T16:10:12.999Z</time></trkpt><trkpt lat="45.765711539405494" lon="10.717653555076295"><ele>650.0</ele><time>2026-03-28T16:10:13.999Z</time></trkpt><trkpt lat="45.7655728552519" lon="10.717617192995778"><ele>650.0</ele><time>2026-03-28T16:10:14.999Z</time></trkpt><trkpt lat="45.76542321079803" lon="10.717637131227619"><ele>650.0</ele><time>2026-03-28T16:10:15.999Z</time></trkpt><trkpt lat="45.76526462639285" lon="10.717652574820278"><ele>652.0</ele><time>2026-03-28T16:10:17Z</time></trkpt><trkpt lat="45.765100129217004" lon="10.717654706791198"><ele>654.0</ele><time>2026-03-28T16:10:18Z</time></trkpt><trkpt lat="45.764930797548224" lon="10.717644434628358"><ele>656.0</ele><time>2026-03-28T16:10:19Z</time></trkpt><trkpt lat="45.76479292189171" lon="10.717622036349399"><ele>656.0</ele><time>2026-03-28T16:10:20Z</time></trkpt><trkpt lat="45.76467557822638" lon="10.717590450762934"><ele>656.0</ele><time>2026-03-28T16:10:21Z</time></trkpt><trkpt lat="45.76458211128582" lon="10.717574759014633"><ele>656.0</ele><time>2026-03-28T16:10:22Z</time></trkpt><trkpt lat="45.76450542782544" lon="10.717594998827074"><ele>656.0</ele><time>2026-03-28T16:10:23Z</time></trkpt><trkpt lat="45.76442523860122" lon="10.717681087691863"><ele>656.0</ele><time>2026-03-28T16:10:24Z</time></trkpt><trkpt lat="45.76439568911744" lon="10.717838970055464"><ele>653.5</ele><time>2026-03-28T16:10:25Z</time></trkpt><trkpt lat="45.76435499934574" lon="10.717991190879038"><ele>651.0</ele><time>2026-03-28T16:10:26Z</time></trkpt><trkpt lat="45.764258004910644" lon="10.71812207452533"><ele>648.5</ele><time>2026-03-28T16:10:27Z</time></trkpt><trkpt lat="45.76414820339766" lon="10.718284053230784"><ele>646.0</ele><time>2026-03-28T16:10:28Z</time></trkpt><trkpt lat="45.764029658446134" lon="10.718446913238386"><ele>637.0</ele><time>2026-03-28T16:10:29Z</time></trkpt><trkpt lat="45.763900966851615" lon="10.718602361768847"><ele>628.0</ele><time>2026-03-28T16:10:30Z</time></trkpt><trkpt lat="45.76376871943944" lon="10.718734252890645"><ele>619.0</ele><time>2026-03-28T16:10:31Z</time></trkpt><trkpt lat="45.76367831386712" lon="10.718901177772418"><ele>619.0</ele><time>2026-03-28T16:10:32Z</time></trkpt><trkpt lat="45.76360260415389" lon="10.719056731033094"><ele>619.0</ele><time>2026-03-28T16:10:33Z</time></trkpt><trkpt lat="45.76351695419539" lon="10.719181915259085"><ele>619.0</ele><time>2026-03-28T16:10:34Z</time></trkpt><trkpt lat="45.763436363896474" lon="10.719302593483812"><ele>619.0</ele><time>2026-03-28T16:10:35Z</time></trkpt><trkpt lat="45.76334438846734" lon="10.719407900117064"><ele>620.0</ele><time>2026-03-28T16:10:36Z</time></trkpt><trkpt lat="45.7632256413404" lon="10.71950588434241"><ele>621.0</ele><time>2026-03-28T16:10:37Z</time></trkpt><trkpt lat="45.76310230091525" lon="10.71958576572904"><ele>622.0</ele><time>2026-03-28T16:10:38Z</time></trkpt><trkpt lat="45.762984666552654" lon="10.719635649458283"><ele>623.0</ele><time>2026-03-28T16:10:39Z</time></trkpt><trkpt lat="45.76285288608115" lon="10.719684912050528"><ele>623.0</ele><time>2026-03-28T16:10:40Z</time></trkpt><trkpt lat="45.762713028707914" lon="10.719743009189022"><ele>623.0</ele><time>2026-03-28T16:10:41Z</time></trkpt><trkpt lat="45.76255672333188" lon="10.719824512232323"><ele>623.0</ele><time>2026-03-28T16:10:42Z</time></trkpt><trkpt lat="45.76241837029159" lon="10.719913828991835"><ele>626.5</ele><time>2026-03-28T16:10:43Z</time></trkpt><trkpt lat="45.762296232578976" lon="10.719986798272876"><ele>630.0</ele><time>2026-03-28T16:10:44Z</time></trkpt><trkpt lat="45.762180915261816" lon="10.720084931534277"><ele>633.5</ele><time>2026-03-28T16:10:45Z</time></trkpt><trkpt lat="45.76206066236938" lon="10.720105152997089"><ele>637.0</ele><time>2026-03-28T16:10:46Z</time></trkpt><trkpt lat="45.76193588687211" lon="10.720084137275165"><ele>633.75</ele><time>2026-03-28T16:10:47Z</time></trkpt><trkpt lat="45.761812196761035" lon="10.720110620490857"><ele>630.5</ele><time>2026-03-28T16:10:48Z</time></trkpt><trkpt lat="45.761710507347544" lon="10.720190652888347"><ele>627.25</ele><time>2026-03-28T16:10:49Z</time></trkpt><trkpt lat="45.761630969586136" lon="10.720301413422495"><ele>624.0</ele><time>2026-03-28T16:10:50Z</time></trkpt><trkpt lat="45.7615432853881" lon="10.720395263606012"><ele>624.0</ele><time>2026-03-28T16:10:51Z</time></trkpt><trkpt lat="45.761419491864785" lon="10.720396367495816"><ele>624.0</ele><time>2026-03-28T16:10:52Z</time></trkpt><trkpt lat="45.76129399633867" lon="10.720425570999126"><ele>624.0</ele><time>2026-03-28T16:10:53Z</time></trkpt><trkpt lat="45.76117276421706" lon="10.720423091203125"><ele>624.0</ele><time>2026-03-28T16:10:54Z</time></trkpt><trkpt lat="45.76105235154309" lon="10.72039452268419"><ele>625.5</ele><time>2026-03-28T16:10:55Z</time></trkpt><trkpt lat="45.76091974077293" lon="10.72038816539854"><ele>627.0</ele><time>2026-03-28T16:10:56Z</time></trkpt><trkpt lat="45.76077686442759" lon="10.720382494513597"><ele>628.5</ele><time>2026-03-28T16:10:57Z</time></trkpt><trkpt lat="45.76062720664621" lon="10.720401205678277"><ele>630.0</ele><time>2026-03-28T16:10:58Z</time></trkpt><trkpt lat="45.760466461453454" lon="10.720443048292047"><ele>630.0</ele><time>2026-03-28T16:10:59Z</time></trkpt><trkpt lat="45.760315035476665" lon="10.720503444411898"><ele>630.0</ele><time>2026-03-28T16:11:00Z</time></trkpt><trkpt lat="45.76019719425993" lon="10.720536951710757"><ele>630.0</ele><time>2026-03-28T16:11:01Z</time></trkpt><trkpt lat="45.760082999541844" lon="10.720516777674511"><ele>630.0</ele><time>2026-03-28T16:11:02Z</time></trkpt><trkpt lat="45.75995845004105" lon="10.720453580190846"><ele>629.8</ele><time>2026-03-28T16:11:03Z</time></trkpt><trkpt lat="45.75982672617928" lon="10.7203792846909"><ele>629.6</ele><time>2026-03-28T16:11:04Z</time></trkpt><trkpt lat="45.759709366307455" lon="10.720327868876199"><ele>629.4</ele><time>2026-03-28T16:11:05Z</time></trkpt><trkpt lat="45.75962259070212" lon="10.720297943804189"><ele>629.2</ele><time>2026-03-28T16:11:06Z</time></trkpt><trkpt lat="45.759541254614575" lon="10.720329360235757"><ele>629.0</ele><time>2026-03-28T16:11:07Z</time></trkpt><trkpt lat="45.75946052794756" lon="10.720389146771216"><ele>629.0</ele><time>2026-03-28T16:11:08Z</time></trkpt><trkpt lat="45.75943553750454" lon="10.72055870197414"><ele>629.0</ele><time>2026-03-28T16:11:09Z</time></trkpt><trkpt lat="45.75942513633092" lon="10.720718438492405"><ele>629.0</ele><time>2026-03-28T16:11:10Z</time></trkpt><trkpt lat="45.75942197113526" lon="10.720899202595813"><ele>629.0</ele><time>2026-03-28T16:11:11Z</time></trkpt><trkpt lat="45.75937330489733" lon="10.721034256988261"><ele>627.8</ele><time>2026-03-28T16:11:12Z</time></trkpt><trkpt lat="45.759305469452734" lon="10.721149544220037"><ele>626.5999999999999</ele><time>2026-03-28T16:11:13Z</time></trkpt><trkpt lat="45.75922555488887" lon="10.721251639012126"><ele>625.4</ele><time>2026-03-28T16:11:14Z</time></trkpt><trkpt lat="45.7591270511785" lon="10.721357582299994"><ele>624.1999999999999</ele><time>2026-03-28T16:11:15Z</time></trkpt><trkpt lat="45.75905516844587" lon="10.721449897899307"><ele>623.0</ele><time>2026-03-28T16:11:16Z</time></trkpt><trkpt lat="45.75898468464695" lon="10.72155006604548"><ele>623.0</ele><time>2026-03-28T16:11:17Z</time></trkpt><trkpt lat="45.75893568636521" lon="10.72169769287637"><ele>623.0</ele><time>2026-03-28T16:11:18Z</time></trkpt><trkpt lat="45.75891486697896" lon="10.72188624853565"><ele>623.0</ele><time>2026-03-28T16:11:19Z</time></trkpt><trkpt lat="45.75890847861464" lon="10.722108525246908"><ele>623.0</ele><time>2026-03-28T16:11:20Z</time></trkpt><trkpt lat="45.75888456232003" lon="10.722339006110566"><ele>619.0</ele><time>2026-03-28T16:11:21Z</time></trkpt><trkpt lat="45.75881823631815" lon="10.722562023690195"><ele>615.0</ele><time>2026-03-28T16:11:22Z</time></trkpt><trkpt lat="45.758763660634415" lon="10.722795949079538"><ele>611.0</ele><time>2026-03-28T16:11:23Z</time></trkpt><trkpt lat="45.75870183408716" lon="10.723017252601098"><ele>609.3333333333333</ele><time>2026-03-28T16:11:24Z</time></trkpt><trkpt lat="45.75862580357801" lon="10.723252071199845"><ele>607.6666666666666</ele><time>2026-03-28T16:11:25Z</time></trkpt><trkpt lat="45.75854456808025" lon="10.723481118235643"><ele>606.0</ele><time>2026-03-28T16:11:26Z</time></trkpt><trkpt lat="45.75846188537461" lon="10.723688042999777"><ele>606.0</ele><time>2026-03-28T16:11:27Z</time></trkpt><trkpt lat="45.75836715366026" lon="10.723890852562217"><ele>606.0</ele><time>2026-03-28T16:11:28Z</time></trkpt><trkpt lat="45.75825737514276" lon="10.724087824888656"><ele>606.0</ele><time>2026-03-28T16:11:29Z</time></trkpt><trkpt lat="45.75814730839924" lon="10.724271857996115"><ele>601.3333333333334</ele><time>2026-03-28T16:11:30Z</time></trkpt><trkpt lat="45.758036030614626" lon="10.724448473254334"><ele>596.6666666666667</ele><time>2026-03-28T16:11:31Z</time></trkpt><trkpt lat="45.75791902071482" lon="10.724610334832471"><ele>592.0</ele><time>2026-03-28T16:11:32Z</time></trkpt><trkpt lat="45.75778487739877" lon="10.724749815935697"><ele>594.6666666666667</ele><time>2026-03-28T16:11:33Z</time></trkpt><trkpt lat="45.75765383154745" lon="10.72487940706095"><ele>597.3333333333334</ele><time>2026-03-28T16:11:34Z</time></trkpt><trkpt lat="45.757525032717005" lon="10.724999131459011"><ele>600.0</ele><time>2026-03-28T16:11:35Z</time></trkpt><trkpt lat="45.75740305812383" lon="10.725100023194798"><ele>600.0</ele><time>2026-03-28T16:11:36Z</time></trkpt><trkpt lat="45.757276639774" lon="10.725189175160892"><ele>600.0</ele><time>2026-03-28T16:11:37Z</time></trkpt><trkpt lat="45.75715281936864" lon="10.725279847361916"><ele>600.0</ele><time>2026-03-28T16:11:38Z</time></trkpt><trkpt lat="45.757019822744475" lon="10.725387480043109"><ele>600.0</ele><time>2026-03-28T16:11:39Z</time></trkpt><trkpt lat="45.756900972065445" lon="10.725494227489492"><ele>598.5</ele><time>2026-03-28T16:11:40Z</time></trkpt><trkpt lat="45.756780421327086" lon="10.725608164114403"><ele>597.0</ele><time>2026-03-28T16:11:41Z</time></trkpt><trkpt lat="45.756671119488196" lon="10.725741437874861"><ele>595.5</ele><time>2026-03-28T16:11:42Z</time></trkpt><trkpt lat="45.75653848138518" lon="10.725837225530519"><ele>594.0</ele><time>2026-03-28T16:11:43Z</time></trkpt><trkpt lat="45.75641472251735" lon="10.725957072910177"><ele>592.6666666666666</ele><time>2026-03-28T16:11:44Z</time></trkpt><trkpt lat="45.75628792114394" lon="10.726083725775286"><ele>591.3333333333333</ele><time>2026-03-28T16:11:45Z</time></trkpt><trkpt lat="45.7561679422276" lon="10.726226487267398"><ele>590.0</ele><time>2026-03-28T16:11:45.999Z</time></trkpt><trkpt lat="45.756063392553045" lon="10.726391369015522"><ele>590.25</ele><time>2026-03-28T16:11:46.999Z</time></trkpt><trkpt lat="45.755969643863516" lon="10.72655653852834"><ele>590.5</ele><time>2026-03-28T16:11:47.999Z</time></trkpt><trkpt lat="45.75589198004547" lon="10.72671569395357"><ele>590.75</ele><time>2026-03-28T16:11:48.999Z</time></trkpt><trkpt lat="45.755839261819844" lon="10.726860220545205"><ele>591.0</ele><time>2026-03-28T16:11:49.999Z</time></trkpt><trkpt lat="45.755767977296415" lon="10.726977794789581"><ele>591.0</ele><time>2026-03-28T16:11:50.999Z</time></trkpt><trkpt lat="45.75568510073042" lon="10.727107059435578"><ele>591.0</ele><time>2026-03-28T16:11:51.999Z</time></trkpt><trkpt lat="45.75559052852752" lon="10.727255683742055"><ele>591.0</ele><time>2026-03-28T16:11:52.999Z</time></trkpt><trkpt lat="45.75549221832677" lon="10.727417230868921"><ele>591.0</ele><time>2026-03-28T16:11:53.999Z</time></trkpt><trkpt lat="45.75538977659955" lon="10.72758516057352"><ele>590.5</ele><time>2026-03-28T16:11:54.999Z</time></trkpt><trkpt lat="45.755290867916564" lon="10.727743504376523"><ele>590.0</ele><time>2026-03-28T16:11:55.999Z</time></trkpt><trkpt lat="45.75519511876554" lon="10.727898939320308"><ele>589.5</ele><time>2026-03-28T16:11:56.999Z</time></trkpt><trkpt lat="45.75510643979022" lon="10.728049305517988"><ele>589.0</ele><time>2026-03-28T16:11:57.999Z</time></trkpt><trkpt lat="45.75501708878721" lon="10.728190501309061"><ele>588.75</ele><time>2026-03-28T16:11:58.999Z</time></trkpt><trkpt lat="45.754929736355415" lon="10.728309523088258"><ele>588.5</ele><time>2026-03-28T16:11:59.999Z</time></trkpt><trkpt lat="45.75483818158107" lon="10.728414762693912"><ele>588.25</ele><time>2026-03-28T16:12:00.999Z</time></trkpt><trkpt lat="45.75473663199544" lon="10.728501492238474"><ele>588.0</ele><time>2026-03-28T16:12:01.999Z</time></trkpt><trkpt lat="45.75461410467524" lon="10.728548348264498"><ele>586.25</ele><time>2026-03-28T16:12:02.999Z</time></trkpt><trkpt lat="45.754486155416195" lon="10.728614106292538"><ele>584.5</ele><time>2026-03-28T16:12:03.999Z</time></trkpt><trkpt lat="45.75435130080237" lon="10.728686248528602"><ele>582.75</ele><time>2026-03-28T16:12:04.999Z</time></trkpt><trkpt lat="45.754216185176226" lon="10.728757198254211"><ele>581.0</ele><time>2026-03-28T16:12:05.999Z</time></trkpt><trkpt lat="45.754081634052824" lon="10.728825019146774"><ele>580.0</ele><time>2026-03-28T16:12:06.999Z</time></trkpt><trkpt lat="45.75395609933229" lon="10.728887292265183"><ele>579.0</ele><time>2026-03-28T16:12:07.999Z</time></trkpt><trkpt lat="45.753834774212656" lon="10.728957040263202"><ele>578.0</ele><time>2026-03-28T16:12:08.999Z</time></trkpt><trkpt lat="45.75372585960322" lon="10.729044260308735"><ele>577.0</ele><time>2026-03-28T16:12:09.999Z</time></trkpt><trkpt lat="45.75362517041678" lon="10.729104079538962"><ele>576.8000000000001</ele><time>2026-03-28T16:12:10.999Z</time></trkpt><trkpt lat="45.75352893627879" lon="10.72915160685266"><ele>576.6</ele><time>2026-03-28T16:12:11.999Z</time></trkpt><trkpt lat="45.75344829924246" lon="10.729088494467712"><ele>576.4000000000001</ele><time>2026-03-28T16:12:12.999Z</time></trkpt><trkpt lat="45.753346654709404" lon="10.729045509868527"><ele>576.2</ele><time>2026-03-28T16:12:13.999Z</time></trkpt><trkpt lat="45.753236099890096" lon="10.728959340645348"><ele>576.0</ele><time>2026-03-28T16:12:14.999Z</time></trkpt><trkpt lat="45.753108665490444" lon="10.728884248685322"><ele>576.0</ele><time>2026-03-28T16:12:15.999Z</time></trkpt><trkpt lat="45.75297879652195" lon="10.728787545726352"><ele>576.0</ele><time>2026-03-28T16:12:16.999Z</time></trkpt><trkpt lat="45.7528561989335" lon="10.728711707947078"><ele>576.0</ele><time>2026-03-28T16:12:17.999Z</time></trkpt><trkpt lat="45.752744907448495" lon="10.72864286414344"><ele>576.0</ele><time>2026-03-28T16:12:18.999Z</time></trkpt><trkpt lat="45.7526345436751" lon="10.728608803560176"><ele>574.6</ele><time>2026-03-28T16:12:19.999Z</time></trkpt><trkpt lat="45.75253634274367" lon="10.728594828285981"><ele>573.2</ele><time>2026-03-28T16:12:20.999Z</time></trkpt><trkpt lat="45.752440581283295" lon="10.72864216978131"><ele>571.8</ele><time>2026-03-28T16:12:21.999Z</time></trkpt><trkpt lat="45.75235107870391" lon="10.72874744309076"><ele>570.4</ele><time>2026-03-28T16:12:23Z</time></trkpt><trkpt lat="45.752261364829685" lon="10.728877825621637"><ele>569.0</ele><time>2026-03-28T16:12:24Z</time></trkpt><trkpt lat="45.75214479180824" lon="10.729007253112501"><ele>569.0</ele><time>2026-03-28T16:12:25Z</time></trkpt><trkpt lat="45.75203525989994" lon="10.729160155412108"><ele>569.0</ele><time>2026-03-28T16:12:26Z</time></trkpt><trkpt lat="45.75191943716199" lon="10.72932049881662"><ele>569.0</ele><time>2026-03-28T16:12:27Z</time></trkpt><trkpt lat="45.7517828687126" lon="10.72944797347554"><ele>565.3333333333333</ele><time>2026-03-28T16:12:28Z</time></trkpt><trkpt lat="45.7516339307834" lon="10.729561846893173"><ele>561.6666666666666</ele><time>2026-03-28T16:12:29Z</time></trkpt><trkpt lat="45.75147498153293" lon="10.729661237169546"><ele>558.0</ele><time>2026-03-28T16:12:30Z</time></trkpt><trkpt lat="45.75130855009785" lon="10.729756879952152"><ele>558.0</ele><time>2026-03-28T16:12:31Z</time></trkpt><trkpt lat="45.751142078470544" lon="10.72986860881845"><ele>558.0</ele><time>2026-03-28T16:12:32Z</time></trkpt><trkpt lat="45.75098068909974" lon="10.72999842261224"><ele>558.0</ele><time>2026-03-28T16:12:33Z</time></trkpt><trkpt lat="45.75081926370991" lon="10.730112941008116"><ele>553.6666666666666</ele><time>2026-03-28T16:12:34Z</time></trkpt><trkpt lat="45.75066875878354" lon="10.730237615326917"><ele>549.3333333333333</ele><time>2026-03-28T16:12:35Z</time></trkpt><trkpt lat="45.750523370944165" lon="10.730357349764281"><ele>545.0</ele><time>2026-03-28T16:12:36Z</time></trkpt><trkpt lat="45.750382954356496" lon="10.730466930855272"><ele>545.0</ele><time>2026-03-28T16:12:37Z</time></trkpt><trkpt lat="45.750236487262285" lon="10.730555170942946"><ele>545.0</ele><time>2026-03-28T16:12:38Z</time></trkpt><trkpt lat="45.75008276539661" lon="10.7306300427909"><ele>545.0</ele><time>2026-03-28T16:12:39Z</time></trkpt><trkpt lat="45.7499271736554" lon="10.730704829330653"><ele>546.6666666666666</ele><time>2026-03-28T16:12:40Z</time></trkpt><trkpt lat="45.74976372865875" lon="10.730786859251843"><ele>548.3333333333334</ele><time>2026-03-28T16:12:41Z</time></trkpt><trkpt lat="45.74960774639618" lon="10.730864811407097"><ele>550.0</ele><time>2026-03-28T16:12:42Z</time></trkpt><trkpt lat="45.749455488378715" lon="10.73093581649032"><ele>550.0</ele><time>2026-03-28T16:12:43Z</time></trkpt><trkpt lat="45.74930688057383" lon="10.730990714527149"><ele>550.0</ele><time>2026-03-28T16:12:44Z</time></trkpt><trkpt lat="45.749158008421844" lon="10.731026583133325"><ele>550.0</ele><time>2026-03-28T16:12:45Z</time></trkpt><trkpt lat="45.74900794586258" lon="10.731051699888623"><ele>550.0</ele><time>2026-03-28T16:12:46Z</time></trkpt><trkpt lat="45.7488721668627" lon="10.731062628304556"><ele>550.0</ele><time>2026-03-28T16:12:47Z</time></trkpt><trkpt lat="45.748753713115654" lon="10.731039388582493"><ele>550.0</ele><time>2026-03-28T16:12:48Z</time></trkpt><trkpt lat="45.74863655677227" lon="10.73100808175347"><ele>550.0</ele><time>2026-03-28T16:12:49Z</time></trkpt><trkpt lat="45.748533796278245" lon="10.730985337238423"><ele>548.25</ele><time>2026-03-28T16:12:50Z</time></trkpt><trkpt lat="45.74842162058524" lon="10.73102107312292"><ele>546.5</ele><time>2026-03-28T16:12:51Z</time></trkpt><trkpt lat="45.74833313670323" lon="10.731115341616357"><ele>544.75</ele><time>2026-03-28T16:12:52Z</time></trkpt><trkpt lat="45.74824616162197" lon="10.731220498938978"><ele>543.0</ele><time>2026-03-28T16:12:53Z</time></trkpt><trkpt lat="45.74816016936624" lon="10.731346495842681"><ele>543.0</ele><time>2026-03-28T16:12:54Z</time></trkpt><trkpt lat="45.74804976005003" lon="10.731433079455762"><ele>543.0</ele><time>2026-03-28T16:12:55Z</time></trkpt><trkpt lat="45.74793008726789" lon="10.731513561512953"><ele>543.0</ele><time>2026-03-28T16:12:56Z</time></trkpt><trkpt lat="45.74779912056834" lon="10.731568201624746"><ele>543.0</ele><time>2026-03-28T16:12:57Z</time></trkpt><trkpt lat="45.7476552280175" lon="10.731614497477674"><ele>548.3333333333334</ele><time>2026-03-28T16:12:58Z</time></trkpt><trkpt lat="45.747504850937354" lon="10.73164376453894"><ele>553.6666666666667</ele><time>2026-03-28T16:12:59Z</time></trkpt><trkpt lat="45.74734875734917" lon="10.731658570216835"><ele>559.0</ele><time>2026-03-28T16:13:00Z</time></trkpt><trkpt lat="45.74718328536483" lon="10.731670154945183"><ele>559.0</ele><time>2026-03-28T16:13:01Z</time></trkpt><trkpt lat="45.747015976316575" lon="10.731682147905941"><ele>559.0</ele><time>2026-03-28T16:13:02Z</time></trkpt><trkpt lat="45.746845238560105" lon="10.731701686294853"><ele>559.0</ele><time>2026-03-28T16:13:03Z</time></trkpt><trkpt lat="45.74668149102708" lon="10.731747217081645"><ele>560.0</ele><time>2026-03-28T16:13:04Z</time></trkpt><trkpt lat="45.74653142003123" lon="10.73178343730441"><ele>561.0</ele><time>2026-03-28T16:13:05Z</time></trkpt><trkpt lat="45.74640073683504" lon="10.731855588658243"><ele>562.0</ele><time>2026-03-28T16:13:06Z</time></trkpt><trkpt lat="45.746273427658735" lon="10.731931863220316"><ele>563.0</ele><time>2026-03-28T16:13:07Z</time></trkpt><trkpt lat="45.7461481049648" lon="10.732024338027868"><ele>564.75</ele><time>2026-03-28T16:13:08Z</time></trkpt><trkpt lat="45.746018834724616" lon="10.732119725841018"><ele>566.5</ele><time>2026-03-28T16:13:09Z</time></trkpt><trkpt lat="45.74588495838315" lon="10.732197426144728"><ele>568.25</ele><time>2026-03-28T16:13:10Z</time></trkpt><trkpt lat="45.74573186651054" lon="10.73221514527416"><ele>570.0</ele><time>2026-03-28T16:13:11Z</time></trkpt><trkpt lat="45.745576016332016" lon="10.732202935065873"><ele>570.0</ele><time>2026-03-28T16:13:12Z</time></trkpt><trkpt lat="45.74541772203971" lon="10.73219434115841"><ele>570.0</ele><time>2026-03-28T16:13:13Z</time></trkpt><trkpt lat="45.745257943111554" lon="10.73218784859643"><ele>570.0</ele><time>2026-03-28T16:13:14Z</time></trkpt><trkpt lat="45.745099165951444" lon="10.73218760808733"><ele>573.6666666666666</ele><time>2026-03-28T16:13:15Z</time></trkpt><trkpt lat="45.74494167571612" lon="10.732194719595954"><ele>577.3333333333333</ele><time>2026-03-28T16:13:16Z</time></trkpt><trkpt lat="45.74478556770446" lon="10.732192046777351"><ele>581.0</ele><time>2026-03-28T16:13:17Z</time></trkpt><trkpt lat="45.74462878026639" lon="10.732174234266893"><ele>581.0</ele><time>2026-03-28T16:13:18Z</time></trkpt><trkpt lat="45.744477313472956" lon="10.732152302476472"><ele>581.0</ele><time>2026-03-28T16:13:19Z</time></trkpt><trkpt lat="45.74433642525024" lon="10.732132006765742"><ele>581.0</ele><time>2026-03-28T16:13:20Z</time></trkpt><trkpt lat="45.74419442410873" lon="10.73211736738011"><ele>581.0</ele><time>2026-03-28T16:13:21Z</time></trkpt><trkpt lat="45.7440507427002" lon="10.732086377102277"><ele>584.0</ele><time>2026-03-28T16:13:22Z</time></trkpt><trkpt lat="45.74391806867372" lon="10.732033885901641"><ele>587.0</ele><time>2026-03-28T16:13:23Z</time></trkpt><trkpt lat="45.743776393824945" lon="10.731944890684952"><ele>590.0</ele><time>2026-03-28T16:13:24Z</time></trkpt><trkpt lat="45.743636529479815" lon="10.731836705120084"><ele>589.5</ele><time>2026-03-28T16:13:25Z</time></trkpt><trkpt lat="45.74349637716613" lon="10.731729935169554"><ele>589.0</ele><time>2026-03-28T16:13:26Z</time></trkpt><trkpt lat="45.743363182036276" lon="10.731641286135215"><ele>588.5</ele><time>2026-03-28T16:13:27Z</time></trkpt><trkpt lat="45.7432345705408" lon="10.731560874740811"><ele>588.0</ele><time>2026-03-28T16:13:28Z</time></trkpt><trkpt lat="45.74311130049922" lon="10.73147606850885"><ele>588.0</ele><time>2026-03-28T16:13:29Z</time></trkpt><trkpt lat="45.74298492131483" lon="10.73138068964173"><ele>588.0</ele><time>2026-03-28T16:13:30Z</time></trkpt><trkpt lat="45.7428586855756" lon="10.731263564426069"><ele>588.0</ele><time>2026-03-28T16:13:31Z</time></trkpt><trkpt lat="45.742737328737284" lon="10.73111965870806"><ele>587.25</ele><time>2026-03-28T16:13:32Z</time></trkpt><trkpt lat="45.74262685381555" lon="10.730974600150356"><ele>586.5</ele><time>2026-03-28T16:13:33Z</time></trkpt><trkpt lat="45.74250649133136" lon="10.730849749208954"><ele>585.75</ele><time>2026-03-28T16:13:34Z</time></trkpt><trkpt lat="45.74239521118209" lon="10.73072759746432"><ele>585.0</ele><time>2026-03-28T16:13:35Z</time></trkpt><trkpt lat="45.742292996769976" lon="10.730597170855225"><ele>585.0</ele><time>2026-03-28T16:13:36Z</time></trkpt><trkpt lat="45.74220332360528" lon="10.730439038741629"><ele>585.0</ele><time>2026-03-28T16:13:37Z</time></trkpt><trkpt lat="45.74211806311239" lon="10.730263559473327"><ele>585.0</ele><time>2026-03-28T16:13:38Z</time></trkpt><trkpt lat="45.742020533763274" lon="10.730095723727072"><ele>585.0</ele><time>2026-03-28T16:13:39Z</time></trkpt><trkpt lat="45.741929793052776" lon="10.72992901955052"><ele>585.5</ele><time>2026-03-28T16:13:40Z</time></trkpt><trkpt lat="45.74184700652498" lon="10.729766966236399"><ele>586.0</ele><time>2026-03-28T16:13:41Z</time></trkpt><trkpt lat="45.74176634631996" lon="10.72960240514523"><ele>586.5</ele><time>2026-03-28T16:13:42Z</time></trkpt><trkpt lat="45.7417119514109" lon="10.729434031587711"><ele>587.0</ele><time>2026-03-28T16:13:43Z</time></trkpt><trkpt lat="45.741650711910225" lon="10.72927110238072"><ele>587.0</ele><time>2026-03-28T16:13:44Z</time></trkpt><trkpt lat="45.74156984684218" lon="10.729129167134397"><ele>587.0</ele><time>2026-03-28T16:13:45Z</time></trkpt><trkpt lat="45.741458578183696" lon="10.729032172152742"><ele>587.0</ele><time>2026-03-28T16:13:46Z</time></trkpt><trkpt lat="45.74132826378262" lon="10.728963090999812"><ele>587.0</ele><time>2026-03-28T16:13:47Z</time></trkpt><trkpt lat="45.741169958596124" lon="10.728925325165257"><ele>578.6666666666666</ele><time>2026-03-28T16:13:48Z</time></trkpt><trkpt lat="45.74100228426794" lon="10.728902293266001"><ele>570.3333333333334</ele><time>2026-03-28T16:13:49Z</time></trkpt><trkpt lat="45.740822562399764" lon="10.728885840221038"><ele>562.0</ele><time>2026-03-28T16:13:49.999Z</time></trkpt><trkpt lat="45.74065386247284" lon="10.72886295051571"><ele>562.0</ele><time>2026-03-28T16:13:50.999Z</time></trkpt><trkpt lat="45.74050146150733" lon="10.728831214531462"><ele>562.0</ele><time>2026-03-28T16:13:51.999Z</time></trkpt><trkpt lat="45.74036089689288" lon="10.728782593968646"><ele>562.0</ele><time>2026-03-28T16:13:52.999Z</time></trkpt><trkpt lat="45.74022698109157" lon="10.728724420057453"><ele>562.0</ele><time>2026-03-28T16:13:53.999Z</time></trkpt><trkpt lat="45.74011521189894" lon="10.728601644389666"><ele>565.75</ele><time>2026-03-28T16:13:54.999Z</time></trkpt><trkpt lat="45.74001056406819" lon="10.72846393804948"><ele>569.5</ele><time>2026-03-28T16:13:55.999Z</time></trkpt><trkpt lat="45.739928551582125" lon="10.728283989387544"><ele>573.25</ele><time>2026-03-28T16:13:56.999Z</time></trkpt><trkpt lat="45.73986378070474" lon="10.728107219222222"><ele>577.0</ele><time>2026-03-28T16:13:57.999Z</time></trkpt><trkpt lat="45.7398310924986" lon="10.727951291774874"><ele>577.0</ele><time>2026-03-28T16:13:58.999Z</time></trkpt><trkpt lat="45.73979043320695" lon="10.727786505740188"><ele>577.0</ele><time>2026-03-28T16:13:59.999Z</time></trkpt><trkpt lat="45.73976237408092" lon="10.727618194320769"><ele>577.0</ele><time>2026-03-28T16:14:00.999Z</time></trkpt><trkpt lat="45.73973735227404" lon="10.727447523379649"><ele>577.0</ele><time>2026-03-28T16:14:01.999Z</time></trkpt><trkpt lat="45.73970956895454" lon="10.72727719002488"><ele>579.6</ele><time>2026-03-28T16:14:02.999Z</time></trkpt><trkpt lat="45.73968111951531" lon="10.727106829247681"><ele>582.2</ele><time>2026-03-28T16:14:03.999Z</time></trkpt><trkpt lat="45.739648064990796" lon="10.72695478294175"><ele>584.8</ele><time>2026-03-28T16:14:04.999Z</time></trkpt><trkpt lat="45.739615964795945" lon="10.726818433278716"><ele>587.4</ele><time>2026-03-28T16:14:05.999Z</time></trkpt><trkpt lat="45.7395708857638" lon="10.72667598363217"><ele>590.0</ele><time>2026-03-28T16:14:06.999Z</time></trkpt><trkpt lat="45.73951418468067" lon="10.72651238228139"><ele>591.0</ele><time>2026-03-28T16:14:07.999Z</time></trkpt><trkpt lat="45.739450691416316" lon="10.726336058677296"><ele>592.0</ele><time>2026-03-28T16:14:08.999Z</time></trkpt><trkpt lat="45.739381111322885" lon="10.726142494123541"><ele>593.0</ele><time>2026-03-28T16:14:09.999Z</time></trkpt><trkpt lat="45.739311490122304" lon="10.725949085490138"><ele>594.0</ele><time>2026-03-28T16:14:10.999Z</time></trkpt><trkpt lat="45.73925061778647" lon="10.725765941180091"><ele>590.0</ele><time>2026-03-28T16:14:11.999Z</time></trkpt><trkpt lat="45.73918737134972" lon="10.725595333264703"><ele>586.0</ele><time>2026-03-28T16:14:12.999Z</time></trkpt><trkpt lat="45.739128052715074" lon="10.72543014283547"><ele>582.0</ele><time>2026-03-28T16:14:13.999Z</time></trkpt><trkpt lat="45.73906783538809" lon="10.725266109881817"><ele>578.0</ele><time>2026-03-28T16:14:14.999Z</time></trkpt><trkpt lat="45.73901418374898" lon="10.72510366702017"><ele>578.0</ele><time>2026-03-28T16:14:15.999Z</time></trkpt><trkpt lat="45.738974037488916" lon="10.72495429894616"><ele>578.0</ele><time>2026-03-28T16:14:16.999Z</time></trkpt><trkpt lat="45.73893887970964" lon="10.724802083377366"><ele>578.0</ele><time>2026-03-28T16:14:17.999Z</time></trkpt><trkpt lat="45.7389177784823" lon="10.724643909833606"><ele>578.0</ele><time>2026-03-28T16:14:18.999Z</time></trkpt><trkpt lat="45.73890293301337" lon="10.724491282052082"><ele>578.0</ele><time>2026-03-28T16:14:19.999Z</time></trkpt><trkpt lat="45.73890306058096" lon="10.724360255935526"><ele>578.5</ele><time>2026-03-28T16:14:20.999Z</time></trkpt><trkpt lat="45.73893087637007" lon="10.72424912902466"><ele>579.0</ele><time>2026-03-28T16:14:21.999Z</time></trkpt><trkpt lat="45.738981697556255" lon="10.7241596545774"><ele>579.5</ele><time>2026-03-28T16:14:22.999Z</time></trkpt><trkpt lat="45.7390547155429" lon="10.724086144836203"><ele>580.0</ele><time>2026-03-28T16:14:23.999Z</time></trkpt><trkpt lat="45.73910941620474" lon="10.723999993921353"><ele>580.5</ele><time>2026-03-28T16:14:24.999Z</time></trkpt><trkpt lat="45.73912797239457" lon="10.723904739192257"><ele>581.0</ele><time>2026-03-28T16:14:25.999Z</time></trkpt><trkpt lat="45.739112300739336" lon="10.723808083166631"><ele>581.0</ele><time>2026-03-28T16:14:26.999Z</time></trkpt><trkpt lat="45.739058296823266" lon="10.723725939840618"><ele>581.0</ele><time>2026-03-28T16:14:27.999Z</time></trkpt><trkpt lat="45.73899677358028" lon="10.723646691566625"><ele>581.0</ele><time>2026-03-28T16:14:29Z</time></trkpt><trkpt lat="45.73891090942513" lon="10.72357345791191"><ele>581.0</ele><time>2026-03-28T16:14:30Z</time></trkpt><trkpt lat="45.7388192549438" lon="10.723499734342967"><ele>581.0</ele><time>2026-03-28T16:14:31Z</time></trkpt><trkpt lat="45.738733013563625" lon="10.723426699243765"><ele>581.4</ele><time>2026-03-28T16:14:32Z</time></trkpt><trkpt lat="45.738655720791854" lon="10.72334757421703"><ele>581.8</ele><time>2026-03-28T16:14:33Z</time></trkpt><trkpt lat="45.738586320820104" lon="10.723258977481672"><ele>582.1999999999999</ele><time>2026-03-28T16:14:34Z</time></trkpt><trkpt lat="45.738542831397304" lon="10.72313342760178"><ele>582.6</ele><time>2026-03-28T16:14:35Z</time></trkpt><trkpt lat="45.738514795591776" lon="10.722994952830124"><ele>583.0</ele><time>2026-03-28T16:14:36Z</time></trkpt><trkpt lat="45.73850848802219" lon="10.72284999179261"><ele>582.8</ele><time>2026-03-28T16:14:37Z</time></trkpt><trkpt lat="45.73851154598771" lon="10.722705311007987"><ele>582.5999999999999</ele><time>2026-03-28T16:14:38Z</time></trkpt><trkpt lat="45.73851975466986" lon="10.72256420384718"><ele>582.4000000000001</ele><time>2026-03-28T16:14:39Z</time></trkpt><trkpt lat="45.73851538081028" lon="10.722421653303309"><ele>582.2</ele><time>2026-03-28T16:14:40Z</time></trkpt><trkpt lat="45.73852814366907" lon="10.722304823408727"><ele>582.0</ele><time>2026-03-28T16:14:41Z</time></trkpt><trkpt lat="45.738559257419745" lon="10.722205665902347"><ele>582.0</ele><time>2026-03-28T16:14:42Z</time></trkpt><trkpt lat="45.73859812369655" lon="10.722124741043961"><ele>582.0</ele><time>2026-03-28T16:14:43Z</time></trkpt><trkpt lat="45.7386179748795" lon="10.721965345579266"><ele>582.0</ele><time>2026-03-28T16:14:45Z</time></trkpt><trkpt lat="45.738503741814384" lon="10.721892923131023"><ele>582.0</ele><time>2026-03-28T16:14:47Z</time></trkpt><trkpt lat="45.73844053725027" lon="10.721930497520969"><ele>582.0</ele><time>2026-03-28T16:14:48Z</time></trkpt><trkpt lat="45.73839614694358" lon="10.722001905709835"><ele>582.0</ele><time>2026-03-28T16:14:49Z</time></trkpt><trkpt lat="45.73839194307368" lon="10.722104914644138"><ele>579.4</ele><time>2026-03-28T16:14:50Z</time></trkpt><trkpt lat="45.73840372764772" lon="10.722229372189007"><ele>576.8000000000001</ele><time>2026-03-28T16:14:51Z</time></trkpt><trkpt lat="45.73841584942185" lon="10.722370817435266"><ele>574.2</ele><time>2026-03-28T16:14:52Z</time></trkpt><trkpt lat="45.738421649659045" lon="10.722534497691766"><ele>571.6</ele><time>2026-03-28T16:14:53Z</time></trkpt><trkpt lat="45.738425864335056" lon="10.722714810468027"><ele>569.0</ele><time>2026-03-28T16:14:54Z</time></trkpt><trkpt lat="45.738420794717285" lon="10.72289730465169"><ele>568.0</ele><time>2026-03-28T16:14:55Z</time></trkpt><trkpt lat="45.73842316608898" lon="10.72307207089406"><ele>567.0</ele><time>2026-03-28T16:14:56Z</time></trkpt><trkpt lat="45.73843139339671" lon="10.7232140312215"><ele>566.0</ele><time>2026-03-28T16:14:57Z</time></trkpt><trkpt lat="45.738447956517504" lon="10.723355926032154"><ele>565.0</ele><time>2026-03-28T16:14:58Z</time></trkpt><trkpt lat="45.738508744753354" lon="10.723484076886086"><ele>564.0</ele><time>2026-03-28T16:14:59Z</time></trkpt><trkpt lat="45.73859680810837" lon="10.723606273628336"><ele>561.8</ele><time>2026-03-28T16:15:00Z</time></trkpt><trkpt lat="45.73863405819776" lon="10.723741834679705"><ele>559.5999999999999</ele><time>2026-03-28T16:15:01Z</time></trkpt><trkpt lat="45.73863749290521" lon="10.72390717489589"><ele>557.4</ele><time>2026-03-28T16:15:02Z</time></trkpt><trkpt lat="45.738600060964266" lon="10.724062903472243"><ele>555.1999999999999</ele><time>2026-03-28T16:15:03Z</time></trkpt><trkpt lat="45.73853090398208" lon="10.724181290033208"><ele>553.0</ele><time>2026-03-28T16:15:04Z</time></trkpt><trkpt lat="45.73847642372103" lon="10.724283817869432"><ele>551.25</ele><time>2026-03-28T16:15:05Z</time></trkpt><trkpt lat="45.73845465553455" lon="10.724397564543759"><ele>549.5</ele><time>2026-03-28T16:15:06Z</time></trkpt><trkpt lat="45.73845481527976" lon="10.724556433730637"><ele>547.75</ele><time>2026-03-28T16:15:07Z</time></trkpt><trkpt lat="45.73847366081704" lon="10.724747384542917"><ele>546.0</ele><time>2026-03-28T16:15:08Z</time></trkpt><trkpt lat="45.73847013534381" lon="10.724926801092321"><ele>546.0</ele><time>2026-03-28T16:15:09Z</time></trkpt><trkpt lat="45.738446455740046" lon="10.725085028726854"><ele>546.0</ele><time>2026-03-28T16:15:10Z</time></trkpt><trkpt lat="45.738444913951156" lon="10.725228841950425"><ele>546.0</ele><time>2026-03-28T16:15:11Z</time></trkpt><trkpt lat="45.73848044319113" lon="10.725358909032206"><ele>546.0</ele><time>2026-03-28T16:15:12Z</time></trkpt><trkpt lat="45.73854608802355" lon="10.72548873801708"><ele>546.0</ele><time>2026-03-28T16:15:13Z</time></trkpt><trkpt lat="45.738604820950584" lon="10.725627804476057"><ele>544.8</ele><time>2026-03-28T16:15:14Z</time></trkpt><trkpt lat="45.738622754902885" lon="10.725756627713476"><ele>543.6</ele><time>2026-03-28T16:15:15Z</time></trkpt><trkpt lat="45.73856322424688" lon="10.725888618080086"><ele>542.4</ele><time>2026-03-28T16:15:16Z</time></trkpt><trkpt lat="45.738487514704545" lon="10.725991714877143"><ele>541.2</ele><time>2026-03-28T16:15:17Z</time></trkpt><trkpt lat="45.738408805310236" lon="10.726099475405581"><ele>540.0</ele><time>2026-03-28T16:15:18Z</time></trkpt><trkpt lat="45.73835084889815" lon="10.726224546087156"><ele>539.6</ele><time>2026-03-28T16:15:19Z</time></trkpt><trkpt lat="45.73832325867521" lon="10.726347523211516"><ele>539.2</ele><time>2026-03-28T16:15:20Z</time></trkpt><trkpt lat="45.73830703510719" lon="10.726474358136391"><ele>538.8</ele><time>2026-03-28T16:15:21Z</time></trkpt><trkpt lat="45.738315439973086" lon="10.726623533265174"><ele>538.4</ele><time>2026-03-28T16:15:22Z</time></trkpt><trkpt lat="45.73833641374072" lon="10.726795435964823"><ele>538.0</ele><time>2026-03-28T16:15:23Z</time></trkpt><trkpt lat="45.73838122032797" lon="10.72698740452601"><ele>534.3333333333334</ele><time>2026-03-28T16:15:24Z</time></trkpt><trkpt lat="45.738426460365964" lon="10.727193618393107"><ele>530.6666666666666</ele><time>2026-03-28T16:15:25Z</time></trkpt><trkpt lat="45.73846789358694" lon="10.727409086579788"><ele>527.0</ele><time>2026-03-28T16:15:26Z</time></trkpt><trkpt lat="45.73851377683059" lon="10.727640286147844"><ele>536.3333333333333</ele><time>2026-03-28T16:15:27Z</time></trkpt><trkpt lat="45.73856183346148" lon="10.727869818209058"><ele>545.6666666666666</ele><time>2026-03-28T16:15:28Z</time></trkpt><trkpt lat="45.738599659980245" lon="10.728088035707186"><ele>555.0</ele><time>2026-03-28T16:15:29Z</time></trkpt><trkpt lat="45.73863187339665" lon="10.728289136439194"><ele>555.0</ele><time>2026-03-28T16:15:30Z</time></trkpt><trkpt lat="45.73866606329472" lon="10.72848923279851"><ele>555.0</ele><time>2026-03-28T16:15:31Z</time></trkpt><trkpt lat="45.73870066583401" lon="10.72866680971781"><ele>555.0</ele><time>2026-03-28T16:15:32Z</time></trkpt><trkpt lat="45.73873913985337" lon="10.7288083192609"><ele>555.0</ele><time>2026-03-28T16:15:33Z</time></trkpt><trkpt lat="45.73879887052794" lon="10.728928562992625"><ele>548.5</ele><time>2026-03-28T16:15:34Z</time></trkpt><trkpt lat="45.73888274667129" lon="10.729030938357651"><ele>542.0</ele><time>2026-03-28T16:15:35Z</time></trkpt><trkpt lat="45.73899474808768" lon="10.729099334194661"><ele>535.5</ele><time>2026-03-28T16:15:36Z</time></trkpt><trkpt lat="45.73912326777754" lon="10.729142816700872"><ele>529.0</ele><time>2026-03-28T16:15:37Z</time></trkpt><trkpt lat="45.73925582009522" lon="10.729172726387048"><ele>529.0</ele><time>2026-03-28T16:15:38Z</time></trkpt><trkpt lat="45.739380250834756" lon="10.729191913989657"><ele>529.0</ele><time>2026-03-28T16:15:39Z</time></trkpt><trkpt lat="45.73949634350981" lon="10.729229303175462"><ele>529.0</ele><time>2026-03-28T16:15:40Z</time></trkpt><trkpt lat="45.73959829393475" lon="10.729291055438965"><ele>529.0</ele><time>2026-03-28T16:15:41Z</time></trkpt><trkpt lat="45.7396616495961" lon="10.729382970918149"><ele>529.0</ele><time>2026-03-28T16:15:42Z</time></trkpt><trkpt lat="45.7397017716059" lon="10.729486778127141"><ele>530.8333333333334</ele><time>2026-03-28T16:15:43Z</time></trkpt><trkpt lat="45.73970774569812" lon="10.729609615345664"><ele>532.6666666666667</ele><time>2026-03-28T16:15:44Z</time></trkpt><trkpt lat="45.73964445198106" lon="10.729704362991658"><ele>534.5</ele><time>2026-03-28T16:15:45Z</time></trkpt><trkpt lat="45.7395708497524" lon="10.729754234174253"><ele>536.3333333333334</ele><time>2026-03-28T16:15:46Z</time></trkpt><trkpt lat="45.73947916930173" lon="10.72974854331856"><ele>538.1666666666666</ele><time>2026-03-28T16:15:47Z</time></trkpt><trkpt lat="45.73939742661266" lon="10.729675067846046"><ele>540.0</ele><time>2026-03-28T16:15:48Z</time></trkpt><trkpt lat="45.73932433220866" lon="10.729576670370959"><ele>540.0</ele><time>2026-03-28T16:15:49Z</time></trkpt><trkpt lat="45.73923759064689" lon="10.729473056017245"><ele>540.0</ele><time>2026-03-28T16:15:50Z</time></trkpt><trkpt lat="45.73912862859495" lon="10.729403786126612"><ele>540.0</ele><time>2026-03-28T16:15:51Z</time></trkpt><trkpt lat="45.73901036261314" lon="10.729370938600374"><ele>540.0</ele><time>2026-03-28T16:15:51.999Z</time></trkpt><trkpt lat="45.73889273733137" lon="10.729354054333486"><ele>540.0</ele><time>2026-03-28T16:15:52.999Z</time></trkpt><trkpt lat="45.73877589458568" lon="10.729393190866269"><ele>540.0</ele><time>2026-03-28T16:15:53.999Z</time></trkpt><trkpt lat="45.73866059796634" lon="10.729487379440044"><ele>540.0</ele><time>2026-03-28T16:15:54.999Z</time></trkpt><trkpt lat="45.7385487978538" lon="10.729601219346522"><ele>540.0</ele><time>2026-03-28T16:15:55.999Z</time></trkpt><trkpt lat="45.73843734065231" lon="10.72971716153113"><ele>534.8333333333334</ele><time>2026-03-28T16:15:56.999Z</time></trkpt><trkpt lat="45.73836137310191" lon="10.729816355858878"><ele>529.6666666666666</ele><time>2026-03-28T16:15:57.999Z</time></trkpt><trkpt lat="45.738301123029686" lon="10.729923264092099"><ele>524.5</ele><time>2026-03-28T16:15:58.999Z</time></trkpt><trkpt lat="45.738267871890436" lon="10.730020672212097"><ele>519.3333333333333</ele><time>2026-03-28T16:15:59.999Z</time></trkpt><trkpt lat="45.73821286500528" lon="10.73009198248274"><ele>514.1666666666666</ele><time>2026-03-28T16:16:00.999Z</time></trkpt><trkpt lat="45.738149407787525" lon="10.730105138148426"><ele>509.0</ele><time>2026-03-28T16:16:01.999Z</time></trkpt><trkpt lat="45.73808492058421" lon="10.72995996607118"><ele>508.99999999999994</ele><time>2026-03-28T16:16:03.999Z</time></trkpt><trkpt lat="45.73810499904133" lon="10.729861657519647"><ele>509.0</ele><time>2026-03-28T16:16:04.999Z</time></trkpt><trkpt lat="45.73817493158584" lon="10.729784201539173"><ele>509.0</ele><time>2026-03-28T16:16:05.999Z</time></trkpt><trkpt lat="45.738271833967545" lon="10.729747531907586"><ele>509.0</ele><time>2026-03-28T16:16:06.999Z</time></trkpt><trkpt lat="45.738350053679326" lon="10.729703589109644"><ele>508.99999999999994</ele><time>2026-03-28T16:16:07.999Z</time></trkpt><trkpt lat="45.73839060868367" lon="10.72961916853094"><ele>509.0</ele><time>2026-03-28T16:16:08.999Z</time></trkpt><trkpt lat="45.73839900431596" lon="10.72951265454369"><ele>509.0</ele><time>2026-03-28T16:16:09.999Z</time></trkpt><trkpt lat="45.73837363971293" lon="10.729393585540489"><ele>509.0</ele><time>2026-03-28T16:16:10.999Z</time></trkpt><trkpt lat="45.73830330576107" lon="10.729295337328825"><ele>509.0</ele><time>2026-03-28T16:16:11.999Z</time></trkpt><trkpt lat="45.73822388857251" lon="10.729225559414672"><ele>509.0</ele><time>2026-03-28T16:16:12.999Z</time></trkpt><trkpt lat="45.738137996584605" lon="10.729171595591275"><ele>509.0</ele><time>2026-03-28T16:16:13.999Z</time></trkpt><trkpt lat="45.738081146126035" lon="10.729072130130568"><ele>509.2</ele><time>2026-03-28T16:16:14.999Z</time></trkpt><trkpt lat="45.738050407042714" lon="10.728940834084808"><ele>509.4</ele><time>2026-03-28T16:16:15.999Z</time></trkpt><trkpt lat="45.738050241420744" lon="10.728784137991815"><ele>509.6</ele><time>2026-03-28T16:16:16.999Z</time></trkpt><trkpt lat="45.73804485358689" lon="10.728623744454254"><ele>509.8</ele><time>2026-03-28T16:16:17.999Z</time></trkpt><trkpt lat="45.73803423860615" lon="10.728458529433505"><ele>510.0</ele><time>2026-03-28T16:16:18.999Z</time></trkpt><trkpt lat="45.73798977732812" lon="10.728281989985598"><ele>511.0</ele><time>2026-03-28T16:16:19.999Z</time></trkpt><trkpt lat="45.73793154177883" lon="10.728108042352579"><ele>512.0</ele><time>2026-03-28T16:16:20.999Z</time></trkpt><trkpt lat="45.73786008120693" lon="10.727929937907701"><ele>513.0</ele><time>2026-03-28T16:16:21.999Z</time></trkpt><trkpt lat="45.73781612520362" lon="10.727752518834048"><ele>514.0</ele><time>2026-03-28T16:16:22.999Z</time></trkpt><trkpt lat="45.737762941479666" lon="10.727575044464519"><ele>508.5</ele><time>2026-03-28T16:16:23.999Z</time></trkpt><trkpt lat="45.737700711185745" lon="10.727400581328018"><ele>503.0</ele><time>2026-03-28T16:16:24.999Z</time></trkpt><trkpt lat="45.73764528798666" lon="10.727223208291667"><ele>497.5</ele><time>2026-03-28T16:16:25.999Z</time></trkpt><trkpt lat="45.73758559991174" lon="10.727047742900103"><ele>492.0</ele><time>2026-03-28T16:16:26.999Z</time></trkpt><trkpt lat="45.737524662859606" lon="10.726881618129049"><ele>492.0</ele><time>2026-03-28T16:16:27.999Z</time></trkpt><trkpt lat="45.73745243049897" lon="10.72672194081227"><ele>492.0</ele><time>2026-03-28T16:16:28.999Z</time></trkpt><trkpt lat="45.737388055564764" lon="10.726552551590846"><ele>492.0</ele><time>2026-03-28T16:16:29.999Z</time></trkpt><trkpt lat="45.737350335223496" lon="10.726365257935695"><ele>492.0</ele><time>2026-03-28T16:16:30.999Z</time></trkpt><trkpt lat="45.73730884553689" lon="10.72616421806638"><ele>493.75</ele><time>2026-03-28T16:16:31.999Z</time></trkpt><trkpt lat="45.73727251255372" lon="10.72595678710486"><ele>495.5</ele><time>2026-03-28T16:16:32.999Z</time></trkpt><trkpt lat="45.737232113505186" lon="10.725752932485365"><ele>497.25</ele><time>2026-03-28T16:16:33.999Z</time></trkpt><trkpt lat="45.73718459880449" lon="10.725554719198579"><ele>499.0</ele><time>2026-03-28T16:16:35Z</time></trkpt><trkpt lat="45.7371362454436" lon="10.725361187877944"><ele>500.5</ele><time>2026-03-28T16:16:36Z</time></trkpt><trkpt lat="45.73708556879215" lon="10.725170630885614"><ele>502.0</ele><time>2026-03-28T16:16:37Z</time></trkpt><trkpt lat="45.73703210182755" lon="10.724976537501188"><ele>503.5</ele><time>2026-03-28T16:16:38Z</time></trkpt><trkpt lat="45.7369837410446" lon="10.724781354089126"><ele>505.0</ele><time>2026-03-28T16:16:39Z</time></trkpt><trkpt lat="45.73693451156684" lon="10.724596628786118"><ele>497.0</ele><time>2026-03-28T16:16:40Z</time></trkpt><trkpt lat="45.7368837453843" lon="10.724432494282594"><ele>489.0</ele><time>2026-03-28T16:16:41Z</time></trkpt><trkpt lat="45.73681982459893" lon="10.724282195924465"><ele>481.0</ele><time>2026-03-28T16:16:42Z</time></trkpt><trkpt lat="45.73673061722374" lon="10.72414862760215"><ele>473.0</ele><time>2026-03-28T16:16:43Z</time></trkpt><trkpt lat="45.73661817586366" lon="10.724043147435248"><ele>473.0</ele><time>2026-03-28T16:16:44Z</time></trkpt><trkpt lat="45.736497852184506" lon="10.723946603647027"><ele>473.0</ele><time>2026-03-28T16:16:45Z</time></trkpt><trkpt lat="45.73637051762823" lon="10.723852023520378"><ele>473.0</ele><time>2026-03-28T16:16:46Z</time></trkpt><trkpt lat="45.736254518317715" lon="10.723754073812511"><ele>473.0</ele><time>2026-03-28T16:16:47Z</time></trkpt><trkpt lat="45.73614297801688" lon="10.7236467524922"><ele>470.5</ele><time>2026-03-28T16:16:48Z</time></trkpt><trkpt lat="45.736036971123426" lon="10.723525278986324"><ele>468.0</ele><time>2026-03-28T16:16:49Z</time></trkpt><trkpt lat="45.735938850306255" lon="10.723394783117108"><ele>465.5</ele><time>2026-03-28T16:16:50Z</time></trkpt><trkpt lat="45.73586383073906" lon="10.723249166750525"><ele>463.0</ele><time>2026-03-28T16:16:51Z</time></trkpt><trkpt lat="45.735781296398585" lon="10.723096485933013"><ele>463.0</ele><time>2026-03-28T16:16:52Z</time></trkpt><trkpt lat="45.73569426835385" lon="10.722940677472895"><ele>463.0</ele><time>2026-03-28T16:16:53Z</time></trkpt><trkpt lat="45.73560013856023" lon="10.722788080978708"><ele>463.0</ele><time>2026-03-28T16:16:54Z</time></trkpt><trkpt lat="45.735511045387746" lon="10.72263554024007"><ele>463.0</ele><time>2026-03-28T16:16:55Z</time></trkpt><trkpt lat="45.73542272615598" lon="10.722484957498697"><ele>464.5</ele><time>2026-03-28T16:16:56Z</time></trkpt><trkpt lat="45.73533358290594" lon="10.722339750277538"><ele>466.0</ele><time>2026-03-28T16:16:57Z</time></trkpt><trkpt lat="45.73526030972843" lon="10.722193030229931"><ele>467.5</ele><time>2026-03-28T16:16:58Z</time></trkpt><trkpt lat="45.73519580084304" lon="10.72203846898892"><ele>469.0</ele><time>2026-03-28T16:16:59Z</time></trkpt><trkpt lat="45.73518303704928" lon="10.721854008360213"><ele>463.25</ele><time>2026-03-28T16:17:00Z</time></trkpt><trkpt lat="45.73515190432996" lon="10.721677391203583"><ele>457.5</ele><time>2026-03-28T16:17:01Z</time></trkpt><trkpt lat="45.735115774591264" lon="10.721499953482251"><ele>451.75</ele><time>2026-03-28T16:17:02Z</time></trkpt><trkpt lat="45.73506079169996" lon="10.721338797836887"><ele>446.0</ele><time>2026-03-28T16:17:03Z</time></trkpt><trkpt lat="45.7350063276644" lon="10.72118025871589"><ele>447.25</ele><time>2026-03-28T16:17:04Z</time></trkpt><trkpt lat="45.73493789530251" lon="10.721023032134617"><ele>448.5</ele><time>2026-03-28T16:17:05Z</time></trkpt><trkpt lat="45.73487791587612" lon="10.720851955696695"><ele>449.75</ele><time>2026-03-28T16:17:06Z</time></trkpt><trkpt lat="45.73480958208743" lon="10.720683277965765"><ele>451.0</ele><time>2026-03-28T16:17:07Z</time></trkpt><trkpt lat="45.73474295581091" lon="10.720510172761418"><ele>451.0</ele><time>2026-03-28T16:17:08Z</time></trkpt><trkpt lat="45.734669614314214" lon="10.720338725275933"><ele>451.0</ele><time>2026-03-28T16:17:09Z</time></trkpt><trkpt lat="45.734622201412215" lon="10.720147046570636"><ele>451.0</ele><time>2026-03-28T16:17:10Z</time></trkpt><trkpt lat="45.73458662858474" lon="10.719944595031572"><ele>451.0</ele><time>2026-03-28T16:17:11Z</time></trkpt><trkpt lat="45.73453038661886" lon="10.71976553643103"><ele>453.0</ele><time>2026-03-28T16:17:12Z</time></trkpt><trkpt lat="45.73449476680416" lon="10.719586591900084"><ele>455.0</ele><time>2026-03-28T16:17:13Z</time></trkpt><trkpt lat="45.734458424278955" lon="10.719403473052664"><ele>457.0</ele><time>2026-03-28T16:17:14Z</time></trkpt><trkpt lat="45.73442084638639" lon="10.719218649631092"><ele>459.0</ele><time>2026-03-28T16:17:15Z</time></trkpt><trkpt lat="45.73438484095142" lon="10.719042835550388"><ele>455.2</ele><time>2026-03-28T16:17:16Z</time></trkpt><trkpt lat="45.73435408686275" lon="10.718882327057598"><ele>451.4</ele><time>2026-03-28T16:17:17Z</time></trkpt><trkpt lat="45.734327907909574" lon="10.71873165835166"><ele>447.6</ele><time>2026-03-28T16:17:18Z</time></trkpt><trkpt lat="45.73429927452746" lon="10.718589102223893"><ele>443.8</ele><time>2026-03-28T16:17:19Z</time></trkpt><trkpt lat="45.73428338976904" lon="10.718467637231234"><ele>440.0</ele><time>2026-03-28T16:17:20Z</time></trkpt><trkpt lat="45.73428412280226" lon="10.718357956280803"><ele>439.49999999999994</ele><time>2026-03-28T16:17:21Z</time></trkpt><trkpt lat="45.73431990041263" lon="10.718261504186366"><ele>439.0</ele><time>2026-03-28T16:17:22Z</time></trkpt><trkpt lat="45.73438493023589" lon="10.718188083163872"><ele>438.5</ele><time>2026-03-28T16:17:23Z</time></trkpt><trkpt lat="45.73445858183863" lon="10.718140740260669"><ele>438.0</ele><time>2026-03-28T16:17:24Z</time></trkpt><trkpt lat="45.73454578759286" lon="10.7181397053602"><ele>437.49999999999994</ele><time>2026-03-28T16:17:25Z</time></trkpt><trkpt lat="45.734623136299916" lon="10.7182310336801"><ele>437.0</ele><time>2026-03-28T16:17:26Z</time></trkpt><trkpt lat="45.73472043365882" lon="10.718293611115467"><ele>440.0</ele><time>2026-03-28T16:17:27Z</time></trkpt><trkpt lat="45.73481347971122" lon="10.718340625624284"><ele>443.00000000000006</ele><time>2026-03-28T16:17:28Z</time></trkpt><trkpt lat="45.73490627945814" lon="10.718334666835881"><ele>446.00000000000006</ele><time>2026-03-28T16:17:29Z</time></trkpt><trkpt lat="45.73499697503088" lon="10.718268932939647"><ele>449.0</ele><time>2026-03-28T16:17:30Z</time></trkpt><trkpt lat="45.73506653567925" lon="10.718136003068977"><ele>452.0</ele><time>2026-03-28T16:17:31Z</time></trkpt><trkpt lat="45.73512065293304" lon="10.717997490182515"><ele>452.0</ele><time>2026-03-28T16:17:32Z</time></trkpt><trkpt lat="45.73516195310458" lon="10.717851321136873"><ele>452.00000000000006</ele><time>2026-03-28T16:17:33Z</time></trkpt><trkpt lat="45.73517608476231" lon="10.717702897831447"><ele>452.00000000000006</ele><time>2026-03-28T16:17:34Z</time></trkpt><trkpt lat="45.735224079851264" lon="10.717578943974017"><ele>452.0</ele><time>2026-03-28T16:17:35Z</time></trkpt><trkpt lat="45.735283347069696" lon="10.717490703906472"><ele>452.0</ele><time>2026-03-28T16:17:36Z</time></trkpt><trkpt lat="45.735370945056594" lon="10.71745344445331"><ele>448.5</ele><time>2026-03-28T16:17:37Z</time></trkpt><trkpt lat="45.73548009554844" lon="10.717445462862528"><ele>445.0</ele><time>2026-03-28T16:17:38Z</time></trkpt><trkpt lat="45.735609857662496" lon="10.717434550246043"><ele>441.5</ele><time>2026-03-28T16:17:39Z</time></trkpt><trkpt lat="45.73574536295431" lon="10.7174228416717"><ele>438.0</ele><time>2026-03-28T16:17:40Z</time></trkpt><trkpt lat="45.735893811212414" lon="10.71738639320898"><ele>438.0</ele><time>2026-03-28T16:17:41Z</time></trkpt><trkpt lat="45.73603199154947" lon="10.717368078466167"><ele>438.0</ele><time>2026-03-28T16:17:42Z</time></trkpt><trkpt lat="45.73615400272736" lon="10.71731902453857"><ele>438.0</ele><time>2026-03-28T16:17:43Z</time></trkpt><trkpt lat="45.73626660899797" lon="10.717229943333978"><ele>438.0</ele><time>2026-03-28T16:17:44Z</time></trkpt><trkpt lat="45.736376685522046" lon="10.717145889636221"><ele>439.1666666666667</ele><time>2026-03-28T16:17:45Z</time></trkpt><trkpt lat="45.73648781906104" lon="10.717093063863201"><ele>440.33333333333337</ele><time>2026-03-28T16:17:46Z</time></trkpt><trkpt lat="45.73658262697267" lon="10.717059046761412"><ele>441.5</ele><time>2026-03-28T16:17:47Z</time></trkpt><trkpt lat="45.73665497194241" lon="10.717005608383591"><ele>442.6666666666667</ele><time>2026-03-28T16:17:48Z</time></trkpt><trkpt lat="45.73672512420772" lon="10.716975985081744"><ele>443.83333333333337</ele><time>2026-03-28T16:17:49Z</time></trkpt><trkpt lat="45.736735946598515" lon="10.716869385868613"><ele>445.0</ele><time>2026-03-28T16:17:50Z</time></trkpt><trkpt lat="45.73670973317851" lon="10.716762834949659"><ele>445.0</ele><time>2026-03-28T16:17:51Z</time></trkpt><trkpt lat="45.7366611264628" lon="10.71669002454591"><ele>445.0</ele><time>2026-03-28T16:17:52Z</time></trkpt><trkpt lat="45.7365896673917" lon="10.716645106421899"><ele>445.0</ele><time>2026-03-28T16:17:53Z</time></trkpt><trkpt lat="45.73647631660569" lon="10.716700202082054"><ele>445.0</ele><time>2026-03-28T16:17:54Z</time></trkpt><trkpt lat="45.73636973068609" lon="10.716785858555951"><ele>445.0</ele><time>2026-03-28T16:17:55Z</time></trkpt><trkpt lat="45.73625307659295" lon="10.71683550008005"><ele>445.0</ele><time>2026-03-28T16:17:56Z</time></trkpt><trkpt lat="45.73612196030778" lon="10.716887419814759"><ele>445.0</ele><time>2026-03-28T16:17:57Z</time></trkpt><trkpt lat="45.735983864686204" lon="10.71690783373891"><ele>445.0</ele><time>2026-03-28T16:17:57.999Z</time></trkpt><trkpt lat="45.73583764175312" lon="10.7168734578495"><ele>445.0</ele><time>2026-03-28T16:17:58.999Z</time></trkpt><trkpt lat="45.73569240150334" lon="10.716819758130084"><ele>442.75</ele><time>2026-03-28T16:17:59.999Z</time></trkpt><trkpt lat="45.7355584625406" lon="10.716760845378909"><ele>440.5</ele><time>2026-03-28T16:18:00.999Z</time></trkpt><trkpt lat="45.73542974881957" lon="10.716688138870266"><ele>438.25</ele><time>2026-03-28T16:18:01.999Z</time></trkpt><trkpt lat="45.73532302388351" lon="10.716574440456574"><ele>436.0</ele><time>2026-03-28T16:18:02.999Z</time></trkpt><trkpt lat="45.735204659140045" lon="10.71644767221404"><ele>432.0</ele><time>2026-03-28T16:18:03.999Z</time></trkpt><trkpt lat="45.735081171667446" lon="10.716313035769282"><ele>428.0</ele><time>2026-03-28T16:18:04.999Z</time></trkpt><trkpt lat="45.73495983612819" lon="10.716177678890357"><ele>424.0</ele><time>2026-03-28T16:18:05.999Z</time></trkpt><trkpt lat="45.73484595662223" lon="10.716055089253816"><ele>424.0</ele><time>2026-03-28T16:18:06.999Z</time></trkpt><trkpt lat="45.73475318729404" lon="10.715950742111357"><ele>424.0</ele><time>2026-03-28T16:18:07.999Z</time></trkpt><trkpt lat="45.73469229896178" lon="10.715848581050468"><ele>424.0</ele><time>2026-03-28T16:18:08.999Z</time></trkpt><trkpt lat="45.73463727161694" lon="10.715750771691223"><ele>424.0</ele><time>2026-03-28T16:18:09.999Z</time></trkpt><trkpt lat="45.73465194619945" lon="10.715605815470747"><ele>424.0</ele><time>2026-03-28T16:18:10.999Z</time></trkpt><trkpt lat="45.73469754178324" lon="10.715468167024065"><ele>424.0</ele><time>2026-03-28T16:18:11.999Z</time></trkpt><trkpt lat="45.73476406028732" lon="10.715348544990148"><ele>424.0</ele><time>2026-03-28T16:18:12.999Z</time></trkpt><trkpt lat="45.734824747182245" lon="10.715202481461287"><ele>424.0</ele><time>2026-03-28T16:18:13.999Z</time></trkpt><trkpt lat="45.73486812737966" lon="10.715073462845893"><ele>424.0</ele><time>2026-03-28T16:18:14.999Z</time></trkpt><trkpt lat="45.734870974174996" lon="10.714957523200194"><ele>424.0</ele><time>2026-03-28T16:18:15.999Z</time></trkpt><trkpt lat="45.73483259398258" lon="10.714859298483281"><ele>425.75</ele><time>2026-03-28T16:18:16.999Z</time></trkpt><trkpt lat="45.734753527550474" lon="10.714775355791966"><ele>427.5</ele><time>2026-03-28T16:18:17.999Z</time></trkpt><trkpt lat="45.734633449496236" lon="10.714697840375356"><ele>429.25</ele><time>2026-03-28T16:18:18.999Z</time></trkpt><trkpt lat="45.73451653349342" lon="10.714647127421644"><ele>431.0</ele><time>2026-03-28T16:18:19.999Z</time></trkpt><trkpt lat="45.734407531553956" lon="10.714641902067536"><ele>426.0</ele><time>2026-03-28T16:18:20.999Z</time></trkpt><trkpt lat="45.73431212937681" lon="10.714694540993674"><ele>421.0</ele><time>2026-03-28T16:18:21.999Z</time></trkpt><trkpt lat="45.73422644282662" lon="10.714799526685463"><ele>416.0</ele><time>2026-03-28T16:18:22.999Z</time></trkpt><trkpt lat="45.73413802210462" lon="10.714962831411972"><ele>411.0</ele><time>2026-03-28T16:18:23.999Z</time></trkpt><trkpt lat="45.734030551585384" lon="10.715098560482156"><ele>411.0</ele><time>2026-03-28T16:18:24.999Z</time></trkpt><trkpt lat="45.7339004684764" lon="10.715207716624443"><ele>411.0</ele><time>2026-03-28T16:18:25.999Z</time></trkpt><trkpt lat="45.733751641581" lon="10.715306889580376"><ele>411.0</ele><time>2026-03-28T16:18:26.999Z</time></trkpt><trkpt lat="45.73358933244289" lon="10.715421315128253"><ele>404.33333333333337</ele><time>2026-03-28T16:18:27.999Z</time></trkpt><trkpt lat="45.73344075814046" lon="10.715554432606503"><ele>397.6666666666667</ele><time>2026-03-28T16:18:28.999Z</time></trkpt><trkpt lat="45.73329081035504" lon="10.71565030551022"><ele>391.0</ele><time>2026-03-28T16:18:29.999Z</time></trkpt><trkpt lat="45.73314506537358" lon="10.715736754476033"><ele>391.0</ele><time>2026-03-28T16:18:30.999Z</time></trkpt><trkpt lat="45.73303929506867" lon="10.715859169742718"><ele>391.0</ele><time>2026-03-28T16:18:31.999Z</time></trkpt><trkpt lat="45.73294705261986" lon="10.715975769397867"><ele>391.0</ele><time>2026-03-28T16:18:32.999Z</time></trkpt><trkpt lat="45.73285621004212" lon="10.716045257027504"><ele>391.0</ele><time>2026-03-28T16:18:33.999Z</time></trkpt><trkpt lat="45.73276044298105" lon="10.716052609941745"><ele>392.25</ele><time>2026-03-28T16:18:34.999Z</time></trkpt><trkpt lat="45.73264968114078" lon="10.71599839523223"><ele>393.5</ele><time>2026-03-28T16:18:35.999Z</time></trkpt><trkpt lat="45.73252033164281" lon="10.715988958854217"><ele>394.75</ele><time>2026-03-28T16:18:36.999Z</time></trkpt><trkpt lat="45.73240453502462" lon="10.716036548085363"><ele>396.0</ele><time>2026-03-28T16:18:37.999Z</time></trkpt><trkpt lat="45.73228378502857" lon="10.71612057909325"><ele>388.0</ele><time>2026-03-28T16:18:38.999Z</time></trkpt><trkpt lat="45.73215521033559" lon="10.716240815099017"><ele>380.0</ele><time>2026-03-28T16:18:39.999Z</time></trkpt><trkpt lat="45.73200440112643" lon="10.716296502923939"><ele>372.0</ele><time>2026-03-28T16:18:41Z</time></trkpt><trkpt lat="45.73184256132802" lon="10.716340293705734"><ele>371.0</ele><time>2026-03-28T16:18:42Z</time></trkpt><trkpt lat="45.731698157312415" lon="10.716375585769356"><ele>370.0</ele><time>2026-03-28T16:18:43Z</time></trkpt><trkpt lat="45.7315813563784" lon="10.716402976566224"><ele>369.0</ele><time>2026-03-28T16:18:44Z</time></trkpt><trkpt lat="45.73148964585472" lon="10.716421029815097"><ele>368.0</ele><time>2026-03-28T16:18:45Z</time></trkpt><trkpt lat="45.73141500949749" lon="10.716406017525943"><ele>367.0</ele><time>2026-03-28T16:18:46Z</time></trkpt><trkpt lat="45.73135365223108" lon="10.716345568468585"><ele>367.0</ele><time>2026-03-28T16:18:47Z</time></trkpt><trkpt lat="45.73131862609689" lon="10.716247629783709"><ele>367.0</ele><time>2026-03-28T16:18:48Z</time></trkpt><trkpt lat="45.73131908301947" lon="10.716121651100444"><ele>367.0</ele><time>2026-03-28T16:18:49Z</time></trkpt><trkpt lat="45.73135653080858" lon="10.715973727091578"><ele>367.0</ele><time>2026-03-28T16:18:50Z</time></trkpt><trkpt lat="45.73137811088666" lon="10.715790275326638"><ele>367.0</ele><time>2026-03-28T16:18:51Z</time></trkpt><trkpt lat="45.73141851316353" lon="10.715588578601487"><ele>371.25</ele><time>2026-03-28T16:18:52Z</time></trkpt><trkpt lat="45.73144874733024" lon="10.715377242443195"><ele>375.5</ele><time>2026-03-28T16:18:53Z</time></trkpt><trkpt lat="45.73145803895232" lon="10.715188671458844"><ele>379.75</ele><time>2026-03-28T16:18:54Z</time></trkpt><trkpt lat="45.73143040163162" lon="10.714998539061837"><ele>384.0</ele><time>2026-03-28T16:18:55Z</time></trkpt><trkpt lat="45.731387280311274" lon="10.714814657094994"><ele>384.5</ele><time>2026-03-28T16:18:56Z</time></trkpt><trkpt lat="45.73134387100277" lon="10.714640474291567"><ele>385.0</ele><time>2026-03-28T16:18:57Z</time></trkpt><trkpt lat="45.73131279663624" lon="10.714458533020547"><ele>385.5</ele><time>2026-03-28T16:18:58Z</time></trkpt><trkpt lat="45.73127576348236" lon="10.714278366642954"><ele>386.0</ele><time>2026-03-28T16:18:59Z</time></trkpt><trkpt lat="45.73124134794729" lon="10.714098178315501"><ele>386.25</ele><time>2026-03-28T16:19:00Z</time></trkpt><trkpt lat="45.731216588814085" lon="10.71391607084279"><ele>386.5</ele><time>2026-03-28T16:19:01Z</time></trkpt><trkpt lat="45.73120756633754" lon="10.713724069357095"><ele>386.75</ele><time>2026-03-28T16:19:02Z</time></trkpt><trkpt lat="45.73122063889676" lon="10.713521169819414"><ele>387.0</ele><time>2026-03-28T16:19:03Z</time></trkpt><trkpt lat="45.731246246228224" lon="10.713300187265752"><ele>387.0</ele><time>2026-03-28T16:19:04Z</time></trkpt><trkpt lat="45.731273375722886" lon="10.71307010365653"><ele>387.0</ele><time>2026-03-28T16:19:05Z</time></trkpt><trkpt lat="45.73129330693612" lon="10.712836353221334"><ele>387.0</ele><time>2026-03-28T16:19:06Z</time></trkpt><trkpt lat="45.73135085959623" lon="10.712621718719332"><ele>385.25</ele><time>2026-03-28T16:19:07Z</time></trkpt><trkpt lat="45.73139218969627" lon="10.712401290950464"><ele>383.5</ele><time>2026-03-28T16:19:08Z</time></trkpt><trkpt lat="45.73142231771539" lon="10.712204451901322"><ele>381.75</ele><time>2026-03-28T16:19:09Z</time></trkpt><trkpt lat="45.73143791886245" lon="10.712027575596714"><ele>380.0</ele><time>2026-03-28T16:19:10Z</time></trkpt><trkpt lat="45.73144982819542" lon="10.711857850102765"><ele>378.0</ele><time>2026-03-28T16:19:11Z</time></trkpt><trkpt lat="45.731450563369606" lon="10.711704389186059"><ele>376.0</ele><time>2026-03-28T16:19:12Z</time></trkpt><trkpt lat="45.73148424364846" lon="10.711580607044604"><ele>374.0</ele><time>2026-03-28T16:19:13Z</time></trkpt><trkpt lat="45.731559283435296" lon="10.711490498255474"><ele>372.0</ele><time>2026-03-28T16:19:14Z</time></trkpt><trkpt lat="45.73164709444094" lon="10.711402052569518"><ele>370.0</ele><time>2026-03-28T16:19:15Z</time></trkpt><trkpt lat="45.73172924399024" lon="10.71128828728778"><ele>370.0</ele><time>2026-03-28T16:19:16Z</time></trkpt><trkpt lat="45.73180936980201" lon="10.711200764753393"><ele>370.0</ele><time>2026-03-28T16:19:17Z</time></trkpt><trkpt lat="45.731892571568444" lon="10.71112030595501"><ele>370.0</ele><time>2026-03-28T16:19:18Z</time></trkpt><trkpt lat="45.731983477503285" lon="10.711050714416295"><ele>370.0</ele><time>2026-03-28T16:19:19Z</time></trkpt><trkpt lat="45.73206419271055" lon="10.710980497980852"><ele>370.0</ele><time>2026-03-28T16:19:20Z</time></trkpt><trkpt lat="45.732123036467414" lon="10.710910356127211"><ele>381.0</ele><time>2026-03-28T16:19:21Z</time></trkpt><trkpt lat="45.732217126747116" lon="10.710824273620815"><ele>392.0</ele><time>2026-03-28T16:19:23Z</time></trkpt><trkpt lat="45.732214337980565" lon="10.710624593864376"><ele>403.0</ele><time>2026-03-28T16:19:25Z</time></trkpt><trkpt lat="45.73215620003085" lon="10.710540317825751"><ele>414.0</ele><time>2026-03-28T16:19:26Z</time></trkpt><trkpt lat="45.732055897105795" lon="10.710454170573673"><ele>414.0</ele><time>2026-03-28T16:19:27Z</time></trkpt><trkpt lat="45.731974811439464" lon="10.71033904461822"><ele>414.0</ele><time>2026-03-28T16:19:28Z</time></trkpt><trkpt lat="45.7318988705431" lon="10.710228184789576"><ele>414.0</ele><time>2026-03-28T16:19:29Z</time></trkpt><trkpt lat="45.73182341604487" lon="10.710116429378104"><ele>414.0</ele><time>2026-03-28T16:19:30Z</time></trkpt><trkpt lat="45.73175542686299" lon="10.71000455843659"><ele>414.0</ele><time>2026-03-28T16:19:31Z</time></trkpt><trkpt lat="45.73169768761228" lon="10.70989147800736"><ele>408.4</ele><time>2026-03-28T16:19:32Z</time></trkpt><trkpt lat="45.731627820816655" lon="10.709766078024543"><ele>402.79999999999995</ele><time>2026-03-28T16:19:33Z</time></trkpt><trkpt lat="45.731547995434674" lon="10.709670075131974"><ele>397.20000000000005</ele><time>2026-03-28T16:19:34Z</time></trkpt><trkpt lat="45.7314749975835" lon="10.709583443485108"><ele>391.6</ele><time>2026-03-28T16:19:35Z</time></trkpt><trkpt lat="45.73141907826379" lon="10.70946976605221"><ele>386.0</ele><time>2026-03-28T16:19:36Z</time></trkpt><trkpt lat="45.73139885200701" lon="10.709327341244105"><ele>386.0</ele><time>2026-03-28T16:19:37Z</time></trkpt><trkpt lat="45.73137034070258" lon="10.709169373205835"><ele>386.0</ele><time>2026-03-28T16:19:38Z</time></trkpt><trkpt lat="45.73128795380801" lon="10.709018280381082"><ele>386.0</ele><time>2026-03-28T16:19:39Z</time></trkpt><trkpt lat="45.731201040066985" lon="10.708933268745737"><ele>386.0</ele><time>2026-03-28T16:19:40Z</time></trkpt><trkpt lat="45.7311442195481" lon="10.70879168461937"><ele>386.0</ele><time>2026-03-28T16:19:41Z</time></trkpt><trkpt lat="45.73108190752251" lon="10.708657091841365"><ele>386.0</ele><time>2026-03-28T16:19:42Z</time></trkpt><trkpt lat="45.731038100715836" lon="10.708526910606778"><ele>386.0</ele><time>2026-03-28T16:19:43Z</time></trkpt><trkpt lat="45.73102868814994" lon="10.708400447471849"><ele>386.0</ele><time>2026-03-28T16:19:44Z</time></trkpt><trkpt lat="45.73103611318723" lon="10.708265020100647"><ele>386.0</ele><time>2026-03-28T16:19:45Z</time></trkpt><trkpt lat="45.73113101582557" lon="10.708159119516047"><ele>389.20000000000005</ele><time>2026-03-28T16:19:46Z</time></trkpt><trkpt lat="45.73117350381157" lon="10.70801412481816"><ele>392.40000000000003</ele><time>2026-03-28T16:19:47Z</time></trkpt><trkpt lat="45.73119570157112" lon="10.707866790408053"><ele>395.6</ele><time>2026-03-28T16:19:48Z</time></trkpt><trkpt lat="45.73117617908188" lon="10.707716034794261"><ele>398.8</ele><time>2026-03-28T16:19:49Z</time></trkpt><trkpt lat="45.73111706918616" lon="10.707585915700014"><ele>402.0</ele><time>2026-03-28T16:19:50Z</time></trkpt><trkpt lat="45.731078439836175" lon="10.707442898780341"><ele>400.20000000000005</ele><time>2026-03-28T16:19:51Z</time></trkpt><trkpt lat="45.731108970502845" lon="10.707294494475462"><ele>398.4</ele><time>2026-03-28T16:19:52Z</time></trkpt><trkpt lat="45.73117026387124" lon="10.707169643189141"><ele>396.6</ele><time>2026-03-28T16:19:53Z</time></trkpt><trkpt lat="45.73120909136093" lon="10.707020327526173"><ele>394.79999999999995</ele><time>2026-03-28T16:19:54Z</time></trkpt><trkpt lat="45.73121120351265" lon="10.706861045836598"><ele>393.0</ele><time>2026-03-28T16:19:55Z</time></trkpt><trkpt lat="45.73118961562919" lon="10.70667607415208"><ele>393.0</ele><time>2026-03-28T16:19:56Z</time></trkpt><trkpt lat="45.73116271298616" lon="10.70650318694342"><ele>393.0</ele><time>2026-03-28T16:19:57Z</time></trkpt><trkpt lat="45.731154199168024" lon="10.706334512906826"><ele>393.0</ele><time>2026-03-28T16:19:58Z</time></trkpt><trkpt lat="45.73113705301947" lon="10.706183409565462"><ele>393.0</ele><time>2026-03-28T16:19:59Z</time></trkpt><trkpt lat="45.73110176043596" lon="10.706054639053333"><ele>393.0</ele><time>2026-03-28T16:20:00Z</time></trkpt><trkpt lat="45.731096332409024" lon="10.705919601613282"><ele>394.8333333333333</ele><time>2026-03-28T16:20:01Z</time></trkpt><trkpt lat="45.73107425661826" lon="10.70578851975322"><ele>396.66666666666663</ele><time>2026-03-28T16:20:02Z</time></trkpt><trkpt lat="45.731047804767854" lon="10.70568029773738"><ele>398.5</ele><time>2026-03-28T16:20:03Z</time></trkpt><trkpt lat="45.7310078921443" lon="10.705600097469121"><ele>400.3333333333333</ele><time>2026-03-28T16:20:04Z</time></trkpt><trkpt lat="45.730934324308734" lon="10.705565488550482"><ele>402.16666666666663</ele><time>2026-03-28T16:20:05Z</time></trkpt><trkpt lat="45.73084037530462" lon="10.705628329486943"><ele>404.0</ele><time>2026-03-28T16:20:06Z</time></trkpt><trkpt lat="45.730785007211615" lon="10.705703756627596"><ele>390.25</ele><time>2026-03-28T16:20:07Z</time></trkpt><trkpt lat="45.730726953372596" lon="10.70579723109116"><ele>376.5</ele><time>2026-03-28T16:20:08Z</time></trkpt><trkpt lat="45.730769904470975" lon="10.705990660397642"><ele>362.75</ele><time>2026-03-28T16:20:09Z</time></trkpt><trkpt lat="45.730767201079715" lon="10.706147496904103"><ele>349.0</ele><time>2026-03-28T16:20:10Z</time></trkpt><trkpt lat="45.73075350577646" lon="10.706308277465087"><ele>345.25</ele><time>2026-03-28T16:20:11Z</time></trkpt><trkpt lat="45.73074959387671" lon="10.706477565154916"><ele>341.5</ele><time>2026-03-28T16:20:12Z</time></trkpt><trkpt lat="45.730722788355365" lon="10.706648775991596"><ele>337.75</ele><time>2026-03-28T16:20:12.999Z</time></trkpt><trkpt lat="45.73068007926485" lon="10.706805826311081"><ele>334.0</ele><time>2026-03-28T16:20:13.999Z</time></trkpt><trkpt lat="45.73060636634148" lon="10.706972721706943"><ele>334.0</ele><time>2026-03-28T16:20:14.999Z</time></trkpt><trkpt lat="45.73054263875109" lon="10.70715249354596"><ele>334.0</ele><time>2026-03-28T16:20:15.999Z</time></trkpt><trkpt lat="45.73050761926744" lon="10.707339543213674"><ele>334.0</ele><time>2026-03-28T16:20:16.999Z</time></trkpt><trkpt lat="45.73047312649578" lon="10.707523584011806"><ele>334.0</ele><time>2026-03-28T16:20:17.999Z</time></trkpt><trkpt lat="45.730443674502155" lon="10.70769318583644"><ele>332.5</ele><time>2026-03-28T16:20:18.999Z</time></trkpt><trkpt lat="45.73040718240612" lon="10.707860152424374"><ele>331.0</ele><time>2026-03-28T16:20:19.999Z</time></trkpt><trkpt lat="45.73032506281487" lon="10.707997522833079"><ele>329.5</ele><time>2026-03-28T16:20:20.999Z</time></trkpt><trkpt lat="45.730244891984654" lon="10.708155196815449"><ele>328.0</ele><time>2026-03-28T16:20:21.999Z</time></trkpt><trkpt lat="45.730162608937434" lon="10.708321401095537"><ele>326.75</ele><time>2026-03-28T16:20:22.999Z</time></trkpt><trkpt lat="45.73009851454702" lon="10.708494267707078"><ele>325.5</ele><time>2026-03-28T16:20:23.999Z</time></trkpt><trkpt lat="45.73006210296519" lon="10.708677329272044"><ele>324.25</ele><time>2026-03-28T16:20:24.999Z</time></trkpt><trkpt lat="45.73004531943014" lon="10.708870400951318"><ele>323.0</ele><time>2026-03-28T16:20:25.999Z</time></trkpt><trkpt lat="45.7300160709397" lon="10.709046614081396"><ele>320.0</ele><time>2026-03-28T16:20:26.999Z</time></trkpt><trkpt lat="45.729973252385015" lon="10.7092132380786"><ele>317.0</ele><time>2026-03-28T16:20:27.999Z</time></trkpt><trkpt lat="45.72993709549917" lon="10.709377406081487"><ele>314.0</ele><time>2026-03-28T16:20:28.999Z</time></trkpt><trkpt lat="45.72994660239838" lon="10.709580096214586"><ele>311.0</ele><time>2026-03-28T16:20:29.999Z</time></trkpt><trkpt lat="45.72997317440935" lon="10.709750576649434"><ele>309.0</ele><time>2026-03-28T16:20:30.999Z</time></trkpt><trkpt lat="45.72998775152471" lon="10.709913620278313"><ele>307.0</ele><time>2026-03-28T16:20:31.999Z</time></trkpt><trkpt lat="45.72993972850064" lon="10.71007177174583"><ele>305.0</ele><time>2026-03-28T16:20:32.999Z</time></trkpt><trkpt lat="45.72987081352144" lon="10.7102130532602"><ele>303.0</ele><time>2026-03-28T16:20:33.999Z</time></trkpt><trkpt lat="45.729776674859785" lon="10.710356818118969"><ele>299.75</ele><time>2026-03-28T16:20:34.999Z</time></trkpt><trkpt lat="45.729684845937115" lon="10.710511378768068"><ele>296.5</ele><time>2026-03-28T16:20:35.999Z</time></trkpt><trkpt lat="45.72959990164504" lon="10.710665848466938"><ele>293.25</ele><time>2026-03-28T16:20:36.999Z</time></trkpt><trkpt lat="45.72953468005625" lon="10.710843810438039"><ele>290.0</ele><time>2026-03-28T16:20:37.999Z</time></trkpt><trkpt lat="45.72949580986967" lon="10.711036530573804"><ele>288.25</ele><time>2026-03-28T16:20:38.999Z</time></trkpt><trkpt lat="45.729470305349864" lon="10.711207359993463"><ele>286.5</ele><time>2026-03-28T16:20:39.999Z</time></trkpt><trkpt lat="45.72943829251208" lon="10.711367397050589"><ele>284.75</ele><time>2026-03-28T16:20:40.999Z</time></trkpt><trkpt lat="45.729382726843646" lon="10.711516282552116"><ele>283.0</ele><time>2026-03-28T16:20:41.999Z</time></trkpt><trkpt lat="45.729304965953936" lon="10.711659812895254"><ele>284.25</ele><time>2026-03-28T16:20:42.999Z</time></trkpt><trkpt lat="45.72921489470016" lon="10.711801055923944"><ele>285.5</ele><time>2026-03-28T16:20:43.999Z</time></trkpt><trkpt lat="45.729117301684646" lon="10.711917539741062"><ele>286.75</ele><time>2026-03-28T16:20:44.999Z</time></trkpt><trkpt lat="45.72902805307342" lon="10.712020471859054"><ele>288.0</ele><time>2026-03-28T16:20:45.999Z</time></trkpt><trkpt lat="45.728922589939145" lon="10.712095041827656"><ele>288.0</ele><time>2026-03-28T16:20:47Z</time></trkpt><trkpt lat="45.728803476186066" lon="10.712126876498985"><ele>288.0</ele><time>2026-03-28T16:20:48Z</time></trkpt><trkpt lat="45.728666941783956" lon="10.712144424315376"><ele>288.0</ele><time>2026-03-28T16:20:49Z</time></trkpt><trkpt lat="45.72851528559918" lon="10.7121568136068"><ele>288.0</ele><time>2026-03-28T16:20:50Z</time></trkpt><trkpt lat="45.728366828972334" lon="10.712204552699914"><ele>290.5</ele><time>2026-03-28T16:20:51Z</time></trkpt><trkpt lat="45.7282382802661" lon="10.71224142145312"><ele>293.0</ele><time>2026-03-28T16:20:52Z</time></trkpt><trkpt lat="45.72811889825787" lon="10.712341847564343"><ele>295.5</ele><time>2026-03-28T16:20:53Z</time></trkpt><trkpt lat="45.72799904081011" lon="10.712495759179784"><ele>298.0</ele><time>2026-03-28T16:20:54Z</time></trkpt><trkpt lat="45.727849179916745" lon="10.712639774459342"><ele>297.0</ele><time>2026-03-28T16:20:55Z</time></trkpt><trkpt lat="45.727703586465104" lon="10.712793737062347"><ele>296.0</ele><time>2026-03-28T16:20:56Z</time></trkpt><trkpt lat="45.727563379039026" lon="10.712974912454"><ele>295.0</ele><time>2026-03-28T16:20:57Z</time></trkpt><trkpt lat="45.72743102064768" lon="10.71312431658244"><ele>295.0</ele><time>2026-03-28T16:20:58Z</time></trkpt><trkpt lat="45.72731469172762" lon="10.713279807398761"><ele>295.0</ele><time>2026-03-28T16:20:59Z</time></trkpt><trkpt lat="45.72723152768982" lon="10.713448066320382"><ele>295.0</ele><time>2026-03-28T16:21:00Z</time></trkpt><trkpt lat="45.727170020508616" lon="10.713607931656766"><ele>295.0</ele><time>2026-03-28T16:21:01Z</time></trkpt><trkpt lat="45.72709459465538" lon="10.713732618292326"><ele>297.4</ele><time>2026-03-28T16:21:02Z</time></trkpt><trkpt lat="45.727005905409555" lon="10.71381251619155"><ele>299.8</ele><time>2026-03-28T16:21:03Z</time></trkpt><trkpt lat="45.72690568213297" lon="10.713814113249185"><ele>302.2</ele><time>2026-03-28T16:21:04Z</time></trkpt><trkpt lat="45.7268069381879" lon="10.713760407086214"><ele>304.6</ele><time>2026-03-28T16:21:05Z</time></trkpt><trkpt lat="45.726703748768834" lon="10.713672675255182"><ele>307.0</ele><time>2026-03-28T16:21:06Z</time></trkpt><trkpt lat="45.726587791783516" lon="10.713565587426508"><ele>307.0</ele><time>2026-03-28T16:21:07Z</time></trkpt><trkpt lat="45.72645569251515" lon="10.71346697121187"><ele>307.0</ele><time>2026-03-28T16:21:08Z</time></trkpt><trkpt lat="45.726325626039944" lon="10.713353849546992"><ele>307.0</ele><time>2026-03-28T16:21:09Z</time></trkpt><trkpt lat="45.726188314206986" lon="10.713268628756673"><ele>291.75</ele><time>2026-03-28T16:21:10Z</time></trkpt><trkpt lat="45.72604965944651" lon="10.7132215754136"><ele>276.5</ele><time>2026-03-28T16:21:11Z</time></trkpt><trkpt lat="45.72592146666177" lon="10.713147744980208"><ele>261.25</ele><time>2026-03-28T16:21:12Z</time></trkpt><trkpt lat="45.72579575092161" lon="10.713105345902"><ele>246.0</ele><time>2026-03-28T16:21:13Z</time></trkpt><trkpt lat="45.72570043930654" lon="10.713059585371044"><ele>246.0</ele><time>2026-03-28T16:21:14Z</time></trkpt><trkpt lat="45.72561415911368" lon="10.7130219044538"><ele>246.00000000000003</ele><time>2026-03-28T16:21:15Z</time></trkpt><trkpt lat="45.72557752181647" lon="10.712886809026257"><ele>246.00000000000003</ele><time>2026-03-28T16:21:16Z</time></trkpt><trkpt lat="45.72556433091296" lon="10.712729406248327"><ele>246.0</ele><time>2026-03-28T16:21:17Z</time></trkpt><trkpt lat="45.725530832710184" lon="10.712566354249345"><ele>246.0</ele><time>2026-03-28T16:21:18Z</time></trkpt><trkpt lat="45.72546509178417" lon="10.712435479617268"><ele>253.5</ele><time>2026-03-28T16:21:19Z</time></trkpt><trkpt lat="45.72535968743495" lon="10.7123509007274"><ele>261.0</ele><time>2026-03-28T16:21:20Z</time></trkpt><trkpt lat="45.725282491902" lon="10.712217613156598"><ele>268.5</ele><time>2026-03-28T16:21:21Z</time></trkpt><trkpt lat="45.72519257426864" lon="10.712087787801897"><ele>276.0</ele><time>2026-03-28T16:21:22Z</time></trkpt><trkpt lat="45.72510445406282" lon="10.711960557408927"><ele>279.0</ele><time>2026-03-28T16:21:23Z</time></trkpt><trkpt lat="45.725019306263526" lon="10.711832806542303"><ele>282.0</ele><time>2026-03-28T16:21:24Z</time></trkpt><trkpt lat="45.724958977604885" lon="10.711683725330246"><ele>285.0</ele><time>2026-03-28T16:21:25Z</time></trkpt><trkpt lat="45.72490991984909" lon="10.711511527736254"><ele>288.0</ele><time>2026-03-28T16:21:26Z</time></trkpt><trkpt lat="45.72484409156629" lon="10.711364182869886"><ele>288.0</ele><time>2026-03-28T16:21:27Z</time></trkpt><trkpt lat="45.724761328515406" lon="10.71121684313891"><ele>288.0</ele><time>2026-03-28T16:21:28Z</time></trkpt><trkpt lat="45.72467044103131" lon="10.711071194286639"><ele>288.0</ele><time>2026-03-28T16:21:29Z</time></trkpt><trkpt lat="45.72456346021201" lon="10.710930230707746"><ele>288.0</ele><time>2026-03-28T16:21:30Z</time></trkpt><trkpt lat="45.72445177707957" lon="10.710803243392185"><ele>284.0</ele><time>2026-03-28T16:21:31Z</time></trkpt><trkpt lat="45.7243458103868" lon="10.71068284716839"><ele>280.0</ele><time>2026-03-28T16:21:32Z</time></trkpt><trkpt lat="45.724269641640205" lon="10.710547970988506"><ele>276.0</ele><time>2026-03-28T16:21:33Z</time></trkpt><trkpt lat="45.724192903633835" lon="10.710397016146699"><ele>272.0</ele><time>2026-03-28T16:21:34Z</time></trkpt><trkpt lat="45.72410925334289" lon="10.710253561016165"><ele>276.2</ele><time>2026-03-28T16:21:35Z</time></trkpt><trkpt lat="45.724018923855645" lon="10.710124510845151"><ele>280.4</ele><time>2026-03-28T16:21:36Z</time></trkpt><trkpt lat="45.72392578986504" lon="10.71003053075712"><ele>284.6</ele><time>2026-03-28T16:21:37Z</time></trkpt><trkpt lat="45.72383527787603" lon="10.709969063084625"><ele>288.8</ele><time>2026-03-28T16:21:38Z</time></trkpt><trkpt lat="45.723761348072884" lon="10.709866023709731"><ele>293.0</ele><time>2026-03-28T16:21:39Z</time></trkpt><trkpt lat="45.72371051697326" lon="10.709734202904379"><ele>293.0</ele><time>2026-03-28T16:21:40Z</time></trkpt><trkpt lat="45.72367849406627" lon="10.709588413137773"><ele>293.0</ele><time>2026-03-28T16:21:41Z</time></trkpt><trkpt lat="45.72365172522208" lon="10.709425199207532"><ele>293.0</ele><time>2026-03-28T16:21:42Z</time></trkpt><trkpt lat="45.72362547505636" lon="10.709256766078571"><ele>293.0</ele><time>2026-03-28T16:21:43Z</time></trkpt><trkpt lat="45.72359812506865" lon="10.709092207461605"><ele>292.5</ele><time>2026-03-28T16:21:44Z</time></trkpt><trkpt lat="45.72357094456524" lon="10.70892045457929"><ele>292.0</ele><time>2026-03-28T16:21:45.019Z</time></trkpt><trkpt lat="45.723545142214114" lon="10.708750776971495"><ele>291.5</ele><time>2026-03-28T16:21:46.023Z</time></trkpt><trkpt lat="45.72351592460317" lon="10.708569538392767"><ele>291.0</ele><time>2026-03-28T16:21:47.021Z</time></trkpt><trkpt lat="45.72345728864622" lon="10.708379997327746"><ele>291.0</ele><time>2026-03-28T16:21:48.023Z</time></trkpt><trkpt lat="45.72342283445855" lon="10.708271930571726"><ele>291.0</ele><time>2026-03-28T16:21:49Z</time></trkpt><trkpt lat="45.72334889420854" lon="10.708302279710095"><ele>291.0</ele><time>2026-03-28T16:21:50Z</time></trkpt><trkpt lat="45.72315102658695" lon="10.708320197782779"><ele>291.0</ele><time>2026-03-28T16:21:51Z</time></trkpt><trkpt lat="45.723025732766835" lon="10.708327922526163"><ele>291.0</ele><time>2026-03-28T16:21:52Z</time></trkpt><trkpt lat="45.72290772784042" lon="10.708375030746902"><ele>291.0</ele><time>2026-03-28T16:21:53Z</time></trkpt><trkpt lat="45.722801483073916" lon="10.708408592594123"><ele>291.0</ele><time>2026-03-28T16:21:54Z</time></trkpt><trkpt lat="45.72269110692137" lon="10.708423669604985"><ele>291.0</ele><time>2026-03-28T16:21:55Z</time></trkpt><trkpt lat="45.72257400003701" lon="10.70839650164462"><ele>284.0</ele><time>2026-03-28T16:21:56Z</time></trkpt><trkpt lat="45.72244068421516" lon="10.708348690002365"><ele>277.0</ele><time>2026-03-28T16:21:57Z</time></trkpt><trkpt lat="45.72230657934132" lon="10.708292023971664"><ele>270.0</ele><time>2026-03-28T16:21:58Z</time></trkpt><trkpt lat="45.722176816177814" lon="10.708217784858324"><ele>263.0</ele><time>2026-03-28T16:21:59Z</time></trkpt><trkpt lat="45.72204880908156" lon="10.708112575868167"><ele>263.0</ele><time>2026-03-28T16:22:00Z</time></trkpt><trkpt lat="45.72190934651291" lon="10.70799802899311"><ele>263.0</ele><time>2026-03-28T16:22:01Z</time></trkpt><trkpt lat="45.721771547708755" lon="10.707901789690574"><ele>263.0</ele><time>2026-03-28T16:22:02Z</time></trkpt><trkpt lat="45.721622944366736" lon="10.707844718074705"><ele>264.0</ele><time>2026-03-28T16:22:03Z</time></trkpt><trkpt lat="45.72147854763272" lon="10.707786193335373"><ele>265.0</ele><time>2026-03-28T16:22:04Z</time></trkpt><trkpt lat="45.72134727864841" lon="10.707697947983664"><ele>266.0</ele><time>2026-03-28T16:22:05Z</time></trkpt><trkpt lat="45.72122468552288" lon="10.70759482421905"><ele>267.0</ele><time>2026-03-28T16:22:06Z</time></trkpt><trkpt lat="45.72110014626263" lon="10.707488663250038"><ele>259.5</ele><time>2026-03-28T16:22:07Z</time></trkpt><trkpt lat="45.720973128035844" lon="10.707382623490068"><ele>252.0</ele><time>2026-03-28T16:22:08Z</time></trkpt><trkpt lat="45.720846668922746" lon="10.707280159921519"><ele>244.5</ele><time>2026-03-28T16:22:09Z</time></trkpt><trkpt lat="45.72071994936805" lon="10.707186657424003"><ele>237.0</ele><time>2026-03-28T16:22:10Z</time></trkpt><trkpt lat="45.72062243259278" lon="10.707035815079958"><ele>235.33333333333331</ele><time>2026-03-28T16:22:11Z</time></trkpt><trkpt lat="45.72050437423063" lon="10.706908212564972"><ele>233.66666666666666</ele><time>2026-03-28T16:22:12Z</time></trkpt><trkpt lat="45.720370158401145" lon="10.70680006480974"><ele>232.0</ele><time>2026-03-28T16:22:13Z</time></trkpt><trkpt lat="45.720232317823005" lon="10.706698496726418"><ele>232.0</ele><time>2026-03-28T16:22:14Z</time></trkpt><trkpt lat="45.72009175029415" lon="10.706596391578026"><ele>232.0</ele><time>2026-03-28T16:22:15Z</time></trkpt><trkpt lat="45.71995610427885" lon="10.706500430586464"><ele>232.0</ele><time>2026-03-28T16:22:16Z</time></trkpt><trkpt lat="45.719822481108935" lon="10.706405926004647"><ele>232.0</ele><time>2026-03-28T16:22:17Z</time></trkpt><trkpt lat="45.71969407941053" lon="10.706312771780652"><ele>232.0</ele><time>2026-03-28T16:22:17.999Z</time></trkpt><trkpt lat="45.7195679821593" lon="10.706216762316938"><ele>232.0</ele><time>2026-03-28T16:22:18.999Z</time></trkpt><trkpt lat="45.71944793173657" lon="10.70612290306072"><ele>232.0</ele><time>2026-03-28T16:22:19.999Z</time></trkpt><trkpt lat="45.71933947433828" lon="10.706011223577152"><ele>230.5</ele><time>2026-03-28T16:22:20.999Z</time></trkpt><trkpt lat="45.71924951628657" lon="10.705876007535341"><ele>229.0</ele><time>2026-03-28T16:22:21.999Z</time></trkpt><trkpt lat="45.71916758224293" lon="10.705710308390524"><ele>227.5</ele><time>2026-03-28T16:22:22.999Z</time></trkpt><trkpt lat="45.71906772923048" lon="10.705542330808338"><ele>226.0</ele><time>2026-03-28T16:22:23.999Z</time></trkpt><trkpt lat="45.71898106704009" lon="10.705353922725067"><ele>233.0</ele><time>2026-03-28T16:22:24.999Z</time></trkpt><trkpt lat="45.71889488885498" lon="10.70516742851914"><ele>240.0</ele><time>2026-03-28T16:22:25.999Z</time></trkpt><trkpt lat="45.718804686803026" lon="10.704985503463005"><ele>247.0</ele><time>2026-03-28T16:22:26.999Z</time></trkpt><trkpt lat="45.71870531777381" lon="10.704810486720532"><ele>247.0</ele><time>2026-03-28T16:22:27.999Z</time></trkpt><trkpt lat="45.71860559533545" lon="10.704639688398109"><ele>247.0</ele><time>2026-03-28T16:22:28.999Z</time></trkpt><trkpt lat="45.71849013031915" lon="10.7044616339149"><ele>247.0</ele><time>2026-03-28T16:22:29.999Z</time></trkpt><trkpt lat="45.71836711856598" lon="10.704277751612532"><ele>240.33333333333331</ele><time>2026-03-28T16:22:30.999Z</time></trkpt><trkpt lat="45.71824737808779" lon="10.704097936017206"><ele>233.66666666666669</ele><time>2026-03-28T16:22:31.999Z</time></trkpt><trkpt lat="45.718135125575245" lon="10.703919571174506"><ele>227.0</ele><time>2026-03-28T16:22:32.999Z</time></trkpt><trkpt lat="45.718020159262444" lon="10.703746986750486"><ele>227.0</ele><time>2026-03-28T16:22:33.999Z</time></trkpt><trkpt lat="45.71791406377227" lon="10.703605409669334"><ele>227.0</ele><time>2026-03-28T16:22:34.999Z</time></trkpt><trkpt lat="45.717793112714396" lon="10.70350131229954"><ele>227.0</ele><time>2026-03-28T16:22:35.999Z</time></trkpt><trkpt lat="45.71765294681695" lon="10.703425139412872"><ele>227.0</ele><time>2026-03-28T16:22:36.999Z</time></trkpt><trkpt lat="45.71749488515478" lon="10.703372438795142"><ele>226.0</ele><time>2026-03-28T16:22:37.999Z</time></trkpt><trkpt lat="45.71735342553225" lon="10.703281449531914"><ele>225.0</ele><time>2026-03-28T16:22:38.999Z</time></trkpt><trkpt lat="45.717212668369626" lon="10.70320426128991"><ele>224.0</ele><time>2026-03-28T16:22:39.999Z</time></trkpt><trkpt lat="45.71707364273938" lon="10.703140953363988"><ele>224.0</ele><time>2026-03-28T16:22:40.999Z</time></trkpt><trkpt lat="45.716961654235824" lon="10.702998625464312"><ele>224.0</ele><time>2026-03-28T16:22:41.999Z</time></trkpt><trkpt lat="45.71685247247474" lon="10.702854102028388"><ele>224.0</ele><time>2026-03-28T16:22:42.999Z</time></trkpt><trkpt lat="45.71673488387606" lon="10.702722209701017"><ele>224.0</ele><time>2026-03-28T16:22:43.999Z</time></trkpt><trkpt lat="45.71659366428686" lon="10.702638464424066"><ele>224.66666666666669</ele><time>2026-03-28T16:22:44.999Z</time></trkpt><trkpt lat="45.71643595551727" lon="10.7025776363556"><ele>225.33333333333331</ele><time>2026-03-28T16:22:45.999Z</time></trkpt><trkpt lat="45.71627244318907" lon="10.702507711243944"><ele>226.0</ele><time>2026-03-28T16:22:46.999Z</time></trkpt><trkpt lat="45.71611002881718" lon="10.70239565933937"><ele>215.66666666666666</ele><time>2026-03-28T16:22:47.999Z</time></trkpt><trkpt lat="45.71594873370672" lon="10.702302043103728"><ele>205.33333333333331</ele><time>2026-03-28T16:22:48.999Z</time></trkpt><trkpt lat="45.715787889304764" lon="10.702208509267265"><ele>195.0</ele><time>2026-03-28T16:22:49.999Z</time></trkpt><trkpt lat="45.71563116745504" lon="10.702117554769897"><ele>195.0</ele><time>2026-03-28T16:22:50.999Z</time></trkpt><trkpt lat="45.71547714464006" lon="10.702019988830573"><ele>195.0</ele><time>2026-03-28T16:22:51.999Z</time></trkpt><trkpt lat="45.7153241191223" lon="10.70191814397874"><ele>195.0</ele><time>2026-03-28T16:22:53Z</time></trkpt><trkpt lat="45.7151777400893" lon="10.701826392442149"><ele>196.66666666666669</ele><time>2026-03-28T16:22:54Z</time></trkpt><trkpt lat="45.71503072753704" lon="10.70174109552634"><ele>198.33333333333334</ele><time>2026-03-28T16:22:55Z</time></trkpt><trkpt lat="45.7148836390658" lon="10.70166999954083"><ele>200.0</ele><time>2026-03-28T16:22:56Z</time></trkpt><trkpt lat="45.71475476617165" lon="10.701579050721126"><ele>200.0</ele><time>2026-03-28T16:22:57Z</time></trkpt><trkpt lat="45.714635252404655" lon="10.701462735868772"><ele>200.0</ele><time>2026-03-28T16:22:58Z</time></trkpt><trkpt lat="45.714504645067024" lon="10.701335643923146"><ele>200.0</ele><time>2026-03-28T16:22:59Z</time></trkpt><trkpt lat="45.714360582821314" lon="10.70122937678774"><ele>201.0</ele><time>2026-03-28T16:23:00Z</time></trkpt><trkpt lat="45.71422406094598" lon="10.701111457268576"><ele>202.0</ele><time>2026-03-28T16:23:01Z</time></trkpt><trkpt lat="45.71408691521347" lon="10.70100119020391"><ele>203.0</ele><time>2026-03-28T16:23:02Z</time></trkpt><trkpt lat="45.71394715614851" lon="10.70089836946148"><ele>203.0</ele><time>2026-03-28T16:23:03Z</time></trkpt><trkpt lat="45.713799770293214" lon="10.700807146607042"><ele>203.0</ele><time>2026-03-28T16:23:04Z</time></trkpt><trkpt lat="45.71366370559831" lon="10.700736600786232"><ele>203.0</ele><time>2026-03-28T16:23:05Z</time></trkpt><trkpt lat="45.71352570268301" lon="10.70070385385659"><ele>203.0</ele><time>2026-03-28T16:23:06Z</time></trkpt><trkpt lat="45.713400492523505" lon="10.700678308651716"><ele>198.2</ele><time>2026-03-28T16:23:07Z</time></trkpt><trkpt lat="45.713289077714066" lon="10.70065134874125"><ele>193.4</ele><time>2026-03-28T16:23:08Z</time></trkpt><trkpt lat="45.713190249986525" lon="10.70062171431919"><ele>188.6</ele><time>2026-03-28T16:23:09Z</time></trkpt><trkpt lat="45.71310263452071" lon="10.70057581781548"><ele>183.79999999999998</ele><time>2026-03-28T16:23:10Z</time></trkpt><trkpt lat="45.71304796998986" lon="10.700459139145252"><ele>179.0</ele><time>2026-03-28T16:23:11Z</time></trkpt><trkpt lat="45.71298104475472" lon="10.700387516293098"><ele>179.0</ele><time>2026-03-28T16:23:12Z</time></trkpt><trkpt lat="45.71291577101483" lon="10.700332398177762"><ele>179.0</ele><time>2026-03-28T16:23:13Z</time></trkpt><trkpt lat="45.71284433629265" lon="10.700338617989912"><ele>179.0</ele><time>2026-03-28T16:23:14Z</time></trkpt><trkpt lat="45.71276477876157" lon="10.700429540714165"><ele>179.0</ele><time>2026-03-28T16:23:16Z</time></trkpt><trkpt lat="45.71269536448753" lon="10.700459647996308"><ele>179.0</ele><time>2026-03-28T16:23:18Z</time></trkpt><trkpt lat="45.71262890131224" lon="10.700396672325176"><ele>179.0</ele><time>2026-03-28T16:23:19Z</time></trkpt><trkpt lat="45.71250071894433" lon="10.700319443853306"><ele>178.83333333333331</ele><time>2026-03-28T16:23:21Z</time></trkpt><trkpt lat="45.712432314789396" lon="10.700250016697385"><ele>178.66666666666666</ele><time>2026-03-28T16:23:22Z</time></trkpt><trkpt lat="45.71238150065887" lon="10.700170184849844"><ele>178.5</ele><time>2026-03-28T16:23:23Z</time></trkpt><trkpt lat="45.7124038120175" lon="10.70006619711602"><ele>178.33333333333334</ele><time>2026-03-28T16:23:24Z</time></trkpt><trkpt lat="45.71241413669246" lon="10.699961222312703"><ele>178.16666666666669</ele><time>2026-03-28T16:23:25Z</time></trkpt><trkpt lat="45.71241620458515" lon="10.699843132423155"><ele>178.0</ele><time>2026-03-28T16:23:26Z</time></trkpt><trkpt lat="45.71241860622949" lon="10.699713845700403"><ele>178.0</ele><time>2026-03-28T16:23:27.022Z</time></trkpt><trkpt lat="45.712419713711746" lon="10.699586368587815"><ele>178.0</ele><time>2026-03-28T16:23:28.022Z</time></trkpt><trkpt lat="45.712418274979235" lon="10.69942520764576"><ele>178.0</ele><time>2026-03-28T16:23:29.015Z</time></trkpt><trkpt lat="45.71239386018935" lon="10.699248161673298"><ele>178.0</ele><time>2026-03-28T16:23:30.021Z</time></trkpt><trkpt lat="45.71180320516953" lon="10.69850542040176"><ele>204.5</ele><time>2026-03-28T16:23:33.094Z</time></trkpt><trkpt lat="45.71159851177122" lon="10.698254225244629"><ele>231.0</ele><time>2026-03-28T16:23:34.094Z</time></trkpt><trkpt lat="45.71214453872692" lon="10.698749457726931"><ele>231.0</ele><time>2026-03-28T16:23:35.094Z</time></trkpt><trkpt lat="45.71202095326064" lon="10.698602050535264"><ele>231.0</ele><time>2026-03-28T16:23:36.094Z</time></trkpt><trkpt lat="45.71113980141453" lon="10.697658897838307"><ele>256.0</ele><time>2026-03-28T16:23:37.094Z</time></trkpt><trkpt lat="45.70821861638515" lon="10.691819779948053"><ele>256.0</ele><time>2026-03-28T16:24:11.778Z</time></trkpt><trkpt lat="45.70815977806438" lon="10.69157687730554"><ele>256.0</ele><time>2026-03-28T16:24:13Z</time></trkpt><trkpt lat="45.7081166683708" lon="10.691394614712532"><ele>256.0</ele><time>2026-03-28T16:24:14Z</time></trkpt><trkpt lat="45.70807144698437" lon="10.69122709941249"><ele>256.0</ele><time>2026-03-28T16:24:15.016Z</time></trkpt><trkpt lat="45.7075974233121" lon="10.689414197655521"><ele>162.0</ele><time>2026-03-28T16:24:27.586Z</time></trkpt><trkpt lat="45.70304612633372" lon="10.681228358308488"><ele>160.0</ele><time>2026-03-28T16:25:02.999Z</time></trkpt><trkpt lat="45.70297250752735" lon="10.68103746166692"><ele>158.0</ele><time>2026-03-28T16:25:03.999Z</time></trkpt><trkpt lat="45.702905519170585" lon="10.68084301428835"><ele>156.0</ele><time>2026-03-28T16:25:04.999Z</time></trkpt><trkpt lat="45.702839432101825" lon="10.680691949185562"><ele>154.0</ele><time>2026-03-28T16:25:05.999Z</time></trkpt><trkpt lat="45.70273505115181" lon="10.680549090681126"><ele>154.0</ele><time>2026-03-28T16:25:06.999Z</time></trkpt><trkpt lat="45.70263483044905" lon="10.68044779533044"><ele>154.0</ele><time>2026-03-28T16:25:07.999Z</time></trkpt><trkpt lat="45.702490517669425" lon="10.680380289465852"><ele>154.0</ele><time>2026-03-28T16:25:09Z</time></trkpt><trkpt lat="45.7023685005229" lon="10.680319436464604"><ele>154.0</ele><time>2026-03-28T16:25:10Z</time></trkpt><trkpt lat="45.70226065236493" lon="10.680218037784094"><ele>163.66666666666669</ele><time>2026-03-28T16:25:11Z</time></trkpt><trkpt lat="45.702160431564" lon="10.680079070451782"><ele>173.33333333333334</ele><time>2026-03-28T16:25:12Z</time></trkpt><trkpt lat="45.70206362561986" lon="10.679914195896709"><ele>183.0</ele><time>2026-03-28T16:25:13Z</time></trkpt><trkpt lat="45.701971675443986" lon="10.679716352894973"><ele>177.33333333333334</ele><time>2026-03-28T16:25:14Z</time></trkpt><trkpt lat="45.701886642861275" lon="10.679515878260958"><ele>171.66666666666669</ele><time>2026-03-28T16:25:15Z</time></trkpt><trkpt lat="45.701768926130086" lon="10.679316783710032"><ele>166.0</ele><time>2026-03-28T16:25:16Z</time></trkpt><trkpt lat="45.701655980587866" lon="10.679104985731172"><ele>166.0</ele><time>2026-03-28T16:25:17Z</time></trkpt><trkpt lat="45.70154849487432" lon="10.678911021495626"><ele>166.0</ele><time>2026-03-28T16:25:18Z</time></trkpt><trkpt lat="45.701425220673116" lon="10.678754881754854"><ele>166.0</ele><time>2026-03-28T16:25:19Z</time></trkpt><trkpt lat="45.70128908914374" lon="10.678604897204044"><ele>160.66666666666669</ele><time>2026-03-28T16:25:20Z</time></trkpt><trkpt lat="45.70114608841285" lon="10.678458402259636"><ele>155.33333333333334</ele><time>2026-03-28T16:25:21Z</time></trkpt><trkpt lat="45.70098022530136" lon="10.678290053901636"><ele>150.0</ele><time>2026-03-28T16:25:22Z</time></trkpt><trkpt lat="45.700825272288206" lon="10.678148913535308"><ele>150.0</ele><time>2026-03-28T16:25:23Z</time></trkpt><trkpt lat="45.700667184046104" lon="10.678005236229836"><ele>150.0</ele><time>2026-03-28T16:25:24Z</time></trkpt><trkpt lat="45.700523246411265" lon="10.677862491872007"><ele>150.0</ele><time>2026-03-28T16:25:25Z</time></trkpt><trkpt lat="45.70038226641146" lon="10.677726279892402"><ele>147.33333333333334</ele><time>2026-03-28T16:25:26Z</time></trkpt><trkpt lat="45.70025160331039" lon="10.677572165649483"><ele>144.66666666666669</ele><time>2026-03-28T16:25:27Z</time></trkpt><trkpt lat="45.700110062369156" lon="10.677431467203808"><ele>142.0</ele><time>2026-03-28T16:25:28Z</time></trkpt><trkpt lat="45.69998307290708" lon="10.677300229522785"><ele>142.0</ele><time>2026-03-28T16:25:29Z</time></trkpt><trkpt lat="45.69985737903375" lon="10.677154738868786"><ele>142.0</ele><time>2026-03-28T16:25:30Z</time></trkpt><trkpt lat="45.699749773646154" lon="10.676990627439533"><ele>142.0</ele><time>2026-03-28T16:25:31Z</time></trkpt><trkpt lat="45.69964447736941" lon="10.676811357517728"><ele>137.0</ele><time>2026-03-28T16:25:32Z</time></trkpt><trkpt lat="45.699543011489006" lon="10.676604560329984"><ele>132.0</ele><time>2026-03-28T16:25:33Z</time></trkpt><trkpt lat="45.69943067707825" lon="10.676389592499936"><ele>127.0</ele><time>2026-03-28T16:25:34Z</time></trkpt><trkpt lat="45.699329960358064" lon="10.676160669900609"><ele>132.33333333333334</ele><time>2026-03-28T16:25:35Z</time></trkpt><trkpt lat="45.699211030114895" lon="10.675943947469586"><ele>137.66666666666666</ele><time>2026-03-28T16:25:36Z</time></trkpt><trkpt lat="45.69906706119244" lon="10.675730308417606"><ele>143.0</ele><time>2026-03-28T16:25:37Z</time></trkpt><trkpt lat="45.69889445549249" lon="10.675512939298235"><ele>148.0</ele><time>2026-03-28T16:25:38Z</time></trkpt><trkpt lat="45.69875410113261" lon="10.675235787633744"><ele>153.0</ele><time>2026-03-28T16:25:39Z</time></trkpt><trkpt lat="45.69859451265263" lon="10.67500277350412"><ele>150.0</ele><time>2026-03-28T16:25:40Z</time></trkpt><trkpt lat="45.69844600189001" lon="10.674786446718386"><ele>147.0</ele><time>2026-03-28T16:25:41Z</time></trkpt><trkpt lat="45.69829250791839" lon="10.674563409235303"><ele>144.0</ele><time>2026-03-28T16:25:42Z</time></trkpt><trkpt lat="45.69814200047583" lon="10.674374001052932"><ele>144.0</ele><time>2026-03-28T16:25:43Z</time></trkpt><trkpt lat="45.69800596591766" lon="10.674173006506475"><ele>144.0</ele><time>2026-03-28T16:25:44Z</time></trkpt><trkpt lat="45.697878747980475" lon="10.673962186786364"><ele>144.0</ele><time>2026-03-28T16:25:45Z</time></trkpt><trkpt lat="45.697749746597374" lon="10.673769139436498"><ele>139.66666666666666</ele><time>2026-03-28T16:25:46Z</time></trkpt><trkpt lat="45.69761795445629" lon="10.67358707245721"><ele>135.33333333333331</ele><time>2026-03-28T16:25:47Z</time></trkpt><trkpt lat="45.697525034576614" lon="10.67336235356973"><ele>131.0</ele><time>2026-03-28T16:25:48Z</time></trkpt><trkpt lat="45.69741224838942" lon="10.673166277807258"><ele>131.0</ele><time>2026-03-28T16:25:49Z</time></trkpt><trkpt lat="45.697315770618125" lon="10.672953182363393"><ele>131.0</ele><time>2026-03-28T16:25:50Z</time></trkpt><trkpt lat="45.697208977949145" lon="10.672745692527336"><ele>131.0</ele><time>2026-03-28T16:25:51Z</time></trkpt><trkpt lat="45.69709537990025" lon="10.672549844559539"><ele>132.66666666666666</ele><time>2026-03-28T16:25:52Z</time></trkpt><trkpt lat="45.6969797052609" lon="10.672377717266679"><ele>134.33333333333334</ele><time>2026-03-28T16:25:53Z</time></trkpt><trkpt lat="45.69684156896356" lon="10.672221927169002"><ele>136.0</ele><time>2026-03-28T16:25:54Z</time></trkpt><trkpt lat="45.6967019599689" lon="10.672056399372941"><ele>135.0</ele><time>2026-03-28T16:25:55Z</time></trkpt><trkpt lat="45.69657491624122" lon="10.671892034138036"><ele>134.0</ele><time>2026-03-28T16:25:56Z</time></trkpt><trkpt lat="45.69644758170551" lon="10.671731708980147"><ele>133.0</ele><time>2026-03-28T16:25:57Z</time></trkpt><trkpt lat="45.696323520244455" lon="10.67157565922361"><ele>133.0</ele><time>2026-03-28T16:25:58Z</time></trkpt><trkpt lat="45.696213211786095" lon="10.67141414536814"><ele>133.0</ele><time>2026-03-28T16:25:59Z</time></trkpt><trkpt lat="45.69610732801763" lon="10.671274647730929"><ele>133.0</ele><time>2026-03-28T16:26:00Z</time></trkpt><trkpt lat="45.69601778900314" lon="10.671129380866853"><ele>133.0</ele><time>2026-03-28T16:26:01Z</time></trkpt><trkpt lat="45.695946600139514" lon="10.670960106258402"><ele>129.66666666666669</ele><time>2026-03-28T16:26:02Z</time></trkpt><trkpt lat="45.695887409956406" lon="10.670773193005958"><ele>126.33333333333334</ele><time>2026-03-28T16:26:03Z</time></trkpt><trkpt lat="45.69581710472809" lon="10.6705732479687"><ele>123.0</ele><time>2026-03-28T16:26:04Z</time></trkpt><trkpt lat="45.69574972389205" lon="10.670361558451473"><ele>125.66666666666666</ele><time>2026-03-28T16:26:05Z</time></trkpt><trkpt lat="45.69566105337412" lon="10.670149153265584"><ele>128.33333333333331</ele><time>2026-03-28T16:26:06Z</time></trkpt><trkpt lat="45.695562820223635" lon="10.669935099185352"><ele>131.0</ele><time>2026-03-28T16:26:07Z</time></trkpt><trkpt lat="45.695473562316046" lon="10.669724085908323"><ele>131.0</ele><time>2026-03-28T16:26:08Z</time></trkpt><trkpt lat="45.69539716874135" lon="10.669517268439556"><ele>131.0</ele><time>2026-03-28T16:26:09Z</time></trkpt><trkpt lat="45.695308134754065" lon="10.66931835515008"><ele>131.0</ele><time>2026-03-28T16:26:10Z</time></trkpt><trkpt lat="45.69523543400864" lon="10.669142651212717"><ele>130.6</ele><time>2026-03-28T16:26:11Z</time></trkpt><trkpt lat="45.69517593225368" lon="10.669002320608026"><ele>130.2</ele><time>2026-03-28T16:26:12Z</time></trkpt><trkpt lat="45.69511814852227" lon="10.668877026602177"><ele>129.8</ele><time>2026-03-28T16:26:13Z</time></trkpt><trkpt lat="45.69506543582586" lon="10.668750436825025"><ele>129.4</ele><time>2026-03-28T16:26:14Z</time></trkpt><trkpt lat="45.69501360150009" lon="10.668619271999802"><ele>129.0</ele><time>2026-03-28T16:26:15Z</time></trkpt><trkpt lat="45.694960454090385" lon="10.668491142684244"><ele>129.0</ele><time>2026-03-28T16:26:16Z</time></trkpt><trkpt lat="45.6948719337902" lon="10.668376422536815"><ele>129.0</ele><time>2026-03-28T16:26:17Z</time></trkpt><trkpt lat="45.69477044424971" lon="10.668278013024466"><ele>129.0</ele><time>2026-03-28T16:26:18Z</time></trkpt><trkpt lat="45.694651888106165" lon="10.668196771361893"><ele>129.0</ele><time>2026-03-28T16:26:19Z</time></trkpt><trkpt lat="45.69452548769595" lon="10.668140630664418"><ele>123.25</ele><time>2026-03-28T16:26:20Z</time></trkpt><trkpt lat="45.694391710632964" lon="10.66809378514361"><ele>117.5</ele><time>2026-03-28T16:26:21Z</time></trkpt><trkpt lat="45.69425521220816" lon="10.668043421904796"><ele>111.75</ele><time>2026-03-28T16:26:22Z</time></trkpt><trkpt lat="45.69413155143652" lon="10.667965683712769"><ele>106.0</ele><time>2026-03-28T16:26:23Z</time></trkpt><trkpt lat="45.6940150701463" lon="10.667894962581476"><ele>106.0</ele><time>2026-03-28T16:26:24Z</time></trkpt><trkpt lat="45.693918845868254" lon="10.667797784139932"><ele>106.0</ele><time>2026-03-28T16:26:25Z</time></trkpt><trkpt lat="45.69383176097416" lon="10.667680187901732"><ele>106.0</ele><time>2026-03-28T16:26:26Z</time></trkpt><trkpt lat="45.69374191162896" lon="10.667556428621134"><ele>106.0</ele><time>2026-03-28T16:26:27Z</time></trkpt><trkpt lat="45.6936518521049" lon="10.667457602572824"><ele>106.75</ele><time>2026-03-28T16:26:28Z</time></trkpt><trkpt lat="45.693561547097026" lon="10.667360819289922"><ele>107.5</ele><time>2026-03-28T16:26:29Z</time></trkpt><trkpt lat="45.69345657217447" lon="10.667291698940309"><ele>108.25</ele><time>2026-03-28T16:26:30Z</time></trkpt><trkpt lat="45.69334247790148" lon="10.667248415280243"><ele>109.0</ele><time>2026-03-28T16:26:31Z</time></trkpt><trkpt lat="45.6932288673002" lon="10.667223438739985"><ele>109.0</ele><time>2026-03-28T16:26:32Z</time></trkpt><trkpt lat="45.69312156279064" lon="10.667207953764567"><ele>109.0</ele><time>2026-03-28T16:26:33Z</time></trkpt><trkpt lat="45.693029488679805" lon="10.66718878926869"><ele>109.0</ele><time>2026-03-28T16:26:34Z</time></trkpt><trkpt lat="45.6929447303689" lon="10.667168280916837"><ele>109.0</ele><time>2026-03-28T16:26:35Z</time></trkpt><trkpt lat="45.69286021776696" lon="10.667154065803997"><ele>109.0</ele><time>2026-03-28T16:26:36Z</time></trkpt><trkpt lat="45.692767118058015" lon="10.667146791801644"><ele>107.80000000000001</ele><time>2026-03-28T16:26:37Z</time></trkpt><trkpt lat="45.69267962587151" lon="10.667127512192486"><ele>106.60000000000001</ele><time>2026-03-28T16:26:38Z</time></trkpt><trkpt lat="45.692587575339665" lon="10.667117243044862"><ele>105.4</ele><time>2026-03-28T16:26:39Z</time></trkpt><trkpt lat="45.69249290087115" lon="10.667101357469992"><ele>104.2</ele><time>2026-03-28T16:26:40Z</time></trkpt><trkpt lat="45.69240564340954" lon="10.667043905086071"><ele>103.0</ele><time>2026-03-28T16:26:41Z</time></trkpt><trkpt lat="45.69231521315232" lon="10.666985588421639"><ele>105.0</ele><time>2026-03-28T16:26:42Z</time></trkpt><trkpt lat="45.69221798137258" lon="10.6669226050442"><ele>107.0</ele><time>2026-03-28T16:26:43Z</time></trkpt><trkpt lat="45.69215103237466" lon="10.666800301621876"><ele>109.00000000000001</ele><time>2026-03-28T16:26:44Z</time></trkpt><trkpt lat="45.69208269481783" lon="10.66669382583328"><ele>111.0</ele><time>2026-03-28T16:26:45Z</time></trkpt><trkpt lat="45.692006481925915" lon="10.666602411002913"><ele>113.0</ele><time>2026-03-28T16:26:46Z</time></trkpt><trkpt lat="45.691943571783106" lon="10.666490921979463"><ele>112.0</ele><time>2026-03-28T16:26:47Z</time></trkpt><trkpt lat="45.691879594488555" lon="10.666385655665666"><ele>111.00000000000001</ele><time>2026-03-28T16:26:48Z</time></trkpt><trkpt lat="45.69182120136613" lon="10.666265504991356"><ele>110.00000000000001</ele><time>2026-03-28T16:26:49Z</time></trkpt><trkpt lat="45.6917568370927" lon="10.666159601058771"><ele>109.0</ele><time>2026-03-28T16:26:50Z</time></trkpt><trkpt lat="45.6916934307779" lon="10.666055346051136"><ele>108.0</ele><time>2026-03-28T16:26:51Z</time></trkpt><trkpt lat="45.691619735418755" lon="10.665965887447571"><ele>108.0</ele><time>2026-03-28T16:26:52Z</time></trkpt><trkpt lat="45.691555535876745" lon="10.665849093515744"><ele>108.00000000000001</ele><time>2026-03-28T16:26:53Z</time></trkpt><trkpt lat="45.6914933970145" lon="10.665748852411408"><ele>108.00000000000001</ele><time>2026-03-28T16:26:53.999Z</time></trkpt><trkpt lat="45.691426985425196" lon="10.665645348059172"><ele>108.0</ele><time>2026-03-28T16:26:54.999Z</time></trkpt><trkpt lat="45.69136405970523" lon="10.665541606933909"><ele>108.0</ele><time>2026-03-28T16:26:55.999Z</time></trkpt><trkpt lat="45.691307001321476" lon="10.665440396012912"><ele>108.0</ele><time>2026-03-28T16:26:56.999Z</time></trkpt><trkpt lat="45.69123696572256" lon="10.665337301712935"><ele>108.0</ele><time>2026-03-28T16:26:57.999Z</time></trkpt><trkpt lat="45.69117632500672" lon="10.665204622969373"><ele>108.0</ele><time>2026-03-28T16:26:58.999Z</time></trkpt><trkpt lat="45.69109374542155" lon="10.665067899461546"><ele>108.0</ele><time>2026-03-28T16:26:59.999Z</time></trkpt><trkpt lat="45.691011243140224" lon="10.664931169418855"><ele>107.4</ele><time>2026-03-28T16:27:00.999Z</time></trkpt><trkpt lat="45.69093077490322" lon="10.664820143554914"><ele>106.80000000000001</ele><time>2026-03-28T16:27:01.999Z</time></trkpt><trkpt lat="45.690860908787116" lon="10.664692622769618"><ele>106.2</ele><time>2026-03-28T16:27:02.999Z</time></trkpt><trkpt lat="45.690787185404616" lon="10.664578744956078"><ele>105.6</ele><time>2026-03-28T16:27:03.999Z</time></trkpt><trkpt lat="45.69071520520813" lon="10.66447430718539"><ele>105.0</ele><time>2026-03-28T16:27:04.999Z</time></trkpt><trkpt lat="45.69063313881297" lon="10.664386505984885"><ele>105.0</ele><time>2026-03-28T16:27:05.999Z</time></trkpt><trkpt lat="45.690553337115276" lon="10.6643168087453"><ele>105.0</ele><time>2026-03-28T16:27:06.999Z</time></trkpt><trkpt lat="45.690475664354025" lon="10.6642829590344"><ele>105.0</ele><time>2026-03-28T16:27:07.999Z</time></trkpt><trkpt lat="45.690390042159386" lon="10.664240634285546"><ele>105.0</ele><time>2026-03-28T16:27:08.999Z</time></trkpt><trkpt lat="45.69028415827859" lon="10.66420346400655"><ele>105.0</ele><time>2026-03-28T16:27:09.999Z</time></trkpt><trkpt lat="45.69017412033884" lon="10.664166087154715"><ele>103.8</ele><time>2026-03-28T16:27:10.999Z</time></trkpt><trkpt lat="45.69007138981711" lon="10.664130553103169"><ele>102.6</ele><time>2026-03-28T16:27:11.999Z</time></trkpt><trkpt lat="45.68997213566686" lon="10.664095222705194"><ele>101.4</ele><time>2026-03-28T16:27:12.999Z</time></trkpt><trkpt lat="45.68987324134692" lon="10.664054745911898"><ele>100.2</ele><time>2026-03-28T16:27:13.999Z</time></trkpt><trkpt lat="45.68977043610913" lon="10.664024327069393"><ele>99.0</ele><time>2026-03-28T16:27:15Z</time></trkpt><trkpt lat="45.68967651504977" lon="10.663958614887237"><ele>99.0</ele><time>2026-03-28T16:27:16Z</time></trkpt><trkpt lat="45.689588930266986" lon="10.663879439500212"><ele>99.0</ele><time>2026-03-28T16:27:17Z</time></trkpt><trkpt lat="45.68951392349495" lon="10.663785630699648"><ele>99.0</ele><time>2026-03-28T16:27:18Z</time></trkpt><trkpt lat="45.68946648994184" lon="10.663661159943713"><ele>99.0</ele><time>2026-03-28T16:27:19Z</time></trkpt><trkpt lat="45.68940968312266" lon="10.663552923547801"><ele>99.0</ele><time>2026-03-28T16:27:20Z</time></trkpt><trkpt lat="45.68934912477606" lon="10.663436514272346"><ele>96.0</ele><time>2026-03-28T16:27:21Z</time></trkpt><trkpt lat="45.68927354380262" lon="10.663326803942754"><ele>93.0</ele><time>2026-03-28T16:27:22Z</time></trkpt><trkpt lat="45.6892192703333" lon="10.663177548417924"><ele>90.0</ele><time>2026-03-28T16:27:23Z</time></trkpt><trkpt lat="45.68914724722054" lon="10.663032006101465"><ele>87.0</ele><time>2026-03-28T16:27:24Z</time></trkpt><trkpt lat="45.689071489481954" lon="10.662879282268431"><ele>88.19999999999999</ele><time>2026-03-28T16:27:25Z</time></trkpt><trkpt lat="45.68899925433368" lon="10.662772376183659"><ele>89.4</ele><time>2026-03-28T16:27:26Z</time></trkpt><trkpt lat="45.68894665568077" lon="10.662652258014013"><ele>90.6</ele><time>2026-03-28T16:27:27Z</time></trkpt><trkpt lat="45.68888311391099" lon="10.662527191365083"><ele>91.80000000000001</ele><time>2026-03-28T16:27:28Z</time></trkpt><trkpt lat="45.68881351743396" lon="10.662402996571686"><ele>93.0</ele><time>2026-03-28T16:27:29Z</time></trkpt><trkpt lat="45.68874274784937" lon="10.662267979016338"><ele>93.0</ele><time>2026-03-28T16:27:30Z</time></trkpt><trkpt lat="45.688664773157235" lon="10.662131448006738"><ele>93.0</ele><time>2026-03-28T16:27:31Z</time></trkpt><trkpt lat="45.688585866167614" lon="10.661993699040254"><ele>93.0</ele><time>2026-03-28T16:27:32Z</time></trkpt><trkpt lat="45.68850246410014" lon="10.661861095900258"><ele>93.0</ele><time>2026-03-28T16:27:33Z</time></trkpt><trkpt lat="45.688418625636125" lon="10.66173260631852"><ele>91.75</ele><time>2026-03-28T16:27:34Z</time></trkpt><trkpt lat="45.68833298394572" lon="10.661601048186322"><ele>90.5</ele><time>2026-03-28T16:27:35Z</time></trkpt><trkpt lat="45.68825409412899" lon="10.661468955931172"><ele>89.25</ele><time>2026-03-28T16:27:36Z</time></trkpt><trkpt lat="45.688167396336304" lon="10.661352075938822"><ele>88.0</ele><time>2026-03-28T16:27:37Z</time></trkpt><trkpt lat="45.68808175297646" lon="10.661242129768823"><ele>88.0</ele><time>2026-03-28T16:27:38Z</time></trkpt><trkpt lat="45.6879920856735" lon="10.661139549136236"><ele>88.0</ele><time>2026-03-28T16:27:39Z</time></trkpt><trkpt lat="45.6878998424686" lon="10.661062712829466"><ele>88.0</ele><time>2026-03-28T16:27:40Z</time></trkpt><trkpt lat="45.68780807691668" lon="10.660956779926758"><ele>88.0</ele><time>2026-03-28T16:27:41Z</time></trkpt><trkpt lat="45.68768739521978" lon="10.66085592552428"><ele>86.0</ele><time>2026-03-28T16:27:42Z</time></trkpt><trkpt lat="45.687556412803694" lon="10.660759351467739"><ele>84.0</ele><time>2026-03-28T16:27:43Z</time></trkpt><trkpt lat="45.687423941396595" lon="10.66066711014113"><ele>82.0</ele><time>2026-03-28T16:27:44Z</time></trkpt><trkpt lat="45.68729727303081" lon="10.660582227082164"><ele>80.0</ele><time>2026-03-28T16:27:45Z</time></trkpt><trkpt lat="45.68718251612101" lon="10.660507553578494"><ele>80.0</ele><time>2026-03-28T16:27:46Z</time></trkpt><trkpt lat="45.68706131711012" lon="10.660434215575767"><ele>80.0</ele><time>2026-03-28T16:27:47Z</time></trkpt><trkpt lat="45.68692222858639" lon="10.660350574018057"><ele>80.0</ele><time>2026-03-28T16:27:48Z</time></trkpt><trkpt lat="45.68677214621715" lon="10.660256621745527"><ele>80.0</ele><time>2026-03-28T16:27:49Z</time></trkpt><trkpt lat="45.68661049355085" lon="10.660173084401265"><ele>81.33333333333334</ele><time>2026-03-28T16:27:50Z</time></trkpt><trkpt lat="45.68645952343169" lon="10.660069762512618"><ele>82.66666666666667</ele><time>2026-03-28T16:27:51Z</time></trkpt><trkpt lat="45.68631380681174" lon="10.659964145300426"><ele>84.0</ele><time>2026-03-28T16:27:52Z</time></trkpt><trkpt lat="45.6861695504481" lon="10.65985644579594"><ele>80.0</ele><time>2026-03-28T16:27:53Z</time></trkpt><trkpt lat="45.68602797175885" lon="10.659739922987542"><ele>76.0</ele><time>2026-03-28T16:27:54Z</time></trkpt><trkpt lat="45.68588514671217" lon="10.659613451054101"><ele>72.0</ele><time>2026-03-28T16:27:55Z</time></trkpt><trkpt lat="45.68573475215598" lon="10.659471727129361"><ele>72.66666666666667</ele><time>2026-03-28T16:27:56Z</time></trkpt><trkpt lat="45.68558543373845" lon="10.659312386494062"><ele>73.33333333333334</ele><time>2026-03-28T16:27:57Z</time></trkpt><trkpt lat="45.68541911960663" lon="10.659155724450336"><ele>74.0</ele><time>2026-03-28T16:27:58Z</time></trkpt><trkpt lat="45.685256463150104" lon="10.658983948266494"><ele>74.0</ele><time>2026-03-28T16:27:59Z</time></trkpt><trkpt lat="45.68509160635526" lon="10.658825873806029"><ele>74.0</ele><time>2026-03-28T16:28:00Z</time></trkpt><trkpt lat="45.68492811383426" lon="10.65866910753908"><ele>74.0</ele><time>2026-03-28T16:28:01Z</time></trkpt><trkpt lat="45.684770650196334" lon="10.658518122397389"><ele>73.66666666666667</ele><time>2026-03-28T16:28:02Z</time></trkpt><trkpt lat="45.6846051181566" lon="10.658387717270472"><ele>73.33333333333333</ele><time>2026-03-28T16:28:03Z</time></trkpt><trkpt lat="45.68446114803209" lon="10.658222301068935"><ele>73.0</ele><time>2026-03-28T16:28:04Z</time></trkpt><trkpt lat="45.68430034104928" lon="10.65809791256185"><ele>73.0</ele><time>2026-03-28T16:28:05Z</time></trkpt><trkpt lat="45.68415739411358" lon="10.657961275444638"><ele>73.0</ele><time>2026-03-28T16:28:06Z</time></trkpt><trkpt lat="45.68402274145144" lon="10.65783247321729"><ele>73.0</ele><time>2026-03-28T16:28:07Z</time></trkpt><trkpt lat="45.68389172865365" lon="10.657702927229638"><ele>73.33333333333333</ele><time>2026-03-28T16:28:08Z</time></trkpt><trkpt lat="45.68376457959362" lon="10.657573487204735"><ele>73.66666666666667</ele><time>2026-03-28T16:28:09Z</time></trkpt><trkpt lat="45.683650122522614" lon="10.657430768113835"><ele>74.0</ele><time>2026-03-28T16:28:10Z</time></trkpt><trkpt lat="45.68353538966451" lon="10.65728432882896"><ele>74.0</ele><time>2026-03-28T16:28:11Z</time></trkpt><trkpt lat="45.68342614101829" lon="10.657142709154323"><ele>74.0</ele><time>2026-03-28T16:28:12Z</time></trkpt><trkpt lat="45.68333117583137" lon="10.656981291768421"><ele>74.0</ele><time>2026-03-28T16:28:13Z</time></trkpt><trkpt lat="45.683218313744995" lon="10.656821823274218"><ele>76.25</ele><time>2026-03-28T16:28:14Z</time></trkpt><trkpt lat="45.68310805798654" lon="10.656668010224305"><ele>78.5</ele><time>2026-03-28T16:28:15Z</time></trkpt><trkpt lat="45.68299567741473" lon="10.656538069071285"><ele>80.75</ele><time>2026-03-28T16:28:16Z</time></trkpt><trkpt lat="45.68290166995057" lon="10.65639538588469"><ele>83.0</ele><time>2026-03-28T16:28:17Z</time></trkpt><trkpt lat="45.68280408677288" lon="10.656257165663096"><ele>81.66666666666667</ele><time>2026-03-28T16:28:18Z</time></trkpt><trkpt lat="45.68269208121235" lon="10.656113207656608"><ele>80.33333333333333</ele><time>2026-03-28T16:28:19Z</time></trkpt><trkpt lat="45.682590378484534" lon="10.655935684377246"><ele>79.0</ele><time>2026-03-28T16:28:20Z</time></trkpt><trkpt lat="45.68246675365152" lon="10.655774894275908"><ele>79.0</ele><time>2026-03-28T16:28:21Z</time></trkpt><trkpt lat="45.682346895150516" lon="10.65559377818382"><ele>79.0</ele><time>2026-03-28T16:28:22Z</time></trkpt><trkpt lat="45.6822199198782" lon="10.655415813905137"><ele>79.0</ele><time>2026-03-28T16:28:23Z</time></trkpt><trkpt lat="45.68209306143193" lon="10.655240499530551"><ele>77.33333333333333</ele><time>2026-03-28T16:28:24Z</time></trkpt><trkpt lat="45.68196590034842" lon="10.65506919710443"><ele>75.66666666666667</ele><time>2026-03-28T16:28:25Z</time></trkpt><trkpt lat="45.681833303764456" lon="10.654909031354721"><ele>74.0</ele><time>2026-03-28T16:28:26Z</time></trkpt><trkpt lat="45.681693440888694" lon="10.654762266995526"><ele>74.0</ele><time>2026-03-28T16:28:27Z</time></trkpt><trkpt lat="45.68155202048806" lon="10.654608956476386"><ele>74.0</ele><time>2026-03-28T16:28:28Z</time></trkpt><trkpt lat="45.681397634818865" lon="10.654487971166924"><ele>74.0</ele><time>2026-03-28T16:28:29Z</time></trkpt><trkpt lat="45.681229924843414" lon="10.654414480078453"><ele>74.33333333333334</ele><time>2026-03-28T16:28:30Z</time></trkpt><trkpt lat="45.681074182589484" lon="10.654306841094044"><ele>74.66666666666667</ele><time>2026-03-28T16:28:31Z</time></trkpt><trkpt lat="45.68089396191868" lon="10.65427055698353"><ele>75.0</ele><time>2026-03-28T16:28:32Z</time></trkpt><trkpt lat="45.68071051778778" lon="10.654221069616852"><ele>75.0</ele><time>2026-03-28T16:28:33Z</time></trkpt><trkpt lat="45.6805167507039" lon="10.654176929379496"><ele>75.0</ele><time>2026-03-28T16:28:34Z</time></trkpt><trkpt lat="45.68031783014937" lon="10.65412898638791"><ele>75.0</ele><time>2026-03-28T16:28:35Z</time></trkpt><trkpt lat="45.680109262611985" lon="10.654083854802895"><ele>73.33333333333333</ele><time>2026-03-28T16:28:36Z</time></trkpt><trkpt lat="45.679901932879226" lon="10.654037359188713"><ele>71.66666666666666</ele><time>2026-03-28T16:28:37Z</time></trkpt><trkpt lat="45.679703428098556" lon="10.6539934235852"><ele>70.0</ele><time>2026-03-28T16:28:38Z</time></trkpt><trkpt lat="45.67951294774404" lon="10.653950537602869"><ele>69.0</ele><time>2026-03-28T16:28:39Z</time></trkpt><trkpt lat="45.67933216032214" lon="10.653904728461725"><ele>68.0</ele><time>2026-03-28T16:28:40Z</time></trkpt><trkpt lat="45.67915668878112" lon="10.653861025444403"><ele>67.0</ele><time>2026-03-28T16:28:41Z</time></trkpt><trkpt lat="45.67899189055955" lon="10.653821549189736"><ele>67.0</ele><time>2026-03-28T16:28:42Z</time></trkpt><trkpt lat="45.678829569361476" lon="10.653783746572456"><ele>67.0</ele><time>2026-03-28T16:28:43Z</time></trkpt><trkpt lat="45.67867165147596" lon="10.65374732030332"><ele>67.0</ele><time>2026-03-28T16:28:44Z</time></trkpt><trkpt lat="45.67852051256076" lon="10.653717603371136"><ele>66.25</ele><time>2026-03-28T16:28:45Z</time></trkpt><trkpt lat="45.678373326372274" lon="10.653685704506561"><ele>65.5</ele><time>2026-03-28T16:28:46Z</time></trkpt><trkpt lat="45.67822848905826" lon="10.653644730485093"><ele>64.75</ele><time>2026-03-28T16:28:47Z</time></trkpt><trkpt lat="45.67808319834842" lon="10.653590501968305"><ele>64.0</ele><time>2026-03-28T16:28:48Z</time></trkpt><trkpt lat="45.6779384645274" lon="10.653525015670768"><ele>66.0</ele><time>2026-03-28T16:28:49Z</time></trkpt><trkpt lat="45.677793307611424" lon="10.653452202715663"><ele>68.0</ele><time>2026-03-28T16:28:50Z</time></trkpt><trkpt lat="45.67764407272286" lon="10.653365741568251"><ele>70.0</ele><time>2026-03-28T16:28:51Z</time></trkpt><trkpt lat="45.677496686035035" lon="10.653262206103378"><ele>70.0</ele><time>2026-03-28T16:28:52Z</time></trkpt><trkpt lat="45.677346799920166" lon="10.653151788822"><ele>70.0</ele><time>2026-03-28T16:28:53Z</time></trkpt><trkpt lat="45.67720364775716" lon="10.653016898915373"><ele>70.0</ele><time>2026-03-28T16:28:54Z</time></trkpt><trkpt lat="45.67705482672448" lon="10.65290602142449"><ele>69.0</ele><time>2026-03-28T16:28:55Z</time></trkpt><trkpt lat="45.676909767897584" lon="10.652800592707178"><ele>68.0</ele><time>2026-03-28T16:28:56Z</time></trkpt><trkpt lat="45.67677634257738" lon="10.652697587357135"><ele>67.0</ele><time>2026-03-28T16:28:57Z</time></trkpt><trkpt lat="45.67664597403106" lon="10.652587393770869"><ele>69.33333333333333</ele><time>2026-03-28T16:28:58Z</time></trkpt><trkpt lat="45.67651503836186" lon="10.652465225512058"><ele>71.66666666666667</ele><time>2026-03-28T16:28:59Z</time></trkpt><trkpt lat="45.676397813097886" lon="10.652322239493182"><ele>74.0</ele><time>2026-03-28T16:29:00Z</time></trkpt><trkpt lat="45.67628346580341" lon="10.652184030102957"><ele>74.0</ele><time>2026-03-28T16:29:01Z</time></trkpt><trkpt lat="45.67619302556837" lon="10.652074374837406"><ele>74.0</ele><time>2026-03-28T16:29:02Z</time></trkpt><trkpt lat="45.676125678174024" lon="10.651960006501687"><ele>74.0</ele><time>2026-03-28T16:29:03Z</time></trkpt><trkpt lat="45.67605375170109" lon="10.651869023353091"><ele>74.0</ele><time>2026-03-28T16:29:03.999Z</time></trkpt><trkpt lat="45.67598794724125" lon="10.651787702573603"><ele>74.0</ele><time>2026-03-28T16:29:04.999Z</time></trkpt><trkpt lat="45.67593021534743" lon="10.651716208206667"><ele>74.4</ele><time>2026-03-28T16:29:05.999Z</time></trkpt><trkpt lat="45.6758672273348" lon="10.651638204744513"><ele>74.80000000000001</ele><time>2026-03-28T16:29:06.999Z</time></trkpt><trkpt lat="45.675790696899696" lon="10.65154343058798"><ele>75.19999999999999</ele><time>2026-03-28T16:29:07.999Z</time></trkpt><trkpt lat="45.67570193729438" lon="10.651433511912407"><ele>75.6</ele><time>2026-03-28T16:29:08.999Z</time></trkpt><trkpt lat="45.67559848148242" lon="10.651322924531163"><ele>76.0</ele><time>2026-03-28T16:29:09.999Z</time></trkpt><trkpt lat="45.675499738437566" lon="10.651182530973495"><ele>76.66666666666666</ele><time>2026-03-28T16:29:10.999Z</time></trkpt><trkpt lat="45.675379569230664" lon="10.651040842579533"><ele>77.33333333333333</ele><time>2026-03-28T16:29:11.999Z</time></trkpt><trkpt lat="45.67525825869671" lon="10.650892723040634"><ele>78.0</ele><time>2026-03-28T16:29:12.999Z</time></trkpt><trkpt lat="45.67513209034617" lon="10.650741024837316"><ele>78.0</ele><time>2026-03-28T16:29:13.999Z</time></trkpt><trkpt lat="45.67499728222673" lon="10.650604510304467"><ele>78.0</ele><time>2026-03-28T16:29:14.999Z</time></trkpt><trkpt lat="45.67486473693071" lon="10.650504152635332"><ele>78.0</ele><time>2026-03-28T16:29:15.999Z</time></trkpt><trkpt lat="45.67473258793275" lon="10.650440060927288"><ele>78.0</ele><time>2026-03-28T16:29:16.999Z</time></trkpt><trkpt lat="45.674614527686295" lon="10.650391963347756"><ele>78.0</ele><time>2026-03-28T16:29:17.999Z</time></trkpt><trkpt lat="45.674518333178085" lon="10.65033773407949"><ele>78.0</ele><time>2026-03-28T16:29:18.999Z</time></trkpt><trkpt lat="45.67444660124158" lon="10.650259943327931"><ele>78.0</ele><time>2026-03-28T16:29:19.999Z</time></trkpt><trkpt lat="45.674390055712976" lon="10.650184535102518"><ele>78.0</ele><time>2026-03-28T16:29:21Z</time></trkpt><trkpt lat="45.674322833145595" lon="10.650170113896415"><ele>78.2</ele><time>2026-03-28T16:29:22Z</time></trkpt><trkpt lat="45.6742590820066" lon="10.650228250053186"><ele>78.4</ele><time>2026-03-28T16:29:23Z</time></trkpt><trkpt lat="45.67420288242678" lon="10.650323045545028"><ele>78.60000000000001</ele><time>2026-03-28T16:29:24Z</time></trkpt><trkpt lat="45.67412476576091" lon="10.650416754713639"><ele>78.8</ele><time>2026-03-28T16:29:25Z</time></trkpt><trkpt lat="45.67401256408652" lon="10.650457945570269"><ele>79.0</ele><time>2026-03-28T16:29:26Z</time></trkpt><trkpt lat="45.67388532543984" lon="10.650506223175578"><ele>78.0</ele><time>2026-03-28T16:29:27Z</time></trkpt><trkpt lat="45.67374249225599" lon="10.650582099540921"><ele>77.0</ele><time>2026-03-28T16:29:28Z</time></trkpt><trkpt lat="45.6735876776439" lon="10.650672752828143"><ele>76.0</ele><time>2026-03-28T16:29:29Z</time></trkpt><trkpt lat="45.673416354331856" lon="10.650766395860307"><ele>76.0</ele><time>2026-03-28T16:29:30Z</time></trkpt><trkpt lat="45.67323374584239" lon="10.650859708858064"><ele>76.0</ele><time>2026-03-28T16:29:31Z</time></trkpt><trkpt lat="45.673047813595524" lon="10.650958085710656"><ele>76.0</ele><time>2026-03-28T16:29:32Z</time></trkpt><trkpt lat="45.67286236792492" lon="10.651061975020776"><ele>75.33333333333333</ele><time>2026-03-28T16:29:33Z</time></trkpt><trkpt lat="45.672671045617655" lon="10.65116758287291"><ele>74.66666666666667</ele><time>2026-03-28T16:29:34Z</time></trkpt><trkpt lat="45.67248951351357" lon="10.651260882976999"><ele>74.0</ele><time>2026-03-28T16:29:35Z</time></trkpt><trkpt lat="45.672322451742765" lon="10.651347262246212"><ele>74.0</ele><time>2026-03-28T16:29:36Z</time></trkpt><trkpt lat="45.67216355544315" lon="10.65142545701702"><ele>74.0</ele><time>2026-03-28T16:29:37Z</time></trkpt><trkpt lat="45.672012740475346" lon="10.651479676587368"><ele>74.0</ele><time>2026-03-28T16:29:38Z</time></trkpt><trkpt lat="45.67186153062302" lon="10.651512047384307"><ele>75.0</ele><time>2026-03-28T16:29:39Z</time></trkpt><trkpt lat="45.67170107998199" lon="10.65153030051148"><ele>76.0</ele><time>2026-03-28T16:29:40Z</time></trkpt><trkpt lat="45.67154134863204" lon="10.651530890268688"><ele>77.0</ele><time>2026-03-28T16:29:41Z</time></trkpt><trkpt lat="45.6713906299722" lon="10.651522362136115"><ele>77.0</ele><time>2026-03-28T16:29:42Z</time></trkpt><trkpt lat="45.671230723954594" lon="10.651478626947778"><ele>77.0</ele><time>2026-03-28T16:29:43Z</time></trkpt><trkpt lat="45.671074205821576" lon="10.65142121855976"><ele>77.0</ele><time>2026-03-28T16:29:44Z</time></trkpt><trkpt lat="45.670926123875674" lon="10.65137149152347"><ele>76.75</ele><time>2026-03-28T16:29:45Z</time></trkpt><trkpt lat="45.67079379484319" lon="10.651316415411095"><ele>76.5</ele><time>2026-03-28T16:29:46Z</time></trkpt><trkpt lat="45.670680989900994" lon="10.651203340933565"><ele>76.25</ele><time>2026-03-28T16:29:47Z</time></trkpt><trkpt lat="45.67056527437038" lon="10.651083359053509"><ele>76.0</ele><time>2026-03-28T16:29:48Z</time></trkpt><trkpt lat="45.67043994335644" lon="10.650960976685226"><ele>77.0</ele><time>2026-03-28T16:29:49Z</time></trkpt><trkpt lat="45.670324211608886" lon="10.650808803150511"><ele>78.0</ele><time>2026-03-28T16:29:50Z</time></trkpt><trkpt lat="45.670204057264506" lon="10.650665963707267"><ele>79.0</ele><time>2026-03-28T16:29:51Z</time></trkpt><trkpt lat="45.67008749090886" lon="10.650503389830076"><ele>79.0</ele><time>2026-03-28T16:29:52Z</time></trkpt><trkpt lat="45.66994642849396" lon="10.65037375074594"><ele>79.0</ele><time>2026-03-28T16:29:53Z</time></trkpt><trkpt lat="45.669788252413504" lon="10.650262639010629"><ele>79.0</ele><time>2026-03-28T16:29:54Z</time></trkpt><trkpt lat="45.66962503933761" lon="10.650165204450765"><ele>78.66666666666666</ele><time>2026-03-28T16:29:55Z</time></trkpt><trkpt lat="45.66945574677362" lon="10.650074386024988"><ele>78.33333333333333</ele><time>2026-03-28T16:29:56Z</time></trkpt><trkpt lat="45.66928518275062" lon="10.649984605571472"><ele>78.0</ele><time>2026-03-28T16:29:57Z</time></trkpt><trkpt lat="45.669110416980224" lon="10.649893034076968"><ele>78.0</ele><time>2026-03-28T16:29:58Z</time></trkpt><trkpt lat="45.6689371022608" lon="10.649800949621032"><ele>78.0</ele><time>2026-03-28T16:29:59Z</time></trkpt><trkpt lat="45.668770168663" lon="10.649710933241582"><ele>78.0</ele><time>2026-03-28T16:30:00Z</time></trkpt><trkpt lat="45.66861265730846" lon="10.64962579284187"><ele>76.5</ele><time>2026-03-28T16:30:01Z</time></trkpt><trkpt lat="45.668464364917305" lon="10.649545634791025"><ele>75.0</ele><time>2026-03-28T16:30:02Z</time></trkpt><trkpt lat="45.668333545075924" lon="10.649475397443195"><ele>73.5</ele><time>2026-03-28T16:30:03Z</time></trkpt><trkpt lat="45.66821471387932" lon="10.649411652335532"><ele>72.0</ele><time>2026-03-28T16:30:04Z</time></trkpt><trkpt lat="45.66809678266508" lon="10.6493472251936"><ele>73.5</ele><time>2026-03-28T16:30:05Z</time></trkpt><trkpt lat="45.66798899280896" lon="10.64928306883218"><ele>75.0</ele><time>2026-03-28T16:30:06Z</time></trkpt><trkpt lat="45.667890920816006" lon="10.64920719154723"><ele>76.5</ele><time>2026-03-28T16:30:07Z</time></trkpt><trkpt lat="45.667788513042545" lon="10.649132159044907"><ele>78.0</ele><time>2026-03-28T16:30:08Z</time></trkpt><trkpt lat="45.667693318552196" lon="10.649023589525763"><ele>78.0</ele><time>2026-03-28T16:30:09Z</time></trkpt><trkpt lat="45.667599864006284" lon="10.648903950294589"><ele>78.0</ele><time>2026-03-28T16:30:10Z</time></trkpt><trkpt lat="45.6675132902254" lon="10.648773264838203"><ele>78.0</ele><time>2026-03-28T16:30:11Z</time></trkpt><trkpt lat="45.66742118612979" lon="10.64865505139924"><ele>78.0</ele><time>2026-03-28T16:30:12Z</time></trkpt><trkpt lat="45.667332197967426" lon="10.648540555865848"><ele>82.25</ele><time>2026-03-28T16:30:13Z</time></trkpt><trkpt lat="45.66724350320766" lon="10.648424397560973"><ele>86.5</ele><time>2026-03-28T16:30:14Z</time></trkpt><trkpt lat="45.667155712640074" lon="10.648308114809684"><ele>90.75</ele><time>2026-03-28T16:30:15Z</time></trkpt><trkpt lat="45.667065646796445" lon="10.648201394227113"><ele>95.0</ele><time>2026-03-28T16:30:16Z</time></trkpt><trkpt lat="45.66697054456062" lon="10.648097445225133"><ele>92.0</ele><time>2026-03-28T16:30:17Z</time></trkpt><trkpt lat="45.66687234983484" lon="10.648012187821164"><ele>89.0</ele><time>2026-03-28T16:30:18Z</time></trkpt><trkpt lat="45.666774945201645" lon="10.647947389883422"><ele>86.0</ele><time>2026-03-28T16:30:19Z</time></trkpt><trkpt lat="45.66666534625406" lon="10.64788974875197"><ele>83.0</ele><time>2026-03-28T16:30:20Z</time></trkpt><trkpt lat="45.666549372205644" lon="10.647827821843281"><ele>90.25</ele><time>2026-03-28T16:30:21Z</time></trkpt><trkpt lat="45.66644167536172" lon="10.647751999278492"><ele>97.5</ele><time>2026-03-28T16:30:22Z</time></trkpt><trkpt lat="45.6663339669797" lon="10.647664586362056"><ele>104.75</ele><time>2026-03-28T16:30:23Z</time></trkpt><trkpt lat="45.66623326971183" lon="10.647561749493402"><ele>112.0</ele><time>2026-03-28T16:30:24Z</time></trkpt><trkpt lat="45.666116554900455" lon="10.64747569776672"><ele>105.0</ele><time>2026-03-28T16:30:25Z</time></trkpt><trkpt lat="45.66600706015613" lon="10.647385993831037"><ele>98.0</ele><time>2026-03-28T16:30:26Z</time></trkpt><trkpt lat="45.66589581939973" lon="10.647289470112538"><ele>91.0</ele><time>2026-03-28T16:30:27Z</time></trkpt><trkpt lat="45.665786802579106" lon="10.647197703344121"><ele>84.0</ele><time>2026-03-28T16:30:28Z</time></trkpt><trkpt lat="45.66566734784034" lon="10.647119455335606"><ele>84.0</ele><time>2026-03-28T16:30:29Z</time></trkpt><trkpt lat="45.665571840616316" lon="10.646991235335996"><ele>84.0</ele><time>2026-03-28T16:30:30Z</time></trkpt><trkpt lat="45.66546807400083" lon="10.646873816229348"><ele>84.0</ele><time>2026-03-28T16:30:31Z</time></trkpt><trkpt lat="45.6653755452703" lon="10.646754077341464"><ele>84.0</ele><time>2026-03-28T16:30:32Z</time></trkpt><trkpt lat="45.665287597714965" lon="10.646636197962252"><ele>82.5</ele><time>2026-03-28T16:30:33Z</time></trkpt><trkpt lat="45.665203598573974" lon="10.64650771277366"><ele>81.0</ele><time>2026-03-28T16:30:34Z</time></trkpt><trkpt lat="45.66513420749379" lon="10.646362547595801"><ele>79.5</ele><time>2026-03-28T16:30:35Z</time></trkpt><trkpt lat="45.6650670125668" lon="10.646212767013019"><ele>78.0</ele><time>2026-03-28T16:30:36Z</time></trkpt><trkpt lat="45.66499529184862" lon="10.646061281525105"><ele>82.75</ele><time>2026-03-28T16:30:37Z</time></trkpt><trkpt lat="45.664913358177145" lon="10.645911005003635"><ele>87.5</ele><time>2026-03-28T16:30:38Z</time></trkpt><trkpt lat="45.6648260540426" lon="10.645775327472142"><ele>92.25</ele><time>2026-03-28T16:30:39Z</time></trkpt><trkpt lat="45.66472424881323" lon="10.64564195516826"><ele>97.0</ele><time>2026-03-28T16:30:40Z</time></trkpt><trkpt lat="45.664622291500706" lon="10.645505816384729"><ele>97.0</ele><time>2026-03-28T16:30:41Z</time></trkpt><trkpt lat="45.66452729691028" lon="10.645386508569471"><ele>97.0</ele><time>2026-03-28T16:30:42Z</time></trkpt><trkpt lat="45.6644099811308" lon="10.645302444233206"><ele>97.0</ele><time>2026-03-28T16:30:43Z</time></trkpt><trkpt lat="45.66429515506606" lon="10.645229594844462"><ele>97.0</ele><time>2026-03-28T16:30:44Z</time></trkpt><trkpt lat="45.664164510004106" lon="10.64518354139239"><ele>99.0</ele><time>2026-03-28T16:30:45Z</time></trkpt><trkpt lat="45.66404059506872" lon="10.64514109647364"><ele>101.0</ele><time>2026-03-28T16:30:46Z</time></trkpt><trkpt lat="45.66392425670665" lon="10.645068967071376"><ele>103.0</ele><time>2026-03-28T16:30:47Z</time></trkpt><trkpt lat="45.6638080393655" lon="10.644992050023957"><ele>105.0</ele><time>2026-03-28T16:30:48Z</time></trkpt><trkpt lat="45.663694889837124" lon="10.644913914785214"><ele>98.5</ele><time>2026-03-28T16:30:49Z</time></trkpt><trkpt lat="45.6635842381209" lon="10.644834067396044"><ele>92.0</ele><time>2026-03-28T16:30:50Z</time></trkpt><trkpt lat="45.66347689644971" lon="10.644738550592596"><ele>85.5</ele><time>2026-03-28T16:30:51Z</time></trkpt><trkpt lat="45.66337071136487" lon="10.6446193371013"><ele>79.0</ele><time>2026-03-28T16:30:52Z</time></trkpt><trkpt lat="45.66326899634887" lon="10.644500872549326"><ele>86.25</ele><time>2026-03-28T16:30:53Z</time></trkpt><trkpt lat="45.66316770410004" lon="10.644382171573005"><ele>93.5</ele><time>2026-03-28T16:30:54Z</time></trkpt><trkpt lat="45.66305854116104" lon="10.644251250112744"><ele>100.75</ele><time>2026-03-28T16:30:55Z</time></trkpt><trkpt lat="45.66293915481247" lon="10.644101846124087"><ele>108.0</ele><time>2026-03-28T16:30:56Z</time></trkpt><trkpt lat="45.66280968982091" lon="10.643931885616693"><ele>104.33333333333334</ele><time>2026-03-28T16:30:57Z</time></trkpt><trkpt lat="45.662655301382905" lon="10.64375208248874"><ele>100.66666666666667</ele><time>2026-03-28T16:30:58Z</time></trkpt><trkpt lat="45.66249291606421" lon="10.64357294633284"><ele>97.0</ele><time>2026-03-28T16:30:58.999Z</time></trkpt><trkpt lat="45.66233133870955" lon="10.643393998995785"><ele>97.0</ele><time>2026-03-28T16:30:59.999Z</time></trkpt><trkpt lat="45.662179505822124" lon="10.643225750800015"><ele>97.0</ele><time>2026-03-28T16:31:00.999Z</time></trkpt><trkpt lat="45.66203356776299" lon="10.643066167249145"><ele>97.0</ele><time>2026-03-28T16:31:01.999Z</time></trkpt><trkpt lat="45.6618891471364" lon="10.642908243186998"><ele>94.66666666666667</ele><time>2026-03-28T16:31:02.999Z</time></trkpt><trkpt lat="45.6617377564308" lon="10.64276530186474"><ele>92.33333333333334</ele><time>2026-03-28T16:31:03.999Z</time></trkpt><trkpt lat="45.661602911434194" lon="10.642590969707753"><ele>90.0</ele><time>2026-03-28T16:31:04.999Z</time></trkpt><trkpt lat="45.661455402379914" lon="10.642459462169326"><ele>90.0</ele><time>2026-03-28T16:31:05.999Z</time></trkpt><trkpt lat="45.661324581218025" lon="10.642312105612236"><ele>90.0</ele><time>2026-03-28T16:31:06.999Z</time></trkpt><trkpt lat="45.66121420385953" lon="10.642143192065214"><ele>90.0</ele><time>2026-03-28T16:31:07.999Z</time></trkpt><trkpt lat="45.661104746550734" lon="10.641986018805257"><ele>87.66666666666667</ele><time>2026-03-28T16:31:08.999Z</time></trkpt><trkpt lat="45.66100724641929" lon="10.641816401095971"><ele>85.33333333333334</ele><time>2026-03-28T16:31:09.999Z</time></trkpt><trkpt lat="45.660893649191806" lon="10.641638335974424"><ele>83.0</ele><time>2026-03-28T16:31:10.999Z</time></trkpt><trkpt lat="45.66075861605879" lon="10.641437446575399"><ele>83.0</ele><time>2026-03-28T16:31:11.999Z</time></trkpt><trkpt lat="45.660614112744575" lon="10.641229707244554"><ele>83.0</ele><time>2026-03-28T16:31:12.999Z</time></trkpt><trkpt lat="45.66046180690247" lon="10.641014258439906"><ele>83.0</ele><time>2026-03-28T16:31:13.999Z</time></trkpt><trkpt lat="45.660302203987754" lon="10.640792466310238"><ele>84.66666666666667</ele><time>2026-03-28T16:31:14.999Z</time></trkpt><trkpt lat="45.660175324490886" lon="10.640548125352222"><ele>86.33333333333333</ele><time>2026-03-28T16:31:15.999Z</time></trkpt><trkpt lat="45.66003049319696" lon="10.640339556626767"><ele>88.0</ele><time>2026-03-28T16:31:16.999Z</time></trkpt><trkpt lat="45.659901588233474" lon="10.64012689333724"><ele>88.0</ele><time>2026-03-28T16:31:17.999Z</time></trkpt><trkpt lat="45.65978322000016" lon="10.639925362515912"><ele>88.0</ele><time>2026-03-28T16:31:18.999Z</time></trkpt><trkpt lat="45.659676117359794" lon="10.63974182031315"><ele>88.0</ele><time>2026-03-28T16:31:19.999Z</time></trkpt><trkpt lat="45.65958644282618" lon="10.63956980006176"><ele>86.75</ele><time>2026-03-28T16:31:20.999Z</time></trkpt><trkpt lat="45.65949980055241" lon="10.639380577581132"><ele>85.5</ele><time>2026-03-28T16:31:21.999Z</time></trkpt><trkpt lat="45.65944688686419" lon="10.639186125195115"><ele>84.25</ele><time>2026-03-28T16:31:22.999Z</time></trkpt><trkpt lat="45.65939410273819" lon="10.639002349534387"><ele>83.0</ele><time>2026-03-28T16:31:23.999Z</time></trkpt><trkpt lat="45.65931117354706" lon="10.638850036729044"><ele>83.0</ele><time>2026-03-28T16:31:24.999Z</time></trkpt><trkpt lat="45.659200434215386" lon="10.638728320518826"><ele>83.0</ele><time>2026-03-28T16:31:25.999Z</time></trkpt><trkpt lat="45.65907439949149" lon="10.638599866519383"><ele>83.0</ele><time>2026-03-28T16:31:27Z</time></trkpt><trkpt lat="45.65895396482988" lon="10.638454860334143"><ele>86.33333333333334</ele><time>2026-03-28T16:31:28Z</time></trkpt><trkpt lat="45.65882214054403" lon="10.638291894896868"><ele>89.66666666666667</ele><time>2026-03-28T16:31:29Z</time></trkpt><trkpt lat="45.658689899131026" lon="10.638118914478827"><ele>93.0</ele><time>2026-03-28T16:31:30Z</time></trkpt><trkpt lat="45.65856571421822" lon="10.637929946360373"><ele>91.33333333333333</ele><time>2026-03-28T16:31:31Z</time></trkpt><trkpt lat="45.65845766609335" lon="10.637742340173183"><ele>89.66666666666666</ele><time>2026-03-28T16:31:32Z</time></trkpt><trkpt lat="45.65833617108136" lon="10.637579000607962"><ele>88.0</ele><time>2026-03-28T16:31:33Z</time></trkpt><trkpt lat="45.65820133347566" lon="10.637415225071782"><ele>88.0</ele><time>2026-03-28T16:31:34Z</time></trkpt><trkpt lat="45.65805304384876" lon="10.637261263204833"><ele>88.0</ele><time>2026-03-28T16:31:35Z</time></trkpt><trkpt lat="45.65789626015402" lon="10.637092686336855"><ele>88.0</ele><time>2026-03-28T16:31:36Z</time></trkpt><trkpt lat="45.657751130399475" lon="10.6368969779911"><ele>84.66666666666666</ele><time>2026-03-28T16:31:37Z</time></trkpt><trkpt lat="45.65760860139574" lon="10.636680472496034"><ele>81.33333333333333</ele><time>2026-03-28T16:31:38Z</time></trkpt><trkpt lat="45.65746665476157" lon="10.636473074951013"><ele>78.0</ele><time>2026-03-28T16:31:39Z</time></trkpt><trkpt lat="45.65732998982094" lon="10.636284052449769"><ele>81.33333333333333</ele><time>2026-03-28T16:31:40Z</time></trkpt><trkpt lat="45.657192199405124" lon="10.636113568694745"><ele>84.66666666666666</ele><time>2026-03-28T16:31:41Z</time></trkpt><trkpt lat="45.65704527005874" lon="10.635970212094707"><ele>88.0</ele><time>2026-03-28T16:31:42Z</time></trkpt><trkpt lat="45.6568962721844" lon="10.635865936524961"><ele>88.0</ele><time>2026-03-28T16:31:43Z</time></trkpt><trkpt lat="45.6567411343696" lon="10.635756580491122"><ele>88.0</ele><time>2026-03-28T16:31:44Z</time></trkpt><trkpt lat="45.656603900247596" lon="10.635598387260542"><ele>88.0</ele><time>2026-03-28T16:31:45Z</time></trkpt><trkpt lat="45.656450214303575" lon="10.635467242985921"><ele>88.0</ele><time>2026-03-28T16:31:46Z</time></trkpt><trkpt lat="45.65631009638417" lon="10.635318344511408"><ele>88.0</ele><time>2026-03-28T16:31:47Z</time></trkpt><trkpt lat="45.656183943804535" lon="10.635135604312813"><ele>88.0</ele><time>2026-03-28T16:31:48Z</time></trkpt><trkpt lat="45.656042781381764" lon="10.634981251453409"><ele>91.0</ele><time>2026-03-28T16:31:49Z</time></trkpt><trkpt lat="45.655917375134685" lon="10.63481054859718"><ele>94.0</ele><time>2026-03-28T16:31:50Z</time></trkpt><trkpt lat="45.65581759900112" lon="10.634612512998979"><ele>97.0</ele><time>2026-03-28T16:31:51Z</time></trkpt><trkpt lat="45.65571803782916" lon="10.6344063041855"><ele>97.0</ele><time>2026-03-28T16:31:52Z</time></trkpt><trkpt lat="45.65561903195773" lon="10.634224079741223"><ele>97.0</ele><time>2026-03-28T16:31:53Z</time></trkpt><trkpt lat="45.65554031709797" lon="10.63403417535161"><ele>97.0</ele><time>2026-03-28T16:31:54Z</time></trkpt><trkpt lat="45.65544090554951" lon="10.633881125678212"><ele>97.0</ele><time>2026-03-28T16:31:55Z</time></trkpt><trkpt lat="45.65533177688406" lon="10.633745608800673"><ele>97.0</ele><time>2026-03-28T16:31:56Z</time></trkpt><trkpt lat="45.65523443230218" lon="10.633607742303747"><ele>97.0</ele><time>2026-03-28T16:31:57Z</time></trkpt><trkpt lat="45.655135431122225" lon="10.63345793981972"><ele>97.0</ele><time>2026-03-28T16:31:58Z</time></trkpt><trkpt lat="45.655047670373186" lon="10.633313129304215"><ele>97.25</ele><time>2026-03-28T16:31:59Z</time></trkpt><trkpt lat="45.6549490408847" lon="10.633160631381346"><ele>97.5</ele><time>2026-03-28T16:32:00Z</time></trkpt><trkpt lat="45.65485050718676" lon="10.633020036509102"><ele>97.75</ele><time>2026-03-28T16:32:01Z</time></trkpt><trkpt lat="45.65475960215138" lon="10.632885330304312"><ele>98.0</ele><time>2026-03-28T16:32:02Z</time></trkpt><trkpt lat="45.6546759995402" lon="10.632745072232616"><ele>98.0</ele><time>2026-03-28T16:32:03Z</time></trkpt><trkpt lat="45.654598625196314" lon="10.63259223416485"><ele>98.0</ele><time>2026-03-28T16:32:04Z</time></trkpt><trkpt lat="45.654531931330084" lon="10.632429963563027"><ele>98.0</ele><time>2026-03-28T16:32:05Z</time></trkpt><trkpt lat="45.65448390362741" lon="10.632254950330449"><ele>98.0</ele><time>2026-03-28T16:32:06Z</time></trkpt><trkpt lat="45.65443402814803" lon="10.632081533386623"><ele>94.25</ele><time>2026-03-28T16:32:07Z</time></trkpt><trkpt lat="45.65436839382349" lon="10.631910325637893"><ele>90.5</ele><time>2026-03-28T16:32:08Z</time></trkpt><trkpt lat="45.65429569870527" lon="10.631747959685438"><ele>86.75</ele><time>2026-03-28T16:32:09Z</time></trkpt><trkpt lat="45.65422819242897" lon="10.631588091156992"><ele>83.0</ele><time>2026-03-28T16:32:10Z</time></trkpt><trkpt lat="45.65416494038849" lon="10.631424716078813"><ele>83.0</ele><time>2026-03-28T16:32:11Z</time></trkpt><trkpt lat="45.65409287586114" lon="10.631255633573035"><ele>83.0</ele><time>2026-03-28T16:32:12Z</time></trkpt><trkpt lat="45.65402795568734" lon="10.631083173713106"><ele>83.0</ele><time>2026-03-28T16:32:13Z</time></trkpt><trkpt lat="45.65395859178605" lon="10.630911007839146"><ele>83.0</ele><time>2026-03-28T16:32:14Z</time></trkpt><trkpt lat="45.653885133115956" lon="10.63073112899561"><ele>84.33333333333334</ele><time>2026-03-28T16:32:15Z</time></trkpt><trkpt lat="45.65380095263544" lon="10.630543856664179"><ele>85.66666666666667</ele><time>2026-03-28T16:32:16Z</time></trkpt><trkpt lat="45.65370710022261" lon="10.630354557215085"><ele>87.0</ele><time>2026-03-28T16:32:17Z</time></trkpt><trkpt lat="45.65360423689226" lon="10.630159728053881"><ele>87.0</ele><time>2026-03-28T16:32:18Z</time></trkpt><trkpt lat="45.653491076168514" lon="10.629955609456685"><ele>87.0</ele><time>2026-03-28T16:32:19Z</time></trkpt><trkpt lat="45.653382767411145" lon="10.629748607467793"><ele>87.0</ele><time>2026-03-28T16:32:20Z</time></trkpt><trkpt lat="45.65328356101275" lon="10.629542709983005"><ele>92.66666666666666</ele><time>2026-03-28T16:32:21Z</time></trkpt><trkpt lat="45.65318163044422" lon="10.629345200381804"><ele>98.33333333333333</ele><time>2026-03-28T16:32:22Z</time></trkpt><trkpt lat="45.653074491270985" lon="10.62916402123186"><ele>104.0</ele><time>2026-03-28T16:32:23Z</time></trkpt><trkpt lat="45.65297613733653" lon="10.629004525315082"><ele>104.0</ele><time>2026-03-28T16:32:24Z</time></trkpt><trkpt lat="45.6528737693483" lon="10.628855462190474"><ele>104.0</ele><time>2026-03-28T16:32:25Z</time></trkpt><trkpt lat="45.65277368144875" lon="10.628721665597489"><ele>104.0</ele><time>2026-03-28T16:32:26Z</time></trkpt><trkpt lat="45.652661573070866" lon="10.62862058081216"><ele>104.0</ele><time>2026-03-28T16:32:27Z</time></trkpt><trkpt lat="45.652533013684724" lon="10.628544781451163"><ele>104.75</ele><time>2026-03-28T16:32:28Z</time></trkpt><trkpt lat="45.65240614002816" lon="10.628463608362862"><ele>105.5</ele><time>2026-03-28T16:32:29Z</time></trkpt><trkpt lat="45.652274191095465" lon="10.628385383270595"><ele>106.25</ele><time>2026-03-28T16:32:30Z</time></trkpt><trkpt lat="45.652135912154975" lon="10.62827606375013"><ele>107.0</ele><time>2026-03-28T16:32:31Z</time></trkpt><trkpt lat="45.65199934842151" lon="10.628140676571347"><ele>105.0</ele><time>2026-03-28T16:32:32Z</time></trkpt><trkpt lat="45.65186642793842" lon="10.628004020170986"><ele>103.0</ele><time>2026-03-28T16:32:33Z</time></trkpt><trkpt lat="45.65174745193596" lon="10.627861335800665"><ele>101.0</ele><time>2026-03-28T16:32:34Z</time></trkpt><trkpt lat="45.65162708849315" lon="10.627723007040553"><ele>101.0</ele><time>2026-03-28T16:32:35Z</time></trkpt><trkpt lat="45.651503821112236" lon="10.62757926371274"><ele>101.0</ele><time>2026-03-28T16:32:36Z</time></trkpt><trkpt lat="45.651387971873795" lon="10.627445548461576"><ele>101.0</ele><time>2026-03-28T16:32:37Z</time></trkpt><trkpt lat="45.65128296490658" lon="10.627311877628495"><ele>101.0</ele><time>2026-03-28T16:32:38Z</time></trkpt><trkpt lat="45.651192642841416" lon="10.62717089155489"><ele>97.4</ele><time>2026-03-28T16:32:39Z</time></trkpt><trkpt lat="45.65111378710626" lon="10.627043748620656"><ele>93.8</ele><time>2026-03-28T16:32:40Z</time></trkpt><trkpt lat="45.65105541127125" lon="10.626935335993787"><ele>90.2</ele><time>2026-03-28T16:32:41Z</time></trkpt><trkpt lat="45.651008550084896" lon="10.626838610023045"><ele>86.60000000000001</ele><time>2026-03-28T16:32:42Z</time></trkpt><trkpt lat="45.650959543909465" lon="10.626743173976504"><ele>83.0</ele><time>2026-03-28T16:32:43Z</time></trkpt><trkpt lat="45.650906538170105" lon="10.626645728817532"><ele>83.0</ele><time>2026-03-28T16:32:44Z</time></trkpt><trkpt lat="45.650859824951986" lon="10.626528982028637"><ele>83.0</ele><time>2026-03-28T16:32:45Z</time></trkpt><trkpt lat="45.65079377151985" lon="10.62640023681392"><ele>83.0</ele><time>2026-03-28T16:32:46Z</time></trkpt><trkpt lat="45.65073062878842" lon="10.626278360717324"><ele>83.0</ele><time>2026-03-28T16:32:47Z</time></trkpt><trkpt lat="45.650675081981575" lon="10.626174146818638"><ele>83.0</ele><time>2026-03-28T16:32:48Z</time></trkpt><trkpt lat="45.65061399619349" lon="10.626061104161893"><ele>85.5</ele><time>2026-03-28T16:32:49Z</time></trkpt><trkpt lat="45.650543143662844" lon="10.625938421947637"><ele>88.0</ele><time>2026-03-28T16:32:50Z</time></trkpt><trkpt lat="45.65046295794908" lon="10.625807001471415"><ele>90.5</ele><time>2026-03-28T16:32:51Z</time></trkpt><trkpt lat="45.65037228743617" lon="10.625670847127978"><ele>93.0</ele><time>2026-03-28T16:32:52Z</time></trkpt><trkpt lat="45.650279021509384" lon="10.625543624300313"><ele>91.2</ele><time>2026-03-28T16:32:53Z</time></trkpt><trkpt lat="45.6501915055966" lon="10.625425533094274"><ele>89.4</ele><time>2026-03-28T16:32:54Z</time></trkpt><trkpt lat="45.650108504737325" lon="10.625313534527834"><ele>87.60000000000001</ele><time>2026-03-28T16:32:55Z</time></trkpt><trkpt lat="45.650028990123666" lon="10.625206239949659"><ele>85.80000000000001</ele><time>2026-03-28T16:32:56Z</time></trkpt><trkpt lat="45.64995625729319" lon="10.625107606764818"><ele>84.0</ele><time>2026-03-28T16:32:57Z</time></trkpt><trkpt lat="45.64989920241033" lon="10.625029631579189"><ele>84.0</ele><time>2026-03-28T16:32:58Z</time></trkpt><trkpt lat="45.64984715028422" lon="10.624956487326502"><ele>84.0</ele><time>2026-03-28T16:32:59Z</time></trkpt><trkpt lat="45.64979129405184" lon="10.624871473276249"><ele>84.0</ele><time>2026-03-28T16:33:00Z</time></trkpt><trkpt lat="45.64973605346278" lon="10.62477928836668"><ele>84.0</ele><time>2026-03-28T16:33:01Z</time></trkpt><trkpt lat="45.64967943913801" lon="10.624679273833959"><ele>84.0</ele><time>2026-03-28T16:33:02Z</time></trkpt><trkpt lat="45.649618307851476" lon="10.624570087776618"><ele>84.0</ele><time>2026-03-28T16:33:03Z</time></trkpt><trkpt lat="45.64955169472884" lon="10.624451110463738"><ele>81.4</ele><time>2026-03-28T16:33:04Z</time></trkpt><trkpt lat="45.64948648033955" lon="10.624328556356579"><ele>78.80000000000001</ele><time>2026-03-28T16:33:05Z</time></trkpt><trkpt lat="45.64942444108806" lon="10.624205249830405"><ele>76.19999999999999</ele><time>2026-03-28T16:33:06Z</time></trkpt><trkpt lat="45.64936407045227" lon="10.624075295512714"><ele>73.6</ele><time>2026-03-28T16:33:07Z</time></trkpt><trkpt lat="45.64930767722689" lon="10.623942172814703"><ele>71.0</ele><time>2026-03-28T16:33:08Z</time></trkpt><trkpt lat="45.64925493332341" lon="10.62381772462894"><ele>71.0</ele><time>2026-03-28T16:33:09Z</time></trkpt><trkpt lat="45.64920840478827" lon="10.623707201899244"><ele>71.0</ele><time>2026-03-28T16:33:10Z</time></trkpt><trkpt lat="45.64916651390605" lon="10.62360712525811"><ele>71.0</ele><time>2026-03-28T16:33:11Z</time></trkpt><trkpt lat="45.649124018352914" lon="10.62350560395674"><ele>71.0</ele><time>2026-03-28T16:33:12Z</time></trkpt><trkpt lat="45.64907944594235" lon="10.623399867166711"><ele>71.0</ele><time>2026-03-28T16:33:13Z</time></trkpt><trkpt lat="45.649031957251694" lon="10.623287353790133"><ele>71.0</ele><time>2026-03-28T16:33:14Z</time></trkpt><trkpt lat="45.64897666982259" lon="10.623168940896093"><ele>72.0</ele><time>2026-03-28T16:33:15Z</time></trkpt><trkpt lat="45.64891448196284" lon="10.623046005357077"><ele>73.0</ele><time>2026-03-28T16:33:16Z</time></trkpt><trkpt lat="45.648841400468434" lon="10.62293263147599"><ele>74.0</ele><time>2026-03-28T16:33:17Z</time></trkpt><trkpt lat="45.64877322701154" lon="10.622810983203088"><ele>75.0</ele><time>2026-03-28T16:33:18Z</time></trkpt><trkpt lat="45.6486957882714" lon="10.622679089303533"><ele>76.0</ele><time>2026-03-28T16:33:18.999Z</time></trkpt><trkpt lat="45.64860881331553" lon="10.622555222299743"><ele>76.0</ele><time>2026-03-28T16:33:19.999Z</time></trkpt><trkpt lat="45.648530454481" lon="10.622446438601637"><ele>76.0</ele><time>2026-03-28T16:33:20.999Z</time></trkpt><trkpt lat="45.64844806742947" lon="10.622362306028181"><ele>76.0</ele><time>2026-03-28T16:33:21.999Z</time></trkpt><trkpt lat="45.64838587924499" lon="10.62226399089395"><ele>76.0</ele><time>2026-03-28T16:33:22.999Z</time></trkpt><trkpt lat="45.6483177180706" lon="10.622185847628058"><ele>76.0</ele><time>2026-03-28T16:33:23.999Z</time></trkpt><trkpt lat="45.648268777156154" lon="10.622104964309356"><ele>76.0</ele><time>2026-03-28T16:33:24.999Z</time></trkpt><trkpt lat="45.648214596176416" lon="10.622028240750954"><ele>76.0</ele><time>2026-03-28T16:33:25.999Z</time></trkpt><trkpt lat="45.64815925523273" lon="10.62194104238899"><ele>76.0</ele><time>2026-03-28T16:33:26.999Z</time></trkpt><trkpt lat="45.64809836838208" lon="10.62183573490206"><ele>76.0</ele><time>2026-03-28T16:33:27.999Z</time></trkpt><trkpt lat="45.64802974522923" lon="10.621710839325607"><ele>76.0</ele><time>2026-03-28T16:33:28.999Z</time></trkpt><trkpt lat="45.64796365398259" lon="10.62156905810416"><ele>77.25</ele><time>2026-03-28T16:33:29.999Z</time></trkpt><trkpt lat="45.647891199714316" lon="10.621413207639335"><ele>78.5</ele><time>2026-03-28T16:33:30.999Z</time></trkpt><trkpt lat="45.6477890706496" lon="10.621275613566533"><ele>79.75</ele><time>2026-03-28T16:33:31.999Z</time></trkpt><trkpt lat="45.64771367583932" lon="10.621113305134397"><ele>81.0</ele><time>2026-03-28T16:33:33Z</time></trkpt><trkpt lat="45.647639927297696" lon="10.620952838202383"><ele>81.0</ele><time>2026-03-28T16:33:34Z</time></trkpt><trkpt lat="45.64756767055397" lon="10.620792042833166"><ele>81.0</ele><time>2026-03-28T16:33:35Z</time></trkpt><trkpt lat="45.647520902581405" lon="10.620608792575895"><ele>81.0</ele><time>2026-03-28T16:33:36Z</time></trkpt><trkpt lat="45.64744887555588" lon="10.62045215924585"><ele>81.0</ele><time>2026-03-28T16:33:37Z</time></trkpt><trkpt lat="45.64737888495641" lon="10.620299954369685"><ele>88.25</ele><time>2026-03-28T16:33:38Z</time></trkpt><trkpt lat="45.647311094204916" lon="10.62015016419175"><ele>95.5</ele><time>2026-03-28T16:33:39Z</time></trkpt><trkpt lat="45.64724433327183" lon="10.620000731828126"><ele>102.75</ele><time>2026-03-28T16:33:40Z</time></trkpt><trkpt lat="45.64718011878128" lon="10.619855182803187"><ele>110.0</ele><time>2026-03-28T16:33:41Z</time></trkpt><trkpt lat="45.647115985215365" lon="10.619709817324875"><ele>110.0</ele><time>2026-03-28T16:33:42Z</time></trkpt><trkpt lat="45.64705643052742" lon="10.619574830182525"><ele>110.0</ele><time>2026-03-28T16:33:43Z</time></trkpt><trkpt lat="45.647001984130995" lon="10.619450143362421"><ele>110.0</ele><time>2026-03-28T16:33:44Z</time></trkpt><trkpt lat="45.646950601162764" lon="10.619332077904362"><ele>110.0</ele><time>2026-03-28T16:33:45Z</time></trkpt><trkpt lat="45.646897955038185" lon="10.61921572629438"><ele>110.0</ele><time>2026-03-28T16:33:46Z</time></trkpt><trkpt lat="45.646841792142446" lon="10.619095389896328"><ele>110.25</ele><time>2026-03-28T16:33:47Z</time></trkpt><trkpt lat="45.64677394095873" lon="10.618963434865632"><ele>110.5</ele><time>2026-03-28T16:33:48Z</time></trkpt><trkpt lat="45.646694194396865" lon="10.618828714537834"><ele>110.75</ele><time>2026-03-28T16:33:49Z</time></trkpt><trkpt lat="45.646614748749755" lon="10.618701646782585"><ele>111.0</ele><time>2026-03-28T16:33:50Z</time></trkpt><trkpt lat="45.64654194069756" lon="10.618586523475603"><ele>111.0</ele><time>2026-03-28T16:33:51Z</time></trkpt><trkpt lat="45.64647819922472" lon="10.61848573710384"><ele>111.0</ele><time>2026-03-28T16:33:52Z</time></trkpt><trkpt lat="45.64641603843227" lon="10.61838745006596"><ele>111.0</ele><time>2026-03-28T16:33:53Z</time></trkpt><trkpt lat="45.64635268693895" lon="10.618283382604615"><ele>111.0</ele><time>2026-03-28T16:33:54Z</time></trkpt><trkpt lat="45.646293656845764" lon="10.618176256101343"><ele>111.0</ele><time>2026-03-28T16:33:55Z</time></trkpt><trkpt lat="45.646242632756326" lon="10.618071748772545"><ele>111.0</ele><time>2026-03-28T16:33:56Z</time></trkpt><trkpt lat="45.64619333144564" lon="10.617967481383234"><ele>111.0</ele><time>2026-03-28T16:33:57Z</time></trkpt><trkpt lat="45.64614695815527" lon="10.617863407495602"><ele>111.0</ele><time>2026-03-28T16:33:58Z</time></trkpt><trkpt lat="45.64609845820235" lon="10.617756700102932"><ele>111.0</ele><time>2026-03-28T16:33:59Z</time></trkpt><trkpt lat="45.64605017802706" lon="10.61765463588919"><ele>111.0</ele><time>2026-03-28T16:34:00Z</time></trkpt><trkpt lat="45.64599578054211" lon="10.617563343283111"><ele>111.0</ele><time>2026-03-28T16:34:01Z</time></trkpt><trkpt lat="45.64592630821953" lon="10.617486433674094"><ele>107.0</ele><time>2026-03-28T16:34:02Z</time></trkpt><trkpt lat="45.645846388603424" lon="10.617420538922717"><ele>103.0</ele><time>2026-03-28T16:34:03Z</time></trkpt><trkpt lat="45.6457468117524" lon="10.61737833022356"><ele>99.0</ele><time>2026-03-28T16:34:04Z</time></trkpt><trkpt lat="45.64564610000196" lon="10.617365286166402"><ele>95.0</ele><time>2026-03-28T16:34:05Z</time></trkpt><trkpt lat="45.64555408966843" lon="10.617310079205259"><ele>91.0</ele><time>2026-03-28T16:34:06Z</time></trkpt><trkpt lat="45.64545878329027" lon="10.617275191334468"><ele>91.0</ele><time>2026-03-28T16:34:07Z</time></trkpt><trkpt lat="45.64536335491301" lon="10.617240258807511"><ele>91.0</ele><time>2026-03-28T16:34:08Z</time></trkpt><trkpt lat="45.64527187066686" lon="10.61720676995868"><ele>91.0</ele><time>2026-03-28T16:34:09Z</time></trkpt><trkpt lat="45.64519581588647" lon="10.61718000530476"><ele>91.0</ele><time>2026-03-28T16:34:10Z</time></trkpt><trkpt lat="45.645130254916474" lon="10.617156848203956"><ele>91.0</ele><time>2026-03-28T16:34:11Z</time></trkpt><trkpt lat="45.64505185412819" lon="10.617152560478914"><ele>91.0</ele><time>2026-03-28T16:34:13Z</time></trkpt><trkpt lat="45.64497970844076" lon="10.617103673000903"><ele>88.8</ele><time>2026-03-28T16:34:16Z</time></trkpt><trkpt lat="45.64486169272208" lon="10.617060807128158"><ele>86.6</ele><time>2026-03-28T16:34:18Z</time></trkpt><trkpt lat="45.64478318912275" lon="10.617030059877896"><ele>84.4</ele><time>2026-03-28T16:34:19Z</time></trkpt><trkpt lat="45.64470200048423" lon="10.61699604133061"><ele>82.2</ele><time>2026-03-28T16:34:20Z</time></trkpt><trkpt lat="45.64462380336649" lon="10.616959453664299"><ele>80.0</ele><time>2026-03-28T16:34:21Z</time></trkpt><trkpt lat="45.64454953188248" lon="10.616916797044297"><ele>80.0</ele><time>2026-03-28T16:34:22Z</time></trkpt><trkpt lat="45.64448510321996" lon="10.616877513482926"><ele>80.0</ele><time>2026-03-28T16:34:23Z</time></trkpt><trkpt lat="45.64442615890241" lon="10.616829594600409"><ele>80.0</ele><time>2026-03-28T16:34:25Z</time></trkpt><trkpt lat="45.64435784647581" lon="10.616797652928879"><ele>80.0</ele><time>2026-03-28T16:34:28Z</time></trkpt><trkpt lat="45.64427972989476" lon="10.616727635625736"><ele>80.0</ele><time>2026-03-28T16:34:31Z</time></trkpt><trkpt lat="45.6442103759748" lon="10.61665515095895"><ele>80.0</ele><time>2026-03-28T16:34:34Z</time></trkpt><trkpt lat="45.64412721331018" lon="10.61655983738037"><ele>80.16666666666667</ele><time>2026-03-28T16:34:36Z</time></trkpt><trkpt lat="45.64407409141135" lon="10.616483113088075"><ele>80.33333333333334</ele><time>2026-03-28T16:34:37Z</time></trkpt><trkpt lat="45.64403734629641" lon="10.616388427582828"><ele>80.5</ele><time>2026-03-28T16:34:38Z</time></trkpt><trkpt lat="45.64399242017987" lon="10.616325289223264"><ele>80.66666666666667</ele><time>2026-03-28T16:34:39Z</time></trkpt><trkpt lat="45.64391105788247" lon="10.616214376958895"><ele>80.83333333333333</ele><time>2026-03-28T16:34:41Z</time></trkpt><trkpt lat="45.643841928517226" lon="10.616120979218769"><ele>81.0</ele><time>2026-03-28T16:34:43Z</time></trkpt><trkpt lat="45.64376239746708" lon="10.616008793579242"><ele>81.16666666666667</ele><time>2026-03-28T16:34:45Z</time></trkpt><trkpt lat="45.64369446884738" lon="10.615910424143214"><ele>81.33333333333333</ele><time>2026-03-28T16:34:47Z</time></trkpt><trkpt lat="45.643640065720874" lon="10.615832142324361"><ele>81.5</ele><time>2026-03-28T16:34:50Z</time></trkpt><trkpt lat="45.643584250816474" lon="10.615755056588283"><ele>81.66666666666666</ele><time>2026-03-28T16:34:54Z</time></trkpt><trkpt lat="45.64353455670028" lon="10.61568117661064"><ele>81.83333333333333</ele><time>2026-03-28T16:34:58Z</time></trkpt><trkpt lat="45.64348867927657" lon="10.615615533702426"><ele>82.0</ele><time>2026-03-28T16:35:01Z</time></trkpt><trkpt lat="45.64343461776369" lon="10.61553937048097"><ele>81.83333333333333</ele><time>2026-03-28T16:35:03Z</time></trkpt><trkpt lat="45.64335897552419" lon="10.615433333429916"><ele>81.66666666666666</ele><time>2026-03-28T16:35:05Z</time></trkpt><trkpt lat="45.64329284762536" lon="10.615430179346712"><ele>81.5</ele><time>2026-03-28T16:35:06Z</time></trkpt><trkpt lat="45.64328099850392" lon="10.615323225708769"><ele>81.33333333333333</ele><time>2026-03-28T16:35:07Z</time></trkpt><trkpt lat="45.64322829538045" lon="10.615248536781339"><ele>81.16666666666667</ele><time>2026-03-28T16:35:08Z</time></trkpt><trkpt lat="45.64317472093264" lon="10.615172614566479"><ele>81.0</ele><time>2026-03-28T16:35:09Z</time></trkpt><trkpt lat="45.64312472261379" lon="10.615101723925049"><ele>81.0</ele><time>2026-03-28T16:35:10Z</time></trkpt><trkpt lat="45.643040649576534" lon="10.614982142812568"><ele>81.0</ele><time>2026-03-28T16:35:12Z</time></trkpt><trkpt lat="45.64297582711395" lon="10.614889942590445"><ele>81.0</ele><time>2026-03-28T16:35:14Z</time></trkpt><trkpt lat="45.642886510401965" lon="10.614761175197934"><ele>81.0</ele><time>2026-03-28T16:35:16Z</time></trkpt><trkpt lat="45.642840004636355" lon="10.614693678568806"><ele>81.0</ele><time>2026-03-28T16:35:17Z</time></trkpt><trkpt lat="45.64275284306559" lon="10.61456158730083"><ele>80.8</ele><time>2026-03-28T16:35:19Z</time></trkpt><trkpt lat="45.64270874795325" lon="10.614487401394852"><ele>80.6</ele><time>2026-03-28T16:35:20Z</time></trkpt><trkpt lat="45.64264356610467" lon="10.614369833816005"><ele>80.4</ele><time>2026-03-28T16:35:22Z</time></trkpt><trkpt lat="45.64258173239451" lon="10.61425261129364"><ele>80.2</ele><time>2026-03-28T16:35:24Z</time></trkpt><trkpt lat="45.64251414457798" lon="10.614107379340435"><ele>80.0</ele><time>2026-03-28T16:35:26Z</time></trkpt><trkpt lat="45.64247917745977" lon="10.614026651496145"><ele>80.0</ele><time>2026-03-28T16:35:27Z</time></trkpt><trkpt lat="45.64243007830939" lon="10.6139124920251"><ele>80.0</ele><time>2026-03-28T16:35:29Z</time></trkpt><trkpt lat="45.64238595292843" lon="10.613811811211619"><ele>80.0</ele><time>2026-03-28T16:35:31.999Z</time></trkpt><trkpt lat="45.64232102291471" lon="10.613729382256865"><ele>80.0</ele><time>2026-03-28T16:35:34.999Z</time></trkpt><trkpt lat="45.64227837788511" lon="10.613617243676304"><ele>80.0</ele><time>2026-03-28T16:35:37.999Z</time></trkpt><trkpt lat="45.6422273751622" lon="10.613489831279459"><ele>80.33333333333334</ele><time>2026-03-28T16:35:41Z</time></trkpt><trkpt lat="45.642209418891674" lon="10.613397912286318"><ele>80.66666666666667</ele><time>2026-03-28T16:35:43Z</time></trkpt><trkpt lat="45.6421830186333" lon="10.613295834810017"><ele>81.0</ele><time>2026-03-28T16:35:46Z</time></trkpt><trkpt lat="45.64214826022637" lon="10.613160551304896"><ele>81.33333333333333</ele><time>2026-03-28T16:35:49Z</time></trkpt><trkpt lat="45.64208729573283" lon="10.612996675088457"><ele>81.66666666666666</ele><time>2026-03-28T16:35:51Z</time></trkpt><trkpt lat="45.642063093643856" lon="10.61291046397219"><ele>82.0</ele><time>2026-03-28T16:35:52Z</time></trkpt><trkpt lat="45.64201426723798" lon="10.612742615741597"><ele>81.83333333333333</ele><time>2026-03-28T16:35:54Z</time></trkpt><trkpt lat="45.64198792960808" lon="10.61265597086576"><ele>81.66666666666666</ele><time>2026-03-28T16:35:55Z</time></trkpt><trkpt lat="45.64198315359584" lon="10.612553598570482"><ele>81.5</ele><time>2026-03-28T16:35:56Z</time></trkpt><trkpt lat="45.64194995688202" lon="10.612450810155002"><ele>81.33333333333333</ele><time>2026-03-28T16:35:57Z</time></trkpt><trkpt lat="45.64191414107234" lon="10.612341024696471"><ele>81.16666666666667</ele><time>2026-03-28T16:35:58Z</time></trkpt><trkpt lat="45.64188000084615" lon="10.612239225696813"><ele>81.0</ele><time>2026-03-28T16:35:59Z</time></trkpt><trkpt lat="45.64181884863372" lon="10.612150109170846"><ele>81.0</ele><time>2026-03-28T16:36:00Z</time></trkpt><trkpt lat="45.64177410438836" lon="10.612029353471259"><ele>81.0</ele><time>2026-03-28T16:36:01Z</time></trkpt><trkpt lat="45.6417324492696" lon="10.611903421925202"><ele>81.0</ele><time>2026-03-28T16:36:02Z</time></trkpt><trkpt lat="45.64170404050947" lon="10.611774413941648"><ele>81.0</ele><time>2026-03-28T16:36:03Z</time></trkpt><trkpt lat="45.64167773113865" lon="10.6116605032175"><ele>81.0</ele><time>2026-03-28T16:36:04Z</time></trkpt><trkpt lat="45.64165250197527" lon="10.611567704630545"><ele>81.0</ele><time>2026-03-28T16:36:05Z</time></trkpt><trkpt lat="45.6416213731071" lon="10.611484598364273"><ele>81.5</ele><time>2026-03-28T16:36:06Z</time></trkpt><trkpt lat="45.64157455666765" lon="10.611345084404604"><ele>82.0</ele><time>2026-03-28T16:36:08Z</time></trkpt><trkpt lat="45.64153927327562" lon="10.611267527307247"><ele>82.5</ele><time>2026-03-28T16:36:11Z</time></trkpt><trkpt lat="45.641509247195486" lon="10.61117872812073"><ele>83.0</ele><time>2026-03-28T16:36:13Z</time></trkpt><trkpt lat="45.64147556348884" lon="10.611069951529624"><ele>83.5</ele><time>2026-03-28T16:36:15Z</time></trkpt><trkpt lat="45.64144275177374" lon="10.610980023333447"><ele>84.0</ele><time>2026-03-28T16:36:17Z</time></trkpt><trkpt lat="45.64140331469825" lon="10.610889158866756"><ele>84.80000000000001</ele><time>2026-03-28T16:36:19Z</time></trkpt><trkpt lat="45.641361487635066" lon="10.610756334561781"><ele>85.60000000000001</ele><time>2026-03-28T16:36:21Z</time></trkpt><trkpt lat="45.64132488296817" lon="10.610645158235455"><ele>86.4</ele><time>2026-03-28T16:36:23Z</time></trkpt><trkpt lat="45.64129089592242" lon="10.610537412278306"><ele>87.2</ele><time>2026-03-28T16:36:25Z</time></trkpt><trkpt lat="45.64126294754362" lon="10.610428808055063"><ele>88.0</ele><time>2026-03-28T16:36:28Z</time></trkpt><trkpt lat="45.641222028086936" lon="10.610289752908912"><ele>88.0</ele><time>2026-03-28T16:36:31Z</time></trkpt><trkpt lat="45.64118425530444" lon="10.610152307004753"><ele>88.0</ele><time>2026-03-28T16:36:33Z</time></trkpt><trkpt lat="45.64113445480441" lon="10.610007843881801"><ele>88.0</ele><time>2026-03-28T16:36:35Z</time></trkpt><trkpt lat="45.64108015013344" lon="10.60984698433835"><ele>88.0</ele><time>2026-03-28T16:36:37Z</time></trkpt><trkpt lat="45.64103620734664" lon="10.609701870537231"><ele>86.66666666666666</ele><time>2026-03-28T16:36:39Z</time></trkpt><trkpt lat="45.640996887869214" lon="10.609590276500775"><ele>85.33333333333333</ele><time>2026-03-28T16:36:43Z</time></trkpt><trkpt lat="45.64095453678711" lon="10.609474066955404"><ele>84.0</ele><time>2026-03-28T16:36:45Z</time></trkpt><trkpt lat="45.64093429986838" lon="10.6093794180482"><ele>82.66666666666667</ele><time>2026-03-28T16:36:47Z</time></trkpt><trkpt lat="45.64089853983556" lon="10.609299566480775"><ele>81.33333333333334</ele><time>2026-03-28T16:36:50Z</time></trkpt><trkpt lat="45.64089065558696" lon="10.609151448435385"><ele>80.0</ele><time>2026-03-28T16:36:52Z</time></trkpt><trkpt lat="45.64085202472364" lon="10.609032864573162"><ele>80.0</ele><time>2026-03-28T16:36:54Z</time></trkpt><trkpt lat="45.64080566907828" lon="10.608962568026794"><ele>80.0</ele><time>2026-03-28T16:36:56Z</time></trkpt><trkpt lat="45.64079023042593" lon="10.608867702345416"><ele>80.0</ele><time>2026-03-28T16:36:58Z</time></trkpt><trkpt lat="45.64078077594783" lon="10.60877207485083"><ele>80.0</ele><time>2026-03-28T16:37:00Z</time></trkpt><trkpt lat="45.640769165466054" lon="10.608670611337324"><ele>80.0</ele><time>2026-03-28T16:37:02Z</time></trkpt><trkpt lat="45.64068355571126" lon="10.608631093974116"><ele>80.0</ele><time>2026-03-28T16:37:04Z</time></trkpt><trkpt lat="45.640611247621216" lon="10.608518500284736"><ele>80.8</ele><time>2026-03-28T16:37:06Z</time></trkpt><trkpt lat="45.64052156703958" lon="10.608422425852215"><ele>81.6</ele><time>2026-03-28T16:37:08Z</time></trkpt><trkpt lat="45.64041728349608" lon="10.60833902060148"><ele>82.4</ele><time>2026-03-28T16:37:10Z</time></trkpt><trkpt lat="45.640303824040465" lon="10.608257861174263"><ele>83.2</ele><time>2026-03-28T16:37:12Z</time></trkpt><trkpt lat="45.640240744762245" lon="10.608216668464246"><ele>84.0</ele><time>2026-03-28T16:37:13Z</time></trkpt><trkpt lat="45.640176403728624" lon="10.60817658705872"><ele>84.0</ele><time>2026-03-28T16:37:14Z</time></trkpt><trkpt lat="45.640115786807584" lon="10.608139283698213"><ele>84.0</ele><time>2026-03-28T16:37:15Z</time></trkpt><trkpt lat="45.64005538414836" lon="10.608108381293693"><ele>84.0</ele><time>2026-03-28T16:37:16Z</time></trkpt><trkpt lat="45.639993206140566" lon="10.608077403357214"><ele>84.0</ele><time>2026-03-28T16:37:17Z</time></trkpt><trkpt lat="45.639931546540915" lon="10.608047377303132"><ele>84.0</ele><time>2026-03-28T16:37:18Z</time></trkpt><trkpt lat="45.63986525675061" lon="10.608015096529206"><ele>84.0</ele><time>2026-03-28T16:37:19Z</time></trkpt><trkpt lat="45.63977431505308" lon="10.607971842272738"><ele>84.0</ele><time>2026-03-28T16:37:21Z</time></trkpt><trkpt lat="45.63967756923739" lon="10.607968359329409"><ele>84.0</ele><time>2026-03-28T16:37:37.999Z</time></trkpt><trkpt lat="45.639583172251704" lon="10.607928545827614"><ele>84.0</ele><time>2026-03-28T16:37:39.999Z</time></trkpt><trkpt lat="45.63947536530425" lon="10.607876421758657"><ele>84.0</ele><time>2026-03-28T16:37:41.999Z</time></trkpt><trkpt lat="45.63941227720405" lon="10.607850048702499"><ele>84.0</ele><time>2026-03-28T16:37:42.999Z</time></trkpt><trkpt lat="45.63936318115126" lon="10.607779593233142"><ele>84.0</ele><time>2026-03-28T16:37:43.999Z</time></trkpt><trkpt lat="45.639258338495104" lon="10.607730792070038"><ele>83.66666666666667</ele><time>2026-03-28T16:37:46Z</time></trkpt><trkpt lat="45.6391517173578" lon="10.607681163087904"><ele>83.33333333333333</ele><time>2026-03-28T16:37:48Z</time></trkpt><trkpt lat="45.6390576229481" lon="10.607637364863761"><ele>83.0</ele><time>2026-03-28T16:37:50Z</time></trkpt><trkpt lat="45.63898727409327" lon="10.60760461960049"><ele>82.66666666666666</ele><time>2026-03-28T16:37:52Z</time></trkpt><trkpt lat="45.638895036908" lon="10.607561685889012"><ele>82.33333333333333</ele><time>2026-03-28T16:37:54Z</time></trkpt><trkpt lat="45.6388325142248" lon="10.607532583423643"><ele>82.0</ele><time>2026-03-28T16:37:55Z</time></trkpt><trkpt lat="45.638765061178354" lon="10.607500991570157"><ele>82.0</ele><time>2026-03-28T16:37:56Z</time></trkpt><trkpt lat="45.63869574443756" lon="10.607468235497066"><ele>82.0</ele><time>2026-03-28T16:37:57Z</time></trkpt><trkpt lat="45.63863559565347" lon="10.607439811706268"><ele>82.0</ele><time>2026-03-28T16:37:58Z</time></trkpt><trkpt lat="45.63852758044783" lon="10.607387465856355"><ele>82.0</ele><time>2026-03-28T16:38:00Z</time></trkpt><trkpt lat="45.63840344240261" lon="10.607324861037512"><ele>82.0</ele><time>2026-03-28T16:38:02Z</time></trkpt><trkpt lat="45.63834429334339" lon="10.607292837294308"><ele>82.0</ele><time>2026-03-28T16:38:03Z</time></trkpt><trkpt lat="45.638234003795326" lon="10.607222550479365"><ele>81.5</ele><time>2026-03-28T16:38:05Z</time></trkpt><trkpt lat="45.638176209509275" lon="10.607180030858135"><ele>81.0</ele><time>2026-03-28T16:38:06Z</time></trkpt><trkpt lat="45.63811926089415" lon="10.607135699755638"><ele>80.5</ele><time>2026-03-28T16:38:07Z</time></trkpt><trkpt lat="45.63806443990685" lon="10.60708800658013"><ele>80.0</ele><time>2026-03-28T16:38:08Z</time></trkpt><trkpt lat="45.63797469645972" lon="10.606991131784648"><ele>79.5</ele><time>2026-03-28T16:38:10Z</time></trkpt><trkpt lat="45.63788809137798" lon="10.606886173621174"><ele>79.0</ele><time>2026-03-28T16:38:12Z</time></trkpt><trkpt lat="45.63780287439027" lon="10.606772575359843"><ele>78.71428571428572</ele><time>2026-03-28T16:38:14Z</time></trkpt><trkpt lat="45.63775304149784" lon="10.606702464607759"><ele>78.42857142857143</ele><time>2026-03-28T16:38:15Z</time></trkpt><trkpt lat="45.637700780453464" lon="10.60662893766347"><ele>78.14285714285714</ele><time>2026-03-28T16:38:16Z</time></trkpt><trkpt lat="45.637646913367945" lon="10.606553151164414"><ele>77.85714285714286</ele><time>2026-03-28T16:38:17Z</time></trkpt><trkpt lat="45.63759191972059" lon="10.606476221595036"><ele>77.57142857142857</ele><time>2026-03-28T16:38:18Z</time></trkpt><trkpt lat="45.63753917318782" lon="10.60640247101363"><ele>77.28571428571429</ele><time>2026-03-28T16:38:19Z</time></trkpt><trkpt lat="45.6374939375814" lon="10.60633787839817"><ele>77.0</ele><time>2026-03-28T16:38:20Z</time></trkpt><trkpt lat="45.63740694535296" lon="10.606209751017534"><ele>76.66666666666667</ele><time>2026-03-28T16:38:22Z</time></trkpt><trkpt lat="45.63736034866498" lon="10.606138801627488"><ele>76.33333333333334</ele><time>2026-03-28T16:38:23Z</time></trkpt><trkpt lat="45.6373136049061" lon="10.606066687014673"><ele>76.0</ele><time>2026-03-28T16:38:24Z</time></trkpt><trkpt lat="45.637236963290846" lon="10.605937018013433"><ele>75.66666666666667</ele><time>2026-03-28T16:38:26Z</time></trkpt><trkpt lat="45.637195666805866" lon="10.605861798348485"><ele>75.33333333333333</ele><time>2026-03-28T16:38:27Z</time></trkpt><trkpt lat="45.637156401620544" lon="10.605785527602208"><ele>75.0</ele><time>2026-03-28T16:38:28Z</time></trkpt><trkpt lat="45.63711578441644" lon="10.605704653978476"><ele>75.0</ele><time>2026-03-28T16:38:29Z</time></trkpt><trkpt lat="45.63707580119039" lon="10.605625046286166"><ele>75.0</ele><time>2026-03-28T16:38:30Z</time></trkpt><trkpt lat="45.63703685104959" lon="10.605553471872097"><ele>75.0</ele><time>2026-03-28T16:38:31Z</time></trkpt><trkpt lat="45.636972224683426" lon="10.60543880996696"><ele>75.0</ele><time>2026-03-28T16:38:33Z</time></trkpt><trkpt lat="45.63692019732702" lon="10.605346501557408"><ele>75.0</ele><time>2026-03-28T16:38:35Z</time></trkpt><trkpt lat="45.636872282206625" lon="10.605280004990085"><ele>75.0</ele><time>2026-03-28T16:38:37Z</time></trkpt><trkpt lat="45.63682473214696" lon="10.605162711579945"><ele>74.6</ele><time>2026-03-28T16:38:39Z</time></trkpt><trkpt lat="45.636773820088706" lon="10.605052689076972"><ele>74.2</ele><time>2026-03-28T16:38:41Z</time></trkpt><trkpt lat="45.636697219620395" lon="10.60495032728331"><ele>73.8</ele><time>2026-03-28T16:38:43Z</time></trkpt><trkpt lat="45.63662280309475" lon="10.604823858878627"><ele>73.4</ele><time>2026-03-28T16:38:45Z</time></trkpt><trkpt lat="45.636583779613936" lon="10.604748436551754"><ele>73.0</ele><time>2026-03-28T16:38:46Z</time></trkpt><trkpt lat="45.63656235460472" lon="10.604635342835916"><ele>73.0</ele><time>2026-03-28T16:38:47Z</time></trkpt><trkpt lat="45.636516186945656" lon="10.604545815923334"><ele>73.0</ele><time>2026-03-28T16:38:48Z</time></trkpt><trkpt lat="45.636468805002096" lon="10.604453741746788"><ele>73.0</ele><time>2026-03-28T16:38:49Z</time></trkpt><trkpt lat="45.63641970247153" lon="10.604358354018562"><ele>73.0</ele><time>2026-03-28T16:38:50Z</time></trkpt><trkpt lat="45.636368114465334" lon="10.604259349620156"><ele>73.0</ele><time>2026-03-28T16:38:51Z</time></trkpt><trkpt lat="45.636314369857125" lon="10.604156336393148"><ele>73.0</ele><time>2026-03-28T16:38:52Z</time></trkpt><trkpt lat="45.63626574511421" lon="10.604063136496794"><ele>72.8</ele><time>2026-03-28T16:38:53Z</time></trkpt><trkpt lat="45.63622438947327" lon="10.603983869401914"><ele>72.6</ele><time>2026-03-28T16:38:54Z</time></trkpt><trkpt lat="45.636153336965855" lon="10.603847681716038"><ele>72.4</ele><time>2026-03-28T16:38:56Z</time></trkpt><trkpt lat="45.63608402161276" lon="10.603714823444395"><ele>72.2</ele><time>2026-03-28T16:38:58Z</time></trkpt><trkpt lat="45.63600647851828" lon="10.603566190231879"><ele>72.0</ele><time>2026-03-28T16:39:00Z</time></trkpt><trkpt lat="45.63596272333118" lon="10.603481567626515"><ele>71.71428571428572</ele><time>2026-03-28T16:39:01Z</time></trkpt><trkpt lat="45.63592107941504" lon="10.603401497680915"><ele>71.42857142857143</ele><time>2026-03-28T16:39:02Z</time></trkpt><trkpt lat="45.635880058894685" lon="10.603322626462552"><ele>71.14285714285714</ele><time>2026-03-28T16:39:03Z</time></trkpt><trkpt lat="45.63581744329746" lon="10.60327521933338"><ele>70.85714285714286</ele><time>2026-03-28T16:39:04Z</time></trkpt><trkpt lat="45.635779129487695" lon="10.603200672564505"><ele>70.57142857142857</ele><time>2026-03-28T16:39:05Z</time></trkpt><trkpt lat="45.63573695521951" lon="10.603122013204445"><ele>70.28571428571429</ele><time>2026-03-28T16:39:06Z</time></trkpt><trkpt lat="45.635698143369" lon="10.603041152742493"><ele>70.0</ele><time>2026-03-28T16:39:07Z</time></trkpt><trkpt lat="45.63566296095198" lon="10.602958151283678"><ele>70.0</ele><time>2026-03-28T16:39:08Z</time></trkpt><trkpt lat="45.63562976133013" lon="10.602880316087262"><ele>70.0</ele><time>2026-03-28T16:39:09Z</time></trkpt><trkpt lat="45.63558133060275" lon="10.602787453195925"><ele>70.0</ele><time>2026-03-28T16:39:11Z</time></trkpt><trkpt lat="45.63553032026177" lon="10.602698064548633"><ele>70.0</ele><time>2026-03-28T16:39:13Z</time></trkpt><trkpt lat="45.63546636543446" lon="10.602576116563919"><ele>70.0</ele><time>2026-03-28T16:39:15Z</time></trkpt><trkpt lat="45.63541666559844" lon="10.60248592510601"><ele>70.0</ele><time>2026-03-28T16:39:17Z</time></trkpt><trkpt lat="45.63535742313744" lon="10.602393780075065"><ele>69.83333333333333</ele><time>2026-03-28T16:39:19Z</time></trkpt><trkpt lat="45.63527790496443" lon="10.602245479463086"><ele>69.66666666666666</ele><time>2026-03-28T16:39:21Z</time></trkpt><trkpt lat="45.63523754749403" lon="10.602157903936474"><ele>69.5</ele><time>2026-03-28T16:39:22Z</time></trkpt><trkpt lat="45.635187895863005" lon="10.602067968393808"><ele>69.33333333333333</ele><time>2026-03-28T16:39:23Z</time></trkpt><trkpt lat="45.63514049016213" lon="10.601981306426817"><ele>69.16666666666667</ele><time>2026-03-28T16:39:24Z</time></trkpt><trkpt lat="45.635093058094114" lon="10.60189705411699"><ele>69.0</ele><time>2026-03-28T16:39:25Z</time></trkpt><trkpt lat="45.635082827199206" lon="10.601782056888558"><ele>69.0</ele><time>2026-03-28T16:39:26Z</time></trkpt><trkpt lat="45.635041246194355" lon="10.601696403710877"><ele>69.0</ele><time>2026-03-28T16:39:27Z</time></trkpt><trkpt lat="45.63500743252322" lon="10.601613836792803"><ele>69.0</ele><time>2026-03-28T16:39:28Z</time></trkpt><trkpt lat="45.63495524651727" lon="10.601466717659543"><ele>69.0</ele><time>2026-03-28T16:39:30Z</time></trkpt><trkpt lat="45.63492244894378" lon="10.601306846848177"><ele>69.0</ele><time>2026-03-28T16:39:32Z</time></trkpt><trkpt lat="45.634907538312476" lon="10.60114705612679"><ele>69.2</ele><time>2026-03-28T16:39:34Z</time></trkpt><trkpt lat="45.634899616022174" lon="10.601019872558618"><ele>69.4</ele><time>2026-03-28T16:39:36Z</time></trkpt><trkpt lat="45.634919247042845" lon="10.600881600382916"><ele>69.6</ele><time>2026-03-28T16:39:38Z</time></trkpt><trkpt lat="45.634949946438844" lon="10.600729076941203"><ele>69.8</ele><time>2026-03-28T16:39:40Z</time></trkpt><trkpt lat="45.63499169155363" lon="10.600579594006396"><ele>70.0</ele><time>2026-03-28T16:39:42Z</time></trkpt><trkpt lat="45.63502475827183" lon="10.600478288124641"><ele>70.6</ele><time>2026-03-28T16:39:44.999Z</time></trkpt><trkpt lat="45.6350377577786" lon="10.600330991899577"><ele>71.2</ele><time>2026-03-28T16:39:46.999Z</time></trkpt><trkpt lat="45.63509820180635" lon="10.600266641392903"><ele>71.8</ele><time>2026-03-28T16:39:47.999Z</time></trkpt><trkpt lat="45.635137973169925" lon="10.600152029514195"><ele>72.4</ele><time>2026-03-28T16:39:48.999Z</time></trkpt><trkpt lat="45.63518512654511" lon="10.600020974247885"><ele>73.0</ele><time>2026-03-28T16:39:49.999Z</time></trkpt><trkpt lat="45.63522536128731" lon="10.599883958845151"><ele>73.0</ele><time>2026-03-28T16:39:51Z</time></trkpt><trkpt lat="45.635277418970006" lon="10.59977851601209"><ele>73.0</ele><time>2026-03-28T16:39:52Z</time></trkpt><trkpt lat="45.635323534888556" lon="10.599673649983565"><ele>73.0</ele><time>2026-03-28T16:39:53Z</time></trkpt><trkpt lat="45.635376575159235" lon="10.599600480756386"><ele>73.0</ele><time>2026-03-28T16:39:54Z</time></trkpt><trkpt lat="45.63541820944765" lon="10.599491245539348"><ele>73.0</ele><time>2026-03-28T16:39:56Z</time></trkpt><trkpt lat="45.63547499250335" lon="10.599384016532934"><ele>73.0</ele><time>2026-03-28T16:39:59Z</time></trkpt><trkpt lat="45.635541297688334" lon="10.599302558563291"><ele>72.8</ele><time>2026-03-28T16:40:01Z</time></trkpt><trkpt lat="45.635597738204275" lon="10.599190763670496"><ele>72.6</ele><time>2026-03-28T16:40:03Z</time></trkpt><trkpt lat="45.63563666389628" lon="10.599030376502583"><ele>72.4</ele><time>2026-03-28T16:40:05Z</time></trkpt><trkpt lat="45.63566805657733" lon="10.598931403160401"><ele>72.2</ele><time>2026-03-28T16:40:06Z</time></trkpt><trkpt lat="45.63569886639092" lon="10.598831150366603"><ele>72.0</ele><time>2026-03-28T16:40:07Z</time></trkpt><trkpt lat="45.635720594686916" lon="10.59869761029222"><ele>72.4</ele><time>2026-03-28T16:40:08Z</time></trkpt><trkpt lat="45.63572479029574" lon="10.598553680940066"><ele>72.80000000000001</ele><time>2026-03-28T16:40:09Z</time></trkpt><trkpt lat="45.63572351159041" lon="10.598414312957264"><ele>73.2</ele><time>2026-03-28T16:40:10Z</time></trkpt><trkpt lat="45.6357227221815" lon="10.598277133444462"><ele>73.60000000000001</ele><time>2026-03-28T16:40:11Z</time></trkpt><trkpt lat="45.63571879486021" lon="10.598141220383576"><ele>74.0</ele><time>2026-03-28T16:40:12Z</time></trkpt><trkpt lat="45.6357053808542" lon="10.59799657530144"><ele>74.0</ele><time>2026-03-28T16:40:13Z</time></trkpt><trkpt lat="45.63569842435246" lon="10.597853412198758"><ele>74.0</ele><time>2026-03-28T16:40:14Z</time></trkpt><trkpt lat="45.63568568236229" lon="10.597709770910077"><ele>74.0</ele><time>2026-03-28T16:40:15Z</time></trkpt><trkpt lat="45.635668086881395" lon="10.597567332637496"><ele>74.0</ele><time>2026-03-28T16:40:16Z</time></trkpt><trkpt lat="45.63563402355206" lon="10.597415306905594"><ele>74.0</ele><time>2026-03-28T16:40:17Z</time></trkpt><trkpt lat="45.635603086881034" lon="10.597268268507186"><ele>75.0</ele><time>2026-03-28T16:40:18Z</time></trkpt><trkpt lat="45.63556090879184" lon="10.597133864825095"><ele>76.0</ele><time>2026-03-28T16:40:19Z</time></trkpt><trkpt lat="45.63551199608902" lon="10.597012456160357"><ele>77.0</ele><time>2026-03-28T16:40:20Z</time></trkpt><trkpt lat="45.635462068796514" lon="10.596887986505251"><ele>78.0</ele><time>2026-03-28T16:40:21Z</time></trkpt><trkpt lat="45.635408542947374" lon="10.596763641995821"><ele>79.0</ele><time>2026-03-28T16:40:22Z</time></trkpt><trkpt lat="45.6353467457605" lon="10.596640283676743"><ele>78.8</ele><time>2026-03-28T16:40:23Z</time></trkpt><trkpt lat="45.635283061173695" lon="10.596513705386531"><ele>78.60000000000001</ele><time>2026-03-28T16:40:24Z</time></trkpt><trkpt lat="45.63522402857506" lon="10.596381816339141"><ele>78.4</ele><time>2026-03-28T16:40:25Z</time></trkpt><trkpt lat="45.635167243785524" lon="10.596249212828658"><ele>78.2</ele><time>2026-03-28T16:40:26Z</time></trkpt><trkpt lat="45.635120281521964" lon="10.59610944818107"><ele>78.0</ele><time>2026-03-28T16:40:27Z</time></trkpt><trkpt lat="45.635045111944414" lon="10.595973315998066"><ele>78.0</ele><time>2026-03-28T16:40:28Z</time></trkpt><trkpt lat="45.63498449153222" lon="10.595825001675381"><ele>78.0</ele><time>2026-03-28T16:40:29Z</time></trkpt><trkpt lat="45.63492017858463" lon="10.59566635917453"><ele>78.0</ele><time>2026-03-28T16:40:30Z</time></trkpt><trkpt lat="45.63486520189378" lon="10.595508723455014"><ele>78.0</ele><time>2026-03-28T16:40:31Z</time></trkpt><trkpt lat="45.63479868160819" lon="10.595352276820838"><ele>85.25</ele><time>2026-03-28T16:40:32Z</time></trkpt><trkpt lat="45.63472261488736" lon="10.595187630237596"><ele>92.5</ele><time>2026-03-28T16:40:33Z</time></trkpt><trkpt lat="45.63465095328774" lon="10.595020338637031"><ele>99.75</ele><time>2026-03-28T16:40:34Z</time></trkpt><trkpt lat="45.63457585992013" lon="10.594851648211387"><ele>107.0</ele><time>2026-03-28T16:40:35Z</time></trkpt><trkpt lat="45.63450005490316" lon="10.594680390715023"><ele>99.5</ele><time>2026-03-28T16:40:36Z</time></trkpt><trkpt lat="45.63441639693434" lon="10.594508827743036"><ele>92.0</ele><time>2026-03-28T16:40:37Z</time></trkpt><trkpt lat="45.63433070472654" lon="10.594344539882796"><ele>84.5</ele><time>2026-03-28T16:40:38Z</time></trkpt><trkpt lat="45.63424170371227" lon="10.594179547716024"><ele>77.0</ele><time>2026-03-28T16:40:39Z</time></trkpt><trkpt lat="45.63415811476349" lon="10.594009877718191"><ele>77.0</ele><time>2026-03-28T16:40:40Z</time></trkpt><trkpt lat="45.63406905348922" lon="10.593840063058128"><ele>77.0</ele><time>2026-03-28T16:40:41Z</time></trkpt><trkpt lat="45.633979635440085" lon="10.593667406447466"><ele>77.0</ele><time>2026-03-28T16:40:42Z</time></trkpt><trkpt lat="45.63388915620995" lon="10.593494554324192"><ele>76.5</ele><time>2026-03-28T16:40:43Z</time></trkpt><trkpt lat="45.63380282679183" lon="10.593329569109144"><ele>76.0</ele><time>2026-03-28T16:40:44Z</time></trkpt><trkpt lat="45.63371677053257" lon="10.593164028775051"><ele>75.5</ele><time>2026-03-28T16:40:45Z</time></trkpt><trkpt lat="45.633629609284554" lon="10.592996519005194"><ele>75.0</ele><time>2026-03-28T16:40:46Z</time></trkpt><trkpt lat="45.63353925545612" lon="10.592825970380458"><ele>75.0</ele><time>2026-03-28T16:40:47Z</time></trkpt><trkpt lat="45.63344990247372" lon="10.592654997543669"><ele>75.0</ele><time>2026-03-28T16:40:48Z</time></trkpt><trkpt lat="45.63336307340076" lon="10.592491318344608"><ele>75.0</ele><time>2026-03-28T16:40:49Z</time></trkpt><trkpt lat="45.63328038598834" lon="10.592340101507112"><ele>75.0</ele><time>2026-03-28T16:40:50Z</time></trkpt><trkpt lat="45.63319222445108" lon="10.592198692578327"><ele>75.0</ele><time>2026-03-28T16:40:51Z</time></trkpt><trkpt lat="45.6330908100116" lon="10.592066672851104"><ele>75.0</ele><time>2026-03-28T16:40:52Z</time></trkpt><trkpt lat="45.63298208851583" lon="10.591940111997602"><ele>75.0</ele><time>2026-03-28T16:40:53Z</time></trkpt><trkpt lat="45.632860723308234" lon="10.591825125088555"><ele>75.0</ele><time>2026-03-28T16:40:54Z</time></trkpt><trkpt lat="45.63275575414619" lon="10.591691954616344"><ele>74.5</ele><time>2026-03-28T16:40:55Z</time></trkpt><trkpt lat="45.63263486736907" lon="10.591582511724432"><ele>74.0</ele><time>2026-03-28T16:40:56Z</time></trkpt><trkpt lat="45.63253842436742" lon="10.59144533197973"><ele>73.5</ele><time>2026-03-28T16:40:57Z</time></trkpt><trkpt lat="45.63245930181097" lon="10.591290795683916"><ele>73.0</ele><time>2026-03-28T16:40:58Z</time></trkpt><trkpt lat="45.632394762319805" lon="10.591108965155177"><ele>77.5</ele><time>2026-03-28T16:40:59Z</time></trkpt><trkpt lat="45.63231918393546" lon="10.590933228529398"><ele>82.0</ele><time>2026-03-28T16:41:00Z</time></trkpt><trkpt lat="45.632247191182856" lon="10.59075429836541"><ele>86.5</ele><time>2026-03-28T16:41:01Z</time></trkpt><trkpt lat="45.63217376228883" lon="10.590573850693168"><ele>91.0</ele><time>2026-03-28T16:41:02Z</time></trkpt><trkpt lat="45.63209621353925" lon="10.590393382028987"><ele>87.25</ele><time>2026-03-28T16:41:03Z</time></trkpt><trkpt lat="45.632014030356984" lon="10.590221119761425"><ele>83.5</ele><time>2026-03-28T16:41:04Z</time></trkpt><trkpt lat="45.631929725177805" lon="10.590053589880082"><ele>79.75</ele><time>2026-03-28T16:41:05Z</time></trkpt><trkpt lat="45.631840602325276" lon="10.589887749727941"><ele>76.0</ele><time>2026-03-28T16:41:06Z</time></trkpt><trkpt lat="45.631745999850146" lon="10.5897161234545"><ele>76.0</ele><time>2026-03-28T16:41:07Z</time></trkpt><trkpt lat="45.631637946775484" lon="10.589526373717112"><ele>76.0</ele><time>2026-03-28T16:41:08Z</time></trkpt><trkpt lat="45.63152004664445" lon="10.589322819943277"><ele>76.0</ele><time>2026-03-28T16:41:09Z</time></trkpt><trkpt lat="45.631404816538726" lon="10.589122402840928"><ele>76.0</ele><time>2026-03-28T16:41:10Z</time></trkpt><trkpt lat="45.63128624323399" lon="10.588953667826473"><ele>76.0</ele><time>2026-03-28T16:41:11Z</time></trkpt><trkpt lat="45.63117701916715" lon="10.588780994731836"><ele>76.0</ele><time>2026-03-28T16:41:12Z</time></trkpt><trkpt lat="45.63107087691629" lon="10.588612378238885"><ele>76.0</ele><time>2026-03-28T16:41:13Z</time></trkpt><trkpt lat="45.63095898883383" lon="10.588450951664901"><ele>76.0</ele><time>2026-03-28T16:41:14Z</time></trkpt><trkpt lat="45.63084985427793" lon="10.588304396695746"><ele>76.0</ele><time>2026-03-28T16:41:15Z</time></trkpt><trkpt lat="45.63075906525264" lon="10.588146801158514"><ele>76.0</ele><time>2026-03-28T16:41:16Z</time></trkpt><trkpt lat="45.63066535765105" lon="10.588010729125731"><ele>76.0</ele><time>2026-03-28T16:41:17Z</time></trkpt><trkpt lat="45.630564533511745" lon="10.587897210477282"><ele>76.0</ele><time>2026-03-28T16:41:18Z</time></trkpt><trkpt lat="45.63049111026834" lon="10.587763074473006"><ele>76.0</ele><time>2026-03-28T16:41:19Z</time></trkpt><trkpt lat="45.630404264101706" lon="10.587636355163529"><ele>77.0</ele><time>2026-03-28T16:41:20Z</time></trkpt><trkpt lat="45.630317467542014" lon="10.58751382378961"><ele>78.0</ele><time>2026-03-28T16:41:21Z</time></trkpt><trkpt lat="45.630230462513325" lon="10.587390134375317"><ele>79.0</ele><time>2026-03-28T16:41:22Z</time></trkpt><trkpt lat="45.6301327118947" lon="10.587277867097647"><ele>80.0</ele><time>2026-03-28T16:41:23Z</time></trkpt><trkpt lat="45.630046064548665" lon="10.587156260844376"><ele>80.0</ele><time>2026-03-28T16:41:24Z</time></trkpt><trkpt lat="45.62995036458253" lon="10.587051686850046"><ele>80.0</ele><time>2026-03-28T16:41:25Z</time></trkpt><trkpt lat="45.62985206735544" lon="10.586951017257986"><ele>80.0</ele><time>2026-03-28T16:41:26Z</time></trkpt><trkpt lat="45.62974795523401" lon="10.586853117127669"><ele>80.0</ele><time>2026-03-28T16:41:27Z</time></trkpt><trkpt lat="45.629643165803714" lon="10.586767521690241"><ele>79.25</ele><time>2026-03-28T16:41:28Z</time></trkpt><trkpt lat="45.62953914386914" lon="10.586696629281521"><ele>78.5</ele><time>2026-03-28T16:41:29Z</time></trkpt><trkpt lat="45.62942770070095" lon="10.586643905482067"><ele>77.75</ele><time>2026-03-28T16:41:30Z</time></trkpt><trkpt lat="45.62931049525249" lon="10.586606042847428"><ele>77.0</ele><time>2026-03-28T16:41:31Z</time></trkpt><trkpt lat="45.62918356019882" lon="10.586592051977641"><ele>77.0</ele><time>2026-03-28T16:41:32Z</time></trkpt><trkpt lat="45.62905116363589" lon="10.586587742253462"><ele>77.0</ele><time>2026-03-28T16:41:33Z</time></trkpt><trkpt lat="45.62891751138467" lon="10.586597582572862"><ele>77.0</ele><time>2026-03-28T16:41:34Z</time></trkpt><trkpt lat="45.62878499694117" lon="10.586600814137498"><ele>77.0</ele><time>2026-03-28T16:41:35Z</time></trkpt><trkpt lat="45.62865074579885" lon="10.586602280558724"><ele>76.5</ele><time>2026-03-28T16:41:36Z</time></trkpt><trkpt lat="45.62851994479533" lon="10.586588609140662"><ele>76.0</ele><time>2026-03-28T16:41:37Z</time></trkpt><trkpt lat="45.62838705177082" lon="10.586608197506413"><ele>75.5</ele><time>2026-03-28T16:41:38Z</time></trkpt><trkpt lat="45.62825578402279" lon="10.58661523991333"><ele>75.0</ele><time>2026-03-28T16:41:39Z</time></trkpt><trkpt lat="45.62812943111076" lon="10.586622537160293"><ele>75.0</ele><time>2026-03-28T16:41:40Z</time></trkpt><trkpt lat="45.627998059433565" lon="10.586626004655084"><ele>75.0</ele><time>2026-03-28T16:41:41Z</time></trkpt><trkpt lat="45.627862267980255" lon="10.586619266578621"><ele>75.0</ele><time>2026-03-28T16:41:42Z</time></trkpt><trkpt lat="45.62772579843273" lon="10.586588634194218"><ele>75.0</ele><time>2026-03-28T16:41:43Z</time></trkpt><trkpt lat="45.627609462837704" lon="10.586481829701643"><ele>75.25</ele><time>2026-03-28T16:41:44Z</time></trkpt><trkpt lat="45.62749069467672" lon="10.586374792302763"><ele>75.5</ele><time>2026-03-28T16:41:44.999Z</time></trkpt><trkpt lat="45.62736344004462" lon="10.586278933836732"><ele>75.75</ele><time>2026-03-28T16:41:45.999Z</time></trkpt><trkpt lat="45.627251024587714" lon="10.586164084937252"><ele>76.0</ele><time>2026-03-28T16:41:46.999Z</time></trkpt><trkpt lat="45.627141476291555" lon="10.586052713743706"><ele>76.5</ele><time>2026-03-28T16:41:47.999Z</time></trkpt><trkpt lat="45.62702872466767" lon="10.585945290934133"><ele>77.0</ele><time>2026-03-28T16:41:48.999Z</time></trkpt><trkpt lat="45.626913495924235" lon="10.585842620881092"><ele>77.5</ele><time>2026-03-28T16:41:49.999Z</time></trkpt><trkpt lat="45.626797171509864" lon="10.585738375055781"><ele>78.0</ele><time>2026-03-28T16:41:50.999Z</time></trkpt><trkpt lat="45.62668369455831" lon="10.585629899737757"><ele>78.0</ele><time>2026-03-28T16:41:51.999Z</time></trkpt><trkpt lat="45.62656295637893" lon="10.585521118742276"><ele>78.0</ele><time>2026-03-28T16:41:52.999Z</time></trkpt><trkpt lat="45.62646032041123" lon="10.58541111526609"><ele>78.0</ele><time>2026-03-28T16:41:53.999Z</time></trkpt><trkpt lat="45.62636096009569" lon="10.585272195696774"><ele>78.0</ele><time>2026-03-28T16:41:54.999Z</time></trkpt><trkpt lat="45.62628300853634" lon="10.585102411103"><ele>78.25</ele><time>2026-03-28T16:41:55.999Z</time></trkpt><trkpt lat="45.6261977839438" lon="10.584957530285626"><ele>78.5</ele><time>2026-03-28T16:41:57Z</time></trkpt><trkpt lat="45.62612729034295" lon="10.584800011400196"><ele>78.75</ele><time>2026-03-28T16:41:58Z</time></trkpt><trkpt lat="45.62607145555924" lon="10.584643324729356"><ele>79.0</ele><time>2026-03-28T16:41:59Z</time></trkpt><trkpt lat="45.62603489671959" lon="10.584473009837552"><ele>77.75</ele><time>2026-03-28T16:42:00Z</time></trkpt><trkpt lat="45.62603125659465" lon="10.584297309648635"><ele>76.5</ele><time>2026-03-28T16:42:01Z</time></trkpt><trkpt lat="45.62603330066064" lon="10.584130330575709"><ele>75.25</ele><time>2026-03-28T16:42:02Z</time></trkpt><trkpt lat="45.626034503406736" lon="10.583973913611592"><ele>74.0</ele><time>2026-03-28T16:42:03Z</time></trkpt><trkpt lat="45.626056798016435" lon="10.583827040321923"><ele>74.0</ele><time>2026-03-28T16:42:04Z</time></trkpt><trkpt lat="45.626080751691504" lon="10.583683210194668"><ele>74.0</ele><time>2026-03-28T16:42:05Z</time></trkpt><trkpt lat="45.62609407247066" lon="10.583539548670233"><ele>74.0</ele><time>2026-03-28T16:42:06Z</time></trkpt><trkpt lat="45.62611240657939" lon="10.583402290356334"><ele>74.0</ele><time>2026-03-28T16:42:07Z</time></trkpt><trkpt lat="45.626131605429194" lon="10.583276368277208"><ele>74.0</ele><time>2026-03-28T16:42:08Z</time></trkpt><trkpt lat="45.626144528723216" lon="10.583160039113672"><ele>75.57142857142857</ele><time>2026-03-28T16:42:09Z</time></trkpt><trkpt lat="45.62615807780125" lon="10.583051025359419"><ele>77.14285714285714</ele><time>2026-03-28T16:42:10Z</time></trkpt><trkpt lat="45.626165862597816" lon="10.582955018532232"><ele>78.71428571428572</ele><time>2026-03-28T16:42:11Z</time></trkpt><trkpt lat="45.626177510583204" lon="10.582865225479704"><ele>80.28571428571428</ele><time>2026-03-28T16:42:12Z</time></trkpt><trkpt lat="45.62619286129685" lon="10.582774208391971"><ele>81.85714285714285</ele><time>2026-03-28T16:42:13Z</time></trkpt><trkpt lat="45.62619637339795" lon="10.582679461127602"><ele>83.42857142857143</ele><time>2026-03-28T16:42:14Z</time></trkpt><trkpt lat="45.626196545215876" lon="10.582580662052159"><ele>85.0</ele><time>2026-03-28T16:42:15Z</time></trkpt><trkpt lat="45.626197063538" lon="10.582469875726222"><ele>85.0</ele><time>2026-03-28T16:42:16Z</time></trkpt><trkpt lat="45.62619728004216" lon="10.582344088149545"><ele>85.0</ele><time>2026-03-28T16:42:17Z</time></trkpt><trkpt lat="45.626200518115525" lon="10.582204354567997"><ele>85.0</ele><time>2026-03-28T16:42:18Z</time></trkpt><trkpt lat="45.6261983209452" lon="10.582056776758694"><ele>85.0</ele><time>2026-03-28T16:42:19Z</time></trkpt><trkpt lat="45.626196685797" lon="10.58190818635032"><ele>85.0</ele><time>2026-03-28T16:42:20Z</time></trkpt><trkpt lat="45.626206354285806" lon="10.581759387701023"><ele>85.0</ele><time>2026-03-28T16:42:21Z</time></trkpt><trkpt lat="45.626201837302986" lon="10.581621454369987"><ele>85.0</ele><time>2026-03-28T16:42:22Z</time></trkpt><trkpt lat="45.62620538359531" lon="10.581483576161558"><ele>85.0</ele><time>2026-03-28T16:42:23Z</time></trkpt><trkpt lat="45.626198272247215" lon="10.581337760689026"><ele>85.0</ele><time>2026-03-28T16:42:24Z</time></trkpt><trkpt lat="45.62619304313122" lon="10.581198729692368"><ele>85.0</ele><time>2026-03-28T16:42:25Z</time></trkpt><trkpt lat="45.62618605603064" lon="10.581063798608866"><ele>85.0</ele><time>2026-03-28T16:42:26Z</time></trkpt><trkpt lat="45.62618128052587" lon="10.580906610125949"><ele>85.0</ele><time>2026-03-28T16:42:27Z</time></trkpt><trkpt lat="45.6261910661657" lon="10.580738159129012"><ele>85.0</ele><time>2026-03-28T16:42:28Z</time></trkpt><trkpt lat="45.626194784302484" lon="10.580559271779498"><ele>85.0</ele><time>2026-03-28T16:42:29Z</time></trkpt><trkpt lat="45.62619661811162" lon="10.58037193273528"><ele>86.25</ele><time>2026-03-28T16:42:30Z</time></trkpt><trkpt lat="45.62619359125453" lon="10.580183265763157"><ele>87.5</ele><time>2026-03-28T16:42:31Z</time></trkpt><trkpt lat="45.62619123255064" lon="10.579993556075756"><ele>88.75</ele><time>2026-03-28T16:42:32Z</time></trkpt><trkpt lat="45.62618601788017" lon="10.57980073030132"><ele>90.0</ele><time>2026-03-28T16:42:33Z</time></trkpt><trkpt lat="45.626185389088555" lon="10.579609657757867"><ele>89.5</ele><time>2026-03-28T16:42:34Z</time></trkpt><trkpt lat="45.62617249699017" lon="10.579421225807701"><ele>89.0</ele><time>2026-03-28T16:42:35Z</time></trkpt><trkpt lat="45.62615935277832" lon="10.579241067629805"><ele>88.5</ele><time>2026-03-28T16:42:36Z</time></trkpt><trkpt lat="45.626147853150684" lon="10.579074431668538"><ele>88.0</ele><time>2026-03-28T16:42:37Z</time></trkpt><trkpt lat="45.62613503557984" lon="10.578918597444025"><ele>85.2</ele><time>2026-03-28T16:42:38Z</time></trkpt><trkpt lat="45.62611485762329" lon="10.578764357407394"><ele>82.4</ele><time>2026-03-28T16:42:39Z</time></trkpt><trkpt lat="45.62611462841074" lon="10.578613370774749"><ele>79.60000000000001</ele><time>2026-03-28T16:42:40Z</time></trkpt><trkpt lat="45.62609802034733" lon="10.578468247914266"><ele>76.80000000000001</ele><time>2026-03-28T16:42:41Z</time></trkpt><trkpt lat="45.6260812391228" lon="10.578320041373724"><ele>74.0</ele><time>2026-03-28T16:42:42Z</time></trkpt><trkpt lat="45.62606154963801" lon="10.57816178197942"><ele>74.0</ele><time>2026-03-28T16:42:43Z</time></trkpt><trkpt lat="45.626041693410826" lon="10.578001891765583"><ele>74.0</ele><time>2026-03-28T16:42:44Z</time></trkpt><trkpt lat="45.62602033791488" lon="10.57782591502853"><ele>74.0</ele><time>2026-03-28T16:42:45Z</time></trkpt><trkpt lat="45.62599586090633" lon="10.57764655231422"><ele>74.0</ele><time>2026-03-28T16:42:46Z</time></trkpt><trkpt lat="45.62597423996438" lon="10.577480468763858"><ele>75.0</ele><time>2026-03-28T16:42:47Z</time></trkpt><trkpt lat="45.62595001489598" lon="10.577298573976202"><ele>76.0</ele><time>2026-03-28T16:42:48Z</time></trkpt><trkpt lat="45.62592190918314" lon="10.577124675600023"><ele>77.0</ele><time>2026-03-28T16:42:49Z</time></trkpt><trkpt lat="45.625888959076775" lon="10.576967965785833"><ele>78.0</ele><time>2026-03-28T16:42:50Z</time></trkpt><trkpt lat="45.625849694436056" lon="10.576799432017925"><ele>78.6</ele><time>2026-03-28T16:42:51Z</time></trkpt><trkpt lat="45.62580901901803" lon="10.57663010490508"><ele>79.19999999999999</ele><time>2026-03-28T16:42:52Z</time></trkpt><trkpt lat="45.62577073281998" lon="10.576473446745656"><ele>79.8</ele><time>2026-03-28T16:42:53Z</time></trkpt><trkpt lat="45.62573504510293" lon="10.57632410970886"><ele>80.39999999999999</ele><time>2026-03-28T16:42:54Z</time></trkpt><trkpt lat="45.625704550086056" lon="10.576195088869387"><ele>81.0</ele><time>2026-03-28T16:42:55Z</time></trkpt><trkpt lat="45.62567812574934" lon="10.576083290557348"><ele>82.0</ele><time>2026-03-28T16:42:56Z</time></trkpt><trkpt lat="45.62565319194451" lon="10.575977798584686"><ele>83.0</ele><time>2026-03-28T16:42:57Z</time></trkpt><trkpt lat="45.62561166526592" lon="10.575901938527162"><ele>84.0</ele><time>2026-03-28T16:42:58Z</time></trkpt><trkpt lat="45.62557978765368" lon="10.575770030393711"><ele>85.0</ele><time>2026-03-28T16:43:00Z</time></trkpt><trkpt lat="45.62554936100692" lon="10.575688625935582"><ele>86.0</ele><time>2026-03-28T16:43:02Z</time></trkpt><trkpt lat="45.62552345459687" lon="10.57554818134952"><ele>87.0</ele><time>2026-03-28T16:43:10Z</time></trkpt><trkpt lat="45.62548046392078" lon="10.575408574700186"><ele>89.16666666666667</ele><time>2026-03-28T16:43:12Z</time></trkpt><trkpt lat="45.62542977391878" lon="10.575265814271676"><ele>91.33333333333334</ele><time>2026-03-28T16:43:14Z</time></trkpt><trkpt lat="45.625399071211426" lon="10.575177913964511"><ele>93.5</ele><time>2026-03-28T16:43:15Z</time></trkpt><trkpt lat="45.625367553793055" lon="10.575081520506142"><ele>95.66666666666667</ele><time>2026-03-28T16:43:16Z</time></trkpt><trkpt lat="45.625332524365014" lon="10.574992581176197"><ele>97.83333333333334</ele><time>2026-03-28T16:43:17Z</time></trkpt><trkpt lat="45.6252933913251" lon="10.574908810169823"><ele>100.0</ele><time>2026-03-28T16:43:18Z</time></trkpt><trkpt lat="45.625261879183796" lon="10.574825573338337"><ele>95.5</ele><time>2026-03-28T16:43:19Z</time></trkpt><trkpt lat="45.625201284569535" lon="10.574678157637878"><ele>91.0</ele><time>2026-03-28T16:43:21Z</time></trkpt><trkpt lat="45.62511410769054" lon="10.5745304999313"><ele>86.5</ele><time>2026-03-28T16:43:23Z</time></trkpt><trkpt lat="45.62503572725577" lon="10.574435678327058"><ele>82.0</ele><time>2026-03-28T16:43:24Z</time></trkpt><trkpt lat="45.624953268126404" lon="10.574320970144262"><ele>82.0</ele><time>2026-03-28T16:43:25Z</time></trkpt><trkpt lat="45.6248692687257" lon="10.57419239417827"><ele>82.0</ele><time>2026-03-28T16:43:26Z</time></trkpt><trkpt lat="45.62477783785461" lon="10.574078934896152"><ele>82.0</ele><time>2026-03-28T16:43:27Z</time></trkpt><trkpt lat="45.62467386876033" lon="10.573958175419413"><ele>82.0</ele><time>2026-03-28T16:43:28Z</time></trkpt><trkpt lat="45.62458919464582" lon="10.573852668339061"><ele>82.0</ele><time>2026-03-28T16:43:29Z</time></trkpt><trkpt lat="45.62452808305658" lon="10.573760759822598"><ele>82.0</ele><time>2026-03-28T16:43:30Z</time></trkpt><trkpt lat="45.6244761276008" lon="10.573686617202625"><ele>82.0</ele><time>2026-03-28T16:43:31Z</time></trkpt><trkpt lat="45.62443117651682" lon="10.573617268937335"><ele>82.0</ele><time>2026-03-28T16:43:32Z</time></trkpt><trkpt lat="45.62438496351064" lon="10.573555353140476"><ele>82.0</ele><time>2026-03-28T16:43:33Z</time></trkpt><trkpt lat="45.62433128574439" lon="10.573486580493054"><ele>82.0</ele><time>2026-03-28T16:43:34Z</time></trkpt><trkpt lat="45.624291099414094" lon="10.573368598304237"><ele>82.0</ele><time>2026-03-28T16:43:35Z</time></trkpt><trkpt lat="45.624194730141085" lon="10.573280759357218"><ele>82.0</ele><time>2026-03-28T16:43:36Z</time></trkpt><trkpt lat="45.62412823913157" lon="10.57312093961039"><ele>82.0</ele><time>2026-03-28T16:43:37Z</time></trkpt><trkpt lat="45.624081966786655" lon="10.572945141804485"><ele>82.0</ele><time>2026-03-28T16:43:38Z</time></trkpt><trkpt lat="45.62403739100561" lon="10.57276355905198"><ele>82.0</ele><time>2026-03-28T16:43:39Z</time></trkpt><trkpt lat="45.623986688962276" lon="10.572585776232545"><ele>82.0</ele><time>2026-03-28T16:43:40Z</time></trkpt><trkpt lat="45.62392996229143" lon="10.572414486571235"><ele>82.0</ele><time>2026-03-28T16:43:40.999Z</time></trkpt><trkpt lat="45.62389032252926" lon="10.57222797977852"><ele>82.0</ele><time>2026-03-28T16:43:41.999Z</time></trkpt><trkpt lat="45.623834457893174" lon="10.5720583126464"><ele>82.8</ele><time>2026-03-28T16:43:42.999Z</time></trkpt><trkpt lat="45.6237821689054" lon="10.571899504836612"><ele>83.6</ele><time>2026-03-28T16:43:43.999Z</time></trkpt><trkpt lat="45.6237285556677" lon="10.571754277603846"><ele>84.39999999999999</ele><time>2026-03-28T16:43:44.999Z</time></trkpt><trkpt lat="45.62366187399587" lon="10.571628858832003"><ele>85.19999999999999</ele><time>2026-03-28T16:43:45.999Z</time></trkpt><trkpt lat="45.62361936855965" lon="10.571506309117183"><ele>86.0</ele><time>2026-03-28T16:43:46.999Z</time></trkpt><trkpt lat="45.623567244094744" lon="10.57141509290246"><ele>85.16666666666667</ele><time>2026-03-28T16:43:47.999Z</time></trkpt><trkpt lat="45.62352128389418" lon="10.57133554891557"><ele>84.33333333333334</ele><time>2026-03-28T16:43:48.999Z</time></trkpt><trkpt lat="45.62346897808685" lon="10.571250627423979"><ele>83.5</ele><time>2026-03-28T16:43:49.999Z</time></trkpt><trkpt lat="45.62341695158141" lon="10.571174297911012"><ele>82.66666666666667</ele><time>2026-03-28T16:43:50.999Z</time></trkpt><trkpt lat="45.62334155471464" lon="10.571072424307035"><ele>81.83333333333333</ele><time>2026-03-28T16:43:51.999Z</time></trkpt><trkpt lat="45.623262646829836" lon="10.570980622055277"><ele>81.0</ele><time>2026-03-28T16:43:52.999Z</time></trkpt><trkpt lat="45.62317482904505" lon="10.570885866559088"><ele>81.0</ele><time>2026-03-28T16:43:53.999Z</time></trkpt><trkpt lat="45.62309202202621" lon="10.570796628325299"><ele>81.0</ele><time>2026-03-28T16:43:54.999Z</time></trkpt><trkpt lat="45.623012172360276" lon="10.570713416827424"><ele>81.0</ele><time>2026-03-28T16:43:55.999Z</time></trkpt><trkpt lat="45.62293511927441" lon="10.570631597860562"><ele>81.0</ele><time>2026-03-28T16:43:56.999Z</time></trkpt><trkpt lat="45.622872035421466" lon="10.570551252864826"><ele>81.0</ele><time>2026-03-28T16:43:57.999Z</time></trkpt><trkpt lat="45.62281759942771" lon="10.57047299811439"><ele>80.0</ele><time>2026-03-28T16:43:58.999Z</time></trkpt><trkpt lat="45.62275925305585" lon="10.570388936509808"><ele>79.0</ele><time>2026-03-28T16:43:59.999Z</time></trkpt><trkpt lat="45.622699261876484" lon="10.570300094581135"><ele>78.0</ele><time>2026-03-28T16:44:00.999Z</time></trkpt><trkpt lat="45.62264140250434" lon="10.570210284745912"><ele>77.0</ele><time>2026-03-28T16:44:01.999Z</time></trkpt><trkpt lat="45.622588341766196" lon="10.57012574032362"><ele>76.0</ele><time>2026-03-28T16:44:03Z</time></trkpt><trkpt lat="45.62253901940398" lon="10.570044948739932"><ele>75.0</ele><time>2026-03-28T16:44:04Z</time></trkpt><trkpt lat="45.622490366948384" lon="10.56995949839832"><ele>75.0</ele><time>2026-03-28T16:44:05Z</time></trkpt><trkpt lat="45.62244385310885" lon="10.569877654131542"><ele>75.0</ele><time>2026-03-28T16:44:06Z</time></trkpt><trkpt lat="45.622389207811224" lon="10.569799892815839"><ele>75.0</ele><time>2026-03-28T16:44:07Z</time></trkpt><trkpt lat="45.62233806632956" lon="10.569697674947411"><ele>75.0</ele><time>2026-03-28T16:44:08Z</time></trkpt><trkpt lat="45.622279377887104" lon="10.569588174841341"><ele>75.0</ele><time>2026-03-28T16:44:09Z</time></trkpt><trkpt lat="45.62222979346915" lon="10.569476291101497"><ele>75.0</ele><time>2026-03-28T16:44:10Z</time></trkpt><trkpt lat="45.622193018479855" lon="10.569363116687274"><ele>74.0</ele><time>2026-03-28T16:44:11Z</time></trkpt><trkpt lat="45.62214796904306" lon="10.569255734301185"><ele>73.0</ele><time>2026-03-28T16:44:12Z</time></trkpt><trkpt lat="45.622104055928105" lon="10.569151179470003"><ele>72.0</ele><time>2026-03-28T16:44:13Z</time></trkpt><trkpt lat="45.62206625391383" lon="10.569047857307007"><ele>71.0</ele><time>2026-03-28T16:44:14Z</time></trkpt><trkpt lat="45.62201876620259" lon="10.5689406770593"><ele>70.0</ele><time>2026-03-28T16:44:15Z</time></trkpt><trkpt lat="45.62198528534402" lon="10.568812479353433"><ele>69.0</ele><time>2026-03-28T16:44:16Z</time></trkpt><trkpt lat="45.6219383199608" lon="10.568699735673254"><ele>70.16666666666667</ele><time>2026-03-28T16:44:17Z</time></trkpt><trkpt lat="45.62190180683197" lon="10.56861673140964"><ele>71.33333333333333</ele><time>2026-03-28T16:44:18Z</time></trkpt><trkpt lat="45.621849955750506" lon="10.568541260915909"><ele>72.5</ele><time>2026-03-28T16:44:21Z</time></trkpt><trkpt lat="45.621799483462546" lon="10.568411615517032"><ele>73.66666666666666</ele><time>2026-03-28T16:44:23Z</time></trkpt><trkpt lat="45.62174394606094" lon="10.568348123789546"><ele>74.83333333333333</ele><time>2026-03-28T16:44:24Z</time></trkpt><trkpt lat="45.6216983202226" lon="10.568266409067162"><ele>76.0</ele><time>2026-03-28T16:44:25Z</time></trkpt><trkpt lat="45.62166735035801" lon="10.568181063373803"><ele>76.0</ele><time>2026-03-28T16:44:26Z</time></trkpt><trkpt lat="45.62159257755455" lon="10.568053149527499"><ele>76.0</ele><time>2026-03-28T16:44:28Z</time></trkpt><trkpt lat="45.621549818269465" lon="10.567980001205902"><ele>76.0</ele><time>2026-03-28T16:44:29Z</time></trkpt><trkpt lat="45.62150399852805" lon="10.567901617576382"><ele>76.0</ele><time>2026-03-28T16:44:30Z</time></trkpt><trkpt lat="45.6214568736785" lon="10.567821110385404"><ele>76.0</ele><time>2026-03-28T16:44:31Z</time></trkpt><trkpt lat="45.62141034354507" lon="10.56774165856769"><ele>76.0</ele><time>2026-03-28T16:44:32Z</time></trkpt><trkpt lat="45.621362759203194" lon="10.567660406653829"><ele>77.28571428571428</ele><time>2026-03-28T16:44:33Z</time></trkpt><trkpt lat="45.62131818456186" lon="10.567584293819776"><ele>78.57142857142858</ele><time>2026-03-28T16:44:34Z</time></trkpt><trkpt lat="45.621274566059796" lon="10.567509813568787"><ele>79.85714285714286</ele><time>2026-03-28T16:44:35Z</time></trkpt><trkpt lat="45.62123162226279" lon="10.567436485266319"><ele>81.14285714285714</ele><time>2026-03-28T16:44:36Z</time></trkpt><trkpt lat="45.62117678986553" lon="10.56735641107404"><ele>82.42857142857142</ele><time>2026-03-28T16:44:37Z</time></trkpt><trkpt lat="45.621112020454355" lon="10.567300647117133"><ele>83.71428571428572</ele><time>2026-03-28T16:44:38Z</time></trkpt><trkpt lat="45.621059136593885" lon="10.56722778735143"><ele>85.0</ele><time>2026-03-28T16:44:39Z</time></trkpt><trkpt lat="45.620987852218754" lon="10.567120340169506"><ele>83.0</ele><time>2026-03-28T16:44:41Z</time></trkpt><trkpt lat="45.62091778163607" lon="10.567026307148033"><ele>81.0</ele><time>2026-03-28T16:44:43Z</time></trkpt><trkpt lat="45.62086931873658" lon="10.566957219398875"><ele>79.0</ele><time>2026-03-28T16:44:44Z</time></trkpt><trkpt lat="45.620826814697736" lon="10.566836278017016"><ele>77.0</ele><time>2026-03-28T16:44:45Z</time></trkpt><trkpt lat="45.620748241774" lon="10.56672075345654"><ele>75.0</ele><time>2026-03-28T16:44:46Z</time></trkpt><trkpt lat="45.62066020774827" lon="10.566592600426032"><ele>75.0</ele><time>2026-03-28T16:44:47Z</time></trkpt><trkpt lat="45.62056906374689" lon="10.566459920214614"><ele>75.0</ele><time>2026-03-28T16:44:48Z</time></trkpt><trkpt lat="45.6204807627352" lon="10.566330191049405"><ele>75.0</ele><time>2026-03-28T16:44:49Z</time></trkpt><trkpt lat="45.620391017295105" lon="10.566197812794801"><ele>75.0</ele><time>2026-03-28T16:44:50Z</time></trkpt><trkpt lat="45.62029999717712" lon="10.566063553646295"><ele>73.5</ele><time>2026-03-28T16:44:51Z</time></trkpt><trkpt lat="45.620212007659696" lon="10.565934116391281"><ele>72.0</ele><time>2026-03-28T16:44:52Z</time></trkpt><trkpt lat="45.620129540272075" lon="10.565812781519028"><ele>70.5</ele><time>2026-03-28T16:44:53Z</time></trkpt><trkpt lat="45.62005281487542" lon="10.565699894808388"><ele>69.0</ele><time>2026-03-28T16:44:54Z</time></trkpt><trkpt lat="45.619984248720904" lon="10.565598574379788"><ele>69.0</ele><time>2026-03-28T16:44:55Z</time></trkpt><trkpt lat="45.61992861725974" lon="10.56551582471968"><ele>69.0</ele><time>2026-03-28T16:44:56Z</time></trkpt><trkpt lat="45.61987654647009" lon="10.565438371309117"><ele>69.0</ele><time>2026-03-28T16:44:57Z</time></trkpt><trkpt lat="45.61981981144793" lon="10.565353980003469"><ele>69.0</ele><time>2026-03-28T16:44:59Z</time></trkpt><trkpt lat="45.619762436484315" lon="10.565286333525988"><ele>69.0</ele><time>2026-03-28T16:45:02Z</time></trkpt><trkpt lat="45.619703188063156" lon="10.565198488325565"><ele>69.0</ele><time>2026-03-28T16:45:04Z</time></trkpt><trkpt lat="45.61964592401803" lon="10.56509430839478"><ele>68.83333333333333</ele><time>2026-03-28T16:45:06Z</time></trkpt><trkpt lat="45.61959587902946" lon="10.565025997972661"><ele>68.66666666666667</ele><time>2026-03-28T16:45:08Z</time></trkpt><trkpt lat="45.61954866300387" lon="10.564949452873872"><ele>68.5</ele><time>2026-03-28T16:45:11Z</time></trkpt><trkpt lat="45.619492343763426" lon="10.564850117656906"><ele>68.33333333333334</ele><time>2026-03-28T16:45:14Z</time></trkpt><trkpt lat="45.61942697189939" lon="10.56471803184601"><ele>68.16666666666667</ele><time>2026-03-28T16:45:16Z</time></trkpt><trkpt lat="45.61938521270793" lon="10.564616947731945"><ele>68.0</ele><time>2026-03-28T16:45:17Z</time></trkpt><trkpt lat="45.619348988038425" lon="10.564516569469157"><ele>69.0</ele><time>2026-03-28T16:45:18Z</time></trkpt><trkpt lat="45.61932023024554" lon="10.564424515697976"><ele>70.0</ele><time>2026-03-28T16:45:19Z</time></trkpt><trkpt lat="45.61929245472797" lon="10.564334258927438"><ele>71.0</ele><time>2026-03-28T16:45:20Z</time></trkpt><trkpt lat="45.619247194845435" lon="10.564187186656365"><ele>72.0</ele><time>2026-03-28T16:45:22Z</time></trkpt><trkpt lat="45.61919723755668" lon="10.564024849987554"><ele>73.0</ele><time>2026-03-28T16:45:24Z</time></trkpt><trkpt lat="45.619167133201294" lon="10.56392636112605"><ele>73.0</ele><time>2026-03-28T16:45:25Z</time></trkpt><trkpt lat="45.619134088417084" lon="10.563815262002743"><ele>73.0</ele><time>2026-03-28T16:45:26Z</time></trkpt><trkpt lat="45.61909996398199" lon="10.563700532972684"><ele>73.0</ele><time>2026-03-28T16:45:27Z</time></trkpt><trkpt lat="45.61906560777868" lon="10.563585024440467"><ele>73.0</ele><time>2026-03-28T16:45:28Z</time></trkpt><trkpt lat="45.619027989530956" lon="10.563455853147758"><ele>73.0</ele><time>2026-03-28T16:45:29Z</time></trkpt><trkpt lat="45.61898555445259" lon="10.563308070231583"><ele>73.6</ele><time>2026-03-28T16:45:30Z</time></trkpt><trkpt lat="45.61894466121146" lon="10.56316565686595"><ele>74.19999999999999</ele><time>2026-03-28T16:45:31Z</time></trkpt><trkpt lat="45.618904253753385" lon="10.56301974056337"><ele>74.8</ele><time>2026-03-28T16:45:32Z</time></trkpt><trkpt lat="45.61886874378989" lon="10.562883818882735"><ele>75.39999999999999</ele><time>2026-03-28T16:45:33Z</time></trkpt><trkpt lat="45.61883949039854" lon="10.562753043751332"><ele>76.0</ele><time>2026-03-28T16:45:34Z</time></trkpt><trkpt lat="45.61881261172114" lon="10.562623978515118"><ele>76.8</ele><time>2026-03-28T16:45:35Z</time></trkpt><trkpt lat="45.618782955858194" lon="10.562479942105012"><ele>77.6</ele><time>2026-03-28T16:45:36Z</time></trkpt><trkpt lat="45.61875540315842" lon="10.5623417300404"><ele>78.4</ele><time>2026-03-28T16:45:37Z</time></trkpt><trkpt lat="45.618729764769576" lon="10.562208241599288"><ele>79.2</ele><time>2026-03-28T16:45:38Z</time></trkpt><trkpt lat="45.61870528909839" lon="10.56208080709923"><ele>80.0</ele><time>2026-03-28T16:45:39Z</time></trkpt><trkpt lat="45.61868317331508" lon="10.561965783137921"><ele>80.16666666666667</ele><time>2026-03-28T16:45:40Z</time></trkpt><trkpt lat="45.61866352449518" lon="10.561863763346903"><ele>80.33333333333334</ele><time>2026-03-28T16:45:41Z</time></trkpt><trkpt lat="45.61863654948153" lon="10.56172370486846"><ele>80.5</ele><time>2026-03-28T16:45:42.999Z</time></trkpt><trkpt lat="45.61861643340307" lon="10.56161925903048"><ele>80.66666666666667</ele><time>2026-03-28T16:45:45.999Z</time></trkpt><trkpt lat="45.618595335063034" lon="10.561509713247057"><ele>80.83333333333333</ele><time>2026-03-28T16:45:49.999Z</time></trkpt><trkpt lat="45.61857796702667" lon="10.561419535524932"><ele>81.0</ele><time>2026-03-28T16:45:53.999Z</time></trkpt><trkpt lat="45.618554592658406" lon="10.561298172229126"><ele>79.66666666666667</ele><time>2026-03-28T16:45:56.999Z</time></trkpt><trkpt lat="45.61852833713575" lon="10.561161849272386"><ele>78.33333333333333</ele><time>2026-03-28T16:45:58.999Z</time></trkpt><trkpt lat="45.61850564453753" lon="10.561044400063665"><ele>77.0</ele><time>2026-03-28T16:46:00.999Z</time></trkpt><trkpt lat="45.618485544264686" lon="10.560941541509724"><ele>75.66666666666666</ele><time>2026-03-28T16:46:03.999Z</time></trkpt><trkpt lat="45.61846306490131" lon="10.56082650829131"><ele>74.33333333333333</ele><time>2026-03-28T16:46:07.999Z</time></trkpt><trkpt lat="45.618445955668626" lon="10.56073895263348"><ele>73.0</ele><time>2026-03-28T16:46:11Z</time></trkpt><trkpt lat="45.618376404724785" lon="10.560687412693893"><ele>73.0</ele><time>2026-03-28T16:46:13Z</time></trkpt><trkpt lat="45.61834900563339" lon="10.560582727686363"><ele>73.0</ele><time>2026-03-28T16:46:15Z</time></trkpt><trkpt lat="45.61833058359723" lon="10.560487376268993"><ele>73.0</ele><time>2026-03-28T16:46:17Z</time></trkpt><trkpt lat="45.618313701138575" lon="10.560386688638584"><ele>73.0</ele><time>2026-03-28T16:46:19Z</time></trkpt><trkpt lat="45.61829613266703" lon="10.56028170437834"><ele>73.0</ele><time>2026-03-28T16:46:21Z</time></trkpt><trkpt lat="45.61827341415457" lon="10.560149666332501"><ele>73.0</ele><time>2026-03-28T16:46:23Z</time></trkpt><trkpt lat="45.61824240147538" lon="10.560040775599267"><ele>73.16666666666666</ele><time>2026-03-28T16:46:25Z</time></trkpt><trkpt lat="45.61822604984362" lon="10.559942508969888"><ele>73.33333333333333</ele><time>2026-03-28T16:46:27Z</time></trkpt><trkpt lat="45.61821690776931" lon="10.559825830606956"><ele>73.5</ele><time>2026-03-28T16:46:29Z</time></trkpt><trkpt lat="45.618201376902924" lon="10.559727131652142"><ele>73.66666666666667</ele><time>2026-03-28T16:46:31Z</time></trkpt><trkpt lat="45.61818272269148" lon="10.559603705287216"><ele>73.83333333333334</ele><time>2026-03-28T16:46:34Z</time></trkpt><trkpt lat="45.61816034337641" lon="10.559490396924277"><ele>74.0</ele><time>2026-03-28T16:46:36Z</time></trkpt><trkpt lat="45.61813507641466" lon="10.559366475030044"><ele>74.33333333333334</ele><time>2026-03-28T16:46:38Z</time></trkpt><trkpt lat="45.61810596724766" lon="10.55918622599765"><ele>74.66666666666667</ele><time>2026-03-28T16:46:40Z</time></trkpt><trkpt lat="45.618123230162176" lon="10.559077115640331"><ele>75.0</ele><time>2026-03-28T16:46:41Z</time></trkpt><trkpt lat="45.618103241792575" lon="10.558974720520787"><ele>75.33333333333333</ele><time>2026-03-28T16:46:42Z</time></trkpt><trkpt lat="45.61808166201438" lon="10.55886268408657"><ele>75.66666666666666</ele><time>2026-03-28T16:46:43Z</time></trkpt><trkpt lat="45.61806029476981" lon="10.55874549176692"><ele>76.0</ele><time>2026-03-28T16:46:44Z</time></trkpt><trkpt lat="45.61803454223922" lon="10.558626734713446"><ele>77.0</ele><time>2026-03-28T16:46:45Z</time></trkpt><trkpt lat="45.6180070161347" lon="10.558510312883136"><ele>78.0</ele><time>2026-03-28T16:46:46Z</time></trkpt><trkpt lat="45.61797217412719" lon="10.558388896697886"><ele>79.0</ele><time>2026-03-28T16:46:47Z</time></trkpt><trkpt lat="45.617932230873265" lon="10.55827307202536"><ele>80.0</ele><time>2026-03-28T16:46:48Z</time></trkpt><trkpt lat="45.617874307040196" lon="10.55816954389227"><ele>81.0</ele><time>2026-03-28T16:46:49Z</time></trkpt><trkpt lat="45.61781978718261" lon="10.55806182106626"><ele>80.6</ele><time>2026-03-28T16:46:50Z</time></trkpt><trkpt lat="45.617761712781196" lon="10.55794906197275"><ele>80.19999999999999</ele><time>2026-03-28T16:46:51Z</time></trkpt><trkpt lat="45.617711354726346" lon="10.557825989048514"><ele>79.80000000000001</ele><time>2026-03-28T16:46:52Z</time></trkpt><trkpt lat="45.61764277001933" lon="10.557728989455788"><ele>79.4</ele><time>2026-03-28T16:46:53Z</time></trkpt><trkpt lat="45.61758029715405" lon="10.557620974290241"><ele>79.0</ele><time>2026-03-28T16:46:54Z</time></trkpt><trkpt lat="45.61752840600382" lon="10.55751781239952"><ele>79.0</ele><time>2026-03-28T16:46:55Z</time></trkpt><trkpt lat="45.61748156214699" lon="10.557415225775324"><ele>79.0</ele><time>2026-03-28T16:46:56Z</time></trkpt><trkpt lat="45.617431001327304" lon="10.557317929649109"><ele>79.0</ele><time>2026-03-28T16:46:57Z</time></trkpt><trkpt lat="45.617381474236865" lon="10.557225738870466"><ele>79.0</ele><time>2026-03-28T16:46:58Z</time></trkpt><trkpt lat="45.61733783877197" lon="10.5571274985346"><ele>79.0</ele><time>2026-03-28T16:46:59Z</time></trkpt><trkpt lat="45.61727749244434" lon="10.55702885911304"><ele>79.0</ele><time>2026-03-28T16:47:00Z</time></trkpt><trkpt lat="45.61722805542043" lon="10.556919677420453"><ele>79.16666666666666</ele><time>2026-03-28T16:47:01Z</time></trkpt><trkpt lat="45.61717088110864" lon="10.556812802323261"><ele>79.33333333333333</ele><time>2026-03-28T16:47:02Z</time></trkpt><trkpt lat="45.61711385623538" lon="10.556706206673601"><ele>79.5</ele><time>2026-03-28T16:47:03Z</time></trkpt><trkpt lat="45.61705685923648" lon="10.556598485498151"><ele>79.66666666666667</ele><time>2026-03-28T16:47:04Z</time></trkpt><trkpt lat="45.61700497501802" lon="10.556498752547748"><ele>79.83333333333334</ele><time>2026-03-28T16:47:05Z</time></trkpt><trkpt lat="45.61696050326698" lon="10.556413270742304"><ele>80.0</ele><time>2026-03-28T16:47:06Z</time></trkpt><trkpt lat="45.61691930618445" lon="10.556338162167325"><ele>79.5</ele><time>2026-03-28T16:47:07Z</time></trkpt><trkpt lat="45.61686236699034" lon="10.556234468883886"><ele>79.0</ele><time>2026-03-28T16:47:09Z</time></trkpt><trkpt lat="45.61682177106733" lon="10.556160684637462"><ele>78.5</ele><time>2026-03-28T16:47:12Z</time></trkpt><trkpt lat="45.61677566261131" lon="10.556073457220386"><ele>78.0</ele><time>2026-03-28T16:47:17Z</time></trkpt><trkpt lat="45.616732551842006" lon="10.555989939660893"><ele>77.5</ele><time>2026-03-28T16:47:19Z</time></trkpt><trkpt lat="45.61668217050399" lon="10.555895222186122"><ele>77.0</ele><time>2026-03-28T16:47:21Z</time></trkpt><trkpt lat="45.616642633140515" lon="10.555821657929219"><ele>77.0</ele><time>2026-03-28T16:47:23Z</time></trkpt><trkpt lat="45.6166029231221" lon="10.555747772189516"><ele>77.0</ele><time>2026-03-28T16:47:26Z</time></trkpt><trkpt lat="45.61651534471255" lon="10.555656725214712"><ele>77.0</ele><time>2026-03-28T16:47:29Z</time></trkpt><trkpt lat="45.61649902996528" lon="10.555549357213875"><ele>77.0</ele><time>2026-03-28T16:47:30Z</time></trkpt><trkpt lat="45.61645971353821" lon="10.555469960387313"><ele>77.0</ele><time>2026-03-28T16:47:31Z</time></trkpt><trkpt lat="45.616394987733706" lon="10.5553359572532"><ele>77.0</ele><time>2026-03-28T16:47:33Z</time></trkpt><trkpt lat="45.61633286266614" lon="10.55520680330845"><ele>77.0</ele><time>2026-03-28T16:47:35Z</time></trkpt><trkpt lat="45.61623302727656" lon="10.55506014403182"><ele>77.0</ele><time>2026-03-28T16:47:37Z</time></trkpt><trkpt lat="45.61617415254504" lon="10.554950887217151"><ele>77.0</ele><time>2026-03-28T16:47:38Z</time></trkpt><trkpt lat="45.61611666326286" lon="10.55483284895326"><ele>77.0</ele><time>2026-03-28T16:47:39Z</time></trkpt><trkpt lat="45.61606961742752" lon="10.554721283882076"><ele>77.0</ele><time>2026-03-28T16:47:40Z</time></trkpt><trkpt lat="45.616044947977606" lon="10.554598796221146"><ele>77.66666666666667</ele><time>2026-03-28T16:47:41Z</time></trkpt><trkpt lat="45.6160034220657" lon="10.554509425234723"><ele>78.33333333333334</ele><time>2026-03-28T16:47:41.999Z</time></trkpt><trkpt lat="45.61595953125597" lon="10.55441685014539"><ele>79.0</ele><time>2026-03-28T16:47:42.999Z</time></trkpt><trkpt lat="45.61591162163506" lon="10.554317064290368"><ele>79.66666666666667</ele><time>2026-03-28T16:47:43.999Z</time></trkpt><trkpt lat="45.61586983912016" lon="10.554230040033907"><ele>80.33333333333333</ele><time>2026-03-28T16:47:44.999Z</time></trkpt><trkpt lat="45.61581188937959" lon="10.554109342687997"><ele>81.0</ele><time>2026-03-28T16:47:46.999Z</time></trkpt><trkpt lat="45.61576987170446" lon="10.554019357289986"><ele>81.0</ele><time>2026-03-28T16:47:48.999Z</time></trkpt><trkpt lat="45.6156937749464" lon="10.553856574223305"><ele>81.0</ele><time>2026-03-28T16:47:50.999Z</time></trkpt><trkpt lat="45.61564527428555" lon="10.553757171256006"><ele>81.0</ele><time>2026-03-28T16:47:51.999Z</time></trkpt><trkpt lat="45.61559276787178" lon="10.553645259152326"><ele>81.0</ele><time>2026-03-28T16:47:52.999Z</time></trkpt><trkpt lat="45.61553805361309" lon="10.553522663258791"><ele>81.0</ele><time>2026-03-28T16:47:53.999Z</time></trkpt><trkpt lat="45.61548533154637" lon="10.553401863818252"><ele>81.19999999999999</ele><time>2026-03-28T16:47:54.999Z</time></trkpt><trkpt lat="45.615429820573475" lon="10.553273703271708"><ele>81.39999999999999</ele><time>2026-03-28T16:47:55.999Z</time></trkpt><trkpt lat="45.61537492176269" lon="10.553146952590767"><ele>81.6</ele><time>2026-03-28T16:47:56.999Z</time></trkpt><trkpt lat="45.615306587272116" lon="10.553021284453667"><ele>81.8</ele><time>2026-03-28T16:47:57.999Z</time></trkpt><trkpt lat="45.6152534774146" lon="10.552884581444921"><ele>82.0</ele><time>2026-03-28T16:47:58.999Z</time></trkpt><trkpt lat="45.61519930513819" lon="10.552749402620886"><ele>80.5</ele><time>2026-03-28T16:47:59.999Z</time></trkpt><trkpt lat="45.61514471761143" lon="10.552611785921075"><ele>79.0</ele><time>2026-03-28T16:48:00.999Z</time></trkpt><trkpt lat="45.615097246270885" lon="10.552456682036636"><ele>77.5</ele><time>2026-03-28T16:48:01.999Z</time></trkpt><trkpt lat="45.615038594769736" lon="10.552312045150243"><ele>76.0</ele><time>2026-03-28T16:48:02.999Z</time></trkpt><trkpt lat="45.61497988240042" lon="10.552167124782612"><ele>76.25</ele><time>2026-03-28T16:48:03.999Z</time></trkpt><trkpt lat="45.614920025801375" lon="10.552018429539762"><ele>76.5</ele><time>2026-03-28T16:48:04.999Z</time></trkpt><trkpt lat="45.61485917487144" lon="10.551867264402752"><ele>76.75</ele><time>2026-03-28T16:48:05.999Z</time></trkpt><trkpt lat="45.614798366809744" lon="10.551716205264109"><ele>77.0</ele><time>2026-03-28T16:48:06.999Z</time></trkpt><trkpt lat="45.61473863130888" lon="10.551567808347192"><ele>77.0</ele><time>2026-03-28T16:48:07.999Z</time></trkpt><trkpt lat="45.61468182432895" lon="10.551425494127194"><ele>77.0</ele><time>2026-03-28T16:48:08.999Z</time></trkpt><trkpt lat="45.614629924535784" lon="10.551295825440274"><ele>77.0</ele><time>2026-03-28T16:48:09.999Z</time></trkpt><trkpt lat="45.61457871639428" lon="10.551167527476682"><ele>77.0</ele><time>2026-03-28T16:48:10.999Z</time></trkpt><trkpt lat="45.61453042869172" lon="10.551040710126495"><ele>77.0</ele><time>2026-03-28T16:48:11.999Z</time></trkpt><trkpt lat="45.61448903577196" lon="10.550915338565572"><ele>76.2</ele><time>2026-03-28T16:48:12.999Z</time></trkpt><trkpt lat="45.61445148194225" lon="10.550787820922269"><ele>75.4</ele><time>2026-03-28T16:48:13.999Z</time></trkpt><trkpt lat="45.614418752234506" lon="10.55066238801529"><ele>74.6</ele><time>2026-03-28T16:48:15Z</time></trkpt><trkpt lat="45.61438951139326" lon="10.550536217481428"><ele>73.8</ele><time>2026-03-28T16:48:16Z</time></trkpt><trkpt lat="45.614362673059254" lon="10.550411073088638"><ele>73.0</ele><time>2026-03-28T16:48:17Z</time></trkpt><trkpt lat="45.614338944212044" lon="10.550281608289486"><ele>73.0</ele><time>2026-03-28T16:48:18Z</time></trkpt><trkpt lat="45.61431313055934" lon="10.550141518141547"><ele>73.0</ele><time>2026-03-28T16:48:19Z</time></trkpt><trkpt lat="45.61428682931518" lon="10.549998782064321"><ele>73.0</ele><time>2026-03-28T16:48:20Z</time></trkpt><trkpt lat="45.61425980132579" lon="10.549852101805794"><ele>73.0</ele><time>2026-03-28T16:48:21Z</time></trkpt><trkpt lat="45.61423327747608" lon="10.549708157659126"><ele>73.0</ele><time>2026-03-28T16:48:22Z</time></trkpt><trkpt lat="45.61420663839907" lon="10.54956358811086"><ele>73.0</ele><time>2026-03-28T16:48:23Z</time></trkpt><trkpt lat="45.614179043377995" lon="10.549413830633167"><ele>73.0</ele><time>2026-03-28T16:48:24Z</time></trkpt><trkpt lat="45.61413114053299" lon="10.549268788001786"><ele>73.0</ele><time>2026-03-28T16:48:25Z</time></trkpt><trkpt lat="45.61410458797365" lon="10.549106067138403"><ele>73.0</ele><time>2026-03-28T16:48:26Z</time></trkpt><trkpt lat="45.61407083915695" lon="10.548926915056535"><ele>73.0</ele><time>2026-03-28T16:48:27Z</time></trkpt><trkpt lat="45.6140356064963" lon="10.548741640354699"><ele>73.0</ele><time>2026-03-28T16:48:28Z</time></trkpt><trkpt lat="45.614020880162755" lon="10.548544186032418"><ele>73.0</ele><time>2026-03-28T16:48:29Z</time></trkpt><trkpt lat="45.61398585869992" lon="10.548351154814297"><ele>73.0</ele><time>2026-03-28T16:48:30Z</time></trkpt><trkpt lat="45.61394951762126" lon="10.5481508500491"><ele>73.5</ele><time>2026-03-28T16:48:31Z</time></trkpt><trkpt lat="45.61389756647927" lon="10.547954478856756"><ele>74.0</ele><time>2026-03-28T16:48:32Z</time></trkpt><trkpt lat="45.61386418241624" lon="10.547758939399486"><ele>74.5</ele><time>2026-03-28T16:48:33Z</time></trkpt><trkpt lat="45.613828869813794" lon="10.547572624729437"><ele>75.0</ele><time>2026-03-28T16:48:34Z</time></trkpt><trkpt lat="45.613794060944166" lon="10.547389602751887"><ele>76.0</ele><time>2026-03-28T16:48:35Z</time></trkpt><trkpt lat="45.6137734469323" lon="10.54720634117944"><ele>77.0</ele><time>2026-03-28T16:48:36Z</time></trkpt><trkpt lat="45.613725724911376" lon="10.547039808578912"><ele>78.0</ele><time>2026-03-28T16:48:37Z</time></trkpt><trkpt lat="45.61370532329522" lon="10.546845803700268"><ele>79.0</ele><time>2026-03-28T16:48:38Z</time></trkpt><trkpt lat="45.613665146877025" lon="10.54665117385563"><ele>78.25</ele><time>2026-03-28T16:48:39Z</time></trkpt><trkpt lat="45.613626160859496" lon="10.546462310910771"><ele>77.5</ele><time>2026-03-28T16:48:40Z</time></trkpt><trkpt lat="45.61358643593301" lon="10.546268243244878"><ele>76.75</ele><time>2026-03-28T16:48:41Z</time></trkpt><trkpt lat="45.613545248347755" lon="10.546065272757234"><ele>76.0</ele><time>2026-03-28T16:48:42Z</time></trkpt><trkpt lat="45.613494662056574" lon="10.545888389247487"><ele>76.0</ele><time>2026-03-28T16:48:43Z</time></trkpt><trkpt lat="45.61345288897308" lon="10.54568883643077"><ele>76.0</ele><time>2026-03-28T16:48:44Z</time></trkpt><trkpt lat="45.613413622896054" lon="10.545503996236024"><ele>76.0</ele><time>2026-03-28T16:48:45Z</time></trkpt><trkpt lat="45.61337719962713" lon="10.545335480849424"><ele>76.0</ele><time>2026-03-28T16:48:46Z</time></trkpt><trkpt lat="45.61333386205891" lon="10.54517510328248"><ele>77.8</ele><time>2026-03-28T16:48:47Z</time></trkpt><trkpt lat="45.613280627664516" lon="10.54503000971219"><ele>79.6</ele><time>2026-03-28T16:48:48Z</time></trkpt><trkpt lat="45.61321615723763" lon="10.544895692334626"><ele>81.4</ele><time>2026-03-28T16:48:49Z</time></trkpt><trkpt lat="45.61316362815758" lon="10.5447598711893"><ele>83.2</ele><time>2026-03-28T16:48:50Z</time></trkpt><trkpt lat="45.613118515211006" lon="10.54462571838152"><ele>85.0</ele><time>2026-03-28T16:48:51Z</time></trkpt><trkpt lat="45.61307451974893" lon="10.54447415001083"><ele>88.75</ele><time>2026-03-28T16:48:52Z</time></trkpt><trkpt lat="45.61301835658404" lon="10.544320136579785"><ele>92.5</ele><time>2026-03-28T16:48:53Z</time></trkpt><trkpt lat="45.612954201070025" lon="10.54415354606191"><ele>96.25</ele><time>2026-03-28T16:48:54Z</time></trkpt><trkpt lat="45.612890718031274" lon="10.543975051003866"><ele>100.0</ele><time>2026-03-28T16:48:55Z</time></trkpt><trkpt lat="45.612837990227355" lon="10.543799800007946"><ele>93.5</ele><time>2026-03-28T16:48:56Z</time></trkpt><trkpt lat="45.612794671217046" lon="10.543614650189527"><ele>87.0</ele><time>2026-03-28T16:48:57Z</time></trkpt><trkpt lat="45.61276116515533" lon="10.543429852500356"><ele>80.5</ele><time>2026-03-28T16:48:58Z</time></trkpt><trkpt lat="45.6127278229547" lon="10.543241215890992"><ele>74.0</ele><time>2026-03-28T16:48:59Z</time></trkpt><trkpt lat="45.61269246340077" lon="10.543041166544766"><ele>75.66666666666667</ele><time>2026-03-28T16:49:00Z</time></trkpt><trkpt lat="45.61265177082218" lon="10.542836701851842"><ele>77.33333333333333</ele><time>2026-03-28T16:49:01Z</time></trkpt><trkpt lat="45.6126039010864" lon="10.542620650145881"><ele>79.0</ele><time>2026-03-28T16:49:02Z</time></trkpt><trkpt lat="45.61254478543718" lon="10.542409197552834"><ele>79.0</ele><time>2026-03-28T16:49:03Z</time></trkpt><trkpt lat="45.61247743015132" lon="10.542192338761687"><ele>79.0</ele><time>2026-03-28T16:49:04Z</time></trkpt><trkpt lat="45.61240274886105" lon="10.54197218981236"><ele>79.0</ele><time>2026-03-28T16:49:05Z</time></trkpt><trkpt lat="45.61232047579898" lon="10.541740872424956"><ele>81.0</ele><time>2026-03-28T16:49:06Z</time></trkpt><trkpt lat="45.612236459204155" lon="10.541502518673708"><ele>83.0</ele><time>2026-03-28T16:49:07Z</time></trkpt><trkpt lat="45.61214707444261" lon="10.541253799027627"><ele>85.0</ele><time>2026-03-28T16:49:08Z</time></trkpt><trkpt lat="45.61205462161416" lon="10.541001760353932"><ele>85.33333333333333</ele><time>2026-03-28T16:49:09Z</time></trkpt><trkpt lat="45.61196055283336" lon="10.540752303798238"><ele>85.66666666666667</ele><time>2026-03-28T16:49:10Z</time></trkpt><trkpt lat="45.61183279569205" lon="10.54051472609188"><ele>86.0</ele><time>2026-03-28T16:49:11Z</time></trkpt><trkpt lat="45.611724325207" lon="10.540234579448573"><ele>86.0</ele><time>2026-03-28T16:49:12Z</time></trkpt><trkpt lat="45.61161602564108" lon="10.539948564045815"><ele>86.0</ele><time>2026-03-28T16:49:13Z</time></trkpt><trkpt lat="45.61152249873213" lon="10.539673316373836"><ele>86.0</ele><time>2026-03-28T16:49:14Z</time></trkpt><trkpt lat="45.61145752323457" lon="10.53940313622296"><ele>88.33333333333334</ele><time>2026-03-28T16:49:15Z</time></trkpt><trkpt lat="45.61135898643099" lon="10.539167014119755"><ele>90.66666666666667</ele><time>2026-03-28T16:49:16Z</time></trkpt><trkpt lat="45.611277594705975" lon="10.538945038190963"><ele>93.0</ele><time>2026-03-28T16:49:17Z</time></trkpt><trkpt lat="45.611194565931875" lon="10.538737361211682"><ele>90.0</ele><time>2026-03-28T16:49:18Z</time></trkpt><trkpt lat="45.61112613060229" lon="10.538518102000724"><ele>87.0</ele><time>2026-03-28T16:49:19Z</time></trkpt><trkpt lat="45.61104787975671" lon="10.538306949794812"><ele>84.0</ele><time>2026-03-28T16:49:20Z</time></trkpt><trkpt lat="45.61095651745088" lon="10.538108241663451"><ele>87.0</ele><time>2026-03-28T16:49:21Z</time></trkpt><trkpt lat="45.61090431459283" lon="10.537876380574996"><ele>90.0</ele><time>2026-03-28T16:49:22Z</time></trkpt><trkpt lat="45.61085204536905" lon="10.537660162157202"><ele>93.0</ele><time>2026-03-28T16:49:23Z</time></trkpt><trkpt lat="45.610799717553675" lon="10.537471812069084"><ele>93.0</ele><time>2026-03-28T16:49:24Z</time></trkpt><trkpt lat="45.61076766587946" lon="10.537303041651006"><ele>93.0</ele><time>2026-03-28T16:49:25Z</time></trkpt><trkpt lat="45.61077881124411" lon="10.53714540241589"><ele>93.0</ele><time>2026-03-28T16:49:26Z</time></trkpt><trkpt lat="45.6107941921037" lon="10.53700034258546"><ele>93.0</ele><time>2026-03-28T16:49:27Z</time></trkpt><trkpt lat="45.61081211410456" lon="10.536846239712673"><ele>93.0</ele><time>2026-03-28T16:49:28Z</time></trkpt><trkpt lat="45.61080645002202" lon="10.536689815107861"><ele>95.25</ele><time>2026-03-28T16:49:29Z</time></trkpt><trkpt lat="45.61080714331049" lon="10.536533299374774"><ele>97.5</ele><time>2026-03-28T16:49:30Z</time></trkpt><trkpt lat="45.61074686875437" lon="10.536384393663733"><ele>99.75</ele><time>2026-03-28T16:49:31Z</time></trkpt><trkpt lat="45.61068218125009" lon="10.536242624913275"><ele>102.0</ele><time>2026-03-28T16:49:32Z</time></trkpt><trkpt lat="45.61062011174407" lon="10.53609149570253"><ele>105.75</ele><time>2026-03-28T16:49:33Z</time></trkpt><trkpt lat="45.610546248973485" lon="10.535943601731306"><ele>109.5</ele><time>2026-03-28T16:49:34Z</time></trkpt><trkpt lat="45.610460597158266" lon="10.535802696251752"><ele>113.25</ele><time>2026-03-28T16:49:35Z</time></trkpt><trkpt lat="45.6103867490942" lon="10.53564644548409"><ele>117.0</ele><time>2026-03-28T16:49:36Z</time></trkpt><trkpt lat="45.610320124699385" lon="10.53548477229342"><ele>112.25</ele><time>2026-03-28T16:49:37Z</time></trkpt><trkpt lat="45.61026367099077" lon="10.535321605781483"><ele>107.5</ele><time>2026-03-28T16:49:38Z</time></trkpt><trkpt lat="45.610208633605176" lon="10.535156213584383"><ele>102.75</ele><time>2026-03-28T16:49:39Z</time></trkpt><trkpt lat="45.610157957121515" lon="10.534989062293777"><ele>98.0</ele><time>2026-03-28T16:49:40Z</time></trkpt><trkpt lat="45.6100973362065" lon="10.534830325893939"><ele>98.0</ele><time>2026-03-28T16:49:41Z</time></trkpt><trkpt lat="45.61002658975017" lon="10.53469417226021"><ele>98.0</ele><time>2026-03-28T16:49:42Z</time></trkpt><trkpt lat="45.609949645535416" lon="10.534575567866652"><ele>98.0</ele><time>2026-03-28T16:49:43Z</time></trkpt><trkpt lat="45.60985992801683" lon="10.534467097203295"><ele>98.0</ele><time>2026-03-28T16:49:44Z</time></trkpt><trkpt lat="45.60978727295067" lon="10.534334426450572"><ele>102.5</ele><time>2026-03-28T16:49:45Z</time></trkpt><trkpt lat="45.60971188239156" lon="10.534210802464369"><ele>107.0</ele><time>2026-03-28T16:49:46Z</time></trkpt><trkpt lat="45.609650184406235" lon="10.534083555439107"><ele>111.5</ele><time>2026-03-28T16:49:47Z</time></trkpt><trkpt lat="45.609585690043694" lon="10.533946387972312"><ele>116.0</ele><time>2026-03-28T16:49:48Z</time></trkpt><trkpt lat="45.60956639843687" lon="10.5337673086495"><ele>118.75</ele><time>2026-03-28T16:49:49Z</time></trkpt><trkpt lat="45.609530906425036" lon="10.533590153333787"><ele>121.5</ele><time>2026-03-28T16:49:50Z</time></trkpt><trkpt lat="45.609511580899195" lon="10.533401406401095"><ele>124.25</ele><time>2026-03-28T16:49:51Z</time></trkpt><trkpt lat="45.609506377067966" lon="10.533228776518351"><ele>127.0</ele><time>2026-03-28T16:49:52Z</time></trkpt><trkpt lat="45.60949981794165" lon="10.53306802650927"><ele>127.0</ele><time>2026-03-28T16:49:53Z</time></trkpt><trkpt lat="45.609511784093854" lon="10.532912775412207"><ele>127.0</ele><time>2026-03-28T16:49:54Z</time></trkpt><trkpt lat="45.60955972923113" lon="10.532764168993596"><ele>127.0</ele><time>2026-03-28T16:49:55Z</time></trkpt><trkpt lat="45.609609901167495" lon="10.532619611506414"><ele>127.0</ele><time>2026-03-28T16:49:56Z</time></trkpt><trkpt lat="45.60966957520204" lon="10.532476727322642"><ele>126.0</ele><time>2026-03-28T16:49:57Z</time></trkpt><trkpt lat="45.60971958748284" lon="10.532326432735243"><ele>124.99999999999999</ele><time>2026-03-28T16:49:58Z</time></trkpt><trkpt lat="45.60978336071436" lon="10.532189268701583"><ele>123.99999999999999</ele><time>2026-03-28T16:49:58.999Z</time></trkpt><trkpt lat="45.60982871142036" lon="10.532057326705875"><ele>123.0</ele><time>2026-03-28T16:49:59.999Z</time></trkpt><trkpt lat="45.609845015373104" lon="10.531915562531923"><ele>122.0</ele><time>2026-03-28T16:50:00.999Z</time></trkpt><trkpt lat="45.609837186472795" lon="10.531753245930451"><ele>121.25</ele><time>2026-03-28T16:50:01.999Z</time></trkpt><trkpt lat="45.6097957123815" lon="10.531573284800686"><ele>120.5</ele><time>2026-03-28T16:50:02.999Z</time></trkpt><trkpt lat="45.60973868453624" lon="10.531410195978397"><ele>119.75</ele><time>2026-03-28T16:50:03.999Z</time></trkpt><trkpt lat="45.60966992292145" lon="10.531263890176078"><ele>119.0</ele><time>2026-03-28T16:50:04.999Z</time></trkpt><trkpt lat="45.60959129077376" lon="10.531124812960709"><ele>122.0</ele><time>2026-03-28T16:50:05.999Z</time></trkpt><trkpt lat="45.609532548212776" lon="10.530958398769455"><ele>125.0</ele><time>2026-03-28T16:50:06.999Z</time></trkpt><trkpt lat="45.60946320777953" lon="10.530810747903256"><ele>128.0</ele><time>2026-03-28T16:50:07.999Z</time></trkpt><trkpt lat="45.60939687959638" lon="10.53066327709777"><ele>131.0</ele><time>2026-03-28T16:50:08.999Z</time></trkpt><trkpt lat="45.60932243047607" lon="10.53052168100084"><ele>127.0</ele><time>2026-03-28T16:50:09.999Z</time></trkpt><trkpt lat="45.60925444179981" lon="10.530366045280818"><ele>123.0</ele><time>2026-03-28T16:50:10.999Z</time></trkpt><trkpt lat="45.60918842110389" lon="10.530201272249295"><ele>119.0</ele><time>2026-03-28T16:50:11.999Z</time></trkpt><trkpt lat="45.60912256077388" lon="10.530031942964651"><ele>115.0</ele><time>2026-03-28T16:50:12.999Z</time></trkpt><trkpt lat="45.60907692764433" lon="10.529856805887395"><ele>115.0</ele><time>2026-03-28T16:50:13.999Z</time></trkpt><trkpt lat="45.609029187910494" lon="10.529711562724362"><ele>115.0</ele><time>2026-03-28T16:50:14.999Z</time></trkpt><trkpt lat="45.60898525265815" lon="10.529570011378816"><ele>115.0</ele><time>2026-03-28T16:50:15.999Z</time></trkpt><trkpt lat="45.60894699376719" lon="10.52942900375649"><ele>115.0</ele><time>2026-03-28T16:50:16.999Z</time></trkpt><trkpt lat="45.60891469221907" lon="10.529276945361023"><ele>115.0</ele><time>2026-03-28T16:50:17.999Z</time></trkpt><trkpt lat="45.60888487164382" lon="10.529119761437698"><ele>117.75</ele><time>2026-03-28T16:50:18.999Z</time></trkpt><trkpt lat="45.60885746267611" lon="10.528953120205003"><ele>120.5</ele><time>2026-03-28T16:50:19.999Z</time></trkpt><trkpt lat="45.60884358872399" lon="10.52878050468453"><ele>123.25</ele><time>2026-03-28T16:50:21Z</time></trkpt><trkpt lat="45.60882666350489" lon="10.52861298811891"><ele>126.0</ele><time>2026-03-28T16:50:22Z</time></trkpt><trkpt lat="45.60881172900744" lon="10.528451437563577"><ele>127.0</ele><time>2026-03-28T16:50:23Z</time></trkpt><trkpt lat="45.60879701659081" lon="10.528298183414865"><ele>128.0</ele><time>2026-03-28T16:50:24Z</time></trkpt><trkpt lat="45.60878271581449" lon="10.528149216866588"><ele>129.0</ele><time>2026-03-28T16:50:25Z</time></trkpt><trkpt lat="45.60876932938864" lon="10.528012285702735"><ele>130.0</ele><time>2026-03-28T16:50:26Z</time></trkpt><trkpt lat="45.60875577901495" lon="10.527874977759184"><ele>131.0</ele><time>2026-03-28T16:50:27Z</time></trkpt><trkpt lat="45.60874219898779" lon="10.52773736898581"><ele>131.33333333333331</ele><time>2026-03-28T16:50:28Z</time></trkpt><trkpt lat="45.60873065028645" lon="10.527620344058358"><ele>131.66666666666666</ele><time>2026-03-28T16:50:29Z</time></trkpt><trkpt lat="45.608720390284205" lon="10.527516377533932"><ele>132.0</ele><time>2026-03-28T16:50:30Z</time></trkpt><trkpt lat="45.60871094173187" lon="10.527420633931936"><ele>132.33333333333334</ele><time>2026-03-28T16:50:31Z</time></trkpt><trkpt lat="45.6086957541799" lon="10.527266735826252"><ele>132.66666666666669</ele><time>2026-03-28T16:50:33Z</time></trkpt><trkpt lat="45.608681513860795" lon="10.527117625317791"><ele>133.0</ele><time>2026-03-28T16:50:35Z</time></trkpt><trkpt lat="45.608668596006495" lon="10.52694543033383"><ele>133.33333333333334</ele><time>2026-03-28T16:50:37Z</time></trkpt><trkpt lat="45.608662798299804" lon="10.526854969315279"><ele>133.66666666666669</ele><time>2026-03-28T16:50:38Z</time></trkpt><trkpt lat="45.60865287050672" lon="10.526673208093955"><ele>134.0</ele><time>2026-03-28T16:50:40Z</time></trkpt><trkpt lat="45.60864813872375" lon="10.526564770867932"><ele>134.33333333333334</ele><time>2026-03-28T16:50:41Z</time></trkpt><trkpt lat="45.6086442828407" lon="10.526448110379407"><ele>134.66666666666666</ele><time>2026-03-28T16:50:42Z</time></trkpt><trkpt lat="45.60864219194673" lon="10.526340376892694"><ele>135.0</ele><time>2026-03-28T16:50:43Z</time></trkpt><trkpt lat="45.60864008902967" lon="10.526232026088934"><ele>135.6</ele><time>2026-03-28T16:50:44Z</time></trkpt><trkpt lat="45.608644211919106" lon="10.526116979145112"><ele>136.2</ele><time>2026-03-28T16:50:45Z</time></trkpt><trkpt lat="45.608646064984946" lon="10.525994421379318"><ele>136.8</ele><time>2026-03-28T16:50:46Z</time></trkpt><trkpt lat="45.60865162431847" lon="10.525863074492536"><ele>137.4</ele><time>2026-03-28T16:50:47Z</time></trkpt><trkpt lat="45.60865855353874" lon="10.525717836153808"><ele>138.0</ele><time>2026-03-28T16:50:48Z</time></trkpt><trkpt lat="45.608665206177186" lon="10.525578395179522"><ele>138.0</ele><time>2026-03-28T16:50:49Z</time></trkpt><trkpt lat="45.60867246278657" lon="10.52544894961187"><ele>138.0</ele><time>2026-03-28T16:50:50Z</time></trkpt><trkpt lat="45.60867970295274" lon="10.525321445429528"><ele>138.0</ele><time>2026-03-28T16:50:51Z</time></trkpt><trkpt lat="45.608687852587224" lon="10.525177924757049"><ele>138.0</ele><time>2026-03-28T16:50:52Z</time></trkpt><trkpt lat="45.60869654526779" lon="10.525029518079712"><ele>138.0</ele><time>2026-03-28T16:50:53Z</time></trkpt><trkpt lat="45.60870570475726" lon="10.524877377863898"><ele>137.4</ele><time>2026-03-28T16:50:54Z</time></trkpt><trkpt lat="45.60871489414743" lon="10.524724591437582"><ele>136.8</ele><time>2026-03-28T16:50:55Z</time></trkpt><trkpt lat="45.60871024837547" lon="10.524575384315225"><ele>136.2</ele><time>2026-03-28T16:50:56Z</time></trkpt><trkpt lat="45.60871588299676" lon="10.524428423481115"><ele>135.6</ele><time>2026-03-28T16:50:57Z</time></trkpt><trkpt lat="45.6087232036442" lon="10.524287882308316"><ele>135.0</ele><time>2026-03-28T16:50:58Z</time></trkpt><trkpt lat="45.60873167005152" lon="10.524143236774956"><ele>134.6</ele><time>2026-03-28T16:50:59Z</time></trkpt><trkpt lat="45.60874126510204" lon="10.52399168027051"><ele>134.2</ele><time>2026-03-28T16:51:00Z</time></trkpt><trkpt lat="45.60875534139909" lon="10.523840912139196"><ele>133.8</ele><time>2026-03-28T16:51:01Z</time></trkpt><trkpt lat="45.60877185281286" lon="10.523694635040016"><ele>133.4</ele><time>2026-03-28T16:51:02Z</time></trkpt><trkpt lat="45.60875906896782" lon="10.523553851698493"><ele>133.0</ele><time>2026-03-28T16:51:03Z</time></trkpt><trkpt lat="45.60876623225735" lon="10.523408229734004"><ele>132.4</ele><time>2026-03-28T16:51:04Z</time></trkpt><trkpt lat="45.60874195616056" lon="10.523249443055832"><ele>131.8</ele><time>2026-03-28T16:51:05Z</time></trkpt><trkpt lat="45.60870901003014" lon="10.523102483117386"><ele>131.2</ele><time>2026-03-28T16:51:06Z</time></trkpt><trkpt lat="45.60865826022838" lon="10.52297586747423"><ele>130.6</ele><time>2026-03-28T16:51:07Z</time></trkpt><trkpt lat="45.608626832672236" lon="10.52283509013067"><ele>130.0</ele><time>2026-03-28T16:51:08Z</time></trkpt><trkpt lat="45.60857982316076" lon="10.52269157746569"><ele>124.6</ele><time>2026-03-28T16:51:09Z</time></trkpt><trkpt lat="45.60855831747745" lon="10.522536576995725"><ele>119.2</ele><time>2026-03-28T16:51:10Z</time></trkpt><trkpt lat="45.60853419319753" lon="10.522384546577891"><ele>113.80000000000001</ele><time>2026-03-28T16:51:11Z</time></trkpt><trkpt lat="45.608527298241064" lon="10.522225597704399"><ele>108.4</ele><time>2026-03-28T16:51:12Z</time></trkpt><trkpt lat="45.60854551240671" lon="10.522083293886364"><ele>103.0</ele><time>2026-03-28T16:51:13Z</time></trkpt><trkpt lat="45.608568790064076" lon="10.521948081053326"><ele>101.80000000000001</ele><time>2026-03-28T16:51:14Z</time></trkpt><trkpt lat="45.60860678055041" lon="10.521818471154592"><ele>100.6</ele><time>2026-03-28T16:51:15Z</time></trkpt><trkpt lat="45.60865729903617" lon="10.521706763214153"><ele>99.4</ele><time>2026-03-28T16:51:16Z</time></trkpt><trkpt lat="45.60872721076728" lon="10.521590888725996"><ele>98.19999999999999</ele><time>2026-03-28T16:51:17Z</time></trkpt><trkpt lat="45.60879725362547" lon="10.521488954008861"><ele>97.0</ele><time>2026-03-28T16:51:18Z</time></trkpt><trkpt lat="45.6088726783286" lon="10.521380739697905"><ele>98.8</ele><time>2026-03-28T16:51:19Z</time></trkpt><trkpt lat="45.60894857491029" lon="10.521270262755941"><ele>100.6</ele><time>2026-03-28T16:51:20Z</time></trkpt><trkpt lat="45.6090239435107" lon="10.521160555005386"><ele>102.39999999999999</ele><time>2026-03-28T16:51:21Z</time></trkpt><trkpt lat="45.60910199975884" lon="10.5210469345555"><ele>104.19999999999999</ele><time>2026-03-28T16:51:22Z</time></trkpt><trkpt lat="45.60917760933115" lon="10.520936875876643"><ele>106.0</ele><time>2026-03-28T16:51:23Z</time></trkpt><trkpt lat="45.60925489150917" lon="10.520824382423196"><ele>106.0</ele><time>2026-03-28T16:51:24Z</time></trkpt><trkpt lat="45.60932066446426" lon="10.520696504977682"><ele>106.0</ele><time>2026-03-28T16:51:25Z</time></trkpt><trkpt lat="45.60940899887253" lon="10.520600060602547"><ele>106.0</ele><time>2026-03-28T16:51:26Z</time></trkpt><trkpt lat="45.609471637878926" lon="10.520478135613455"><ele>106.0</ele><time>2026-03-28T16:51:27Z</time></trkpt><trkpt lat="45.609545854275666" lon="10.520368339613746"><ele>106.0</ele><time>2026-03-28T16:51:28Z</time></trkpt><trkpt lat="45.609616611441886" lon="10.52024004580602"><ele>107.25</ele><time>2026-03-28T16:51:29Z</time></trkpt><trkpt lat="45.60969177313971" lon="10.520110775592972"><ele>108.5</ele><time>2026-03-28T16:51:30Z</time></trkpt><trkpt lat="45.609777573132156" lon="10.519980787472864"><ele>109.75</ele><time>2026-03-28T16:51:31Z</time></trkpt><trkpt lat="45.609851799466064" lon="10.519832276186651"><ele>111.0</ele><time>2026-03-28T16:51:32Z</time></trkpt><trkpt lat="45.609926182431764" lon="10.519679435605592"><ele>110.25</ele><time>2026-03-28T16:51:33Z</time></trkpt><trkpt lat="45.609992651936636" lon="10.519524526211706"><ele>109.5</ele><time>2026-03-28T16:51:34Z</time></trkpt><trkpt lat="45.6100423631793" lon="10.51935952940104"><ele>108.75</ele><time>2026-03-28T16:51:35Z</time></trkpt><trkpt lat="45.61009468511826" lon="10.519207950064226"><ele>108.0</ele><time>2026-03-28T16:51:36Z</time></trkpt><trkpt lat="45.61015740600981" lon="10.51906867809001"><ele>108.0</ele><time>2026-03-28T16:51:37Z</time></trkpt><trkpt lat="45.61020545177921" lon="10.518912690961823"><ele>108.0</ele><time>2026-03-28T16:51:38Z</time></trkpt><trkpt lat="45.610251660633715" lon="10.518750075675106"><ele>108.0</ele><time>2026-03-28T16:51:39Z</time></trkpt><trkpt lat="45.6102895696857" lon="10.518603517209181"><ele>108.0</ele><time>2026-03-28T16:51:40Z</time></trkpt><trkpt lat="45.610323443995235" lon="10.51845924855253"><ele>109.66666666666667</ele><time>2026-03-28T16:51:41Z</time></trkpt><trkpt lat="45.61034773497357" lon="10.518347940083176"><ele>111.33333333333334</ele><time>2026-03-28T16:51:42Z</time></trkpt><trkpt lat="45.610371688934435" lon="10.518238175991081"><ele>113.0</ele><time>2026-03-28T16:51:43Z</time></trkpt><trkpt lat="45.61039687950676" lon="10.518122747817246"><ele>114.66666666666667</ele><time>2026-03-28T16:51:44Z</time></trkpt><trkpt lat="45.61042235259672" lon="10.518005732572844"><ele>116.33333333333334</ele><time>2026-03-28T16:51:45Z</time></trkpt><trkpt lat="45.61044648933484" lon="10.517895504538476"><ele>118.0</ele><time>2026-03-28T16:51:46Z</time></trkpt><trkpt lat="45.610472049539304" lon="10.517779389720914"><ele>118.4</ele><time>2026-03-28T16:51:47Z</time></trkpt><trkpt lat="45.61049868221085" lon="10.517658402926914"><ele>118.80000000000001</ele><time>2026-03-28T16:51:48Z</time></trkpt><trkpt lat="45.6105284919513" lon="10.517522983073485"><ele>119.2</ele><time>2026-03-28T16:51:49Z</time></trkpt><trkpt lat="45.61055835378869" lon="10.517387326827366"><ele>119.6</ele><time>2026-03-28T16:51:50Z</time></trkpt><trkpt lat="45.61058785485022" lon="10.517253309523408"><ele>120.0</ele><time>2026-03-28T16:51:51Z</time></trkpt><trkpt lat="45.61061836223872" lon="10.517114720655591"><ele>119.33333333333333</ele><time>2026-03-28T16:51:52Z</time></trkpt><trkpt lat="45.61064712258399" lon="10.51698406802286"><ele>118.66666666666666</ele><time>2026-03-28T16:51:53Z</time></trkpt><trkpt lat="45.610672231112126" lon="10.51687000535869"><ele>118.0</ele><time>2026-03-28T16:51:54Z</time></trkpt><trkpt lat="45.610698094756295" lon="10.51675153005462"><ele>117.33333333333333</ele><time>2026-03-28T16:51:55Z</time></trkpt><trkpt lat="45.61072407483577" lon="10.516632263911141"><ele>116.66666666666666</ele><time>2026-03-28T16:51:56Z</time></trkpt><trkpt lat="45.61075104699221" lon="10.516508443482731"><ele>116.0</ele><time>2026-03-28T16:51:57Z</time></trkpt><trkpt lat="45.61077577820844" lon="10.516394910440164"><ele>116.00000000000001</ele><time>2026-03-28T16:51:58Z</time></trkpt><trkpt lat="45.6107834357017" lon="10.51628843442349"><ele>116.0</ele><time>2026-03-28T16:51:59Z</time></trkpt><trkpt lat="45.61081984540352" lon="10.516192612098953"><ele>116.00000000000001</ele><time>2026-03-28T16:52:00Z</time></trkpt><trkpt lat="45.61084098891296" lon="10.516095613698289"><ele>116.00000000000001</ele><time>2026-03-28T16:52:01Z</time></trkpt><trkpt lat="45.61084735007201" lon="10.51599795634637"><ele>116.0</ele><time>2026-03-28T16:52:02Z</time></trkpt><trkpt lat="45.61086979780179" lon="10.515909693082557"><ele>116.00000000000001</ele><time>2026-03-28T16:52:02.999Z</time></trkpt><trkpt lat="45.610888784390085" lon="10.515812018517178"><ele>116.00000000000001</ele><time>2026-03-28T16:52:03.999Z</time></trkpt><trkpt lat="45.6109080848095" lon="10.515716768064983"><ele>115.19999999999999</ele><time>2026-03-28T16:52:04.999Z</time></trkpt><trkpt lat="45.61092947864032" lon="10.515620453784154"><ele>114.39999999999999</ele><time>2026-03-28T16:52:05.999Z</time></trkpt><trkpt lat="45.61096528423512" lon="10.515526193486924"><ele>113.6</ele><time>2026-03-28T16:52:06.999Z</time></trkpt><trkpt lat="45.61098918723418" lon="10.515362747463765"><ele>112.8</ele><time>2026-03-28T16:52:08.999Z</time></trkpt><trkpt lat="45.611032913995665" lon="10.515216368758365"><ele>112.0</ele><time>2026-03-28T16:52:10.999Z</time></trkpt><trkpt lat="45.611064564106115" lon="10.51507137369177"><ele>111.39999999999999</ele><time>2026-03-28T16:52:12.999Z</time></trkpt><trkpt lat="45.61109682674241" lon="10.514923572532195"><ele>110.79999999999998</ele><time>2026-03-28T16:52:14.999Z</time></trkpt><trkpt lat="45.61112612482096" lon="10.514789871461245"><ele>110.2</ele><time>2026-03-28T16:52:16.999Z</time></trkpt><trkpt lat="45.611147447508" lon="10.514693085021243"><ele>109.6</ele><time>2026-03-28T16:52:18.999Z</time></trkpt><trkpt lat="45.611138429226315" lon="10.514522704264891"><ele>109.0</ele><time>2026-03-28T16:52:20.999Z</time></trkpt><trkpt lat="45.611165043988464" lon="10.514404703803413"><ele>111.0</ele><time>2026-03-28T16:52:21.999Z</time></trkpt><trkpt lat="45.61118529836542" lon="10.514296011642656"><ele>113.0</ele><time>2026-03-28T16:52:22.999Z</time></trkpt><trkpt lat="45.611206263741536" lon="10.514190334298863"><ele>115.0</ele><time>2026-03-28T16:52:23.999Z</time></trkpt><trkpt lat="45.61123632811383" lon="10.514066220377218"><ele>117.0</ele><time>2026-03-28T16:52:24.999Z</time></trkpt><trkpt lat="45.61131231428639" lon="10.513942190099442"><ele>119.0</ele><time>2026-03-28T16:52:25.999Z</time></trkpt><trkpt lat="45.61134380233096" lon="10.513799576821176"><ele>118.4</ele><time>2026-03-28T16:52:27Z</time></trkpt><trkpt lat="45.61137134586299" lon="10.513675046984629"><ele>117.80000000000001</ele><time>2026-03-28T16:52:28Z</time></trkpt><trkpt lat="45.61139989653808" lon="10.513545963786083"><ele>117.19999999999999</ele><time>2026-03-28T16:52:29Z</time></trkpt><trkpt lat="45.61142977751402" lon="10.51341086616842"><ele>116.6</ele><time>2026-03-28T16:52:30Z</time></trkpt><trkpt lat="45.61145788009353" lon="10.513283808927804"><ele>116.0</ele><time>2026-03-28T16:52:31Z</time></trkpt><trkpt lat="45.61148437533585" lon="10.513164018772628"><ele>115.99999999999999</ele><time>2026-03-28T16:52:32Z</time></trkpt><trkpt lat="45.61150370143991" lon="10.513076641526498"><ele>116.0</ele><time>2026-03-28T16:52:33Z</time></trkpt><trkpt lat="45.611523946693" lon="10.512985109129218"><ele>116.0</ele><time>2026-03-28T16:52:35Z</time></trkpt><trkpt lat="45.611553740961966" lon="10.512850403040998"><ele>116.0</ele><time>2026-03-28T16:52:38Z</time></trkpt><trkpt lat="45.611582478485346" lon="10.51271968637346"><ele>115.99999999999999</ele><time>2026-03-28T16:52:40Z</time></trkpt><trkpt lat="45.6115636085604" lon="10.512591085395135"><ele>116.0</ele><time>2026-03-28T16:52:42Z</time></trkpt><trkpt lat="45.61158483451717" lon="10.512489042984896"><ele>115.8</ele><time>2026-03-28T16:52:44Z</time></trkpt><trkpt lat="45.611603292178195" lon="10.512369655862246"><ele>115.6</ele><time>2026-03-28T16:52:49Z</time></trkpt><trkpt lat="45.61163185919225" lon="10.512241601115717"><ele>115.4</ele><time>2026-03-28T16:52:52Z</time></trkpt><trkpt lat="45.61165512485165" lon="10.512101968085053"><ele>115.2</ele><time>2026-03-28T16:52:55Z</time></trkpt><trkpt lat="45.61169041079905" lon="10.511906859529683"><ele>115.0</ele><time>2026-03-28T16:52:57Z</time></trkpt><trkpt lat="45.611715741635415" lon="10.5117948682389"><ele>114.4</ele><time>2026-03-28T16:52:58Z</time></trkpt><trkpt lat="45.61174079403908" lon="10.51170164279394"><ele>113.8</ele><time>2026-03-28T16:52:59Z</time></trkpt><trkpt lat="45.611770172916415" lon="10.511594312910264"><ele>113.19999999999999</ele><time>2026-03-28T16:53:00Z</time></trkpt><trkpt lat="45.6117974503201" lon="10.51145414201088"><ele>112.6</ele><time>2026-03-28T16:53:01Z</time></trkpt><trkpt lat="45.61181985493791" lon="10.511297430405293"><ele>112.0</ele><time>2026-03-28T16:53:02Z</time></trkpt><trkpt lat="45.61183775256877" lon="10.511145984412893"><ele>111.39999999999999</ele><time>2026-03-28T16:53:03Z</time></trkpt><trkpt lat="45.61185323319063" lon="10.511016130261098"><ele>110.79999999999998</ele><time>2026-03-28T16:53:04Z</time></trkpt><trkpt lat="45.611909852131475" lon="10.510910582143227"><ele>110.2</ele><time>2026-03-28T16:53:05Z</time></trkpt><trkpt lat="45.61191616994065" lon="10.510809177763123"><ele>109.6</ele><time>2026-03-28T16:53:06Z</time></trkpt><trkpt lat="45.6119032513013" lon="10.510654519174034"><ele>109.0</ele><time>2026-03-28T16:53:08Z</time></trkpt><trkpt lat="45.61194342397715" lon="10.510534595518632"><ele>109.50000000000001</ele><time>2026-03-28T16:53:10Z</time></trkpt><trkpt lat="45.61200713077313" lon="10.510395360525814"><ele>110.0</ele><time>2026-03-28T16:53:12Z</time></trkpt><trkpt lat="45.61202830521473" lon="10.51030499599827"><ele>110.5</ele><time>2026-03-28T16:53:13Z</time></trkpt><trkpt lat="45.612030420102286" lon="10.51019735449865"><ele>111.0</ele><time>2026-03-28T16:53:14Z</time></trkpt><trkpt lat="45.61199999629285" lon="10.510096729862108"><ele>111.50000000000001</ele><time>2026-03-28T16:53:15Z</time></trkpt><trkpt lat="45.61194875501012" lon="10.510002356040655"><ele>112.0</ele><time>2026-03-28T16:53:16Z</time></trkpt><trkpt lat="45.61188111658757" lon="10.50991368940662"><ele>112.0</ele><time>2026-03-28T16:53:17Z</time></trkpt><trkpt lat="45.61182048880049" lon="10.509799453516477"><ele>111.99999999999999</ele><time>2026-03-28T16:53:18Z</time></trkpt><trkpt lat="45.6117671091967" lon="10.509670600493807"><ele>111.99999999999999</ele><time>2026-03-28T16:53:19Z</time></trkpt><trkpt lat="45.61175144488314" lon="10.509512867675308"><ele>112.0</ele><time>2026-03-28T16:53:20Z</time></trkpt><trkpt lat="45.611699853333064" lon="10.509350974413877"><ele>112.0</ele><time>2026-03-28T16:53:21Z</time></trkpt><trkpt lat="45.61164034033321" lon="10.50918532165012"><ele>113.25</ele><time>2026-03-28T16:53:22Z</time></trkpt><trkpt lat="45.61156345817145" lon="10.509029294386334"><ele>114.5</ele><time>2026-03-28T16:53:23Z</time></trkpt><trkpt lat="45.61149592930382" lon="10.508859810275284"><ele>115.75</ele><time>2026-03-28T16:53:24Z</time></trkpt><trkpt lat="45.61143245794098" lon="10.508669631804432"><ele>117.0</ele><time>2026-03-28T16:53:25Z</time></trkpt><trkpt lat="45.611362097692165" lon="10.508499627037502"><ele>116.0</ele><time>2026-03-28T16:53:26Z</time></trkpt><trkpt lat="45.61128991522614" lon="10.508325429150915"><ele>115.0</ele><time>2026-03-28T16:53:27Z</time></trkpt><trkpt lat="45.611221279720446" lon="10.508159791213966"><ele>114.0</ele><time>2026-03-28T16:53:28Z</time></trkpt><trkpt lat="45.61115468499505" lon="10.507999078049647"><ele>113.0</ele><time>2026-03-28T16:53:29Z</time></trkpt><trkpt lat="45.61108089424027" lon="10.507860289731166"><ele>113.0</ele><time>2026-03-28T16:53:30Z</time></trkpt><trkpt lat="45.611024116003414" lon="10.5077117121321"><ele>113.0</ele><time>2026-03-28T16:53:31Z</time></trkpt><trkpt lat="45.61095591179446" lon="10.507559013209919"><ele>113.0</ele><time>2026-03-28T16:53:32Z</time></trkpt><trkpt lat="45.61089883683309" lon="10.507397038845262"><ele>113.0</ele><time>2026-03-28T16:53:33Z</time></trkpt><trkpt lat="45.61082485269447" lon="10.507229709133195"><ele>116.5</ele><time>2026-03-28T16:53:34Z</time></trkpt><trkpt lat="45.61074944070055" lon="10.507049525533457"><ele>120.0</ele><time>2026-03-28T16:53:35Z</time></trkpt><trkpt lat="45.61067598415573" lon="10.506869400822376"><ele>123.5</ele><time>2026-03-28T16:53:36Z</time></trkpt><trkpt lat="45.610608743154174" lon="10.506691064389797"><ele>127.0</ele><time>2026-03-28T16:53:37Z</time></trkpt><trkpt lat="45.61055019170781" lon="10.506508941422238"><ele>127.0</ele><time>2026-03-28T16:53:38Z</time></trkpt><trkpt lat="45.61050068137355" lon="10.506318391266328"><ele>127.0</ele><time>2026-03-28T16:53:39Z</time></trkpt><trkpt lat="45.61045710576404" lon="10.506125867649825"><ele>127.0</ele><time>2026-03-28T16:53:40Z</time></trkpt><trkpt lat="45.6104301268036" lon="10.505938977760895"><ele>127.0</ele><time>2026-03-28T16:53:41Z</time></trkpt><trkpt lat="45.61041335091086" lon="10.505778404072657"><ele>129.0</ele><time>2026-03-28T16:53:42Z</time></trkpt><trkpt lat="45.610413783638826" lon="10.505647688381277"><ele>131.0</ele><time>2026-03-28T16:53:43Z</time></trkpt><trkpt lat="45.61040896762818" lon="10.505531926145968"><ele>133.0</ele><time>2026-03-28T16:53:44Z</time></trkpt><trkpt lat="45.61042250269664" lon="10.50542438814182"><ele>135.0</ele><time>2026-03-28T16:53:45Z</time></trkpt><trkpt lat="45.61042758772579" lon="10.505320777610422"><ele>137.0</ele><time>2026-03-28T16:53:46Z</time></trkpt><trkpt lat="45.61044086588352" lon="10.505162306578676"><ele>139.0</ele><time>2026-03-28T16:53:48Z</time></trkpt><trkpt lat="45.61045220033993" lon="10.505063413633408"><ele>139.33333333333334</ele><time>2026-03-28T16:53:50Z</time></trkpt><trkpt lat="45.610464169254925" lon="10.504972811030596"><ele>139.66666666666669</ele><time>2026-03-28T16:53:52Z</time></trkpt><trkpt lat="45.61047787626478" lon="10.504868265874872"><ele>140.0</ele><time>2026-03-28T16:53:54Z</time></trkpt><trkpt lat="45.61050140277539" lon="10.504698899621587"><ele>140.33333333333334</ele><time>2026-03-28T16:53:56Z</time></trkpt><trkpt lat="45.61051505456076" lon="10.504601448432048"><ele>140.66666666666666</ele><time>2026-03-28T16:53:57Z</time></trkpt><trkpt lat="45.61053199737541" lon="10.504476558039071"><ele>141.0</ele><time>2026-03-28T16:53:58Z</time></trkpt><trkpt lat="45.610551485805374" lon="10.504332904197732"><ele>138.4</ele><time>2026-03-28T16:53:59Z</time></trkpt><trkpt lat="45.610570141603624" lon="10.50419788242565"><ele>135.8</ele><time>2026-03-28T16:54:00Z</time></trkpt><trkpt lat="45.61058622629346" lon="10.504081176000067"><ele>133.20000000000002</ele><time>2026-03-28T16:54:01Z</time></trkpt><trkpt lat="45.61060053134954" lon="10.503977382312048"><ele>130.6</ele><time>2026-03-28T16:54:02Z</time></trkpt><trkpt lat="45.61062340892202" lon="10.5038099349378"><ele>128.0</ele><time>2026-03-28T16:54:04Z</time></trkpt><trkpt lat="45.61064419558247" lon="10.503656933564379"><ele>127.49999999999999</ele><time>2026-03-28T16:54:06Z</time></trkpt><trkpt lat="45.61066656604918" lon="10.5034937558935"><ele>127.0</ele><time>2026-03-28T16:54:08Z</time></trkpt><trkpt lat="45.610679075445866" lon="10.50339920521259"><ele>126.5</ele><time>2026-03-28T16:54:09Z</time></trkpt><trkpt lat="45.61069201081731" lon="10.503297954936048"><ele>126.0</ele><time>2026-03-28T16:54:10Z</time></trkpt><trkpt lat="45.610709436827456" lon="10.50317085373306"><ele>125.49999999999999</ele><time>2026-03-28T16:54:11Z</time></trkpt><trkpt lat="45.61072632551278" lon="10.503047695744872"><ele>125.0</ele><time>2026-03-28T16:54:12Z</time></trkpt><trkpt lat="45.61074570970285" lon="10.502912796787829"><ele>125.0</ele><time>2026-03-28T16:54:13Z</time></trkpt><trkpt lat="45.61076665820445" lon="10.50276027779811"><ele>125.0</ele><time>2026-03-28T16:54:13.999Z</time></trkpt><trkpt lat="45.61078634647368" lon="10.502591261456901"><ele>125.0</ele><time>2026-03-28T16:54:14.999Z</time></trkpt><trkpt lat="45.610803851927024" lon="10.502423026436475"><ele>125.0</ele><time>2026-03-28T16:54:15.999Z</time></trkpt><trkpt lat="45.6108150249377" lon="10.502265335792725"><ele>124.99999999999999</ele><time>2026-03-28T16:54:16.999Z</time></trkpt><trkpt lat="45.610814289086676" lon="10.502136430529813"><ele>125.0</ele><time>2026-03-28T16:54:17.999Z</time></trkpt><trkpt lat="45.61079712688937" lon="10.502022677050146"><ele>125.0</ele><time>2026-03-28T16:54:18.999Z</time></trkpt><trkpt lat="45.610781762997526" lon="10.501907054522768"><ele>125.0</ele><time>2026-03-28T16:54:19.999Z</time></trkpt><trkpt lat="45.61078651525208" lon="10.501792793343883"><ele>124.99999999999999</ele><time>2026-03-28T16:54:20.999Z</time></trkpt><trkpt lat="45.610775071250316" lon="10.501683298347679"><ele>125.0</ele><time>2026-03-28T16:54:21.999Z</time></trkpt><trkpt lat="45.61076358969574" lon="10.501588848931878"><ele>126.83333333333333</ele><time>2026-03-28T16:54:22.999Z</time></trkpt><trkpt lat="45.6107431077703" lon="10.501435554306306"><ele>128.66666666666666</ele><time>2026-03-28T16:54:24.999Z</time></trkpt><trkpt lat="45.61072974852567" lon="10.501338621953305"><ele>130.5</ele><time>2026-03-28T16:54:25.999Z</time></trkpt><trkpt lat="45.61070853821917" lon="10.501245110202301"><ele>132.33333333333334</ele><time>2026-03-28T16:54:26.999Z</time></trkpt><trkpt lat="45.61071360308452" lon="10.501131012276065"><ele>134.16666666666669</ele><time>2026-03-28T16:54:27.999Z</time></trkpt><trkpt lat="45.6107240151801" lon="10.501014997020198"><ele>136.0</ele><time>2026-03-28T16:54:28.999Z</time></trkpt><trkpt lat="45.61074152594732" lon="10.500899454687692"><ele>136.66666666666669</ele><time>2026-03-28T16:54:29.999Z</time></trkpt><trkpt lat="45.61074913282238" lon="10.500790904701885"><ele>137.33333333333334</ele><time>2026-03-28T16:54:30.999Z</time></trkpt><trkpt lat="45.61074133522044" lon="10.500680092005304"><ele>138.0</ele><time>2026-03-28T16:54:31.999Z</time></trkpt><trkpt lat="45.610709727974026" lon="10.500570615186398"><ele>138.66666666666666</ele><time>2026-03-28T16:54:33Z</time></trkpt><trkpt lat="45.61065918895629" lon="10.50047191800797"><ele>139.33333333333331</ele><time>2026-03-28T16:54:34Z</time></trkpt><trkpt lat="45.61058413646625" lon="10.500383369285618"><ele>140.0</ele><time>2026-03-28T16:54:35Z</time></trkpt><trkpt lat="45.610498485854336" lon="10.500296308370075"><ele>140.4</ele><time>2026-03-28T16:54:36Z</time></trkpt><trkpt lat="45.61041377411477" lon="10.500211859774437"><ele>140.8</ele><time>2026-03-28T16:54:37Z</time></trkpt><trkpt lat="45.61033722592624" lon="10.500123320445182"><ele>141.2</ele><time>2026-03-28T16:54:38Z</time></trkpt><trkpt lat="45.61027515671915" lon="10.500018841203014"><ele>141.6</ele><time>2026-03-28T16:54:39Z</time></trkpt><trkpt lat="45.61023447813541" lon="10.499911384892366"><ele>142.0</ele><time>2026-03-28T16:54:40Z</time></trkpt><trkpt lat="45.610197090675086" lon="10.499808737860665"><ele>142.0</ele><time>2026-03-28T16:54:41Z</time></trkpt><trkpt lat="45.610159226360175" lon="10.499699363384503"><ele>142.0</ele><time>2026-03-28T16:54:42Z</time></trkpt><trkpt lat="45.610119935757965" lon="10.49958790893614"><ele>142.0</ele><time>2026-03-28T16:54:43Z</time></trkpt><trkpt lat="45.6100790995235" lon="10.49947062166184"><ele>142.0</ele><time>2026-03-28T16:54:44Z</time></trkpt><trkpt lat="45.610039250396916" lon="10.499343112176634"><ele>142.0</ele><time>2026-03-28T16:54:45Z</time></trkpt><trkpt lat="45.61001143402615" lon="10.49920130748341"><ele>143.6</ele><time>2026-03-28T16:54:46Z</time></trkpt><trkpt lat="45.60995701997472" lon="10.49908155912041"><ele>145.2</ele><time>2026-03-28T16:54:47Z</time></trkpt><trkpt lat="45.609929325988155" lon="10.498936804274098"><ele>146.8</ele><time>2026-03-28T16:54:48Z</time></trkpt><trkpt lat="45.60987849038167" lon="10.498819272049808"><ele>148.4</ele><time>2026-03-28T16:54:49Z</time></trkpt><trkpt lat="45.60983905168794" lon="10.498688403144625"><ele>150.0</ele><time>2026-03-28T16:54:50Z</time></trkpt><trkpt lat="45.609801475469986" lon="10.498557057319191"><ele>150.8</ele><time>2026-03-28T16:54:51Z</time></trkpt><trkpt lat="45.60978171492252" lon="10.498427630898663"><ele>151.6</ele><time>2026-03-28T16:54:52Z</time></trkpt><trkpt lat="45.60974168749606" lon="10.498324551889981"><ele>152.4</ele><time>2026-03-28T16:54:53Z</time></trkpt><trkpt lat="45.60972133152046" lon="10.498197690840609"><ele>153.2</ele><time>2026-03-28T16:54:54Z</time></trkpt><trkpt lat="45.60970195760006" lon="10.498059350521743"><ele>154.0</ele><time>2026-03-28T16:54:55Z</time></trkpt><trkpt lat="45.60968844421324" lon="10.497915119756755"><ele>154.8</ele><time>2026-03-28T16:54:56Z</time></trkpt><trkpt lat="45.60968317010743" lon="10.497772770918608"><ele>155.60000000000002</ele><time>2026-03-28T16:54:57Z</time></trkpt><trkpt lat="45.60967718326285" lon="10.497626712017276"><ele>156.4</ele><time>2026-03-28T16:54:58Z</time></trkpt><trkpt lat="45.60967501875388" lon="10.497475114386102"><ele>157.20000000000002</ele><time>2026-03-28T16:54:59Z</time></trkpt><trkpt lat="45.60969608806154" lon="10.497322980404245"><ele>158.0</ele><time>2026-03-28T16:55:00Z</time></trkpt><trkpt lat="45.60971209527471" lon="10.497182589047725"><ele>158.60000000000002</ele><time>2026-03-28T16:55:01Z</time></trkpt><trkpt lat="45.60973167939814" lon="10.497043842790346"><ele>159.20000000000002</ele><time>2026-03-28T16:55:02Z</time></trkpt><trkpt lat="45.60975544084592" lon="10.496910270171481"><ele>159.8</ele><time>2026-03-28T16:55:03Z</time></trkpt><trkpt lat="45.60978212903439" lon="10.496777213382012"><ele>160.4</ele><time>2026-03-28T16:55:04Z</time></trkpt><trkpt lat="45.60981014931552" lon="10.496642817998845"><ele>161.0</ele><time>2026-03-28T16:55:05Z</time></trkpt><trkpt lat="45.60983666023689" lon="10.496515661791914"><ele>161.0</ele><time>2026-03-28T16:55:06Z</time></trkpt><trkpt lat="45.60986405301055" lon="10.496383971387433"><ele>161.0</ele><time>2026-03-28T16:55:07Z</time></trkpt><trkpt lat="45.60989925065689" lon="10.496213872965253"><ele>161.0</ele><time>2026-03-28T16:55:08Z</time></trkpt><trkpt lat="45.60993805879369" lon="10.496026326383673"><ele>161.0</ele><time>2026-03-28T16:55:09Z</time></trkpt><trkpt lat="45.60998028927723" lon="10.49582224061478"><ele>161.0</ele><time>2026-03-28T16:55:10Z</time></trkpt><trkpt lat="45.61002292159299" lon="10.495616213078803"><ele>161.0</ele><time>2026-03-28T16:55:11Z</time></trkpt><trkpt lat="45.61006387173011" lon="10.49542046954028"><ele>161.0</ele><time>2026-03-28T16:55:12Z</time></trkpt><trkpt lat="45.610096303226456" lon="10.495205797677666"><ele>161.0</ele><time>2026-03-28T16:55:13Z</time></trkpt><trkpt lat="45.610147022231295" lon="10.495008017048528"><ele>160.5</ele><time>2026-03-28T16:55:14Z</time></trkpt><trkpt lat="45.6102090338834" lon="10.494820537476452"><ele>160.0</ele><time>2026-03-28T16:55:15Z</time></trkpt><trkpt lat="45.610280042262666" lon="10.494638862660631"><ele>159.5</ele><time>2026-03-28T16:55:16Z</time></trkpt><trkpt lat="45.61036431356087" lon="10.494454471622912"><ele>159.0</ele><time>2026-03-28T16:55:17Z</time></trkpt><trkpt lat="45.61044780299803" lon="10.494277903577068"><ele>162.0</ele><time>2026-03-28T16:55:18Z</time></trkpt><trkpt lat="45.61052714642998" lon="10.494099722031343"><ele>165.0</ele><time>2026-03-28T16:55:19Z</time></trkpt><trkpt lat="45.61060526278745" lon="10.49391849708892"><ele>168.0</ele><time>2026-03-28T16:55:20Z</time></trkpt><trkpt lat="45.61068025145764" lon="10.493734849002557"><ele>171.0</ele><time>2026-03-28T16:55:21Z</time></trkpt><trkpt lat="45.610755430788245" lon="10.493557941572705"><ele>171.5</ele><time>2026-03-28T16:55:22Z</time></trkpt><trkpt lat="45.610832316427825" lon="10.493371877162724"><ele>172.0</ele><time>2026-03-28T16:55:23Z</time></trkpt><trkpt lat="45.610909816700776" lon="10.493191908864878"><ele>172.5</ele><time>2026-03-28T16:55:24Z</time></trkpt><trkpt lat="45.610987448829306" lon="10.493015959012668"><ele>173.0</ele><time>2026-03-28T16:55:25Z</time></trkpt><trkpt lat="45.611058496595476" lon="10.492849638464772"><ele>173.25</ele><time>2026-03-28T16:55:26Z</time></trkpt><trkpt lat="45.61113503246326" lon="10.492686489315815"><ele>173.5</ele><time>2026-03-28T16:55:27Z</time></trkpt><trkpt lat="45.61120362794876" lon="10.492526877920461"><ele>173.75</ele><time>2026-03-28T16:55:28Z</time></trkpt><trkpt lat="45.61126538694082" lon="10.492383527010514"><ele>174.0</ele><time>2026-03-28T16:55:29Z</time></trkpt><trkpt lat="45.61132151700927" lon="10.492238566023083"><ele>174.79999999999998</ele><time>2026-03-28T16:55:30Z</time></trkpt><trkpt lat="45.61138411814926" lon="10.492103490298717"><ele>175.6</ele><time>2026-03-28T16:55:31Z</time></trkpt><trkpt lat="45.611439964080944" lon="10.491973251214457"><ele>176.4</ele><time>2026-03-28T16:55:32Z</time></trkpt><trkpt lat="45.61147923617423" lon="10.49185699078579"><ele>177.2</ele><time>2026-03-28T16:55:33Z</time></trkpt><trkpt lat="45.61154328343671" lon="10.491746053795"><ele>178.0</ele><time>2026-03-28T16:55:34Z</time></trkpt><trkpt lat="45.611585085950395" lon="10.491617384383833"><ele>178.0</ele><time>2026-03-28T16:55:35Z</time></trkpt><trkpt lat="45.61164122164235" lon="10.491504276864474"><ele>178.0</ele><time>2026-03-28T16:55:36Z</time></trkpt><trkpt lat="45.61168357872329" lon="10.491386542371071"><ele>178.0</ele><time>2026-03-28T16:55:37Z</time></trkpt><trkpt lat="45.611727477851595" lon="10.491280682021126"><ele>178.0</ele><time>2026-03-28T16:55:38Z</time></trkpt><trkpt lat="45.61177632726883" lon="10.491166084963556"><ele>178.0</ele><time>2026-03-28T16:55:39Z</time></trkpt><trkpt lat="45.61184243042083" lon="10.49105407109437"><ele>178.0</ele><time>2026-03-28T16:55:40Z</time></trkpt><trkpt lat="45.61189861994381" lon="10.490924013823197"><ele>178.0</ele><time>2026-03-28T16:55:41Z</time></trkpt><trkpt lat="45.611940721757755" lon="10.490784045983702"><ele>178.0</ele><time>2026-03-28T16:55:42Z</time></trkpt><trkpt lat="45.61201212899568" lon="10.490663597901564"><ele>178.0</ele><time>2026-03-28T16:55:43Z</time></trkpt><trkpt lat="45.61205267563917" lon="10.490533211167685"><ele>178.0</ele><time>2026-03-28T16:55:44Z</time></trkpt><trkpt lat="45.612105364018284" lon="10.490421193296198"><ele>182.0</ele><time>2026-03-28T16:55:45Z</time></trkpt><trkpt lat="45.612153040798056" lon="10.49029738139399"><ele>186.0</ele><time>2026-03-28T16:55:46Z</time></trkpt><trkpt lat="45.61219953594088" lon="10.490173767789786"><ele>190.0</ele><time>2026-03-28T16:55:47Z</time></trkpt><trkpt lat="45.6122427392852" lon="10.490039438225727"><ele>194.0</ele><time>2026-03-28T16:55:48Z</time></trkpt><trkpt lat="45.61227648640603" lon="10.489901577175758"><ele>198.0</ele><time>2026-03-28T16:55:49Z</time></trkpt><trkpt lat="45.6123094630382" lon="10.489763877213651"><ele>198.0</ele><time>2026-03-28T16:55:50Z</time></trkpt><trkpt lat="45.612334648272146" lon="10.489611351611144"><ele>198.0</ele><time>2026-03-28T16:55:51Z</time></trkpt><trkpt lat="45.612352093207235" lon="10.489451588718067"><ele>198.0</ele><time>2026-03-28T16:55:52Z</time></trkpt><trkpt lat="45.61239531885125" lon="10.48929655304187"><ele>198.0</ele><time>2026-03-28T16:55:53Z</time></trkpt><trkpt lat="45.612401844618404" lon="10.48912066497291"><ele>198.25</ele><time>2026-03-28T16:55:54Z</time></trkpt><trkpt lat="45.61239661646016" lon="10.488949767483122"><ele>198.5</ele><time>2026-03-28T16:55:55Z</time></trkpt><trkpt lat="45.61238385002234" lon="10.488794950276175"><ele>198.75</ele><time>2026-03-28T16:55:56Z</time></trkpt><trkpt lat="45.61236642725262" lon="10.48862562361733"><ele>199.0</ele><time>2026-03-28T16:55:57Z</time></trkpt><trkpt lat="45.61234633093369" lon="10.488437808435284"><ele>199.66666666666666</ele><time>2026-03-28T16:55:58Z</time></trkpt><trkpt lat="45.61232455108236" lon="10.48823046289293"><ele>200.33333333333331</ele><time>2026-03-28T16:55:59Z</time></trkpt><trkpt lat="45.61230066075837" lon="10.488002392695025"><ele>201.0</ele><time>2026-03-28T16:56:00Z</time></trkpt><trkpt lat="45.612277760597614" lon="10.487783775334863"><ele>201.33333333333331</ele><time>2026-03-28T16:56:01Z</time></trkpt><trkpt lat="45.61225751817901" lon="10.487567848897706"><ele>201.66666666666666</ele><time>2026-03-28T16:56:02Z</time></trkpt><trkpt lat="45.61224056389914" lon="10.487355829739192"><ele>202.0</ele><time>2026-03-28T16:56:03Z</time></trkpt><trkpt lat="45.612225135755615" lon="10.487141791423827"><ele>202.75</ele><time>2026-03-28T16:56:04Z</time></trkpt><trkpt lat="45.612211066623814" lon="10.48693179820235"><ele>203.5</ele><time>2026-03-28T16:56:05Z</time></trkpt><trkpt lat="45.612196167868" lon="10.486726579982333"><ele>204.25</ele><time>2026-03-28T16:56:06Z</time></trkpt><trkpt lat="45.612162313256526" lon="10.486529190840592"><ele>205.0</ele><time>2026-03-28T16:56:07Z</time></trkpt><trkpt lat="45.61214019735393" lon="10.486326129687654"><ele>206.33333333333331</ele><time>2026-03-28T16:56:08Z</time></trkpt><trkpt lat="45.61210688690349" lon="10.486104056939867"><ele>207.66666666666669</ele><time>2026-03-28T16:56:09Z</time></trkpt><trkpt lat="45.6120690044211" lon="10.48588427534902"><ele>209.0</ele><time>2026-03-28T16:56:10Z</time></trkpt><trkpt lat="45.61202922341733" lon="10.48565244500872"><ele>209.33333333333334</ele><time>2026-03-28T16:56:11.019Z</time></trkpt><trkpt lat="45.6120263382462" lon="10.485406440787713"><ele>209.66666666666669</ele><time>2026-03-28T16:56:12.019Z</time></trkpt><trkpt lat="45.61195162334188" lon="10.48520665649772"><ele>210.0</ele><time>2026-03-28T16:56:13.018Z</time></trkpt><trkpt lat="45.61210110728773" lon="10.485034699284869"><ele>236.0</ele><time>2026-03-28T16:56:14.024Z</time></trkpt><trkpt lat="45.61209940464103" lon="10.483145959980368"><ele>236.0</ele><time>2026-03-28T16:56:24.181Z</time></trkpt><trkpt lat="45.6121151679893" lon="10.48296138429242"><ele>236.0</ele><time>2026-03-28T16:56:25.379Z</time></trkpt><trkpt lat="45.61216169163757" lon="10.482560783428726"><ele>236.0</ele><time>2026-03-28T16:56:28.072Z</time></trkpt><trkpt lat="45.612235971332716" lon="10.481943627287643"><ele>233.66666666666669</ele><time>2026-03-28T16:56:32.442Z</time></trkpt><trkpt lat="45.612284296936856" lon="10.481606814056622"><ele>231.33333333333331</ele><time>2026-03-28T16:56:34.967Z</time></trkpt><trkpt lat="45.612306406153465" lon="10.48136102447977"><ele>229.0</ele><time>2026-03-28T16:56:36.298Z</time></trkpt><trkpt lat="45.60493963774815" lon="10.467713205153558"><ele>229.0</ele><time>2026-03-28T16:57:55.999Z</time></trkpt><trkpt lat="45.604935028647375" lon="10.46749924639122"><ele>229.0</ele><time>2026-03-28T16:57:56.999Z</time></trkpt><trkpt lat="45.60493198920064" lon="10.467103169072672"><ele>229.0</ele><time>2026-03-28T16:57:57.999Z</time></trkpt><trkpt lat="45.6048525905521" lon="10.4668801988767"><ele>227.0</ele><time>2026-03-28T16:57:58.999Z</time></trkpt><trkpt lat="45.6047975289365" lon="10.466623836631628"><ele>225.0</ele><time>2026-03-28T16:57:59.999Z</time></trkpt><trkpt lat="45.60472015948969" lon="10.466393901420947"><ele>223.0</ele><time>2026-03-28T16:58:00.999Z</time></trkpt><trkpt lat="45.6046271809232" lon="10.466180712496525"><ele>222.33333333333331</ele><time>2026-03-28T16:58:02Z</time></trkpt><trkpt lat="45.60450986147091" lon="10.465987843701779"><ele>221.66666666666669</ele><time>2026-03-28T16:58:03Z</time></trkpt><trkpt lat="45.604392951341566" lon="10.465790405171548"><ele>221.0</ele><time>2026-03-28T16:58:04Z</time></trkpt><trkpt lat="45.60425417696645" lon="10.465593798809298"><ele>220.33333333333334</ele><time>2026-03-28T16:58:05Z</time></trkpt><trkpt lat="45.60410099916466" lon="10.465395584711306"><ele>219.66666666666669</ele><time>2026-03-28T16:58:06Z</time></trkpt><trkpt lat="45.60394022684219" lon="10.465208318007226"><ele>219.0</ele><time>2026-03-28T16:58:07Z</time></trkpt><trkpt lat="45.603797516650936" lon="10.465008498223147"><ele>222.0</ele><time>2026-03-28T16:58:08Z</time></trkpt><trkpt lat="45.603649792375" lon="10.464803323705238"><ele>225.0</ele><time>2026-03-28T16:58:09Z</time></trkpt><trkpt lat="45.60349891201011" lon="10.464609773021284"><ele>228.0</ele><time>2026-03-28T16:58:10Z</time></trkpt><trkpt lat="45.60335373209795" lon="10.464419059945813"><ele>228.0</ele><time>2026-03-28T16:58:11Z</time></trkpt><trkpt lat="45.60321183863254" lon="10.464224082939161"><ele>228.0</ele><time>2026-03-28T16:58:12Z</time></trkpt><trkpt lat="45.603069133883366" lon="10.464045762742453"><ele>228.0</ele><time>2026-03-28T16:58:13Z</time></trkpt><trkpt lat="45.60293620495964" lon="10.463853898633609"><ele>232.0</ele><time>2026-03-28T16:58:14Z</time></trkpt><trkpt lat="45.60280271094631" lon="10.463669157291765"><ele>236.0</ele><time>2026-03-28T16:58:15Z</time></trkpt><trkpt lat="45.60269104400521" lon="10.463496682090772"><ele>240.0</ele><time>2026-03-28T16:58:16Z</time></trkpt><trkpt lat="45.602526179974916" lon="10.463281561145461"><ele>240.0</ele><time>2026-03-28T16:58:17Z</time></trkpt><trkpt lat="45.602333893491824" lon="10.463048780644183"><ele>240.0</ele><time>2026-03-28T16:58:18Z</time></trkpt><trkpt lat="45.60221522389123" lon="10.462814554920444"><ele>239.66666666666669</ele><time>2026-03-28T16:58:19Z</time></trkpt><trkpt lat="45.6020373163025" lon="10.462649759064272"><ele>239.33333333333334</ele><time>2026-03-28T16:58:20Z</time></trkpt><trkpt lat="45.60190204708815" lon="10.462478834184973"><ele>239.0</ele><time>2026-03-28T16:58:21Z</time></trkpt><trkpt lat="45.60175717266063" lon="10.462303113562948"><ele>239.0</ele><time>2026-03-28T16:58:22Z</time></trkpt><trkpt lat="45.601603118123" lon="10.462129147354421"><ele>239.0</ele><time>2026-03-28T16:58:23Z</time></trkpt><trkpt lat="45.60144601918417" lon="10.461967547275659"><ele>239.0</ele><time>2026-03-28T16:58:24Z</time></trkpt><trkpt lat="45.60128376240935" lon="10.461808276683715"><ele>239.33333333333334</ele><time>2026-03-28T16:58:25Z</time></trkpt><trkpt lat="45.60112107650462" lon="10.461655618876243"><ele>239.66666666666669</ele><time>2026-03-28T16:58:26Z</time></trkpt><trkpt lat="45.600956458549376" lon="10.461519217276901"><ele>240.0</ele><time>2026-03-28T16:58:27Z</time></trkpt><trkpt lat="45.600785900476225" lon="10.461394433365747"><ele>236.66666666666669</ele><time>2026-03-28T16:58:28Z</time></trkpt><trkpt lat="45.60062030586419" lon="10.46128065831462"><ele>233.33333333333334</ele><time>2026-03-28T16:58:29Z</time></trkpt><trkpt lat="45.60046033501964" lon="10.461181471554525"><ele>230.0</ele><time>2026-03-28T16:58:30Z</time></trkpt><trkpt lat="45.600297260344256" lon="10.461089124748051"><ele>230.0</ele><time>2026-03-28T16:58:31Z</time></trkpt><trkpt lat="45.600140576916225" lon="10.461006810341221"><ele>230.0</ele><time>2026-03-28T16:58:32Z</time></trkpt><trkpt lat="45.599990317831015" lon="10.460933528619506"><ele>230.0</ele><time>2026-03-28T16:58:33Z</time></trkpt><trkpt lat="45.59984441180485" lon="10.460869436656354"><ele>230.0</ele><time>2026-03-28T16:58:34Z</time></trkpt><trkpt lat="45.59969239385176" lon="10.460811555878735"><ele>230.0</ele><time>2026-03-28T16:58:35Z</time></trkpt><trkpt lat="45.59953671768373" lon="10.460760888565002"><ele>230.0</ele><time>2026-03-28T16:58:36Z</time></trkpt><trkpt lat="45.59937004386035" lon="10.46071446239137"><ele>233.0</ele><time>2026-03-28T16:58:37Z</time></trkpt><trkpt lat="45.59920392432691" lon="10.460697477538181"><ele>236.0</ele><time>2026-03-28T16:58:38Z</time></trkpt><trkpt lat="45.599041885127015" lon="10.460664978707607"><ele>239.0</ele><time>2026-03-28T16:58:39Z</time></trkpt><trkpt lat="45.59889252121443" lon="10.460618916198142"><ele>239.0</ele><time>2026-03-28T16:58:40Z</time></trkpt><trkpt lat="45.598745871693055" lon="10.460595136334561"><ele>239.0</ele><time>2026-03-28T16:58:41Z</time></trkpt><trkpt lat="45.59860117768931" lon="10.460572488316549"><ele>239.0</ele><time>2026-03-28T16:58:42Z</time></trkpt><trkpt lat="45.59845541575012" lon="10.460550642618896"><ele>239.0</ele><time>2026-03-28T16:58:43Z</time></trkpt><trkpt lat="45.59830922011869" lon="10.460528731988749"><ele>239.25</ele><time>2026-03-28T16:58:44Z</time></trkpt><trkpt lat="45.59816224516233" lon="10.460506704523452"><ele>239.5</ele><time>2026-03-28T16:58:45Z</time></trkpt><trkpt lat="45.598013921822115" lon="10.46048447498171"><ele>239.75</ele><time>2026-03-28T16:58:46Z</time></trkpt><trkpt lat="45.597866824471616" lon="10.460463034122904"><ele>240.0</ele><time>2026-03-28T16:58:47Z</time></trkpt><trkpt lat="45.59771801007585" lon="10.46044230327308"><ele>237.5</ele><time>2026-03-28T16:58:48Z</time></trkpt><trkpt lat="45.59757116615588" lon="10.460421846906545"><ele>235.0</ele><time>2026-03-28T16:58:49Z</time></trkpt><trkpt lat="45.59742604536568" lon="10.460401630583114"><ele>232.5</ele><time>2026-03-28T16:58:50Z</time></trkpt><trkpt lat="45.59728188087265" lon="10.460381547509261"><ele>230.0</ele><time>2026-03-28T16:58:51Z</time></trkpt><trkpt lat="45.59713792522725" lon="10.460361493508195"><ele>230.75</ele><time>2026-03-28T16:58:52Z</time></trkpt><trkpt lat="45.596995244271746" lon="10.460341617093784"><ele>231.5</ele><time>2026-03-28T16:58:53Z</time></trkpt><trkpt lat="45.596853981382175" lon="10.460321938211651"><ele>232.25</ele><time>2026-03-28T16:58:54Z</time></trkpt><trkpt lat="45.596711875805255" lon="10.460302042396656"><ele>233.0</ele><time>2026-03-28T16:58:55Z</time></trkpt><trkpt lat="45.59656676200952" lon="10.460280240973029"><ele>233.0</ele><time>2026-03-28T16:58:56Z</time></trkpt><trkpt lat="45.596419190900455" lon="10.460258070372983"><ele>233.0</ele><time>2026-03-28T16:58:57Z</time></trkpt><trkpt lat="45.596264462279784" lon="10.460234824416434"><ele>233.0</ele><time>2026-03-28T16:58:58.016Z</time></trkpt><trkpt lat="45.59611853210421" lon="10.460212195065829"><ele>236.0</ele><time>2026-03-28T16:58:59.021Z</time></trkpt><trkpt lat="45.59581824482781" lon="10.460242556185909"><ele>239.0</ele><time>2026-03-28T16:59:01.022Z</time></trkpt><trkpt lat="45.59566874839596" lon="10.46022674260196"><ele>247.0</ele><time>2026-03-28T16:59:02.015Z</time></trkpt><trkpt lat="45.59433812279775" lon="10.459943432370629"><ele>247.0</ele><time>2026-03-28T16:59:10Z</time></trkpt><trkpt lat="45.59403042616025" lon="10.459980253727354"><ele>247.0</ele><time>2026-03-28T16:59:11Z</time></trkpt><trkpt lat="45.593877601597704" lon="10.45995577163255"><ele>247.0</ele><time>2026-03-28T16:59:12Z</time></trkpt><trkpt lat="45.593714169321395" lon="10.459912672835127"><ele>247.0</ele><time>2026-03-28T16:59:13Z</time></trkpt><trkpt lat="45.59355490152216" lon="10.459856129124034"><ele>247.0</ele><time>2026-03-28T16:59:14Z</time></trkpt><trkpt lat="45.593419422424255" lon="10.459741920485254"><ele>246.33333333333331</ele><time>2026-03-28T16:59:15Z</time></trkpt><trkpt lat="45.59326854101185" lon="10.459685531780007"><ele>245.66666666666669</ele><time>2026-03-28T16:59:16Z</time></trkpt><trkpt lat="45.593114616285895" lon="10.459616922469523"><ele>245.0</ele><time>2026-03-28T16:59:17Z</time></trkpt><trkpt lat="45.59296191059393" lon="10.459538027216862"><ele>244.0</ele><time>2026-03-28T16:59:18Z</time></trkpt><trkpt lat="45.59280936992234" lon="10.459448116443328"><ele>243.0</ele><time>2026-03-28T16:59:19Z</time></trkpt><trkpt lat="45.592654743116114" lon="10.459345558319992"><ele>242.0</ele><time>2026-03-28T16:59:20Z</time></trkpt><trkpt lat="45.59250621895346" lon="10.459241801038775"><ele>242.0</ele><time>2026-03-28T16:59:21Z</time></trkpt><trkpt lat="45.5923579827016" lon="10.459136535862184"><ele>242.0</ele><time>2026-03-28T16:59:22Z</time></trkpt><trkpt lat="45.59220873881237" lon="10.459024393388896"><ele>242.0</ele><time>2026-03-28T16:59:23Z</time></trkpt><trkpt lat="45.59205987482361" lon="10.458904642676089"><ele>241.66666666666669</ele><time>2026-03-28T16:59:24Z</time></trkpt><trkpt lat="45.59190680241532" lon="10.458783038601817"><ele>241.33333333333331</ele><time>2026-03-28T16:59:25Z</time></trkpt><trkpt lat="45.591751676457314" lon="10.458660014091569"><ele>241.0</ele><time>2026-03-28T16:59:26Z</time></trkpt><trkpt lat="45.591596321697665" lon="10.458537113578682"><ele>241.0</ele><time>2026-03-28T16:59:27Z</time></trkpt><trkpt lat="45.59143481021844" lon="10.458408835918313"><ele>241.0</ele><time>2026-03-28T16:59:28Z</time></trkpt><trkpt lat="45.59127954678972" lon="10.458287484545279"><ele>241.0</ele><time>2026-03-28T16:59:29Z</time></trkpt><trkpt lat="45.591120664905105" lon="10.458163305079632"><ele>239.66666666666666</ele><time>2026-03-28T16:59:30Z</time></trkpt><trkpt lat="45.59096029992266" lon="10.458037678647464"><ele>238.33333333333331</ele><time>2026-03-28T16:59:31.02Z</time></trkpt><trkpt lat="45.590802413045964" lon="10.457912526049283"><ele>237.0</ele><time>2026-03-28T16:59:32.021Z</time></trkpt><trkpt lat="45.590632719680784" lon="10.45780279685085"><ele>237.0</ele><time>2026-03-28T16:59:33.02Z</time></trkpt><trkpt lat="45.5904745501843" lon="10.457673707791576"><ele>237.0</ele><time>2026-03-28T16:59:34.021Z</time></trkpt><trkpt lat="45.59031774627825" lon="10.457546966473478"><ele>237.0</ele><time>2026-03-28T16:59:35.021Z</time></trkpt><trkpt lat="45.58998503367959" lon="10.457257489116813"><ele>239.33333333333331</ele><time>2026-03-28T16:59:37Z</time></trkpt><trkpt lat="45.58981837587729" lon="10.457126950661598"><ele>241.66666666666666</ele><time>2026-03-28T16:59:38Z</time></trkpt><trkpt lat="45.5896567897378" lon="10.456985818555085"><ele>244.0</ele><time>2026-03-28T16:59:39Z</time></trkpt><trkpt lat="45.58949170813817" lon="10.456841398777295"><ele>246.5</ele><time>2026-03-28T16:59:40Z</time></trkpt><trkpt lat="45.589323196526415" lon="10.456693895204973"><ele>249.0</ele><time>2026-03-28T16:59:41.021Z</time></trkpt><trkpt lat="45.586824256791125" lon="10.454791406075904"><ele>227.0</ele><time>2026-03-28T16:59:45.083Z</time></trkpt><trkpt lat="45.58611748100809" lon="10.454233293305936"><ele>227.0</ele><time>2026-03-28T16:59:46.081Z</time></trkpt><trkpt lat="45.5858308" lon="10.4540029"><ele>227.0</ele><time>2026-03-28T16:59:47.083Z</time></trkpt><trkpt lat="45.585342580495016" lon="10.453754151249727"><ele>226.0</ele><time>2026-03-28T17:00:05.999Z</time></trkpt><trkpt lat="45.58518194491934" lon="10.453628235413722"><ele>225.0</ele><time>2026-03-28T17:00:06.999Z</time></trkpt><trkpt lat="45.58505966499293" lon="10.453419550809357"><ele>224.0</ele><time>2026-03-28T17:00:07.999Z</time></trkpt><trkpt lat="45.58491939103693" lon="10.45326909638864"><ele>224.0</ele><time>2026-03-28T17:00:08.999Z</time></trkpt><trkpt lat="45.58478156535858" lon="10.453085962369357"><ele>224.0</ele><time>2026-03-28T17:00:09.999Z</time></trkpt><trkpt lat="45.584626692593076" lon="10.452916028326928"><ele>224.0</ele><time>2026-03-28T17:00:10.999Z</time></trkpt><trkpt lat="45.58447500269693" lon="10.452733019253884"><ele>224.0</ele><time>2026-03-28T17:00:12Z</time></trkpt><trkpt lat="45.5843188249188" lon="10.452565401877067"><ele>224.0</ele><time>2026-03-28T17:00:13Z</time></trkpt><trkpt lat="45.58418744001547" lon="10.452346627230419"><ele>224.0</ele><time>2026-03-28T17:00:14Z</time></trkpt><trkpt lat="45.584046235919594" lon="10.452132598901326"><ele>223.0</ele><time>2026-03-28T17:00:15Z</time></trkpt><trkpt lat="45.58390468972945" lon="10.45191514713166"><ele>222.0</ele><time>2026-03-28T17:00:16Z</time></trkpt><trkpt lat="45.58376647964785" lon="10.451702018954743"><ele>221.0</ele><time>2026-03-28T17:00:17Z</time></trkpt><trkpt lat="45.583621159975294" lon="10.451528580135642"><ele>221.0</ele><time>2026-03-28T17:00:18Z</time></trkpt><trkpt lat="45.583497688972805" lon="10.451338910598983"><ele>221.0</ele><time>2026-03-28T17:00:19Z</time></trkpt><trkpt lat="45.5833744805499" lon="10.451148187860321"><ele>221.0</ele><time>2026-03-28T17:00:20Z</time></trkpt><trkpt lat="45.5832487503396" lon="10.450955973243722"><ele>219.0</ele><time>2026-03-28T17:00:21Z</time></trkpt><trkpt lat="45.58312326719784" lon="10.45076232344837"><ele>217.0</ele><time>2026-03-28T17:00:22Z</time></trkpt><trkpt lat="45.58300236707339" lon="10.450575645688561"><ele>215.0</ele><time>2026-03-28T17:00:23Z</time></trkpt><trkpt lat="45.582886881344905" lon="10.45039543741265"><ele>216.0</ele><time>2026-03-28T17:00:24Z</time></trkpt><trkpt lat="45.58277950949399" lon="10.450217815504233"><ele>217.0</ele><time>2026-03-28T17:00:25Z</time></trkpt><trkpt lat="45.58265575255304" lon="10.450047088485437"><ele>218.0</ele><time>2026-03-28T17:00:26Z</time></trkpt><trkpt lat="45.58253510991018" lon="10.449880941050594"><ele>218.0</ele><time>2026-03-28T17:00:27Z</time></trkpt><trkpt lat="45.582428217500244" lon="10.449691018788748"><ele>218.0</ele><time>2026-03-28T17:00:28Z</time></trkpt><trkpt lat="45.5822994392707" lon="10.449534105166626"><ele>218.0</ele><time>2026-03-28T17:00:29Z</time></trkpt><trkpt lat="45.58216379389634" lon="10.449384916062275"><ele>217.0</ele><time>2026-03-28T17:00:30Z</time></trkpt><trkpt lat="45.58202337630668" lon="10.44924093821177"><ele>216.0</ele><time>2026-03-28T17:00:31Z</time></trkpt><trkpt lat="45.581876863185926" lon="10.449103667068304"><ele>215.0</ele><time>2026-03-28T17:00:32Z</time></trkpt><trkpt lat="45.581729493596875" lon="10.44897408763079"><ele>215.0</ele><time>2026-03-28T17:00:33Z</time></trkpt><trkpt lat="45.58156618996501" lon="10.448837327132955"><ele>215.0</ele><time>2026-03-28T17:00:34Z</time></trkpt><trkpt lat="45.581415145943254" lon="10.448712592585181"><ele>215.0</ele><time>2026-03-28T17:00:35Z</time></trkpt><trkpt lat="45.5812664689042" lon="10.44858981284796"><ele>214.0</ele><time>2026-03-28T17:00:36Z</time></trkpt><trkpt lat="45.58112389248378" lon="10.448472070859555"><ele>213.0</ele><time>2026-03-28T17:00:37Z</time></trkpt><trkpt lat="45.580981948261346" lon="10.448354851432116"><ele>212.0</ele><time>2026-03-28T17:00:38Z</time></trkpt><trkpt lat="45.58083733690822" lon="10.448236264935469"><ele>212.0</ele><time>2026-03-28T17:00:39Z</time></trkpt><trkpt lat="45.5806906742636" lon="10.448116158495546"><ele>212.0</ele><time>2026-03-28T17:00:40Z</time></trkpt><trkpt lat="45.58054275529185" lon="10.447995022937363"><ele>212.0</ele><time>2026-03-28T17:00:41Z</time></trkpt><trkpt lat="45.58039067408513" lon="10.44787027707084"><ele>210.0</ele><time>2026-03-28T17:00:42Z</time></trkpt><trkpt lat="45.580236036178825" lon="10.447743340775302"><ele>208.0</ele><time>2026-03-28T17:00:43Z</time></trkpt><trkpt lat="45.58008310925082" lon="10.447617481100473"><ele>206.0</ele><time>2026-03-28T17:00:44Z</time></trkpt><trkpt lat="45.57993484947822" lon="10.447495277585903"><ele>206.0</ele><time>2026-03-28T17:00:45Z</time></trkpt><trkpt lat="45.57979115742933" lon="10.447376837508633"><ele>206.0</ele><time>2026-03-28T17:00:46Z</time></trkpt><trkpt lat="45.579646180011146" lon="10.44725733791494"><ele>206.0</ele><time>2026-03-28T17:00:47Z</time></trkpt><trkpt lat="45.57949825080235" lon="10.447135405281786"><ele>205.66666666666669</ele><time>2026-03-28T17:00:48Z</time></trkpt><trkpt lat="45.57934781675667" lon="10.447011408065059"><ele>205.33333333333331</ele><time>2026-03-28T17:00:49Z</time></trkpt><trkpt lat="45.5791886776299" lon="10.446880235419775"><ele>205.0</ele><time>2026-03-28T17:00:50Z</time></trkpt><trkpt lat="45.57901628900807" lon="10.446738141978452"><ele>205.0</ele><time>2026-03-28T17:00:51Z</time></trkpt><trkpt lat="45.578831426688446" lon="10.44658576662843"><ele>205.0</ele><time>2026-03-28T17:00:52Z</time></trkpt><trkpt lat="45.57864077443314" lon="10.4464291700523"><ele>205.0</ele><time>2026-03-28T17:00:53Z</time></trkpt><trkpt lat="45.578452651988194" lon="10.446275273135484"><ele>205.0</ele><time>2026-03-28T17:00:54Z</time></trkpt><trkpt lat="45.57826922317755" lon="10.446125140331398"><ele>205.0</ele><time>2026-03-28T17:00:55Z</time></trkpt><trkpt lat="45.57808990777411" lon="10.445978374334851"><ele>205.0</ele><time>2026-03-28T17:00:56Z</time></trkpt><trkpt lat="45.57791565477242" lon="10.445834436860169"><ele>204.33333333333331</ele><time>2026-03-28T17:00:57Z</time></trkpt><trkpt lat="45.577747971475574" lon="10.445695894001318"><ele>203.66666666666669</ele><time>2026-03-28T17:00:58Z</time></trkpt><trkpt lat="45.57758587093387" lon="10.445562534402665"><ele>203.0</ele><time>2026-03-28T17:00:59Z</time></trkpt><trkpt lat="45.57742674382557" lon="10.445431621279736"><ele>203.0</ele><time>2026-03-28T17:01:00Z</time></trkpt><trkpt lat="45.57727115420818" lon="10.445303683807603"><ele>203.0</ele><time>2026-03-28T17:01:01Z</time></trkpt><trkpt lat="45.57711525802283" lon="10.44517550029339"><ele>203.0</ele><time>2026-03-28T17:01:02Z</time></trkpt><trkpt lat="45.57695829141972" lon="10.445046436759677"><ele>203.0</ele><time>2026-03-28T17:01:03Z</time></trkpt><trkpt lat="45.576803998283566" lon="10.44491957155188"><ele>203.0</ele><time>2026-03-28T17:01:04Z</time></trkpt><trkpt lat="45.57665404317926" lon="10.444796272856843"><ele>203.0</ele><time>2026-03-28T17:01:05Z</time></trkpt><trkpt lat="45.57650209000328" lon="10.444671522518226"><ele>202.66666666666669</ele><time>2026-03-28T17:01:06Z</time></trkpt><trkpt lat="45.57634907776611" lon="10.444546008589246"><ele>202.33333333333331</ele><time>2026-03-28T17:01:07Z</time></trkpt><trkpt lat="45.576199812813485" lon="10.444423568679413"><ele>202.0</ele><time>2026-03-28T17:01:08Z</time></trkpt><trkpt lat="45.57605257174328" lon="10.444302751408102"><ele>202.0</ele><time>2026-03-28T17:01:09Z</time></trkpt><trkpt lat="45.57590519854524" lon="10.444181517091229"><ele>202.0</ele><time>2026-03-28T17:01:10Z</time></trkpt><trkpt lat="45.57575990794669" lon="10.444061785152687"><ele>202.0</ele><time>2026-03-28T17:01:11Z</time></trkpt><trkpt lat="45.575599730562274" lon="10.44392908765666"><ele>202.33333333333331</ele><time>2026-03-28T17:01:12Z</time></trkpt><trkpt lat="45.57543775692191" lon="10.443795680327218"><ele>202.66666666666669</ele><time>2026-03-28T17:01:13Z</time></trkpt><trkpt lat="45.575269131284095" lon="10.443656716586766"><ele>203.0</ele><time>2026-03-28T17:01:14Z</time></trkpt><trkpt lat="45.57509063046177" lon="10.443509738431368"><ele>201.66666666666669</ele><time>2026-03-28T17:01:15Z</time></trkpt><trkpt lat="45.57490662340721" lon="10.443358368493085"><ele>200.33333333333331</ele><time>2026-03-28T17:01:16Z</time></trkpt><trkpt lat="45.57471272530284" lon="10.443198861888478"><ele>199.0</ele><time>2026-03-28T17:01:17Z</time></trkpt><trkpt lat="45.574507020843406" lon="10.443029642893876"><ele>195.5</ele><time>2026-03-28T17:01:18Z</time></trkpt><trkpt lat="45.574302004232244" lon="10.442861381189243"><ele>192.0</ele><time>2026-03-28T17:01:19Z</time></trkpt><trkpt lat="45.57410053176369" lon="10.442696724919454"><ele>192.0</ele><time>2026-03-28T17:01:20Z</time></trkpt><trkpt lat="45.57390885308301" lon="10.442539921126928"><ele>192.0</ele><time>2026-03-28T17:01:21Z</time></trkpt><trkpt lat="45.573722940296165" lon="10.442389111696539"><ele>192.0</ele><time>2026-03-28T17:01:22Z</time></trkpt><trkpt lat="45.573544387345706" lon="10.442250133546127"><ele>192.0</ele><time>2026-03-28T17:01:23Z</time></trkpt><trkpt lat="45.57336698639676" lon="10.44212764333801"><ele>192.0</ele><time>2026-03-28T17:01:24Z</time></trkpt><trkpt lat="45.57319430509355" lon="10.442021510158911"><ele>192.0</ele><time>2026-03-28T17:01:25Z</time></trkpt><trkpt lat="45.57302601588484" lon="10.441931436976958"><ele>192.0</ele><time>2026-03-28T17:01:26Z</time></trkpt><trkpt lat="45.572862001189065" lon="10.441852295148744"><ele>192.0</ele><time>2026-03-28T17:01:27Z</time></trkpt><trkpt lat="45.572700676437464" lon="10.441782868826625"><ele>192.0</ele><time>2026-03-28T17:01:28Z</time></trkpt><trkpt lat="45.57254069837709" lon="10.441722370316958"><ele>192.0</ele><time>2026-03-28T17:01:29Z</time></trkpt><trkpt lat="45.572371665280016" lon="10.441665822785058"><ele>192.0</ele><time>2026-03-28T17:01:30Z</time></trkpt><trkpt lat="45.572199636107406" lon="10.441619408362644"><ele>192.0</ele><time>2026-03-28T17:01:31Z</time></trkpt><trkpt lat="45.57202573485127" lon="10.441584132934635"><ele>192.66666666666669</ele><time>2026-03-28T17:01:32Z</time></trkpt><trkpt lat="45.571850082538155" lon="10.441563506175921"><ele>193.33333333333334</ele><time>2026-03-28T17:01:33Z</time></trkpt><trkpt lat="45.57167719313624" lon="10.441549574978861"><ele>194.0</ele><time>2026-03-28T17:01:34Z</time></trkpt><trkpt lat="45.57150282412179" lon="10.441543589928532"><ele>194.0</ele><time>2026-03-28T17:01:35Z</time></trkpt><trkpt lat="45.57132564908874" lon="10.441548197193743"><ele>194.0</ele><time>2026-03-28T17:01:36Z</time></trkpt><trkpt lat="45.5711452808021" lon="10.441583856352175"><ele>194.0</ele><time>2026-03-28T17:01:37Z</time></trkpt><trkpt lat="45.57096235770459" lon="10.441606965326097"><ele>194.33333333333334</ele><time>2026-03-28T17:01:38Z</time></trkpt><trkpt lat="45.57077692562802" lon="10.441648576153309"><ele>194.66666666666669</ele><time>2026-03-28T17:01:39Z</time></trkpt><trkpt lat="45.57059738048522" lon="10.441692094147667"><ele>195.0</ele><time>2026-03-28T17:01:40Z</time></trkpt><trkpt lat="45.570416927140755" lon="10.441744417896809"><ele>194.66666666666669</ele><time>2026-03-28T17:01:41Z</time></trkpt><trkpt lat="45.570220399737984" lon="10.4417774567551"><ele>194.33333333333334</ele><time>2026-03-28T17:01:42Z</time></trkpt><trkpt lat="45.570015211073205" lon="10.441834184232487"><ele>194.0</ele><time>2026-03-28T17:01:43Z</time></trkpt><trkpt lat="45.56979993455761" lon="10.441893700590606"><ele>194.0</ele><time>2026-03-28T17:01:44Z</time></trkpt><trkpt lat="45.56957600225508" lon="10.441974824665277"><ele>194.0</ele><time>2026-03-28T17:01:45Z</time></trkpt><trkpt lat="45.569346720257386" lon="10.442023530798684"><ele>194.0</ele><time>2026-03-28T17:01:46Z</time></trkpt><trkpt lat="45.56911554815631" lon="10.442072869527916"><ele>194.0</ele><time>2026-03-28T17:01:47Z</time></trkpt><trkpt lat="45.5688810544009" lon="10.442120058345289"><ele>193.0</ele><time>2026-03-28T17:01:48Z</time></trkpt><trkpt lat="45.5686417006862" lon="10.442127907552432"><ele>192.0</ele><time>2026-03-28T17:01:49Z</time></trkpt><trkpt lat="45.568403528971324" lon="10.442145670677832"><ele>191.5</ele><time>2026-03-28T17:01:50Z</time></trkpt><trkpt lat="45.56816436566458" lon="10.442148598604657"><ele>191.0</ele><time>2026-03-28T17:01:51Z</time></trkpt><trkpt lat="45.56792104277128" lon="10.442142772077796"><ele>191.0</ele><time>2026-03-28T17:01:52Z</time></trkpt><trkpt lat="45.56768122965603" lon="10.442127777917225"><ele>191.0</ele><time>2026-03-28T17:01:53Z</time></trkpt><trkpt lat="45.56744405889914" lon="10.442109040311117"><ele>191.0</ele><time>2026-03-28T17:01:54Z</time></trkpt><trkpt lat="45.56721054151219" lon="10.442090100667123"><ele>191.0</ele><time>2026-03-28T17:01:55Z</time></trkpt><trkpt lat="45.56697364780905" lon="10.442070412358097"><ele>191.5</ele><time>2026-03-28T17:01:56Z</time></trkpt><trkpt lat="45.5667384512537" lon="10.442050865111721"><ele>192.0</ele><time>2026-03-28T17:01:57Z</time></trkpt><trkpt lat="45.56650882285495" lon="10.442032581475377"><ele>192.0</ele><time>2026-03-28T17:01:58Z</time></trkpt><trkpt lat="45.566284356225275" lon="10.442015087892273"><ele>192.0</ele><time>2026-03-28T17:01:59Z</time></trkpt><trkpt lat="45.56606562171377" lon="10.441998041041058"><ele>192.0</ele><time>2026-03-28T17:02:00Z</time></trkpt><trkpt lat="45.56584815390063" lon="10.44198033406269"><ele>192.0</ele><time>2026-03-28T17:02:01Z</time></trkpt><trkpt lat="45.56563690656295" lon="10.441960395173082"><ele>192.0</ele><time>2026-03-28T17:02:02Z</time></trkpt><trkpt lat="45.56543173398798" lon="10.441928373012548"><ele>192.0</ele><time>2026-03-28T17:02:03Z</time></trkpt><trkpt lat="45.56523030003264" lon="10.44188150829223"><ele>191.66666666666666</ele><time>2026-03-28T17:02:04Z</time></trkpt><trkpt lat="45.56503573580733" lon="10.441822153322743"><ele>191.33333333333331</ele><time>2026-03-28T17:02:05Z</time></trkpt><trkpt lat="45.5648409161862" lon="10.44175094833324"><ele>191.0</ele><time>2026-03-28T17:02:06Z</time></trkpt><trkpt lat="45.56464496094466" lon="10.441673504606497"><ele>191.0</ele><time>2026-03-28T17:02:07Z</time></trkpt><trkpt lat="45.56445389006632" lon="10.44157903755513"><ele>191.0</ele><time>2026-03-28T17:02:07.999Z</time></trkpt><trkpt lat="45.56426685708463" lon="10.441472644042022"><ele>191.0</ele><time>2026-03-28T17:02:08.999Z</time></trkpt><trkpt lat="45.56408469089902" lon="10.44135449334755"><ele>190.66666666666666</ele><time>2026-03-28T17:02:09.999Z</time></trkpt><trkpt lat="45.56390287617682" lon="10.441226004309538"><ele>190.33333333333334</ele><time>2026-03-28T17:02:10.999Z</time></trkpt><trkpt lat="45.56372742507509" lon="10.441083903127417"><ele>190.0</ele><time>2026-03-28T17:02:11.999Z</time></trkpt><trkpt lat="45.56356153182832" lon="10.440932137880289"><ele>190.0</ele><time>2026-03-28T17:02:12.999Z</time></trkpt><trkpt lat="45.5633994069009" lon="10.440773856956763"><ele>190.0</ele><time>2026-03-28T17:02:13.999Z</time></trkpt><trkpt lat="45.56324336239792" lon="10.44061046042981"><ele>190.0</ele><time>2026-03-28T17:02:14.999Z</time></trkpt><trkpt lat="45.56308807933962" lon="10.440444817242476"><ele>190.0</ele><time>2026-03-28T17:02:15.999Z</time></trkpt><trkpt lat="45.56293491393048" lon="10.440281432978724"><ele>190.0</ele><time>2026-03-28T17:02:16.999Z</time></trkpt><trkpt lat="45.56278556547931" lon="10.440122120355737"><ele>190.0</ele><time>2026-03-28T17:02:18Z</time></trkpt><trkpt lat="45.56263512370377" lon="10.439963409064523"><ele>190.0</ele><time>2026-03-28T17:02:19Z</time></trkpt><trkpt lat="45.562484757505295" lon="10.439804890169324"><ele>190.0</ele><time>2026-03-28T17:02:20Z</time></trkpt><trkpt lat="45.56233696051823" lon="10.439646802783855"><ele>190.0</ele><time>2026-03-28T17:02:21Z</time></trkpt><trkpt lat="45.56218823091539" lon="10.439487853095013"><ele>190.33333333333334</ele><time>2026-03-28T17:02:22Z</time></trkpt><trkpt lat="45.56203931271159" lon="10.439331270853337"><ele>190.66666666666666</ele><time>2026-03-28T17:02:23Z</time></trkpt><trkpt lat="45.56189213828751" lon="10.439175635796458"><ele>191.0</ele><time>2026-03-28T17:02:24Z</time></trkpt><trkpt lat="45.561743592419454" lon="10.439017491209558"><ele>191.0</ele><time>2026-03-28T17:02:25Z</time></trkpt><trkpt lat="45.5615914479837" lon="10.438855515559153"><ele>191.0</ele><time>2026-03-28T17:02:26Z</time></trkpt><trkpt lat="45.56144119636464" lon="10.4386966743471"><ele>191.0</ele><time>2026-03-28T17:02:27Z</time></trkpt><trkpt lat="45.5612916024758" lon="10.438539006558289"><ele>191.0</ele><time>2026-03-28T17:02:28Z</time></trkpt><trkpt lat="45.56114096398775" lon="10.43838023784748"><ele>191.0</ele><time>2026-03-28T17:02:29Z</time></trkpt><trkpt lat="45.56098456559422" lon="10.438215397865061"><ele>191.0</ele><time>2026-03-28T17:02:30Z</time></trkpt><trkpt lat="45.56082524702664" lon="10.438048443707533"><ele>190.66666666666666</ele><time>2026-03-28T17:02:31Z</time></trkpt><trkpt lat="45.56066511671526" lon="10.43788483443242"><ele>190.33333333333334</ele><time>2026-03-28T17:02:32Z</time></trkpt><trkpt lat="45.56050519944652" lon="10.437722554614206"><ele>190.0</ele><time>2026-03-28T17:02:33Z</time></trkpt><trkpt lat="45.56034435569285" lon="10.437566303036728"><ele>190.0</ele><time>2026-03-28T17:02:34Z</time></trkpt><trkpt lat="45.560183022092" lon="10.437412689339704"><ele>190.0</ele><time>2026-03-28T17:02:35Z</time></trkpt><trkpt lat="45.56002295375931" lon="10.437260279147607"><ele>190.0</ele><time>2026-03-28T17:02:36Z</time></trkpt><trkpt lat="45.55986203785558" lon="10.43710706193476"><ele>190.0</ele><time>2026-03-28T17:02:37Z</time></trkpt><trkpt lat="45.559698455486455" lon="10.43695656612561"><ele>190.0</ele><time>2026-03-28T17:02:38Z</time></trkpt><trkpt lat="45.559498177989724" lon="10.436884885007899"><ele>190.0</ele><time>2026-03-28T17:02:39Z</time></trkpt><trkpt lat="45.55932717712346" lon="10.436742889521241"><ele>190.0</ele><time>2026-03-28T17:02:40Z</time></trkpt><trkpt lat="45.55915373319169" lon="10.436604782776465"><ele>190.0</ele><time>2026-03-28T17:02:41Z</time></trkpt><trkpt lat="45.55898307866254" lon="10.436467818068845"><ele>190.0</ele><time>2026-03-28T17:02:42Z</time></trkpt><trkpt lat="45.558813149209925" lon="10.4363339050632"><ele>190.0</ele><time>2026-03-28T17:02:43Z</time></trkpt><trkpt lat="45.558641094791206" lon="10.436203442742842"><ele>190.0</ele><time>2026-03-28T17:02:44Z</time></trkpt><trkpt lat="45.558464907923565" lon="10.436075269319204"><ele>190.0</ele><time>2026-03-28T17:02:45Z</time></trkpt><trkpt lat="45.55828832118705" lon="10.43595162671644"><ele>190.0</ele><time>2026-03-28T17:02:46Z</time></trkpt><trkpt lat="45.55810816196381" lon="10.435831780334464"><ele>190.0</ele><time>2026-03-28T17:02:47Z</time></trkpt><trkpt lat="45.55792332024342" lon="10.435713042195793"><ele>190.0</ele><time>2026-03-28T17:02:48Z</time></trkpt><trkpt lat="45.55772941016487" lon="10.43559552825876"><ele>190.0</ele><time>2026-03-28T17:02:49Z</time></trkpt><trkpt lat="45.557528847194774" lon="10.435477094663009"><ele>190.0</ele><time>2026-03-28T17:02:50Z</time></trkpt><trkpt lat="45.5573177030538" lon="10.435341718383604"><ele>190.0</ele><time>2026-03-28T17:02:51Z</time></trkpt><trkpt lat="45.55710399693258" lon="10.435198465861042"><ele>189.0</ele><time>2026-03-28T17:02:52Z</time></trkpt><trkpt lat="45.55688653803944" lon="10.435053930919016"><ele>188.0</ele><time>2026-03-28T17:02:53Z</time></trkpt><trkpt lat="45.55666830959673" lon="10.4349071796432"><ele>188.0</ele><time>2026-03-28T17:02:54Z</time></trkpt><trkpt lat="45.55645099712084" lon="10.434763550915246"><ele>188.0</ele><time>2026-03-28T17:02:55Z</time></trkpt><trkpt lat="45.55623897922675" lon="10.43462448455053"><ele>190.5</ele><time>2026-03-28T17:02:56Z</time></trkpt><trkpt lat="45.556029195322566" lon="10.434491193223613"><ele>193.0</ele><time>2026-03-28T17:02:57Z</time></trkpt><trkpt lat="45.55582015430774" lon="10.4343570365803"><ele>193.0</ele><time>2026-03-28T17:02:58Z</time></trkpt><trkpt lat="45.55561653948033" lon="10.434224687883331"><ele>193.0</ele><time>2026-03-28T17:02:59Z</time></trkpt><trkpt lat="45.55542171493142" lon="10.434099901632779"><ele>193.0</ele><time>2026-03-28T17:03:00Z</time></trkpt><trkpt lat="45.55522747766621" lon="10.43397630394313"><ele>191.33333333333331</ele><time>2026-03-28T17:03:01Z</time></trkpt><trkpt lat="45.55503917902746" lon="10.433858100035925"><ele>189.66666666666666</ele><time>2026-03-28T17:03:02Z</time></trkpt><trkpt lat="45.55485909475767" lon="10.43374430335948"><ele>188.0</ele><time>2026-03-28T17:03:03Z</time></trkpt><trkpt lat="45.55468023338897" lon="10.433630973479092"><ele>188.33333333333331</ele><time>2026-03-28T17:03:04Z</time></trkpt><trkpt lat="45.5544973160087" lon="10.433515029384003"><ele>188.66666666666666</ele><time>2026-03-28T17:03:05Z</time></trkpt><trkpt lat="45.55431349111136" lon="10.433395590772948"><ele>189.0</ele><time>2026-03-28T17:03:06Z</time></trkpt><trkpt lat="45.554130068445964" lon="10.433279085913082"><ele>189.0</ele><time>2026-03-28T17:03:07Z</time></trkpt><trkpt lat="45.553945134267536" lon="10.433169048404341"><ele>189.0</ele><time>2026-03-28T17:03:08Z</time></trkpt><trkpt lat="45.553761323642846" lon="10.433068805549825"><ele>189.0</ele><time>2026-03-28T17:03:09Z</time></trkpt><trkpt lat="45.553574456624894" lon="10.43298213335366"><ele>189.33333333333334</ele><time>2026-03-28T17:03:10Z</time></trkpt><trkpt lat="45.55338614579483" lon="10.432903814522138"><ele>189.66666666666669</ele><time>2026-03-28T17:03:11Z</time></trkpt><trkpt lat="45.55319711803718" lon="10.432829600909901"><ele>190.0</ele><time>2026-03-28T17:03:12Z</time></trkpt><trkpt lat="45.55300848746091" lon="10.432750178164705"><ele>190.0</ele><time>2026-03-28T17:03:13Z</time></trkpt><trkpt lat="45.552820370788254" lon="10.432663788629604"><ele>190.0</ele><time>2026-03-28T17:03:14Z</time></trkpt><trkpt lat="45.5526332327546" lon="10.432575462284328"><ele>190.0</ele><time>2026-03-28T17:03:15Z</time></trkpt><trkpt lat="45.55245559908586" lon="10.432490444194993"><ele>190.0</ele><time>2026-03-28T17:03:16Z</time></trkpt><trkpt lat="45.5522857246028" lon="10.432401246218657"><ele>190.0</ele><time>2026-03-28T17:03:17Z</time></trkpt><trkpt lat="45.55211638116243" lon="10.432308138997923"><ele>190.0</ele><time>2026-03-28T17:03:18Z</time></trkpt><trkpt lat="45.55194278239888" lon="10.432218624660395"><ele>191.0</ele><time>2026-03-28T17:03:19Z</time></trkpt><trkpt lat="45.5517681472799" lon="10.432127106696772"><ele>192.0</ele><time>2026-03-28T17:03:20Z</time></trkpt><trkpt lat="45.55159239744291" lon="10.432029246177263"><ele>193.0</ele><time>2026-03-28T17:03:21Z</time></trkpt><trkpt lat="45.551415288340706" lon="10.431924768188592"><ele>193.0</ele><time>2026-03-28T17:03:22Z</time></trkpt><trkpt lat="45.55123680583938" lon="10.431814778729699"><ele>193.0</ele><time>2026-03-28T17:03:23Z</time></trkpt><trkpt lat="45.55106564138257" lon="10.431699779950648"><ele>193.0</ele><time>2026-03-28T17:03:24Z</time></trkpt><trkpt lat="45.55089631573988" lon="10.431584858196963"><ele>192.66666666666666</ele><time>2026-03-28T17:03:25Z</time></trkpt><trkpt lat="45.55072516188689" lon="10.431471092194892"><ele>192.33333333333331</ele><time>2026-03-28T17:03:26Z</time></trkpt><trkpt lat="45.55055343041254" lon="10.431354063033016"><ele>192.0</ele><time>2026-03-28T17:03:27Z</time></trkpt><trkpt lat="45.550383127183196" lon="10.43122943054109"><ele>191.0</ele><time>2026-03-28T17:03:28Z</time></trkpt><trkpt lat="45.550209915078426" lon="10.431103114739468"><ele>190.0</ele><time>2026-03-28T17:03:29Z</time></trkpt><trkpt lat="45.55003977159551" lon="10.43097260955688"><ele>189.0</ele><time>2026-03-28T17:03:30Z</time></trkpt><trkpt lat="45.54988506301153" lon="10.430806219212085"><ele>189.0</ele><time>2026-03-28T17:03:31Z</time></trkpt><trkpt lat="45.54972036944543" lon="10.430679938607222"><ele>189.0</ele><time>2026-03-28T17:03:32Z</time></trkpt><trkpt lat="45.54955847200766" lon="10.430554278537612"><ele>189.0</ele><time>2026-03-28T17:03:33Z</time></trkpt><trkpt lat="45.549394494195866" lon="10.430428713206174"><ele>188.66666666666666</ele><time>2026-03-28T17:03:34Z</time></trkpt><trkpt lat="45.54923162907637" lon="10.430304327078703"><ele>188.33333333333331</ele><time>2026-03-28T17:03:35Z</time></trkpt><trkpt lat="45.54906615260754" lon="10.430177860229291"><ele>188.0</ele><time>2026-03-28T17:03:36Z</time></trkpt><trkpt lat="45.54889454703167" lon="10.430048841050574"><ele>188.0</ele><time>2026-03-28T17:03:37Z</time></trkpt><trkpt lat="45.54872265349452" lon="10.429919547048598"><ele>188.0</ele><time>2026-03-28T17:03:38Z</time></trkpt><trkpt lat="45.548560770975065" lon="10.429795204719133"><ele>188.0</ele><time>2026-03-28T17:03:39Z</time></trkpt><trkpt lat="45.548403335870006" lon="10.429673927513571"><ele>187.66666666666666</ele><time>2026-03-28T17:03:40Z</time></trkpt><trkpt lat="45.54825099677302" lon="10.429556721920989"><ele>187.33333333333334</ele><time>2026-03-28T17:03:41Z</time></trkpt><trkpt lat="45.54810086366983" lon="10.42944231352644"><ele>187.0</ele><time>2026-03-28T17:03:42Z</time></trkpt><trkpt lat="45.54794132405245" lon="10.429320882611353"><ele>187.33333333333334</ele><time>2026-03-28T17:03:43Z</time></trkpt><trkpt lat="45.54778047123521" lon="10.429201765911278"><ele>187.66666666666666</ele><time>2026-03-28T17:03:44Z</time></trkpt><trkpt lat="45.5476214267183" lon="10.42907755193233"><ele>188.0</ele><time>2026-03-28T17:03:45Z</time></trkpt><trkpt lat="45.54746394072217" lon="10.428949173794319"><ele>188.0</ele><time>2026-03-28T17:03:46Z</time></trkpt><trkpt lat="45.54730599033027" lon="10.428813141995999"><ele>188.0</ele><time>2026-03-28T17:03:47Z</time></trkpt><trkpt lat="45.547147260828574" lon="10.428668932866028"><ele>188.0</ele><time>2026-03-28T17:03:48.026Z</time></trkpt><trkpt lat="45.54699178706766" lon="10.428521099408451"><ele>188.33333333333331</ele><time>2026-03-28T17:03:49.022Z</time></trkpt><trkpt lat="45.546834665098245" lon="10.42836862375937"><ele>188.66666666666666</ele><time>2026-03-28T17:03:50.025Z</time></trkpt><trkpt lat="45.54668102929918" lon="10.42821837542958"><ele>189.0</ele><time>2026-03-28T17:03:51.025Z</time></trkpt><trkpt lat="45.545095639575415" lon="10.426446351190902"><ele>185.0</ele><time>2026-03-28T17:03:54.082Z</time></trkpt><trkpt lat="45.544591024560425" lon="10.425867140302831"><ele>185.0</ele><time>2026-03-28T17:04:05Z</time></trkpt><trkpt lat="45.54443683450541" lon="10.425687055457393"><ele>185.0</ele><time>2026-03-28T17:04:06Z</time></trkpt><trkpt lat="45.544256219795884" lon="10.425508374282057"><ele>185.0</ele><time>2026-03-28T17:04:07Z</time></trkpt><trkpt lat="45.544086918427574" lon="10.4253197772608"><ele>185.0</ele><time>2026-03-28T17:04:08Z</time></trkpt><trkpt lat="45.543937355602765" lon="10.425138680058446"><ele>185.0</ele><time>2026-03-28T17:04:09Z</time></trkpt><trkpt lat="45.54378726472224" lon="10.424968961344566"><ele>185.0</ele><time>2026-03-28T17:04:10Z</time></trkpt><trkpt lat="45.54364855594162" lon="10.4248004217464"><ele>184.0</ele><time>2026-03-28T17:04:11Z</time></trkpt><trkpt lat="45.543515228066575" lon="10.42463931232756"><ele>183.0</ele><time>2026-03-28T17:04:11.999Z</time></trkpt><trkpt lat="45.54338371385971" lon="10.424480560038957"><ele>182.0</ele><time>2026-03-28T17:04:12.999Z</time></trkpt><trkpt lat="45.54325315609546" lon="10.424328181542753"><ele>182.0</ele><time>2026-03-28T17:04:13.999Z</time></trkpt><trkpt lat="45.54312089091373" lon="10.424182631419646"><ele>182.0</ele><time>2026-03-28T17:04:14.999Z</time></trkpt><trkpt lat="45.54299628239801" lon="10.424020707678954"><ele>182.0</ele><time>2026-03-28T17:04:15.999Z</time></trkpt><trkpt lat="45.54285872317483" lon="10.423862932101581"><ele>182.66666666666666</ele><time>2026-03-28T17:04:16.999Z</time></trkpt><trkpt lat="45.542717926405146" lon="10.423699190478969"><ele>183.33333333333334</ele><time>2026-03-28T17:04:17.999Z</time></trkpt><trkpt lat="45.54256958221158" lon="10.423529125530157"><ele>184.0</ele><time>2026-03-28T17:04:18.999Z</time></trkpt><trkpt lat="45.542418870976334" lon="10.423349020986915"><ele>184.0</ele><time>2026-03-28T17:04:19.999Z</time></trkpt><trkpt lat="45.54226709891103" lon="10.423169573535931"><ele>184.0</ele><time>2026-03-28T17:04:20.999Z</time></trkpt><trkpt lat="45.54211450441073" lon="10.42299466691702"><ele>184.0</ele><time>2026-03-28T17:04:21.999Z</time></trkpt><trkpt lat="45.5419521752755" lon="10.422811889764903"><ele>183.66666666666669</ele><time>2026-03-28T17:04:22.999Z</time></trkpt><trkpt lat="45.541784403592274" lon="10.42261047678811"><ele>183.33333333333334</ele><time>2026-03-28T17:04:24Z</time></trkpt><trkpt lat="45.54161431636458" lon="10.422390467725835"><ele>183.0</ele><time>2026-03-28T17:04:25Z</time></trkpt><trkpt lat="45.541453231527115" lon="10.42217638185265"><ele>183.0</ele><time>2026-03-28T17:04:26Z</time></trkpt><trkpt lat="45.54130194889845" lon="10.421974095330153"><ele>183.0</ele><time>2026-03-28T17:04:27Z</time></trkpt><trkpt lat="45.54115357131108" lon="10.421790020577188"><ele>183.0</ele><time>2026-03-28T17:04:28Z</time></trkpt><trkpt lat="45.54101058056677" lon="10.421618378789862"><ele>183.33333333333334</ele><time>2026-03-28T17:04:29Z</time></trkpt><trkpt lat="45.54087015322423" lon="10.421455149794607"><ele>183.66666666666669</ele><time>2026-03-28T17:04:30Z</time></trkpt><trkpt lat="45.54073012134976" lon="10.421285079607658"><ele>184.0</ele><time>2026-03-28T17:04:31Z</time></trkpt><trkpt lat="45.54059117740269" lon="10.421112211021212"><ele>184.0</ele><time>2026-03-28T17:04:32Z</time></trkpt><trkpt lat="45.540458192503934" lon="10.42095119785396"><ele>184.0</ele><time>2026-03-28T17:04:33Z</time></trkpt><trkpt lat="45.54032542392636" lon="10.420791274766358"><ele>184.0</ele><time>2026-03-28T17:04:34Z</time></trkpt><trkpt lat="45.5401914593185" lon="10.420629033999456"><ele>183.33333333333334</ele><time>2026-03-28T17:04:35Z</time></trkpt><trkpt lat="45.54005825851789" lon="10.42046098531096"><ele>182.66666666666666</ele><time>2026-03-28T17:04:36Z</time></trkpt><trkpt lat="45.539922074026336" lon="10.420289206484041"><ele>182.0</ele><time>2026-03-28T17:04:37Z</time></trkpt><trkpt lat="45.539782306942584" lon="10.420116208972885"><ele>182.0</ele><time>2026-03-28T17:04:38Z</time></trkpt><trkpt lat="45.539632527682244" lon="10.419933339806999"><ele>182.0</ele><time>2026-03-28T17:04:39Z</time></trkpt><trkpt lat="45.53947130288801" lon="10.419736810703695"><ele>182.0</ele><time>2026-03-28T17:04:40Z</time></trkpt><trkpt lat="45.539308711822535" lon="10.419525087599421"><ele>183.0</ele><time>2026-03-28T17:04:41Z</time></trkpt><trkpt lat="45.53914450597984" lon="10.419280123779341"><ele>184.0</ele><time>2026-03-28T17:04:42Z</time></trkpt><trkpt lat="45.53898390205845" lon="10.419001528380754"><ele>183.0</ele><time>2026-03-28T17:04:43Z</time></trkpt><trkpt lat="45.538819371914116" lon="10.41874095035577"><ele>182.0</ele><time>2026-03-28T17:04:44Z</time></trkpt><trkpt lat="45.53865083191153" lon="10.418479862955868"><ele>181.5</ele><time>2026-03-28T17:04:45Z</time></trkpt><trkpt lat="45.53848365673848" lon="10.41821879198106"><ele>181.0</ele><time>2026-03-28T17:04:46Z</time></trkpt><trkpt lat="45.53831258356699" lon="10.41795769614921"><ele>181.0</ele><time>2026-03-28T17:04:47Z</time></trkpt><trkpt lat="45.53814020202479" lon="10.417692787704228"><ele>181.0</ele><time>2026-03-28T17:04:48Z</time></trkpt><trkpt lat="45.53796654799895" lon="10.417427527468195"><ele>181.5</ele><time>2026-03-28T17:04:49Z</time></trkpt><trkpt lat="45.53779975823479" lon="10.41717095096934"><ele>182.0</ele><time>2026-03-28T17:04:50Z</time></trkpt><trkpt lat="45.5376441000342" lon="10.416923287018118"><ele>182.0</ele><time>2026-03-28T17:04:51Z</time></trkpt><trkpt lat="45.53750617502531" lon="10.416675100327547"><ele>182.0</ele><time>2026-03-28T17:04:52Z</time></trkpt><trkpt lat="45.53737803032834" lon="10.416425052204955"><ele>182.0</ele><time>2026-03-28T17:04:53Z</time></trkpt><trkpt lat="45.537270622436694" lon="10.416176330502216"><ele>182.0</ele><time>2026-03-28T17:04:54Z</time></trkpt><trkpt lat="45.5371810281956" lon="10.415916737916609"><ele>182.0</ele><time>2026-03-28T17:04:55Z</time></trkpt><trkpt lat="45.53710107968202" lon="10.415646569474236"><ele>182.0</ele><time>2026-03-28T17:04:56Z</time></trkpt><trkpt lat="45.53703633511561" lon="10.415371175430902"><ele>181.66666666666666</ele><time>2026-03-28T17:04:57Z</time></trkpt><trkpt lat="45.536991479369576" lon="10.415086743880483"><ele>181.33333333333334</ele><time>2026-03-28T17:04:58Z</time></trkpt><trkpt lat="45.53695549465054" lon="10.41479336522703"><ele>181.0</ele><time>2026-03-28T17:04:59Z</time></trkpt><trkpt lat="45.53692972034338" lon="10.414484670408985"><ele>181.0</ele><time>2026-03-28T17:05:00Z</time></trkpt><trkpt lat="45.536900200994054" lon="10.414165255457178"><ele>181.0</ele><time>2026-03-28T17:05:01Z</time></trkpt><trkpt lat="45.53686845832165" lon="10.413835221218896"><ele>181.0</ele><time>2026-03-28T17:05:02Z</time></trkpt><trkpt lat="45.53683140868194" lon="10.413486933155662"><ele>181.0</ele><time>2026-03-28T17:05:03Z</time></trkpt><trkpt lat="45.53679390107849" lon="10.413142038502436"><ele>180.5</ele><time>2026-03-28T17:05:04Z</time></trkpt><trkpt lat="45.536756543236066" lon="10.412809831893751"><ele>180.0</ele><time>2026-03-28T17:05:05Z</time></trkpt><trkpt lat="45.536715467386514" lon="10.412488295846725"><ele>180.0</ele><time>2026-03-28T17:05:06Z</time></trkpt><trkpt lat="45.53666957050455" lon="10.412182178640936"><ele>180.0</ele><time>2026-03-28T17:05:07Z</time></trkpt><trkpt lat="45.53661650711412" lon="10.411884368801122"><ele>180.0</ele><time>2026-03-28T17:05:08Z</time></trkpt><trkpt lat="45.53655239839729" lon="10.411588371461205"><ele>179.0</ele><time>2026-03-28T17:05:09Z</time></trkpt><trkpt lat="45.536476809244334" lon="10.411290461815618"><ele>178.0</ele><time>2026-03-28T17:05:10Z</time></trkpt><trkpt lat="45.53638843123415" lon="10.410989169782003"><ele>178.0</ele><time>2026-03-28T17:05:11Z</time></trkpt><trkpt lat="45.536289910145946" lon="10.41068358856849"><ele>178.0</ele><time>2026-03-28T17:05:12Z</time></trkpt><trkpt lat="45.536180276585455" lon="10.410376577615073"><ele>179.5</ele><time>2026-03-28T17:05:13Z</time></trkpt><trkpt lat="45.53605533823626" lon="10.41006396416493"><ele>181.0</ele><time>2026-03-28T17:05:14Z</time></trkpt><trkpt lat="45.53592616855076" lon="10.40975349336532"><ele>179.5</ele><time>2026-03-28T17:05:15Z</time></trkpt><trkpt lat="45.53579363581904" lon="10.409455732308155"><ele>178.0</ele><time>2026-03-28T17:05:16Z</time></trkpt><trkpt lat="45.535660969152865" lon="10.409159243323133"><ele>178.0</ele><time>2026-03-28T17:05:17Z</time></trkpt><trkpt lat="45.53552632676713" lon="10.408858486494658"><ele>178.0</ele><time>2026-03-28T17:05:18Z</time></trkpt><trkpt lat="45.53539111263306" lon="10.408558030253984"><ele>177.5</ele><time>2026-03-28T17:05:19Z</time></trkpt><trkpt lat="45.53525880026975" lon="10.408259209695572"><ele>177.0</ele><time>2026-03-28T17:05:20Z</time></trkpt><trkpt lat="45.53512743854107" lon="10.407960895744312"><ele>177.0</ele><time>2026-03-28T17:05:21Z</time></trkpt><trkpt lat="45.534996528295636" lon="10.407662594718897"><ele>177.0</ele><time>2026-03-28T17:05:22Z</time></trkpt><trkpt lat="45.53486902378249" lon="10.40736242377785"><ele>177.0</ele><time>2026-03-28T17:05:23Z</time></trkpt><trkpt lat="45.53474744275442" lon="10.407066423608631"><ele>177.0</ele><time>2026-03-28T17:05:24Z</time></trkpt><trkpt lat="45.534637029125975" lon="10.406778949021904"><ele>177.0</ele><time>2026-03-28T17:05:25Z</time></trkpt><trkpt lat="45.53453291957047" lon="10.406501096506346"><ele>177.0</ele><time>2026-03-28T17:05:26Z</time></trkpt><trkpt lat="45.534430878021254" lon="10.40623151700545"><ele>177.0</ele><time>2026-03-28T17:05:27Z</time></trkpt><trkpt lat="45.534331659126124" lon="10.405969094949121"><ele>176.66666666666666</ele><time>2026-03-28T17:05:28Z</time></trkpt><trkpt lat="45.534232397828596" lon="10.405703921851318"><ele>176.33333333333331</ele><time>2026-03-28T17:05:29Z</time></trkpt><trkpt lat="45.534132244609644" lon="10.405434203645704"><ele>176.0</ele><time>2026-03-28T17:05:30Z</time></trkpt><trkpt lat="45.53403323245684" lon="10.405170286769712"><ele>176.0</ele><time>2026-03-28T17:05:31Z</time></trkpt><trkpt lat="45.533935626751905" lon="10.40491806618305"><ele>176.0</ele><time>2026-03-28T17:05:32Z</time></trkpt><trkpt lat="45.53384382384603" lon="10.404675263215498"><ele>176.0</ele><time>2026-03-28T17:05:33Z</time></trkpt><trkpt lat="45.53375350551938" lon="10.404431325042399"><ele>175.66666666666666</ele><time>2026-03-28T17:05:34Z</time></trkpt><trkpt lat="45.53366430537942" lon="10.404189709792972"><ele>175.33333333333334</ele><time>2026-03-28T17:05:35Z</time></trkpt><trkpt lat="45.53357557361397" lon="10.403948737121345"><ele>175.0</ele><time>2026-03-28T17:05:36Z</time></trkpt><trkpt lat="45.53348937556527" lon="10.403710355240106"><ele>175.0</ele><time>2026-03-28T17:05:37Z</time></trkpt><trkpt lat="45.53340289752341" lon="10.403473437378256"><ele>175.0</ele><time>2026-03-28T17:05:38Z</time></trkpt><trkpt lat="45.53331590664262" lon="10.403237560055903"><ele>175.0</ele><time>2026-03-28T17:05:39Z</time></trkpt><trkpt lat="45.53322830244745" lon="10.403007573463407"><ele>174.66666666666669</ele><time>2026-03-28T17:05:40Z</time></trkpt><trkpt lat="45.53314190454729" lon="10.40277817173868"><ele>174.33333333333334</ele><time>2026-03-28T17:05:41Z</time></trkpt><trkpt lat="45.53305861350788" lon="10.40254880811153"><ele>174.0</ele><time>2026-03-28T17:05:42Z</time></trkpt><trkpt lat="45.53297240350275" lon="10.402313202320922"><ele>174.33333333333334</ele><time>2026-03-28T17:05:43Z</time></trkpt><trkpt lat="45.53288517217701" lon="10.402078170750594"><ele>174.66666666666669</ele><time>2026-03-28T17:05:44Z</time></trkpt><trkpt lat="45.532799147249825" lon="10.401843193222271"><ele>175.0</ele><time>2026-03-28T17:05:45Z</time></trkpt><trkpt lat="45.53271306234256" lon="10.401608660046822"><ele>175.0</ele><time>2026-03-28T17:05:46Z</time></trkpt><trkpt lat="45.532624880449575" lon="10.40137549574094"><ele>175.0</ele><time>2026-03-28T17:05:47Z</time></trkpt><trkpt lat="45.53254178298185" lon="10.401142839508553"><ele>175.0</ele><time>2026-03-28T17:05:48Z</time></trkpt><trkpt lat="45.532460626518265" lon="10.400922795502849"><ele>174.0</ele><time>2026-03-28T17:05:49Z</time></trkpt><trkpt lat="45.532383015806936" lon="10.400705868325208"><ele>173.0</ele><time>2026-03-28T17:05:50Z</time></trkpt><trkpt lat="45.532305044497555" lon="10.400488544825452"><ele>172.0</ele><time>2026-03-28T17:05:51Z</time></trkpt><trkpt lat="45.53222490241323" lon="10.400269888841342"><ele>172.33333333333334</ele><time>2026-03-28T17:05:52Z</time></trkpt><trkpt lat="45.53214520652289" lon="10.400051186079596"><ele>172.66666666666666</ele><time>2026-03-28T17:05:53Z</time></trkpt><trkpt lat="45.53206771012124" lon="10.39983101053113"><ele>173.0</ele><time>2026-03-28T17:05:54Z</time></trkpt><trkpt lat="45.53199062164721" lon="10.399615088869137"><ele>173.0</ele><time>2026-03-28T17:05:55Z</time></trkpt><trkpt lat="45.53191151789017" lon="10.399400784382397"><ele>173.0</ele><time>2026-03-28T17:05:56Z</time></trkpt><trkpt lat="45.53183194166195" lon="10.39918458765483"><ele>173.0</ele><time>2026-03-28T17:05:57Z</time></trkpt><trkpt lat="45.53175292188078" lon="10.398960954165977"><ele>173.33333333333331</ele><time>2026-03-28T17:05:58Z</time></trkpt><trkpt lat="45.53167392674925" lon="10.398730937454678"><ele>173.66666666666666</ele><time>2026-03-28T17:05:59Z</time></trkpt><trkpt lat="45.53158798526029" lon="10.398497852816261"><ele>174.0</ele><time>2026-03-28T17:06:00Z</time></trkpt><trkpt lat="45.531489097945496" lon="10.39824832635394"><ele>174.0</ele><time>2026-03-28T17:06:01Z</time></trkpt><trkpt lat="45.53138370404251" lon="10.397978784476338"><ele>174.0</ele><time>2026-03-28T17:06:02Z</time></trkpt><trkpt lat="45.53128497053515" lon="10.39768466310601"><ele>174.0</ele><time>2026-03-28T17:06:03Z</time></trkpt><trkpt lat="45.53117611286047" lon="10.397384457890528"><ele>173.5</ele><time>2026-03-28T17:06:04Z</time></trkpt><trkpt lat="45.53105946851629" lon="10.397059847650691"><ele>173.0</ele><time>2026-03-28T17:06:05Z</time></trkpt><trkpt lat="45.53094361566823" lon="10.396732779950478"><ele>173.0</ele><time>2026-03-28T17:06:06Z</time></trkpt><trkpt lat="45.53083192493154" lon="10.396412076814114"><ele>173.0</ele><time>2026-03-28T17:06:07Z</time></trkpt><trkpt lat="45.530725112954634" lon="10.396093162200904"><ele>173.0</ele><time>2026-03-28T17:06:08Z</time></trkpt><trkpt lat="45.53061850762352" lon="10.395775798718443"><ele>173.0</ele><time>2026-03-28T17:06:09Z</time></trkpt><trkpt lat="45.53051246514114" lon="10.395468276882392"><ele>173.0</ele><time>2026-03-28T17:06:10Z</time></trkpt><trkpt lat="45.530405662765965" lon="10.395165321771"><ele>173.0</ele><time>2026-03-28T17:06:11Z</time></trkpt><trkpt lat="45.53029719503462" lon="10.39486906334452"><ele>171.0</ele><time>2026-03-28T17:06:12Z</time></trkpt><trkpt lat="45.53019380137399" lon="10.3945712424942"><ele>169.0</ele><time>2026-03-28T17:06:13Z</time></trkpt><trkpt lat="45.53009044153405" lon="10.394272933231761"><ele>169.0</ele><time>2026-03-28T17:06:14Z</time></trkpt><trkpt lat="45.52998742484239" lon="10.393976211458716"><ele>169.0</ele><time>2026-03-28T17:06:15Z</time></trkpt><trkpt lat="45.52988634928225" lon="10.393686631461549"><ele>169.33333333333334</ele><time>2026-03-28T17:06:15.999Z</time></trkpt><trkpt lat="45.529786225409076" lon="10.393406543855756"><ele>169.66666666666666</ele><time>2026-03-28T17:06:16.999Z</time></trkpt><trkpt lat="45.52968744814466" lon="10.393132347184697"><ele>170.0</ele><time>2026-03-28T17:06:17.999Z</time></trkpt><trkpt lat="45.52959417024549" lon="10.39286838539664"><ele>170.0</ele><time>2026-03-28T17:06:18.999Z</time></trkpt><trkpt lat="45.5295056083527" lon="10.392614766105586"><ele>170.0</ele><time>2026-03-28T17:06:19.999Z</time></trkpt><trkpt lat="45.52942067229305" lon="10.392369241053485"><ele>170.0</ele><time>2026-03-28T17:06:20.999Z</time></trkpt><trkpt lat="45.52934024324538" lon="10.392133296543891"><ele>170.0</ele><time>2026-03-28T17:06:21.999Z</time></trkpt><trkpt lat="45.52926192308473" lon="10.391902612366152"><ele>170.0</ele><time>2026-03-28T17:06:22.999Z</time></trkpt><trkpt lat="45.52918001922893" lon="10.391670028549868"><ele>170.0</ele><time>2026-03-28T17:06:23.999Z</time></trkpt><trkpt lat="45.52909971956863" lon="10.391436710183195"><ele>169.0</ele><time>2026-03-28T17:06:24.999Z</time></trkpt><trkpt lat="45.529022291685905" lon="10.391205379644754"><ele>168.0</ele><time>2026-03-28T17:06:25.999Z</time></trkpt><trkpt lat="45.52894643433597" lon="10.39098334558612"><ele>167.0</ele><time>2026-03-28T17:06:26.999Z</time></trkpt><trkpt lat="45.52887181029731" lon="10.390769186533673"><ele>167.0</ele><time>2026-03-28T17:06:27.999Z</time></trkpt><trkpt lat="45.52880187357941" lon="10.3905613917199"><ele>167.0</ele><time>2026-03-28T17:06:28.999Z</time></trkpt><trkpt lat="45.528733806474044" lon="10.390360319545266"><ele>167.0</ele><time>2026-03-28T17:06:30Z</time></trkpt><trkpt lat="45.528666817806524" lon="10.390163204505564"><ele>167.33333333333331</ele><time>2026-03-28T17:06:31Z</time></trkpt><trkpt lat="45.528601568786726" lon="10.389972104525215"><ele>167.66666666666666</ele><time>2026-03-28T17:06:32Z</time></trkpt><trkpt lat="45.52853632838138" lon="10.38977883471157"><ele>168.0</ele><time>2026-03-28T17:06:33Z</time></trkpt><trkpt lat="45.5284666356688" lon="10.38957093124816"><ele>168.0</ele><time>2026-03-28T17:06:34Z</time></trkpt><trkpt lat="45.528391679830314" lon="10.389346427080575"><ele>168.0</ele><time>2026-03-28T17:06:35Z</time></trkpt><trkpt lat="45.52831232608396" lon="10.389109589314252"><ele>168.0</ele><time>2026-03-28T17:06:36Z</time></trkpt><trkpt lat="45.52823399632237" lon="10.388878219873899"><ele>167.66666666666666</ele><time>2026-03-28T17:06:37Z</time></trkpt><trkpt lat="45.52815902034464" lon="10.388645817666818"><ele>167.33333333333331</ele><time>2026-03-28T17:06:38Z</time></trkpt><trkpt lat="45.5280824887606" lon="10.388399771704051"><ele>167.0</ele><time>2026-03-28T17:06:39Z</time></trkpt><trkpt lat="45.528002262645266" lon="10.38814317541563"><ele>166.66666666666666</ele><time>2026-03-28T17:06:40Z</time></trkpt><trkpt lat="45.5279236597871" lon="10.38788550372623"><ele>166.33333333333334</ele><time>2026-03-28T17:06:41Z</time></trkpt><trkpt lat="45.527846761531585" lon="10.38763012892688"><ele>166.0</ele><time>2026-03-28T17:06:42Z</time></trkpt><trkpt lat="45.52776466519225" lon="10.387365619622676"><ele>165.66666666666669</ele><time>2026-03-28T17:06:43Z</time></trkpt><trkpt lat="45.52767283669891" lon="10.38708930942112"><ele>165.33333333333334</ele><time>2026-03-28T17:06:44Z</time></trkpt><trkpt lat="45.52761942517788" lon="10.386772366730959"><ele>165.0</ele><time>2026-03-28T17:06:45Z</time></trkpt><trkpt lat="45.52752700912724" lon="10.386472582617541"><ele>165.0</ele><time>2026-03-28T17:06:46Z</time></trkpt><trkpt lat="45.52743895003596" lon="10.3861875664506"><ele>165.0</ele><time>2026-03-28T17:06:47Z</time></trkpt><trkpt lat="45.52735523344053" lon="10.385917327387086"><ele>165.0</ele><time>2026-03-28T17:06:48Z</time></trkpt><trkpt lat="45.52727365173569" lon="10.385653979800297"><ele>165.0</ele><time>2026-03-28T17:06:49Z</time></trkpt><trkpt lat="45.52719311118818" lon="10.385393993089764"><ele>165.0</ele><time>2026-03-28T17:06:50Z</time></trkpt><trkpt lat="45.52711118578943" lon="10.385129536049703"><ele>165.0</ele><time>2026-03-28T17:06:51Z</time></trkpt><trkpt lat="45.527028927317545" lon="10.384863984628327"><ele>166.0</ele><time>2026-03-28T17:06:52Z</time></trkpt><trkpt lat="45.526947766999754" lon="10.384601792228338"><ele>167.0</ele><time>2026-03-28T17:06:53Z</time></trkpt><trkpt lat="45.52686952719216" lon="10.384349034678188"><ele>168.0</ele><time>2026-03-28T17:06:54Z</time></trkpt><trkpt lat="45.52679384636073" lon="10.384104544027533"><ele>168.0</ele><time>2026-03-28T17:06:55Z</time></trkpt><trkpt lat="45.52671829888286" lon="10.383860484182758"><ele>168.0</ele><time>2026-03-28T17:06:56Z</time></trkpt><trkpt lat="45.52664309834556" lon="10.38361539270996"><ele>168.0</ele><time>2026-03-28T17:06:57Z</time></trkpt><trkpt lat="45.52656867204308" lon="10.383371301844917"><ele>167.33333333333334</ele><time>2026-03-28T17:06:58Z</time></trkpt><trkpt lat="45.526492849482466" lon="10.383126580179697"><ele>166.66666666666669</ele><time>2026-03-28T17:06:59Z</time></trkpt><trkpt lat="45.52641405957909" lon="10.382889016995122"><ele>166.0</ele><time>2026-03-28T17:07:00Z</time></trkpt><trkpt lat="45.52633040973409" lon="10.382655142424541"><ele>166.0</ele><time>2026-03-28T17:07:01Z</time></trkpt><trkpt lat="45.526246780620404" lon="10.38243617986174"><ele>166.0</ele><time>2026-03-28T17:07:02Z</time></trkpt><trkpt lat="45.526156601330406" lon="10.382210453573505"><ele>166.0</ele><time>2026-03-28T17:07:03Z</time></trkpt><trkpt lat="45.52606212326871" lon="10.38198349483202"><ele>165.66666666666669</ele><time>2026-03-28T17:07:04Z</time></trkpt><trkpt lat="45.5259625532328" lon="10.381755871885613"><ele>165.33333333333334</ele><time>2026-03-28T17:07:05Z</time></trkpt><trkpt lat="45.52585339690834" lon="10.381516866749855"><ele>165.0</ele><time>2026-03-28T17:07:06Z</time></trkpt><trkpt lat="45.52573678954182" lon="10.381261547057907"><ele>164.5</ele><time>2026-03-28T17:07:07Z</time></trkpt><trkpt lat="45.52561420784126" lon="10.380990370945945"><ele>164.0</ele><time>2026-03-28T17:07:08Z</time></trkpt><trkpt lat="45.5254899925624" lon="10.38071553412377"><ele>163.33333333333331</ele><time>2026-03-28T17:07:09Z</time></trkpt><trkpt lat="45.525368795564226" lon="10.380447375504238"><ele>162.66666666666666</ele><time>2026-03-28T17:07:10Z</time></trkpt><trkpt lat="45.52524930401583" lon="10.380183102512909"><ele>162.0</ele><time>2026-03-28T17:07:11Z</time></trkpt><trkpt lat="45.52513232020848" lon="10.379924738104194"><ele>162.33333333333334</ele><time>2026-03-28T17:07:12Z</time></trkpt><trkpt lat="45.525021016667075" lon="10.37967891883412"><ele>162.66666666666669</ele><time>2026-03-28T17:07:13Z</time></trkpt><trkpt lat="45.52491467387589" lon="10.379444199344842"><ele>163.0</ele><time>2026-03-28T17:07:14Z</time></trkpt><trkpt lat="45.5248150369948" lon="10.379225183440665"><ele>163.0</ele><time>2026-03-28T17:07:15Z</time></trkpt><trkpt lat="45.52472115428447" lon="10.379018816015126"><ele>163.0</ele><time>2026-03-28T17:07:16Z</time></trkpt><trkpt lat="45.52463069528865" lon="10.378819974393506"><ele>163.0</ele><time>2026-03-28T17:07:17Z</time></trkpt><trkpt lat="45.52454391570087" lon="10.378629220629872"><ele>162.33333333333334</ele><time>2026-03-28T17:07:18Z</time></trkpt><trkpt lat="45.52445778981284" lon="10.378438736170061"><ele>161.66666666666666</ele><time>2026-03-28T17:07:19Z</time></trkpt><trkpt lat="45.52436954129171" lon="10.378243088883897"><ele>161.0</ele><time>2026-03-28T17:07:20Z</time></trkpt><trkpt lat="45.524278585929004" lon="10.37803978911932"><ele>161.0</ele><time>2026-03-28T17:07:21Z</time></trkpt><trkpt lat="45.524185799905105" lon="10.377831686561787"><ele>161.0</ele><time>2026-03-28T17:07:22Z</time></trkpt><trkpt lat="45.52409026521761" lon="10.377614549280553"><ele>161.0</ele><time>2026-03-28T17:07:23Z</time></trkpt><trkpt lat="45.523992316547215" lon="10.377391925348032"><ele>161.0</ele><time>2026-03-28T17:07:24Z</time></trkpt><trkpt lat="45.52389259009266" lon="10.377165260753868"><ele>161.0</ele><time>2026-03-28T17:07:25Z</time></trkpt><trkpt lat="45.52379154990488" lon="10.376935610223425"><ele>161.0</ele><time>2026-03-28T17:07:26Z</time></trkpt><trkpt lat="45.5236887049413" lon="10.37670273086857"><ele>161.66666666666666</ele><time>2026-03-28T17:07:27Z</time></trkpt><trkpt lat="45.523583582005756" lon="10.376466217425692"><ele>162.33333333333334</ele><time>2026-03-28T17:07:28Z</time></trkpt><trkpt lat="45.52348193252401" lon="10.376237518816124"><ele>163.0</ele><time>2026-03-28T17:07:29Z</time></trkpt><trkpt lat="45.52338217745484" lon="10.376013082398813"><ele>163.0</ele><time>2026-03-28T17:07:30Z</time></trkpt><trkpt lat="45.52328318799375" lon="10.37578796057096"><ele>163.0</ele><time>2026-03-28T17:07:31Z</time></trkpt><trkpt lat="45.523186035505574" lon="10.37556407859542"><ele>163.0</ele><time>2026-03-28T17:07:32Z</time></trkpt><trkpt lat="45.523090803574725" lon="10.375344622062434"><ele>163.0</ele><time>2026-03-28T17:07:33Z</time></trkpt><trkpt lat="45.52299433459784" lon="10.375122312912877"><ele>163.0</ele><time>2026-03-28T17:07:34Z</time></trkpt><trkpt lat="45.52289618315734" lon="10.374900279324839"><ele>163.0</ele><time>2026-03-28T17:07:35Z</time></trkpt><trkpt lat="45.522794210560974" lon="10.374677392386355"><ele>162.33333333333334</ele><time>2026-03-28T17:07:36Z</time></trkpt><trkpt lat="45.52269195695855" lon="10.374457800729038"><ele>161.66666666666666</ele><time>2026-03-28T17:07:37Z</time></trkpt><trkpt lat="45.52259002250735" lon="10.374247729571445"><ele>161.0</ele><time>2026-03-28T17:07:38Z</time></trkpt><trkpt lat="45.522483158986205" lon="10.374044294068772"><ele>161.0</ele><time>2026-03-28T17:07:39Z</time></trkpt><trkpt lat="45.52237907310325" lon="10.373863559662112"><ele>161.0</ele><time>2026-03-28T17:07:40Z</time></trkpt><trkpt lat="45.52227452541591" lon="10.373687387170477"><ele>161.0</ele><time>2026-03-28T17:07:41Z</time></trkpt><trkpt lat="45.522168518034654" lon="10.37352344723576"><ele>161.33333333333331</ele><time>2026-03-28T17:07:42Z</time></trkpt><trkpt lat="45.52206733381317" lon="10.373364203200055"><ele>161.66666666666666</ele><time>2026-03-28T17:07:43Z</time></trkpt><trkpt lat="45.521961530627294" lon="10.373197689826192"><ele>162.0</ele><time>2026-03-28T17:07:44Z</time></trkpt><trkpt lat="45.52184965195005" lon="10.373021785683632"><ele>161.0</ele><time>2026-03-28T17:07:45Z</time></trkpt><trkpt lat="45.52172846742946" lon="10.372831372236593"><ele>160.0</ele><time>2026-03-28T17:07:46Z</time></trkpt><trkpt lat="45.52160001274188" lon="10.372629079245996"><ele>159.0</ele><time>2026-03-28T17:07:47Z</time></trkpt><trkpt lat="45.52146792851234" lon="10.372421371954982"><ele>159.0</ele><time>2026-03-28T17:07:48Z</time></trkpt><trkpt lat="45.521334952971635" lon="10.372212724552446"><ele>159.0</ele><time>2026-03-28T17:07:49Z</time></trkpt><trkpt lat="45.52120686654556" lon="10.372011748493298"><ele>159.0</ele><time>2026-03-28T17:07:50Z</time></trkpt><trkpt lat="45.521079955312004" lon="10.371812616389315"><ele>159.0</ele><time>2026-03-28T17:07:51Z</time></trkpt><trkpt lat="45.52095704202269" lon="10.371619757323757"><ele>159.0</ele><time>2026-03-28T17:07:52Z</time></trkpt><trkpt lat="45.520838396994215" lon="10.371433595440461"><ele>159.0</ele><time>2026-03-28T17:07:53Z</time></trkpt><trkpt lat="45.52072325451898" lon="10.371251588045357"><ele>159.0</ele><time>2026-03-28T17:07:54Z</time></trkpt><trkpt lat="45.52060834606067" lon="10.371071350414379"><ele>159.0</ele><time>2026-03-28T17:07:55Z</time></trkpt><trkpt lat="45.520491228167714" lon="10.370888200254479"><ele>159.0</ele><time>2026-03-28T17:07:56Z</time></trkpt><trkpt lat="45.52037249573951" lon="10.37070252527003"><ele>159.33333333333334</ele><time>2026-03-28T17:07:57Z</time></trkpt><trkpt lat="45.52025374326495" lon="10.370516818935402"><ele>159.66666666666669</ele><time>2026-03-28T17:07:58Z</time></trkpt><trkpt lat="45.520132325492526" lon="10.370326944580995"><ele>160.0</ele><time>2026-03-28T17:07:59Z</time></trkpt><trkpt lat="45.52000930665901" lon="10.3701345664717"><ele>160.0</ele><time>2026-03-28T17:08:00Z</time></trkpt><trkpt lat="45.51988642437637" lon="10.369942401902803"><ele>160.0</ele><time>2026-03-28T17:08:01Z</time></trkpt><trkpt lat="45.519763735547805" lon="10.369750298189183"><ele>160.0</ele><time>2026-03-28T17:08:02Z</time></trkpt><trkpt lat="45.519641820198004" lon="10.369558755329576"><ele>159.66666666666669</ele><time>2026-03-28T17:08:03Z</time></trkpt><trkpt lat="45.519517154048664" lon="10.369362890653251"><ele>159.33333333333334</ele><time>2026-03-28T17:08:04Z</time></trkpt><trkpt lat="45.51939552400551" lon="10.369172683201356"><ele>159.0</ele><time>2026-03-28T17:08:05Z</time></trkpt><trkpt lat="45.51927496918826" lon="10.368986057771624"><ele>158.66666666666666</ele><time>2026-03-28T17:08:06Z</time></trkpt><trkpt lat="45.51915864540615" lon="10.368805982209638"><ele>158.33333333333331</ele><time>2026-03-28T17:08:07Z</time></trkpt><trkpt lat="45.51903744259964" lon="10.368622480179527"><ele>158.0</ele><time>2026-03-28T17:08:08Z</time></trkpt><trkpt lat="45.51891094255166" lon="10.368437255383364"><ele>158.0</ele><time>2026-03-28T17:08:09Z</time></trkpt><trkpt lat="45.51877778630667" lon="10.368250386960058"><ele>158.0</ele><time>2026-03-28T17:08:10Z</time></trkpt><trkpt lat="45.51864561054232" lon="10.368075746798159"><ele>158.0</ele><time>2026-03-28T17:08:11Z</time></trkpt><trkpt lat="45.51851584026564" lon="10.367910896488707"><ele>157.66666666666666</ele><time>2026-03-28T17:08:12Z</time></trkpt><trkpt lat="45.51838402081551" lon="10.367747955529014"><ele>157.33333333333334</ele><time>2026-03-28T17:08:13Z</time></trkpt><trkpt lat="45.518237749241905" lon="10.367602652926816"><ele>157.0</ele><time>2026-03-28T17:08:14Z</time></trkpt><trkpt lat="45.518099014605724" lon="10.36744204810598"><ele>157.0</ele><time>2026-03-28T17:08:15Z</time></trkpt><trkpt lat="45.51795453656758" lon="10.3672894658942"><ele>157.0</ele><time>2026-03-28T17:08:16Z</time></trkpt><trkpt lat="45.51781623660179" lon="10.367122585981194"><ele>157.0</ele><time>2026-03-28T17:08:17Z</time></trkpt><trkpt lat="45.51766997912891" lon="10.366971285167896"><ele>157.0</ele><time>2026-03-28T17:08:18Z</time></trkpt><trkpt lat="45.517527538847226" lon="10.366826294541257"><ele>157.0</ele><time>2026-03-28T17:08:19Z</time></trkpt><trkpt lat="45.51738331260679" lon="10.366679667391889"><ele>157.0</ele><time>2026-03-28T17:08:20Z</time></trkpt><trkpt lat="45.517238619111936" lon="10.366533773771794"><ele>157.0</ele><time>2026-03-28T17:08:21Z</time></trkpt><trkpt lat="45.517091135832906" lon="10.366385936771556"><ele>157.0</ele><time>2026-03-28T17:08:22Z</time></trkpt><trkpt lat="45.516940375704515" lon="10.366234815172364"><ele>157.0</ele><time>2026-03-28T17:08:23Z</time></trkpt><trkpt lat="45.5167858808916" lon="10.36607994991769"><ele>157.0</ele><time>2026-03-28T17:08:24Z</time></trkpt><trkpt lat="45.51663688579096" lon="10.365930597540688"><ele>157.0</ele><time>2026-03-28T17:08:25Z</time></trkpt><trkpt lat="45.51648028191299" lon="10.365773618154119"><ele>157.0</ele><time>2026-03-28T17:08:26Z</time></trkpt><trkpt lat="45.51631175526997" lon="10.36560443572467"><ele>157.0</ele><time>2026-03-28T17:08:27Z</time></trkpt><trkpt lat="45.51613352707118" lon="10.36542162930683"><ele>157.0</ele><time>2026-03-28T17:08:28Z</time></trkpt><trkpt lat="45.51595001116564" lon="10.36523384562281"><ele>157.0</ele><time>2026-03-28T17:08:28.999Z</time></trkpt><trkpt lat="45.51576467484325" lon="10.36504573254412"><ele>157.0</ele><time>2026-03-28T17:08:29.999Z</time></trkpt><trkpt lat="45.51558178559833" lon="10.364860374756224"><ele>157.0</ele><time>2026-03-28T17:08:30.999Z</time></trkpt><trkpt lat="45.51540303734869" lon="10.364682598271648"><ele>157.0</ele><time>2026-03-28T17:08:31.999Z</time></trkpt><trkpt lat="45.51522592499238" lon="10.364508487811486"><ele>156.66666666666669</ele><time>2026-03-28T17:08:32.999Z</time></trkpt><trkpt lat="45.51505295361788" lon="10.364331203881333"><ele>156.33333333333334</ele><time>2026-03-28T17:08:33.999Z</time></trkpt><trkpt lat="45.51488398799828" lon="10.364148563096588"><ele>156.0</ele><time>2026-03-28T17:08:34.999Z</time></trkpt><trkpt lat="45.514731824872115" lon="10.363971950360956"><ele>155.66666666666666</ele><time>2026-03-28T17:08:36Z</time></trkpt><trkpt lat="45.51459338521009" lon="10.363785812306766"><ele>155.33333333333331</ele><time>2026-03-28T17:08:37Z</time></trkpt><trkpt lat="45.514463194384426" lon="10.363593026813373"><ele>155.0</ele><time>2026-03-28T17:08:38Z</time></trkpt><trkpt lat="45.514342996252935" lon="10.363387940091062"><ele>155.0</ele><time>2026-03-28T17:08:39Z</time></trkpt><trkpt lat="45.51423502051876" lon="10.363168386401894"><ele>155.0</ele><time>2026-03-28T17:08:40Z</time></trkpt><trkpt lat="45.514133689929416" lon="10.362931157932616"><ele>155.0</ele><time>2026-03-28T17:08:41Z</time></trkpt><trkpt lat="45.51403844350324" lon="10.362690047380475"><ele>155.66666666666666</ele><time>2026-03-28T17:08:42Z</time></trkpt><trkpt lat="45.51395384620249" lon="10.362448093605424"><ele>156.33333333333334</ele><time>2026-03-28T17:08:43Z</time></trkpt><trkpt lat="45.51388158704044" lon="10.362201205198717"><ele>157.0</ele><time>2026-03-28T17:08:44Z</time></trkpt><trkpt lat="45.51381910020372" lon="10.361943926254208"><ele>157.33333333333334</ele><time>2026-03-28T17:08:45Z</time></trkpt><trkpt lat="45.51377191156498" lon="10.361680386238985"><ele>157.66666666666666</ele><time>2026-03-28T17:08:46Z</time></trkpt><trkpt lat="45.51373482141773" lon="10.361405150323732"><ele>158.0</ele><time>2026-03-28T17:08:47Z</time></trkpt><trkpt lat="45.51370277524445" lon="10.361124967759691"><ele>156.33333333333331</ele><time>2026-03-28T17:08:48Z</time></trkpt><trkpt lat="45.51367491650475" lon="10.360866780816183"><ele>154.66666666666666</ele><time>2026-03-28T17:08:49Z</time></trkpt><trkpt lat="45.513650675489565" lon="10.360625521433972"><ele>153.0</ele><time>2026-03-28T17:08:50Z</time></trkpt><trkpt lat="45.513626808989116" lon="10.360384316053246"><ele>152.33333333333334</ele><time>2026-03-28T17:08:51Z</time></trkpt><trkpt lat="45.51360423608543" lon="10.360156184260848"><ele>151.66666666666669</ele><time>2026-03-28T17:08:52Z</time></trkpt><trkpt lat="45.513581979957564" lon="10.359932330815669"><ele>151.0</ele><time>2026-03-28T17:08:53Z</time></trkpt><trkpt lat="45.51355999973355" lon="10.35971157285141"><ele>152.33333333333334</ele><time>2026-03-28T17:08:54Z</time></trkpt><trkpt lat="45.51353695689604" lon="10.359490106305099"><ele>153.66666666666666</ele><time>2026-03-28T17:08:55Z</time></trkpt><trkpt lat="45.51351381671319" lon="10.359268833343085"><ele>155.0</ele><time>2026-03-28T17:08:56Z</time></trkpt><trkpt lat="45.513492061585595" lon="10.359060967525044"><ele>154.5</ele><time>2026-03-28T17:08:57Z</time></trkpt><trkpt lat="45.51347311549099" lon="10.358856880401556"><ele>154.0</ele><time>2026-03-28T17:08:58Z</time></trkpt><trkpt lat="45.51345233175239" lon="10.358649610123248"><ele>153.5</ele><time>2026-03-28T17:08:59Z</time></trkpt><trkpt lat="45.51343131134118" lon="10.358439979539437"><ele>153.0</ele><time>2026-03-28T17:09:00Z</time></trkpt><trkpt lat="45.51341036204619" lon="10.358231058186115"><ele>153.66666666666666</ele><time>2026-03-28T17:09:01Z</time></trkpt><trkpt lat="45.51338916777248" lon="10.358019440190711"><ele>154.33333333333331</ele><time>2026-03-28T17:09:02Z</time></trkpt><trkpt lat="45.51336749529328" lon="10.357802867490841"><ele>155.0</ele><time>2026-03-28T17:09:03Z</time></trkpt><trkpt lat="45.51334522435064" lon="10.357580314334253"><ele>155.0</ele><time>2026-03-28T17:09:04Z</time></trkpt><trkpt lat="45.51332270122672" lon="10.357355241181137"><ele>155.0</ele><time>2026-03-28T17:09:05Z</time></trkpt><trkpt lat="45.5132998750373" lon="10.357131596093456"><ele>155.0</ele><time>2026-03-28T17:09:06Z</time></trkpt><trkpt lat="45.51327579275303" lon="10.35689754090884"><ele>154.33333333333331</ele><time>2026-03-28T17:09:07Z</time></trkpt><trkpt lat="45.513250203605516" lon="10.356651360692771"><ele>153.66666666666666</ele><time>2026-03-28T17:09:08Z</time></trkpt><trkpt lat="45.5132221619172" lon="10.356390472825137"><ele>153.0</ele><time>2026-03-28T17:09:09Z</time></trkpt><trkpt lat="45.51318827997923" lon="10.356120385530142"><ele>153.0</ele><time>2026-03-28T17:09:10Z</time></trkpt><trkpt lat="45.513149454746724" lon="10.355843377136019"><ele>153.0</ele><time>2026-03-28T17:09:11Z</time></trkpt><trkpt lat="45.51310765472286" lon="10.355556672947365"><ele>153.0</ele><time>2026-03-28T17:09:12Z</time></trkpt><trkpt lat="45.51306498102445" lon="10.355272665656749"><ele>153.0</ele><time>2026-03-28T17:09:13Z</time></trkpt><trkpt lat="45.51302231580343" lon="10.354985203101002"><ele>153.0</ele><time>2026-03-28T17:09:14Z</time></trkpt><trkpt lat="45.51295317352151" lon="10.354705789497475"><ele>153.0</ele><time>2026-03-28T17:09:15Z</time></trkpt><trkpt lat="45.512910981800246" lon="10.35442055151588"><ele>153.0</ele><time>2026-03-28T17:09:16Z</time></trkpt><trkpt lat="45.51286649403861" lon="10.354139615658397"><ele>153.0</ele><time>2026-03-28T17:09:17Z</time></trkpt><trkpt lat="45.51281945390987" lon="10.353857651020757"><ele>153.0</ele><time>2026-03-28T17:09:18Z</time></trkpt><trkpt lat="45.512807798566165" lon="10.353554976481007"><ele>152.66666666666666</ele><time>2026-03-28T17:09:19Z</time></trkpt><trkpt lat="45.51276227061802" lon="10.353251225975821"><ele>152.33333333333331</ele><time>2026-03-28T17:09:20Z</time></trkpt><trkpt lat="45.51271604610072" lon="10.352940722369624"><ele>152.0</ele><time>2026-03-28T17:09:21Z</time></trkpt><trkpt lat="45.512670445183566" lon="10.352634443470379"><ele>152.0</ele><time>2026-03-28T17:09:22Z</time></trkpt><trkpt lat="45.51262569134308" lon="10.35233385395038"><ele>152.0</ele><time>2026-03-28T17:09:23Z</time></trkpt><trkpt lat="45.512580833245565" lon="10.352032564179291"><ele>152.0</ele><time>2026-03-28T17:09:24Z</time></trkpt><trkpt lat="45.51253649771709" lon="10.351736334571203"><ele>152.33333333333331</ele><time>2026-03-28T17:09:25Z</time></trkpt><trkpt lat="45.512477411604294" lon="10.351451308581673"><ele>152.66666666666666</ele><time>2026-03-28T17:09:26Z</time></trkpt><trkpt lat="45.512433907703944" lon="10.351166984396139"><ele>153.0</ele><time>2026-03-28T17:09:27Z</time></trkpt><trkpt lat="45.51240711735839" lon="10.350877539793743"><ele>153.33333333333334</ele><time>2026-03-28T17:09:28Z</time></trkpt><trkpt lat="45.51236286861838" lon="10.350593155336249"><ele>153.66666666666669</ele><time>2026-03-28T17:09:29Z</time></trkpt><trkpt lat="45.5123209602585" lon="10.350327056651146"><ele>154.0</ele><time>2026-03-28T17:09:30Z</time></trkpt><trkpt lat="45.51227425069792" lon="10.350048311996492"><ele>153.33333333333334</ele><time>2026-03-28T17:09:31Z</time></trkpt><trkpt lat="45.51222294307728" lon="10.349771564667682"><ele>152.66666666666666</ele><time>2026-03-28T17:09:32Z</time></trkpt><trkpt lat="45.51216875729821" lon="10.349495933061588"><ele>152.0</ele><time>2026-03-28T17:09:33Z</time></trkpt><trkpt lat="45.512110281042325" lon="10.349230809576788"><ele>152.0</ele><time>2026-03-28T17:09:34Z</time></trkpt><trkpt lat="45.51205006640092" lon="10.34897570052022"><ele>152.0</ele><time>2026-03-28T17:09:35Z</time></trkpt><trkpt lat="45.511989234111084" lon="10.348731727497414"><ele>152.0</ele><time>2026-03-28T17:09:36Z</time></trkpt><trkpt lat="45.511929058950415" lon="10.34849967103613"><ele>152.0</ele><time>2026-03-28T17:09:37Z</time></trkpt><trkpt lat="45.51186813924836" lon="10.348274877112637"><ele>152.0</ele><time>2026-03-28T17:09:38Z</time></trkpt><trkpt lat="45.511805237219235" lon="10.34805759519795"><ele>152.0</ele><time>2026-03-28T17:09:39Z</time></trkpt><trkpt lat="45.51173747038314" lon="10.347839712852812"><ele>152.0</ele><time>2026-03-28T17:09:40Z</time></trkpt><trkpt lat="45.51166303015579" lon="10.34761685843942"><ele>152.0</ele><time>2026-03-28T17:09:41Z</time></trkpt><trkpt lat="45.51158348362172" lon="10.347388107624713"><ele>152.0</ele><time>2026-03-28T17:09:42Z</time></trkpt><trkpt lat="45.51150039462542" lon="10.347152652640167"><ele>152.33333333333331</ele><time>2026-03-28T17:09:43Z</time></trkpt><trkpt lat="45.511412421871185" lon="10.346921354849748"><ele>152.66666666666666</ele><time>2026-03-28T17:09:44Z</time></trkpt><trkpt lat="45.51132604746374" lon="10.346696429917523"><ele>153.0</ele><time>2026-03-28T17:09:45Z</time></trkpt><trkpt lat="45.51124308360893" lon="10.346480259016916"><ele>152.0</ele><time>2026-03-28T17:09:46Z</time></trkpt><trkpt lat="45.51116229427234" lon="10.346269901410613"><ele>151.0</ele><time>2026-03-28T17:09:47Z</time></trkpt><trkpt lat="45.511083278457065" lon="10.346068203135763"><ele>150.0</ele><time>2026-03-28T17:09:48Z</time></trkpt><trkpt lat="45.511007797910175" lon="10.345875529145772"><ele>150.0</ele><time>2026-03-28T17:09:49Z</time></trkpt><trkpt lat="45.510933496301284" lon="10.34568586452357"><ele>150.0</ele><time>2026-03-28T17:09:50Z</time></trkpt><trkpt lat="45.510854952262235" lon="10.345487665397936"><ele>150.0</ele><time>2026-03-28T17:09:51Z</time></trkpt><trkpt lat="45.51077192603132" lon="10.345278414863879"><ele>150.0</ele><time>2026-03-28T17:09:52Z</time></trkpt><trkpt lat="45.51065245324589" lon="10.345081758278864"><ele>150.0</ele><time>2026-03-28T17:09:53Z</time></trkpt><trkpt lat="45.51055638299764" lon="10.34484645380196"><ele>150.0</ele><time>2026-03-28T17:09:54Z</time></trkpt><trkpt lat="45.51046120103422" lon="10.34459731768807"><ele>150.0</ele><time>2026-03-28T17:09:55Z</time></trkpt><trkpt lat="45.510364588829724" lon="10.344347845325412"><ele>150.0</ele><time>2026-03-28T17:09:56Z</time></trkpt><trkpt lat="45.51026432200882" lon="10.344088678103876"><ele>150.0</ele><time>2026-03-28T17:09:57Z</time></trkpt><trkpt lat="45.5101927380487" lon="10.343816044904154"><ele>150.0</ele><time>2026-03-28T17:09:58Z</time></trkpt><trkpt lat="45.51009171713696" lon="10.343566869326768"><ele>150.0</ele><time>2026-03-28T17:09:59Z</time></trkpt><trkpt lat="45.50998943069219" lon="10.343322570509994"><ele>150.0</ele><time>2026-03-28T17:10:00Z</time></trkpt><trkpt lat="45.509884875093576" lon="10.343083605992913"><ele>150.0</ele><time>2026-03-28T17:10:01Z</time></trkpt><trkpt lat="45.50977518898318" lon="10.342853710792896"><ele>150.0</ele><time>2026-03-28T17:10:02Z</time></trkpt><trkpt lat="45.509657722294435" lon="10.342633297294457"><ele>150.0</ele><time>2026-03-28T17:10:03Z</time></trkpt><trkpt lat="45.509537512970915" lon="10.342422150346458"><ele>150.0</ele><time>2026-03-28T17:10:04Z</time></trkpt><trkpt lat="45.509415111898996" lon="10.342220968194038"><ele>150.0</ele><time>2026-03-28T17:10:05Z</time></trkpt><trkpt lat="45.509295013990034" lon="10.34203474199871"><ele>150.0</ele><time>2026-03-28T17:10:06Z</time></trkpt><trkpt lat="45.509173910166595" lon="10.341858795439505"><ele>149.33333333333334</ele><time>2026-03-28T17:10:07Z</time></trkpt><trkpt lat="45.509052436675276" lon="10.341691800601355"><ele>148.66666666666669</ele><time>2026-03-28T17:10:08Z</time></trkpt><trkpt lat="45.5089314873728" lon="10.341538508785462"><ele>148.0</ele><time>2026-03-28T17:10:09Z</time></trkpt><trkpt lat="45.5088273517385" lon="10.341414915714198"><ele>147.25</ele><time>2026-03-28T17:10:10Z</time></trkpt><trkpt lat="45.50872751245458" lon="10.341301683809617"><ele>146.5</ele><time>2026-03-28T17:10:11Z</time></trkpt><trkpt lat="45.508633356099445" lon="10.34119994712436"><ele>145.75</ele><time>2026-03-28T17:10:12Z</time></trkpt><trkpt lat="45.50854689646219" lon="10.341110849802291"><ele>145.0</ele><time>2026-03-28T17:10:13Z</time></trkpt><trkpt lat="45.50846037224713" lon="10.341027135209844"><ele>145.0</ele><time>2026-03-28T17:10:14Z</time></trkpt><trkpt lat="45.50837496531452" lon="10.340945069480332"><ele>145.0</ele><time>2026-03-28T17:10:15Z</time></trkpt><trkpt lat="45.50828725756019" lon="10.340861050744136"><ele>145.0</ele><time>2026-03-28T17:10:16Z</time></trkpt><trkpt lat="45.50820195288912" lon="10.340780066089565"><ele>145.0</ele><time>2026-03-28T17:10:17Z</time></trkpt><trkpt lat="45.50811348760404" lon="10.340696081326177"><ele>145.0</ele><time>2026-03-28T17:10:18Z</time></trkpt><trkpt lat="45.50802123139224" lon="10.340608497509747"><ele>145.25</ele><time>2026-03-28T17:10:19Z</time></trkpt><trkpt lat="45.507923196927514" lon="10.34051542810158"><ele>145.5</ele><time>2026-03-28T17:10:20Z</time></trkpt><trkpt lat="45.50781443217047" lon="10.340412171676963"><ele>145.75</ele><time>2026-03-28T17:10:20.999Z</time></trkpt><trkpt lat="45.5076990510591" lon="10.340302831288117"><ele>146.0</ele><time>2026-03-28T17:10:21.999Z</time></trkpt><trkpt lat="45.50757399864338" lon="10.340182958731791"><ele>147.66666666666666</ele><time>2026-03-28T17:10:22.999Z</time></trkpt><trkpt lat="45.507445014668924" lon="10.340059317403092"><ele>149.33333333333334</ele><time>2026-03-28T17:10:23.999Z</time></trkpt><trkpt lat="45.507311288114174" lon="10.339931130016417"><ele>151.0</ele><time>2026-03-28T17:10:24.999Z</time></trkpt><trkpt lat="45.50717566096423" lon="10.339802596995066"><ele>150.0</ele><time>2026-03-28T17:10:25.999Z</time></trkpt><trkpt lat="45.50704692783634" lon="10.339681388470959"><ele>149.0</ele><time>2026-03-28T17:10:26.999Z</time></trkpt><trkpt lat="45.50692779113291" lon="10.339569215390181"><ele>148.0</ele><time>2026-03-28T17:10:27.999Z</time></trkpt><trkpt lat="45.50682040347245" lon="10.33946747796232"><ele>147.0</ele><time>2026-03-28T17:10:28.999Z</time></trkpt><trkpt lat="45.50670207740877" lon="10.339422463905803"><ele>147.0</ele><time>2026-03-28T17:10:29.999Z</time></trkpt><trkpt lat="45.50662284545854" lon="10.339336440489745"><ele>147.0</ele><time>2026-03-28T17:10:30.999Z</time></trkpt><trkpt lat="45.50654498203498" lon="10.33926935229848"><ele>147.0</ele><time>2026-03-28T17:10:31.999Z</time></trkpt><trkpt lat="45.50647811075484" lon="10.339207145784908"><ele>147.0</ele><time>2026-03-28T17:10:32.999Z</time></trkpt><trkpt lat="45.5064171499055" lon="10.3391497460939"><ele>147.0</ele><time>2026-03-28T17:10:33.999Z</time></trkpt><trkpt lat="45.50636035242788" lon="10.339095847589183"><ele>147.0</ele><time>2026-03-28T17:10:34.999Z</time></trkpt><trkpt lat="45.506271672704756" lon="10.339015022073907"><ele>147.16666666666666</ele><time>2026-03-28T17:10:36.999Z</time></trkpt><trkpt lat="45.506187600217125" lon="10.33893144609075"><ele>147.33333333333334</ele><time>2026-03-28T17:10:38.999Z</time></trkpt><trkpt lat="45.50609314239751" lon="10.338843646905302"><ele>147.5</ele><time>2026-03-28T17:10:40.999Z</time></trkpt><trkpt lat="45.506061536233524" lon="10.33874150962581"><ele>147.66666666666669</ele><time>2026-03-28T17:10:42Z</time></trkpt><trkpt lat="45.50600077255135" lon="10.338683401548586"><ele>147.83333333333334</ele><time>2026-03-28T17:10:43Z</time></trkpt><trkpt lat="45.50593369658968" lon="10.33861925709053"><ele>148.0</ele><time>2026-03-28T17:10:44Z</time></trkpt><trkpt lat="45.505870488763335" lon="10.338558811674156"><ele>148.0</ele><time>2026-03-28T17:10:45Z</time></trkpt><trkpt lat="45.50581325688117" lon="10.338504081047628"><ele>148.0</ele><time>2026-03-28T17:10:46Z</time></trkpt><trkpt lat="45.50571247177249" lon="10.338407700647258"><ele>148.0</ele><time>2026-03-28T17:10:48Z</time></trkpt><trkpt lat="45.50565959232958" lon="10.338357132241663"><ele>148.0</ele><time>2026-03-28T17:10:49Z</time></trkpt><trkpt lat="45.50560046798973" lon="10.338300637704808"><ele>148.0</ele><time>2026-03-28T17:10:50Z</time></trkpt><trkpt lat="45.505533140881916" lon="10.338236458483928"><ele>148.0</ele><time>2026-03-28T17:10:51Z</time></trkpt><trkpt lat="45.505457237815364" lon="10.338164104331138"><ele>148.0</ele><time>2026-03-28T17:10:52Z</time></trkpt><trkpt lat="45.50538303396636" lon="10.338093680532053"><ele>148.0</ele><time>2026-03-28T17:10:53Z</time></trkpt><trkpt lat="45.5053076045753" lon="10.33802197113322"><ele>148.0</ele><time>2026-03-28T17:10:54Z</time></trkpt><trkpt lat="45.505229936192336" lon="10.337947851612675"><ele>148.0</ele><time>2026-03-28T17:10:55Z</time></trkpt><trkpt lat="45.50514923853412" lon="10.33787084120897"><ele>148.0</ele><time>2026-03-28T17:10:56Z</time></trkpt><trkpt lat="45.50506544957413" lon="10.337790867261663"><ele>148.0</ele><time>2026-03-28T17:10:57Z</time></trkpt><trkpt lat="45.50498275508123" lon="10.337711860700995"><ele>148.0</ele><time>2026-03-28T17:10:58Z</time></trkpt><trkpt lat="45.50490111225755" lon="10.337634389768018"><ele>148.0</ele><time>2026-03-28T17:10:59Z</time></trkpt><trkpt lat="45.5048236757371" lon="10.33755992937298"><ele>148.0</ele><time>2026-03-28T17:11:00Z</time></trkpt><trkpt lat="45.50474971877747" lon="10.337489033795528"><ele>148.0</ele><time>2026-03-28T17:11:01Z</time></trkpt><trkpt lat="45.504677045475596" lon="10.337419651218553"><ele>148.0</ele><time>2026-03-28T17:11:02Z</time></trkpt><trkpt lat="45.50461269267419" lon="10.337358212410548"><ele>148.0</ele><time>2026-03-28T17:11:03Z</time></trkpt><trkpt lat="45.50453550916537" lon="10.337284523814905"><ele>148.0</ele><time>2026-03-28T17:11:05Z</time></trkpt><trkpt lat="45.504456749705476" lon="10.337209330662827"><ele>148.0</ele><time>2026-03-28T17:11:07Z</time></trkpt><trkpt lat="45.50437408018705" lon="10.337130739068833"><ele>148.0</ele><time>2026-03-28T17:11:09Z</time></trkpt><trkpt lat="45.50430966831087" lon="10.337069769847416"><ele>148.0</ele><time>2026-03-28T17:11:11Z</time></trkpt><trkpt lat="45.50422757193426" lon="10.337042055166831"><ele>147.66666666666669</ele><time>2026-03-28T17:11:13Z</time></trkpt><trkpt lat="45.5041612448618" lon="10.337008868181712"><ele>147.33333333333334</ele><time>2026-03-28T17:11:15Z</time></trkpt><trkpt lat="45.50409239979868" lon="10.336945375668748"><ele>147.0</ele><time>2026-03-28T17:11:17Z</time></trkpt><trkpt lat="45.50401764324652" lon="10.336871158885145"><ele>146.66666666666666</ele><time>2026-03-28T17:11:19Z</time></trkpt><trkpt lat="45.50395588721576" lon="10.33681159310083"><ele>146.33333333333331</ele><time>2026-03-28T17:11:21Z</time></trkpt><trkpt lat="45.50388021909373" lon="10.33674568291436"><ele>146.0</ele><time>2026-03-28T17:11:23Z</time></trkpt><trkpt lat="45.503780255219425" lon="10.336644269856269"><ele>146.0</ele><time>2026-03-28T17:11:25Z</time></trkpt><trkpt lat="45.503723778802595" lon="10.336591977076282"><ele>146.0</ele><time>2026-03-28T17:11:26Z</time></trkpt><trkpt lat="45.5036657109003" lon="10.336540740722903"><ele>146.0</ele><time>2026-03-28T17:11:27Z</time></trkpt><trkpt lat="45.50359822399036" lon="10.336480707299863"><ele>146.0</ele><time>2026-03-28T17:11:28Z</time></trkpt><trkpt lat="45.50352599619247" lon="10.336410424661633"><ele>146.0</ele><time>2026-03-28T17:11:29Z</time></trkpt><trkpt lat="45.503451464317266" lon="10.336338116986324"><ele>146.0</ele><time>2026-03-28T17:11:30Z</time></trkpt><trkpt lat="45.503376817445144" lon="10.336269995171355"><ele>146.0</ele><time>2026-03-28T17:11:31Z</time></trkpt><trkpt lat="45.50329680493337" lon="10.336201364862893"><ele>146.0</ele><time>2026-03-28T17:11:32Z</time></trkpt><trkpt lat="45.50320376654018" lon="10.336122249050817"><ele>146.0</ele><time>2026-03-28T17:11:33Z</time></trkpt><trkpt lat="45.50309899673764" lon="10.33602974405633"><ele>146.0</ele><time>2026-03-28T17:11:34Z</time></trkpt><trkpt lat="45.503025863241184" lon="10.335846398389887"><ele>146.0</ele><time>2026-03-28T17:11:35Z</time></trkpt><trkpt lat="45.5029158359148" lon="10.335741231135048"><ele>146.0</ele><time>2026-03-28T17:11:36Z</time></trkpt><trkpt lat="45.50279838434412" lon="10.335628967572994"><ele>146.0</ele><time>2026-03-28T17:11:37Z</time></trkpt><trkpt lat="45.50267503104591" lon="10.335511062955469"><ele>146.0</ele><time>2026-03-28T17:11:38Z</time></trkpt><trkpt lat="45.50255963185958" lon="10.335400761137537"><ele>145.75</ele><time>2026-03-28T17:11:39Z</time></trkpt><trkpt lat="45.50245723887922" lon="10.335302891003547"><ele>145.5</ele><time>2026-03-28T17:11:40Z</time></trkpt><trkpt lat="45.502358914572746" lon="10.335208909817482"><ele>145.25</ele><time>2026-03-28T17:11:41Z</time></trkpt><trkpt lat="45.50226035540663" lon="10.335114704142411"><ele>145.0</ele><time>2026-03-28T17:11:42Z</time></trkpt><trkpt lat="45.50216529147869" lon="10.335023839338222"><ele>144.8</ele><time>2026-03-28T17:11:43Z</time></trkpt><trkpt lat="45.50207744128698" lon="10.334939869612317"><ele>144.6</ele><time>2026-03-28T17:11:44Z</time></trkpt><trkpt lat="45.50199498629562" lon="10.334861282624006"><ele>144.4</ele><time>2026-03-28T17:11:45Z</time></trkpt><trkpt lat="45.501914302724764" lon="10.334784112534246"><ele>144.2</ele><time>2026-03-28T17:11:46Z</time></trkpt><trkpt lat="45.50183779132309" lon="10.334711111213577"><ele>144.0</ele><time>2026-03-28T17:11:47Z</time></trkpt><trkpt lat="45.5017683424879" lon="10.334644670345034"><ele>143.83333333333334</ele><time>2026-03-28T17:11:48Z</time></trkpt><trkpt lat="45.501711354807476" lon="10.334590150908413"><ele>143.66666666666666</ele><time>2026-03-28T17:11:49Z</time></trkpt><trkpt lat="45.50165631959461" lon="10.334537499427107"><ele>143.5</ele><time>2026-03-28T17:11:50Z</time></trkpt><trkpt lat="45.5015972169152" lon="10.334480956590381"><ele>143.33333333333331</ele><time>2026-03-28T17:11:51Z</time></trkpt><trkpt lat="45.50149566815995" lon="10.334379294709183"><ele>143.16666666666666</ele><time>2026-03-28T17:11:53Z</time></trkpt><trkpt lat="45.50140371466153" lon="10.334284617912225"><ele>143.0</ele><time>2026-03-28T17:11:55Z</time></trkpt><trkpt lat="45.50129700506934" lon="10.33417474799381"><ele>142.8</ele><time>2026-03-28T17:11:57Z</time></trkpt><trkpt lat="45.50123097286897" lon="10.334106760165257"><ele>142.60000000000002</ele><time>2026-03-28T17:11:58Z</time></trkpt><trkpt lat="45.50115726789488" lon="10.334030400464705"><ele>142.39999999999998</ele><time>2026-03-28T17:11:59Z</time></trkpt><trkpt lat="45.50105358084206" lon="10.334000783157213"><ele>142.2</ele><time>2026-03-28T17:12:00Z</time></trkpt><trkpt lat="45.50097464585006" lon="10.333917054880386"><ele>142.0</ele><time>2026-03-28T17:12:01Z</time></trkpt><trkpt lat="45.500893449012025" lon="10.33383031304853"><ele>142.4</ele><time>2026-03-28T17:12:02Z</time></trkpt><trkpt lat="45.50081539773801" lon="10.333738120606938"><ele>142.79999999999998</ele><time>2026-03-28T17:12:03Z</time></trkpt><trkpt lat="45.500734154004476" lon="10.333640024221921"><ele>143.2</ele><time>2026-03-28T17:12:04Z</time></trkpt><trkpt lat="45.50065090460518" lon="10.333535287400013"><ele>143.6</ele><time>2026-03-28T17:12:05Z</time></trkpt><trkpt lat="45.50056655044686" lon="10.33343021027121"><ele>144.0</ele><time>2026-03-28T17:12:06Z</time></trkpt><trkpt lat="45.50047954745166" lon="10.33332299910324"><ele>144.0</ele><time>2026-03-28T17:12:07Z</time></trkpt><trkpt lat="45.50040092204597" lon="10.333189733710524"><ele>144.0</ele><time>2026-03-28T17:12:08Z</time></trkpt><trkpt lat="45.50031105623786" lon="10.33308217179195"><ele>144.0</ele><time>2026-03-28T17:12:09Z</time></trkpt><trkpt lat="45.50022052862617" lon="10.332972529444028"><ele>144.0</ele><time>2026-03-28T17:12:10Z</time></trkpt><trkpt lat="45.50013339591459" lon="10.332865984191436"><ele>144.0</ele><time>2026-03-28T17:12:11Z</time></trkpt><trkpt lat="45.50004850595051" lon="10.33276218139972"><ele>144.0</ele><time>2026-03-28T17:12:12Z</time></trkpt><trkpt lat="45.49996766825008" lon="10.332663333666172"><ele>144.0</ele><time>2026-03-28T17:12:13Z</time></trkpt><trkpt lat="45.499886720843946" lon="10.332564351761146"><ele>144.0</ele><time>2026-03-28T17:12:14Z</time></trkpt><trkpt lat="45.49980223960886" lon="10.332461048742653"><ele>144.0</ele><time>2026-03-28T17:12:15Z</time></trkpt><trkpt lat="45.49971188560847" lon="10.332350915231148"><ele>144.0</ele><time>2026-03-28T17:12:16Z</time></trkpt><trkpt lat="45.49961992770926" lon="10.332238521990236"><ele>144.0</ele><time>2026-03-28T17:12:17Z</time></trkpt><trkpt lat="45.49952147973085" lon="10.33211751590902"><ele>144.0</ele><time>2026-03-28T17:12:18Z</time></trkpt><trkpt lat="45.49942057431178" lon="10.331993489282736"><ele>144.0</ele><time>2026-03-28T17:12:19Z</time></trkpt><trkpt lat="45.49931708561229" lon="10.331866287121478"><ele>143.75</ele><time>2026-03-28T17:12:20Z</time></trkpt><trkpt lat="45.49919469955084" lon="10.331755249001452"><ele>143.5</ele><time>2026-03-28T17:12:21Z</time></trkpt><trkpt lat="45.49908098897621" lon="10.33161413980523"><ele>143.25</ele><time>2026-03-28T17:12:22Z</time></trkpt><trkpt lat="45.49896600344739" lon="10.331471910303494"><ele>143.0</ele><time>2026-03-28T17:12:23Z</time></trkpt><trkpt lat="45.49885218797478" lon="10.331330826727905"><ele>143.33333333333331</ele><time>2026-03-28T17:12:24Z</time></trkpt><trkpt lat="45.498744569962696" lon="10.331163846694636"><ele>143.66666666666666</ele><time>2026-03-28T17:12:25Z</time></trkpt><trkpt lat="45.49862147614281" lon="10.331012473066378"><ele>144.0</ele><time>2026-03-28T17:12:26Z</time></trkpt><trkpt lat="45.49849818336584" lon="10.330861077866768"><ele>144.0</ele><time>2026-03-28T17:12:27Z</time></trkpt><trkpt lat="45.498376061823336" lon="10.330711587955305"><ele>144.0</ele><time>2026-03-28T17:12:28Z</time></trkpt><trkpt lat="45.4982527545816" lon="10.330561020751926"><ele>144.0</ele><time>2026-03-28T17:12:29Z</time></trkpt><trkpt lat="45.49812819037861" lon="10.330408965427598"><ele>143.66666666666666</ele><time>2026-03-28T17:12:30Z</time></trkpt><trkpt lat="45.49800521713292" lon="10.330256500734171"><ele>143.33333333333331</ele><time>2026-03-28T17:12:31Z</time></trkpt><trkpt lat="45.49788353731037" lon="10.330104863265232"><ele>143.0</ele><time>2026-03-28T17:12:32Z</time></trkpt><trkpt lat="45.497759703712006" lon="10.329948100109558"><ele>143.0</ele><time>2026-03-28T17:12:33Z</time></trkpt><trkpt lat="45.49764113320936" lon="10.329789706144153"><ele>143.0</ele><time>2026-03-28T17:12:34Z</time></trkpt><trkpt lat="45.49752803235405" lon="10.329625758358826"><ele>143.0</ele><time>2026-03-28T17:12:35Z</time></trkpt><trkpt lat="45.49741939936774" lon="10.32945725174466"><ele>142.33333333333331</ele><time>2026-03-28T17:12:36Z</time></trkpt><trkpt lat="45.49731363480257" lon="10.329282108366852"><ele>141.66666666666666</ele><time>2026-03-28T17:12:37Z</time></trkpt><trkpt lat="45.497210051131646" lon="10.329096801320123"><ele>141.0</ele><time>2026-03-28T17:12:38Z</time></trkpt><trkpt lat="45.49710809124727" lon="10.328904420718153"><ele>142.33333333333334</ele><time>2026-03-28T17:12:39Z</time></trkpt><trkpt lat="45.49700869477809" lon="10.328698677978412"><ele>143.66666666666669</ele><time>2026-03-28T17:12:40Z</time></trkpt><trkpt lat="45.49691386040382" lon="10.328482062761188"><ele>145.0</ele><time>2026-03-28T17:12:40.999Z</time></trkpt><trkpt lat="45.49682334677894" lon="10.328255618450445"><ele>144.66666666666669</ele><time>2026-03-28T17:12:41.999Z</time></trkpt><trkpt lat="45.496737155108505" lon="10.328021615692553"><ele>144.33333333333334</ele><time>2026-03-28T17:12:42.999Z</time></trkpt><trkpt lat="45.49666108767909" lon="10.327781969550403"><ele>144.0</ele><time>2026-03-28T17:12:43.999Z</time></trkpt><trkpt lat="45.49657439601764" lon="10.327550038819671"><ele>144.0</ele><time>2026-03-28T17:12:44.999Z</time></trkpt><trkpt lat="45.49652919253403" lon="10.327296806699232"><ele>144.0</ele><time>2026-03-28T17:12:45.999Z</time></trkpt><trkpt lat="45.496474912760874" lon="10.327053008099222"><ele>144.0</ele><time>2026-03-28T17:12:46.999Z</time></trkpt><trkpt lat="45.4964278113046" lon="10.326809428213297"><ele>143.33333333333334</ele><time>2026-03-28T17:12:48Z</time></trkpt><trkpt lat="45.496387120410375" lon="10.326565760617493"><ele>142.66666666666669</ele><time>2026-03-28T17:12:49Z</time></trkpt><trkpt lat="45.49633639863513" lon="10.326321207530542"><ele>142.0</ele><time>2026-03-28T17:12:50Z</time></trkpt><trkpt lat="45.4963096610237" lon="10.326065840731596"><ele>142.0</ele><time>2026-03-28T17:12:51Z</time></trkpt><trkpt lat="45.49628978201831" lon="10.325804448139865"><ele>142.0</ele><time>2026-03-28T17:12:52Z</time></trkpt><trkpt lat="45.49627772342931" lon="10.325539383310637"><ele>142.0</ele><time>2026-03-28T17:12:53Z</time></trkpt><trkpt lat="45.496272639975494" lon="10.325275470893803"><ele>142.0</ele><time>2026-03-28T17:12:54Z</time></trkpt><trkpt lat="45.49627311107099" lon="10.325010489198094"><ele>142.0</ele><time>2026-03-28T17:12:55Z</time></trkpt><trkpt lat="45.49627766398536" lon="10.324747016174635"><ele>142.0</ele><time>2026-03-28T17:12:56Z</time></trkpt><trkpt lat="45.496281112108406" lon="10.32448198113439"><ele>142.33333333333334</ele><time>2026-03-28T17:12:57Z</time></trkpt><trkpt lat="45.49630079417367" lon="10.3242163570027"><ele>142.66666666666666</ele><time>2026-03-28T17:12:58Z</time></trkpt><trkpt lat="45.496304829233495" lon="10.3239517051852"><ele>143.0</ele><time>2026-03-28T17:12:59Z</time></trkpt><trkpt lat="45.49630859602732" lon="10.323689173029024"><ele>143.33333333333331</ele><time>2026-03-28T17:13:00Z</time></trkpt><trkpt lat="45.49631024506033" lon="10.323426141689831"><ele>143.66666666666666</ele><time>2026-03-28T17:13:01Z</time></trkpt><trkpt lat="45.496305888642915" lon="10.323156101448912"><ele>144.0</ele><time>2026-03-28T17:13:02Z</time></trkpt><trkpt lat="45.49628951633992" lon="10.322879535058481"><ele>142.66666666666666</ele><time>2026-03-28T17:13:03Z</time></trkpt><trkpt lat="45.496244066964074" lon="10.322603101165909"><ele>141.33333333333331</ele><time>2026-03-28T17:13:04Z</time></trkpt><trkpt lat="45.49620581918389" lon="10.322318626954956"><ele>140.0</ele><time>2026-03-28T17:13:05Z</time></trkpt><trkpt lat="45.49615237762776" lon="10.322033014592238"><ele>140.0</ele><time>2026-03-28T17:13:06Z</time></trkpt><trkpt lat="45.496084193863005" lon="10.321749158908968"><ele>140.0</ele><time>2026-03-28T17:13:07Z</time></trkpt><trkpt lat="45.49601724085176" lon="10.321458387519753"><ele>140.0</ele><time>2026-03-28T17:13:08Z</time></trkpt><trkpt lat="45.49592518912393" lon="10.32117643946446"><ele>140.0</ele><time>2026-03-28T17:13:09Z</time></trkpt><trkpt lat="45.49581505996027" lon="10.320907068763585"><ele>140.0</ele><time>2026-03-28T17:13:10Z</time></trkpt><trkpt lat="45.49569537905002" lon="10.32065568884695"><ele>140.0</ele><time>2026-03-28T17:13:11Z</time></trkpt><trkpt lat="45.49556972386853" lon="10.320422621508081"><ele>140.33333333333331</ele><time>2026-03-28T17:13:12Z</time></trkpt><trkpt lat="45.49544568305331" lon="10.320206481170734"><ele>140.66666666666666</ele><time>2026-03-28T17:13:13Z</time></trkpt><trkpt lat="45.495322784820075" lon="10.320007147638186"><ele>141.0</ele><time>2026-03-28T17:13:14Z</time></trkpt><trkpt lat="45.49519478668311" lon="10.319818918322964"><ele>140.66666666666666</ele><time>2026-03-28T17:13:15Z</time></trkpt><trkpt lat="45.49504979590538" lon="10.319639149430508"><ele>140.33333333333331</ele><time>2026-03-28T17:13:16Z</time></trkpt><trkpt lat="45.49489789469183" lon="10.319465136945773"><ele>140.0</ele><time>2026-03-28T17:13:17Z</time></trkpt><trkpt lat="45.49473951882159" lon="10.319291450146066"><ele>140.33333333333331</ele><time>2026-03-28T17:13:18Z</time></trkpt><trkpt lat="45.494574077858005" lon="10.319117426123508"><ele>140.66666666666666</ele><time>2026-03-28T17:13:19Z</time></trkpt><trkpt lat="45.49439821495839" lon="10.318941358010672"><ele>141.0</ele><time>2026-03-28T17:13:20Z</time></trkpt><trkpt lat="45.49421361178697" lon="10.318767574632403"><ele>141.0</ele><time>2026-03-28T17:13:21Z</time></trkpt><trkpt lat="45.494016036661236" lon="10.318618015854176"><ele>141.0</ele><time>2026-03-28T17:13:22Z</time></trkpt><trkpt lat="45.493819643222075" lon="10.318501137232444"><ele>141.0</ele><time>2026-03-28T17:13:23Z</time></trkpt><trkpt lat="45.49362278894197" lon="10.318417438061589"><ele>140.33333333333334</ele><time>2026-03-28T17:13:24Z</time></trkpt><trkpt lat="45.49342637996664" lon="10.318368314080562"><ele>139.66666666666669</ele><time>2026-03-28T17:13:25Z</time></trkpt><trkpt lat="45.49322964925398" lon="10.318356790787645"><ele>139.0</ele><time>2026-03-28T17:13:26Z</time></trkpt><trkpt lat="45.49303670456219" lon="10.31835807293808"><ele>139.0</ele><time>2026-03-28T17:13:27Z</time></trkpt><trkpt lat="45.492840858252265" lon="10.318361726903941"><ele>139.0</ele><time>2026-03-28T17:13:28Z</time></trkpt><trkpt lat="45.4926458624726" lon="10.318365365017005"><ele>139.0</ele><time>2026-03-28T17:13:29Z</time></trkpt><trkpt lat="45.49244940284947" lon="10.318369105775302"><ele>139.0</ele><time>2026-03-28T17:13:30Z</time></trkpt><trkpt lat="45.49225202763642" lon="10.318372987149777"><ele>139.0</ele><time>2026-03-28T17:13:31Z</time></trkpt><trkpt lat="45.49205343391072" lon="10.318376926105353"><ele>139.0</ele><time>2026-03-28T17:13:32Z</time></trkpt><trkpt lat="45.49185393372488" lon="10.318380883457273"><ele>138.33333333333334</ele><time>2026-03-28T17:13:33Z</time></trkpt><trkpt lat="45.49165635097649" lon="10.318384349971637"><ele>137.66666666666666</ele><time>2026-03-28T17:13:34Z</time></trkpt><trkpt lat="45.49146437095056" lon="10.318387700462555"><ele>137.0</ele><time>2026-03-28T17:13:35Z</time></trkpt><trkpt lat="45.49128039225168" lon="10.318390911308628"><ele>137.33333333333331</ele><time>2026-03-28T17:13:36Z</time></trkpt><trkpt lat="45.491101251868095" lon="10.318394266551651"><ele>137.66666666666666</ele><time>2026-03-28T17:13:37Z</time></trkpt><trkpt lat="45.49092046063845" lon="10.31839759872958"><ele>138.0</ele><time>2026-03-28T17:13:38Z</time></trkpt><trkpt lat="45.49073579697263" lon="10.318401019373017"><ele>138.0</ele><time>2026-03-28T17:13:39Z</time></trkpt><trkpt lat="45.49054807117094" lon="10.318404496737205"><ele>138.0</ele><time>2026-03-28T17:13:40Z</time></trkpt><trkpt lat="45.49035962263722" lon="10.31840798748932"><ele>138.0</ele><time>2026-03-28T17:13:41Z</time></trkpt><trkpt lat="45.4901749385128" lon="10.318411408510778"><ele>138.0</ele><time>2026-03-28T17:13:42Z</time></trkpt><trkpt lat="45.489991706153404" lon="10.318436593173221"><ele>138.0</ele><time>2026-03-28T17:13:43Z</time></trkpt><trkpt lat="45.4898027261868" lon="10.318437143233108"><ele>138.0</ele><time>2026-03-28T17:13:44Z</time></trkpt><trkpt lat="45.48960650982186" lon="10.31844368804144"><ele>137.0</ele><time>2026-03-28T17:13:45Z</time></trkpt><trkpt lat="45.48940877583013" lon="10.318448422786018"><ele>136.0</ele><time>2026-03-28T17:13:46Z</time></trkpt><trkpt lat="45.489206090400955" lon="10.318428756589315"><ele>135.0</ele><time>2026-03-28T17:13:47Z</time></trkpt><trkpt lat="45.48900239619483" lon="10.318455568328732"><ele>135.0</ele><time>2026-03-28T17:13:48Z</time></trkpt><trkpt lat="45.48879801973395" lon="10.318456304122734"><ele>135.0</ele><time>2026-03-28T17:13:49Z</time></trkpt><trkpt lat="45.48859717863513" lon="10.318455801878374"><ele>135.0</ele><time>2026-03-28T17:13:50Z</time></trkpt><trkpt lat="45.48839516524105" lon="10.318458561081718"><ele>135.33333333333334</ele><time>2026-03-28T17:13:51Z</time></trkpt><trkpt lat="45.488187144554246" lon="10.318461704234139"><ele>135.66666666666669</ele><time>2026-03-28T17:13:52Z</time></trkpt><trkpt lat="45.487972691488686" lon="10.318468941093533"><ele>136.0</ele><time>2026-03-28T17:13:53Z</time></trkpt><trkpt lat="45.487756499468304" lon="10.318474558591644"><ele>136.0</ele><time>2026-03-28T17:13:54Z</time></trkpt><trkpt lat="45.48753544404479" lon="10.318454451251723"><ele>136.0</ele><time>2026-03-28T17:13:55Z</time></trkpt><trkpt lat="45.487317608179566" lon="10.31845769170696"><ele>136.0</ele><time>2026-03-28T17:13:56Z</time></trkpt><trkpt lat="45.487121975751265" lon="10.31847991732079"><ele>135.66666666666669</ele><time>2026-03-28T17:13:57Z</time></trkpt><trkpt lat="45.48693479746616" lon="10.318477093894584"><ele>135.33333333333334</ele><time>2026-03-28T17:13:58Z</time></trkpt><trkpt lat="45.486762450060176" lon="10.318466018309719"><ele>135.0</ele><time>2026-03-28T17:13:59Z</time></trkpt><trkpt lat="45.48661243017083" lon="10.318450705763647"><ele>135.0</ele><time>2026-03-28T17:14:00Z</time></trkpt><trkpt lat="45.486486477234564" lon="10.318419741463524"><ele>135.0</ele><time>2026-03-28T17:14:01Z</time></trkpt><trkpt lat="45.48637198462101" lon="10.318368784087191"><ele>135.0</ele><time>2026-03-28T17:14:02Z</time></trkpt><trkpt lat="45.486276965501744" lon="10.318273289052684"><ele>135.0</ele><time>2026-03-28T17:14:03Z</time></trkpt><trkpt lat="45.48619973085855" lon="10.31814392061522"><ele>135.25</ele><time>2026-03-28T17:14:04Z</time></trkpt><trkpt lat="45.48614624385061" lon="10.317988052099778"><ele>135.5</ele><time>2026-03-28T17:14:05Z</time></trkpt><trkpt lat="45.48611892544113" lon="10.317820259249809"><ele>135.75</ele><time>2026-03-28T17:14:06Z</time></trkpt><trkpt lat="45.48612347694383" lon="10.31764336576252"><ele>136.0</ele><time>2026-03-28T17:14:07Z</time></trkpt><trkpt lat="45.48608111969494" lon="10.317476081073455"><ele>136.0</ele><time>2026-03-28T17:14:08Z</time></trkpt><trkpt lat="45.48603395335064" lon="10.317321504499485"><ele>136.0</ele><time>2026-03-28T17:14:09Z</time></trkpt><trkpt lat="45.485966512925636" lon="10.31718910135449"><ele>136.0</ele><time>2026-03-28T17:14:10Z</time></trkpt><trkpt lat="45.485881508992435" lon="10.317072583724215"><ele>136.0</ele><time>2026-03-28T17:14:11Z</time></trkpt><trkpt lat="45.48577585413116" lon="10.316996303376067"><ele>135.75</ele><time>2026-03-28T17:14:12Z</time></trkpt><trkpt lat="45.485663414820394" lon="10.316953578163723"><ele>135.5</ele><time>2026-03-28T17:14:13Z</time></trkpt><trkpt lat="45.48554634558708" lon="10.31693715395563"><ele>135.25</ele><time>2026-03-28T17:14:14Z</time></trkpt><trkpt lat="45.48543323928007" lon="10.316966267778053"><ele>135.0</ele><time>2026-03-28T17:14:15Z</time></trkpt><trkpt lat="45.485330973574854" lon="10.317020595649483"><ele>135.0</ele><time>2026-03-28T17:14:16Z</time></trkpt><trkpt lat="45.48523648480037" lon="10.317095062085809"><ele>135.0</ele><time>2026-03-28T17:14:17Z</time></trkpt><trkpt lat="45.48515048765346" lon="10.317197827195237"><ele>135.0</ele><time>2026-03-28T17:14:18Z</time></trkpt><trkpt lat="45.485077045999454" lon="10.317339502214653"><ele>135.0</ele><time>2026-03-28T17:14:19Z</time></trkpt><trkpt lat="45.48504582429197" lon="10.317509284982231"><ele>135.25</ele><time>2026-03-28T17:14:20Z</time></trkpt><trkpt lat="45.48499261473624" lon="10.3176837309932"><ele>135.5</ele><time>2026-03-28T17:14:21Z</time></trkpt><trkpt lat="45.48496047356925" lon="10.317876867463289"><ele>135.75</ele><time>2026-03-28T17:14:22Z</time></trkpt><trkpt lat="45.48491703390715" lon="10.31806968420913"><ele>136.0</ele><time>2026-03-28T17:14:23Z</time></trkpt><trkpt lat="45.48486563560956" lon="10.318268258108729"><ele>136.0</ele><time>2026-03-28T17:14:24Z</time></trkpt><trkpt lat="45.48481441496852" lon="10.31847633313532"><ele>136.0</ele><time>2026-03-28T17:14:25Z</time></trkpt><trkpt lat="45.48477293091951" lon="10.31867877088201"><ele>136.0</ele><time>2026-03-28T17:14:26Z</time></trkpt><trkpt lat="45.48474055076982" lon="10.318886322607527"><ele>135.75</ele><time>2026-03-28T17:14:27Z</time></trkpt><trkpt lat="45.48469680795169" lon="10.31907206069949"><ele>135.5</ele><time>2026-03-28T17:14:28Z</time></trkpt><trkpt lat="45.484656747200994" lon="10.319255488566585"><ele>135.25</ele><time>2026-03-28T17:14:29Z</time></trkpt><trkpt lat="45.484619394965655" lon="10.319424616357288"><ele>135.0</ele><time>2026-03-28T17:14:30Z</time></trkpt><trkpt lat="45.484584440303784" lon="10.319586665514292"><ele>135.0</ele><time>2026-03-28T17:14:31Z</time></trkpt><trkpt lat="45.484546484293766" lon="10.31973320597207"><ele>135.0</ele><time>2026-03-28T17:14:32Z</time></trkpt><trkpt lat="45.48448876852358" lon="10.319833479796863"><ele>135.0</ele><time>2026-03-28T17:14:33Z</time></trkpt><trkpt lat="45.484407600660965" lon="10.319889427072804"><ele>135.0</ele><time>2026-03-28T17:14:34Z</time></trkpt><trkpt lat="45.48431949069635" lon="10.31991784443332"><ele>135.0</ele><time>2026-03-28T17:14:35Z</time></trkpt><trkpt lat="45.484231980866404" lon="10.319957082548152"><ele>135.0</ele><time>2026-03-28T17:14:36Z</time></trkpt><trkpt lat="45.48414980614498" lon="10.320027505031588"><ele>135.0</ele><time>2026-03-28T17:14:37Z</time></trkpt><trkpt lat="45.48408381702017" lon="10.320148438776156"><ele>135.0</ele><time>2026-03-28T17:14:38Z</time></trkpt><trkpt lat="45.48404156133961" lon="10.320298476402808"><ele>135.0</ele><time>2026-03-28T17:14:39Z</time></trkpt><trkpt lat="45.48400885221796" lon="10.32046874670904"><ele>135.0</ele><time>2026-03-28T17:14:39.999Z</time></trkpt><trkpt lat="45.48399257493318" lon="10.320636275620247"><ele>135.0</ele><time>2026-03-28T17:14:40.999Z</time></trkpt><trkpt lat="45.483991577352576" lon="10.320800169965208"><ele>135.0</ele><time>2026-03-28T17:14:41.999Z</time></trkpt><trkpt lat="45.4840150658686" lon="10.32097662804161"><ele>135.0</ele><time>2026-03-28T17:14:42.999Z</time></trkpt><trkpt lat="45.48404133001591" lon="10.321155017207724"><ele>135.0</ele><time>2026-03-28T17:14:43.999Z</time></trkpt><trkpt lat="45.48407796196196" lon="10.321327495295984"><ele>135.0</ele><time>2026-03-28T17:14:44.999Z</time></trkpt><trkpt lat="45.48406735349575" lon="10.32149942217189"><ele>135.0</ele><time>2026-03-28T17:14:45.999Z</time></trkpt><trkpt lat="45.48405659504855" lon="10.321660180872803"><ele>135.0</ele><time>2026-03-28T17:14:46.999Z</time></trkpt><trkpt lat="45.48402906099837" lon="10.321811864173815"><ele>135.0</ele><time>2026-03-28T17:14:47.999Z</time></trkpt><trkpt lat="45.48399873176624" lon="10.321954439890405"><ele>135.0</ele><time>2026-03-28T17:14:48.999Z</time></trkpt><trkpt lat="45.48396596241417" lon="10.322088686779603"><ele>135.0</ele><time>2026-03-28T17:14:49.999Z</time></trkpt><trkpt lat="45.48393536681692" lon="10.322214648292604"><ele>135.0</ele><time>2026-03-28T17:14:50.999Z</time></trkpt><trkpt lat="45.483912104828725" lon="10.3223294157781"><ele>135.0</ele><time>2026-03-28T17:14:51.999Z</time></trkpt><trkpt lat="45.48389038254017" lon="10.322433590608897"><ele>135.0</ele><time>2026-03-28T17:14:52.999Z</time></trkpt><trkpt lat="45.48386891039997" lon="10.322525462386244"><ele>135.0</ele><time>2026-03-28T17:14:54Z</time></trkpt><trkpt lat="45.483846524741416" lon="10.322610375825874"><ele>135.0</ele><time>2026-03-28T17:14:55Z</time></trkpt><trkpt lat="45.48381792966056" lon="10.322773939244518"><ele>135.0</ele><time>2026-03-28T17:14:57Z</time></trkpt><trkpt lat="45.483778797100236" lon="10.322891554752081"><ele>135.0</ele><time>2026-03-28T17:14:58Z</time></trkpt><trkpt lat="45.483754024616566" lon="10.323031021531708"><ele>135.0</ele><time>2026-03-28T17:14:59Z</time></trkpt><trkpt lat="45.483724869529276" lon="10.323190932972222"><ele>135.0</ele><time>2026-03-28T17:15:00Z</time></trkpt><trkpt lat="45.48368911754004" lon="10.323361445713799"><ele>135.0</ele><time>2026-03-28T17:15:01Z</time></trkpt><trkpt lat="45.483652462335414" lon="10.323537693866255"><ele>135.0</ele><time>2026-03-28T17:15:02Z</time></trkpt><trkpt lat="45.48361565713649" lon="10.323718671754339"><ele>135.0</ele><time>2026-03-28T17:15:03Z</time></trkpt><trkpt lat="45.48357510974288" lon="10.323921158934176"><ele>135.0</ele><time>2026-03-28T17:15:04Z</time></trkpt><trkpt lat="45.483529023846394" lon="10.324136922382387"><ele>135.0</ele><time>2026-03-28T17:15:05Z</time></trkpt><trkpt lat="45.483470911187844" lon="10.324360905772735"><ele>135.0</ele><time>2026-03-28T17:15:06Z</time></trkpt><trkpt lat="45.48339850689656" lon="10.324574728241254"><ele>135.0</ele><time>2026-03-28T17:15:07Z</time></trkpt><trkpt lat="45.48330946127893" lon="10.324787642636482"><ele>135.0</ele><time>2026-03-28T17:15:08Z</time></trkpt><trkpt lat="45.48320349096037" lon="10.324983294135386"><ele>135.33333333333334</ele><time>2026-03-28T17:15:09Z</time></trkpt><trkpt lat="45.483077810363454" lon="10.32514731257759"><ele>135.66666666666669</ele><time>2026-03-28T17:15:10Z</time></trkpt><trkpt lat="45.4829327267451" lon="10.325281313149222"><ele>136.0</ele><time>2026-03-28T17:15:11Z</time></trkpt><trkpt lat="45.482771872913595" lon="10.325395021896151"><ele>136.0</ele><time>2026-03-28T17:15:12Z</time></trkpt><trkpt lat="45.482600699149835" lon="10.325487221145481"><ele>136.0</ele><time>2026-03-28T17:15:13Z</time></trkpt><trkpt lat="45.48242666233368" lon="10.325517142380857"><ele>136.0</ele><time>2026-03-28T17:15:14Z</time></trkpt><trkpt lat="45.4822552196752" lon="10.32553416733276"><ele>136.0</ele><time>2026-03-28T17:15:15Z</time></trkpt><trkpt lat="45.48208475756367" lon="10.325524647754841"><ele>136.0</ele><time>2026-03-28T17:15:16Z</time></trkpt><trkpt lat="45.481915165852854" lon="10.325482907671946"><ele>136.0</ele><time>2026-03-28T17:15:17Z</time></trkpt><trkpt lat="45.48175200940753" lon="10.325398561176252"><ele>136.0</ele><time>2026-03-28T17:15:18Z</time></trkpt><trkpt lat="45.481573859985204" lon="10.325339950020561"><ele>136.0</ele><time>2026-03-28T17:15:19Z</time></trkpt><trkpt lat="45.48139457803166" lon="10.325252313298604"><ele>136.0</ele><time>2026-03-28T17:15:20Z</time></trkpt><trkpt lat="45.48121252928642" lon="10.325166282014422"><ele>136.0</ele><time>2026-03-28T17:15:21Z</time></trkpt><trkpt lat="45.481041188667504" lon="10.325085550837509"><ele>136.0</ele><time>2026-03-28T17:15:22Z</time></trkpt><trkpt lat="45.48087787315343" lon="10.325011204889616"><ele>136.0</ele><time>2026-03-28T17:15:23Z</time></trkpt><trkpt lat="45.48071651850643" lon="10.32495665468616"><ele>136.0</ele><time>2026-03-28T17:15:24Z</time></trkpt><trkpt lat="45.48057092212274" lon="10.32494365846905"><ele>136.0</ele><time>2026-03-28T17:15:25Z</time></trkpt><trkpt lat="45.4804318624665" lon="10.324981133206382"><ele>136.0</ele><time>2026-03-28T17:15:26Z</time></trkpt><trkpt lat="45.48029703812831" lon="10.325050798385558"><ele>136.0</ele><time>2026-03-28T17:15:27Z</time></trkpt><trkpt lat="45.4801741919447" lon="10.325161748770913"><ele>135.75</ele><time>2026-03-28T17:15:28Z</time></trkpt><trkpt lat="45.480070153956" lon="10.325297031355927"><ele>135.5</ele><time>2026-03-28T17:15:29Z</time></trkpt><trkpt lat="45.47998965400162" lon="10.325467712549356"><ele>135.25</ele><time>2026-03-28T17:15:30Z</time></trkpt><trkpt lat="45.479932312924454" lon="10.325663500812974"><ele>135.0</ele><time>2026-03-28T17:15:31Z</time></trkpt><trkpt lat="45.479902800186224" lon="10.325876309581432"><ele>134.75</ele><time>2026-03-28T17:15:32Z</time></trkpt><trkpt lat="45.47989976700609" lon="10.326084659364174"><ele>134.5</ele><time>2026-03-28T17:15:33Z</time></trkpt><trkpt lat="45.47993556658618" lon="10.326283860393993"><ele>134.25</ele><time>2026-03-28T17:15:34Z</time></trkpt><trkpt lat="45.4800110908977" lon="10.326458858454"><ele>134.0</ele><time>2026-03-28T17:15:35Z</time></trkpt><trkpt lat="45.4800815781187" lon="10.32664231065456"><ele>134.0</ele><time>2026-03-28T17:15:36Z</time></trkpt><trkpt lat="45.48020745700328" lon="10.326767405157074"><ele>134.0</ele><time>2026-03-28T17:15:37Z</time></trkpt><trkpt lat="45.48034795212984" lon="10.326894810998203"><ele>134.0</ele><time>2026-03-28T17:15:38Z</time></trkpt><trkpt lat="45.480493284966606" lon="10.326987406811783"><ele>134.25</ele><time>2026-03-28T17:15:39Z</time></trkpt><trkpt lat="45.480627094830204" lon="10.327092176759379"><ele>134.5</ele><time>2026-03-28T17:15:40Z</time></trkpt><trkpt lat="45.48072470618635" lon="10.327233606502237"><ele>134.75</ele><time>2026-03-28T17:15:41Z</time></trkpt><trkpt lat="45.48078977901599" lon="10.327414795976795"><ele>135.0</ele><time>2026-03-28T17:15:42Z</time></trkpt><trkpt lat="45.480843862820706" lon="10.327615278788132"><ele>135.33333333333334</ele><time>2026-03-28T17:15:43Z</time></trkpt><trkpt lat="45.480867867764836" lon="10.327835750494987"><ele>135.66666666666669</ele><time>2026-03-28T17:15:44Z</time></trkpt><trkpt lat="45.480854534430755" lon="10.328058041122821"><ele>136.0</ele><time>2026-03-28T17:15:45Z</time></trkpt><trkpt lat="45.480822309597094" lon="10.328278024531581"><ele>136.0</ele><time>2026-03-28T17:15:46Z</time></trkpt><trkpt lat="45.48073930788303" lon="10.32850439228144"><ele>136.0</ele><time>2026-03-28T17:15:47Z</time></trkpt><trkpt lat="45.480676899685406" lon="10.328748876500628"><ele>136.0</ele><time>2026-03-28T17:15:48Z</time></trkpt><trkpt lat="45.480622626029366" lon="10.329011146015473"><ele>136.0</ele><time>2026-03-28T17:15:49Z</time></trkpt><trkpt lat="45.48056991451533" lon="10.329288652980544"><ele>136.0</ele><time>2026-03-28T17:15:50Z</time></trkpt><trkpt lat="45.48051488420065" lon="10.329582954582046"><ele>136.0</ele><time>2026-03-28T17:15:51Z</time></trkpt><trkpt lat="45.48045377364957" lon="10.329886629320928"><ele>136.0</ele><time>2026-03-28T17:15:52Z</time></trkpt><trkpt lat="45.480386257965414" lon="10.330206495688564"><ele>136.0</ele><time>2026-03-28T17:15:53Z</time></trkpt><trkpt lat="45.48031439697187" lon="10.330535794075052"><ele>137.0</ele><time>2026-03-28T17:15:54Z</time></trkpt><trkpt lat="45.48023964894629" lon="10.330876873948881"><ele>138.0</ele><time>2026-03-28T17:15:55Z</time></trkpt><trkpt lat="45.480160916450046" lon="10.331222773325283"><ele>137.0</ele><time>2026-03-28T17:15:56Z</time></trkpt><trkpt lat="45.48007724220898" lon="10.331573903265532"><ele>136.0</ele><time>2026-03-28T17:15:57Z</time></trkpt><trkpt lat="45.47999728505794" lon="10.33194231436471"><ele>135.0</ele><time>2026-03-28T17:15:58Z</time></trkpt><trkpt lat="45.47991322199378" lon="10.332317801549177"><ele>134.0</ele><time>2026-03-28T17:15:59Z</time></trkpt><trkpt lat="45.479828596028085" lon="10.332697428171716"><ele>135.5</ele><time>2026-03-28T17:16:00Z</time></trkpt><trkpt lat="45.47974598296291" lon="10.333085417693109"><ele>137.0</ele><time>2026-03-28T17:16:01Z</time></trkpt><trkpt lat="45.47966084573403" lon="10.333476785424528"><ele>137.0</ele><time>2026-03-28T17:16:02Z</time></trkpt><trkpt lat="45.47957237445237" lon="10.333872782132643"><ele>137.0</ele><time>2026-03-28T17:16:03Z</time></trkpt><trkpt lat="45.4794855871218" lon="10.334272645673108"><ele>137.0</ele><time>2026-03-28T17:16:04Z</time></trkpt><trkpt lat="45.479396084985325" lon="10.334674239197083"><ele>137.0</ele><time>2026-03-28T17:16:05Z</time></trkpt><trkpt lat="45.4793046657794" lon="10.335082044633271"><ele>137.0</ele><time>2026-03-28T17:16:06Z</time></trkpt><trkpt lat="45.47921073411022" lon="10.33549021302251"><ele>137.0</ele><time>2026-03-28T17:16:07Z</time></trkpt><trkpt lat="45.4791167563253" lon="10.335900529585114"><ele>136.5</ele><time>2026-03-28T17:16:08Z</time></trkpt><trkpt lat="45.479023597895576" lon="10.33630898504985"><ele>136.0</ele><time>2026-03-28T17:16:09Z</time></trkpt><trkpt lat="45.47893119201501" lon="10.336718860675441"><ele>136.0</ele><time>2026-03-28T17:16:10Z</time></trkpt><trkpt lat="45.478840568820246" lon="10.33712946104802"><ele>136.0</ele><time>2026-03-28T17:16:11Z</time></trkpt><trkpt lat="45.47874881438416" lon="10.337537450103769"><ele>136.0</ele><time>2026-03-28T17:16:12Z</time></trkpt><trkpt lat="45.4786571959412" lon="10.337946239689161"><ele>136.0</ele><time>2026-03-28T17:16:13Z</time></trkpt><trkpt lat="45.47856582365735" lon="10.338355861975002"><ele>136.0</ele><time>2026-03-28T17:16:14Z</time></trkpt><trkpt lat="45.47847433174674" lon="10.338764371433776"><ele>136.0</ele><time>2026-03-28T17:16:15Z</time></trkpt><trkpt lat="45.47838342440212" lon="10.339177835305623"><ele>136.0</ele><time>2026-03-28T17:16:16Z</time></trkpt><trkpt lat="45.47829371365536" lon="10.339596059496246"><ele>136.0</ele><time>2026-03-28T17:16:17Z</time></trkpt><trkpt lat="45.47820471261396" lon="10.340020876346601"><ele>136.0</ele><time>2026-03-28T17:16:18Z</time></trkpt><trkpt lat="45.47811525685178" lon="10.340448016436167"><ele>136.0</ele><time>2026-03-28T17:16:19Z</time></trkpt><trkpt lat="45.478024692215286" lon="10.340879864813363"><ele>136.0</ele><time>2026-03-28T17:16:20Z</time></trkpt><trkpt lat="45.47793125768245" lon="10.341316089154613"><ele>136.0</ele><time>2026-03-28T17:16:21Z</time></trkpt><trkpt lat="45.47783670080915" lon="10.341757166075466"><ele>136.0</ele><time>2026-03-28T17:16:22Z</time></trkpt><trkpt lat="45.47774167586673" lon="10.342204513699699"><ele>136.0</ele><time>2026-03-28T17:16:23Z</time></trkpt><trkpt lat="45.47764585051469" lon="10.342654543733289"><ele>135.5</ele><time>2026-03-28T17:16:24Z</time></trkpt><trkpt lat="45.47754996256287" lon="10.343106537396135"><ele>135.0</ele><time>2026-03-28T17:16:25Z</time></trkpt><trkpt lat="45.47745170829064" lon="10.343559838552762"><ele>136.0</ele><time>2026-03-28T17:16:26Z</time></trkpt><trkpt lat="45.47735304974025" lon="10.344015184293372"><ele>137.0</ele><time>2026-03-28T17:16:27Z</time></trkpt><trkpt lat="45.47725182275855" lon="10.344471836388163"><ele>136.5</ele><time>2026-03-28T17:16:28Z</time></trkpt><trkpt lat="45.47714622392946" lon="10.344928909698018"><ele>136.0</ele><time>2026-03-28T17:16:29Z</time></trkpt><trkpt lat="45.47704060103333" lon="10.345388463085346"><ele>135.5</ele><time>2026-03-28T17:16:30Z</time></trkpt><trkpt lat="45.47693702821847" lon="10.345852531013545"><ele>135.0</ele><time>2026-03-28T17:16:31Z</time></trkpt><trkpt lat="45.47683042319276" lon="10.346317070126831"><ele>135.5</ele><time>2026-03-28T17:16:32Z</time></trkpt><trkpt lat="45.47672375124525" lon="10.346782843646045"><ele>136.0</ele><time>2026-03-28T17:16:33Z</time></trkpt><trkpt lat="45.47661784918714" lon="10.347245817085836"><ele>136.5</ele><time>2026-03-28T17:16:33.999Z</time></trkpt><trkpt lat="45.476512615701616" lon="10.347705871753423"><ele>137.0</ele><time>2026-03-28T17:16:34.999Z</time></trkpt><trkpt lat="45.476408815188194" lon="10.348166508040817"><ele>137.0</ele><time>2026-03-28T17:16:35.999Z</time></trkpt><trkpt lat="45.476307474299865" lon="10.34862822883714"><ele>137.0</ele><time>2026-03-28T17:16:36.999Z</time></trkpt><trkpt lat="45.476204506550154" lon="10.349090578738403"><ele>137.0</ele><time>2026-03-28T17:16:37.999Z</time></trkpt><trkpt lat="45.47609981003575" lon="10.349552086300395"><ele>137.0</ele><time>2026-03-28T17:16:38.999Z</time></trkpt><trkpt lat="45.47599539602326" lon="10.350013548555204"><ele>137.0</ele><time>2026-03-28T17:16:39.999Z</time></trkpt><trkpt lat="45.47589339645042" lon="10.350476482512095"><ele>137.0</ele><time>2026-03-28T17:16:40.999Z</time></trkpt><trkpt lat="45.47579145313812" lon="10.350938434087578"><ele>137.0</ele><time>2026-03-28T17:16:41.999Z</time></trkpt><trkpt lat="45.475687253581086" lon="10.351399688594677"><ele>137.0</ele><time>2026-03-28T17:16:42.999Z</time></trkpt><trkpt lat="45.475581313598084" lon="10.351859820494616"><ele>136.5</ele><time>2026-03-28T17:16:43.999Z</time></trkpt><trkpt lat="45.47547569942718" lon="10.352320897492833"><ele>136.0</ele><time>2026-03-28T17:16:44.999Z</time></trkpt><trkpt lat="45.47536955920256" lon="10.352782109893177"><ele>136.5</ele><time>2026-03-28T17:16:45.999Z</time></trkpt><trkpt lat="45.475264189993766" lon="10.35324173586905"><ele>137.0</ele><time>2026-03-28T17:16:46.999Z</time></trkpt><trkpt lat="45.47515807319473" lon="10.35370221739588"><ele>137.0</ele><time>2026-03-28T17:16:47.999Z</time></trkpt><trkpt lat="45.475056745484075" lon="10.354159334505482"><ele>137.0</ele><time>2026-03-28T17:16:48.999Z</time></trkpt><trkpt lat="45.47495092955704" lon="10.354620009384465"><ele>137.0</ele><time>2026-03-28T17:16:49.999Z</time></trkpt><trkpt lat="45.474846841058145" lon="10.355082769090073"><ele>137.0</ele><time>2026-03-28T17:16:50.999Z</time></trkpt><trkpt lat="45.47474395942966" lon="10.355542784282944"><ele>137.0</ele><time>2026-03-28T17:16:51.999Z</time></trkpt><trkpt lat="45.47463864560155" lon="10.356004099159101"><ele>137.0</ele><time>2026-03-28T17:16:52.999Z</time></trkpt><trkpt lat="45.474533192620775" lon="10.356465486257562"><ele>136.0</ele><time>2026-03-28T17:16:53.999Z</time></trkpt><trkpt lat="45.474429099497705" lon="10.356926885802528"><ele>135.0</ele><time>2026-03-28T17:16:54.999Z</time></trkpt><trkpt lat="45.474327109553535" lon="10.357387497013045"><ele>135.0</ele><time>2026-03-28T17:16:55.999Z</time></trkpt><trkpt lat="45.47422665105151" lon="10.357850560306796"><ele>135.0</ele><time>2026-03-28T17:16:56.999Z</time></trkpt><trkpt lat="45.474124007940354" lon="10.358312814193848"><ele>135.0</ele><time>2026-03-28T17:16:57.999Z</time></trkpt><trkpt lat="45.474020534871464" lon="10.358777215371477"><ele>135.0</ele><time>2026-03-28T17:16:58.999Z</time></trkpt><trkpt lat="45.473915257825354" lon="10.359241581245158"><ele>135.5</ele><time>2026-03-28T17:17:00Z</time></trkpt><trkpt lat="45.473810045216176" lon="10.359700397239259"><ele>136.0</ele><time>2026-03-28T17:17:01Z</time></trkpt><trkpt lat="45.47370470287026" lon="10.360159697589813"><ele>135.5</ele><time>2026-03-28T17:17:02Z</time></trkpt><trkpt lat="45.47360119277168" lon="10.360619944974864"><ele>135.0</ele><time>2026-03-28T17:17:03Z</time></trkpt><trkpt lat="45.473495279846595" lon="10.361084091201453"><ele>135.0</ele><time>2026-03-28T17:17:04Z</time></trkpt><trkpt lat="45.473392835247644" lon="10.361545991759858"><ele>135.0</ele><time>2026-03-28T17:17:05Z</time></trkpt><trkpt lat="45.47328875939099" lon="10.362006936162715"><ele>135.0</ele><time>2026-03-28T17:17:06Z</time></trkpt><trkpt lat="45.47318436377218" lon="10.362469642857501"><ele>135.0</ele><time>2026-03-28T17:17:07Z</time></trkpt><trkpt lat="45.473080895606955" lon="10.362932497422628"><ele>134.5</ele><time>2026-03-28T17:17:08Z</time></trkpt><trkpt lat="45.4729799364159" lon="10.363395842068261"><ele>134.0</ele><time>2026-03-28T17:17:09Z</time></trkpt><trkpt lat="45.47287747095791" lon="10.363856275816799"><ele>134.5</ele><time>2026-03-28T17:17:10Z</time></trkpt><trkpt lat="45.472773988320085" lon="10.364317101683993"><ele>135.0</ele><time>2026-03-28T17:17:11Z</time></trkpt><trkpt lat="45.472671168330656" lon="10.36477864569316"><ele>135.0</ele><time>2026-03-28T17:17:12Z</time></trkpt><trkpt lat="45.47256837161334" lon="10.365237730117668"><ele>135.0</ele><time>2026-03-28T17:17:13Z</time></trkpt><trkpt lat="45.47246568909812" lon="10.36569972734847"><ele>135.5</ele><time>2026-03-28T17:17:14Z</time></trkpt><trkpt lat="45.47236243355595" lon="10.366160927153873"><ele>136.0</ele><time>2026-03-28T17:17:15Z</time></trkpt><trkpt lat="45.47225550155391" lon="10.366618647985478"><ele>136.0</ele><time>2026-03-28T17:17:16Z</time></trkpt><trkpt lat="45.47214757981391" lon="10.367077247850895"><ele>136.0</ele><time>2026-03-28T17:17:17Z</time></trkpt><trkpt lat="45.47204246489284" lon="10.367537827281021"><ele>136.0</ele><time>2026-03-28T17:17:18Z</time></trkpt><trkpt lat="45.471939017334854" lon="10.367997960450825"><ele>136.0</ele><time>2026-03-28T17:17:19Z</time></trkpt><trkpt lat="45.47183492004622" lon="10.368457438731305"><ele>136.0</ele><time>2026-03-28T17:17:20Z</time></trkpt><trkpt lat="45.471731294016166" lon="10.368916671927375"><ele>136.0</ele><time>2026-03-28T17:17:21Z</time></trkpt><trkpt lat="45.47162779964033" lon="10.369377584904353"><ele>136.5</ele><time>2026-03-28T17:17:22Z</time></trkpt><trkpt lat="45.47152319035806" lon="10.36983918418732"><ele>137.0</ele><time>2026-03-28T17:17:23Z</time></trkpt><trkpt lat="45.47141795620579" lon="10.370299165894632"><ele>136.5</ele><time>2026-03-28T17:17:24Z</time></trkpt><trkpt lat="45.47131245777815" lon="10.37076011461392"><ele>136.0</ele><time>2026-03-28T17:17:25Z</time></trkpt><trkpt lat="45.47120596570609" lon="10.371218745788655"><ele>135.5</ele><time>2026-03-28T17:17:26Z</time></trkpt><trkpt lat="45.471094600209106" lon="10.371675370346706"><ele>135.0</ele><time>2026-03-28T17:17:27Z</time></trkpt><trkpt lat="45.47098147084745" lon="10.372131570611838"><ele>135.0</ele><time>2026-03-28T17:17:28Z</time></trkpt><trkpt lat="45.47087207691096" lon="10.372592155531429"><ele>135.0</ele><time>2026-03-28T17:17:29Z</time></trkpt><trkpt lat="45.47076786603763" lon="10.373053864246934"><ele>135.0</ele><time>2026-03-28T17:17:30Z</time></trkpt><trkpt lat="45.47066433916599" lon="10.373512127240426"><ele>135.0</ele><time>2026-03-28T17:17:31Z</time></trkpt><trkpt lat="45.47055982961221" lon="10.373973573617047"><ele>135.0</ele><time>2026-03-28T17:17:32Z</time></trkpt><trkpt lat="45.4704541656632" lon="10.374432784329272"><ele>135.0</ele><time>2026-03-28T17:17:33Z</time></trkpt><trkpt lat="45.470348346120396" lon="10.374891745626053"><ele>135.0</ele><time>2026-03-28T17:17:34Z</time></trkpt><trkpt lat="45.47024487119488" lon="10.37535310100854"><ele>135.0</ele><time>2026-03-28T17:17:35Z</time></trkpt><trkpt lat="45.47013999088474" lon="10.375813139697092"><ele>135.0</ele><time>2026-03-28T17:17:36Z</time></trkpt><trkpt lat="45.47003401475224" lon="10.37627719356297"><ele>135.0</ele><time>2026-03-28T17:17:37Z</time></trkpt><trkpt lat="45.4699293909442" lon="10.37673878794705"><ele>135.5</ele><time>2026-03-28T17:17:38Z</time></trkpt><trkpt lat="45.46982515239782" lon="10.377199100653057"><ele>136.0</ele><time>2026-03-28T17:17:39Z</time></trkpt><trkpt lat="45.46972224067485" lon="10.377659067378872"><ele>136.0</ele><time>2026-03-28T17:17:40Z</time></trkpt><trkpt lat="45.46961873504952" lon="10.378121287248618"><ele>136.0</ele><time>2026-03-28T17:17:41Z</time></trkpt><trkpt lat="45.46951360926505" lon="10.378580106951429"><ele>136.0</ele><time>2026-03-28T17:17:42Z</time></trkpt><trkpt lat="45.469408614279445" lon="10.379042745390525"><ele>136.0</ele><time>2026-03-28T17:17:43Z</time></trkpt><trkpt lat="45.46930480350129" lon="10.379504708760841"><ele>135.0</ele><time>2026-03-28T17:17:44Z</time></trkpt><trkpt lat="45.46920038995001" lon="10.379967808735566"><ele>134.0</ele><time>2026-03-28T17:17:45Z</time></trkpt><trkpt lat="45.46909391952663" lon="10.380426946158344"><ele>134.5</ele><time>2026-03-28T17:17:46Z</time></trkpt><trkpt lat="45.46898742012635" lon="10.380888421123931"><ele>135.0</ele><time>2026-03-28T17:17:47Z</time></trkpt><trkpt lat="45.468883983087096" lon="10.381351348756473"><ele>135.0</ele><time>2026-03-28T17:17:48Z</time></trkpt><trkpt lat="45.46878047910992" lon="10.381812711343192"><ele>135.0</ele><time>2026-03-28T17:17:49Z</time></trkpt><trkpt lat="45.46867534407076" lon="10.382274590979355"><ele>135.0</ele><time>2026-03-28T17:17:50Z</time></trkpt><trkpt lat="45.46857179309193" lon="10.38273553581375"><ele>135.0</ele><time>2026-03-28T17:17:51Z</time></trkpt><trkpt lat="45.4684686143816" lon="10.383197189148621"><ele>135.0</ele><time>2026-03-28T17:17:52Z</time></trkpt><trkpt lat="45.468369172485744" lon="10.383657263476653"><ele>135.0</ele><time>2026-03-28T17:17:53Z</time></trkpt><trkpt lat="45.46827244091105" lon="10.38412309908555"><ele>134.5</ele><time>2026-03-28T17:17:54Z</time></trkpt><trkpt lat="45.468177960824505" lon="10.384590131330205"><ele>134.0</ele><time>2026-03-28T17:17:55Z</time></trkpt><trkpt lat="45.46809346577351" lon="10.385061438315038"><ele>134.0</ele><time>2026-03-28T17:17:56Z</time></trkpt><trkpt lat="45.468016448780084" lon="10.3855308284738"><ele>134.0</ele><time>2026-03-28T17:17:57Z</time></trkpt><trkpt lat="45.46794217319884" lon="10.38600288123401"><ele>133.5</ele><time>2026-03-28T17:17:58Z</time></trkpt><trkpt lat="45.46786610133463" lon="10.386474564683922"><ele>133.0</ele><time>2026-03-28T17:17:59Z</time></trkpt><trkpt lat="45.4677882451207" lon="10.38694641081516"><ele>133.0</ele><time>2026-03-28T17:18:00Z</time></trkpt><trkpt lat="45.467708973468305" lon="10.387417698896952"><ele>133.0</ele><time>2026-03-28T17:18:01Z</time></trkpt><trkpt lat="45.46762790954673" lon="10.387886486394354"><ele>132.5</ele><time>2026-03-28T17:18:02Z</time></trkpt><trkpt lat="45.46754645271299" lon="10.388359061583584"><ele>132.0</ele><time>2026-03-28T17:18:03Z</time></trkpt><trkpt lat="45.46746721545698" lon="10.38883180993859"><ele>132.0</ele><time>2026-03-28T17:18:04Z</time></trkpt><trkpt lat="45.46738785909471" lon="10.389303855623645"><ele>132.0</ele><time>2026-03-28T17:18:05Z</time></trkpt><trkpt lat="45.467309755579066" lon="10.38977599497513"><ele>132.0</ele><time>2026-03-28T17:18:06Z</time></trkpt><trkpt lat="45.46723331420562" lon="10.390247354740323"><ele>132.0</ele><time>2026-03-28T17:18:07Z</time></trkpt><trkpt lat="45.4671538801221" lon="10.39071744045345"><ele>131.5</ele><time>2026-03-28T17:18:08Z</time></trkpt><trkpt lat="45.46707573371067" lon="10.391188859571548"><ele>131.0</ele><time>2026-03-28T17:18:09Z</time></trkpt><trkpt lat="45.46699842367195" lon="10.39165908581522"><ele>131.0</ele><time>2026-03-28T17:18:10Z</time></trkpt><trkpt lat="45.46691978511604" lon="10.39213013307923"><ele>131.0</ele><time>2026-03-28T17:18:11Z</time></trkpt><trkpt lat="45.46683840464145" lon="10.392599734779697"><ele>130.0</ele><time>2026-03-28T17:18:12Z</time></trkpt><trkpt lat="45.46675823138665" lon="10.393072623253211"><ele>129.0</ele><time>2026-03-28T17:18:13Z</time></trkpt><trkpt lat="45.46667873264359" lon="10.393543969035587"><ele>129.5</ele><time>2026-03-28T17:18:14Z</time></trkpt><trkpt lat="45.46659837924994" lon="10.394015457947123"><ele>130.0</ele><time>2026-03-28T17:18:15Z</time></trkpt><trkpt lat="45.466519641427126" lon="10.394486420638234"><ele>129.5</ele><time>2026-03-28T17:18:16Z</time></trkpt><trkpt lat="45.466441502015265" lon="10.394956343012176"><ele>129.0</ele><time>2026-03-28T17:18:17Z</time></trkpt><trkpt lat="45.46636369865792" lon="10.395427162301043"><ele>129.5</ele><time>2026-03-28T17:18:18Z</time></trkpt><trkpt lat="45.46628686323393" lon="10.39589768068557"><ele>130.0</ele><time>2026-03-28T17:18:19Z</time></trkpt><trkpt lat="45.46620743507983" lon="10.396367760172234"><ele>130.0</ele><time>2026-03-28T17:18:20Z</time></trkpt><trkpt lat="45.46612847300819" lon="10.39684263996795"><ele>130.0</ele><time>2026-03-28T17:18:21Z</time></trkpt><trkpt lat="45.466050204950385" lon="10.397314739169536"><ele>130.0</ele><time>2026-03-28T17:18:22Z</time></trkpt><trkpt lat="45.4659728582419" lon="10.397787994073376"><ele>130.0</ele><time>2026-03-28T17:18:23Z</time></trkpt><trkpt lat="45.46589589478883" lon="10.398260937658163"><ele>130.0</ele><time>2026-03-28T17:18:24Z</time></trkpt><trkpt lat="45.46581955240062" lon="10.398732973223918"><ele>130.0</ele><time>2026-03-28T17:18:25Z</time></trkpt><trkpt lat="45.46574522732079" lon="10.399206113778959"><ele>130.5</ele><time>2026-03-28T17:18:26Z</time></trkpt><trkpt lat="45.46567423037768" lon="10.39967930050898"><ele>131.0</ele><time>2026-03-28T17:18:27Z</time></trkpt><trkpt lat="45.46560897955522" lon="10.400155218002643"><ele>131.5</ele><time>2026-03-28T17:18:28Z</time></trkpt><trkpt lat="45.46555715055435" lon="10.400631551381682"><ele>132.0</ele><time>2026-03-28T17:18:29Z</time></trkpt><trkpt lat="45.46551437274801" lon="10.401110420088692"><ele>131.0</ele><time>2026-03-28T17:18:30Z</time></trkpt><trkpt lat="45.465479118915454" lon="10.401591086449054"><ele>130.0</ele><time>2026-03-28T17:18:31Z</time></trkpt><trkpt lat="45.465442336953146" lon="10.402067486800732"><ele>128.5</ele><time>2026-03-28T17:18:32Z</time></trkpt><trkpt lat="45.46540399135985" lon="10.402554433531922"><ele>127.0</ele><time>2026-03-28T17:18:33Z</time></trkpt><trkpt lat="45.46536350801493" lon="10.40303654207008"><ele>127.0</ele><time>2026-03-28T17:18:34Z</time></trkpt><trkpt lat="45.46532116193047" lon="10.403517689943781"><ele>127.0</ele><time>2026-03-28T17:18:35Z</time></trkpt><trkpt lat="45.465278463353044" lon="10.403998674962105"><ele>126.5</ele><time>2026-03-28T17:18:36Z</time></trkpt><trkpt lat="45.46523398978135" lon="10.404479060137295"><ele>126.0</ele><time>2026-03-28T17:18:37Z</time></trkpt><trkpt lat="45.46519445786043" lon="10.404960660778691"><ele>126.0</ele><time>2026-03-28T17:18:38Z</time></trkpt><trkpt lat="45.46515715697959" lon="10.405439829775608"><ele>126.0</ele><time>2026-03-28T17:18:39Z</time></trkpt><trkpt lat="45.465119886289564" lon="10.405919073575268"><ele>126.5</ele><time>2026-03-28T17:18:40Z</time></trkpt><trkpt lat="45.465081516635586" lon="10.40639965898264"><ele>127.0</ele><time>2026-03-28T17:18:41Z</time></trkpt><trkpt lat="45.465041903835704" lon="10.406879547739102"><ele>128.5</ele><time>2026-03-28T17:18:42Z</time></trkpt><trkpt lat="45.46500117700934" lon="10.40736086694527"><ele>130.0</ele><time>2026-03-28T17:18:43Z</time></trkpt><trkpt lat="45.464958680660864" lon="10.407842339920967"><ele>130.0</ele><time>2026-03-28T17:18:44Z</time></trkpt><trkpt lat="45.464918432325945" lon="10.408323938499244"><ele>130.0</ele><time>2026-03-28T17:18:45Z</time></trkpt><trkpt lat="45.464880178446045" lon="10.408804585192676"><ele>130.5</ele><time>2026-03-28T17:18:46Z</time></trkpt><trkpt lat="45.46484270621973" lon="10.409284613846609"><ele>131.0</ele><time>2026-03-28T17:18:47Z</time></trkpt><trkpt lat="45.464804588354205" lon="10.409762411197091"><ele>132.0</ele><time>2026-03-28T17:18:48Z</time></trkpt><trkpt lat="45.46476866581541" lon="10.41024064427537"><ele>133.0</ele><time>2026-03-28T17:18:48.999Z</time></trkpt><trkpt lat="45.46473366799777" lon="10.41071970504143"><ele>134.5</ele><time>2026-03-28T17:18:49.999Z</time></trkpt><trkpt lat="45.46469507320665" lon="10.411197595433324"><ele>136.0</ele><time>2026-03-28T17:18:50.999Z</time></trkpt><trkpt lat="45.464653978400484" lon="10.411674512337544"><ele>137.0</ele><time>2026-03-28T17:18:51.999Z</time></trkpt><trkpt lat="45.46461479675075" lon="10.412154128551947"><ele>138.0</ele><time>2026-03-28T17:18:52.999Z</time></trkpt><trkpt lat="45.46457858598123" lon="10.412630906930572"><ele>137.0</ele><time>2026-03-28T17:18:53.999Z</time></trkpt><trkpt lat="45.46454270932886" lon="10.413112182069094"><ele>136.0</ele><time>2026-03-28T17:18:54.999Z</time></trkpt><trkpt lat="45.46450435656812" lon="10.413595580027048"><ele>137.0</ele><time>2026-03-28T17:18:55.999Z</time></trkpt><trkpt lat="45.464463638642684" lon="10.414079156104744"><ele>138.0</ele><time>2026-03-28T17:18:56.999Z</time></trkpt><trkpt lat="45.464422202936916" lon="10.41456345503047"><ele>140.0</ele><time>2026-03-28T17:18:57.999Z</time></trkpt><trkpt lat="45.46438270462864" lon="10.415047051336215"><ele>142.0</ele><time>2026-03-28T17:18:58.999Z</time></trkpt><trkpt lat="45.46434307142964" lon="10.41553163513225"><ele>144.5</ele><time>2026-03-28T17:18:59.999Z</time></trkpt><trkpt lat="45.46430344497617" lon="10.416016689611078"><ele>147.0</ele><time>2026-03-28T17:19:00.999Z</time></trkpt><trkpt lat="45.46426330327929" lon="10.416502606662533"><ele>148.0</ele><time>2026-03-28T17:19:01.999Z</time></trkpt><trkpt lat="45.46422433507704" lon="10.416988187736107"><ele>149.0</ele><time>2026-03-28T17:19:02.999Z</time></trkpt><trkpt lat="45.464186206659264" lon="10.4174756977535"><ele>149.0</ele><time>2026-03-28T17:19:03.999Z</time></trkpt><trkpt lat="45.46414819267723" lon="10.417962827060855"><ele>149.0</ele><time>2026-03-28T17:19:04.999Z</time></trkpt><trkpt lat="45.46410812284419" lon="10.418449400175431"><ele>152.5</ele><time>2026-03-28T17:19:06Z</time></trkpt><trkpt lat="45.464067713039846" lon="10.418935240186588"><ele>156.0</ele><time>2026-03-28T17:19:07Z</time></trkpt><trkpt lat="45.46402493003388" lon="10.419421462792863"><ele>157.5</ele><time>2026-03-28T17:19:08Z</time></trkpt><trkpt lat="45.46398265753016" lon="10.41990880859722"><ele>159.0</ele><time>2026-03-28T17:19:09Z</time></trkpt><trkpt lat="45.463938865335074" lon="10.420395021442806"><ele>155.5</ele><time>2026-03-28T17:19:10Z</time></trkpt><trkpt lat="45.463896363799705" lon="10.42088076140026"><ele>152.0</ele><time>2026-03-28T17:19:11Z</time></trkpt><trkpt lat="45.46385774882503" lon="10.421368831732162"><ele>148.5</ele><time>2026-03-28T17:19:12Z</time></trkpt><trkpt lat="45.46382109276968" lon="10.421858084559116"><ele>145.0</ele><time>2026-03-28T17:19:13Z</time></trkpt><trkpt lat="45.46378194865552" lon="10.422344012877035"><ele>142.5</ele><time>2026-03-28T17:19:14Z</time></trkpt><trkpt lat="45.46374140227985" lon="10.422829463365689"><ele>140.0</ele><time>2026-03-28T17:19:15Z</time></trkpt><trkpt lat="45.46370052394329" lon="10.423316889134318"><ele>138.0</ele><time>2026-03-28T17:19:16Z</time></trkpt><trkpt lat="45.463661618085325" lon="10.423805120327097"><ele>136.0</ele><time>2026-03-28T17:19:17Z</time></trkpt><trkpt lat="45.463623660893816" lon="10.4242925441856"><ele>133.0</ele><time>2026-03-28T17:19:18Z</time></trkpt><trkpt lat="45.46358739633797" lon="10.424778635539383"><ele>130.0</ele><time>2026-03-28T17:19:19Z</time></trkpt><trkpt lat="45.46354960556312" lon="10.425265409230215"><ele>130.0</ele><time>2026-03-28T17:19:20Z</time></trkpt><trkpt lat="45.46351139399949" lon="10.425753068925285"><ele>130.0</ele><time>2026-03-28T17:19:21Z</time></trkpt><trkpt lat="45.46347202850697" lon="10.426239624807796"><ele>130.5</ele><time>2026-03-28T17:19:22Z</time></trkpt><trkpt lat="45.463434920234064" lon="10.426725104235855"><ele>131.0</ele><time>2026-03-28T17:19:23Z</time></trkpt><trkpt lat="45.463399105100436" lon="10.427210407442074"><ele>131.5</ele><time>2026-03-28T17:19:24Z</time></trkpt><trkpt lat="45.46336327089496" lon="10.42769367830443"><ele>132.0</ele><time>2026-03-28T17:19:25Z</time></trkpt><trkpt lat="45.46332649854165" lon="10.428176398432297"><ele>132.0</ele><time>2026-03-28T17:19:26Z</time></trkpt><trkpt lat="45.46328862327449" lon="10.428659018661609"><ele>132.0</ele><time>2026-03-28T17:19:27Z</time></trkpt><trkpt lat="45.46324748603663" lon="10.429141593456457"><ele>132.0</ele><time>2026-03-28T17:19:28Z</time></trkpt><trkpt lat="45.463203117545284" lon="10.429622646385223"><ele>132.0</ele><time>2026-03-28T17:19:29Z</time></trkpt><trkpt lat="45.463153389106466" lon="10.430102858943448"><ele>132.0</ele><time>2026-03-28T17:19:30Z</time></trkpt><trkpt lat="45.46309597529038" lon="10.430582203034664"><ele>132.0</ele><time>2026-03-28T17:19:31Z</time></trkpt><trkpt lat="45.463031238762014" lon="10.43105960868197"><ele>132.0</ele><time>2026-03-28T17:19:32Z</time></trkpt><trkpt lat="45.46296048278372" lon="10.431536106085543"><ele>132.0</ele><time>2026-03-28T17:19:33Z</time></trkpt><trkpt lat="45.46288365984957" lon="10.432010762920187"><ele>132.5</ele><time>2026-03-28T17:19:34Z</time></trkpt><trkpt lat="45.46280030142559" lon="10.432482533665048"><ele>133.0</ele><time>2026-03-28T17:19:35Z</time></trkpt><trkpt lat="45.46270995029626" lon="10.432953271060505"><ele>132.5</ele><time>2026-03-28T17:19:36Z</time></trkpt><trkpt lat="45.46261449674979" lon="10.433421530122757"><ele>132.0</ele><time>2026-03-28T17:19:37Z</time></trkpt><trkpt lat="45.46251650114083" lon="10.433888109578069"><ele>132.0</ele><time>2026-03-28T17:19:38Z</time></trkpt><trkpt lat="45.462419152963086" lon="10.434354762620917"><ele>132.0</ele><time>2026-03-28T17:19:39Z</time></trkpt><trkpt lat="45.46232219460917" lon="10.434822629556706"><ele>132.0</ele><time>2026-03-28T17:19:40Z</time></trkpt><trkpt lat="45.462225062940576" lon="10.435290210543027"><ele>132.0</ele><time>2026-03-28T17:19:41Z</time></trkpt><trkpt lat="45.462126860846844" lon="10.43575640936559"><ele>131.5</ele><time>2026-03-28T17:19:42Z</time></trkpt><trkpt lat="45.46202831403159" lon="10.436224176341902"><ele>131.0</ele><time>2026-03-28T17:19:43Z</time></trkpt><trkpt lat="45.46193059983584" lon="10.43669154511281"><ele>131.0</ele><time>2026-03-28T17:19:44Z</time></trkpt><trkpt lat="45.46183339768763" lon="10.437158839119105"><ele>131.0</ele><time>2026-03-28T17:19:45Z</time></trkpt><trkpt lat="45.46173703449459" lon="10.437625721718446"><ele>130.5</ele><time>2026-03-28T17:19:46Z</time></trkpt><trkpt lat="45.461640146326886" lon="10.438090647026222"><ele>130.0</ele><time>2026-03-28T17:19:47Z</time></trkpt><trkpt lat="45.46154316399344" lon="10.438556238636236"><ele>130.5</ele><time>2026-03-28T17:19:48Z</time></trkpt><trkpt lat="45.461446287615665" lon="10.43902315818591"><ele>131.0</ele><time>2026-03-28T17:19:49Z</time></trkpt><trkpt lat="45.46135014033255" lon="10.439490574584884"><ele>131.0</ele><time>2026-03-28T17:19:50Z</time></trkpt><trkpt lat="45.461253196827826" lon="10.439956060639496"><ele>131.0</ele><time>2026-03-28T17:19:51Z</time></trkpt><trkpt lat="45.461154323523935" lon="10.440423223232898"><ele>132.0</ele><time>2026-03-28T17:19:52Z</time></trkpt><trkpt lat="45.461053916749215" lon="10.440889636873726"><ele>133.0</ele><time>2026-03-28T17:19:53Z</time></trkpt><trkpt lat="45.460950762301344" lon="10.441354144470823"><ele>133.0</ele><time>2026-03-28T17:19:54Z</time></trkpt><trkpt lat="45.46084714325721" lon="10.441818205214838"><ele>133.0</ele><time>2026-03-28T17:19:55Z</time></trkpt><trkpt lat="45.46074883572394" lon="10.442287846899319"><ele>133.5</ele><time>2026-03-28T17:19:56Z</time></trkpt><trkpt lat="45.4606508688055" lon="10.442754586201554"><ele>134.0</ele><time>2026-03-28T17:19:57Z</time></trkpt><trkpt lat="45.460549759748595" lon="10.443221624492805"><ele>134.0</ele><time>2026-03-28T17:19:58Z</time></trkpt><trkpt lat="45.46045022742653" lon="10.443688351289417"><ele>134.0</ele><time>2026-03-28T17:19:59Z</time></trkpt><trkpt lat="45.46035190689541" lon="10.44415570752919"><ele>133.5</ele><time>2026-03-28T17:20:00Z</time></trkpt><trkpt lat="45.46025485524558" lon="10.444623872830807"><ele>133.0</ele><time>2026-03-28T17:20:01Z</time></trkpt><trkpt lat="45.460157795413316" lon="10.44509003800838"><ele>132.5</ele><time>2026-03-28T17:20:02Z</time></trkpt><trkpt lat="45.46005980759906" lon="10.44555743272067"><ele>132.0</ele><time>2026-03-28T17:20:03Z</time></trkpt><trkpt lat="45.45996291220652" lon="10.446024208258743"><ele>131.5</ele><time>2026-03-28T17:20:04Z</time></trkpt><trkpt lat="45.45986610782431" lon="10.446492703624543"><ele>131.0</ele><time>2026-03-28T17:20:05Z</time></trkpt><trkpt lat="45.45976890418644" lon="10.446960412096502"><ele>131.5</ele><time>2026-03-28T17:20:06Z</time></trkpt><trkpt lat="45.45967096965686" lon="10.447428327610869"><ele>132.0</ele><time>2026-03-28T17:20:07Z</time></trkpt><trkpt lat="45.459572294658045" lon="10.447896427976008"><ele>132.5</ele><time>2026-03-28T17:20:08Z</time></trkpt><trkpt lat="45.459474252686114" lon="10.448363179476477"><ele>133.0</ele><time>2026-03-28T17:20:09Z</time></trkpt><trkpt lat="45.459376592763206" lon="10.448830140597781"><ele>133.5</ele><time>2026-03-28T17:20:10Z</time></trkpt><trkpt lat="45.4592784304878" lon="10.44929763033707"><ele>134.0</ele><time>2026-03-28T17:20:11Z</time></trkpt><trkpt lat="45.45918155858457" lon="10.449764464135825"><ele>134.5</ele><time>2026-03-28T17:20:12Z</time></trkpt><trkpt lat="45.45908494476295" lon="10.450230721872149"><ele>135.0</ele><time>2026-03-28T17:20:13Z</time></trkpt><trkpt lat="45.458988244909115" lon="10.45069885389226"><ele>135.0</ele><time>2026-03-28T17:20:14Z</time></trkpt><trkpt lat="45.45889216345404" lon="10.45116592332418"><ele>135.0</ele><time>2026-03-28T17:20:15Z</time></trkpt><trkpt lat="45.45879508869451" lon="10.451632743494933"><ele>134.5</ele><time>2026-03-28T17:20:16Z</time></trkpt><trkpt lat="45.45869844466031" lon="10.452098923622332"><ele>134.0</ele><time>2026-03-28T17:20:17Z</time></trkpt><trkpt lat="45.45859860678819" lon="10.452565849244829"><ele>135.5</ele><time>2026-03-28T17:20:18Z</time></trkpt><trkpt lat="45.45849985816795" lon="10.45303077308611"><ele>137.0</ele><time>2026-03-28T17:20:19Z</time></trkpt><trkpt lat="45.45839763156144" lon="10.453497335146817"><ele>137.5</ele><time>2026-03-28T17:20:20Z</time></trkpt><trkpt lat="45.45828943477734" lon="10.453961816630684"><ele>138.0</ele><time>2026-03-28T17:20:21Z</time></trkpt><trkpt lat="45.45817901290777" lon="10.454421453699585"><ele>138.5</ele><time>2026-03-28T17:20:22Z</time></trkpt><trkpt lat="45.458065504055696" lon="10.454880690166178"><ele>139.0</ele><time>2026-03-28T17:20:23Z</time></trkpt><trkpt lat="45.45795086006879" lon="10.45533930252378"><ele>137.5</ele><time>2026-03-28T17:20:24Z</time></trkpt><trkpt lat="45.457834516590616" lon="10.455797626199338"><ele>136.0</ele><time>2026-03-28T17:20:25Z</time></trkpt><trkpt lat="45.457718685666464" lon="10.45625675302526"><ele>137.5</ele><time>2026-03-28T17:20:26Z</time></trkpt><trkpt lat="45.45760249772449" lon="10.4567165003478"><ele>139.0</ele><time>2026-03-28T17:20:27Z</time></trkpt><trkpt lat="45.45748791606341" lon="10.457176426198389"><ele>140.0</ele><time>2026-03-28T17:20:28Z</time></trkpt><trkpt lat="45.45737506721806" lon="10.457636345627835"><ele>141.0</ele><time>2026-03-28T17:20:29Z</time></trkpt><trkpt lat="45.45726197955996" lon="10.458095397885833"><ele>141.5</ele><time>2026-03-28T17:20:30Z</time></trkpt><trkpt lat="45.457149045963504" lon="10.45855298209933"><ele>142.0</ele><time>2026-03-28T17:20:31Z</time></trkpt><trkpt lat="45.457037043986666" lon="10.459012403877916"><ele>142.0</ele><time>2026-03-28T17:20:32Z</time></trkpt><trkpt lat="45.45692469617795" lon="10.459472384437088"><ele>142.0</ele><time>2026-03-28T17:20:33Z</time></trkpt><trkpt lat="45.45681204744619" lon="10.459931717916298"><ele>141.0</ele><time>2026-03-28T17:20:34Z</time></trkpt><trkpt lat="45.45669810248304" lon="10.46039107527404"><ele>140.0</ele><time>2026-03-28T17:20:35Z</time></trkpt><trkpt lat="45.45658409679985" lon="10.460851149479904"><ele>140.5</ele><time>2026-03-28T17:20:36Z</time></trkpt><trkpt lat="45.456470824768516" lon="10.46130909470526"><ele>141.0</ele><time>2026-03-28T17:20:37Z</time></trkpt><trkpt lat="45.45635666216303" lon="10.461770209350561"><ele>140.5</ele><time>2026-03-28T17:20:38Z</time></trkpt><trkpt lat="45.456240884452875" lon="10.46222838474172"><ele>140.0</ele><time>2026-03-28T17:20:39Z</time></trkpt><trkpt lat="45.456126230838095" lon="10.462685638349942"><ele>140.5</ele><time>2026-03-28T17:20:40Z</time></trkpt><trkpt lat="45.45601377332755" lon="10.463145964969886"><ele>141.0</ele><time>2026-03-28T17:20:40.999Z</time></trkpt><trkpt lat="45.455902635077365" lon="10.463605852781523"><ele>142.0</ele><time>2026-03-28T17:20:41.999Z</time></trkpt><trkpt lat="45.4557901186118" lon="10.464066923126772"><ele>143.0</ele><time>2026-03-28T17:20:42.999Z</time></trkpt><trkpt lat="45.4556764346394" lon="10.464524959884436"><ele>143.0</ele><time>2026-03-28T17:20:43.999Z</time></trkpt><trkpt lat="45.45555988385208" lon="10.464984025114768"><ele>143.0</ele><time>2026-03-28T17:20:44.999Z</time></trkpt><trkpt lat="45.455444250514404" lon="10.465445028279976"><ele>143.5</ele><time>2026-03-28T17:20:45.999Z</time></trkpt><trkpt lat="45.455327898462606" lon="10.465902729380918"><ele>144.0</ele><time>2026-03-28T17:20:46.999Z</time></trkpt><trkpt lat="45.45521202046317" lon="10.466361858468314"><ele>144.0</ele><time>2026-03-28T17:20:47.999Z</time></trkpt><trkpt lat="45.455098134060286" lon="10.466820921073898"><ele>144.0</ele><time>2026-03-28T17:20:48.999Z</time></trkpt><trkpt lat="45.454986543838054" lon="10.467279548186728"><ele>143.5</ele><time>2026-03-28T17:20:49.999Z</time></trkpt><trkpt lat="45.45487530644931" lon="10.46773980749437"><ele>143.0</ele><time>2026-03-28T17:20:50.999Z</time></trkpt><trkpt lat="45.454765896049466" lon="10.468200876482577"><ele>143.0</ele><time>2026-03-28T17:20:51.999Z</time></trkpt><trkpt lat="45.454659768147195" lon="10.468664082763842"><ele>143.0</ele><time>2026-03-28T17:20:52.999Z</time></trkpt><trkpt lat="45.45456150016456" lon="10.469129996115353"><ele>144.0</ele><time>2026-03-28T17:20:53.999Z</time></trkpt><trkpt lat="45.454467371119016" lon="10.469598975241519"><ele>145.0</ele><time>2026-03-28T17:20:54.999Z</time></trkpt><trkpt lat="45.45437989953552" lon="10.47007071726569"><ele>145.0</ele><time>2026-03-28T17:20:55.999Z</time></trkpt><trkpt lat="45.45430002938282" lon="10.470544121004416"><ele>145.0</ele><time>2026-03-28T17:20:56.999Z</time></trkpt><trkpt lat="45.454228987467395" lon="10.471019442841714"><ele>146.0</ele><time>2026-03-28T17:20:57.999Z</time></trkpt><trkpt lat="45.454162510088544" lon="10.471497164795414"><ele>147.0</ele><time>2026-03-28T17:20:58.999Z</time></trkpt><trkpt lat="45.45410061140193" lon="10.471976223761976"><ele>147.0</ele><time>2026-03-28T17:20:59.999Z</time></trkpt><trkpt lat="45.45404705021421" lon="10.47245959715163"><ele>147.0</ele><time>2026-03-28T17:21:00.999Z</time></trkpt><trkpt lat="45.4539971364016" lon="10.472943387760342"><ele>147.0</ele><time>2026-03-28T17:21:01.999Z</time></trkpt><trkpt lat="45.45395038300827" lon="10.473428337057886"><ele>147.0</ele><time>2026-03-28T17:21:02.999Z</time></trkpt><trkpt lat="45.45390710603369" lon="10.47391395505836"><ele>147.0</ele><time>2026-03-28T17:21:03.999Z</time></trkpt><trkpt lat="45.453863674003" lon="10.474399481837734"><ele>147.0</ele><time>2026-03-28T17:21:04.999Z</time></trkpt><trkpt lat="45.45381966789431" lon="10.474884485319368"><ele>147.0</ele><time>2026-03-28T17:21:05.999Z</time></trkpt><trkpt lat="45.45377762408316" lon="10.475369487248269"><ele>147.0</ele><time>2026-03-28T17:21:06.999Z</time></trkpt><trkpt lat="45.45373650345337" lon="10.475853957262368"><ele>148.5</ele><time>2026-03-28T17:21:07.999Z</time></trkpt><trkpt lat="45.45369809968" lon="10.476338893270114"><ele>150.0</ele><time>2026-03-28T17:21:08.999Z</time></trkpt><trkpt lat="45.45366952502706" lon="10.476826547951182"><ele>150.0</ele><time>2026-03-28T17:21:09.999Z</time></trkpt><trkpt lat="45.4536535303983" lon="10.477315076116264"><ele>150.0</ele><time>2026-03-28T17:21:10.999Z</time></trkpt><trkpt lat="45.453634247181014" lon="10.47780362002837"><ele>149.5</ele><time>2026-03-28T17:21:12Z</time></trkpt><trkpt lat="45.45360955186645" lon="10.478290048752424"><ele>149.0</ele><time>2026-03-28T17:21:13Z</time></trkpt><trkpt lat="45.45358522935027" lon="10.478779802497861"><ele>148.5</ele><time>2026-03-28T17:21:14Z</time></trkpt><trkpt lat="45.45356350569301" lon="10.479263664834276"><ele>148.0</ele><time>2026-03-28T17:21:15Z</time></trkpt><trkpt lat="45.4535422594315" lon="10.479750417223327"><ele>147.0</ele><time>2026-03-28T17:21:16Z</time></trkpt><trkpt lat="45.453524500106425" lon="10.480238803706719"><ele>146.0</ele><time>2026-03-28T17:21:17Z</time></trkpt><trkpt lat="45.453502296021995" lon="10.48072098435409"><ele>146.0</ele><time>2026-03-28T17:21:18Z</time></trkpt><trkpt lat="45.45348217149267" lon="10.481205108592707"><ele>146.0</ele><time>2026-03-28T17:21:19Z</time></trkpt><trkpt lat="45.453459379263236" lon="10.481687292630376"><ele>146.5</ele><time>2026-03-28T17:21:20Z</time></trkpt><trkpt lat="45.45343269945611" lon="10.482170021380494"><ele>147.0</ele><time>2026-03-28T17:21:21Z</time></trkpt><trkpt lat="45.45340476220375" lon="10.48265322782518"><ele>148.0</ele><time>2026-03-28T17:21:22Z</time></trkpt><trkpt lat="45.45336514754501" lon="10.483134693982402"><ele>149.0</ele><time>2026-03-28T17:21:23Z</time></trkpt><trkpt lat="45.45331487137879" lon="10.483615033647661"><ele>150.5</ele><time>2026-03-28T17:21:24Z</time></trkpt><trkpt lat="45.4532608818855" lon="10.484093670816291"><ele>152.0</ele><time>2026-03-28T17:21:25Z</time></trkpt><trkpt lat="45.45320379093122" lon="10.484571262037608"><ele>153.0</ele><time>2026-03-28T17:21:26Z</time></trkpt><trkpt lat="45.45314883812271" lon="10.485048470725406"><ele>154.0</ele><time>2026-03-28T17:21:27Z</time></trkpt><trkpt lat="45.45309464259468" lon="10.485526321147582"><ele>157.0</ele><time>2026-03-28T17:21:28Z</time></trkpt><trkpt lat="45.45304364493391" lon="10.486004821719057"><ele>160.0</ele><time>2026-03-28T17:21:29Z</time></trkpt><trkpt lat="45.45299084364699" lon="10.486485546538031"><ele>161.0</ele><time>2026-03-28T17:21:30Z</time></trkpt><trkpt lat="45.45293518173155" lon="10.486965533461424"><ele>162.0</ele><time>2026-03-28T17:21:31Z</time></trkpt><trkpt lat="45.45287782439116" lon="10.487445950677248"><ele>163.5</ele><time>2026-03-28T17:21:32Z</time></trkpt><trkpt lat="45.452822820684815" lon="10.487926686175578"><ele>165.0</ele><time>2026-03-28T17:21:33Z</time></trkpt><trkpt lat="45.45276602841917" lon="10.488406497192829"><ele>165.0</ele><time>2026-03-28T17:21:34Z</time></trkpt><trkpt lat="45.45270993721017" lon="10.488886368889286"><ele>165.0</ele><time>2026-03-28T17:21:35Z</time></trkpt><trkpt lat="45.452653764831155" lon="10.489364559467795"><ele>166.5</ele><time>2026-03-28T17:21:36Z</time></trkpt><trkpt lat="45.452597637397865" lon="10.48984419629318"><ele>168.0</ele><time>2026-03-28T17:21:37Z</time></trkpt><trkpt lat="45.4525407742485" lon="10.490322991481332"><ele>169.0</ele><time>2026-03-28T17:21:38Z</time></trkpt><trkpt lat="45.4524856993071" lon="10.490801690774116"><ele>170.0</ele><time>2026-03-28T17:21:39Z</time></trkpt><trkpt lat="45.45243079063637" lon="10.491280781060492"><ele>170.0</ele><time>2026-03-28T17:21:40Z</time></trkpt><trkpt lat="45.452376881572256" lon="10.491762141110621"><ele>170.0</ele><time>2026-03-28T17:21:41Z</time></trkpt><trkpt lat="45.45232166670333" lon="10.492243133497242"><ele>170.5</ele><time>2026-03-28T17:21:42Z</time></trkpt><trkpt lat="45.45226805113474" lon="10.492726366866167"><ele>171.0</ele><time>2026-03-28T17:21:43Z</time></trkpt><trkpt lat="45.452214382731235" lon="10.493210001700298"><ele>173.0</ele><time>2026-03-28T17:21:44Z</time></trkpt><trkpt lat="45.45215923949623" lon="10.493692741692021"><ele>175.0</ele><time>2026-03-28T17:21:45Z</time></trkpt><trkpt lat="45.45210336743062" lon="10.494175512254289"><ele>176.5</ele><time>2026-03-28T17:21:46Z</time></trkpt><trkpt lat="45.45204719311993" lon="10.494659087871991"><ele>178.0</ele><time>2026-03-28T17:21:47Z</time></trkpt><trkpt lat="45.45199020616357" lon="10.495143650951002"><ele>180.0</ele><time>2026-03-28T17:21:48Z</time></trkpt><trkpt lat="45.4519320663113" lon="10.49562574110952"><ele>182.0</ele><time>2026-03-28T17:21:49Z</time></trkpt><trkpt lat="45.45187757778313" lon="10.496108513226991"><ele>185.0</ele><time>2026-03-28T17:21:50Z</time></trkpt><trkpt lat="45.45182311940397" lon="10.496589355478413"><ele>188.0</ele><time>2026-03-28T17:21:51Z</time></trkpt><trkpt lat="45.45176766882849" lon="10.497072760151347"><ele>189.0</ele><time>2026-03-28T17:21:52Z</time></trkpt><trkpt lat="45.45171223399566" lon="10.497554934424434"><ele>190.0</ele><time>2026-03-28T17:21:53Z</time></trkpt><trkpt lat="45.45165971434871" lon="10.498039315377433"><ele>190.0</ele><time>2026-03-28T17:21:54Z</time></trkpt><trkpt lat="45.45160939447292" lon="10.498525256448639"><ele>190.0</ele><time>2026-03-28T17:21:55Z</time></trkpt><trkpt lat="45.45156325051825" lon="10.499010511250995"><ele>186.5</ele><time>2026-03-28T17:21:56Z</time></trkpt><trkpt lat="45.451519192946414" lon="10.499496078189047"><ele>183.0</ele><time>2026-03-28T17:21:57Z</time></trkpt><trkpt lat="45.451475383323455" lon="10.499981538310937"><ele>179.5</ele><time>2026-03-28T17:21:58Z</time></trkpt><trkpt lat="45.45143144634077" lon="10.500465330628737"><ele>176.0</ele><time>2026-03-28T17:21:59Z</time></trkpt><trkpt lat="45.45138667495613" lon="10.500952425071278"><ele>178.0</ele><time>2026-03-28T17:22:00Z</time></trkpt><trkpt lat="45.45134011610338" lon="10.501437688421866"><ele>180.0</ele><time>2026-03-28T17:22:01Z</time></trkpt><trkpt lat="45.45129340933113" lon="10.501924919139558"><ele>175.0</ele><time>2026-03-28T17:22:02Z</time></trkpt><trkpt lat="45.45124682419868" lon="10.502412206919317"><ele>170.0</ele><time>2026-03-28T17:22:03Z</time></trkpt><trkpt lat="45.451201594453636" lon="10.502897447081901"><ele>170.0</ele><time>2026-03-28T17:22:04Z</time></trkpt><trkpt lat="45.451155643545334" lon="10.503383562978126"><ele>170.0</ele><time>2026-03-28T17:22:05Z</time></trkpt><trkpt lat="45.4511107600407" lon="10.50387008104705"><ele>170.0</ele><time>2026-03-28T17:22:06Z</time></trkpt><trkpt lat="45.45106445610338" lon="10.504356554809501"><ele>170.0</ele><time>2026-03-28T17:22:07Z</time></trkpt><trkpt lat="45.451017571801664" lon="10.504844926188818"><ele>168.5</ele><time>2026-03-28T17:22:08Z</time></trkpt><trkpt lat="45.450971860518735" lon="10.505330695321332"><ele>167.0</ele><time>2026-03-28T17:22:09Z</time></trkpt><trkpt lat="45.45092481812396" lon="10.50581617786751"><ele>166.0</ele><time>2026-03-28T17:22:10Z</time></trkpt><trkpt lat="45.450880092442695" lon="10.506303220903943"><ele>165.0</ele><time>2026-03-28T17:22:11Z</time></trkpt><trkpt lat="45.45083640201431" lon="10.50678960900264"><ele>164.5</ele><time>2026-03-28T17:22:12Z</time></trkpt><trkpt lat="45.450792724050864" lon="10.507275179995888"><ele>164.0</ele><time>2026-03-28T17:22:13Z</time></trkpt><trkpt lat="45.45074714995252" lon="10.507758819798116"><ele>163.5</ele><time>2026-03-28T17:22:14Z</time></trkpt><trkpt lat="45.450700221191845" lon="10.508241948786928"><ele>163.0</ele><time>2026-03-28T17:22:15Z</time></trkpt><trkpt lat="45.45065594327775" lon="10.508725227636821"><ele>162.0</ele><time>2026-03-28T17:22:16Z</time></trkpt><trkpt lat="45.450614946036495" lon="10.509208905106387"><ele>161.0</ele><time>2026-03-28T17:22:17Z</time></trkpt><trkpt lat="45.45057224844622" lon="10.509693031776779"><ele>159.0</ele><time>2026-03-28T17:22:18Z</time></trkpt><trkpt lat="45.45052977965315" lon="10.510178095703676"><ele>157.0</ele><time>2026-03-28T17:22:19Z</time></trkpt><trkpt lat="45.45048653393928" lon="10.510660519478707"><ele>152.5</ele><time>2026-03-28T17:22:20Z</time></trkpt><trkpt lat="45.450440959438765" lon="10.511144959367735"><ele>148.0</ele><time>2026-03-28T17:22:21Z</time></trkpt><trkpt lat="45.450394863278056" lon="10.511632482707064"><ele>144.0</ele><time>2026-03-28T17:22:22Z</time></trkpt><trkpt lat="45.45035428641855" lon="10.512117321434442"><ele>140.0</ele><time>2026-03-28T17:22:23Z</time></trkpt><trkpt lat="45.45031194651412" lon="10.512602585909077"><ele>139.5</ele><time>2026-03-28T17:22:24Z</time></trkpt><trkpt lat="45.4502689934141" lon="10.513085527662893"><ele>139.0</ele><time>2026-03-28T17:22:25Z</time></trkpt><trkpt lat="45.45022537381793" lon="10.513569493388042"><ele>137.5</ele><time>2026-03-28T17:22:26Z</time></trkpt><trkpt lat="45.45018467911898" lon="10.51405361141877"><ele>136.0</ele><time>2026-03-28T17:22:27Z</time></trkpt><trkpt lat="45.45014626394723" lon="10.514537371543781"><ele>135.5</ele><time>2026-03-28T17:22:28Z</time></trkpt><trkpt lat="45.45010396968291" lon="10.515020930058697"><ele>135.0</ele><time>2026-03-28T17:22:29Z</time></trkpt><trkpt lat="45.45005966607365" lon="10.51550631856947"><ele>135.0</ele><time>2026-03-28T17:22:30Z</time></trkpt><trkpt lat="45.45001302138822" lon="10.515989167015602"><ele>135.0</ele><time>2026-03-28T17:22:31Z</time></trkpt><trkpt lat="45.44996637248403" lon="10.516473233657129"><ele>134.5</ele><time>2026-03-28T17:22:32Z</time></trkpt><trkpt lat="45.44992169388169" lon="10.516958272083315"><ele>134.0</ele><time>2026-03-28T17:22:33Z</time></trkpt><trkpt lat="45.44987548748303" lon="10.517440720171091"><ele>133.5</ele><time>2026-03-28T17:22:34Z</time></trkpt><trkpt lat="45.44982930947819" lon="10.51792322622745"><ele>133.0</ele><time>2026-03-28T17:22:35Z</time></trkpt><trkpt lat="45.449784989630764" lon="10.518404438595114"><ele>134.0</ele><time>2026-03-28T17:22:36Z</time></trkpt><trkpt lat="45.4497402115362" lon="10.518885782206125"><ele>135.0</ele><time>2026-03-28T17:22:37Z</time></trkpt><trkpt lat="45.44969426919715" lon="10.519365707556968"><ele>135.0</ele><time>2026-03-28T17:22:38Z</time></trkpt><trkpt lat="45.449649008779524" lon="10.519845894284066"><ele>135.0</ele><time>2026-03-28T17:22:39Z</time></trkpt><trkpt lat="45.449605366710706" lon="10.520327861579709"><ele>135.0</ele><time>2026-03-28T17:22:40Z</time></trkpt><trkpt lat="45.44955715905682" lon="10.520809546870929"><ele>135.0</ele><time>2026-03-28T17:22:41Z</time></trkpt><trkpt lat="45.44951335075572" lon="10.521294805756067"><ele>135.0</ele><time>2026-03-28T17:22:42Z</time></trkpt><trkpt lat="45.44946680499072" lon="10.521780765232432"><ele>135.0</ele><time>2026-03-28T17:22:43Z</time></trkpt><trkpt lat="45.449415046086244" lon="10.522262812742623"><ele>134.5</ele><time>2026-03-28T17:22:44Z</time></trkpt><trkpt lat="45.44936377658472" lon="10.522743969331344"><ele>134.0</ele><time>2026-03-28T17:22:45Z</time></trkpt><trkpt lat="45.44930945457353" lon="10.523226840619028"><ele>134.0</ele><time>2026-03-28T17:22:46Z</time></trkpt><trkpt lat="45.44924890839515" lon="10.523707293530624"><ele>134.0</ele><time>2026-03-28T17:22:47Z</time></trkpt><trkpt lat="45.44918431000604" lon="10.524184295460524"><ele>135.5</ele><time>2026-03-28T17:22:47.999Z</time></trkpt><trkpt lat="45.449113956838715" lon="10.524664482341532"><ele>137.0</ele><time>2026-03-28T17:22:48.999Z</time></trkpt><trkpt lat="45.44903994219139" lon="10.525142519288762"><ele>132.0</ele><time>2026-03-28T17:22:49.999Z</time></trkpt><trkpt lat="45.4489611762294" lon="10.525621199824013"><ele>127.0</ele><time>2026-03-28T17:22:50.999Z</time></trkpt><trkpt lat="45.448880282303136" lon="10.526096491280759"><ele>123.5</ele><time>2026-03-28T17:22:51.999Z</time></trkpt><trkpt lat="45.448795081797506" lon="10.526570899916146"><ele>120.0</ele><time>2026-03-28T17:22:52.999Z</time></trkpt><trkpt lat="45.448702726711566" lon="10.527044274883552"><ele>119.0</ele><time>2026-03-28T17:22:53.999Z</time></trkpt><trkpt lat="45.44860618929108" lon="10.527513269699416"><ele>118.0</ele><time>2026-03-28T17:22:54.999Z</time></trkpt><trkpt lat="45.448504835849015" lon="10.52798235050353"><ele>117.5</ele><time>2026-03-28T17:22:55.999Z</time></trkpt><trkpt lat="45.44840308217248" lon="10.528450090815294"><ele>117.0</ele><time>2026-03-28T17:22:56.999Z</time></trkpt><trkpt lat="45.44829587330401" lon="10.528912562175304"><ele>116.0</ele><time>2026-03-28T17:22:57.999Z</time></trkpt><trkpt lat="45.44818480560011" lon="10.529374160509997"><ele>115.0</ele><time>2026-03-28T17:22:58.999Z</time></trkpt><trkpt lat="45.44806781605735" lon="10.529833456022594"><ele>115.0</ele><time>2026-03-28T17:22:59.999Z</time></trkpt><trkpt lat="45.447948739829215" lon="10.530289254995237"><ele>115.0</ele><time>2026-03-28T17:23:00.999Z</time></trkpt><trkpt lat="45.44782652560748" lon="10.530745119362459"><ele>115.0</ele><time>2026-03-28T17:23:01.999Z</time></trkpt><trkpt lat="45.44769882598316" lon="10.531196133815822"><ele>115.0</ele><time>2026-03-28T17:23:02.999Z</time></trkpt><trkpt lat="45.4475667537598" lon="10.53164278601856"><ele>114.0</ele><time>2026-03-28T17:23:03.999Z</time></trkpt><trkpt lat="45.4474321443254" lon="10.532088142226131"><ele>113.0</ele><time>2026-03-28T17:23:04.999Z</time></trkpt><trkpt lat="45.44729569700273" lon="10.532534620926947"><ele>113.0</ele><time>2026-03-28T17:23:05.999Z</time></trkpt><trkpt lat="45.44715756715406" lon="10.532977657044022"><ele>113.0</ele><time>2026-03-28T17:23:06.999Z</time></trkpt><trkpt lat="45.44701768217718" lon="10.533421226841156"><ele>113.0</ele><time>2026-03-28T17:23:07.999Z</time></trkpt><trkpt lat="45.44687957612553" lon="10.533867488731183"><ele>113.0</ele><time>2026-03-28T17:23:08.999Z</time></trkpt><trkpt lat="45.4467418903133" lon="10.53431531672318"><ele>114.0</ele><time>2026-03-28T17:23:09.999Z</time></trkpt><trkpt lat="45.446604367802856" lon="10.534762992185328"><ele>115.0</ele><time>2026-03-28T17:23:10.999Z</time></trkpt><trkpt lat="45.44646901246069" lon="10.535210841803554"><ele>115.5</ele><time>2026-03-28T17:23:11.999Z</time></trkpt><trkpt lat="45.446339511653164" lon="10.535660886489639"><ele>116.0</ele><time>2026-03-28T17:23:12.999Z</time></trkpt><trkpt lat="45.446213559839265" lon="10.536114765436645"><ele>115.5</ele><time>2026-03-28T17:23:13.999Z</time></trkpt><trkpt lat="45.446093012996684" lon="10.536571995883373"><ele>115.0</ele><time>2026-03-28T17:23:14.999Z</time></trkpt><trkpt lat="45.44597917780567" lon="10.537031248267391"><ele>114.0</ele><time>2026-03-28T17:23:15.999Z</time></trkpt><trkpt lat="45.44586506724603" lon="10.537493002273255"><ele>113.0</ele><time>2026-03-28T17:23:16.999Z</time></trkpt><trkpt lat="45.44575606796122" lon="10.53795953017337"><ele>111.5</ele><time>2026-03-28T17:23:18Z</time></trkpt><trkpt lat="45.44565275050245" lon="10.538424940306228"><ele>110.0</ele><time>2026-03-28T17:23:19Z</time></trkpt><trkpt lat="45.44555524826798" lon="10.538893853398745"><ele>109.0</ele><time>2026-03-28T17:23:20Z</time></trkpt><trkpt lat="45.4454706840229" lon="10.539354292321098"><ele>108.0</ele><time>2026-03-28T17:23:21Z</time></trkpt><trkpt lat="45.44538069369451" lon="10.539825443553829"><ele>108.0</ele><time>2026-03-28T17:23:22Z</time></trkpt><trkpt lat="45.4452893927722" lon="10.540300041635948"><ele>108.0</ele><time>2026-03-28T17:23:23Z</time></trkpt><trkpt lat="45.44520401580202" lon="10.540777403179353"><ele>105.0</ele><time>2026-03-28T17:23:24Z</time></trkpt><trkpt lat="45.44511739600221" lon="10.541249691645076"><ele>102.0</ele><time>2026-03-28T17:23:25Z</time></trkpt><trkpt lat="45.44502988021049" lon="10.541721853551804"><ele>102.5</ele><time>2026-03-28T17:23:26Z</time></trkpt><trkpt lat="45.44494157116943" lon="10.5421950122039"><ele>103.0</ele><time>2026-03-28T17:23:27Z</time></trkpt><trkpt lat="45.44485396859558" lon="10.542668158051388"><ele>102.0</ele><time>2026-03-28T17:23:28Z</time></trkpt><trkpt lat="45.44476665553531" lon="10.543139929893522"><ele>101.0</ele><time>2026-03-28T17:23:29Z</time></trkpt><trkpt lat="45.444677649455635" lon="10.54361329003657"><ele>102.0</ele><time>2026-03-28T17:23:30Z</time></trkpt><trkpt lat="45.444587756947286" lon="10.544084272032661"><ele>103.0</ele><time>2026-03-28T17:23:31Z</time></trkpt><trkpt lat="45.444498653249354" lon="10.544557303661682"><ele>103.0</ele><time>2026-03-28T17:23:32Z</time></trkpt><trkpt lat="45.44441192914801" lon="10.545028844712567"><ele>103.0</ele><time>2026-03-28T17:23:33Z</time></trkpt><trkpt lat="45.44432572122303" lon="10.545500458175853"><ele>103.0</ele><time>2026-03-28T17:23:34Z</time></trkpt><trkpt lat="45.44423570152201" lon="10.545967364090666"><ele>103.0</ele><time>2026-03-28T17:23:35Z</time></trkpt><trkpt lat="45.444147484117" lon="10.546440590731667"><ele>101.0</ele><time>2026-03-28T17:23:36Z</time></trkpt><trkpt lat="45.44406081937768" lon="10.546913593615072"><ele>99.0</ele><time>2026-03-28T17:23:37Z</time></trkpt><trkpt lat="45.44397327489431" lon="10.547385900428251"><ele>97.0</ele><time>2026-03-28T17:23:38Z</time></trkpt><trkpt lat="45.443884508975664" lon="10.547861568607122"><ele>95.0</ele><time>2026-03-28T17:23:39Z</time></trkpt><trkpt lat="45.443797878680584" lon="10.548336321031673"><ele>92.5</ele><time>2026-03-28T17:23:40Z</time></trkpt><trkpt lat="45.4437110211635" lon="10.548809265817859"><ele>90.0</ele><time>2026-03-28T17:23:41Z</time></trkpt><trkpt lat="45.443623674569615" lon="10.549281429214952"><ele>89.5</ele><time>2026-03-28T17:23:42Z</time></trkpt><trkpt lat="45.44353504068361" lon="10.549754949805026"><ele>89.0</ele><time>2026-03-28T17:23:43Z</time></trkpt><trkpt lat="45.443446198199354" lon="10.550226929441374"><ele>89.0</ele><time>2026-03-28T17:23:44Z</time></trkpt><trkpt lat="45.44335878688279" lon="10.550700628367586"><ele>89.0</ele><time>2026-03-28T17:23:45Z</time></trkpt><trkpt lat="45.44327181925692" lon="10.551171735757762"><ele>89.0</ele><time>2026-03-28T17:23:46Z</time></trkpt><trkpt lat="45.44318317615874" lon="10.551636748031417"><ele>89.0</ele><time>2026-03-28T17:23:47Z</time></trkpt><trkpt lat="45.44309549482188" lon="10.552106891774123"><ele>89.0</ele><time>2026-03-28T17:23:48Z</time></trkpt><trkpt lat="45.44300848059522" lon="10.55257914934259"><ele>89.0</ele><time>2026-03-28T17:23:49Z</time></trkpt><trkpt lat="45.44292154108024" lon="10.553051683848066"><ele>88.5</ele><time>2026-03-28T17:23:50Z</time></trkpt><trkpt lat="45.442835558010536" lon="10.553519177794163"><ele>88.0</ele><time>2026-03-28T17:23:51Z</time></trkpt><trkpt lat="45.44275046253497" lon="10.553990043716874"><ele>88.0</ele><time>2026-03-28T17:23:52Z</time></trkpt><trkpt lat="45.442661786413574" lon="10.554459793871548"><ele>88.0</ele><time>2026-03-28T17:23:53Z</time></trkpt><trkpt lat="45.44257393426616" lon="10.554928737019333"><ele>88.0</ele><time>2026-03-28T17:23:54Z</time></trkpt><trkpt lat="45.442484528502206" lon="10.55539870305948"><ele>88.0</ele><time>2026-03-28T17:23:55Z</time></trkpt><trkpt lat="45.442394070729264" lon="10.555868366363644"><ele>87.0</ele><time>2026-03-28T17:23:56Z</time></trkpt><trkpt lat="45.44230628674723" lon="10.556337886103272"><ele>86.0</ele><time>2026-03-28T17:23:57Z</time></trkpt><trkpt lat="45.44221979020211" lon="10.556808957104307"><ele>86.0</ele><time>2026-03-28T17:23:58Z</time></trkpt><trkpt lat="45.442133335751585" lon="10.557278963879268"><ele>86.0</ele><time>2026-03-28T17:23:59Z</time></trkpt><trkpt lat="45.44204541853638" lon="10.55774909453538"><ele>85.5</ele><time>2026-03-28T17:24:00Z</time></trkpt><trkpt lat="45.44195724152762" lon="10.558222391770435"><ele>85.0</ele><time>2026-03-28T17:24:01Z</time></trkpt><trkpt lat="45.44187063243517" lon="10.55869486316546"><ele>86.0</ele><time>2026-03-28T17:24:02Z</time></trkpt><trkpt lat="45.44178535227266" lon="10.559167435398717"><ele>87.0</ele><time>2026-03-28T17:24:03Z</time></trkpt><trkpt lat="45.44169854306813" lon="10.5596363536061"><ele>87.0</ele><time>2026-03-28T17:24:04Z</time></trkpt><trkpt lat="45.44161114205128" lon="10.560108331143773"><ele>87.0</ele><time>2026-03-28T17:24:05Z</time></trkpt><trkpt lat="45.44152334587629" lon="10.56057916840217"><ele>87.0</ele><time>2026-03-28T17:24:06Z</time></trkpt><trkpt lat="45.441431787669096" lon="10.561052662955717"><ele>87.0</ele><time>2026-03-28T17:24:07Z</time></trkpt><trkpt lat="45.441342988130984" lon="10.561525998739924"><ele>88.5</ele><time>2026-03-28T17:24:08Z</time></trkpt><trkpt lat="45.441255877407784" lon="10.561998440627766"><ele>90.0</ele><time>2026-03-28T17:24:09Z</time></trkpt><trkpt lat="45.441168621152194" lon="10.562471027213359"><ele>89.5</ele><time>2026-03-28T17:24:10Z</time></trkpt><trkpt lat="45.4410825596472" lon="10.562944026142665"><ele>89.0</ele><time>2026-03-28T17:24:11Z</time></trkpt><trkpt lat="45.4409937408718" lon="10.563415512710936"><ele>88.0</ele><time>2026-03-28T17:24:12Z</time></trkpt><trkpt lat="45.440910298673565" lon="10.563889857160344"><ele>87.0</ele><time>2026-03-28T17:24:13Z</time></trkpt><trkpt lat="45.44082209296886" lon="10.564360596024375"><ele>87.5</ele><time>2026-03-28T17:24:14Z</time></trkpt><trkpt lat="45.440733181358645" lon="10.564830912858067"><ele>88.0</ele><time>2026-03-28T17:24:15Z</time></trkpt><trkpt lat="45.44064352166235" lon="10.565302752146632"><ele>88.0</ele><time>2026-03-28T17:24:16Z</time></trkpt><trkpt lat="45.44055399772824" lon="10.56577306888285"><ele>88.0</ele><time>2026-03-28T17:24:17Z</time></trkpt><trkpt lat="45.44046435687264" lon="10.56624337710728"><ele>87.5</ele><time>2026-03-28T17:24:18Z</time></trkpt><trkpt lat="45.44037676751599" lon="10.566715439750958"><ele>87.0</ele><time>2026-03-28T17:24:19Z</time></trkpt><trkpt lat="45.44029139457388" lon="10.567187646372586"><ele>87.0</ele><time>2026-03-28T17:24:20Z</time></trkpt><trkpt lat="45.4402053842173" lon="10.567659623938853"><ele>87.0</ele><time>2026-03-28T17:24:21Z</time></trkpt><trkpt lat="45.44011924774514" lon="10.568132892995262"><ele>87.5</ele><time>2026-03-28T17:24:22Z</time></trkpt><trkpt lat="45.44003156570393" lon="10.568604433313757"><ele>88.0</ele><time>2026-03-28T17:24:23Z</time></trkpt><trkpt lat="45.43994366643633" lon="10.569075526868195"><ele>88.0</ele><time>2026-03-28T17:24:24Z</time></trkpt><trkpt lat="45.439855887811845" lon="10.569546915027425"><ele>88.0</ele><time>2026-03-28T17:24:25Z</time></trkpt><trkpt lat="45.439767707826874" lon="10.570016960198869"><ele>87.5</ele><time>2026-03-28T17:24:26Z</time></trkpt><trkpt lat="45.43968168126294" lon="10.570486650936209"><ele>87.0</ele><time>2026-03-28T17:24:27Z</time></trkpt><trkpt lat="45.439594855717615" lon="10.5709580663276"><ele>86.0</ele><time>2026-03-28T17:24:28Z</time></trkpt><trkpt lat="45.43950692369562" lon="10.571429705016472"><ele>85.0</ele><time>2026-03-28T17:24:29Z</time></trkpt><trkpt lat="45.439418393816815" lon="10.571903498248547"><ele>85.0</ele><time>2026-03-28T17:24:30Z</time></trkpt><trkpt lat="45.43933102220919" lon="10.572374824692846"><ele>85.0</ele><time>2026-03-28T17:24:31Z</time></trkpt><trkpt lat="45.439243956897656" lon="10.572846639230047"><ele>85.5</ele><time>2026-03-28T17:24:32Z</time></trkpt><trkpt lat="45.43915755086605" lon="10.573317036851256"><ele>86.0</ele><time>2026-03-28T17:24:33Z</time></trkpt><trkpt lat="45.43907073859949" lon="10.573789261498838"><ele>86.0</ele><time>2026-03-28T17:24:34Z</time></trkpt><trkpt lat="45.438984028426745" lon="10.57426093256897"><ele>86.0</ele><time>2026-03-28T17:24:35Z</time></trkpt><trkpt lat="45.43889663012245" lon="10.574733405551768"><ele>86.0</ele><time>2026-03-28T17:24:36Z</time></trkpt><trkpt lat="45.43880889509398" lon="10.575204719052435"><ele>86.0</ele><time>2026-03-28T17:24:37Z</time></trkpt><trkpt lat="45.438721420713215" lon="10.575675616044936"><ele>86.5</ele><time>2026-03-28T17:24:38Z</time></trkpt><trkpt lat="45.43863351030198" lon="10.576147544630246"><ele>87.0</ele><time>2026-03-28T17:24:39Z</time></trkpt><trkpt lat="45.43854565900393" lon="10.576620063468415"><ele>86.5</ele><time>2026-03-28T17:24:40Z</time></trkpt><trkpt lat="45.43845741509203" lon="10.577092474477137"><ele>86.0</ele><time>2026-03-28T17:24:41Z</time></trkpt><trkpt lat="45.43837013424882" lon="10.577564187295966"><ele>86.0</ele><time>2026-03-28T17:24:42Z</time></trkpt><trkpt lat="45.43828232301288" lon="10.578036103995592"><ele>86.0</ele><time>2026-03-28T17:24:43Z</time></trkpt><trkpt lat="45.438194698315556" lon="10.578505453415431"><ele>86.5</ele><time>2026-03-28T17:24:44Z</time></trkpt><trkpt lat="45.43810549311548" lon="10.578976275197459"><ele>87.0</ele><time>2026-03-28T17:24:45Z</time></trkpt><trkpt lat="45.438017946905674" lon="10.579449806682298"><ele>85.0</ele><time>2026-03-28T17:24:46Z</time></trkpt><trkpt lat="45.43793041062051" lon="10.57992247499797"><ele>83.0</ele><time>2026-03-28T17:24:47Z</time></trkpt><trkpt lat="45.43784193319162" lon="10.58039609970529"><ele>83.0</ele><time>2026-03-28T17:24:48Z</time></trkpt><trkpt lat="45.43775287361428" lon="10.580868463978563"><ele>83.0</ele><time>2026-03-28T17:24:49Z</time></trkpt><trkpt lat="45.437665218421856" lon="10.581340417145459"><ele>83.0</ele><time>2026-03-28T17:24:50Z</time></trkpt><trkpt lat="45.437578277027214" lon="10.581812185455844"><ele>83.0</ele><time>2026-03-28T17:24:51Z</time></trkpt><trkpt lat="45.43749027645239" lon="10.582284538049802"><ele>83.0</ele><time>2026-03-28T17:24:52Z</time></trkpt><trkpt lat="45.437403309563635" lon="10.5827568410444"><ele>83.0</ele><time>2026-03-28T17:24:53Z</time></trkpt><trkpt lat="45.437315476405004" lon="10.583229655521178"><ele>83.0</ele><time>2026-03-28T17:24:53.999Z</time></trkpt><trkpt lat="45.43722830593854" lon="10.58370168306907"><ele>83.0</ele><time>2026-03-28T17:24:54.999Z</time></trkpt><trkpt lat="45.43714071248054" lon="10.58417273070225"><ele>83.0</ele><time>2026-03-28T17:24:55.999Z</time></trkpt><trkpt lat="45.43705404446541" lon="10.58464424589179"><ele>83.0</ele><time>2026-03-28T17:24:56.999Z</time></trkpt><trkpt lat="45.43696674215523" lon="10.585116116645024"><ele>82.5</ele><time>2026-03-28T17:24:57.999Z</time></trkpt><trkpt lat="45.43687843164243" lon="10.585586900596985"><ele>82.0</ele><time>2026-03-28T17:24:58.999Z</time></trkpt><trkpt lat="45.43678992621042" lon="10.58605746545273"><ele>82.5</ele><time>2026-03-28T17:24:59.999Z</time></trkpt><trkpt lat="45.436702030813805" lon="10.586528619497052"><ele>83.0</ele><time>2026-03-28T17:25:00.999Z</time></trkpt><trkpt lat="45.43661516091714" lon="10.586999716973416"><ele>82.0</ele><time>2026-03-28T17:25:01.999Z</time></trkpt><trkpt lat="45.4365279304839" lon="10.587472707531806"><ele>81.0</ele><time>2026-03-28T17:25:02.999Z</time></trkpt><trkpt lat="45.43644093958398" lon="10.58794357589248"><ele>81.0</ele><time>2026-03-28T17:25:03.999Z</time></trkpt><trkpt lat="45.4363530474342" lon="10.58841274880302"><ele>81.0</ele><time>2026-03-28T17:25:04.999Z</time></trkpt><trkpt lat="45.43626502195716" lon="10.588883098132069"><ele>82.0</ele><time>2026-03-28T17:25:05.999Z</time></trkpt><trkpt lat="45.43617711284787" lon="10.589353766095257"><ele>83.0</ele><time>2026-03-28T17:25:06.999Z</time></trkpt><trkpt lat="45.43608961701646" lon="10.58982356302447"><ele>84.0</ele><time>2026-03-28T17:25:07.999Z</time></trkpt><trkpt lat="45.43600179902287" lon="10.590294504742298"><ele>85.0</ele><time>2026-03-28T17:25:08.999Z</time></trkpt><trkpt lat="45.435915579460065" lon="10.590765365405716"><ele>84.0</ele><time>2026-03-28T17:25:09.999Z</time></trkpt><trkpt lat="45.43582650367928" lon="10.591236714411318"><ele>83.0</ele><time>2026-03-28T17:25:10.999Z</time></trkpt><trkpt lat="45.43574201620325" lon="10.59170866096524"><ele>83.0</ele><time>2026-03-28T17:25:11.999Z</time></trkpt><trkpt lat="45.435654840091495" lon="10.592180971049464"><ele>83.0</ele><time>2026-03-28T17:25:12.999Z</time></trkpt><trkpt lat="45.435565259123365" lon="10.59265176489773"><ele>83.0</ele><time>2026-03-28T17:25:13.999Z</time></trkpt><trkpt lat="45.43547771571445" lon="10.593120943063525"><ele>83.0</ele><time>2026-03-28T17:25:14.999Z</time></trkpt><trkpt lat="45.435390523209556" lon="10.593590401428523"><ele>84.0</ele><time>2026-03-28T17:25:15.999Z</time></trkpt><trkpt lat="45.43530276411039" lon="10.594062342407119"><ele>85.0</ele><time>2026-03-28T17:25:16.999Z</time></trkpt><trkpt lat="45.4352145571526" lon="10.594534326684984"><ele>85.0</ele><time>2026-03-28T17:25:17.999Z</time></trkpt><trkpt lat="45.435125043494715" lon="10.595005479242118"><ele>85.0</ele><time>2026-03-28T17:25:18.999Z</time></trkpt><trkpt lat="45.435035876522555" lon="10.595476576697305"><ele>85.0</ele><time>2026-03-28T17:25:19.999Z</time></trkpt><trkpt lat="45.43494971870268" lon="10.595948088215684"><ele>85.0</ele><time>2026-03-28T17:25:20.999Z</time></trkpt><trkpt lat="45.43486368614867" lon="10.596418898423137"><ele>85.0</ele><time>2026-03-28T17:25:21.999Z</time></trkpt><trkpt lat="45.43478275752895" lon="10.596891242017984"><ele>85.0</ele><time>2026-03-28T17:25:22.999Z</time></trkpt><trkpt lat="45.434704909382035" lon="10.597365406213807"><ele>84.0</ele><time>2026-03-28T17:25:24Z</time></trkpt><trkpt lat="45.43463121324217" lon="10.59784206539363"><ele>83.0</ele><time>2026-03-28T17:25:25Z</time></trkpt><trkpt lat="45.434562423068" lon="10.598318504904174"><ele>83.0</ele><time>2026-03-28T17:25:26Z</time></trkpt><trkpt lat="45.4344978775329" lon="10.598796985120932"><ele>83.0</ele><time>2026-03-28T17:25:27Z</time></trkpt><trkpt lat="45.43443823573341" lon="10.599278722158694"><ele>82.5</ele><time>2026-03-28T17:25:28Z</time></trkpt><trkpt lat="45.43438606230273" lon="10.599760974497938"><ele>82.0</ele><time>2026-03-28T17:25:29Z</time></trkpt><trkpt lat="45.43433896568808" lon="10.600241411854391"><ele>83.0</ele><time>2026-03-28T17:25:30Z</time></trkpt><trkpt lat="45.434295048894576" lon="10.6007236474405"><ele>84.0</ele><time>2026-03-28T17:25:31Z</time></trkpt><trkpt lat="45.434253381942945" lon="10.601207616804258"><ele>84.0</ele><time>2026-03-28T17:25:32Z</time></trkpt><trkpt lat="45.4342150690592" lon="10.601693830611351"><ele>84.0</ele><time>2026-03-28T17:25:33Z</time></trkpt><trkpt lat="45.43418005480807" lon="10.602180511533147"><ele>84.0</ele><time>2026-03-28T17:25:34Z</time></trkpt><trkpt lat="45.434148552366075" lon="10.602666788114496"><ele>84.0</ele><time>2026-03-28T17:25:35Z</time></trkpt><trkpt lat="45.434120625335986" lon="10.60315573594169"><ele>84.0</ele><time>2026-03-28T17:25:36Z</time></trkpt><trkpt lat="45.434097907635916" lon="10.60364106082811"><ele>84.0</ele><time>2026-03-28T17:25:37Z</time></trkpt><trkpt lat="45.43407856829382" lon="10.604128222617527"><ele>85.0</ele><time>2026-03-28T17:25:38Z</time></trkpt><trkpt lat="45.434057205784875" lon="10.604613995701886"><ele>86.0</ele><time>2026-03-28T17:25:39Z</time></trkpt><trkpt lat="45.434032483820616" lon="10.605099777072734"><ele>86.5</ele><time>2026-03-28T17:25:40Z</time></trkpt><trkpt lat="45.43400627742012" lon="10.605586294050749"><ele>87.0</ele><time>2026-03-28T17:25:41Z</time></trkpt><trkpt lat="45.43398133922402" lon="10.606074543283631"><ele>85.5</ele><time>2026-03-28T17:25:42Z</time></trkpt><trkpt lat="45.43395745076779" lon="10.606563383947886"><ele>84.0</ele><time>2026-03-28T17:25:43Z</time></trkpt><trkpt lat="45.43393601666039" lon="10.607051419182199"><ele>84.0</ele><time>2026-03-28T17:25:44Z</time></trkpt><trkpt lat="45.4339109373826" lon="10.607539400150511"><ele>84.0</ele><time>2026-03-28T17:25:45Z</time></trkpt><trkpt lat="45.43389001392482" lon="10.60802631330012"><ele>83.5</ele><time>2026-03-28T17:25:46Z</time></trkpt><trkpt lat="45.43386947947123" lon="10.608513190079298"><ele>83.0</ele><time>2026-03-28T17:25:47Z</time></trkpt><trkpt lat="45.43384731689951" lon="10.608995728873927"><ele>83.0</ele><time>2026-03-28T17:25:48Z</time></trkpt><trkpt lat="45.433824481185916" lon="10.609464141249"><ele>83.0</ele><time>2026-03-28T17:25:49Z</time></trkpt><trkpt lat="45.43380070514982" lon="10.609927352151189"><ele>83.5</ele><time>2026-03-28T17:25:50Z</time></trkpt><trkpt lat="45.43377739327832" lon="10.61039037363854"><ele>84.0</ele><time>2026-03-28T17:25:51Z</time></trkpt><trkpt lat="45.433752399427505" lon="10.610846832658208"><ele>84.0</ele><time>2026-03-28T17:25:52Z</time></trkpt><trkpt lat="45.43373038631657" lon="10.611312860320487"><ele>84.0</ele><time>2026-03-28T17:25:53Z</time></trkpt><trkpt lat="45.43370772770966" lon="10.611778159582336"><ele>83.5</ele><time>2026-03-28T17:25:54Z</time></trkpt><trkpt lat="45.43368693199377" lon="10.612246291280014"><ele>83.0</ele><time>2026-03-28T17:25:55Z</time></trkpt><trkpt lat="45.43366427929213" lon="10.612712671328058"><ele>82.5</ele><time>2026-03-28T17:25:56Z</time></trkpt><trkpt lat="45.43364212069603" lon="10.613180957698496"><ele>82.0</ele><time>2026-03-28T17:25:57Z</time></trkpt><trkpt lat="45.4336192195485" lon="10.613651374880055"><ele>82.5</ele><time>2026-03-28T17:25:58Z</time></trkpt><trkpt lat="45.43359557843795" lon="10.61412276060284"><ele>83.0</ele><time>2026-03-28T17:25:59Z</time></trkpt><trkpt lat="45.43357177823045" lon="10.614596418268837"><ele>83.0</ele><time>2026-03-28T17:26:00Z</time></trkpt><trkpt lat="45.433550217148664" lon="10.61507866528799"><ele>83.0</ele><time>2026-03-28T17:26:01Z</time></trkpt><trkpt lat="45.433525570746596" lon="10.615563859876426"><ele>83.0</ele><time>2026-03-28T17:26:02Z</time></trkpt><trkpt lat="45.4335029176512" lon="10.616051622322319"><ele>83.0</ele><time>2026-03-28T17:26:03Z</time></trkpt><trkpt lat="45.43348005290427" lon="10.616541874423314"><ele>82.0</ele><time>2026-03-28T17:26:04Z</time></trkpt><trkpt lat="45.43345683405079" lon="10.61703129979509"><ele>81.0</ele><time>2026-03-28T17:26:05Z</time></trkpt><trkpt lat="45.433433002756146" lon="10.617521550822065"><ele>80.0</ele><time>2026-03-28T17:26:06Z</time></trkpt><trkpt lat="45.433408218081226" lon="10.618010747053308"><ele>79.0</ele><time>2026-03-28T17:26:07Z</time></trkpt><trkpt lat="45.43338450640377" lon="10.618497969007892"><ele>78.5</ele><time>2026-03-28T17:26:08Z</time></trkpt><trkpt lat="45.43336155925677" lon="10.618984873346964"><ele>78.0</ele><time>2026-03-28T17:26:09Z</time></trkpt><trkpt lat="45.43333907981498" lon="10.619471922127774"><ele>77.5</ele><time>2026-03-28T17:26:10Z</time></trkpt><trkpt lat="45.43331538944569" lon="10.619959181918816"><ele>77.0</ele><time>2026-03-28T17:26:11Z</time></trkpt><trkpt lat="45.43329034575597" lon="10.62044391909081"><ele>76.5</ele><time>2026-03-28T17:26:12Z</time></trkpt><trkpt lat="45.43326653846832" lon="10.620928214372993"><ele>76.0</ele><time>2026-03-28T17:26:13Z</time></trkpt><trkpt lat="45.43324239341544" lon="10.621415051628077"><ele>77.0</ele><time>2026-03-28T17:26:14Z</time></trkpt><trkpt lat="45.433218613077045" lon="10.621901029431386"><ele>78.0</ele><time>2026-03-28T17:26:15Z</time></trkpt><trkpt lat="45.433195809057075" lon="10.622384227968626"><ele>78.0</ele><time>2026-03-28T17:26:16Z</time></trkpt><trkpt lat="45.43317095497365" lon="10.622870306395106"><ele>78.0</ele><time>2026-03-28T17:26:17Z</time></trkpt><trkpt lat="45.43314815167827" lon="10.623358297318921"><ele>78.0</ele><time>2026-03-28T17:26:18Z</time></trkpt><trkpt lat="45.43312320870639" lon="10.623843268171887"><ele>78.0</ele><time>2026-03-28T17:26:19Z</time></trkpt><trkpt lat="45.433097736993005" lon="10.624330000406102"><ele>77.0</ele><time>2026-03-28T17:26:20Z</time></trkpt><trkpt lat="45.43307262538043" lon="10.624817759275865"><ele>76.0</ele><time>2026-03-28T17:26:21Z</time></trkpt><trkpt lat="45.43304973705016" lon="10.625304477407896"><ele>75.5</ele><time>2026-03-28T17:26:22Z</time></trkpt><trkpt lat="45.43302675744694" lon="10.625788519429724"><ele>75.0</ele><time>2026-03-28T17:26:23Z</time></trkpt><trkpt lat="45.43300336022422" lon="10.626273263338557"><ele>74.5</ele><time>2026-03-28T17:26:24Z</time></trkpt><trkpt lat="45.43297937632581" lon="10.626758762600224"><ele>74.0</ele><time>2026-03-28T17:26:25Z</time></trkpt><trkpt lat="45.43295538639061" lon="10.627244490338091"><ele>75.5</ele><time>2026-03-28T17:26:26Z</time></trkpt><trkpt lat="45.43292898210324" lon="10.627732159888405"><ele>77.0</ele><time>2026-03-28T17:26:27Z</time></trkpt><trkpt lat="45.432904623552716" lon="10.62821850592249"><ele>77.0</ele><time>2026-03-28T17:26:28Z</time></trkpt><trkpt lat="45.43288111092398" lon="10.628704372830821"><ele>77.0</ele><time>2026-03-28T17:26:29Z</time></trkpt><trkpt lat="45.43285840658857" lon="10.629189824921975"><ele>77.0</ele><time>2026-03-28T17:26:30Z</time></trkpt><trkpt lat="45.432836502958835" lon="10.629674652958936"><ele>77.0</ele><time>2026-03-28T17:26:31Z</time></trkpt><trkpt lat="45.432814078519925" lon="10.6301603928714"><ele>76.5</ele><time>2026-03-28T17:26:32Z</time></trkpt><trkpt lat="45.4327891812805" lon="10.63064266311165"><ele>76.0</ele><time>2026-03-28T17:26:33Z</time></trkpt><trkpt lat="45.432764017727116" lon="10.631127395761323"><ele>75.5</ele><time>2026-03-28T17:26:34Z</time></trkpt><trkpt lat="45.43273968273666" lon="10.631612828492942"><ele>75.0</ele><time>2026-03-28T17:26:35Z</time></trkpt><trkpt lat="45.43271634931512" lon="10.632099177717341"><ele>75.0</ele><time>2026-03-28T17:26:36Z</time></trkpt><trkpt lat="45.43269253339679" lon="10.632584729327885"><ele>75.0</ele><time>2026-03-28T17:26:37Z</time></trkpt><trkpt lat="45.432668046011" lon="10.633070141975843"><ele>75.5</ele><time>2026-03-28T17:26:38Z</time></trkpt><trkpt lat="45.43264431773782" lon="10.63355431893581"><ele>76.0</ele><time>2026-03-28T17:26:39Z</time></trkpt><trkpt lat="45.43261963241641" lon="10.634039991776513"><ele>77.5</ele><time>2026-03-28T17:26:40Z</time></trkpt><trkpt lat="45.43259511878363" lon="10.634527216473696"><ele>79.0</ele><time>2026-03-28T17:26:41Z</time></trkpt><trkpt lat="45.432570703810015" lon="10.63501192250759"><ele>78.5</ele><time>2026-03-28T17:26:42Z</time></trkpt><trkpt lat="45.43254703754088" lon="10.635497536726337"><ele>78.0</ele><time>2026-03-28T17:26:43Z</time></trkpt><trkpt lat="45.43252284082235" lon="10.635983276183246"><ele>79.5</ele><time>2026-03-28T17:26:44Z</time></trkpt><trkpt lat="45.43249732780574" lon="10.63647063768194"><ele>81.0</ele><time>2026-03-28T17:26:45Z</time></trkpt><trkpt lat="45.432472179274065" lon="10.636957160328192"><ele>81.0</ele><time>2026-03-28T17:26:46Z</time></trkpt><trkpt lat="45.432448156349274" lon="10.63744473729332"><ele>81.0</ele><time>2026-03-28T17:26:47Z</time></trkpt><trkpt lat="45.432424072246434" lon="10.637935663976583"><ele>79.5</ele><time>2026-03-28T17:26:48Z</time></trkpt><trkpt lat="45.432401043732305" lon="10.63841945946334"><ele>78.0</ele><time>2026-03-28T17:26:49Z</time></trkpt><trkpt lat="45.432375882325445" lon="10.638905609417742"><ele>77.0</ele><time>2026-03-28T17:26:50Z</time></trkpt><trkpt lat="45.43234882913544" lon="10.639392614553179"><ele>76.0</ele><time>2026-03-28T17:26:51Z</time></trkpt><trkpt lat="45.432319441940685" lon="10.63988040318921"><ele>75.5</ele><time>2026-03-28T17:26:52Z</time></trkpt><trkpt lat="45.432287990785206" lon="10.640366477138091"><ele>75.0</ele><time>2026-03-28T17:26:53Z</time></trkpt><trkpt lat="45.432255942990395" lon="10.640850786987231"><ele>75.5</ele><time>2026-03-28T17:26:54Z</time></trkpt><trkpt lat="45.43222134375843" lon="10.641334400919915"><ele>76.0</ele><time>2026-03-28T17:26:55Z</time></trkpt><trkpt lat="45.432184902367354" lon="10.641820192119436"><ele>76.0</ele><time>2026-03-28T17:26:56Z</time></trkpt><trkpt lat="45.43214872735659" lon="10.642308237968512"><ele>76.0</ele><time>2026-03-28T17:26:57Z</time></trkpt><trkpt lat="45.43211374885248" lon="10.64279483326797"><ele>76.5</ele><time>2026-03-28T17:26:58Z</time></trkpt><trkpt lat="45.43208022590384" lon="10.643280703685958"><ele>77.0</ele><time>2026-03-28T17:26:59Z</time></trkpt><trkpt lat="45.432048248975605" lon="10.643764831260219"><ele>77.0</ele><time>2026-03-28T17:27:00Z</time></trkpt><trkpt lat="45.43201685805506" lon="10.64425057924511"><ele>77.0</ele><time>2026-03-28T17:27:01Z</time></trkpt><trkpt lat="45.43198385019986" lon="10.644735018224768"><ele>76.0</ele><time>2026-03-28T17:27:02Z</time></trkpt><trkpt lat="45.431950191409804" lon="10.645220447426563"><ele>75.0</ele><time>2026-03-28T17:27:03Z</time></trkpt><trkpt lat="45.43191974983213" lon="10.645704191416375"><ele>75.0</ele><time>2026-03-28T17:27:04Z</time></trkpt><trkpt lat="45.43189205138677" lon="10.646189429358596"><ele>75.0</ele><time>2026-03-28T17:27:05Z</time></trkpt><trkpt lat="45.43186563366503" lon="10.646675324554948"><ele>75.0</ele><time>2026-03-28T17:27:05.999Z</time></trkpt><trkpt lat="45.43184234844045" lon="10.647161425612353"><ele>75.0</ele><time>2026-03-28T17:27:06.999Z</time></trkpt><trkpt lat="45.43181618005215" lon="10.647646413508955"><ele>75.0</ele><time>2026-03-28T17:27:07.999Z</time></trkpt><trkpt lat="45.43178969529411" lon="10.648130039807521"><ele>75.0</ele><time>2026-03-28T17:27:08.999Z</time></trkpt><trkpt lat="45.43176178556625" lon="10.648618082743454"><ele>75.0</ele><time>2026-03-28T17:27:09.999Z</time></trkpt><trkpt lat="45.43173223061601" lon="10.649103528550011"><ele>75.0</ele><time>2026-03-28T17:27:10.999Z</time></trkpt><trkpt lat="45.43170257124176" lon="10.64958900691994"><ele>75.5</ele><time>2026-03-28T17:27:11.999Z</time></trkpt><trkpt lat="45.431672809562144" lon="10.650073571211308"><ele>76.0</ele><time>2026-03-28T17:27:12.999Z</time></trkpt><trkpt lat="45.43164142876984" lon="10.650558858467548"><ele>76.0</ele><time>2026-03-28T17:27:13.999Z</time></trkpt><trkpt lat="45.43160784134179" lon="10.651044803933788"><ele>76.0</ele><time>2026-03-28T17:27:14.999Z</time></trkpt><trkpt lat="45.43157430304963" lon="10.651531907368213"><ele>76.0</ele><time>2026-03-28T17:27:15.999Z</time></trkpt><trkpt lat="45.43154232331818" lon="10.652020874021314"><ele>76.0</ele><time>2026-03-28T17:27:16.999Z</time></trkpt><trkpt lat="45.4315069589105" lon="10.652506880446731"><ele>76.0</ele><time>2026-03-28T17:27:17.999Z</time></trkpt><trkpt lat="45.43147478649412" lon="10.652991469138277"><ele>76.0</ele><time>2026-03-28T17:27:18.999Z</time></trkpt><trkpt lat="45.43144394236727" lon="10.65347272178068"><ele>76.0</ele><time>2026-03-28T17:27:19.999Z</time></trkpt><trkpt lat="45.43141224490167" lon="10.653957249834908"><ele>76.0</ele><time>2026-03-28T17:27:20.999Z</time></trkpt><trkpt lat="45.43138175267439" lon="10.654441614242163"><ele>77.0</ele><time>2026-03-28T17:27:21.999Z</time></trkpt><trkpt lat="45.4313529217913" lon="10.654926024154326"><ele>78.0</ele><time>2026-03-28T17:27:22.999Z</time></trkpt><trkpt lat="45.43132318274589" lon="10.655410265369689"><ele>79.5</ele><time>2026-03-28T17:27:23.999Z</time></trkpt><trkpt lat="45.4312904239552" lon="10.65589373928906"><ele>81.0</ele><time>2026-03-28T17:27:24.999Z</time></trkpt><trkpt lat="45.431258264530676" lon="10.65637800113442"><ele>81.0</ele><time>2026-03-28T17:27:25.999Z</time></trkpt><trkpt lat="45.43122636386817" lon="10.656863651088157"><ele>81.0</ele><time>2026-03-28T17:27:26.999Z</time></trkpt><trkpt lat="45.43119415790518" lon="10.657352443455002"><ele>83.5</ele><time>2026-03-28T17:27:27.999Z</time></trkpt><trkpt lat="45.43116041726614" lon="10.657838956492391"><ele>86.0</ele><time>2026-03-28T17:27:28.999Z</time></trkpt><trkpt lat="45.43112829619819" lon="10.658327506150624"><ele>86.0</ele><time>2026-03-28T17:27:30Z</time></trkpt><trkpt lat="45.431096293669015" lon="10.658814854580498"><ele>86.0</ele><time>2026-03-28T17:27:31Z</time></trkpt><trkpt lat="45.431066687192676" lon="10.65930241163354"><ele>84.5</ele><time>2026-03-28T17:27:32Z</time></trkpt><trkpt lat="45.43103303152278" lon="10.659789184020672"><ele>83.0</ele><time>2026-03-28T17:27:33Z</time></trkpt><trkpt lat="45.43099964893769" lon="10.660273599200549"><ele>81.0</ele><time>2026-03-28T17:27:34Z</time></trkpt><trkpt lat="45.430972146642475" lon="10.660762442914587"><ele>79.0</ele><time>2026-03-28T17:27:35Z</time></trkpt><trkpt lat="45.43094172720367" lon="10.661251175134566"><ele>77.5</ele><time>2026-03-28T17:27:36Z</time></trkpt><trkpt lat="45.43090994643962" lon="10.661738746653421"><ele>76.0</ele><time>2026-03-28T17:27:37Z</time></trkpt><trkpt lat="45.430879250574165" lon="10.662225619931704"><ele>76.0</ele><time>2026-03-28T17:27:38Z</time></trkpt><trkpt lat="45.43084782199636" lon="10.662710754962406"><ele>76.0</ele><time>2026-03-28T17:27:39Z</time></trkpt><trkpt lat="45.43081657381303" lon="10.663195300797259"><ele>75.5</ele><time>2026-03-28T17:27:40Z</time></trkpt><trkpt lat="45.43078619252628" lon="10.66367890204808"><ele>75.0</ele><time>2026-03-28T17:27:41Z</time></trkpt><trkpt lat="45.43075412208335" lon="10.664162053207757"><ele>75.5</ele><time>2026-03-28T17:27:42Z</time></trkpt><trkpt lat="45.430722658737224" lon="10.664643561725283"><ele>76.0</ele><time>2026-03-28T17:27:43Z</time></trkpt><trkpt lat="45.43069101606098" lon="10.66512717471311"><ele>77.0</ele><time>2026-03-28T17:27:44Z</time></trkpt><trkpt lat="45.430659600602105" lon="10.665610351777229"><ele>78.0</ele><time>2026-03-28T17:27:45Z</time></trkpt><trkpt lat="45.430629825799656" lon="10.666091321001856"><ele>80.0</ele><time>2026-03-28T17:27:46Z</time></trkpt><trkpt lat="45.43059904720632" lon="10.666573808389321"><ele>82.0</ele><time>2026-03-28T17:27:47Z</time></trkpt><trkpt lat="45.430567870082434" lon="10.667058443990626"><ele>83.5</ele><time>2026-03-28T17:27:48Z</time></trkpt><trkpt lat="45.43053673661129" lon="10.667541717815368"><ele>85.0</ele><time>2026-03-28T17:27:49Z</time></trkpt><trkpt lat="45.430502027925975" lon="10.668026551263308"><ele>86.5</ele><time>2026-03-28T17:27:50Z</time></trkpt><trkpt lat="45.430468921356926" lon="10.66851099881423"><ele>88.0</ele><time>2026-03-28T17:27:51Z</time></trkpt><trkpt lat="45.43043767026608" lon="10.66899549925733"><ele>88.0</ele><time>2026-03-28T17:27:52Z</time></trkpt><trkpt lat="45.430404709368915" lon="10.669483440775858"><ele>88.0</ele><time>2026-03-28T17:27:53Z</time></trkpt><trkpt lat="45.43037269074418" lon="10.669969588654867"><ele>86.0</ele><time>2026-03-28T17:27:54Z</time></trkpt><trkpt lat="45.43034046650343" lon="10.670456144964572"><ele>84.0</ele><time>2026-03-28T17:27:55Z</time></trkpt><trkpt lat="45.430308304422944" lon="10.670944276449397"><ele>82.5</ele><time>2026-03-28T17:27:56Z</time></trkpt><trkpt lat="45.43027750507231" lon="10.671430927132276"><ele>81.0</ele><time>2026-03-28T17:27:57Z</time></trkpt><trkpt lat="45.430244067108696" lon="10.671919953415042"><ele>81.5</ele><time>2026-03-28T17:27:58Z</time></trkpt><trkpt lat="45.430211744892745" lon="10.672407748626846"><ele>82.0</ele><time>2026-03-28T17:27:59Z</time></trkpt><trkpt lat="45.43017764342206" lon="10.672895899969413"><ele>82.5</ele><time>2026-03-28T17:28:00Z</time></trkpt><trkpt lat="45.43014451631548" lon="10.67338451185868"><ele>83.0</ele><time>2026-03-28T17:28:01Z</time></trkpt><trkpt lat="45.43011383496251" lon="10.673870606365767"><ele>84.0</ele><time>2026-03-28T17:28:02Z</time></trkpt><trkpt lat="45.43008289715851" lon="10.67435633171525"><ele>85.0</ele><time>2026-03-28T17:28:03Z</time></trkpt><trkpt lat="45.43005233695239" lon="10.674842231428274"><ele>84.5</ele><time>2026-03-28T17:28:04Z</time></trkpt><trkpt lat="45.43002183140095" lon="10.675327739632921"><ele>84.0</ele><time>2026-03-28T17:28:05Z</time></trkpt><trkpt lat="45.429989452838456" lon="10.67581355963712"><ele>83.5</ele><time>2026-03-28T17:28:06Z</time></trkpt><trkpt lat="45.42995722804637" lon="10.676298933132129"><ele>83.0</ele><time>2026-03-28T17:28:07Z</time></trkpt><trkpt lat="45.42992742260466" lon="10.67678406832948"><ele>83.0</ele><time>2026-03-28T17:28:08Z</time></trkpt><trkpt lat="45.429896372841505" lon="10.67727099459661"><ele>83.0</ele><time>2026-03-28T17:28:09Z</time></trkpt><trkpt lat="45.42986313294695" lon="10.677757751240923"><ele>84.0</ele><time>2026-03-28T17:28:10Z</time></trkpt><trkpt lat="45.42983117894054" lon="10.67824397143332"><ele>85.0</ele><time>2026-03-28T17:28:11Z</time></trkpt><trkpt lat="45.42979867960179" lon="10.678732194023722"><ele>85.0</ele><time>2026-03-28T17:28:12Z</time></trkpt><trkpt lat="45.42976751289439" lon="10.679217792072933"><ele>85.0</ele><time>2026-03-28T17:28:13Z</time></trkpt><trkpt lat="45.42973671029143" lon="10.679703459570206"><ele>85.5</ele><time>2026-03-28T17:28:14Z</time></trkpt><trkpt lat="45.429705288098724" lon="10.680188989226137"><ele>86.0</ele><time>2026-03-28T17:28:15Z</time></trkpt><trkpt lat="45.42967580939896" lon="10.68067465170886"><ele>86.5</ele><time>2026-03-28T17:28:16Z</time></trkpt><trkpt lat="45.429646805446794" lon="10.681161383881596"><ele>87.0</ele><time>2026-03-28T17:28:17Z</time></trkpt><trkpt lat="45.42961465933711" lon="10.681649167690786"><ele>90.5</ele><time>2026-03-28T17:28:18Z</time></trkpt><trkpt lat="45.4295829309433" lon="10.682135809802647"><ele>94.0</ele><time>2026-03-28T17:28:19Z</time></trkpt><trkpt lat="45.42955095764432" lon="10.68262178242497"><ele>95.5</ele><time>2026-03-28T17:28:20Z</time></trkpt><trkpt lat="45.42952064607538" lon="10.683107716827108"><ele>97.0</ele><time>2026-03-28T17:28:21Z</time></trkpt><trkpt lat="45.429489413901614" lon="10.683593130038563"><ele>94.5</ele><time>2026-03-28T17:28:22Z</time></trkpt><trkpt lat="45.4294596163587" lon="10.684079057566152"><ele>92.0</ele><time>2026-03-28T17:28:23Z</time></trkpt><trkpt lat="45.42942908100837" lon="10.684563236974972"><ele>90.0</ele><time>2026-03-28T17:28:24Z</time></trkpt><trkpt lat="45.429397432634936" lon="10.685047550877465"><ele>88.0</ele><time>2026-03-28T17:28:25Z</time></trkpt><trkpt lat="45.42935979360777" lon="10.68552946029474"><ele>86.5</ele><time>2026-03-28T17:28:26Z</time></trkpt><trkpt lat="45.42933141198821" lon="10.686017539531434"><ele>85.0</ele><time>2026-03-28T17:28:27Z</time></trkpt><trkpt lat="45.42930310049935" lon="10.68650331009549"><ele>85.0</ele><time>2026-03-28T17:28:28Z</time></trkpt><trkpt lat="45.42927709633512" lon="10.686989130414405"><ele>85.0</ele><time>2026-03-28T17:28:29Z</time></trkpt><trkpt lat="45.42925531651859" lon="10.687474142223842"><ele>84.5</ele><time>2026-03-28T17:28:30Z</time></trkpt><trkpt lat="45.42923665187002" lon="10.687962170453764"><ele>84.0</ele><time>2026-03-28T17:28:31Z</time></trkpt><trkpt lat="45.42922198096962" lon="10.688449397123808"><ele>83.0</ele><time>2026-03-28T17:28:32Z</time></trkpt><trkpt lat="45.42921214847792" lon="10.688935948420067"><ele>82.0</ele><time>2026-03-28T17:28:33Z</time></trkpt><trkpt lat="45.42920454731249" lon="10.689422479877141"><ele>82.0</ele><time>2026-03-28T17:28:34Z</time></trkpt><trkpt lat="45.42919948945231" lon="10.689906951681758"><ele>82.0</ele><time>2026-03-28T17:28:35Z</time></trkpt><trkpt lat="45.42919631981433" lon="10.6903950021446"><ele>82.5</ele><time>2026-03-28T17:28:36Z</time></trkpt><trkpt lat="45.429196271912794" lon="10.690883010794739"><ele>83.0</ele><time>2026-03-28T17:28:37Z</time></trkpt><trkpt lat="45.42919800298606" lon="10.69136973695048"><ele>82.5</ele><time>2026-03-28T17:28:38Z</time></trkpt><trkpt lat="45.42920298080834" lon="10.691858658042115"><ele>82.0</ele><time>2026-03-28T17:28:39Z</time></trkpt><trkpt lat="45.42920711835641" lon="10.692348820097365"><ele>82.5</ele><time>2026-03-28T17:28:40Z</time></trkpt><trkpt lat="45.42920976570103" lon="10.692838638643662"><ele>83.0</ele><time>2026-03-28T17:28:41Z</time></trkpt><trkpt lat="45.42921174582244" lon="10.693327161855027"><ele>82.5</ele><time>2026-03-28T17:28:42Z</time></trkpt><trkpt lat="45.429214391315874" lon="10.69381597351308"><ele>82.0</ele><time>2026-03-28T17:28:43Z</time></trkpt><trkpt lat="45.42921732458164" lon="10.69430448340987"><ele>81.5</ele><time>2026-03-28T17:28:44Z</time></trkpt><trkpt lat="45.42922233354716" lon="10.694793008433493"><ele>81.0</ele><time>2026-03-28T17:28:45Z</time></trkpt><trkpt lat="45.42922743738209" lon="10.69528393680656"><ele>80.5</ele><time>2026-03-28T17:28:46Z</time></trkpt><trkpt lat="45.42923294934092" lon="10.695773072103059"><ele>80.0</ele><time>2026-03-28T17:28:47Z</time></trkpt><trkpt lat="45.42923651923651" lon="10.69626174619837"><ele>78.5</ele><time>2026-03-28T17:28:48Z</time></trkpt><trkpt lat="45.42923867766877" lon="10.696748780396975"><ele>77.0</ele><time>2026-03-28T17:28:49Z</time></trkpt><trkpt lat="45.429242668954615" lon="10.697235812982976"><ele>76.0</ele><time>2026-03-28T17:28:50Z</time></trkpt><trkpt lat="45.429245619398124" lon="10.697722444602235"><ele>75.0</ele><time>2026-03-28T17:28:51Z</time></trkpt><trkpt lat="45.42924956313457" lon="10.69820684185247"><ele>73.5</ele><time>2026-03-28T17:28:52Z</time></trkpt><trkpt lat="45.42925406295061" lon="10.698692869416066"><ele>72.0</ele><time>2026-03-28T17:28:53Z</time></trkpt><trkpt lat="45.42925763632875" lon="10.699178444754208"><ele>70.0</ele><time>2026-03-28T17:28:54Z</time></trkpt><trkpt lat="45.42926062266883" lon="10.69966534878939"><ele>68.0</ele><time>2026-03-28T17:28:55Z</time></trkpt><trkpt lat="45.42926197553916" lon="10.70015211392047"><ele>67.0</ele><time>2026-03-28T17:28:56Z</time></trkpt><trkpt lat="45.42926416936163" lon="10.700640963092042"><ele>66.0</ele><time>2026-03-28T17:28:57Z</time></trkpt><trkpt lat="45.42926753124869" lon="10.701129526055887"><ele>66.0</ele><time>2026-03-28T17:28:58Z</time></trkpt><trkpt lat="45.4292716695246" lon="10.701623261477613"><ele>66.0</ele><time>2026-03-28T17:28:59Z</time></trkpt><trkpt lat="45.4292767116726" lon="10.702112806700537"><ele>68.0</ele><time>2026-03-28T17:29:00Z</time></trkpt><trkpt lat="45.42928131049273" lon="10.702600533193465"><ele>70.0</ele><time>2026-03-28T17:29:01Z</time></trkpt><trkpt lat="45.429282120589065" lon="10.703088722032492"><ele>72.0</ele><time>2026-03-28T17:29:02Z</time></trkpt><trkpt lat="45.429285252862186" lon="10.703574232097381"><ele>74.0</ele><time>2026-03-28T17:29:03Z</time></trkpt><trkpt lat="45.42928986008819" lon="10.704057353000326"><ele>77.0</ele><time>2026-03-28T17:29:04Z</time></trkpt><trkpt lat="45.42929357737962" lon="10.704542099592341"><ele>80.0</ele><time>2026-03-28T17:29:05Z</time></trkpt><trkpt lat="45.42929854764329" lon="10.705024179343441"><ele>81.5</ele><time>2026-03-28T17:29:05.999Z</time></trkpt><trkpt lat="45.42930055731537" lon="10.705508625017838"><ele>83.0</ele><time>2026-03-28T17:29:06.999Z</time></trkpt><trkpt lat="45.42930371655003" lon="10.705991664714517"><ele>82.5</ele><time>2026-03-28T17:29:07.999Z</time></trkpt><trkpt lat="45.42930677867254" lon="10.706476037191958"><ele>82.0</ele><time>2026-03-28T17:29:08.999Z</time></trkpt><trkpt lat="45.42931080893127" lon="10.706961559754811"><ele>83.0</ele><time>2026-03-28T17:29:09.999Z</time></trkpt><trkpt lat="45.429314225131705" lon="10.707447369249728"><ele>84.0</ele><time>2026-03-28T17:29:10.999Z</time></trkpt><trkpt lat="45.42931598777397" lon="10.707933781912374"><ele>84.5</ele><time>2026-03-28T17:29:11.999Z</time></trkpt><trkpt lat="45.42931819289679" lon="10.708420897420009"><ele>85.0</ele><time>2026-03-28T17:29:12.999Z</time></trkpt><trkpt lat="45.42932103892193" lon="10.708907423948611"><ele>86.0</ele><time>2026-03-28T17:29:13.999Z</time></trkpt><trkpt lat="45.429323915790135" lon="10.709393095123225"><ele>87.0</ele><time>2026-03-28T17:29:14.999Z</time></trkpt><trkpt lat="45.429327781072246" lon="10.70987926791775"><ele>90.0</ele><time>2026-03-28T17:29:15.999Z</time></trkpt><trkpt lat="45.429331852998615" lon="10.710364250276497"><ele>93.0</ele><time>2026-03-28T17:29:16.999Z</time></trkpt><trkpt lat="45.42933720435132" lon="10.710848540804998"><ele>95.0</ele><time>2026-03-28T17:29:17.999Z</time></trkpt><trkpt lat="45.429341250090864" lon="10.711334457027176"><ele>97.0</ele><time>2026-03-28T17:29:18.999Z</time></trkpt><trkpt lat="45.42934419707872" lon="10.71181991455132"><ele>98.0</ele><time>2026-03-28T17:29:19.999Z</time></trkpt><trkpt lat="45.42934777356402" lon="10.712306427954214"><ele>99.0</ele><time>2026-03-28T17:29:20.999Z</time></trkpt><trkpt lat="45.42935158971026" lon="10.712793906309605"><ele>99.5</ele><time>2026-03-28T17:29:21.999Z</time></trkpt><trkpt lat="45.42935461228535" lon="10.713280718597114"><ele>100.0</ele><time>2026-03-28T17:29:22.999Z</time></trkpt><trkpt lat="45.42935701221084" lon="10.713768669895366"><ele>100.5</ele><time>2026-03-28T17:29:23.999Z</time></trkpt><trkpt lat="45.42936163938982" lon="10.714256929104739"><ele>101.0</ele><time>2026-03-28T17:29:24.999Z</time></trkpt><trkpt lat="45.429362447071874" lon="10.714746798499036"><ele>101.0</ele><time>2026-03-28T17:29:25.999Z</time></trkpt><trkpt lat="45.42936397996578" lon="10.715235706373578"><ele>101.0</ele><time>2026-03-28T17:29:26.999Z</time></trkpt><trkpt lat="45.42936675142295" lon="10.715724656552146"><ele>100.0</ele><time>2026-03-28T17:29:27.999Z</time></trkpt><trkpt lat="45.42937001250522" lon="10.716213336754233"><ele>99.0</ele><time>2026-03-28T17:29:28.999Z</time></trkpt><trkpt lat="45.429372107293744" lon="10.716702316040617"><ele>98.5</ele><time>2026-03-28T17:29:29.999Z</time></trkpt><trkpt lat="45.42937481912706" lon="10.71718932689061"><ele>98.0</ele><time>2026-03-28T17:29:30.999Z</time></trkpt><trkpt lat="45.42937842467017" lon="10.717679007469766"><ele>98.0</ele><time>2026-03-28T17:29:31.999Z</time></trkpt><trkpt lat="45.42938233677585" lon="10.718166948525745"><ele>98.0</ele><time>2026-03-28T17:29:32.999Z</time></trkpt><trkpt lat="45.42938497965177" lon="10.718656465133657"><ele>98.5</ele><time>2026-03-28T17:29:33.999Z</time></trkpt><trkpt lat="45.42938939900716" lon="10.719145277941154"><ele>99.0</ele><time>2026-03-28T17:29:34.999Z</time></trkpt><trkpt lat="45.42939222488159" lon="10.719632151229149"><ele>99.5</ele><time>2026-03-28T17:29:36Z</time></trkpt><trkpt lat="45.42939618968221" lon="10.720120144928773"><ele>100.0</ele><time>2026-03-28T17:29:37Z</time></trkpt><trkpt lat="45.429401040614856" lon="10.720608676128293"><ele>100.5</ele><time>2026-03-28T17:29:38Z</time></trkpt><trkpt lat="45.42940434817188" lon="10.721095247143495"><ele>101.0</ele><time>2026-03-28T17:29:39Z</time></trkpt><trkpt lat="45.42940739775233" lon="10.721580912700636"><ele>102.0</ele><time>2026-03-28T17:29:40Z</time></trkpt><trkpt lat="45.42941139487866" lon="10.722066609905594"><ele>103.0</ele><time>2026-03-28T17:29:41Z</time></trkpt><trkpt lat="45.429413894861" lon="10.722551446030936"><ele>104.0</ele><time>2026-03-28T17:29:42Z</time></trkpt><trkpt lat="45.42941664844358" lon="10.72303749328165"><ele>105.0</ele><time>2026-03-28T17:29:43Z</time></trkpt><trkpt lat="45.42941866279819" lon="10.723523320089233"><ele>105.5</ele><time>2026-03-28T17:29:44Z</time></trkpt><trkpt lat="45.429420485528475" lon="10.724010220875433"><ele>106.0</ele><time>2026-03-28T17:29:45Z</time></trkpt><trkpt lat="45.429424446747994" lon="10.724497760623018"><ele>107.0</ele><time>2026-03-28T17:29:46Z</time></trkpt><trkpt lat="45.42942780736084" lon="10.724984757593162"><ele>108.0</ele><time>2026-03-28T17:29:47Z</time></trkpt><trkpt lat="45.42942961104072" lon="10.725473782576179"><ele>108.5</ele><time>2026-03-28T17:29:48Z</time></trkpt><trkpt lat="45.4294289252095" lon="10.725962655558074"><ele>109.0</ele><time>2026-03-28T17:29:49Z</time></trkpt><trkpt lat="45.4294210172554" lon="10.72645005712265"><ele>109.5</ele><time>2026-03-28T17:29:50Z</time></trkpt><trkpt lat="45.4294109029249" lon="10.726936836522627"><ele>110.0</ele><time>2026-03-28T17:29:51Z</time></trkpt><trkpt lat="45.42939744184625" lon="10.727423444173304"><ele>108.0</ele><time>2026-03-28T17:29:52Z</time></trkpt><trkpt lat="45.4293817127948" lon="10.72791328640152"><ele>106.0</ele><time>2026-03-28T17:29:53Z</time></trkpt><trkpt lat="45.429361363659496" lon="10.728402642075686"><ele>104.0</ele><time>2026-03-28T17:29:54Z</time></trkpt><trkpt lat="45.42933528465402" lon="10.728891748466323"><ele>102.0</ele><time>2026-03-28T17:29:55Z</time></trkpt><trkpt lat="45.42930320017515" lon="10.729378840775626"><ele>102.0</ele><time>2026-03-28T17:29:56Z</time></trkpt><trkpt lat="45.429271008920765" lon="10.729868696925783"><ele>102.0</ele><time>2026-03-28T17:29:57Z</time></trkpt><trkpt lat="45.429237132592526" lon="10.730356302772387"><ele>102.0</ele><time>2026-03-28T17:29:58Z</time></trkpt><trkpt lat="45.42920013859226" lon="10.730843364963608"><ele>102.0</ele><time>2026-03-28T17:29:59Z</time></trkpt><trkpt lat="45.42915905526986" lon="10.731328255880452"><ele>102.5</ele><time>2026-03-28T17:30:00Z</time></trkpt><trkpt lat="45.429115935379535" lon="10.731813173316542"><ele>103.0</ele><time>2026-03-28T17:30:01Z</time></trkpt><trkpt lat="45.429070409853175" lon="10.73229780741193"><ele>103.5</ele><time>2026-03-28T17:30:02Z</time></trkpt><trkpt lat="45.42902254631525" lon="10.73278168825209"><ele>104.0</ele><time>2026-03-28T17:30:03Z</time></trkpt><trkpt lat="45.428973803917955" lon="10.733264525619447"><ele>101.5</ele><time>2026-03-28T17:30:04Z</time></trkpt><trkpt lat="45.42892132778074" lon="10.733746910773734"><ele>99.0</ele><time>2026-03-28T17:30:05Z</time></trkpt><trkpt lat="45.42886933058584" lon="10.734228433105507"><ele>99.5</ele><time>2026-03-28T17:30:06Z</time></trkpt><trkpt lat="45.42882242983759" lon="10.734712185753793"><ele>100.0</ele><time>2026-03-28T17:30:07Z</time></trkpt><trkpt lat="45.4287751299374" lon="10.735194330002841"><ele>100.0</ele><time>2026-03-28T17:30:08Z</time></trkpt><trkpt lat="45.428725081779994" lon="10.735676149848056"><ele>100.0</ele><time>2026-03-28T17:30:09Z</time></trkpt><trkpt lat="45.42867555376988" lon="10.736159980708747"><ele>100.0</ele><time>2026-03-28T17:30:10Z</time></trkpt><trkpt lat="45.42862617628725" lon="10.736643265075687"><ele>100.0</ele><time>2026-03-28T17:30:11Z</time></trkpt><trkpt lat="45.428574660907294" lon="10.737125272686809"><ele>98.5</ele><time>2026-03-28T17:30:12Z</time></trkpt><trkpt lat="45.42852579452419" lon="10.73760764222735"><ele>97.0</ele><time>2026-03-28T17:30:13Z</time></trkpt><trkpt lat="45.428475881138276" lon="10.73808894228781"><ele>96.5</ele><time>2026-03-28T17:30:14Z</time></trkpt><trkpt lat="45.42842785001821" lon="10.738572127997564"><ele>96.0</ele><time>2026-03-28T17:30:15Z</time></trkpt><trkpt lat="45.42837800374635" lon="10.739053429197748"><ele>96.0</ele><time>2026-03-28T17:30:16Z</time></trkpt><trkpt lat="45.4283270814543" lon="10.739535652348323"><ele>96.0</ele><time>2026-03-28T17:30:17Z</time></trkpt><trkpt lat="45.4282774098321" lon="10.74001758155971"><ele>96.5</ele><time>2026-03-28T17:30:18Z</time></trkpt><trkpt lat="45.42822896856486" lon="10.74049826207627"><ele>97.0</ele><time>2026-03-28T17:30:19Z</time></trkpt><trkpt lat="45.4281787354336" lon="10.74098134891852"><ele>97.0</ele><time>2026-03-28T17:30:20Z</time></trkpt><trkpt lat="45.42812928975655" lon="10.741465532452958"><ele>97.0</ele><time>2026-03-28T17:30:21Z</time></trkpt><trkpt lat="45.42807899219224" lon="10.741948430661097"><ele>97.0</ele><time>2026-03-28T17:30:22Z</time></trkpt><trkpt lat="45.428028590434444" lon="10.742430865169684"><ele>97.0</ele><time>2026-03-28T17:30:23Z</time></trkpt><trkpt lat="45.42797668637258" lon="10.742912738477871"><ele>95.5</ele><time>2026-03-28T17:30:24Z</time></trkpt><trkpt lat="45.427926688234294" lon="10.743395019138427"><ele>94.0</ele><time>2026-03-28T17:30:25Z</time></trkpt><trkpt lat="45.42787723053045" lon="10.743877081856924"><ele>94.0</ele><time>2026-03-28T17:30:26Z</time></trkpt><trkpt lat="45.42782908776144" lon="10.744359053760839"><ele>94.0</ele><time>2026-03-28T17:30:27Z</time></trkpt><trkpt lat="45.42778163211468" lon="10.744841937483246"><ele>94.0</ele><time>2026-03-28T17:30:28Z</time></trkpt><trkpt lat="45.427733083431114" lon="10.745324276520513"><ele>94.0</ele><time>2026-03-28T17:30:29Z</time></trkpt><trkpt lat="45.4276851047222" lon="10.745805118931905"><ele>94.5</ele><time>2026-03-28T17:30:30Z</time></trkpt><trkpt lat="45.427636523865885" lon="10.746287435219022"><ele>95.0</ele><time>2026-03-28T17:30:31Z</time></trkpt><trkpt lat="45.427587468463436" lon="10.746767454537997"><ele>96.0</ele><time>2026-03-28T17:30:32Z</time></trkpt><trkpt lat="45.42753719280402" lon="10.747246943093355"><ele>97.0</ele><time>2026-03-28T17:30:33Z</time></trkpt><trkpt lat="45.42748701053924" lon="10.747727731817722"><ele>97.5</ele><time>2026-03-28T17:30:34Z</time></trkpt><trkpt lat="45.42743642300787" lon="10.748208752342881"><ele>98.0</ele><time>2026-03-28T17:30:35Z</time></trkpt><trkpt lat="45.42738703024884" lon="10.748688910381851"><ele>99.5</ele><time>2026-03-28T17:30:36Z</time></trkpt><trkpt lat="45.427338019705516" lon="10.749170200495648"><ele>101.0</ele><time>2026-03-28T17:30:37Z</time></trkpt><trkpt lat="45.427289071536094" lon="10.749652302796724"><ele>102.0</ele><time>2026-03-28T17:30:38Z</time></trkpt><trkpt lat="45.42724085927622" lon="10.750132178506375"><ele>103.0</ele><time>2026-03-28T17:30:39Z</time></trkpt><trkpt lat="45.42719272185574" lon="10.750614249470388"><ele>103.0</ele><time>2026-03-28T17:30:40Z</time></trkpt><trkpt lat="45.42714425842882" lon="10.751096104499048"><ele>103.0</ele><time>2026-03-28T17:30:41Z</time></trkpt><trkpt lat="45.42709636390845" lon="10.75157920335833"><ele>102.5</ele><time>2026-03-28T17:30:42Z</time></trkpt><trkpt lat="45.42704949815511" lon="10.752062547548036"><ele>102.0</ele><time>2026-03-28T17:30:43Z</time></trkpt><trkpt lat="45.427003050780684" lon="10.75254647655636"><ele>101.5</ele><time>2026-03-28T17:30:44Z</time></trkpt><trkpt lat="45.426957900311805" lon="10.753032037707225"><ele>101.0</ele><time>2026-03-28T17:30:45Z</time></trkpt><trkpt lat="45.42691458269251" lon="10.753515703794701"><ele>101.0</ele><time>2026-03-28T17:30:46Z</time></trkpt><trkpt lat="45.426867236322174" lon="10.753997135574215"><ele>101.0</ele><time>2026-03-28T17:30:47Z</time></trkpt><trkpt lat="45.42682032857456" lon="10.754477819618058"><ele>101.0</ele><time>2026-03-28T17:30:48Z</time></trkpt><trkpt lat="45.42677054394933" lon="10.75496074828024"><ele>101.0</ele><time>2026-03-28T17:30:49Z</time></trkpt><trkpt lat="45.426721327176416" lon="10.755446857230142"><ele>101.0</ele><time>2026-03-28T17:30:50Z</time></trkpt><trkpt lat="45.42667202034081" lon="10.755931289142051"><ele>101.0</ele><time>2026-03-28T17:30:51Z</time></trkpt><trkpt lat="45.4266228867166" lon="10.756415505663206"><ele>100.5</ele><time>2026-03-28T17:30:52Z</time></trkpt><trkpt lat="45.42657808596549" lon="10.756888451808653"><ele>100.0</ele><time>2026-03-28T17:30:53Z</time></trkpt><trkpt lat="45.426530552483776" lon="10.757375905476342"><ele>101.0</ele><time>2026-03-28T17:30:54Z</time></trkpt><trkpt lat="45.42648285865959" lon="10.75785877468672"><ele>102.0</ele><time>2026-03-28T17:30:55Z</time></trkpt><trkpt lat="45.42643506208715" lon="10.758340535838997"><ele>102.0</ele><time>2026-03-28T17:30:56Z</time></trkpt><trkpt lat="45.426386055590704" lon="10.758824858875174"><ele>102.0</ele><time>2026-03-28T17:30:57Z</time></trkpt><trkpt lat="45.42633616187119" lon="10.75930951449316"><ele>102.0</ele><time>2026-03-28T17:30:58Z</time></trkpt><trkpt lat="45.42628584567011" lon="10.75978983155707"><ele>102.0</ele><time>2026-03-28T17:30:59Z</time></trkpt><trkpt lat="45.4262350819312" lon="10.760273080991078"><ele>102.0</ele><time>2026-03-28T17:31:00Z</time></trkpt><trkpt lat="45.42618552943473" lon="10.760759398963591"><ele>102.0</ele><time>2026-03-28T17:31:01Z</time></trkpt><trkpt lat="45.426136265662656" lon="10.761243654650542"><ele>101.5</ele><time>2026-03-28T17:31:02Z</time></trkpt><trkpt lat="45.42608751615964" lon="10.761728291146728"><ele>101.0</ele><time>2026-03-28T17:31:03Z</time></trkpt><trkpt lat="45.42603708447309" lon="10.762211900885312"><ele>102.0</ele><time>2026-03-28T17:31:04Z</time></trkpt><trkpt lat="45.425987541406315" lon="10.762695170121663"><ele>103.0</ele><time>2026-03-28T17:31:05Z</time></trkpt><trkpt lat="45.425937658811016" lon="10.763178953310772"><ele>102.0</ele><time>2026-03-28T17:31:06Z</time></trkpt><trkpt lat="45.42588823257704" lon="10.7636609828998"><ele>101.0</ele><time>2026-03-28T17:31:07Z</time></trkpt><trkpt lat="45.42583715063365" lon="10.764144004815433"><ele>100.0</ele><time>2026-03-28T17:31:08Z</time></trkpt><trkpt lat="45.42578812927685" lon="10.764627649670835"><ele>99.0</ele><time>2026-03-28T17:31:09Z</time></trkpt><trkpt lat="45.42573958533438" lon="10.7651096674444"><ele>98.5</ele><time>2026-03-28T17:31:10Z</time></trkpt><trkpt lat="45.42568999707519" lon="10.765591739140282"><ele>98.0</ele><time>2026-03-28T17:31:11Z</time></trkpt><trkpt lat="45.42564181721304" lon="10.766073816696812"><ele>99.0</ele><time>2026-03-28T17:31:12Z</time></trkpt><trkpt lat="45.42559129500795" lon="10.766556420834176"><ele>100.0</ele><time>2026-03-28T17:31:13Z</time></trkpt><trkpt lat="45.42554123795712" lon="10.767037714064896"><ele>101.5</ele><time>2026-03-28T17:31:14Z</time></trkpt><trkpt lat="45.42548934348927" lon="10.767521341194724"><ele>103.0</ele><time>2026-03-28T17:31:15Z</time></trkpt><trkpt lat="45.42543894060619" lon="10.768004100344665"><ele>103.5</ele><time>2026-03-28T17:31:16Z</time></trkpt><trkpt lat="45.425385784372644" lon="10.768483527208996"><ele>104.0</ele><time>2026-03-28T17:31:17Z</time></trkpt><trkpt lat="45.42532475394984" lon="10.768963138022091"><ele>103.5</ele><time>2026-03-28T17:31:18Z</time></trkpt><trkpt lat="45.42525720850053" lon="10.769435112034728"><ele>103.0</ele><time>2026-03-28T17:31:19Z</time></trkpt><trkpt lat="45.42518038629926" lon="10.769907961611205"><ele>103.0</ele><time>2026-03-28T17:31:20Z</time></trkpt><trkpt lat="45.425094544879656" lon="10.770381228618485"><ele>103.0</ele><time>2026-03-28T17:31:21Z</time></trkpt><trkpt lat="45.42500509468272" lon="10.770853712338743"><ele>104.0</ele><time>2026-03-28T17:31:22Z</time></trkpt><trkpt lat="45.42490982364616" lon="10.771322253436765"><ele>105.0</ele><time>2026-03-28T17:31:22.999Z</time></trkpt><trkpt lat="45.42480807914964" lon="10.771785356768767"><ele>104.5</ele><time>2026-03-28T17:31:23.999Z</time></trkpt><trkpt lat="45.42469905651638" lon="10.772246020638155"><ele>104.0</ele><time>2026-03-28T17:31:24.999Z</time></trkpt><trkpt lat="45.42458641566388" lon="10.772705744819778"><ele>103.0</ele><time>2026-03-28T17:31:25.999Z</time></trkpt><trkpt lat="45.42447030044538" lon="10.77315962251526"><ele>102.0</ele><time>2026-03-28T17:31:26.999Z</time></trkpt><trkpt lat="45.42434712265575" lon="10.77361052180657"><ele>104.0</ele><time>2026-03-28T17:31:27.999Z</time></trkpt><trkpt lat="45.42421829127984" lon="10.774057066986805"><ele>106.0</ele><time>2026-03-28T17:31:28.999Z</time></trkpt><trkpt lat="45.424080927587035" lon="10.774498548710076"><ele>107.0</ele><time>2026-03-28T17:31:29.999Z</time></trkpt><trkpt lat="45.423938473216104" lon="10.774938146980539"><ele>108.0</ele><time>2026-03-28T17:31:30.999Z</time></trkpt><trkpt lat="45.42378806606191" lon="10.775375021726026"><ele>112.0</ele><time>2026-03-28T17:31:31.999Z</time></trkpt><trkpt lat="45.42363527325634" lon="10.77580915343533"><ele>116.0</ele><time>2026-03-28T17:31:32.999Z</time></trkpt><trkpt lat="45.4234707703516" lon="10.776237183533656"><ele>117.0</ele><time>2026-03-28T17:31:33.999Z</time></trkpt><trkpt lat="45.42330362057423" lon="10.776663024773518"><ele>118.0</ele><time>2026-03-28T17:31:34.999Z</time></trkpt><trkpt lat="45.4231351787578" lon="10.77708783646942"><ele>119.5</ele><time>2026-03-28T17:31:35.999Z</time></trkpt><trkpt lat="45.42296599668069" lon="10.77751323672237"><ele>121.0</ele><time>2026-03-28T17:31:36.999Z</time></trkpt><trkpt lat="45.42279933905819" lon="10.777939117050046"><ele>123.0</ele><time>2026-03-28T17:31:37.999Z</time></trkpt><trkpt lat="45.422633436187084" lon="10.778366135651689"><ele>125.0</ele><time>2026-03-28T17:31:38.999Z</time></trkpt><trkpt lat="45.42246736683383" lon="10.778791965032426"><ele>125.0</ele><time>2026-03-28T17:31:39.999Z</time></trkpt><trkpt lat="45.4222986462926" lon="10.779220549061854"><ele>125.0</ele><time>2026-03-28T17:31:40.999Z</time></trkpt><trkpt lat="45.42212830267913" lon="10.779647993835313"><ele>125.0</ele><time>2026-03-28T17:31:42Z</time></trkpt><trkpt lat="45.421956252660294" lon="10.780077649910448"><ele>125.0</ele><time>2026-03-28T17:31:43Z</time></trkpt><trkpt lat="45.421787265274844" lon="10.780506558264316"><ele>125.0</ele><time>2026-03-28T17:31:44Z</time></trkpt><trkpt lat="45.421618543098326" lon="10.78093637192318"><ele>125.0</ele><time>2026-03-28T17:31:45Z</time></trkpt><trkpt lat="45.421451595799994" lon="10.781364470975864"><ele>124.5</ele><time>2026-03-28T17:31:46Z</time></trkpt><trkpt lat="45.42128772564569" lon="10.781795375182234"><ele>124.0</ele><time>2026-03-28T17:31:47Z</time></trkpt><trkpt lat="45.421127033235756" lon="10.782225917928999"><ele>124.5</ele><time>2026-03-28T17:31:48Z</time></trkpt><trkpt lat="45.42097138042712" lon="10.782662663132882"><ele>125.0</ele><time>2026-03-28T17:31:49Z</time></trkpt><trkpt lat="45.42081707397521" lon="10.783099658809089"><ele>124.5</ele><time>2026-03-28T17:31:50Z</time></trkpt><trkpt lat="45.42066503193587" lon="10.783539109668803"><ele>124.0</ele><time>2026-03-28T17:31:51Z</time></trkpt><trkpt lat="45.420514805009006" lon="10.78398182775735"><ele>124.0</ele><time>2026-03-28T17:31:52Z</time></trkpt><trkpt lat="45.42036727282507" lon="10.784425338219915"><ele>124.0</ele><time>2026-03-28T17:31:53Z</time></trkpt><trkpt lat="45.42022492843141" lon="10.784870830081589"><ele>124.5</ele><time>2026-03-28T17:31:54Z</time></trkpt><trkpt lat="45.42008666018556" lon="10.785318125381783"><ele>125.0</ele><time>2026-03-28T17:31:55Z</time></trkpt><trkpt lat="45.41995280440963" lon="10.785765494314623"><ele>126.0</ele><time>2026-03-28T17:31:56Z</time></trkpt><trkpt lat="45.41982043121864" lon="10.786216229322713"><ele>127.0</ele><time>2026-03-28T17:31:57Z</time></trkpt><trkpt lat="45.41969050859805" lon="10.786667022494012"><ele>125.0</ele><time>2026-03-28T17:31:58Z</time></trkpt><trkpt lat="45.41956520830907" lon="10.787120935356095"><ele>123.0</ele><time>2026-03-28T17:31:59Z</time></trkpt><trkpt lat="45.41944160871974" lon="10.787571700763388"><ele>122.0</ele><time>2026-03-28T17:32:00Z</time></trkpt><trkpt lat="45.41931848424187" lon="10.788027472994624"><ele>121.0</ele><time>2026-03-28T17:32:01Z</time></trkpt><trkpt lat="45.41919961189972" lon="10.788483687379365"><ele>122.0</ele><time>2026-03-28T17:32:02Z</time></trkpt><trkpt lat="45.41908459125309" lon="10.788943175542741"><ele>123.0</ele><time>2026-03-28T17:32:03Z</time></trkpt><trkpt lat="45.41897218999913" lon="10.789402753005977"><ele>125.0</ele><time>2026-03-28T17:32:04Z</time></trkpt><trkpt lat="45.418863241623114" lon="10.789863199626929"><ele>127.0</ele><time>2026-03-28T17:32:05Z</time></trkpt><trkpt lat="45.41875728394479" lon="10.790326586847293"><ele>127.0</ele><time>2026-03-28T17:32:06Z</time></trkpt><trkpt lat="45.418655642673215" lon="10.790791221294455"><ele>127.0</ele><time>2026-03-28T17:32:07Z</time></trkpt><trkpt lat="45.41855750836948" lon="10.791258446472334"><ele>126.5</ele><time>2026-03-28T17:32:08Z</time></trkpt><trkpt lat="45.41846361724644" lon="10.791725135672332"><ele>126.0</ele><time>2026-03-28T17:32:09Z</time></trkpt><trkpt lat="45.41837014841056" lon="10.792193153713066"><ele>125.5</ele><time>2026-03-28T17:32:10Z</time></trkpt><trkpt lat="45.418280976196556" lon="10.792662991252994"><ele>125.0</ele><time>2026-03-28T17:32:11Z</time></trkpt><trkpt lat="45.41819335772797" lon="10.793134608338585"><ele>123.0</ele><time>2026-03-28T17:32:12Z</time></trkpt><trkpt lat="45.418109284997776" lon="10.793606825785155"><ele>121.0</ele><time>2026-03-28T17:32:13Z</time></trkpt><trkpt lat="45.41802894937075" lon="10.79408193293939"><ele>119.5</ele><time>2026-03-28T17:32:14Z</time></trkpt><trkpt lat="45.417951421123604" lon="10.794557060154334"><ele>118.0</ele><time>2026-03-28T17:32:15Z</time></trkpt><trkpt lat="45.41787618244542" lon="10.79503544321062"><ele>118.0</ele><time>2026-03-28T17:32:16Z</time></trkpt><trkpt lat="45.417805320712425" lon="10.79551550849976"><ele>118.0</ele><time>2026-03-28T17:32:17Z</time></trkpt><trkpt lat="45.41773778337152" lon="10.795995588809637"><ele>118.0</ele><time>2026-03-28T17:32:18Z</time></trkpt><trkpt lat="45.41767254014062" lon="10.79647538122151"><ele>118.0</ele><time>2026-03-28T17:32:19Z</time></trkpt><trkpt lat="45.417610887985326" lon="10.796958132135812"><ele>118.0</ele><time>2026-03-28T17:32:20Z</time></trkpt><trkpt lat="45.41755253348214" lon="10.797439294124588"><ele>118.0</ele><time>2026-03-28T17:32:21Z</time></trkpt><trkpt lat="45.41749566840902" lon="10.79792052886751"><ele>118.5</ele><time>2026-03-28T17:32:22Z</time></trkpt><trkpt lat="45.417446030614094" lon="10.79840329709872"><ele>119.0</ele><time>2026-03-28T17:32:23Z</time></trkpt><trkpt lat="45.41739520403164" lon="10.798888026451808"><ele>118.5</ele><time>2026-03-28T17:32:24Z</time></trkpt><trkpt lat="45.41734059132128" lon="10.799374854030464"><ele>118.0</ele><time>2026-03-28T17:32:25Z</time></trkpt><trkpt lat="45.41728702976447" lon="10.799859510162587"><ele>116.5</ele><time>2026-03-28T17:32:26Z</time></trkpt><trkpt lat="45.417235938871976" lon="10.800342001205003"><ele>115.0</ele><time>2026-03-28T17:32:27Z</time></trkpt><trkpt lat="45.41718360382002" lon="10.800823419668612"><ele>114.5</ele><time>2026-03-28T17:32:28Z</time></trkpt><trkpt lat="45.417130381601694" lon="10.801305683216695"><ele>114.0</ele><time>2026-03-28T17:32:29Z</time></trkpt><trkpt lat="45.41707191253637" lon="10.801785874550054"><ele>114.0</ele><time>2026-03-28T17:32:30Z</time></trkpt><trkpt lat="45.417014584925774" lon="10.80226798444855"><ele>114.0</ele><time>2026-03-28T17:32:31Z</time></trkpt><trkpt lat="45.41696118617207" lon="10.802748739180739"><ele>114.0</ele><time>2026-03-28T17:32:32Z</time></trkpt><trkpt lat="45.416908548840546" lon="10.803230116978106"><ele>114.0</ele><time>2026-03-28T17:32:33Z</time></trkpt><trkpt lat="45.4168547688936" lon="10.803710271320192"><ele>113.5</ele><time>2026-03-28T17:32:34Z</time></trkpt><trkpt lat="45.41680158281274" lon="10.804190385140954"><ele>113.0</ele><time>2026-03-28T17:32:35Z</time></trkpt><trkpt lat="45.416750866107556" lon="10.804672645238384"><ele>113.0</ele><time>2026-03-28T17:32:36Z</time></trkpt><trkpt lat="45.41670093450588" lon="10.805155978946347"><ele>113.0</ele><time>2026-03-28T17:32:37Z</time></trkpt><trkpt lat="45.41664961674894" lon="10.805635667502457"><ele>115.0</ele><time>2026-03-28T17:32:38Z</time></trkpt><trkpt lat="45.41659698172291" lon="10.806114887532855"><ele>117.0</ele><time>2026-03-28T17:32:39Z</time></trkpt><trkpt lat="45.41654468026004" lon="10.806594772196874"><ele>116.0</ele><time>2026-03-28T17:32:40Z</time></trkpt><trkpt lat="45.416496225328764" lon="10.807074828398445"><ele>115.0</ele><time>2026-03-28T17:32:41Z</time></trkpt><trkpt lat="45.41645215969365" lon="10.807556645478012"><ele>115.0</ele><time>2026-03-28T17:32:42Z</time></trkpt><trkpt lat="45.416411301976105" lon="10.808037014027013"><ele>115.0</ele><time>2026-03-28T17:32:43Z</time></trkpt><trkpt lat="45.41636830952306" lon="10.808516202845656"><ele>115.5</ele><time>2026-03-28T17:32:44Z</time></trkpt><trkpt lat="45.41632681552636" lon="10.808996693419285"><ele>116.0</ele><time>2026-03-28T17:32:45Z</time></trkpt><trkpt lat="45.416285680188864" lon="10.809478977725284"><ele>120.5</ele><time>2026-03-28T17:32:46Z</time></trkpt><trkpt lat="45.416254145910585" lon="10.809966377805324"><ele>125.0</ele><time>2026-03-28T17:32:47Z</time></trkpt><trkpt lat="45.41622798835561" lon="10.8104507909764"><ele>125.5</ele><time>2026-03-28T17:32:48Z</time></trkpt><trkpt lat="45.416205644705094" lon="10.81093798430132"><ele>126.0</ele><time>2026-03-28T17:32:49Z</time></trkpt><trkpt lat="45.416186380693894" lon="10.811424028877411"><ele>123.0</ele><time>2026-03-28T17:32:50Z</time></trkpt><trkpt lat="45.41617150309576" lon="10.81191251034329"><ele>120.0</ele><time>2026-03-28T17:32:51Z</time></trkpt><trkpt lat="45.41616773534988" lon="10.812400294743115"><ele>120.0</ele><time>2026-03-28T17:32:52Z</time></trkpt><trkpt lat="45.41617267490891" lon="10.81288694021901"><ele>120.0</ele><time>2026-03-28T17:32:53Z</time></trkpt><trkpt lat="45.416185143530576" lon="10.813372528136387"><ele>120.0</ele><time>2026-03-28T17:32:54Z</time></trkpt><trkpt lat="45.41620688013195" lon="10.813856827492776"><ele>120.0</ele><time>2026-03-28T17:32:55Z</time></trkpt><trkpt lat="45.41623164254968" lon="10.814343632255396"><ele>120.0</ele><time>2026-03-28T17:32:56Z</time></trkpt><trkpt lat="45.416260945536024" lon="10.814830012876095"><ele>120.0</ele><time>2026-03-28T17:32:57Z</time></trkpt><trkpt lat="45.41629871498029" lon="10.815314916490056"><ele>119.5</ele><time>2026-03-28T17:32:58Z</time></trkpt><trkpt lat="45.416338378698335" lon="10.815800950999023"><ele>119.0</ele><time>2026-03-28T17:32:59Z</time></trkpt><trkpt lat="45.41638088103088" lon="10.816287299335626"><ele>120.0</ele><time>2026-03-28T17:33:00Z</time></trkpt><trkpt lat="45.41642176462376" lon="10.816775457021006"><ele>121.0</ele><time>2026-03-28T17:33:01Z</time></trkpt><trkpt lat="45.41646279926051" lon="10.817262502211843"><ele>117.5</ele><time>2026-03-28T17:33:02Z</time></trkpt><trkpt lat="45.41650370550789" lon="10.81774994384196"><ele>114.0</ele><time>2026-03-28T17:33:03Z</time></trkpt><trkpt lat="45.41654416425526" lon="10.81823589850067"><ele>113.0</ele><time>2026-03-28T17:33:04Z</time></trkpt><trkpt lat="45.41658425413955" lon="10.818722698077716"><ele>112.0</ele><time>2026-03-28T17:33:05Z</time></trkpt><trkpt lat="45.41662376638592" lon="10.819206503124772"><ele>111.5</ele><time>2026-03-28T17:33:06Z</time></trkpt><trkpt lat="45.41666196405217" lon="10.819690134269528"><ele>111.0</ele><time>2026-03-28T17:33:07Z</time></trkpt><trkpt lat="45.41669874656495" lon="10.82017761466382"><ele>110.0</ele><time>2026-03-28T17:33:08Z</time></trkpt><trkpt lat="45.416735073678865" lon="10.820665509139339"><ele>109.0</ele><time>2026-03-28T17:33:09Z</time></trkpt><trkpt lat="45.4167710305563" lon="10.821153275880981"><ele>108.5</ele><time>2026-03-28T17:33:10Z</time></trkpt><trkpt lat="45.41680603485489" lon="10.821638877399055"><ele>108.0</ele><time>2026-03-28T17:33:11Z</time></trkpt><trkpt lat="45.41684142501896" lon="10.822122294530804"><ele>107.0</ele><time>2026-03-28T17:33:12Z</time></trkpt><trkpt lat="45.416877548928035" lon="10.822598284422892"><ele>106.0</ele><time>2026-03-28T17:33:13Z</time></trkpt><trkpt lat="45.41691310388942" lon="10.823073468566006"><ele>107.0</ele><time>2026-03-28T17:33:13.999Z</time></trkpt><trkpt lat="45.41694846628782" lon="10.823552869250744"><ele>108.0</ele><time>2026-03-28T17:33:14.999Z</time></trkpt><trkpt lat="45.41698310587018" lon="10.82402326291442"><ele>108.5</ele><time>2026-03-28T17:33:15.999Z</time></trkpt><trkpt lat="45.417019030774114" lon="10.82448759959383"><ele>109.0</ele><time>2026-03-28T17:33:16.999Z</time></trkpt><trkpt lat="45.417052535513484" lon="10.82494343313407"><ele>107.5</ele><time>2026-03-28T17:33:17.999Z</time></trkpt><trkpt lat="45.41708261223131" lon="10.825390643561152"><ele>106.0</ele><time>2026-03-28T17:33:18.999Z</time></trkpt><trkpt lat="45.41711464746348" lon="10.825837182166946"><ele>106.5</ele><time>2026-03-28T17:33:19.999Z</time></trkpt><trkpt lat="45.417146865640596" lon="10.826278020225764"><ele>107.0</ele><time>2026-03-28T17:33:20.999Z</time></trkpt><trkpt lat="45.417180844651035" lon="10.826714860669165"><ele>107.0</ele><time>2026-03-28T17:33:21.999Z</time></trkpt><trkpt lat="45.417214162493316" lon="10.827150621023002"><ele>107.0</ele><time>2026-03-28T17:33:22.999Z</time></trkpt><trkpt lat="45.41724734188427" lon="10.827584911324415"><ele>106.0</ele><time>2026-03-28T17:33:23.999Z</time></trkpt><trkpt lat="45.417279808277385" lon="10.828020684493547"><ele>105.0</ele><time>2026-03-28T17:33:24.999Z</time></trkpt><trkpt lat="45.41731415821275" lon="10.828461755364737"><ele>104.5</ele><time>2026-03-28T17:33:25.999Z</time></trkpt><trkpt lat="45.41734689053802" lon="10.828907545151138"><ele>104.0</ele><time>2026-03-28T17:33:26.999Z</time></trkpt><trkpt lat="45.41737857507339" lon="10.82935747467576"><ele>104.0</ele><time>2026-03-28T17:33:27.999Z</time></trkpt><trkpt lat="45.41741102155564" lon="10.829812695794038"><ele>104.0</ele><time>2026-03-28T17:33:28.999Z</time></trkpt><trkpt lat="45.41744394353309" lon="10.830266567173803"><ele>104.5</ele><time>2026-03-28T17:33:29.999Z</time></trkpt><trkpt lat="45.41747743451021" lon="10.830713932536705"><ele>105.0</ele><time>2026-03-28T17:33:30.999Z</time></trkpt><trkpt lat="45.41751024290588" lon="10.83116132914086"><ele>105.0</ele><time>2026-03-28T17:33:31.999Z</time></trkpt><trkpt lat="45.41754287687667" lon="10.831610009569895"><ele>105.0</ele><time>2026-03-28T17:33:32.999Z</time></trkpt><trkpt lat="45.41757588726775" lon="10.832056183759237"><ele>106.5</ele><time>2026-03-28T17:33:33.999Z</time></trkpt><trkpt lat="45.417608034558484" lon="10.832496737734278"><ele>108.0</ele><time>2026-03-28T17:33:34.999Z</time></trkpt><trkpt lat="45.417639135832715" lon="10.832929579771"><ele>109.5</ele><time>2026-03-28T17:33:35.999Z</time></trkpt><trkpt lat="45.41766978777152" lon="10.833352640884911"><ele>111.0</ele><time>2026-03-28T17:33:36.999Z</time></trkpt><trkpt lat="45.41770046077633" lon="10.833770152695166"><ele>111.0</ele><time>2026-03-28T17:33:37.999Z</time></trkpt><trkpt lat="45.4177308601673" lon="10.834180385254662"><ele>111.0</ele><time>2026-03-28T17:33:38.999Z</time></trkpt><trkpt lat="45.41776016681267" lon="10.8345867986547"><ele>112.0</ele><time>2026-03-28T17:33:39.999Z</time></trkpt><trkpt lat="45.41778708366045" lon="10.834988539813102"><ele>113.0</ele><time>2026-03-28T17:33:40.999Z</time></trkpt><trkpt lat="45.41781211429299" lon="10.835383109326429"><ele>113.0</ele><time>2026-03-28T17:33:41.999Z</time></trkpt><trkpt lat="45.41783342473989" lon="10.835775840366232"><ele>113.0</ele><time>2026-03-28T17:33:42.999Z</time></trkpt><trkpt lat="45.41785013137332" lon="10.836173103280249"><ele>114.0</ele><time>2026-03-28T17:33:43.999Z</time></trkpt><trkpt lat="45.41786300641267" lon="10.836574375181478"><ele>115.0</ele><time>2026-03-28T17:33:44.999Z</time></trkpt><trkpt lat="45.41787416111856" lon="10.836983793394246"><ele>115.0</ele><time>2026-03-28T17:33:45.999Z</time></trkpt><trkpt lat="45.41788321093877" lon="10.837398858625841"><ele>115.0</ele><time>2026-03-28T17:33:46.999Z</time></trkpt><trkpt lat="45.41788936866833" lon="10.837819237216586"><ele>114.5</ele><time>2026-03-28T17:33:48Z</time></trkpt><trkpt lat="45.41789223667217" lon="10.83824059409825"><ele>114.0</ele><time>2026-03-28T17:33:49Z</time></trkpt><trkpt lat="45.41789170860873" lon="10.838666770058635"><ele>114.5</ele><time>2026-03-28T17:33:50Z</time></trkpt><trkpt lat="45.41788725238958" lon="10.839098825835888"><ele>115.0</ele><time>2026-03-28T17:33:51Z</time></trkpt><trkpt lat="45.417879423241246" lon="10.83953476886226"><ele>115.0</ele><time>2026-03-28T17:33:52Z</time></trkpt><trkpt lat="45.41787018510905" lon="10.839973761194974"><ele>115.0</ele><time>2026-03-28T17:33:53Z</time></trkpt><trkpt lat="45.41785598848073" lon="10.840422270926853"><ele>115.5</ele><time>2026-03-28T17:33:54Z</time></trkpt><trkpt lat="45.41783620989544" lon="10.840874703589549"><ele>116.0</ele><time>2026-03-28T17:33:55Z</time></trkpt><trkpt lat="45.41781265612267" lon="10.841328900239878"><ele>116.0</ele><time>2026-03-28T17:33:56Z</time></trkpt><trkpt lat="45.4177857736659" lon="10.841785770078411"><ele>116.0</ele><time>2026-03-28T17:33:57Z</time></trkpt><trkpt lat="45.41775501689664" lon="10.842245283254647"><ele>113.5</ele><time>2026-03-28T17:33:58Z</time></trkpt><trkpt lat="45.41771987655784" lon="10.842709015885921"><ele>111.0</ele><time>2026-03-28T17:33:59Z</time></trkpt><trkpt lat="45.41767869788737" lon="10.843176564876476"><ele>109.0</ele><time>2026-03-28T17:34:00Z</time></trkpt><trkpt lat="45.41763295858833" lon="10.843646408363215"><ele>107.0</ele><time>2026-03-28T17:34:01Z</time></trkpt><trkpt lat="45.41758336445762" lon="10.844116754494735"><ele>107.5</ele><time>2026-03-28T17:34:02Z</time></trkpt><trkpt lat="45.41753063527103" lon="10.844590183211517"><ele>108.0</ele><time>2026-03-28T17:34:03Z</time></trkpt><trkpt lat="45.417474443315356" lon="10.845064526050352"><ele>106.0</ele><time>2026-03-28T17:34:04Z</time></trkpt><trkpt lat="45.417413525188714" lon="10.8455411186523"><ele>104.0</ele><time>2026-03-28T17:34:05Z</time></trkpt><trkpt lat="45.41734822499183" lon="10.84601821949926"><ele>103.0</ele><time>2026-03-28T17:34:06Z</time></trkpt><trkpt lat="45.41727968221399" lon="10.846491737881744"><ele>102.0</ele><time>2026-03-28T17:34:07Z</time></trkpt><trkpt lat="45.417205152601056" lon="10.846962576888524"><ele>100.0</ele><time>2026-03-28T17:34:08Z</time></trkpt><trkpt lat="45.417129459498945" lon="10.847424799289435"><ele>98.0</ele><time>2026-03-28T17:34:09Z</time></trkpt><trkpt lat="45.41705149306153" lon="10.847884056061257"><ele>97.5</ele><time>2026-03-28T17:34:10Z</time></trkpt><trkpt lat="45.41696890298111" lon="10.848344921271092"><ele>97.0</ele><time>2026-03-28T17:34:11Z</time></trkpt><trkpt lat="45.41688419769848" lon="10.848810489572655"><ele>96.5</ele><time>2026-03-28T17:34:12Z</time></trkpt><trkpt lat="45.41680014669212" lon="10.849278516084189"><ele>96.0</ele><time>2026-03-28T17:34:13Z</time></trkpt><trkpt lat="45.41671722752707" lon="10.849753847607001"><ele>95.0</ele><time>2026-03-28T17:34:14Z</time></trkpt><trkpt lat="45.41663290664792" lon="10.850232152477341"><ele>94.0</ele><time>2026-03-28T17:34:15Z</time></trkpt><trkpt lat="45.41654927606269" lon="10.850709493997869"><ele>93.0</ele><time>2026-03-28T17:34:16Z</time></trkpt><trkpt lat="45.41646581229372" lon="10.851189695924795"><ele>92.0</ele><time>2026-03-28T17:34:17Z</time></trkpt><trkpt lat="45.41638216983329" lon="10.851666138347381"><ele>91.5</ele><time>2026-03-28T17:34:18Z</time></trkpt><trkpt lat="45.416297420283875" lon="10.852142371021488"><ele>91.0</ele><time>2026-03-28T17:34:19Z</time></trkpt><trkpt lat="45.41621330849344" lon="10.852617151489111"><ele>90.5</ele><time>2026-03-28T17:34:20Z</time></trkpt><trkpt lat="45.41613088278901" lon="10.853092754778697"><ele>90.0</ele><time>2026-03-28T17:34:21Z</time></trkpt><trkpt lat="45.41603781454495" lon="10.853556324672338"><ele>89.5</ele><time>2026-03-28T17:34:22Z</time></trkpt><trkpt lat="45.41596323868212" lon="10.854045273589835"><ele>89.0</ele><time>2026-03-28T17:34:23Z</time></trkpt><trkpt lat="45.41587913428096" lon="10.854515163274117"><ele>89.0</ele><time>2026-03-28T17:34:24Z</time></trkpt><trkpt lat="45.41579590924476" lon="10.854982938452887"><ele>89.0</ele><time>2026-03-28T17:34:25Z</time></trkpt><trkpt lat="45.41571311724038" lon="10.85545657429597"><ele>89.5</ele><time>2026-03-28T17:34:26Z</time></trkpt><trkpt lat="45.415630080446746" lon="10.855930343005896"><ele>90.0</ele><time>2026-03-28T17:34:27Z</time></trkpt><trkpt lat="45.41554589982185" lon="10.856402231488117"><ele>89.0</ele><time>2026-03-28T17:34:28Z</time></trkpt><trkpt lat="45.415464985980854" lon="10.856874093104185"><ele>88.0</ele><time>2026-03-28T17:34:29Z</time></trkpt><trkpt lat="45.415384688578776" lon="10.857346194364972"><ele>87.5</ele><time>2026-03-28T17:34:30Z</time></trkpt><trkpt lat="45.415310975009746" lon="10.857823690812385"><ele>87.0</ele><time>2026-03-28T17:34:31Z</time></trkpt><trkpt lat="45.415245885307314" lon="10.858301131773448"><ele>86.5</ele><time>2026-03-28T17:34:32Z</time></trkpt><trkpt lat="45.41518453219866" lon="10.858779459909835"><ele>86.0</ele><time>2026-03-28T17:34:33Z</time></trkpt><trkpt lat="45.415124703482824" lon="10.859256849252938"><ele>86.0</ele><time>2026-03-28T17:34:34Z</time></trkpt><trkpt lat="45.41506979750342" lon="10.859736475204706"><ele>86.0</ele><time>2026-03-28T17:34:35Z</time></trkpt><trkpt lat="45.41502153375094" lon="10.860217398418174"><ele>85.0</ele><time>2026-03-28T17:34:36Z</time></trkpt><trkpt lat="45.414972300787845" lon="10.860695323002629"><ele>84.0</ele><time>2026-03-28T17:34:37Z</time></trkpt><trkpt lat="45.41492903668815" lon="10.861179227283316"><ele>83.5</ele><time>2026-03-28T17:34:38Z</time></trkpt><trkpt lat="45.41489103260825" lon="10.861664833935437"><ele>83.0</ele><time>2026-03-28T17:34:39Z</time></trkpt><trkpt lat="45.41485746431919" lon="10.862150556704542"><ele>83.0</ele><time>2026-03-28T17:34:40Z</time></trkpt><trkpt lat="45.414828919177125" lon="10.862638798256675"><ele>83.0</ele><time>2026-03-28T17:34:41Z</time></trkpt><trkpt lat="45.41480233787495" lon="10.863124217285621"><ele>82.5</ele><time>2026-03-28T17:34:42Z</time></trkpt><trkpt lat="45.414776108794754" lon="10.863610961238399"><ele>82.0</ele><time>2026-03-28T17:34:43Z</time></trkpt><trkpt lat="45.414750187720834" lon="10.864094414800212"><ele>82.0</ele><time>2026-03-28T17:34:44Z</time></trkpt><trkpt lat="45.414722422655004" lon="10.864581318481482"><ele>82.0</ele><time>2026-03-28T17:34:45Z</time></trkpt><trkpt lat="45.41469476373221" lon="10.865065945119875"><ele>82.0</ele><time>2026-03-28T17:34:46Z</time></trkpt><trkpt lat="45.41466496683153" lon="10.86555059275781"><ele>82.0</ele><time>2026-03-28T17:34:47Z</time></trkpt><trkpt lat="45.4146349188584" lon="10.866036412033264"><ele>82.0</ele><time>2026-03-28T17:34:48Z</time></trkpt><trkpt lat="45.41460652355554" lon="10.866521453607845"><ele>82.0</ele><time>2026-03-28T17:34:49Z</time></trkpt><trkpt lat="45.414579998653856" lon="10.86700754073756"><ele>81.5</ele><time>2026-03-28T17:34:50Z</time></trkpt><trkpt lat="45.41455141517305" lon="10.867493211035647"><ele>81.0</ele><time>2026-03-28T17:34:51Z</time></trkpt><trkpt lat="45.414523830689085" lon="10.867979519759894"><ele>81.5</ele><time>2026-03-28T17:34:52Z</time></trkpt><trkpt lat="45.414496627200776" lon="10.868464322516274"><ele>82.0</ele><time>2026-03-28T17:34:53Z</time></trkpt><trkpt lat="45.41446868314749" lon="10.868949933781938"><ele>82.5</ele><time>2026-03-28T17:34:54Z</time></trkpt><trkpt lat="45.414439918656726" lon="10.86943416741508"><ele>83.0</ele><time>2026-03-28T17:34:55Z</time></trkpt><trkpt lat="45.41441085458907" lon="10.869921186426195"><ele>83.0</ele><time>2026-03-28T17:34:56Z</time></trkpt><trkpt lat="45.414382022157085" lon="10.870407334453336"><ele>83.0</ele><time>2026-03-28T17:34:57Z</time></trkpt><trkpt lat="45.414353623533" lon="10.870894425265327"><ele>82.5</ele><time>2026-03-28T17:34:58Z</time></trkpt><trkpt lat="45.41432665178295" lon="10.87138013179119"><ele>82.0</ele><time>2026-03-28T17:34:59Z</time></trkpt><trkpt lat="45.414301466614575" lon="10.871863821018627"><ele>81.5</ele><time>2026-03-28T17:35:00Z</time></trkpt><trkpt lat="45.41427511443884" lon="10.872348310996465"><ele>81.0</ele><time>2026-03-28T17:35:01Z</time></trkpt><trkpt lat="45.414245788148875" lon="10.872833613588263"><ele>81.0</ele><time>2026-03-28T17:35:02Z</time></trkpt><trkpt lat="45.41421108691343" lon="10.873318274949263"><ele>81.0</ele><time>2026-03-28T17:35:03Z</time></trkpt><trkpt lat="45.414174666206165" lon="10.873805054794824"><ele>81.5</ele><time>2026-03-28T17:35:04Z</time></trkpt><trkpt lat="45.414138513977605" lon="10.874292432807126"><ele>82.0</ele><time>2026-03-28T17:35:05Z</time></trkpt><trkpt lat="45.414107384994175" lon="10.874779159165202"><ele>83.0</ele><time>2026-03-28T17:35:06Z</time></trkpt><trkpt lat="45.414079537710265" lon="10.875264231883445"><ele>84.0</ele><time>2026-03-28T17:35:07Z</time></trkpt><trkpt lat="45.414053610156635" lon="10.875749393620897"><ele>82.5</ele><time>2026-03-28T17:35:08Z</time></trkpt><trkpt lat="45.414025441096506" lon="10.876234894856484"><ele>81.0</ele><time>2026-03-28T17:35:09Z</time></trkpt><trkpt lat="45.413998640553494" lon="10.876722184305217"><ele>81.0</ele><time>2026-03-28T17:35:10Z</time></trkpt><trkpt lat="45.4139711968982" lon="10.877207432687092"><ele>81.0</ele><time>2026-03-28T17:35:11Z</time></trkpt><trkpt lat="45.41394524863821" lon="10.877692170476656"><ele>81.0</ele><time>2026-03-28T17:35:12Z</time></trkpt><trkpt lat="45.41392294372891" lon="10.878177149869087"><ele>81.0</ele><time>2026-03-28T17:35:13Z</time></trkpt><trkpt lat="45.41390075340505" lon="10.87866134605754"><ele>81.5</ele><time>2026-03-28T17:35:14Z</time></trkpt><trkpt lat="45.41387694843642" lon="10.879146058235772"><ele>82.0</ele><time>2026-03-28T17:35:15Z</time></trkpt><trkpt lat="45.41385300150275" lon="10.879629736819805"><ele>81.0</ele><time>2026-03-28T17:35:16Z</time></trkpt><trkpt lat="45.41382508923072" lon="10.880115470560993"><ele>80.0</ele><time>2026-03-28T17:35:17Z</time></trkpt><trkpt lat="45.41379688493223" lon="10.880602244727612"><ele>80.0</ele><time>2026-03-28T17:35:17.999Z</time></trkpt><trkpt lat="45.41377071984582" lon="10.881087411854153"><ele>80.0</ele><time>2026-03-28T17:35:18.999Z</time></trkpt><trkpt lat="45.41374420045548" lon="10.88157200873227"><ele>80.5</ele><time>2026-03-28T17:35:19.999Z</time></trkpt><trkpt lat="45.41371706639605" lon="10.882059021780277"><ele>81.0</ele><time>2026-03-28T17:35:20.999Z</time></trkpt><trkpt lat="45.41368838419031" lon="10.882544703329115"><ele>81.0</ele><time>2026-03-28T17:35:21.999Z</time></trkpt><trkpt lat="45.413659215267224" lon="10.883029683634618"><ele>81.0</ele><time>2026-03-28T17:35:22.999Z</time></trkpt><trkpt lat="45.41363009065137" lon="10.883514858994388"><ele>81.0</ele><time>2026-03-28T17:35:23.999Z</time></trkpt><trkpt lat="45.41360044955858" lon="10.884000531642029"><ele>81.0</ele><time>2026-03-28T17:35:24.999Z</time></trkpt><trkpt lat="45.41357105660802" lon="10.884486007836156"><ele>80.5</ele><time>2026-03-28T17:35:25.999Z</time></trkpt><trkpt lat="45.41354332871909" lon="10.884973899931303"><ele>80.0</ele><time>2026-03-28T17:35:26.999Z</time></trkpt><trkpt lat="45.41351533912563" lon="10.885457203214573"><ele>79.5</ele><time>2026-03-28T17:35:27.999Z</time></trkpt><trkpt lat="45.41348679508828" lon="10.885942247752775"><ele>79.0</ele><time>2026-03-28T17:35:28.999Z</time></trkpt><trkpt lat="45.4134597703812" lon="10.88642735594218"><ele>79.5</ele><time>2026-03-28T17:35:29.999Z</time></trkpt><trkpt lat="45.41343201851703" lon="10.886912098493282"><ele>80.0</ele><time>2026-03-28T17:35:30.999Z</time></trkpt><trkpt lat="45.413403585786995" lon="10.887397604883661"><ele>80.0</ele><time>2026-03-28T17:35:31.999Z</time></trkpt><trkpt lat="45.41337526548758" lon="10.887883198442706"><ele>80.0</ele><time>2026-03-28T17:35:32.999Z</time></trkpt><trkpt lat="45.41334574896072" lon="10.888369680717418"><ele>79.5</ele><time>2026-03-28T17:35:33.999Z</time></trkpt><trkpt lat="45.41331596664116" lon="10.8888554248405"><ele>79.0</ele><time>2026-03-28T17:35:34.999Z</time></trkpt><trkpt lat="45.41328752879917" lon="10.889342635695945"><ele>79.0</ele><time>2026-03-28T17:35:35.999Z</time></trkpt><trkpt lat="45.41325872358607" lon="10.88982893751221"><ele>79.0</ele><time>2026-03-28T17:35:36.999Z</time></trkpt><trkpt lat="45.41322733644961" lon="10.890313721815524"><ele>78.5</ele><time>2026-03-28T17:35:37.999Z</time></trkpt><trkpt lat="45.41318845916983" lon="10.890797678376419"><ele>78.0</ele><time>2026-03-28T17:35:38.999Z</time></trkpt><trkpt lat="45.41314461633368" lon="10.891282595554696"><ele>78.0</ele><time>2026-03-28T17:35:39.999Z</time></trkpt><trkpt lat="45.41309437878119" lon="10.891765548335323"><ele>78.0</ele><time>2026-03-28T17:35:40.999Z</time></trkpt><trkpt lat="45.413039167287025" lon="10.892248663534998"><ele>77.5</ele><time>2026-03-28T17:35:41.999Z</time></trkpt><trkpt lat="45.412980568849264" lon="10.892730276868592"><ele>77.0</ele><time>2026-03-28T17:35:42.999Z</time></trkpt><trkpt lat="45.41291524426316" lon="10.893216042054595"><ele>77.0</ele><time>2026-03-28T17:35:43.999Z</time></trkpt><trkpt lat="45.41284703623844" lon="10.893696722087427"><ele>77.0</ele><time>2026-03-28T17:35:44.999Z</time></trkpt><trkpt lat="45.41277649611545" lon="10.894175173352334"><ele>77.0</ele><time>2026-03-28T17:35:45.999Z</time></trkpt><trkpt lat="45.41270226069091" lon="10.894650753327156"><ele>77.0</ele><time>2026-03-28T17:35:46.999Z</time></trkpt><trkpt lat="45.41262563274829" lon="10.895124599211728"><ele>77.0</ele><time>2026-03-28T17:35:47.999Z</time></trkpt><trkpt lat="45.41254189284754" lon="10.89559694871145"><ele>77.0</ele><time>2026-03-28T17:35:48.999Z</time></trkpt><trkpt lat="45.41245432321026" lon="10.896068884438018"><ele>77.0</ele><time>2026-03-28T17:35:49.999Z</time></trkpt><trkpt lat="45.41235937129732" lon="10.896540379603088"><ele>77.0</ele><time>2026-03-28T17:35:50.999Z</time></trkpt><trkpt lat="45.41226444390955" lon="10.89700897126908"><ele>77.0</ele><time>2026-03-28T17:35:51.999Z</time></trkpt><trkpt lat="45.4121648238389" lon="10.897477276943436"><ele>77.0</ele><time>2026-03-28T17:35:52.999Z</time></trkpt><trkpt lat="45.41205811827972" lon="10.897942850962224"><ele>76.5</ele><time>2026-03-28T17:35:54Z</time></trkpt><trkpt lat="45.41194782976593" lon="10.898405884713835"><ele>76.0</ele><time>2026-03-28T17:35:55Z</time></trkpt><trkpt lat="45.41183567572987" lon="10.898867002901106"><ele>75.5</ele><time>2026-03-28T17:35:56Z</time></trkpt><trkpt lat="45.411719486021425" lon="10.899326435739724"><ele>75.0</ele><time>2026-03-28T17:35:57Z</time></trkpt><trkpt lat="45.41159978985274" lon="10.899781571355318"><ele>76.0</ele><time>2026-03-28T17:35:58Z</time></trkpt><trkpt lat="45.41147746496088" lon="10.900235905883969"><ele>77.0</ele><time>2026-03-28T17:35:59Z</time></trkpt><trkpt lat="45.41135279496052" lon="10.900688921071799"><ele>76.0</ele><time>2026-03-28T17:36:00Z</time></trkpt><trkpt lat="45.411227108608124" lon="10.901142550914644"><ele>75.0</ele><time>2026-03-28T17:36:01Z</time></trkpt><trkpt lat="45.41110239678293" lon="10.901597035901048"><ele>75.5</ele><time>2026-03-28T17:36:02Z</time></trkpt><trkpt lat="45.410979784945404" lon="10.902051508428599"><ele>76.0</ele><time>2026-03-28T17:36:03Z</time></trkpt><trkpt lat="45.41085746751607" lon="10.90250650024416"><ele>75.5</ele><time>2026-03-28T17:36:04Z</time></trkpt><trkpt lat="45.41073457754735" lon="10.902962587633551"><ele>75.0</ele><time>2026-03-28T17:36:05Z</time></trkpt><trkpt lat="45.41061067861002" lon="10.903418903290039"><ele>74.0</ele><time>2026-03-28T17:36:06Z</time></trkpt><trkpt lat="45.41048636699392" lon="10.903872863367395"><ele>73.0</ele><time>2026-03-28T17:36:07Z</time></trkpt><trkpt lat="45.41036128216064" lon="10.904327749666336"><ele>73.0</ele><time>2026-03-28T17:36:08Z</time></trkpt><trkpt lat="45.41023587170134" lon="10.904784875594384"><ele>73.0</ele><time>2026-03-28T17:36:09Z</time></trkpt><trkpt lat="45.41011271237947" lon="10.905243040715389"><ele>73.5</ele><time>2026-03-28T17:36:10Z</time></trkpt><trkpt lat="45.409987979525816" lon="10.905699775369017"><ele>74.0</ele><time>2026-03-28T17:36:11Z</time></trkpt><trkpt lat="45.40986371805706" lon="10.906156280101493"><ele>73.0</ele><time>2026-03-28T17:36:12Z</time></trkpt><trkpt lat="45.409738029280454" lon="10.906613196616366"><ele>72.0</ele><time>2026-03-28T17:36:13Z</time></trkpt><trkpt lat="45.409613787219406" lon="10.907069142191713"><ele>72.0</ele><time>2026-03-28T17:36:14Z</time></trkpt><trkpt lat="45.40949038214514" lon="10.90752204927876"><ele>72.0</ele><time>2026-03-28T17:36:15Z</time></trkpt><trkpt lat="45.409369301355014" lon="10.90796578822697"><ele>72.0</ele><time>2026-03-28T17:36:16Z</time></trkpt><trkpt lat="45.40924999492643" lon="10.908405526905879"><ele>72.0</ele><time>2026-03-28T17:36:17Z</time></trkpt><trkpt lat="45.40913215131569" lon="10.908838911563972"><ele>73.0</ele><time>2026-03-28T17:36:18Z</time></trkpt><trkpt lat="45.40901670066475" lon="10.909267735262468"><ele>74.0</ele><time>2026-03-28T17:36:19Z</time></trkpt><trkpt lat="45.40890262689202" lon="10.90968834728529"><ele>72.5</ele><time>2026-03-28T17:36:20Z</time></trkpt><trkpt lat="45.40878845036137" lon="10.910100887852545"><ele>71.0</ele><time>2026-03-28T17:36:21Z</time></trkpt><trkpt lat="45.40867780570385" lon="10.91049881892992"><ele>71.0</ele><time>2026-03-28T17:36:22Z</time></trkpt><trkpt lat="45.4085676992771" lon="10.91089502677436"><ele>71.0</ele><time>2026-03-28T17:36:23Z</time></trkpt><trkpt lat="45.408460835474514" lon="10.911282368477462"><ele>70.5</ele><time>2026-03-28T17:36:24Z</time></trkpt><trkpt lat="45.408358086358916" lon="10.91165528237599"><ele>70.0</ele><time>2026-03-28T17:36:25Z</time></trkpt><trkpt lat="45.40825706761292" lon="10.912014854485045"><ele>70.0</ele><time>2026-03-28T17:36:26Z</time></trkpt><trkpt lat="45.40816075985672" lon="10.912360103931402"><ele>70.0</ele><time>2026-03-28T17:36:27Z</time></trkpt><trkpt lat="45.408067129108034" lon="10.912693819874445"><ele>72.5</ele><time>2026-03-28T17:36:28Z</time></trkpt><trkpt lat="45.40797378242916" lon="10.913016068347474"><ele>75.0</ele><time>2026-03-28T17:36:29Z</time></trkpt><trkpt lat="45.40788467151319" lon="10.913327880408874"><ele>73.5</ele><time>2026-03-28T17:36:30Z</time></trkpt><trkpt lat="45.40779678408391" lon="10.913631192792176"><ele>72.0</ele><time>2026-03-28T17:36:31Z</time></trkpt><trkpt lat="45.407709108426324" lon="10.91392902401473"><ele>72.0</ele><time>2026-03-28T17:36:32Z</time></trkpt><trkpt lat="45.40762524357466" lon="10.914222940544988"><ele>72.0</ele><time>2026-03-28T17:36:33Z</time></trkpt><trkpt lat="45.407543747178316" lon="10.914520046364133"><ele>72.0</ele><time>2026-03-28T17:36:34Z</time></trkpt><trkpt lat="45.40746133162983" lon="10.914810305382279"><ele>71.66666666666667</ele><time>2026-03-28T17:36:35Z</time></trkpt><trkpt lat="45.407379097609805" lon="10.915099529129526"><ele>71.33333333333334</ele><time>2026-03-28T17:36:36Z</time></trkpt><trkpt lat="45.40729600468315" lon="10.91538765225403"><ele>71.0</ele><time>2026-03-28T17:36:37Z</time></trkpt><trkpt lat="45.40721102484527" lon="10.915679600798445"><ele>70.0</ele><time>2026-03-28T17:36:38Z</time></trkpt><trkpt lat="45.407127784337405" lon="10.915983377486336"><ele>69.0</ele><time>2026-03-28T17:36:39Z</time></trkpt><trkpt lat="45.40704051278029" lon="10.916294909373873"><ele>69.0</ele><time>2026-03-28T17:36:40Z</time></trkpt><trkpt lat="45.40695135289593" lon="10.916610778009908"><ele>69.0</ele><time>2026-03-28T17:36:41Z</time></trkpt><trkpt lat="45.40686156171984" lon="10.916929258804199"><ele>68.0</ele><time>2026-03-28T17:36:42Z</time></trkpt><trkpt lat="45.40677565964237" lon="10.917238467874151"><ele>67.0</ele><time>2026-03-28T17:36:43Z</time></trkpt><trkpt lat="45.406693197288945" lon="10.917541118747538"><ele>67.66666666666666</ele><time>2026-03-28T17:36:44Z</time></trkpt><trkpt lat="45.40661188661013" lon="10.917834814533926"><ele>68.33333333333333</ele><time>2026-03-28T17:36:45Z</time></trkpt><trkpt lat="45.406533857272315" lon="10.918119013390404"><ele>69.0</ele><time>2026-03-28T17:36:46Z</time></trkpt><trkpt lat="45.40645839887421" lon="10.91839457135082"><ele>69.0</ele><time>2026-03-28T17:36:47Z</time></trkpt><trkpt lat="45.40638463346146" lon="10.918663789392713"><ele>69.0</ele><time>2026-03-28T17:36:48Z</time></trkpt><trkpt lat="45.406315841145094" lon="10.918925491452885"><ele>69.0</ele><time>2026-03-28T17:36:49Z</time></trkpt><trkpt lat="45.40624702549781" lon="10.919183172710555"><ele>68.33333333333333</ele><time>2026-03-28T17:36:50Z</time></trkpt><trkpt lat="45.4061794780518" lon="10.919442318284794"><ele>67.66666666666666</ele><time>2026-03-28T17:36:51Z</time></trkpt><trkpt lat="45.406112761321154" lon="10.919689248381774"><ele>67.0</ele><time>2026-03-28T17:36:52Z</time></trkpt><trkpt lat="45.40604719317827" lon="10.919928140187524"><ele>66.66666666666666</ele><time>2026-03-28T17:36:53Z</time></trkpt><trkpt lat="45.40598297521921" lon="10.920160295853414"><ele>66.33333333333333</ele><time>2026-03-28T17:36:54Z</time></trkpt><trkpt lat="45.40592154905382" lon="10.920385645888153"><ele>66.0</ele><time>2026-03-28T17:36:55Z</time></trkpt><trkpt lat="45.405861306091886" lon="10.9206039038623"><ele>66.0</ele><time>2026-03-28T17:36:56Z</time></trkpt><trkpt lat="45.40580484206357" lon="10.920818211452742"><ele>66.0</ele><time>2026-03-28T17:36:57Z</time></trkpt><trkpt lat="45.40575110756423" lon="10.921023643593632"><ele>66.0</ele><time>2026-03-28T17:36:58Z</time></trkpt><trkpt lat="45.405697615293505" lon="10.92122556796812"><ele>66.0</ele><time>2026-03-28T17:36:59Z</time></trkpt><trkpt lat="45.40564406340446" lon="10.921420611094094"><ele>66.0</ele><time>2026-03-28T17:37:00Z</time></trkpt><trkpt lat="45.405592042575506" lon="10.921608467899954"><ele>66.0</ele><time>2026-03-28T17:37:01Z</time></trkpt><trkpt lat="45.405544287003806" lon="10.921774244138447"><ele>66.0</ele><time>2026-03-28T17:37:02Z</time></trkpt><trkpt lat="45.405502507715255" lon="10.921918757535632"><ele>66.2</ele><time>2026-03-28T17:37:03Z</time></trkpt><trkpt lat="45.40546786457647" lon="10.922055035335188"><ele>66.39999999999999</ele><time>2026-03-28T17:37:04Z</time></trkpt><trkpt lat="45.40543112473384" lon="10.922187233491545"><ele>66.6</ele><time>2026-03-28T17:37:05Z</time></trkpt><trkpt lat="45.40539218361447" lon="10.922317634465895"><ele>66.8</ele><time>2026-03-28T17:37:06Z</time></trkpt><trkpt lat="45.40535543665353" lon="10.922447545860182"><ele>67.0</ele><time>2026-03-28T17:37:07Z</time></trkpt><trkpt lat="45.40531941155608" lon="10.922576028623336"><ele>66.6</ele><time>2026-03-28T17:37:08Z</time></trkpt><trkpt lat="45.40528582055461" lon="10.922701137194476"><ele>66.2</ele><time>2026-03-28T17:37:09Z</time></trkpt><trkpt lat="45.40525135044512" lon="10.922826856543137"><ele>65.8</ele><time>2026-03-28T17:37:10Z</time></trkpt><trkpt lat="45.405215131716865" lon="10.922956775563193"><ele>65.4</ele><time>2026-03-28T17:37:11Z</time></trkpt><trkpt lat="45.40517923843503" lon="10.923088682927473"><ele>65.0</ele><time>2026-03-28T17:37:12Z</time></trkpt><trkpt lat="45.405144098574034" lon="10.923211116939372"><ele>65.0</ele><time>2026-03-28T17:37:13Z</time></trkpt><trkpt lat="45.4051105252219" lon="10.923334001770874"><ele>65.0</ele><time>2026-03-28T17:37:14Z</time></trkpt><trkpt lat="45.40507123719843" lon="10.92346459525343"><ele>65.0</ele><time>2026-03-28T17:37:15Z</time></trkpt><trkpt lat="45.4050257258984" lon="10.923597237935526"><ele>65.0</ele><time>2026-03-28T17:37:16Z</time></trkpt><trkpt lat="45.40497735830928" lon="10.923732328458808"><ele>65.0</ele><time>2026-03-28T17:37:17Z</time></trkpt><trkpt lat="45.40492821565898" lon="10.92388688871036"><ele>64.75</ele><time>2026-03-28T17:37:18Z</time></trkpt><trkpt lat="45.40488008883882" lon="10.924055516828053"><ele>64.5</ele><time>2026-03-28T17:37:19Z</time></trkpt><trkpt lat="45.40483085823681" lon="10.924237028994998"><ele>64.25</ele><time>2026-03-28T17:37:20Z</time></trkpt><trkpt lat="45.40478130618603" lon="10.924421841902737"><ele>64.0</ele><time>2026-03-28T17:37:21Z</time></trkpt><trkpt lat="45.4047321492822" lon="10.924610921491642"><ele>64.0</ele><time>2026-03-28T17:37:22Z</time></trkpt><trkpt lat="45.404681175143416" lon="10.924800312724946"><ele>64.0</ele><time>2026-03-28T17:37:23Z</time></trkpt><trkpt lat="45.40462992987069" lon="10.924993469598688"><ele>64.0</ele><time>2026-03-28T17:37:24Z</time></trkpt><trkpt lat="45.40457742824145" lon="10.92518602010925"><ele>64.0</ele><time>2026-03-28T17:37:25Z</time></trkpt><trkpt lat="45.404524426634445" lon="10.925381376011096"><ele>64.75</ele><time>2026-03-28T17:37:26Z</time></trkpt><trkpt lat="45.40447018796918" lon="10.925578093753952"><ele>65.5</ele><time>2026-03-28T17:37:26.999Z</time></trkpt><trkpt lat="45.40441685688854" lon="10.925772438813812"><ele>66.25</ele><time>2026-03-28T17:37:27.999Z</time></trkpt><trkpt lat="45.404364997681405" lon="10.9259709390315"><ele>67.0</ele><time>2026-03-28T17:37:28.999Z</time></trkpt><trkpt lat="45.404313359763556" lon="10.926167108804488"><ele>67.25</ele><time>2026-03-28T17:37:29.999Z</time></trkpt><trkpt lat="45.40426182459727" lon="10.926364245871744"><ele>67.5</ele><time>2026-03-28T17:37:30.999Z</time></trkpt><trkpt lat="45.404214347140126" lon="10.926555236010953"><ele>67.75</ele><time>2026-03-28T17:37:31.999Z</time></trkpt><trkpt lat="45.40416815295608" lon="10.926760144091586"><ele>68.0</ele><time>2026-03-28T17:37:32.999Z</time></trkpt><trkpt lat="45.404124902554734" lon="10.92696174459609"><ele>67.5</ele><time>2026-03-28T17:37:33.999Z</time></trkpt><trkpt lat="45.404080051171455" lon="10.927152096259661"><ele>67.0</ele><time>2026-03-28T17:37:34.999Z</time></trkpt><trkpt lat="45.40403784320091" lon="10.927338747232417"><ele>66.5</ele><time>2026-03-28T17:37:35.999Z</time></trkpt><trkpt lat="45.40399964112077" lon="10.927526233557183"><ele>66.0</ele><time>2026-03-28T17:37:36.999Z</time></trkpt><trkpt lat="45.40395827776725" lon="10.927718610448782"><ele>66.0</ele><time>2026-03-28T17:37:37.999Z</time></trkpt><trkpt lat="45.403915432000765" lon="10.9279147240642"><ele>66.0</ele><time>2026-03-28T17:37:38.999Z</time></trkpt><trkpt lat="45.403878267839" lon="10.928115342575927"><ele>66.0</ele><time>2026-03-28T17:37:39.999Z</time></trkpt><trkpt lat="45.40383962158705" lon="10.92831281543942"><ele>66.0</ele><time>2026-03-28T17:37:40.999Z</time></trkpt><trkpt lat="45.403800624475146" lon="10.928507874081815"><ele>65.5</ele><time>2026-03-28T17:37:41.999Z</time></trkpt><trkpt lat="45.40376321508853" lon="10.928708109909818"><ele>65.0</ele><time>2026-03-28T17:37:42.999Z</time></trkpt><trkpt lat="45.403722862682756" lon="10.928905450477723"><ele>64.5</ele><time>2026-03-28T17:37:43.999Z</time></trkpt><trkpt lat="45.40368198385722" lon="10.92910212287292"><ele>64.0</ele><time>2026-03-28T17:37:44.999Z</time></trkpt><trkpt lat="45.403639564967385" lon="10.929295538390932"><ele>65.25</ele><time>2026-03-28T17:37:45.999Z</time></trkpt><trkpt lat="45.40359598245153" lon="10.92949037061326"><ele>66.5</ele><time>2026-03-28T17:37:46.999Z</time></trkpt><trkpt lat="45.40355361282587" lon="10.929687347459884"><ele>67.75</ele><time>2026-03-28T17:37:47.999Z</time></trkpt><trkpt lat="45.403513345359585" lon="10.929889568039188"><ele>69.0</ele><time>2026-03-28T17:37:48.999Z</time></trkpt><trkpt lat="45.40347122385792" lon="10.930090662764096"><ele>69.0</ele><time>2026-03-28T17:37:49.999Z</time></trkpt><trkpt lat="45.40343113237853" lon="10.9302985790012"><ele>69.0</ele><time>2026-03-28T17:37:50.999Z</time></trkpt><trkpt lat="45.40339256405292" lon="10.930514009686823"><ele>69.0</ele><time>2026-03-28T17:37:51.999Z</time></trkpt><trkpt lat="45.40335132233979" lon="10.930732336587921"><ele>68.66666666666667</ele><time>2026-03-28T17:37:52.999Z</time></trkpt><trkpt lat="45.40330760543522" lon="10.930952397257933"><ele>68.33333333333334</ele><time>2026-03-28T17:37:53.999Z</time></trkpt><trkpt lat="45.403260818213425" lon="10.931182669168962"><ele>68.0</ele><time>2026-03-28T17:37:54.999Z</time></trkpt><trkpt lat="45.403218526500915" lon="10.931415834781953"><ele>68.0</ele><time>2026-03-28T17:37:55.999Z</time></trkpt><trkpt lat="45.403179196031644" lon="10.931645420916917"><ele>68.0</ele><time>2026-03-28T17:37:56.999Z</time></trkpt><trkpt lat="45.40314453944379" lon="10.931876611810086"><ele>68.0</ele><time>2026-03-28T17:37:57.999Z</time></trkpt><trkpt lat="45.403114285374365" lon="10.932095141549002"><ele>67.0</ele><time>2026-03-28T17:37:58.999Z</time></trkpt><trkpt lat="45.40307943127536" lon="10.932303688454208"><ele>66.0</ele><time>2026-03-28T17:38:00Z</time></trkpt><trkpt lat="45.40304070189305" lon="10.932531223699865"><ele>65.0</ele><time>2026-03-28T17:38:01Z</time></trkpt><trkpt lat="45.402996749907" lon="10.932776547897786"><ele>64.66666666666667</ele><time>2026-03-28T17:38:02Z</time></trkpt><trkpt lat="45.402943227156996" lon="10.933043996861805"><ele>64.33333333333333</ele><time>2026-03-28T17:38:03Z</time></trkpt><trkpt lat="45.402889731732365" lon="10.933324439474033"><ele>64.0</ele><time>2026-03-28T17:38:04Z</time></trkpt><trkpt lat="45.40282986394443" lon="10.933616868259804"><ele>64.0</ele><time>2026-03-28T17:38:05Z</time></trkpt><trkpt lat="45.402765642432" lon="10.933923439452837"><ele>64.0</ele><time>2026-03-28T17:38:06Z</time></trkpt><trkpt lat="45.40270091468859" lon="10.93425433100087"><ele>64.0</ele><time>2026-03-28T17:38:07Z</time></trkpt><trkpt lat="45.402634095584766" lon="10.934582614971108"><ele>64.0</ele><time>2026-03-28T17:38:08Z</time></trkpt><trkpt lat="45.40256624732383" lon="10.934925214084446"><ele>64.5</ele><time>2026-03-28T17:38:09Z</time></trkpt><trkpt lat="45.40249523806923" lon="10.935284756871098"><ele>65.0</ele><time>2026-03-28T17:38:10Z</time></trkpt><trkpt lat="45.40242045658469" lon="10.935653999253894"><ele>64.5</ele><time>2026-03-28T17:38:11Z</time></trkpt><trkpt lat="45.40234311816428" lon="10.93603440774767"><ele>64.0</ele><time>2026-03-28T17:38:12Z</time></trkpt><trkpt lat="45.40226422433635" lon="10.936424376005865"><ele>63.0</ele><time>2026-03-28T17:38:13Z</time></trkpt><trkpt lat="45.40218134518235" lon="10.936820904602405"><ele>62.0</ele><time>2026-03-28T17:38:14Z</time></trkpt><trkpt lat="45.40209807657568" lon="10.93722170330589"><ele>62.0</ele><time>2026-03-28T17:38:15Z</time></trkpt><trkpt lat="45.402013570057086" lon="10.937630599563693"><ele>62.0</ele><time>2026-03-28T17:38:16Z</time></trkpt><trkpt lat="45.40192742937318" lon="10.938044565250896"><ele>61.5</ele><time>2026-03-28T17:38:17Z</time></trkpt><trkpt lat="45.401839412168925" lon="10.938469610315584"><ele>61.0</ele><time>2026-03-28T17:38:18Z</time></trkpt><trkpt lat="45.40175211237581" lon="10.938898875550734"><ele>60.0</ele><time>2026-03-28T17:38:19Z</time></trkpt><trkpt lat="45.40166370897813" lon="10.939330299968706"><ele>59.0</ele><time>2026-03-28T17:38:20Z</time></trkpt><trkpt lat="45.40157474080953" lon="10.939768413538063"><ele>60.0</ele><time>2026-03-28T17:38:21Z</time></trkpt><trkpt lat="45.401486664007464" lon="10.94021285759074"><ele>61.0</ele><time>2026-03-28T17:38:22Z</time></trkpt><trkpt lat="45.40139775448987" lon="10.94065993422875"><ele>60.0</ele><time>2026-03-28T17:38:23Z</time></trkpt><trkpt lat="45.40130944092117" lon="10.94111061796018"><ele>59.0</ele><time>2026-03-28T17:38:24Z</time></trkpt><trkpt lat="45.40122226701379" lon="10.941561517760066"><ele>60.0</ele><time>2026-03-28T17:38:25Z</time></trkpt><trkpt lat="45.40113525466501" lon="10.942012317826851"><ele>61.0</ele><time>2026-03-28T17:38:26Z</time></trkpt><trkpt lat="45.401047601958545" lon="10.942460024705772"><ele>60.0</ele><time>2026-03-28T17:38:27Z</time></trkpt><trkpt lat="45.40095733298217" lon="10.94290344388152"><ele>59.0</ele><time>2026-03-28T17:38:28Z</time></trkpt><trkpt lat="45.400863982201074" lon="10.943344409087944"><ele>59.0</ele><time>2026-03-28T17:38:29Z</time></trkpt><trkpt lat="45.40077138728731" lon="10.943786669584682"><ele>59.0</ele><time>2026-03-28T17:38:30Z</time></trkpt><trkpt lat="45.40068086422975" lon="10.944230615819766"><ele>59.0</ele><time>2026-03-28T17:38:31Z</time></trkpt><trkpt lat="45.400592120250785" lon="10.944677547030492"><ele>59.0</ele><time>2026-03-28T17:38:32Z</time></trkpt><trkpt lat="45.40050621731148" lon="10.94512365927539"><ele>59.5</ele><time>2026-03-28T17:38:33Z</time></trkpt><trkpt lat="45.40042134297752" lon="10.945567893398037"><ele>60.0</ele><time>2026-03-28T17:38:34Z</time></trkpt><trkpt lat="45.40033677310113" lon="10.946012862377373"><ele>60.5</ele><time>2026-03-28T17:38:35Z</time></trkpt><trkpt lat="45.40025141948097" lon="10.946461667937026"><ele>61.0</ele><time>2026-03-28T17:38:36Z</time></trkpt><trkpt lat="45.40016679859878" lon="10.946906808029855"><ele>60.0</ele><time>2026-03-28T17:38:37Z</time></trkpt><trkpt lat="45.400079233758234" lon="10.947349244202856"><ele>59.0</ele><time>2026-03-28T17:38:38Z</time></trkpt><trkpt lat="45.39999136769083" lon="10.947783851244592"><ele>59.0</ele><time>2026-03-28T17:38:39Z</time></trkpt><trkpt lat="45.39990439332746" lon="10.948213980232177"><ele>59.0</ele><time>2026-03-28T17:38:40Z</time></trkpt><trkpt lat="45.39981797655813" lon="10.948649475355806"><ele>59.0</ele><time>2026-03-28T17:38:41Z</time></trkpt><trkpt lat="45.39973022957693" lon="10.949087651444554"><ele>59.0</ele><time>2026-03-28T17:38:42Z</time></trkpt><trkpt lat="45.39964113830747" lon="10.949533497417049"><ele>59.5</ele><time>2026-03-28T17:38:43Z</time></trkpt><trkpt lat="45.39954980635605" lon="10.949982835478902"><ele>60.0</ele><time>2026-03-28T17:38:44Z</time></trkpt><trkpt lat="45.39945775488755" lon="10.950431221743298"><ele>60.5</ele><time>2026-03-28T17:38:45Z</time></trkpt><trkpt lat="45.39936555703552" lon="10.950880831034715"><ele>61.0</ele><time>2026-03-28T17:38:46Z</time></trkpt><trkpt lat="45.39927310691452" lon="10.951333498462583"><ele>61.0</ele><time>2026-03-28T17:38:47Z</time></trkpt><trkpt lat="45.39918138778797" lon="10.951785669002156"><ele>61.0</ele><time>2026-03-28T17:38:48Z</time></trkpt><trkpt lat="45.3990909656609" lon="10.95223481216828"><ele>60.5</ele><time>2026-03-28T17:38:49Z</time></trkpt><trkpt lat="45.39900050468536" lon="10.952677932419643"><ele>60.0</ele><time>2026-03-28T17:38:50Z</time></trkpt><trkpt lat="45.39891153724291" lon="10.953107653622663"><ele>59.5</ele><time>2026-03-28T17:38:51Z</time></trkpt><trkpt lat="45.398825062016634" lon="10.953529625713664"><ele>59.0</ele><time>2026-03-28T17:38:52Z</time></trkpt><trkpt lat="45.39874035431254" lon="10.953942175650802"><ele>61.0</ele><time>2026-03-28T17:38:53Z</time></trkpt><trkpt lat="45.39865742883163" lon="10.954349863870156"><ele>63.0</ele><time>2026-03-28T17:38:54Z</time></trkpt><trkpt lat="45.3985766393895" lon="10.954754360871755"><ele>62.5</ele><time>2026-03-28T17:38:55Z</time></trkpt><trkpt lat="45.3984970398123" lon="10.955157475984826"><ele>62.0</ele><time>2026-03-28T17:38:56Z</time></trkpt><trkpt lat="45.398423481686194" lon="10.955564171920546"><ele>61.0</ele><time>2026-03-28T17:38:57Z</time></trkpt><trkpt lat="45.398355428260246" lon="10.955976501244061"><ele>60.0</ele><time>2026-03-28T17:38:58Z</time></trkpt><trkpt lat="45.398291974315015" lon="10.956394970169969"><ele>60.0</ele><time>2026-03-28T17:38:59Z</time></trkpt><trkpt lat="45.39823208625486" lon="10.95682268989389"><ele>60.0</ele><time>2026-03-28T17:39:00Z</time></trkpt><trkpt lat="45.3981742346623" lon="10.957257759475684"><ele>60.0</ele><time>2026-03-28T17:39:01Z</time></trkpt><trkpt lat="45.39812281467524" lon="10.957701342439814"><ele>60.0</ele><time>2026-03-28T17:39:02Z</time></trkpt><trkpt lat="45.39807423730438" lon="10.958150794152239"><ele>59.5</ele><time>2026-03-28T17:39:03Z</time></trkpt><trkpt lat="45.39802398915392" lon="10.958604046779042"><ele>59.0</ele><time>2026-03-28T17:39:04Z</time></trkpt><trkpt lat="45.39797097399114" lon="10.95906172019988"><ele>59.0</ele><time>2026-03-28T17:39:05Z</time></trkpt><trkpt lat="45.397915808226436" lon="10.959519734447712"><ele>59.0</ele><time>2026-03-28T17:39:06Z</time></trkpt><trkpt lat="45.39785905940863" lon="10.959984331516702"><ele>59.5</ele><time>2026-03-28T17:39:07Z</time></trkpt><trkpt lat="45.39780554245089" lon="10.960451337304859"><ele>60.0</ele><time>2026-03-28T17:39:08Z</time></trkpt><trkpt lat="45.397754656680654" lon="10.960916768385266"><ele>60.0</ele><time>2026-03-28T17:39:09Z</time></trkpt><trkpt lat="45.39770722099652" lon="10.961382512956517"><ele>60.0</ele><time>2026-03-28T17:39:10Z</time></trkpt><trkpt lat="45.39766812969044" lon="10.961857078250638"><ele>59.0</ele><time>2026-03-28T17:39:11Z</time></trkpt><trkpt lat="45.39763321924201" lon="10.962334212581569"><ele>58.0</ele><time>2026-03-28T17:39:12Z</time></trkpt><trkpt lat="45.39760632993933" lon="10.962814063779744"><ele>58.0</ele><time>2026-03-28T17:39:13Z</time></trkpt><trkpt lat="45.39758576634313" lon="10.963295239549455"><ele>58.0</ele><time>2026-03-28T17:39:14Z</time></trkpt><trkpt lat="45.39757064860118" lon="10.963779844009341"><ele>58.0</ele><time>2026-03-28T17:39:15Z</time></trkpt><trkpt lat="45.39755368650349" lon="10.964265464957734"><ele>58.0</ele><time>2026-03-28T17:39:16Z</time></trkpt><trkpt lat="45.39753728704116" lon="10.964752631532885"><ele>57.5</ele><time>2026-03-28T17:39:17Z</time></trkpt><trkpt lat="45.39751959643082" lon="10.965241161341947"><ele>57.0</ele><time>2026-03-28T17:39:18Z</time></trkpt><trkpt lat="45.397498753778706" lon="10.965730871596072"><ele>56.5</ele><time>2026-03-28T17:39:19Z</time></trkpt><trkpt lat="45.39748035904492" lon="10.966220297566805"><ele>56.0</ele><time>2026-03-28T17:39:20Z</time></trkpt><trkpt lat="45.39746342203675" lon="10.966707146185136"><ele>57.0</ele><time>2026-03-28T17:39:21Z</time></trkpt><trkpt lat="45.39744428729206" lon="10.96719330888165"><ele>58.0</ele><time>2026-03-28T17:39:21.999Z</time></trkpt><trkpt lat="45.39742247821985" lon="10.96767855572617"><ele>56.0</ele><time>2026-03-28T17:39:22.999Z</time></trkpt><trkpt lat="45.39739814326856" lon="10.96816117370791"><ele>54.0</ele><time>2026-03-28T17:39:23.999Z</time></trkpt><trkpt lat="45.397373362786674" lon="10.968648282364398"><ele>54.0</ele><time>2026-03-28T17:39:24.999Z</time></trkpt><trkpt lat="45.39735310271655" lon="10.96913439455625"><ele>54.0</ele><time>2026-03-28T17:39:25.999Z</time></trkpt><trkpt lat="45.39733447585409" lon="10.969618882542338"><ele>56.0</ele><time>2026-03-28T17:39:26.999Z</time></trkpt><trkpt lat="45.39731615202865" lon="10.97010440972933"><ele>58.0</ele><time>2026-03-28T17:39:27.999Z</time></trkpt><trkpt lat="45.39729602571623" lon="10.97059013716188"><ele>56.5</ele><time>2026-03-28T17:39:28.999Z</time></trkpt><trkpt lat="45.39727690486973" lon="10.971076397980063"><ele>55.0</ele><time>2026-03-28T17:39:29.999Z</time></trkpt><trkpt lat="45.39725566243118" lon="10.97156078482537"><ele>55.0</ele><time>2026-03-28T17:39:30.999Z</time></trkpt><trkpt lat="45.397234780356364" lon="10.972047711490465"><ele>55.0</ele><time>2026-03-28T17:39:31.999Z</time></trkpt><trkpt lat="45.39721486079578" lon="10.97253172234747"><ele>55.5</ele><time>2026-03-28T17:39:32.999Z</time></trkpt><trkpt lat="45.397195163916585" lon="10.973016094814852"><ele>56.0</ele><time>2026-03-28T17:39:33.999Z</time></trkpt><trkpt lat="45.39717331809374" lon="10.97350334042809"><ele>56.0</ele><time>2026-03-28T17:39:34.999Z</time></trkpt><trkpt lat="45.397152371906984" lon="10.97399004388255"><ele>56.0</ele><time>2026-03-28T17:39:35.999Z</time></trkpt><trkpt lat="45.39713166325192" lon="10.974476279762529"><ele>56.0</ele><time>2026-03-28T17:39:36.999Z</time></trkpt><trkpt lat="45.39710996886162" lon="10.974963090402602"><ele>56.0</ele><time>2026-03-28T17:39:37.999Z</time></trkpt><trkpt lat="45.39708920745789" lon="10.975447294946509"><ele>55.5</ele><time>2026-03-28T17:39:38.999Z</time></trkpt><trkpt lat="45.397068572471284" lon="10.975932666028031"><ele>55.0</ele><time>2026-03-28T17:39:39.999Z</time></trkpt><trkpt lat="45.39704871583848" lon="10.97641950766556"><ele>53.0</ele><time>2026-03-28T17:39:40.999Z</time></trkpt><trkpt lat="45.39702787593002" lon="10.976906497637517"><ele>51.0</ele><time>2026-03-28T17:39:41.999Z</time></trkpt><trkpt lat="45.397006236052086" lon="10.977391713971654"><ele>51.0</ele><time>2026-03-28T17:39:42.999Z</time></trkpt><trkpt lat="45.396986153516266" lon="10.977877827361402"><ele>51.0</ele><time>2026-03-28T17:39:43.999Z</time></trkpt><trkpt lat="45.39696788057978" lon="10.978364006782689"><ele>51.5</ele><time>2026-03-28T17:39:44.999Z</time></trkpt><trkpt lat="45.39695320367274" lon="10.978851326834237"><ele>52.0</ele><time>2026-03-28T17:39:45.999Z</time></trkpt><trkpt lat="45.396944496450544" lon="10.979339997719427"><ele>51.0</ele><time>2026-03-28T17:39:46.999Z</time></trkpt><trkpt lat="45.39694113442781" lon="10.97982829835351"><ele>50.0</ele><time>2026-03-28T17:39:47.999Z</time></trkpt><trkpt lat="45.3969442371596" lon="10.980317508834252"><ele>50.0</ele><time>2026-03-28T17:39:48.999Z</time></trkpt><trkpt lat="45.39695735691552" lon="10.980803909105859"><ele>50.0</ele><time>2026-03-28T17:39:49.999Z</time></trkpt><trkpt lat="45.39697190057928" lon="10.981290657661887"><ele>50.0</ele><time>2026-03-28T17:39:50.999Z</time></trkpt><trkpt lat="45.396992160306894" lon="10.981774387539705"><ele>50.0</ele><time>2026-03-28T17:39:51.999Z</time></trkpt><trkpt lat="45.39701805515775" lon="10.982259917059698"><ele>51.0</ele><time>2026-03-28T17:39:52.999Z</time></trkpt><trkpt lat="45.39704764438868" lon="10.982743038526449"><ele>52.0</ele><time>2026-03-28T17:39:53.999Z</time></trkpt><trkpt lat="45.397082134776376" lon="10.983227838191397"><ele>53.0</ele><time>2026-03-28T17:39:54.999Z</time></trkpt><trkpt lat="45.39712186024973" lon="10.983712443926706"><ele>54.0</ele><time>2026-03-28T17:39:55.999Z</time></trkpt><trkpt lat="45.39716604767793" lon="10.984196449291838"><ele>55.5</ele><time>2026-03-28T17:39:56.999Z</time></trkpt><trkpt lat="45.397215771652995" lon="10.984678696403407"><ele>57.0</ele><time>2026-03-28T17:39:57.999Z</time></trkpt><trkpt lat="45.39727107868412" lon="10.985159236779602"><ele>57.0</ele><time>2026-03-28T17:39:58.999Z</time></trkpt><trkpt lat="45.39733196812537" lon="10.985640873973738"><ele>57.0</ele><time>2026-03-28T17:39:59.999Z</time></trkpt><trkpt lat="45.39739760626767" lon="10.986119584935388"><ele>57.0</ele><time>2026-03-28T17:40:00.999Z</time></trkpt><trkpt lat="45.39746575379731" lon="10.98659595452054"><ele>57.0</ele><time>2026-03-28T17:40:01.999Z</time></trkpt><trkpt lat="45.397536885525405" lon="10.987069753130069"><ele>56.5</ele><time>2026-03-28T17:40:02.999Z</time></trkpt><trkpt lat="45.39760691658692" lon="10.987544414489431"><ele>56.0</ele><time>2026-03-28T17:40:03.999Z</time></trkpt><trkpt lat="45.397675167618914" lon="10.988019544035916"><ele>55.0</ele><time>2026-03-28T17:40:04.999Z</time></trkpt><trkpt lat="45.39774560810263" lon="10.988495380970559"><ele>54.0</ele><time>2026-03-28T17:40:06Z</time></trkpt><trkpt lat="45.39781467243797" lon="10.988971847866443"><ele>53.0</ele><time>2026-03-28T17:40:07Z</time></trkpt><trkpt lat="45.39788655142477" lon="10.989448450765103"><ele>52.0</ele><time>2026-03-28T17:40:08Z</time></trkpt><trkpt lat="45.39795732715047" lon="10.989926010251555"><ele>53.5</ele><time>2026-03-28T17:40:09Z</time></trkpt><trkpt lat="45.39802790369944" lon="10.99040498283914"><ele>55.0</ele><time>2026-03-28T17:40:10Z</time></trkpt><trkpt lat="45.398095374610186" lon="10.990886228514954"><ele>55.0</ele><time>2026-03-28T17:40:11Z</time></trkpt><trkpt lat="45.398156789854816" lon="10.991366568483693"><ele>55.0</ele><time>2026-03-28T17:40:12Z</time></trkpt><trkpt lat="45.398208470234955" lon="10.991850423848264"><ele>55.0</ele><time>2026-03-28T17:40:13Z</time></trkpt><trkpt lat="45.398256583320226" lon="10.992336111917732"><ele>55.0</ele><time>2026-03-28T17:40:14Z</time></trkpt><trkpt lat="45.39830052730601" lon="10.992822154611856"><ele>55.0</ele><time>2026-03-28T17:40:15Z</time></trkpt><trkpt lat="45.398345335254135" lon="10.99330965874239"><ele>55.0</ele><time>2026-03-28T17:40:16Z</time></trkpt><trkpt lat="45.39839313088319" lon="10.99379545239156"><ele>55.0</ele><time>2026-03-28T17:40:17Z</time></trkpt><trkpt lat="45.39844228042065" lon="10.994281234055823"><ele>55.0</ele><time>2026-03-28T17:40:18Z</time></trkpt><trkpt lat="45.39849192331382" lon="10.994766652403163"><ele>55.0</ele><time>2026-03-28T17:40:19Z</time></trkpt><trkpt lat="45.39854238862518" lon="10.995251327539421"><ele>55.0</ele><time>2026-03-28T17:40:20Z</time></trkpt><trkpt lat="45.398591142110966" lon="10.995736593825027"><ele>55.0</ele><time>2026-03-28T17:40:21Z</time></trkpt><trkpt lat="45.398637184108196" lon="10.996221090581782"><ele>55.0</ele><time>2026-03-28T17:40:22Z</time></trkpt><trkpt lat="45.39867625189533" lon="10.996705847613697"><ele>53.5</ele><time>2026-03-28T17:40:23Z</time></trkpt><trkpt lat="45.39871117779773" lon="10.997191256666722"><ele>52.0</ele><time>2026-03-28T17:40:24Z</time></trkpt><trkpt lat="45.398740954298724" lon="10.997678142397353"><ele>50.5</ele><time>2026-03-28T17:40:25Z</time></trkpt><trkpt lat="45.398772797115114" lon="10.998164217088938"><ele>49.0</ele><time>2026-03-28T17:40:26Z</time></trkpt><trkpt lat="45.3988052361827" lon="10.998649550513111"><ele>49.0</ele><time>2026-03-28T17:40:27Z</time></trkpt><trkpt lat="45.39883822638272" lon="10.99913433845051"><ele>49.0</ele><time>2026-03-28T17:40:28Z</time></trkpt><trkpt lat="45.39887048575346" lon="10.999619020089751"><ele>49.0</ele><time>2026-03-28T17:40:29Z</time></trkpt><trkpt lat="45.39890517735412" lon="11.000102247500788"><ele>49.0</ele><time>2026-03-28T17:40:30Z</time></trkpt><trkpt lat="45.39894170847973" lon="11.000584557544851"><ele>48.0</ele><time>2026-03-28T17:40:31Z</time></trkpt><trkpt lat="45.39898286749489" lon="11.001066207633901"><ele>47.0</ele><time>2026-03-28T17:40:32Z</time></trkpt><trkpt lat="45.39903048307365" lon="11.001548905488146"><ele>49.0</ele><time>2026-03-28T17:40:33Z</time></trkpt><trkpt lat="45.39908078578081" lon="11.002030098097265"><ele>51.0</ele><time>2026-03-28T17:40:34Z</time></trkpt><trkpt lat="45.39913062003293" lon="11.002511209363224"><ele>51.0</ele><time>2026-03-28T17:40:35Z</time></trkpt><trkpt lat="45.39917785751319" lon="11.002993395147051"><ele>51.0</ele><time>2026-03-28T17:40:36Z</time></trkpt><trkpt lat="45.39922685994752" lon="11.003474984515375"><ele>51.0</ele><time>2026-03-28T17:40:37Z</time></trkpt><trkpt lat="45.39927523562552" lon="11.00395837484075"><ele>51.0</ele><time>2026-03-28T17:40:38Z</time></trkpt><trkpt lat="45.399323921878256" lon="11.004442737237348"><ele>51.0</ele><time>2026-03-28T17:40:39Z</time></trkpt><trkpt lat="45.39937116661215" lon="11.004927343960132"><ele>51.0</ele><time>2026-03-28T17:40:40Z</time></trkpt><trkpt lat="45.39941831417385" lon="11.005410123875158"><ele>50.0</ele><time>2026-03-28T17:40:41Z</time></trkpt><trkpt lat="45.399464434411364" lon="11.005883422212447"><ele>49.0</ele><time>2026-03-28T17:40:42Z</time></trkpt><trkpt lat="45.39951082901387" lon="11.006352755253625"><ele>49.0</ele><time>2026-03-28T17:40:43Z</time></trkpt><trkpt lat="45.39955640459488" lon="11.006817605211323"><ele>49.0</ele><time>2026-03-28T17:40:44Z</time></trkpt><trkpt lat="45.39960127750105" lon="11.007279090131119"><ele>49.5</ele><time>2026-03-28T17:40:45Z</time></trkpt><trkpt lat="45.39964583526884" lon="11.007734691579468"><ele>50.0</ele><time>2026-03-28T17:40:46Z</time></trkpt><trkpt lat="45.39969100894603" lon="11.00818934181431"><ele>51.0</ele><time>2026-03-28T17:40:47Z</time></trkpt><trkpt lat="45.399736294261665" lon="11.008642834219877"><ele>52.0</ele><time>2026-03-28T17:40:48Z</time></trkpt><trkpt lat="45.39978082839377" lon="11.009097557083868"><ele>52.0</ele><time>2026-03-28T17:40:49Z</time></trkpt><trkpt lat="45.399825280692816" lon="11.009556470348873"><ele>52.0</ele><time>2026-03-28T17:40:50Z</time></trkpt><trkpt lat="45.399868608606596" lon="11.010022832047449"><ele>52.5</ele><time>2026-03-28T17:40:51Z</time></trkpt><trkpt lat="45.39991730483794" lon="11.010490632364387"><ele>53.0</ele><time>2026-03-28T17:40:52Z</time></trkpt><trkpt lat="45.39996838824026" lon="11.01095624473358"><ele>53.0</ele><time>2026-03-28T17:40:53Z</time></trkpt><trkpt lat="45.40001683866733" lon="11.011415948431685"><ele>53.0</ele><time>2026-03-28T17:40:54Z</time></trkpt><trkpt lat="45.40006258535212" lon="11.011877083764647"><ele>51.5</ele><time>2026-03-28T17:40:55Z</time></trkpt><trkpt lat="45.4001072520187" lon="11.012333716007214"><ele>50.0</ele><time>2026-03-28T17:40:56Z</time></trkpt><trkpt lat="45.40015361264349" lon="11.012791585753837"><ele>49.0</ele><time>2026-03-28T17:40:57Z</time></trkpt><trkpt lat="45.40019946572233" lon="11.01324462525826"><ele>48.0</ele><time>2026-03-28T17:40:58Z</time></trkpt><trkpt lat="45.40024615638445" lon="11.013699739296857"><ele>48.5</ele><time>2026-03-28T17:40:59Z</time></trkpt><trkpt lat="45.40029408475711" lon="11.014160524282289"><ele>49.0</ele><time>2026-03-28T17:41:00Z</time></trkpt><trkpt lat="45.40034017087694" lon="11.014628981848505"><ele>49.5</ele><time>2026-03-28T17:41:01Z</time></trkpt><trkpt lat="45.40038731820088" lon="11.01510235654127"><ele>50.0</ele><time>2026-03-28T17:41:02Z</time></trkpt><trkpt lat="45.40043501162642" lon="11.015581285656294"><ele>52.0</ele><time>2026-03-28T17:41:03Z</time></trkpt><trkpt lat="45.400482611746725" lon="11.01606264324409"><ele>54.0</ele><time>2026-03-28T17:41:04Z</time></trkpt><trkpt lat="45.40053227009487" lon="11.016546572470249"><ele>53.5</ele><time>2026-03-28T17:41:05Z</time></trkpt><trkpt lat="45.400580747096285" lon="11.017030631588476"><ele>53.0</ele><time>2026-03-28T17:41:06Z</time></trkpt><trkpt lat="45.400627376621564" lon="11.017518184922688"><ele>54.5</ele><time>2026-03-28T17:41:07Z</time></trkpt><trkpt lat="45.40067512093471" lon="11.018003722912159"><ele>56.0</ele><time>2026-03-28T17:41:08Z</time></trkpt><trkpt lat="45.400721575374845" lon="11.018489793340159"><ele>56.0</ele><time>2026-03-28T17:41:09Z</time></trkpt><trkpt lat="45.40076728138622" lon="11.018973906138507"><ele>56.0</ele><time>2026-03-28T17:41:10Z</time></trkpt><trkpt lat="45.4008173505964" lon="11.0194585014926"><ele>55.0</ele><time>2026-03-28T17:41:11Z</time></trkpt><trkpt lat="45.4008687480995" lon="11.01994251932616"><ele>54.0</ele><time>2026-03-28T17:41:12Z</time></trkpt><trkpt lat="45.40091821828137" lon="11.020426193238713"><ele>52.5</ele><time>2026-03-28T17:41:13Z</time></trkpt><trkpt lat="45.40096575160961" lon="11.020908488894857"><ele>51.0</ele><time>2026-03-28T17:41:14Z</time></trkpt><trkpt lat="45.40101372895846" lon="11.021391406628059"><ele>51.0</ele><time>2026-03-28T17:41:15Z</time></trkpt><trkpt lat="45.40106151524175" lon="11.021874150558041"><ele>51.0</ele><time>2026-03-28T17:41:16Z</time></trkpt><trkpt lat="45.40110793914161" lon="11.022357760781818"><ele>51.5</ele><time>2026-03-28T17:41:17Z</time></trkpt><trkpt lat="45.40115522846241" lon="11.022840180651217"><ele>52.0</ele><time>2026-03-28T17:41:18Z</time></trkpt><trkpt lat="45.40120526765" lon="11.023320945519085"><ele>52.5</ele><time>2026-03-28T17:41:19Z</time></trkpt><trkpt lat="45.40125925975344" lon="11.023803796375004"><ele>53.0</ele><time>2026-03-28T17:41:20Z</time></trkpt><trkpt lat="45.40131823391376" lon="11.024284342853196"><ele>51.0</ele><time>2026-03-28T17:41:21Z</time></trkpt><trkpt lat="45.40138270583979" lon="11.024764048256138"><ele>49.0</ele><time>2026-03-28T17:41:22Z</time></trkpt><trkpt lat="45.401451621837396" lon="11.025242955108762"><ele>49.0</ele><time>2026-03-28T17:41:23Z</time></trkpt><trkpt lat="45.40151952472269" lon="11.025721720021217"><ele>49.0</ele><time>2026-03-28T17:41:24Z</time></trkpt><trkpt lat="45.40158691170624" lon="11.02620177963163"><ele>50.5</ele><time>2026-03-28T17:41:25Z</time></trkpt><trkpt lat="45.401646188928616" lon="11.026683191459634"><ele>52.0</ele><time>2026-03-28T17:41:26Z</time></trkpt><trkpt lat="45.40170356302772" lon="11.027166848983258"><ele>51.0</ele><time>2026-03-28T17:41:27Z</time></trkpt><trkpt lat="45.401756089230815" lon="11.027652453578334"><ele>50.0</ele><time>2026-03-28T17:41:28Z</time></trkpt><trkpt lat="45.40180508878391" lon="11.028137168652869"><ele>49.5</ele><time>2026-03-28T17:41:29Z</time></trkpt><trkpt lat="45.40185374146502" lon="11.02862014020088"><ele>49.0</ele><time>2026-03-28T17:41:30Z</time></trkpt><trkpt lat="45.40190108902115" lon="11.029100704499069"><ele>47.5</ele><time>2026-03-28T17:41:31Z</time></trkpt><trkpt lat="45.40194723951802" lon="11.029584970086402"><ele>46.0</ele><time>2026-03-28T17:41:32Z</time></trkpt><trkpt lat="45.4019946866241" lon="11.03006973358487"><ele>45.5</ele><time>2026-03-28T17:41:33Z</time></trkpt><trkpt lat="45.40204475277601" lon="11.030557431404183"><ele>45.0</ele><time>2026-03-28T17:41:34Z</time></trkpt><trkpt lat="45.40209327869471" lon="11.031043135005199"><ele>44.0</ele><time>2026-03-28T17:41:35Z</time></trkpt><trkpt lat="45.402141197619315" lon="11.031526776005336"><ele>43.0</ele><time>2026-03-28T17:41:36Z</time></trkpt><trkpt lat="45.40218889513096" lon="11.032012599662416"><ele>42.0</ele><time>2026-03-28T17:41:37Z</time></trkpt><trkpt lat="45.40223621543497" lon="11.032498722130862"><ele>41.0</ele><time>2026-03-28T17:41:38Z</time></trkpt><trkpt lat="45.402285572884914" lon="11.032984792762848"><ele>41.5</ele><time>2026-03-28T17:41:39Z</time></trkpt><trkpt lat="45.40233328065728" lon="11.033469946081052"><ele>42.0</ele><time>2026-03-28T17:41:39.999Z</time></trkpt><trkpt lat="45.402379771632745" lon="11.033956569172222"><ele>41.5</ele><time>2026-03-28T17:41:40.999Z</time></trkpt><trkpt lat="45.40242564346825" lon="11.034437470369841"><ele>41.0</ele><time>2026-03-28T17:41:41.999Z</time></trkpt><trkpt lat="45.40246971439143" lon="11.03492325987882"><ele>40.5</ele><time>2026-03-28T17:41:42.999Z</time></trkpt><trkpt lat="45.40250545489877" lon="11.035409230640754"><ele>40.0</ele><time>2026-03-28T17:41:43.999Z</time></trkpt><trkpt lat="45.402533323440565" lon="11.035897574631408"><ele>39.5</ele><time>2026-03-28T17:41:44.999Z</time></trkpt><trkpt lat="45.40255638701318" lon="11.036385307035546"><ele>39.0</ele><time>2026-03-28T17:41:45.999Z</time></trkpt><trkpt lat="45.402575707043844" lon="11.036873045579839"><ele>40.0</ele><time>2026-03-28T17:41:46.999Z</time></trkpt><trkpt lat="45.402596082588346" lon="11.037360428334424"><ele>41.0</ele><time>2026-03-28T17:41:47.999Z</time></trkpt><trkpt lat="45.40262332340324" lon="11.037845680728333"><ele>42.5</ele><time>2026-03-28T17:41:48.999Z</time></trkpt><trkpt lat="45.40265550634781" lon="11.038328299035529"><ele>44.0</ele><time>2026-03-28T17:41:49.999Z</time></trkpt><trkpt lat="45.40269728540278" lon="11.03881021174912"><ele>43.0</ele><time>2026-03-28T17:41:50.999Z</time></trkpt><trkpt lat="45.40274437200428" lon="11.039289396981868"><ele>42.0</ele><time>2026-03-28T17:41:51.999Z</time></trkpt><trkpt lat="45.402793263461135" lon="11.039769786954325"><ele>41.5</ele><time>2026-03-28T17:41:52.999Z</time></trkpt><trkpt lat="45.402840549480814" lon="11.04025139419608"><ele>41.0</ele><time>2026-03-28T17:41:53.999Z</time></trkpt><trkpt lat="45.40288916197388" lon="11.040732999215919"><ele>39.5</ele><time>2026-03-28T17:41:54.999Z</time></trkpt><trkpt lat="45.402935276009515" lon="11.041212991742478"><ele>38.0</ele><time>2026-03-28T17:41:55.999Z</time></trkpt><trkpt lat="45.40298504486073" lon="11.041695311875223"><ele>38.0</ele><time>2026-03-28T17:41:56.999Z</time></trkpt><trkpt lat="45.40303228462186" lon="11.042177774584212"><ele>38.0</ele><time>2026-03-28T17:41:57.999Z</time></trkpt><trkpt lat="45.4030779995562" lon="11.04266093358607"><ele>38.0</ele><time>2026-03-28T17:41:58.999Z</time></trkpt><trkpt lat="45.40312438512984" lon="11.043142322942803"><ele>38.0</ele><time>2026-03-28T17:41:59.999Z</time></trkpt><trkpt lat="45.40317251821158" lon="11.043623903118085"><ele>38.5</ele><time>2026-03-28T17:42:00.999Z</time></trkpt><trkpt lat="45.40322406451327" lon="11.04410435980003"><ele>39.0</ele><time>2026-03-28T17:42:01.999Z</time></trkpt><trkpt lat="45.403273983057645" lon="11.044586494448378"><ele>40.0</ele><time>2026-03-28T17:42:02.999Z</time></trkpt><trkpt lat="45.4033221282049" lon="11.045069319963797"><ele>41.0</ele><time>2026-03-28T17:42:03.999Z</time></trkpt><trkpt lat="45.40337089101584" lon="11.045553766377427"><ele>40.0</ele><time>2026-03-28T17:42:04.999Z</time></trkpt><trkpt lat="45.40341727780346" lon="11.046036191729607"><ele>39.0</ele><time>2026-03-28T17:42:05.999Z</time></trkpt><trkpt lat="45.403465809926296" lon="11.046518034451971"><ele>38.0</ele><time>2026-03-28T17:42:06.999Z</time></trkpt><trkpt lat="45.403513567035105" lon="11.046999198859472"><ele>37.0</ele><time>2026-03-28T17:42:07.999Z</time></trkpt><trkpt lat="45.4035593403474" lon="11.047480508538081"><ele>37.0</ele><time>2026-03-28T17:42:08.999Z</time></trkpt><trkpt lat="45.40360542758682" lon="11.047963122180533"><ele>37.0</ele><time>2026-03-28T17:42:09.999Z</time></trkpt><trkpt lat="45.403651441822355" lon="11.048444514632584"><ele>37.0</ele><time>2026-03-28T17:42:10.999Z</time></trkpt><trkpt lat="45.403697286373685" lon="11.048928003497801"><ele>37.0</ele><time>2026-03-28T17:42:12Z</time></trkpt><trkpt lat="45.40374378040415" lon="11.04941077604337"><ele>37.0</ele><time>2026-03-28T17:42:13Z</time></trkpt><trkpt lat="45.40379178652043" lon="11.049892111924"><ele>37.0</ele><time>2026-03-28T17:42:14Z</time></trkpt><trkpt lat="45.4038409348939" lon="11.050374108124663"><ele>37.5</ele><time>2026-03-28T17:42:15Z</time></trkpt><trkpt lat="45.403889211609034" lon="11.050856595526472"><ele>38.0</ele><time>2026-03-28T17:42:16Z</time></trkpt><trkpt lat="45.403936722297445" lon="11.05133921082553"><ele>37.5</ele><time>2026-03-28T17:42:17Z</time></trkpt><trkpt lat="45.40398347808593" lon="11.051822206947877"><ele>37.0</ele><time>2026-03-28T17:42:18Z</time></trkpt><trkpt lat="45.40403262275703" lon="11.052303873698241"><ele>37.5</ele><time>2026-03-28T17:42:19Z</time></trkpt><trkpt lat="45.40408127610158" lon="11.052786326550622"><ele>38.0</ele><time>2026-03-28T17:42:20Z</time></trkpt><trkpt lat="45.40412848410138" lon="11.053268591753406"><ele>38.0</ele><time>2026-03-28T17:42:21Z</time></trkpt><trkpt lat="45.404174573887424" lon="11.053752649387325"><ele>38.0</ele><time>2026-03-28T17:42:22Z</time></trkpt><trkpt lat="45.40421616172823" lon="11.0542359652079"><ele>37.5</ele><time>2026-03-28T17:42:23Z</time></trkpt><trkpt lat="45.404253802591505" lon="11.054721046707684"><ele>37.0</ele><time>2026-03-28T17:42:24Z</time></trkpt><trkpt lat="45.404290073270026" lon="11.05520560517758"><ele>36.5</ele><time>2026-03-28T17:42:25Z</time></trkpt><trkpt lat="45.40432709413355" lon="11.055690677846604"><ele>36.0</ele><time>2026-03-28T17:42:26Z</time></trkpt><trkpt lat="45.4043688119099" lon="11.056174663747369"><ele>37.0</ele><time>2026-03-28T17:42:27Z</time></trkpt><trkpt lat="45.40440995678899" lon="11.056658969986435"><ele>38.0</ele><time>2026-03-28T17:42:28Z</time></trkpt><trkpt lat="45.40445240882125" lon="11.057141475623373"><ele>38.0</ele><time>2026-03-28T17:42:29Z</time></trkpt><trkpt lat="45.40449512084856" lon="11.057623973102979"><ele>38.0</ele><time>2026-03-28T17:42:30Z</time></trkpt><trkpt lat="45.404536193251545" lon="11.058107997062526"><ele>37.5</ele><time>2026-03-28T17:42:31Z</time></trkpt><trkpt lat="45.40457695862095" lon="11.058592247510488"><ele>37.0</ele><time>2026-03-28T17:42:32Z</time></trkpt><trkpt lat="45.404615492911084" lon="11.0590767378974"><ele>37.0</ele><time>2026-03-28T17:42:33Z</time></trkpt><trkpt lat="45.404654297442086" lon="11.05956098036205"><ele>37.0</ele><time>2026-03-28T17:42:34Z</time></trkpt><trkpt lat="45.404693614718454" lon="11.06004661030858"><ele>37.0</ele><time>2026-03-28T17:42:35Z</time></trkpt><trkpt lat="45.40473368848206" lon="11.06053129876922"><ele>37.0</ele><time>2026-03-28T17:42:36Z</time></trkpt><trkpt lat="45.40477502669894" lon="11.061015376509792"><ele>37.5</ele><time>2026-03-28T17:42:37Z</time></trkpt><trkpt lat="45.40481513014989" lon="11.06149982713727"><ele>38.0</ele><time>2026-03-28T17:42:38Z</time></trkpt><trkpt lat="45.404854011276726" lon="11.061983925056742"><ele>37.0</ele><time>2026-03-28T17:42:39Z</time></trkpt><trkpt lat="45.404891838791436" lon="11.062469227847819"><ele>36.0</ele><time>2026-03-28T17:42:40Z</time></trkpt><trkpt lat="45.404930186893395" lon="11.06295540961689"><ele>36.5</ele><time>2026-03-28T17:42:41Z</time></trkpt><trkpt lat="45.404969793273295" lon="11.063439570565691"><ele>37.0</ele><time>2026-03-28T17:42:42Z</time></trkpt><trkpt lat="45.405009897224225" lon="11.063922698254544"><ele>36.5</ele><time>2026-03-28T17:42:43Z</time></trkpt><trkpt lat="45.405051169638824" lon="11.06440504818588"><ele>36.0</ele><time>2026-03-28T17:42:44Z</time></trkpt><trkpt lat="45.40508851317977" lon="11.064886145499576"><ele>35.5</ele><time>2026-03-28T17:42:45Z</time></trkpt><trkpt lat="45.40512925530439" lon="11.065370227272263"><ele>35.0</ele><time>2026-03-28T17:42:46Z</time></trkpt><trkpt lat="45.40517041975445" lon="11.065854871186113"><ele>36.0</ele><time>2026-03-28T17:42:47Z</time></trkpt><trkpt lat="45.40521050260997" lon="11.06633860454791"><ele>37.0</ele><time>2026-03-28T17:42:48Z</time></trkpt><trkpt lat="45.40525138016649" lon="11.066822860726152"><ele>37.0</ele><time>2026-03-28T17:42:49Z</time></trkpt><trkpt lat="45.4052915317938" lon="11.067305191492773"><ele>37.0</ele><time>2026-03-28T17:42:50Z</time></trkpt><trkpt lat="45.4053325150016" lon="11.06778641215369"><ele>37.0</ele><time>2026-03-28T17:42:51Z</time></trkpt><trkpt lat="45.40537247848386" lon="11.068267887104167"><ele>37.0</ele><time>2026-03-28T17:42:52Z</time></trkpt><trkpt lat="45.40541652036135" lon="11.068749816685624"><ele>38.0</ele><time>2026-03-28T17:42:53Z</time></trkpt><trkpt lat="45.40546179743289" lon="11.06923216806857"><ele>39.0</ele><time>2026-03-28T17:42:54Z</time></trkpt><trkpt lat="45.40551374376356" lon="11.069712714957245"><ele>39.5</ele><time>2026-03-28T17:42:55Z</time></trkpt><trkpt lat="45.40558205293791" lon="11.07018887145505"><ele>40.0</ele><time>2026-03-28T17:42:56Z</time></trkpt><trkpt lat="45.405652677435036" lon="11.070663009895878"><ele>40.0</ele><time>2026-03-28T17:42:57Z</time></trkpt><trkpt lat="45.40572999695348" lon="11.071135220609866"><ele>40.0</ele><time>2026-03-28T17:42:58Z</time></trkpt><trkpt lat="45.40581268299332" lon="11.071606553056736"><ele>40.5</ele><time>2026-03-28T17:42:59Z</time></trkpt><trkpt lat="45.40589921201139" lon="11.072076772319237"><ele>41.0</ele><time>2026-03-28T17:43:00Z</time></trkpt><trkpt lat="45.405992058807676" lon="11.072545898849329"><ele>41.0</ele><time>2026-03-28T17:43:01Z</time></trkpt><trkpt lat="45.40609228731793" lon="11.073010168390871"><ele>41.0</ele><time>2026-03-28T17:43:02Z</time></trkpt><trkpt lat="45.406198980908655" lon="11.073472986160425"><ele>41.0</ele><time>2026-03-28T17:43:03Z</time></trkpt><trkpt lat="45.4063110331997" lon="11.07393278622622"><ele>41.0</ele><time>2026-03-28T17:43:04Z</time></trkpt><trkpt lat="45.40642981157198" lon="11.07439098472874"><ele>41.0</ele><time>2026-03-28T17:43:05Z</time></trkpt><trkpt lat="45.40655188498513" lon="11.074846867551589"><ele>41.0</ele><time>2026-03-28T17:43:06Z</time></trkpt><trkpt lat="45.4066770262042" lon="11.07530218563289"><ele>41.0</ele><time>2026-03-28T17:43:07Z</time></trkpt><trkpt lat="45.40679821502201" lon="11.07575499411679"><ele>41.0</ele><time>2026-03-28T17:43:08Z</time></trkpt><trkpt lat="45.40691749649138" lon="11.076209663454534"><ele>41.0</ele><time>2026-03-28T17:43:09Z</time></trkpt><trkpt lat="45.40703829505054" lon="11.076665154820006"><ele>41.0</ele><time>2026-03-28T17:43:10Z</time></trkpt><trkpt lat="45.407160332637886" lon="11.077118434796969"><ele>42.5</ele><time>2026-03-28T17:43:11Z</time></trkpt><trkpt lat="45.40728301949517" lon="11.07757403764625"><ele>44.0</ele><time>2026-03-28T17:43:12Z</time></trkpt><trkpt lat="45.407404807392254" lon="11.078028355632194"><ele>43.5</ele><time>2026-03-28T17:43:13Z</time></trkpt><trkpt lat="45.40752868271605" lon="11.07848314980174"><ele>43.0</ele><time>2026-03-28T17:43:14Z</time></trkpt><trkpt lat="45.4076501265807" lon="11.078939844100269"><ele>41.5</ele><time>2026-03-28T17:43:15Z</time></trkpt><trkpt lat="45.407772836471665" lon="11.079394614132545"><ele>40.0</ele><time>2026-03-28T17:43:16Z</time></trkpt><trkpt lat="45.40789457254099" lon="11.079849316312309"><ele>41.5</ele><time>2026-03-28T17:43:17Z</time></trkpt><trkpt lat="45.408015881571174" lon="11.08030240734055"><ele>43.0</ele><time>2026-03-28T17:43:18Z</time></trkpt><trkpt lat="45.408135743662505" lon="11.08075786232639"><ele>43.0</ele><time>2026-03-28T17:43:19Z</time></trkpt><trkpt lat="45.40825865041041" lon="11.08121413619407"><ele>43.0</ele><time>2026-03-28T17:43:20Z</time></trkpt><trkpt lat="45.40838048217062" lon="11.081669555634374"><ele>43.0</ele><time>2026-03-28T17:43:21Z</time></trkpt><trkpt lat="45.40850248453204" lon="11.082126152076025"><ele>43.0</ele><time>2026-03-28T17:43:22Z</time></trkpt><trkpt lat="45.40862483251833" lon="11.08258334203855"><ele>43.5</ele><time>2026-03-28T17:43:23Z</time></trkpt><trkpt lat="45.408747478260025" lon="11.083039850366406"><ele>44.0</ele><time>2026-03-28T17:43:24Z</time></trkpt><trkpt lat="45.40886966228743" lon="11.083490492864595"><ele>44.0</ele><time>2026-03-28T17:43:25Z</time></trkpt><trkpt lat="45.408992249458215" lon="11.083944628062962"><ele>44.0</ele><time>2026-03-28T17:43:26Z</time></trkpt><trkpt lat="45.40911493781256" lon="11.084398293213876"><ele>44.0</ele><time>2026-03-28T17:43:27Z</time></trkpt><trkpt lat="45.40923673189482" lon="11.08485171606595"><ele>44.0</ele><time>2026-03-28T17:43:28Z</time></trkpt><trkpt lat="45.40935797577729" lon="11.085305017033578"><ele>44.0</ele><time>2026-03-28T17:43:29Z</time></trkpt><trkpt lat="45.40947495585485" lon="11.085749536428523"><ele>44.0</ele><time>2026-03-28T17:43:30Z</time></trkpt><trkpt lat="45.409592542396766" lon="11.086185405119398"><ele>44.5</ele><time>2026-03-28T17:43:31Z</time></trkpt><trkpt lat="45.40970954592049" lon="11.086617375582472"><ele>45.0</ele><time>2026-03-28T17:43:32Z</time></trkpt><trkpt lat="45.40982492358035" lon="11.08704708628807"><ele>45.0</ele><time>2026-03-28T17:43:33Z</time></trkpt><trkpt lat="45.40993959648141" lon="11.08747753419446"><ele>45.0</ele><time>2026-03-28T17:43:34Z</time></trkpt><trkpt lat="45.41005760532984" lon="11.087914324247654"><ele>44.5</ele><time>2026-03-28T17:43:35Z</time></trkpt><trkpt lat="45.41017388915177" lon="11.08834379164749"><ele>44.0</ele><time>2026-03-28T17:43:36Z</time></trkpt><trkpt lat="45.410287514777195" lon="11.088775270023218"><ele>44.0</ele><time>2026-03-28T17:43:36.999Z</time></trkpt><trkpt lat="45.410403650257486" lon="11.089208342587835"><ele>44.0</ele><time>2026-03-28T17:43:37.999Z</time></trkpt><trkpt lat="45.410519990762104" lon="11.08963183391204"><ele>44.0</ele><time>2026-03-28T17:43:38.999Z</time></trkpt><trkpt lat="45.4106336441767" lon="11.090056443094864"><ele>44.0</ele><time>2026-03-28T17:43:39.999Z</time></trkpt><trkpt lat="45.41074696089938" lon="11.090483070443746"><ele>45.5</ele><time>2026-03-28T17:43:40.999Z</time></trkpt><trkpt lat="45.41086140257333" lon="11.090907018410103"><ele>47.0</ele><time>2026-03-28T17:43:41.999Z</time></trkpt><trkpt lat="45.410976554449846" lon="11.091334564142613"><ele>47.5</ele><time>2026-03-28T17:43:42.999Z</time></trkpt><trkpt lat="45.411091183931696" lon="11.091762222950567"><ele>48.0</ele><time>2026-03-28T17:43:43.999Z</time></trkpt><trkpt lat="45.41120439791529" lon="11.092192532532216"><ele>47.0</ele><time>2026-03-28T17:43:44.999Z</time></trkpt><trkpt lat="45.411317129633225" lon="11.092620003804438"><ele>46.0</ele><time>2026-03-28T17:43:45.999Z</time></trkpt><trkpt lat="45.411429466975754" lon="11.093050303858936"><ele>46.0</ele><time>2026-03-28T17:43:46.999Z</time></trkpt><trkpt lat="45.411543783341145" lon="11.0934819565267"><ele>46.0</ele><time>2026-03-28T17:43:47.999Z</time></trkpt><trkpt lat="45.41166133285659" lon="11.093916671087502"><ele>47.0</ele><time>2026-03-28T17:43:48.999Z</time></trkpt><trkpt lat="45.41177920830242" lon="11.094352806380854"><ele>48.0</ele><time>2026-03-28T17:43:49.999Z</time></trkpt><trkpt lat="45.411897066020295" lon="11.094790940850148"><ele>48.0</ele><time>2026-03-28T17:43:50.999Z</time></trkpt><trkpt lat="45.4120144245096" lon="11.095230756403375"><ele>48.0</ele><time>2026-03-28T17:43:51.999Z</time></trkpt><trkpt lat="45.412131960611546" lon="11.095671138034847"><ele>48.0</ele><time>2026-03-28T17:43:52.999Z</time></trkpt><trkpt lat="45.412250201817294" lon="11.096110149919253"><ele>48.0</ele><time>2026-03-28T17:43:53.999Z</time></trkpt><trkpt lat="45.41236764774155" lon="11.096550885420925"><ele>47.0</ele><time>2026-03-28T17:43:54.999Z</time></trkpt><trkpt lat="45.412485045422606" lon="11.096996911596575"><ele>46.0</ele><time>2026-03-28T17:43:55.999Z</time></trkpt><trkpt lat="45.41260319636386" lon="11.09744770138668"><ele>45.5</ele><time>2026-03-28T17:43:56.999Z</time></trkpt><trkpt lat="45.4127215688879" lon="11.097893851666344"><ele>45.0</ele><time>2026-03-28T17:43:57.999Z</time></trkpt><trkpt lat="45.41284068620036" lon="11.098342473466776"><ele>45.5</ele><time>2026-03-28T17:43:58.999Z</time></trkpt><trkpt lat="45.41296194194624" lon="11.098792112430637"><ele>46.0</ele><time>2026-03-28T17:43:59.999Z</time></trkpt><trkpt lat="45.41308308451816" lon="11.0992396328281"><ele>46.0</ele><time>2026-03-28T17:44:00.999Z</time></trkpt><trkpt lat="45.41320161085174" lon="11.099687926183323"><ele>46.0</ele><time>2026-03-28T17:44:01.999Z</time></trkpt><trkpt lat="45.4133209598432" lon="11.100136935534326"><ele>45.0</ele><time>2026-03-28T17:44:02.999Z</time></trkpt><trkpt lat="45.41344403990585" lon="11.100588556875502"><ele>44.0</ele><time>2026-03-28T17:44:03.999Z</time></trkpt><trkpt lat="45.41356298471375" lon="11.10103990203382"><ele>44.0</ele><time>2026-03-28T17:44:04.999Z</time></trkpt><trkpt lat="45.41368451274999" lon="11.101486295267508"><ele>44.0</ele><time>2026-03-28T17:44:05.999Z</time></trkpt><trkpt lat="45.41380301383638" lon="11.101928103464664"><ele>43.5</ele><time>2026-03-28T17:44:06.999Z</time></trkpt><trkpt lat="45.41391816608402" lon="11.102367674235055"><ele>43.0</ele><time>2026-03-28T17:44:07.999Z</time></trkpt><trkpt lat="45.41403509769394" lon="11.102806598730346"><ele>43.0</ele><time>2026-03-28T17:44:08.999Z</time></trkpt><trkpt lat="45.414151712943486" lon="11.103246502748203"><ele>43.0</ele><time>2026-03-28T17:44:09.999Z</time></trkpt><trkpt lat="45.41426839940156" lon="11.103687806177241"><ele>44.0</ele><time>2026-03-28T17:44:10.999Z</time></trkpt><trkpt lat="45.414388501909954" lon="11.104131427341272"><ele>45.0</ele><time>2026-03-28T17:44:11.999Z</time></trkpt><trkpt lat="45.41450799688377" lon="11.104575642485266"><ele>44.5</ele><time>2026-03-28T17:44:12.999Z</time></trkpt><trkpt lat="45.41462597765538" lon="11.105016393760382"><ele>44.0</ele><time>2026-03-28T17:44:13.999Z</time></trkpt><trkpt lat="45.414742524941225" lon="11.105452050184617"><ele>44.0</ele><time>2026-03-28T17:44:14.999Z</time></trkpt><trkpt lat="45.414858403702674" lon="11.105885655579748"><ele>44.0</ele><time>2026-03-28T17:44:15.999Z</time></trkpt><trkpt lat="45.41497578289533" lon="11.106321291180135"><ele>44.0</ele><time>2026-03-28T17:44:16.999Z</time></trkpt><trkpt lat="45.41509291634638" lon="11.106758753763176"><ele>44.0</ele><time>2026-03-28T17:44:18Z</time></trkpt><trkpt lat="45.41521041811503" lon="11.107198532291081"><ele>42.5</ele><time>2026-03-28T17:44:19Z</time></trkpt><trkpt lat="45.41533154524731" lon="11.107640839915698"><ele>41.0</ele><time>2026-03-28T17:44:20Z</time></trkpt><trkpt lat="45.415454470118526" lon="11.108081074394287"><ele>41.0</ele><time>2026-03-28T17:44:21Z</time></trkpt><trkpt lat="45.41558456960269" lon="11.108520345140843"><ele>41.0</ele><time>2026-03-28T17:44:22Z</time></trkpt><trkpt lat="45.41572316881962" lon="11.108957842792295"><ele>41.0</ele><time>2026-03-28T17:44:23Z</time></trkpt><trkpt lat="45.415861795525416" lon="11.109388070436072"><ele>41.0</ele><time>2026-03-28T17:44:24Z</time></trkpt><trkpt lat="45.4160036267432" lon="11.1098166687445"><ele>40.5</ele><time>2026-03-28T17:44:25Z</time></trkpt><trkpt lat="45.41615039493981" lon="11.110240503309628"><ele>40.0</ele><time>2026-03-28T17:44:26Z</time></trkpt><trkpt lat="45.416297657200225" lon="11.110660356078615"><ele>41.0</ele><time>2026-03-28T17:44:27Z</time></trkpt><trkpt lat="45.41644493222555" lon="11.111079947584933"><ele>42.0</ele><time>2026-03-28T17:44:28Z</time></trkpt><trkpt lat="45.41659308593472" lon="11.111499535224619"><ele>42.0</ele><time>2026-03-28T17:44:29Z</time></trkpt><trkpt lat="45.41673895635482" lon="11.11191818535908"><ele>42.0</ele><time>2026-03-28T17:44:30Z</time></trkpt><trkpt lat="45.41688359964037" lon="11.112329195474283"><ele>42.0</ele><time>2026-03-28T17:44:31Z</time></trkpt><trkpt lat="45.41702465741132" lon="11.112731915515052"><ele>42.0</ele><time>2026-03-28T17:44:32Z</time></trkpt><trkpt lat="45.41716556993985" lon="11.113135113497167"><ele>44.0</ele><time>2026-03-28T17:44:33Z</time></trkpt><trkpt lat="45.41730924336017" lon="11.113541729445423"><ele>46.0</ele><time>2026-03-28T17:44:34Z</time></trkpt><trkpt lat="45.41745114517627" lon="11.1139502313944"><ele>45.5</ele><time>2026-03-28T17:44:35Z</time></trkpt><trkpt lat="45.41759599311921" lon="11.114359694692185"><ele>45.0</ele><time>2026-03-28T17:44:36Z</time></trkpt><trkpt lat="45.417740467029915" lon="11.114773415718197"><ele>45.0</ele><time>2026-03-28T17:44:37Z</time></trkpt><trkpt lat="45.41788742356828" lon="11.115189049759376"><ele>45.0</ele><time>2026-03-28T17:44:38Z</time></trkpt><trkpt lat="45.418034561079196" lon="11.11560746823039"><ele>46.5</ele><time>2026-03-28T17:44:39Z</time></trkpt><trkpt lat="45.418183276866074" lon="11.116025629009373"><ele>48.0</ele><time>2026-03-28T17:44:40Z</time></trkpt><trkpt lat="45.4183321773419" lon="11.116445941227147"><ele>47.0</ele><time>2026-03-28T17:44:41Z</time></trkpt><trkpt lat="45.41848168177165" lon="11.116865968813187"><ele>46.0</ele><time>2026-03-28T17:44:42Z</time></trkpt><trkpt lat="45.41863072673025" lon="11.117284974450035"><ele>46.0</ele><time>2026-03-28T17:44:43Z</time></trkpt><trkpt lat="45.41878030637153" lon="11.117709230774114"><ele>46.0</ele><time>2026-03-28T17:44:44Z</time></trkpt><trkpt lat="45.41893389192908" lon="11.118134292953073"><ele>46.0</ele><time>2026-03-28T17:44:45Z</time></trkpt><trkpt lat="45.419094913061464" lon="11.118556942197532"><ele>46.0</ele><time>2026-03-28T17:44:46Z</time></trkpt><trkpt lat="45.41925591816457" lon="11.11897564022698"><ele>45.5</ele><time>2026-03-28T17:44:47Z</time></trkpt><trkpt lat="45.41941397783314" lon="11.119392025246961"><ele>45.0</ele><time>2026-03-28T17:44:48Z</time></trkpt><trkpt lat="45.41956216258941" lon="11.119808298610957"><ele>44.0</ele><time>2026-03-28T17:44:49Z</time></trkpt><trkpt lat="45.419712880233526" lon="11.120236620880041"><ele>43.0</ele><time>2026-03-28T17:44:50Z</time></trkpt><trkpt lat="45.4198638778517" lon="11.120666342745196"><ele>42.0</ele><time>2026-03-28T17:44:51Z</time></trkpt><trkpt lat="45.420012947787214" lon="11.121101152858175"><ele>41.0</ele><time>2026-03-28T17:44:52Z</time></trkpt><trkpt lat="45.420163196518494" lon="11.121536763763231"><ele>41.0</ele><time>2026-03-28T17:44:53Z</time></trkpt><trkpt lat="45.42031296771557" lon="11.121973735161948"><ele>41.0</ele><time>2026-03-28T17:44:54Z</time></trkpt><trkpt lat="45.42045443463776" lon="11.122415382093275"><ele>43.5</ele><time>2026-03-28T17:44:55Z</time></trkpt><trkpt lat="45.42058660128809" lon="11.122860467927653"><ele>46.0</ele><time>2026-03-28T17:44:56Z</time></trkpt><trkpt lat="45.420717345703586" lon="11.123310088580979"><ele>46.0</ele><time>2026-03-28T17:44:57Z</time></trkpt><trkpt lat="45.42083842565266" lon="11.123762860131627"><ele>46.0</ele><time>2026-03-28T17:44:58Z</time></trkpt><trkpt lat="45.420954921820595" lon="11.124221075517417"><ele>45.5</ele><time>2026-03-28T17:44:59Z</time></trkpt><trkpt lat="45.42106556703656" lon="11.124682988624274"><ele>45.0</ele><time>2026-03-28T17:45:00Z</time></trkpt><trkpt lat="45.42117237012844" lon="11.12515217986589"><ele>43.5</ele><time>2026-03-28T17:45:01Z</time></trkpt><trkpt lat="45.4212700748237" lon="11.125622046861904"><ele>42.0</ele><time>2026-03-28T17:45:02Z</time></trkpt><trkpt lat="45.42136154440252" lon="11.126096373002673"><ele>42.0</ele><time>2026-03-28T17:45:03Z</time></trkpt><trkpt lat="45.421446852031174" lon="11.126573523648643"><ele>42.0</ele><time>2026-03-28T17:45:04Z</time></trkpt><trkpt lat="45.42152422039748" lon="11.127051220049742"><ele>41.5</ele><time>2026-03-28T17:45:05Z</time></trkpt><trkpt lat="45.4215930464771" lon="11.127531359486705"><ele>41.0</ele><time>2026-03-28T17:45:06Z</time></trkpt><trkpt lat="45.421657154277035" lon="11.12801132881057"><ele>41.5</ele><time>2026-03-28T17:45:07Z</time></trkpt><trkpt lat="45.42171435766186" lon="11.12849016998175"><ele>42.0</ele><time>2026-03-28T17:45:08Z</time></trkpt><trkpt lat="45.421764384009926" lon="11.128973412428744"><ele>42.0</ele><time>2026-03-28T17:45:09Z</time></trkpt><trkpt lat="45.42180927824019" lon="11.129455953709751"><ele>42.0</ele><time>2026-03-28T17:45:10Z</time></trkpt><trkpt lat="45.42184747063203" lon="11.129940268015867"><ele>42.0</ele><time>2026-03-28T17:45:11Z</time></trkpt><trkpt lat="45.42187975259296" lon="11.1304263492431"><ele>42.0</ele><time>2026-03-28T17:45:12Z</time></trkpt><trkpt lat="45.42190648561263" lon="11.130912964810099"><ele>42.0</ele><time>2026-03-28T17:45:13Z</time></trkpt><trkpt lat="45.421926734334676" lon="11.131401691102143"><ele>42.0</ele><time>2026-03-28T17:45:14Z</time></trkpt><trkpt lat="45.42194031109353" lon="11.131889406645861"><ele>42.0</ele><time>2026-03-28T17:45:15Z</time></trkpt><trkpt lat="45.421948690584145" lon="11.132377367502139"><ele>42.0</ele><time>2026-03-28T17:45:16Z</time></trkpt><trkpt lat="45.42194843145304" lon="11.132865373805245"><ele>44.5</ele><time>2026-03-28T17:45:17Z</time></trkpt><trkpt lat="45.42193939908478" lon="11.133353651261666"><ele>47.0</ele><time>2026-03-28T17:45:18Z</time></trkpt><trkpt lat="45.4219253523658" lon="11.13384372907587"><ele>45.5</ele><time>2026-03-28T17:45:19Z</time></trkpt><trkpt lat="45.421903592772075" lon="11.134331073973447"><ele>44.0</ele><time>2026-03-28T17:45:20Z</time></trkpt><trkpt lat="45.421877031206535" lon="11.134815734850779"><ele>44.5</ele><time>2026-03-28T17:45:21Z</time></trkpt><trkpt lat="45.421843454688755" lon="11.135298201192656"><ele>45.0</ele><time>2026-03-28T17:45:22Z</time></trkpt><trkpt lat="45.4218045339976" lon="11.135778861246681"><ele>45.0</ele><time>2026-03-28T17:45:23Z</time></trkpt><trkpt lat="45.42176417112694" lon="11.136253788572732"><ele>45.0</ele><time>2026-03-28T17:45:24Z</time></trkpt><trkpt lat="45.4217252793696" lon="11.136719754371601"><ele>45.5</ele><time>2026-03-28T17:45:25Z</time></trkpt><trkpt lat="45.421685824143346" lon="11.137178639369607"><ele>46.0</ele><time>2026-03-28T17:45:26Z</time></trkpt><trkpt lat="45.42164824814629" lon="11.137635311479444"><ele>46.0</ele><time>2026-03-28T17:45:27Z</time></trkpt><trkpt lat="45.42160953884705" lon="11.138090075988615"><ele>46.0</ele><time>2026-03-28T17:45:28Z</time></trkpt><trkpt lat="45.421570061373785" lon="11.138545313743982"><ele>46.0</ele><time>2026-03-28T17:45:29Z</time></trkpt><trkpt lat="45.42153315359391" lon="11.138999650051913"><ele>46.0</ele><time>2026-03-28T17:45:30Z</time></trkpt><trkpt lat="45.421497281324946" lon="11.13945407773263"><ele>46.5</ele><time>2026-03-28T17:45:31Z</time></trkpt><trkpt lat="45.421461582236056" lon="11.139910511709521"><ele>47.0</ele><time>2026-03-28T17:45:32Z</time></trkpt><trkpt lat="45.421423838634446" lon="11.140369232457317"><ele>46.0</ele><time>2026-03-28T17:45:33Z</time></trkpt><trkpt lat="45.42138592478741" lon="11.14083142321095"><ele>45.0</ele><time>2026-03-28T17:45:34Z</time></trkpt><trkpt lat="45.42135084261509" lon="11.141295205087118"><ele>45.0</ele><time>2026-03-28T17:45:35Z</time></trkpt><trkpt lat="45.421314932645465" lon="11.14175541738682"><ele>45.0</ele><time>2026-03-28T17:45:36Z</time></trkpt><trkpt lat="45.421277180740894" lon="11.142213781710328"><ele>45.5</ele><time>2026-03-28T17:45:37Z</time></trkpt><trkpt lat="45.42123999405078" lon="11.14267589256595"><ele>46.0</ele><time>2026-03-28T17:45:38Z</time></trkpt><trkpt lat="45.421199655989234" lon="11.143139430736431"><ele>46.0</ele><time>2026-03-28T17:45:39Z</time></trkpt><trkpt lat="45.42116089240423" lon="11.143605709618662"><ele>46.0</ele><time>2026-03-28T17:45:40Z</time></trkpt><trkpt lat="45.42112104166993" lon="11.144072483889493"><ele>46.5</ele><time>2026-03-28T17:45:41Z</time></trkpt><trkpt lat="45.42108258262846" lon="11.144545457310702"><ele>47.0</ele><time>2026-03-28T17:45:42Z</time></trkpt><trkpt lat="45.42104547072335" lon="11.145016185933992"><ele>47.0</ele><time>2026-03-28T17:45:43Z</time></trkpt><trkpt lat="45.42100597718215" lon="11.145486625185391"><ele>47.0</ele><time>2026-03-28T17:45:44Z</time></trkpt><trkpt lat="45.4209667281758" lon="11.145955881659162"><ele>46.5</ele><time>2026-03-28T17:45:45Z</time></trkpt><trkpt lat="45.420930263233004" lon="11.14642389897596"><ele>46.0</ele><time>2026-03-28T17:45:46Z</time></trkpt><trkpt lat="45.42089452090125" lon="11.146891449113447"><ele>46.0</ele><time>2026-03-28T17:45:47Z</time></trkpt><trkpt lat="45.42085902584456" lon="11.147361561801942"><ele>46.0</ele><time>2026-03-28T17:45:48Z</time></trkpt><trkpt lat="45.42082019255225" lon="11.147834157685839"><ele>46.5</ele><time>2026-03-28T17:45:49Z</time></trkpt><trkpt lat="45.42078012564846" lon="11.148310700264966"><ele>47.0</ele><time>2026-03-28T17:45:50Z</time></trkpt><trkpt lat="45.420739361459056" lon="11.148786096169413"><ele>48.0</ele><time>2026-03-28T17:45:51Z</time></trkpt><trkpt lat="45.420698952904985" lon="11.149261283394727"><ele>49.0</ele><time>2026-03-28T17:45:52Z</time></trkpt><trkpt lat="45.42065859565437" lon="11.149739135547897"><ele>48.5</ele><time>2026-03-28T17:45:53Z</time></trkpt><trkpt lat="45.42061855048319" lon="11.150216079070859"><ele>48.0</ele><time>2026-03-28T17:45:54Z</time></trkpt><trkpt lat="45.4205789256704" lon="11.150693314045379"><ele>48.0</ele><time>2026-03-28T17:45:54.999Z</time></trkpt><trkpt lat="45.420540569905796" lon="11.151167198814855"><ele>48.0</ele><time>2026-03-28T17:45:55.999Z</time></trkpt><trkpt lat="45.42050325451139" lon="11.151639156823956"><ele>48.5</ele><time>2026-03-28T17:45:56.999Z</time></trkpt><trkpt lat="45.42046557900028" lon="11.152110205797452"><ele>49.0</ele><time>2026-03-28T17:45:57.999Z</time></trkpt><trkpt lat="45.42042759687172" lon="11.152580531798932"><ele>48.0</ele><time>2026-03-28T17:45:58.999Z</time></trkpt><trkpt lat="45.420388013687905" lon="11.153043260918778"><ele>47.0</ele><time>2026-03-28T17:45:59.999Z</time></trkpt><trkpt lat="45.420348692350146" lon="11.153510822090476"><ele>47.0</ele><time>2026-03-28T17:46:00.999Z</time></trkpt><trkpt lat="45.420310426135835" lon="11.153982034152012"><ele>47.0</ele><time>2026-03-28T17:46:01.999Z</time></trkpt><trkpt lat="45.4202727035429" lon="11.15445169751447"><ele>48.0</ele><time>2026-03-28T17:46:02.999Z</time></trkpt><trkpt lat="45.420234223272004" lon="11.154921520041048"><ele>49.0</ele><time>2026-03-28T17:46:03.999Z</time></trkpt><trkpt lat="45.4201964297596" lon="11.155392902560335"><ele>49.0</ele><time>2026-03-28T17:46:04.999Z</time></trkpt><trkpt lat="45.420159214413076" lon="11.155865223354605"><ele>49.0</ele><time>2026-03-28T17:46:05.999Z</time></trkpt><trkpt lat="45.42011979558434" lon="11.156340232367477"><ele>49.0</ele><time>2026-03-28T17:46:06.999Z</time></trkpt><trkpt lat="45.42008016085628" lon="11.156816754144703"><ele>49.0</ele><time>2026-03-28T17:46:07.999Z</time></trkpt><trkpt lat="45.42004129468004" lon="11.157293094999766"><ele>49.5</ele><time>2026-03-28T17:46:08.999Z</time></trkpt><trkpt lat="45.420003541627885" lon="11.157772274008632"><ele>50.0</ele><time>2026-03-28T17:46:09.999Z</time></trkpt><trkpt lat="45.419968929906624" lon="11.158251636510693"><ele>50.5</ele><time>2026-03-28T17:46:10.999Z</time></trkpt><trkpt lat="45.419942285593855" lon="11.158728858991969"><ele>51.0</ele><time>2026-03-28T17:46:11.999Z</time></trkpt><trkpt lat="45.419921706641226" lon="11.159202399042382"><ele>51.0</ele><time>2026-03-28T17:46:12.999Z</time></trkpt><trkpt lat="45.4199015702483" lon="11.159670685130067"><ele>51.0</ele><time>2026-03-28T17:46:13.999Z</time></trkpt><trkpt lat="45.41987870018971" lon="11.160135460602248"><ele>51.0</ele><time>2026-03-28T17:46:14.999Z</time></trkpt><trkpt lat="45.41985678627803" lon="11.16060034094906"><ele>51.0</ele><time>2026-03-28T17:46:15.999Z</time></trkpt><trkpt lat="45.419834356313366" lon="11.161065436378388"><ele>50.5</ele><time>2026-03-28T17:46:16.999Z</time></trkpt><trkpt lat="45.419812591343195" lon="11.161527968133573"><ele>50.0</ele><time>2026-03-28T17:46:17.999Z</time></trkpt><trkpt lat="45.41979008706648" lon="11.161986929020872"><ele>50.0</ele><time>2026-03-28T17:46:18.999Z</time></trkpt><trkpt lat="45.41976885948514" lon="11.162444722330445"><ele>50.0</ele><time>2026-03-28T17:46:19.999Z</time></trkpt><trkpt lat="45.419745711796324" lon="11.162903871131496"><ele>50.5</ele><time>2026-03-28T17:46:20.999Z</time></trkpt><trkpt lat="45.419723167719205" lon="11.163364964892619"><ele>51.0</ele><time>2026-03-28T17:46:21.999Z</time></trkpt><trkpt lat="45.419702672478735" lon="11.16382675712689"><ele>51.5</ele><time>2026-03-28T17:46:22.999Z</time></trkpt><trkpt lat="45.419681162637744" lon="11.164292874643241"><ele>52.0</ele><time>2026-03-28T17:46:24Z</time></trkpt><trkpt lat="45.41966055796225" lon="11.164755267289758"><ele>51.5</ele><time>2026-03-28T17:46:25Z</time></trkpt><trkpt lat="45.41963963958157" lon="11.165220560546846"><ele>51.0</ele><time>2026-03-28T17:46:26Z</time></trkpt><trkpt lat="45.41961869737932" lon="11.165685584787104"><ele>51.0</ele><time>2026-03-28T17:46:27Z</time></trkpt><trkpt lat="45.41959740955603" lon="11.1661517701835"><ele>51.0</ele><time>2026-03-28T17:46:28Z</time></trkpt><trkpt lat="45.41957300948853" lon="11.166619902258219"><ele>50.0</ele><time>2026-03-28T17:46:29Z</time></trkpt><trkpt lat="45.41955077063941" lon="11.167089632185597"><ele>49.0</ele><time>2026-03-28T17:46:30Z</time></trkpt><trkpt lat="45.419526237672954" lon="11.167558786721097"><ele>48.5</ele><time>2026-03-28T17:46:31Z</time></trkpt><trkpt lat="45.419501519194654" lon="11.16802901328533"><ele>48.0</ele><time>2026-03-28T17:46:32Z</time></trkpt><trkpt lat="45.41947946133757" lon="11.168501461414387"><ele>48.0</ele><time>2026-03-28T17:46:33Z</time></trkpt><trkpt lat="45.419457347811694" lon="11.16897788722135"><ele>48.0</ele><time>2026-03-28T17:46:34Z</time></trkpt><trkpt lat="45.41943527365157" lon="11.169458718677548"><ele>47.5</ele><time>2026-03-28T17:46:35Z</time></trkpt><trkpt lat="45.41941475526788" lon="11.1699356279393"><ele>47.0</ele><time>2026-03-28T17:46:36Z</time></trkpt><trkpt lat="45.419393621573725" lon="11.170411834745098"><ele>48.0</ele><time>2026-03-28T17:46:37Z</time></trkpt><trkpt lat="45.419370955069404" lon="11.170882084774881"><ele>49.0</ele><time>2026-03-28T17:46:38Z</time></trkpt><trkpt lat="45.41934606788499" lon="11.17135219579943"><ele>50.0</ele><time>2026-03-28T17:46:39Z</time></trkpt><trkpt lat="45.41931530655062" lon="11.171823133607507"><ele>51.0</ele><time>2026-03-28T17:46:40Z</time></trkpt><trkpt lat="45.419276588545635" lon="11.172294633519625"><ele>51.5</ele><time>2026-03-28T17:46:41Z</time></trkpt><trkpt lat="45.41923140549673" lon="11.172760609768396"><ele>52.0</ele><time>2026-03-28T17:46:42Z</time></trkpt><trkpt lat="45.419179544054344" lon="11.173219540047171"><ele>52.0</ele><time>2026-03-28T17:46:43Z</time></trkpt><trkpt lat="45.41912158982261" lon="11.173672893659141"><ele>52.0</ele><time>2026-03-28T17:46:44Z</time></trkpt><trkpt lat="45.41905777426631" lon="11.174128367663087"><ele>51.5</ele><time>2026-03-28T17:46:45Z</time></trkpt><trkpt lat="45.41898925840222" lon="11.174587083792273"><ele>51.0</ele><time>2026-03-28T17:46:46Z</time></trkpt><trkpt lat="45.41891472305332" lon="11.17504341097434"><ele>51.0</ele><time>2026-03-28T17:46:47Z</time></trkpt><trkpt lat="45.418836233555695" lon="11.175491456411523"><ele>51.0</ele><time>2026-03-28T17:46:48Z</time></trkpt><trkpt lat="45.41875366042709" lon="11.17593310732637"><ele>51.0</ele><time>2026-03-28T17:46:49Z</time></trkpt><trkpt lat="45.41866530581374" lon="11.176367710707384"><ele>51.0</ele><time>2026-03-28T17:46:50Z</time></trkpt><trkpt lat="45.41857294346952" lon="11.176792759775063"><ele>51.0</ele><time>2026-03-28T17:46:51Z</time></trkpt><trkpt lat="45.41847477995096" lon="11.177213465575282"><ele>51.0</ele><time>2026-03-28T17:46:52Z</time></trkpt><trkpt lat="45.418377993826944" lon="11.17763228638977"><ele>51.0</ele><time>2026-03-28T17:46:53Z</time></trkpt><trkpt lat="45.41828211168177" lon="11.178045688033926"><ele>51.0</ele><time>2026-03-28T17:46:54Z</time></trkpt><trkpt lat="45.418187375568806" lon="11.178462966138213"><ele>51.5</ele><time>2026-03-28T17:46:55Z</time></trkpt><trkpt lat="45.41809200024653" lon="11.178884393520692"><ele>52.0</ele><time>2026-03-28T17:46:56Z</time></trkpt><trkpt lat="45.41799556106269" lon="11.179313445929708"><ele>51.5</ele><time>2026-03-28T17:46:57Z</time></trkpt><trkpt lat="45.417897392377455" lon="11.179748026930604"><ele>51.0</ele><time>2026-03-28T17:46:58Z</time></trkpt><trkpt lat="45.41779980174662" lon="11.1801830392906"><ele>51.0</ele><time>2026-03-28T17:46:59Z</time></trkpt><trkpt lat="45.417699523568466" lon="11.180621391366675"><ele>51.0</ele><time>2026-03-28T17:47:00Z</time></trkpt><trkpt lat="45.41759934408487" lon="11.181061740372876"><ele>51.5</ele><time>2026-03-28T17:47:01Z</time></trkpt><trkpt lat="45.41749872206588" lon="11.181496280735281"><ele>52.0</ele><time>2026-03-28T17:47:02Z</time></trkpt><trkpt lat="45.41739742239841" lon="11.181928373657636"><ele>51.5</ele><time>2026-03-28T17:47:03Z</time></trkpt><trkpt lat="45.41729580462729" lon="11.182366183595828"><ele>51.0</ele><time>2026-03-28T17:47:04Z</time></trkpt><trkpt lat="45.41719481969247" lon="11.182804716243666"><ele>50.5</ele><time>2026-03-28T17:47:05Z</time></trkpt><trkpt lat="45.41709311701518" lon="11.183244735499327"><ele>50.0</ele><time>2026-03-28T17:47:06Z</time></trkpt><trkpt lat="45.41699148312139" lon="11.183684820052724"><ele>50.0</ele><time>2026-03-28T17:47:07Z</time></trkpt><trkpt lat="45.416890134428364" lon="11.184127069880667"><ele>50.0</ele><time>2026-03-28T17:47:08Z</time></trkpt><trkpt lat="45.41678854273672" lon="11.18456759772017"><ele>51.0</ele><time>2026-03-28T17:47:09Z</time></trkpt><trkpt lat="45.41668599786534" lon="11.185008365763974"><ele>52.0</ele><time>2026-03-28T17:47:10Z</time></trkpt><trkpt lat="45.41658344550026" lon="11.185452504208387"><ele>54.5</ele><time>2026-03-28T17:47:11Z</time></trkpt><trkpt lat="45.416481548262254" lon="11.18589534313395"><ele>57.0</ele><time>2026-03-28T17:47:12Z</time></trkpt><trkpt lat="45.416380531913575" lon="11.186336161813168"><ele>54.0</ele><time>2026-03-28T17:47:13Z</time></trkpt><trkpt lat="45.416280120564714" lon="11.186778008381769"><ele>51.0</ele><time>2026-03-28T17:47:14Z</time></trkpt><trkpt lat="45.41617984640732" lon="11.1872188422224"><ele>51.0</ele><time>2026-03-28T17:47:15Z</time></trkpt><trkpt lat="45.41608347098517" lon="11.187659564539734"><ele>51.0</ele><time>2026-03-28T17:47:16Z</time></trkpt><trkpt lat="45.41598444512969" lon="11.188087634984976"><ele>51.0</ele><time>2026-03-28T17:47:17Z</time></trkpt><trkpt lat="45.41588627561632" lon="11.188505096038531"><ele>51.0</ele><time>2026-03-28T17:47:18Z</time></trkpt><trkpt lat="45.415791269412836" lon="11.18891910347438"><ele>50.0</ele><time>2026-03-28T17:47:19Z</time></trkpt><trkpt lat="45.41569921251248" lon="11.189326901278081"><ele>49.0</ele><time>2026-03-28T17:47:20Z</time></trkpt><trkpt lat="45.41560935003971" lon="11.189734851792316"><ele>49.0</ele><time>2026-03-28T17:47:21Z</time></trkpt><trkpt lat="45.41551891006387" lon="11.190147422280589"><ele>49.0</ele><time>2026-03-28T17:47:22Z</time></trkpt><trkpt lat="45.41543090434327" lon="11.190567106856465"><ele>46.0</ele><time>2026-03-28T17:47:23Z</time></trkpt><trkpt lat="45.41534674862613" lon="11.19099491685507"><ele>43.0</ele><time>2026-03-28T17:47:24Z</time></trkpt><trkpt lat="45.41526460571348" lon="11.191425180641163"><ele>44.0</ele><time>2026-03-28T17:47:25Z</time></trkpt><trkpt lat="45.41518681548187" lon="11.191859624776928"><ele>45.0</ele><time>2026-03-28T17:47:26Z</time></trkpt><trkpt lat="45.41511293573551" lon="11.192295013021619"><ele>44.5</ele><time>2026-03-28T17:47:27Z</time></trkpt><trkpt lat="45.415042096267236" lon="11.192733323684795"><ele>44.0</ele><time>2026-03-28T17:47:28Z</time></trkpt><trkpt lat="45.41497158272051" lon="11.193172887685355"><ele>42.5</ele><time>2026-03-28T17:47:29Z</time></trkpt><trkpt lat="45.414905729853274" lon="11.19361383275145"><ele>41.0</ele><time>2026-03-28T17:47:30Z</time></trkpt><trkpt lat="45.41484374659158" lon="11.194054354926962"><ele>40.0</ele><time>2026-03-28T17:47:31Z</time></trkpt><trkpt lat="45.414784805998366" lon="11.194493178800156"><ele>39.0</ele><time>2026-03-28T17:47:32Z</time></trkpt><trkpt lat="45.41473146424659" lon="11.194931778774697"><ele>38.5</ele><time>2026-03-28T17:47:33Z</time></trkpt><trkpt lat="45.41468151564462" lon="11.19537031610085"><ele>38.0</ele><time>2026-03-28T17:47:34Z</time></trkpt><trkpt lat="45.41463367406996" lon="11.195797609498623"><ele>37.5</ele><time>2026-03-28T17:47:35Z</time></trkpt><trkpt lat="45.41459044061873" lon="11.196204732385924"><ele>37.0</ele><time>2026-03-28T17:47:36Z</time></trkpt><trkpt lat="45.414554366488204" lon="11.196611696129526"><ele>36.5</ele><time>2026-03-28T17:47:37Z</time></trkpt><trkpt lat="45.41451541913717" lon="11.197014255123795"><ele>36.0</ele><time>2026-03-28T17:47:38Z</time></trkpt><trkpt lat="45.41447648831979" lon="11.197419839805496"><ele>36.0</ele><time>2026-03-28T17:47:39Z</time></trkpt><trkpt lat="45.414435900707474" lon="11.197830804810755"><ele>36.0</ele><time>2026-03-28T17:47:40Z</time></trkpt><trkpt lat="45.41439384555509" lon="11.198238952974085"><ele>36.0</ele><time>2026-03-28T17:47:41Z</time></trkpt><trkpt lat="45.41435201022616" lon="11.198651164448133"><ele>36.0</ele><time>2026-03-28T17:47:42Z</time></trkpt><trkpt lat="45.414312553415385" lon="11.199069751944952"><ele>35.5</ele><time>2026-03-28T17:47:43Z</time></trkpt><trkpt lat="45.41427318527621" lon="11.19949026486705"><ele>35.0</ele><time>2026-03-28T17:47:44Z</time></trkpt><trkpt lat="45.41423463716753" lon="11.199910498557646"><ele>34.0</ele><time>2026-03-28T17:47:45Z</time></trkpt><trkpt lat="45.41419362274167" lon="11.200326837285829"><ele>33.0</ele><time>2026-03-28T17:47:45.999Z</time></trkpt><trkpt lat="45.414151860041564" lon="11.200745227127767"><ele>32.5</ele><time>2026-03-28T17:47:46.999Z</time></trkpt><trkpt lat="45.414111235607386" lon="11.20116047867107"><ele>32.0</ele><time>2026-03-28T17:47:47.999Z</time></trkpt><trkpt lat="45.41407091806067" lon="11.201572410577839"><ele>31.5</ele><time>2026-03-28T17:47:48.999Z</time></trkpt><trkpt lat="45.41402986111297" lon="11.20198688610292"><ele>31.0</ele><time>2026-03-28T17:47:50Z</time></trkpt><trkpt lat="45.413987974191656" lon="11.202402888124618"><ele>30.5</ele><time>2026-03-28T17:47:50.999Z</time></trkpt><trkpt lat="45.41394673215193" lon="11.202820560832677"><ele>30.0</ele><time>2026-03-28T17:47:51.999Z</time></trkpt><trkpt lat="45.413905569091945" lon="11.203235727387137"><ele>30.0</ele><time>2026-03-28T17:47:52.999Z</time></trkpt><trkpt lat="45.41386544404386" lon="11.203653279620552"><ele>30.0</ele><time>2026-03-28T17:47:53.999Z</time></trkpt><trkpt lat="45.413825696242675" lon="11.204072900968766"><ele>29.0</ele><time>2026-03-28T17:47:54.999Z</time></trkpt><trkpt lat="45.41378624644719" lon="11.204494351821948"><ele>28.0</ele><time>2026-03-28T17:47:55.999Z</time></trkpt><trkpt lat="45.413745854848656" lon="11.204921386707671"><ele>28.0</ele><time>2026-03-28T17:47:56.999Z</time></trkpt><trkpt lat="45.413704771628346" lon="11.205355074955417"><ele>28.0</ele><time>2026-03-28T17:47:57.999Z</time></trkpt><trkpt lat="45.41366292778804" lon="11.205795675819012"><ele>28.0</ele><time>2026-03-28T17:47:58.999Z</time></trkpt><trkpt lat="45.413620230794194" lon="11.206244023890005"><ele>28.0</ele><time>2026-03-28T17:47:59.999Z</time></trkpt><trkpt lat="45.413577364733925" lon="11.206698252968067"><ele>28.0</ele><time>2026-03-28T17:48:00.999Z</time></trkpt><trkpt lat="45.413532983609294" lon="11.207158164834256"><ele>28.0</ele><time>2026-03-28T17:48:01.999Z</time></trkpt><trkpt lat="45.41348739691226" lon="11.207620393704923"><ele>28.0</ele><time>2026-03-28T17:48:02.999Z</time></trkpt><trkpt lat="45.4134413792635" lon="11.208086393917329"><ele>28.0</ele><time>2026-03-28T17:48:03.999Z</time></trkpt><trkpt lat="45.413394318341346" lon="11.208553379968727"><ele>28.5</ele><time>2026-03-28T17:48:04.999Z</time></trkpt><trkpt lat="45.41334740882071" lon="11.209023521967802"><ele>29.0</ele><time>2026-03-28T17:48:05.999Z</time></trkpt><trkpt lat="45.41330048257175" lon="11.209487690461634"><ele>29.0</ele><time>2026-03-28T17:48:06.999Z</time></trkpt><trkpt lat="45.413254186237594" lon="11.209941171536173"><ele>29.0</ele><time>2026-03-28T17:48:07.999Z</time></trkpt><trkpt lat="45.413214583574586" lon="11.210389443415703"><ele>29.5</ele><time>2026-03-28T17:48:08.999Z</time></trkpt><trkpt lat="45.41317344021644" lon="11.210840320971622"><ele>30.0</ele><time>2026-03-28T17:48:09.999Z</time></trkpt><trkpt lat="45.41312938597224" lon="11.211293788344111"><ele>30.0</ele><time>2026-03-28T17:48:10.999Z</time></trkpt><trkpt lat="45.41308408848469" lon="11.211752063255178"><ele>30.0</ele><time>2026-03-28T17:48:11.999Z</time></trkpt><trkpt lat="45.41303789257643" lon="11.212212437937522"><ele>29.5</ele><time>2026-03-28T17:48:12.999Z</time></trkpt><trkpt lat="45.41299334071537" lon="11.212670505361775"><ele>29.0</ele><time>2026-03-28T17:48:13.999Z</time></trkpt><trkpt lat="45.41294900221827" lon="11.213127425115191"><ele>28.5</ele><time>2026-03-28T17:48:14.999Z</time></trkpt><trkpt lat="45.41290465743713" lon="11.21357901173349"><ele>28.0</ele><time>2026-03-28T17:48:15.999Z</time></trkpt><trkpt lat="45.41286221768646" lon="11.214022074730488"><ele>29.0</ele><time>2026-03-28T17:48:16.999Z</time></trkpt><trkpt lat="45.412821998516435" lon="11.214455699554547"><ele>30.0</ele><time>2026-03-28T17:48:17.999Z</time></trkpt><trkpt lat="45.41277970608231" lon="11.214885538101898"><ele>30.0</ele><time>2026-03-28T17:48:18.999Z</time></trkpt><trkpt lat="45.412736440497156" lon="11.21530049719831"><ele>30.0</ele><time>2026-03-28T17:48:19.999Z</time></trkpt><trkpt lat="45.412695160664455" lon="11.215698675687888"><ele>29.5</ele><time>2026-03-28T17:48:20.999Z</time></trkpt><trkpt lat="45.41265620508889" lon="11.216082755258768"><ele>29.0</ele><time>2026-03-28T17:48:21.999Z</time></trkpt><trkpt lat="45.41261847190685" lon="11.21644755331083"><ele>29.5</ele><time>2026-03-28T17:48:22.999Z</time></trkpt><trkpt lat="45.412576144660626" lon="11.216808793424697"><ele>30.0</ele><time>2026-03-28T17:48:23.999Z</time></trkpt><trkpt lat="45.41252628132684" lon="11.217180096101831"><ele>30.5</ele><time>2026-03-28T17:48:24.999Z</time></trkpt><trkpt lat="45.41247540191044" lon="11.217565090902061"><ele>31.0</ele><time>2026-03-28T17:48:25.999Z</time></trkpt><trkpt lat="45.41242665102287" lon="11.217963942893894"><ele>30.5</ele><time>2026-03-28T17:48:26.999Z</time></trkpt><trkpt lat="45.412378809502634" lon="11.218374391799824"><ele>30.0</ele><time>2026-03-28T17:48:27.999Z</time></trkpt><trkpt lat="45.41233327816009" lon="11.218796197822225"><ele>30.5</ele><time>2026-03-28T17:48:28.999Z</time></trkpt><trkpt lat="45.41228904906851" lon="11.219228760207233"><ele>31.0</ele><time>2026-03-28T17:48:30Z</time></trkpt><trkpt lat="45.412246866396735" lon="11.219664213904677"><ele>31.5</ele><time>2026-03-28T17:48:31Z</time></trkpt><trkpt lat="45.412208389350155" lon="11.220099299160085"><ele>32.0</ele><time>2026-03-28T17:48:32Z</time></trkpt><trkpt lat="45.412166669767835" lon="11.220528475723027"><ele>31.5</ele><time>2026-03-28T17:48:33Z</time></trkpt><trkpt lat="45.41212416839378" lon="11.220960435505017"><ele>31.0</ele><time>2026-03-28T17:48:34Z</time></trkpt><trkpt lat="45.41208206415923" lon="11.221396815956766"><ele>30.5</ele><time>2026-03-28T17:48:35Z</time></trkpt><trkpt lat="45.41203920604217" lon="11.221835333705496"><ele>30.0</ele><time>2026-03-28T17:48:36Z</time></trkpt><trkpt lat="45.411996400659824" lon="11.222281342291568"><ele>29.5</ele><time>2026-03-28T17:48:37Z</time></trkpt><trkpt lat="45.4119548741798" lon="11.222728196264178"><ele>29.0</ele><time>2026-03-28T17:48:38Z</time></trkpt><trkpt lat="45.41191484631994" lon="11.223176771518505"><ele>29.5</ele><time>2026-03-28T17:48:39Z</time></trkpt><trkpt lat="45.41187718242466" lon="11.223616494852475"><ele>30.0</ele><time>2026-03-28T17:48:40Z</time></trkpt><trkpt lat="45.411838639389494" lon="11.224047569783469"><ele>30.0</ele><time>2026-03-28T17:48:41Z</time></trkpt><trkpt lat="45.41179603951969" lon="11.224477950385499"><ele>30.0</ele><time>2026-03-28T17:48:42Z</time></trkpt><trkpt lat="45.41175259542984" lon="11.224908369209667"><ele>30.5</ele><time>2026-03-28T17:48:43Z</time></trkpt><trkpt lat="45.411711602800764" lon="11.225327774525557"><ele>31.0</ele><time>2026-03-28T17:48:44Z</time></trkpt><trkpt lat="45.41167710783738" lon="11.225740049859954"><ele>31.5</ele><time>2026-03-28T17:48:45Z</time></trkpt><trkpt lat="45.411650302048976" lon="11.226142743795751"><ele>32.0</ele><time>2026-03-28T17:48:46Z</time></trkpt><trkpt lat="45.411618545982456" lon="11.22653775020822"><ele>30.5</ele><time>2026-03-28T17:48:47Z</time></trkpt><trkpt lat="45.41158923768491" lon="11.226927387664174"><ele>29.0</ele><time>2026-03-28T17:48:48Z</time></trkpt><trkpt lat="45.41155592709984" lon="11.227319391814106"><ele>28.5</ele><time>2026-03-28T17:48:49Z</time></trkpt><trkpt lat="45.41152288635731" lon="11.227716267708027"><ele>28.0</ele><time>2026-03-28T17:48:50Z</time></trkpt><trkpt lat="45.41149424023198" lon="11.228120218150341"><ele>28.0</ele><time>2026-03-28T17:48:51Z</time></trkpt><trkpt lat="45.41146619009849" lon="11.228537920748927"><ele>28.0</ele><time>2026-03-28T17:48:52Z</time></trkpt><trkpt lat="45.411436536630205" lon="11.228964955851362"><ele>28.0</ele><time>2026-03-28T17:48:53Z</time></trkpt><trkpt lat="45.411404768399535" lon="11.229395371981738"><ele>28.0</ele><time>2026-03-28T17:48:54Z</time></trkpt><trkpt lat="45.41136804091443" lon="11.229828219991306"><ele>28.0</ele><time>2026-03-28T17:48:55Z</time></trkpt><trkpt lat="45.41132756836174" lon="11.230261110354967"><ele>28.0</ele><time>2026-03-28T17:48:56Z</time></trkpt><trkpt lat="45.41128618211467" lon="11.230700634160929"><ele>28.5</ele><time>2026-03-28T17:48:57Z</time></trkpt><trkpt lat="45.411244057704224" lon="11.23114335745187"><ele>29.0</ele><time>2026-03-28T17:48:58Z</time></trkpt><trkpt lat="45.41120066608591" lon="11.231593081580472"><ele>29.5</ele><time>2026-03-28T17:48:59Z</time></trkpt><trkpt lat="45.411156498928904" lon="11.232047562561098"><ele>30.0</ele><time>2026-03-28T17:49:00Z</time></trkpt><trkpt lat="45.41110915114177" lon="11.23250855396932"><ele>30.5</ele><time>2026-03-28T17:49:01Z</time></trkpt><trkpt lat="45.411061485554896" lon="11.23297387330219"><ele>31.0</ele><time>2026-03-28T17:49:02Z</time></trkpt><trkpt lat="45.411015808976906" lon="11.233442144261955"><ele>31.0</ele><time>2026-03-28T17:49:03Z</time></trkpt><trkpt lat="45.41096685290123" lon="11.23391679456981"><ele>31.0</ele><time>2026-03-28T17:49:04Z</time></trkpt><trkpt lat="45.41091832471284" lon="11.234395014052447"><ele>31.0</ele><time>2026-03-28T17:49:05Z</time></trkpt><trkpt lat="45.41087195150261" lon="11.23487364748283"><ele>31.0</ele><time>2026-03-28T17:49:06Z</time></trkpt><trkpt lat="45.41082462084841" lon="11.235354908039369"><ele>29.5</ele><time>2026-03-28T17:49:07Z</time></trkpt><trkpt lat="45.410774417480916" lon="11.2358358434488"><ele>28.0</ele><time>2026-03-28T17:49:08Z</time></trkpt><trkpt lat="45.41072836283547" lon="11.236311252117288"><ele>27.5</ele><time>2026-03-28T17:49:09Z</time></trkpt><trkpt lat="45.41068293778753" lon="11.236787234444007"><ele>27.0</ele><time>2026-03-28T17:49:10Z</time></trkpt><trkpt lat="45.41063890426533" lon="11.23726357314665"><ele>27.0</ele><time>2026-03-28T17:49:11Z</time></trkpt><trkpt lat="45.410598201431185" lon="11.237742253760606"><ele>27.0</ele><time>2026-03-28T17:49:12Z</time></trkpt><trkpt lat="45.4105572065697" lon="11.238221880678434"><ele>27.5</ele><time>2026-03-28T17:49:13Z</time></trkpt><trkpt lat="45.41051967543481" lon="11.238707664337936"><ele>28.0</ele><time>2026-03-28T17:49:14Z</time></trkpt><trkpt lat="45.41048201203179" lon="11.239194267556723"><ele>29.0</ele><time>2026-03-28T17:49:15Z</time></trkpt><trkpt lat="45.41044099110057" lon="11.239678872058889"><ele>30.0</ele><time>2026-03-28T17:49:16Z</time></trkpt><trkpt lat="45.410394657620344" lon="11.240161806152804"><ele>30.0</ele><time>2026-03-28T17:49:17Z</time></trkpt><trkpt lat="45.41034558603169" lon="11.240645392207902"><ele>30.0</ele><time>2026-03-28T17:49:18Z</time></trkpt><trkpt lat="45.41029739169555" lon="11.24112952597904"><ele>29.5</ele><time>2026-03-28T17:49:19Z</time></trkpt><trkpt lat="45.41024882783489" lon="11.24161256140415"><ele>29.0</ele><time>2026-03-28T17:49:20Z</time></trkpt><trkpt lat="45.41020053271798" lon="11.242093664185816"><ele>28.0</ele><time>2026-03-28T17:49:21Z</time></trkpt><trkpt lat="45.41015267455029" lon="11.24257635359591"><ele>27.0</ele><time>2026-03-28T17:49:22Z</time></trkpt><trkpt lat="45.41010589833009" lon="11.24305949285625"><ele>28.0</ele><time>2026-03-28T17:49:23Z</time></trkpt><trkpt lat="45.41006120079682" lon="11.24354252378669"><ele>29.0</ele><time>2026-03-28T17:49:24Z</time></trkpt><trkpt lat="45.41001550257223" lon="11.244023691714817"><ele>29.5</ele><time>2026-03-28T17:49:25Z</time></trkpt><trkpt lat="45.4099682073767" lon="11.24450487690957"><ele>30.0</ele><time>2026-03-28T17:49:26Z</time></trkpt><trkpt lat="45.40992090030927" lon="11.244987208116422"><ele>30.0</ele><time>2026-03-28T17:49:27Z</time></trkpt><trkpt lat="45.40987311039494" lon="11.245470550968607"><ele>30.0</ele><time>2026-03-28T17:49:28Z</time></trkpt><trkpt lat="45.40982451194346" lon="11.245956365169612"><ele>29.5</ele><time>2026-03-28T17:49:29Z</time></trkpt><trkpt lat="45.40977701162589" lon="11.246440970916751"><ele>29.0</ele><time>2026-03-28T17:49:30Z</time></trkpt><trkpt lat="45.40972923028778" lon="11.246926703025757"><ele>29.5</ele><time>2026-03-28T17:49:31Z</time></trkpt><trkpt lat="45.40968136863406" lon="11.247409457532065"><ele>30.0</ele><time>2026-03-28T17:49:32Z</time></trkpt><trkpt lat="45.40963655621887" lon="11.247895930616028"><ele>31.0</ele><time>2026-03-28T17:49:33Z</time></trkpt><trkpt lat="45.409591300548186" lon="11.248377550404134"><ele>32.0</ele><time>2026-03-28T17:49:34Z</time></trkpt><trkpt lat="45.409542781867" lon="11.248856096766938"><ele>32.0</ele><time>2026-03-28T17:49:35Z</time></trkpt><trkpt lat="45.40949132780941" lon="11.249335518491094"><ele>32.0</ele><time>2026-03-28T17:49:36Z</time></trkpt><trkpt lat="45.409445849947076" lon="11.249814147676046"><ele>32.0</ele><time>2026-03-28T17:49:37Z</time></trkpt><trkpt lat="45.409397851692425" lon="11.25029408267037"><ele>32.0</ele><time>2026-03-28T17:49:38Z</time></trkpt><trkpt lat="45.409351757194294" lon="11.250777178155612"><ele>31.5</ele><time>2026-03-28T17:49:39Z</time></trkpt><trkpt lat="45.40930478329365" lon="11.251259650826658"><ele>31.0</ele><time>2026-03-28T17:49:40Z</time></trkpt><trkpt lat="45.409258852592956" lon="11.251742815093282"><ele>31.0</ele><time>2026-03-28T17:49:41Z</time></trkpt><trkpt lat="45.40921324250164" lon="11.252225560909162"><ele>31.0</ele><time>2026-03-28T17:49:42Z</time></trkpt><trkpt lat="45.40916775936585" lon="11.252710115601689"><ele>31.0</ele><time>2026-03-28T17:49:43Z</time></trkpt><trkpt lat="45.409121863985234" lon="11.253192367683129"><ele>31.0</ele><time>2026-03-28T17:49:44Z</time></trkpt><trkpt lat="45.409075152927365" lon="11.253675619765549"><ele>30.0</ele><time>2026-03-28T17:49:45Z</time></trkpt><trkpt lat="45.40902848674772" lon="11.254160508528992"><ele>29.0</ele><time>2026-03-28T17:49:46Z</time></trkpt><trkpt lat="45.4089798431676" lon="11.254646964402154"><ele>29.0</ele><time>2026-03-28T17:49:47Z</time></trkpt><trkpt lat="45.40893277356614" lon="11.255129797736195"><ele>29.0</ele><time>2026-03-28T17:49:48Z</time></trkpt><trkpt lat="45.408885170898174" lon="11.25561465727664"><ele>29.0</ele><time>2026-03-28T17:49:49Z</time></trkpt><trkpt lat="45.40883738697771" lon="11.256098725547506"><ele>29.0</ele><time>2026-03-28T17:49:50Z</time></trkpt><trkpt lat="45.4087913736559" lon="11.256584283576023"><ele>29.0</ele><time>2026-03-28T17:49:51Z</time></trkpt><trkpt lat="45.40875179955228" lon="11.257070094342376"><ele>29.0</ele><time>2026-03-28T17:49:51.999Z</time></trkpt><trkpt lat="45.40872012538737" lon="11.257556828095796"><ele>29.5</ele><time>2026-03-28T17:49:52.999Z</time></trkpt><trkpt lat="45.408695838099604" lon="11.258043834185402"><ele>30.0</ele><time>2026-03-28T17:49:53.999Z</time></trkpt><trkpt lat="45.40868117615682" lon="11.258526128083691"><ele>30.0</ele><time>2026-03-28T17:49:54.999Z</time></trkpt><trkpt lat="45.40867200635576" lon="11.259012167269894"><ele>30.0</ele><time>2026-03-28T17:49:55.999Z</time></trkpt><trkpt lat="45.40866573480102" lon="11.259494776369754"><ele>31.0</ele><time>2026-03-28T17:49:56.999Z</time></trkpt><trkpt lat="45.40866573442763" lon="11.259980106105026"><ele>32.0</ele><time>2026-03-28T17:49:57.999Z</time></trkpt><trkpt lat="45.40866952217639" lon="11.260466275619995"><ele>32.0</ele><time>2026-03-28T17:49:58.999Z</time></trkpt><trkpt lat="45.40867725946623" lon="11.260953787883045"><ele>32.0</ele><time>2026-03-28T17:49:59.999Z</time></trkpt><trkpt lat="45.40868645973535" lon="11.261441576854516"><ele>32.0</ele><time>2026-03-28T17:50:00.999Z</time></trkpt><trkpt lat="45.40869820412249" lon="11.261928172329856"><ele>32.0</ele><time>2026-03-28T17:50:01.999Z</time></trkpt><trkpt lat="45.4087069882392" lon="11.262414862987585"><ele>31.0</ele><time>2026-03-28T17:50:02.999Z</time></trkpt><trkpt lat="45.40871459237947" lon="11.26290180601666"><ele>30.0</ele><time>2026-03-28T17:50:03.999Z</time></trkpt><trkpt lat="45.40872334142709" lon="11.263389744560518"><ele>28.5</ele><time>2026-03-28T17:50:04.999Z</time></trkpt><trkpt lat="45.40873414728232" lon="11.263876627204736"><ele>27.0</ele><time>2026-03-28T17:50:05.999Z</time></trkpt><trkpt lat="45.40874432653301" lon="11.264361251119215"><ele>26.5</ele><time>2026-03-28T17:50:06.999Z</time></trkpt><trkpt lat="45.4087555645485" lon="11.264848763225945"><ele>26.0</ele><time>2026-03-28T17:50:07.999Z</time></trkpt><trkpt lat="45.408767750998464" lon="11.265335670713764"><ele>27.0</ele><time>2026-03-28T17:50:08.999Z</time></trkpt><trkpt lat="45.40878038486039" lon="11.26582036979763"><ele>28.0</ele><time>2026-03-28T17:50:09.999Z</time></trkpt><trkpt lat="45.40879227555373" lon="11.266308747110882"><ele>27.5</ele><time>2026-03-28T17:50:10.999Z</time></trkpt><trkpt lat="45.40880448279473" lon="11.266796268080478"><ele>27.0</ele><time>2026-03-28T17:50:11.999Z</time></trkpt><trkpt lat="45.4088158487419" lon="11.2672827457929"><ele>27.5</ele><time>2026-03-28T17:50:12.999Z</time></trkpt><trkpt lat="45.408828213044764" lon="11.267768943813998"><ele>28.0</ele><time>2026-03-28T17:50:13.999Z</time></trkpt><trkpt lat="45.40884204534527" lon="11.268254273135385"><ele>28.0</ele><time>2026-03-28T17:50:14.999Z</time></trkpt><trkpt lat="45.40885992374788" lon="11.26874217653559"><ele>28.0</ele><time>2026-03-28T17:50:15.999Z</time></trkpt><trkpt lat="45.40888818725831" lon="11.26922813114936"><ele>27.5</ele><time>2026-03-28T17:50:16.999Z</time></trkpt><trkpt lat="45.40892463426811" lon="11.269713037449176"><ele>27.0</ele><time>2026-03-28T17:50:17.999Z</time></trkpt><trkpt lat="45.40896619567038" lon="11.270192979239681"><ele>27.5</ele><time>2026-03-28T17:50:18.999Z</time></trkpt><trkpt lat="45.40901301529224" lon="11.270675093634715"><ele>28.0</ele><time>2026-03-28T17:50:19.999Z</time></trkpt><trkpt lat="45.409069182837776" lon="11.271155089277462"><ele>28.5</ele><time>2026-03-28T17:50:20.999Z</time></trkpt><trkpt lat="45.40913307928948" lon="11.271633992279682"><ele>29.0</ele><time>2026-03-28T17:50:21.999Z</time></trkpt><trkpt lat="45.40919942850295" lon="11.272112182081377"><ele>29.0</ele><time>2026-03-28T17:50:22.999Z</time></trkpt><trkpt lat="45.40927200774922" lon="11.272586760812647"><ele>29.0</ele><time>2026-03-28T17:50:23.999Z</time></trkpt><trkpt lat="45.40935169547076" lon="11.273061233807985"><ele>28.5</ele><time>2026-03-28T17:50:24.999Z</time></trkpt><trkpt lat="45.409436933445015" lon="11.27353301418116"><ele>28.0</ele><time>2026-03-28T17:50:25.999Z</time></trkpt><trkpt lat="45.40952765528558" lon="11.274004969744967"><ele>28.0</ele><time>2026-03-28T17:50:26.999Z</time></trkpt><trkpt lat="45.409625893560005" lon="11.274472448831336"><ele>28.0</ele><time>2026-03-28T17:50:27.999Z</time></trkpt><trkpt lat="45.4097298455052" lon="11.274937563170383"><ele>28.5</ele><time>2026-03-28T17:50:28.999Z</time></trkpt><trkpt lat="45.40983954489447" lon="11.275400207457555"><ele>29.0</ele><time>2026-03-28T17:50:29.999Z</time></trkpt><trkpt lat="45.40995155602641" lon="11.275861880352267"><ele>29.0</ele><time>2026-03-28T17:50:30.999Z</time></trkpt><trkpt lat="45.410063342113155" lon="11.276322535059752"><ele>29.0</ele><time>2026-03-28T17:50:31.999Z</time></trkpt><trkpt lat="45.41017088030267" lon="11.276785268119495"><ele>29.5</ele><time>2026-03-28T17:50:32.999Z</time></trkpt><trkpt lat="45.41028002843816" lon="11.27724740545274"><ele>30.0</ele><time>2026-03-28T17:50:33.999Z</time></trkpt><trkpt lat="45.410390467192194" lon="11.277709808613205"><ele>31.0</ele><time>2026-03-28T17:50:35Z</time></trkpt><trkpt lat="45.41049844262473" lon="11.278176868853658"><ele>32.0</ele><time>2026-03-28T17:50:36Z</time></trkpt><trkpt lat="45.410609975336605" lon="11.278641259572879"><ele>31.0</ele><time>2026-03-28T17:50:37Z</time></trkpt><trkpt lat="45.41071894478135" lon="11.279101689112139"><ele>30.0</ele><time>2026-03-28T17:50:38Z</time></trkpt><trkpt lat="45.41082740485347" lon="11.279560644409592"><ele>29.5</ele><time>2026-03-28T17:50:39Z</time></trkpt><trkpt lat="45.410936367727246" lon="11.280020164845276"><ele>29.0</ele><time>2026-03-28T17:50:40Z</time></trkpt><trkpt lat="45.41104425746905" lon="11.280479376450648"><ele>29.5</ele><time>2026-03-28T17:50:41Z</time></trkpt><trkpt lat="45.411151734715126" lon="11.28093854747917"><ele>30.0</ele><time>2026-03-28T17:50:42Z</time></trkpt><trkpt lat="45.41126079734651" lon="11.281396663168746"><ele>30.5</ele><time>2026-03-28T17:50:43Z</time></trkpt><trkpt lat="45.41136785791763" lon="11.28185751092116"><ele>31.0</ele><time>2026-03-28T17:50:44Z</time></trkpt><trkpt lat="45.411476117566835" lon="11.282320719773965"><ele>30.5</ele><time>2026-03-28T17:50:45Z</time></trkpt><trkpt lat="45.4115845339043" lon="11.282782674013129"><ele>30.0</ele><time>2026-03-28T17:50:46Z</time></trkpt><trkpt lat="45.411693124231206" lon="11.283246331887678"><ele>30.0</ele><time>2026-03-28T17:50:47Z</time></trkpt><trkpt lat="45.41180234514077" lon="11.283708440662553"><ele>30.0</ele><time>2026-03-28T17:50:48Z</time></trkpt><trkpt lat="45.41191257533714" lon="11.284169992973544"><ele>31.0</ele><time>2026-03-28T17:50:49Z</time></trkpt><trkpt lat="45.41202197045285" lon="11.284632343002363"><ele>32.0</ele><time>2026-03-28T17:50:50Z</time></trkpt><trkpt lat="45.41213082214921" lon="11.285095993705415"><ele>33.0</ele><time>2026-03-28T17:50:51Z</time></trkpt><trkpt lat="45.41224020549042" lon="11.28555998540341"><ele>34.0</ele><time>2026-03-28T17:50:52Z</time></trkpt><trkpt lat="45.41234991861216" lon="11.28602320371346"><ele>33.5</ele><time>2026-03-28T17:50:53Z</time></trkpt><trkpt lat="45.4124596741228" lon="11.286486918452615"><ele>33.0</ele><time>2026-03-28T17:50:54Z</time></trkpt><trkpt lat="45.412568808454" lon="11.286950947909462"><ele>32.5</ele><time>2026-03-28T17:50:55Z</time></trkpt><trkpt lat="45.41267711936422" lon="11.287414764086488"><ele>32.0</ele><time>2026-03-28T17:50:56Z</time></trkpt><trkpt lat="45.412785621489896" lon="11.28788140171461"><ele>31.5</ele><time>2026-03-28T17:50:57Z</time></trkpt><trkpt lat="45.41289589496974" lon="11.288346586611643"><ele>31.0</ele><time>2026-03-28T17:50:58Z</time></trkpt><trkpt lat="45.41300584681051" lon="11.288810529740609"><ele>31.5</ele><time>2026-03-28T17:50:59Z</time></trkpt><trkpt lat="45.4131161652507" lon="11.289274208556419"><ele>32.0</ele><time>2026-03-28T17:51:00Z</time></trkpt><trkpt lat="45.41323229812447" lon="11.289735430329753"><ele>32.0</ele><time>2026-03-28T17:51:01Z</time></trkpt><trkpt lat="45.41334061465976" lon="11.290197181374522"><ele>32.0</ele><time>2026-03-28T17:51:02Z</time></trkpt><trkpt lat="45.413448986129005" lon="11.290660884944968"><ele>31.0</ele><time>2026-03-28T17:51:03Z</time></trkpt><trkpt lat="45.413558630653945" lon="11.291121692441429"><ele>30.0</ele><time>2026-03-28T17:51:04Z</time></trkpt><trkpt lat="45.413665846711154" lon="11.291582116712663"><ele>30.0</ele><time>2026-03-28T17:51:05Z</time></trkpt><trkpt lat="45.413773044457855" lon="11.292043541013793"><ele>30.0</ele><time>2026-03-28T17:51:06Z</time></trkpt><trkpt lat="45.41388059030155" lon="11.292503097548078"><ele>30.5</ele><time>2026-03-28T17:51:07Z</time></trkpt><trkpt lat="45.41399009918245" lon="11.292965654025942"><ele>31.0</ele><time>2026-03-28T17:51:08Z</time></trkpt><trkpt lat="45.41409952296016" lon="11.293425482719282"><ele>31.0</ele><time>2026-03-28T17:51:09Z</time></trkpt><trkpt lat="45.414208378083984" lon="11.293885446581136"><ele>31.0</ele><time>2026-03-28T17:51:10Z</time></trkpt><trkpt lat="45.41431586387157" lon="11.294348778071345"><ele>30.0</ele><time>2026-03-28T17:51:11Z</time></trkpt><trkpt lat="45.41442485725234" lon="11.294811695469388"><ele>29.0</ele><time>2026-03-28T17:51:12Z</time></trkpt><trkpt lat="45.41453333282865" lon="11.295271520359156"><ele>30.5</ele><time>2026-03-28T17:51:13Z</time></trkpt><trkpt lat="45.4146418331614" lon="11.295732970324474"><ele>32.0</ele><time>2026-03-28T17:51:14Z</time></trkpt><trkpt lat="45.41474971333361" lon="11.296195146571966"><ele>33.0</ele><time>2026-03-28T17:51:15Z</time></trkpt><trkpt lat="45.41486009317955" lon="11.296657904874039"><ele>34.0</ele><time>2026-03-28T17:51:16Z</time></trkpt><trkpt lat="45.41497093380602" lon="11.297120096040606"><ele>33.5</ele><time>2026-03-28T17:51:17Z</time></trkpt><trkpt lat="45.41508109817667" lon="11.2975805619623"><ele>33.0</ele><time>2026-03-28T17:51:18Z</time></trkpt><trkpt lat="45.41519085519009" lon="11.298042179707615"><ele>32.0</ele><time>2026-03-28T17:51:19Z</time></trkpt><trkpt lat="45.41529798679563" lon="11.298504715112848"><ele>31.0</ele><time>2026-03-28T17:51:20Z</time></trkpt><trkpt lat="45.4154082921441" lon="11.298967809149026"><ele>31.5</ele><time>2026-03-28T17:51:21Z</time></trkpt><trkpt lat="45.41551804950096" lon="11.299431627766994"><ele>32.0</ele><time>2026-03-28T17:51:22Z</time></trkpt><trkpt lat="45.41562645171688" lon="11.299895963983344"><ele>32.0</ele><time>2026-03-28T17:51:23Z</time></trkpt><trkpt lat="45.41573569449277" lon="11.300360712697008"><ele>32.0</ele><time>2026-03-28T17:51:24Z</time></trkpt><trkpt lat="45.41584466107047" lon="11.300825356078574"><ele>32.5</ele><time>2026-03-28T17:51:25Z</time></trkpt><trkpt lat="45.415953698570064" lon="11.301289404163192"><ele>33.0</ele><time>2026-03-28T17:51:26Z</time></trkpt><trkpt lat="45.41606103867166" lon="11.301756541309349"><ele>32.0</ele><time>2026-03-28T17:51:27Z</time></trkpt><trkpt lat="45.41617146977378" lon="11.302220287162966"><ele>31.0</ele><time>2026-03-28T17:51:28Z</time></trkpt><trkpt lat="45.41628164609097" lon="11.302682646922491"><ele>30.5</ele><time>2026-03-28T17:51:29Z</time></trkpt><trkpt lat="45.41639038945697" lon="11.30314380051739"><ele>30.0</ele><time>2026-03-28T17:51:30Z</time></trkpt><trkpt lat="45.416499780024644" lon="11.303604334777148"><ele>30.0</ele><time>2026-03-28T17:51:31Z</time></trkpt><trkpt lat="45.41661076471546" lon="11.304064370935246"><ele>30.0</ele><time>2026-03-28T17:51:32Z</time></trkpt><trkpt lat="45.41671863518157" lon="11.304523879967803"><ele>30.5</ele><time>2026-03-28T17:51:33Z</time></trkpt><trkpt lat="45.4168269411067" lon="11.30498387526807"><ele>31.0</ele><time>2026-03-28T17:51:34Z</time></trkpt><trkpt lat="45.416936791364975" lon="11.305444040009215"><ele>31.0</ele><time>2026-03-28T17:51:35Z</time></trkpt><trkpt lat="45.41704834063138" lon="11.305902612721328"><ele>31.0</ele><time>2026-03-28T17:51:36Z</time></trkpt><trkpt lat="45.41715786209082" lon="11.306364057017907"><ele>31.0</ele><time>2026-03-28T17:51:37Z</time></trkpt><trkpt lat="45.41726457904696" lon="11.306824964224916"><ele>31.0</ele><time>2026-03-28T17:51:38Z</time></trkpt><trkpt lat="45.4173718216758" lon="11.307287773778572"><ele>31.0</ele><time>2026-03-28T17:51:39Z</time></trkpt><trkpt lat="45.417478337273344" lon="11.307751005787372"><ele>31.0</ele><time>2026-03-28T17:51:40Z</time></trkpt><trkpt lat="45.417586611232814" lon="11.308214462843045"><ele>31.0</ele><time>2026-03-28T17:51:41Z</time></trkpt><trkpt lat="45.4176967919473" lon="11.308675755480197"><ele>31.0</ele><time>2026-03-28T17:51:42Z</time></trkpt><trkpt lat="45.41780546698151" lon="11.309136258675025"><ele>30.5</ele><time>2026-03-28T17:51:43Z</time></trkpt><trkpt lat="45.417913361285514" lon="11.309597766105314"><ele>30.0</ele><time>2026-03-28T17:51:44Z</time></trkpt><trkpt lat="45.41802435470163" lon="11.310059622276446"><ele>30.0</ele><time>2026-03-28T17:51:45Z</time></trkpt><trkpt lat="45.41813507655547" lon="11.310521880971791"><ele>30.0</ele><time>2026-03-28T17:51:46Z</time></trkpt><trkpt lat="45.41824481405511" lon="11.310985366482292"><ele>29.5</ele><time>2026-03-28T17:51:47Z</time></trkpt><trkpt lat="45.41835232736419" lon="11.311447694054548"><ele>29.0</ele><time>2026-03-28T17:51:48Z</time></trkpt><trkpt lat="45.41846112202571" lon="11.311912041680783"><ele>30.0</ele><time>2026-03-28T17:51:49Z</time></trkpt><trkpt lat="45.41857161160941" lon="11.31237483299483"><ele>31.0</ele><time>2026-03-28T17:51:50Z</time></trkpt><trkpt lat="45.418682604805" lon="11.312839230923277"><ele>30.5</ele><time>2026-03-28T17:51:51Z</time></trkpt><trkpt lat="45.418791557573904" lon="11.313303154141249"><ele>30.0</ele><time>2026-03-28T17:51:52Z</time></trkpt><trkpt lat="45.41890299048765" lon="11.313766236220422"><ele>30.5</ele><time>2026-03-28T17:51:53Z</time></trkpt><trkpt lat="45.41901325287552" lon="11.314227910083728"><ele>31.0</ele><time>2026-03-28T17:51:54Z</time></trkpt><trkpt lat="45.419123833295366" lon="11.314689794586487"><ele>31.0</ele><time>2026-03-28T17:51:55Z</time></trkpt><trkpt lat="45.419235671232514" lon="11.315150397001666"><ele>31.0</ele><time>2026-03-28T17:51:56Z</time></trkpt><trkpt lat="45.41934961275382" lon="11.315611190531728"><ele>31.0</ele><time>2026-03-28T17:51:57Z</time></trkpt><trkpt lat="45.41946659990485" lon="11.316068242360462"><ele>31.0</ele><time>2026-03-28T17:51:58Z</time></trkpt><trkpt lat="45.4195924365749" lon="11.316522565409175"><ele>32.0</ele><time>2026-03-28T17:51:59Z</time></trkpt><trkpt lat="45.419724907840646" lon="11.316972109374106"><ele>33.0</ele><time>2026-03-28T17:51:59.999Z</time></trkpt><trkpt lat="45.41986519729541" lon="11.317417242669894"><ele>33.0</ele><time>2026-03-28T17:52:00.999Z</time></trkpt><trkpt lat="45.4200118087036" lon="11.317858841384728"><ele>33.0</ele><time>2026-03-28T17:52:01.999Z</time></trkpt><trkpt lat="45.420164325567825" lon="11.318295323125094"><ele>32.5</ele><time>2026-03-28T17:52:02.999Z</time></trkpt><trkpt lat="45.420322381923214" lon="11.31872877039165"><ele>32.0</ele><time>2026-03-28T17:52:03.999Z</time></trkpt><trkpt lat="45.420485509115906" lon="11.319157134534878"><ele>32.0</ele><time>2026-03-28T17:52:04.999Z</time></trkpt><trkpt lat="45.420652841430524" lon="11.319580614112335"><ele>32.0</ele><time>2026-03-28T17:52:05.999Z</time></trkpt><trkpt lat="45.420824644274475" lon="11.320000773967488"><ele>32.0</ele><time>2026-03-28T17:52:06.999Z</time></trkpt><trkpt lat="45.42099936813181" lon="11.320417826067494"><ele>32.0</ele><time>2026-03-28T17:52:07.999Z</time></trkpt><trkpt lat="45.421178500615625" lon="11.320832151709018"><ele>32.5</ele><time>2026-03-28T17:52:08.999Z</time></trkpt><trkpt lat="45.42135781377831" lon="11.32124535258427"><ele>33.0</ele><time>2026-03-28T17:52:09.999Z</time></trkpt><trkpt lat="45.42153516479816" lon="11.321658306481469"><ele>33.5</ele><time>2026-03-28T17:52:10.999Z</time></trkpt><trkpt lat="45.421713506034585" lon="11.322074150292163"><ele>34.0</ele><time>2026-03-28T17:52:11.999Z</time></trkpt><trkpt lat="45.421891158824145" lon="11.322490857923361"><ele>34.0</ele><time>2026-03-28T17:52:12.999Z</time></trkpt><trkpt lat="45.42206958208888" lon="11.32290659385772"><ele>34.0</ele><time>2026-03-28T17:52:13.999Z</time></trkpt><trkpt lat="45.4222495685659" lon="11.323322128262713"><ele>34.5</ele><time>2026-03-28T17:52:14.999Z</time></trkpt><trkpt lat="45.42243007756104" lon="11.32373687075888"><ele>35.0</ele><time>2026-03-28T17:52:15.999Z</time></trkpt><trkpt lat="45.42260954526922" lon="11.324153478848201"><ele>35.0</ele><time>2026-03-28T17:52:16.999Z</time></trkpt><trkpt lat="45.42279181295721" lon="11.324570822596886"><ele>35.0</ele><time>2026-03-28T17:52:17.999Z</time></trkpt><trkpt lat="45.42297240583845" lon="11.324989989029836"><ele>35.5</ele><time>2026-03-28T17:52:18.999Z</time></trkpt><trkpt lat="45.423149912886046" lon="11.325408110015275"><ele>36.0</ele><time>2026-03-28T17:52:19.999Z</time></trkpt><trkpt lat="45.42332773814587" lon="11.325826985485804"><ele>37.0</ele><time>2026-03-28T17:52:20.999Z</time></trkpt><trkpt lat="45.42350648192015" lon="11.326246178991875"><ele>38.0</ele><time>2026-03-28T17:52:21.999Z</time></trkpt><trkpt lat="45.423686613924424" lon="11.326665055360033"><ele>37.5</ele><time>2026-03-28T17:52:22.999Z</time></trkpt><trkpt lat="45.42386765991199" lon="11.32708286097641"><ele>37.0</ele><time>2026-03-28T17:52:23.999Z</time></trkpt><trkpt lat="45.42404984786126" lon="11.327500983324471"><ele>36.0</ele><time>2026-03-28T17:52:24.999Z</time></trkpt><trkpt lat="45.42423072304173" lon="11.32791755197825"><ele>35.0</ele><time>2026-03-28T17:52:25.999Z</time></trkpt><trkpt lat="45.424410537486075" lon="11.328335118777401"><ele>33.5</ele><time>2026-03-28T17:52:26.999Z</time></trkpt><trkpt lat="45.42458719505941" lon="11.328754917533553"><ele>32.0</ele><time>2026-03-28T17:52:27.999Z</time></trkpt><trkpt lat="45.42476492548896" lon="11.329171846615997"><ele>32.0</ele><time>2026-03-28T17:52:28.999Z</time></trkpt><trkpt lat="45.42494407466707" lon="11.329588803964995"><ele>32.0</ele><time>2026-03-28T17:52:29.999Z</time></trkpt><trkpt lat="45.425124734211444" lon="11.330003027741288"><ele>31.5</ele><time>2026-03-28T17:52:30.999Z</time></trkpt><trkpt lat="45.42530564449424" lon="11.330416578921692"><ele>31.0</ele><time>2026-03-28T17:52:31.999Z</time></trkpt><trkpt lat="45.4254843052381" lon="11.330830738908539"><ele>32.5</ele><time>2026-03-28T17:52:32.999Z</time></trkpt><trkpt lat="45.42566270347726" lon="11.331246142246693"><ele>34.0</ele><time>2026-03-28T17:52:33.999Z</time></trkpt><trkpt lat="45.425839069456075" lon="11.331661113872684"><ele>34.0</ele><time>2026-03-28T17:52:34.999Z</time></trkpt><trkpt lat="45.426017967283855" lon="11.332076271585048"><ele>34.0</ele><time>2026-03-28T17:52:35.999Z</time></trkpt><trkpt lat="45.42619598525441" lon="11.332490425449393"><ele>34.5</ele><time>2026-03-28T17:52:36.999Z</time></trkpt><trkpt lat="45.42637387693317" lon="11.332906164028165"><ele>35.0</ele><time>2026-03-28T17:52:37.999Z</time></trkpt><trkpt lat="45.426552737410994" lon="11.333324047236333"><ele>35.0</ele><time>2026-03-28T17:52:38.999Z</time></trkpt><trkpt lat="45.42672959694352" lon="11.333740850611404"><ele>35.0</ele><time>2026-03-28T17:52:39.999Z</time></trkpt><trkpt lat="45.42690909925358" lon="11.33415774994497"><ele>35.0</ele><time>2026-03-28T17:52:41Z</time></trkpt><trkpt lat="45.42708504150005" lon="11.334574515083835"><ele>35.0</ele><time>2026-03-28T17:52:42Z</time></trkpt><trkpt lat="45.427265871372384" lon="11.334990826761526"><ele>35.0</ele><time>2026-03-28T17:52:43Z</time></trkpt><trkpt lat="45.427444946495406" lon="11.335407118586856"><ele>35.0</ele><time>2026-03-28T17:52:44Z</time></trkpt><trkpt lat="45.42762329682583" lon="11.33582332670242"><ele>34.5</ele><time>2026-03-28T17:52:45Z</time></trkpt><trkpt lat="45.42780194317862" lon="11.33624038409907"><ele>34.0</ele><time>2026-03-28T17:52:46Z</time></trkpt><trkpt lat="45.42798139669703" lon="11.336655941271033"><ele>34.0</ele><time>2026-03-28T17:52:47Z</time></trkpt><trkpt lat="45.4281610452406" lon="11.337071419446053"><ele>34.0</ele><time>2026-03-28T17:52:48Z</time></trkpt><trkpt lat="45.42834006254531" lon="11.337488282201257"><ele>34.0</ele><time>2026-03-28T17:52:49Z</time></trkpt><trkpt lat="45.42851940710265" lon="11.33790277656724"><ele>34.0</ele><time>2026-03-28T17:52:50Z</time></trkpt><trkpt lat="45.428696321089774" lon="11.338316863739067"><ele>34.5</ele><time>2026-03-28T17:52:51Z</time></trkpt><trkpt lat="45.4288742301745" lon="11.338731535020772"><ele>35.0</ele><time>2026-03-28T17:52:52Z</time></trkpt><trkpt lat="45.42905171230356" lon="11.339146109724702"><ele>35.0</ele><time>2026-03-28T17:52:53Z</time></trkpt><trkpt lat="45.42922867856661" lon="11.339561485476706"><ele>35.0</ele><time>2026-03-28T17:52:54Z</time></trkpt><trkpt lat="45.42940452111793" lon="11.339978403031157"><ele>35.0</ele><time>2026-03-28T17:52:55Z</time></trkpt><trkpt lat="45.42957982678737" lon="11.340395162519766"><ele>35.0</ele><time>2026-03-28T17:52:56Z</time></trkpt><trkpt lat="45.42975657837734" lon="11.340809791565698"><ele>35.0</ele><time>2026-03-28T17:52:57Z</time></trkpt><trkpt lat="45.4299331507377" lon="11.34122765296029"><ele>35.0</ele><time>2026-03-28T17:52:58Z</time></trkpt><trkpt lat="45.4301085269009" lon="11.341644711088616"><ele>34.5</ele><time>2026-03-28T17:52:59Z</time></trkpt><trkpt lat="45.43028595317238" lon="11.342061800433134"><ele>34.0</ele><time>2026-03-28T17:53:00Z</time></trkpt><trkpt lat="45.43046517707086" lon="11.342478827212718"><ele>34.5</ele><time>2026-03-28T17:53:01Z</time></trkpt><trkpt lat="45.43064224542541" lon="11.342894889049061"><ele>35.0</ele><time>2026-03-28T17:53:02Z</time></trkpt><trkpt lat="45.430820397761686" lon="11.34331034849936"><ele>35.5</ele><time>2026-03-28T17:53:03Z</time></trkpt><trkpt lat="45.431001063326406" lon="11.343723752903767"><ele>36.0</ele><time>2026-03-28T17:53:04Z</time></trkpt><trkpt lat="45.4311810682252" lon="11.344137533973544"><ele>34.5</ele><time>2026-03-28T17:53:05Z</time></trkpt><trkpt lat="45.43135948225879" lon="11.344551578162164"><ele>33.0</ele><time>2026-03-28T17:53:06Z</time></trkpt><trkpt lat="45.431536463432614" lon="11.344967958575921"><ele>33.0</ele><time>2026-03-28T17:53:07Z</time></trkpt><trkpt lat="45.43171483996769" lon="11.345384614704122"><ele>33.0</ele><time>2026-03-28T17:53:08Z</time></trkpt><trkpt lat="45.431891993252016" lon="11.345799755298016"><ele>34.5</ele><time>2026-03-28T17:53:09Z</time></trkpt><trkpt lat="45.43207100126611" lon="11.346216051065214"><ele>36.0</ele><time>2026-03-28T17:53:10Z</time></trkpt><trkpt lat="45.432245416666426" lon="11.34663183573926"><ele>36.0</ele><time>2026-03-28T17:53:11Z</time></trkpt><trkpt lat="45.432425274939824" lon="11.347046620639839"><ele>36.0</ele><time>2026-03-28T17:53:12Z</time></trkpt><trkpt lat="45.43260592126212" lon="11.34746329400022"><ele>36.0</ele><time>2026-03-28T17:53:13Z</time></trkpt><trkpt lat="45.43278726879453" lon="11.347878470622973"><ele>36.0</ele><time>2026-03-28T17:53:14Z</time></trkpt><trkpt lat="45.43296673766381" lon="11.348292788998892"><ele>36.5</ele><time>2026-03-28T17:53:15Z</time></trkpt><trkpt lat="45.433146853587004" lon="11.348708318159884"><ele>37.0</ele><time>2026-03-28T17:53:16Z</time></trkpt><trkpt lat="45.43332502885761" lon="11.349124675654975"><ele>37.0</ele><time>2026-03-28T17:53:17Z</time></trkpt><trkpt lat="45.4335020022437" lon="11.349540326334838"><ele>37.0</ele><time>2026-03-28T17:53:18Z</time></trkpt><trkpt lat="45.433682443505965" lon="11.349956053701355"><ele>37.0</ele><time>2026-03-28T17:53:19Z</time></trkpt><trkpt lat="45.43386178797174" lon="11.350372089874282"><ele>37.0</ele><time>2026-03-28T17:53:20Z</time></trkpt><trkpt lat="45.43404151702828" lon="11.35078787309753"><ele>37.0</ele><time>2026-03-28T17:53:21Z</time></trkpt><trkpt lat="45.434220109648564" lon="11.351204355205851"><ele>37.0</ele><time>2026-03-28T17:53:22Z</time></trkpt><trkpt lat="45.43440153287014" lon="11.351620459240882"><ele>36.5</ele><time>2026-03-28T17:53:23Z</time></trkpt><trkpt lat="45.43457957868991" lon="11.35203636273011"><ele>36.0</ele><time>2026-03-28T17:53:24Z</time></trkpt><trkpt lat="45.43475780172344" lon="11.352452959739043"><ele>36.0</ele><time>2026-03-28T17:53:25Z</time></trkpt><trkpt lat="45.43493413978428" lon="11.352869202424348"><ele>36.0</ele><time>2026-03-28T17:53:26Z</time></trkpt><trkpt lat="45.43510978705748" lon="11.353286915791243"><ele>36.0</ele><time>2026-03-28T17:53:27Z</time></trkpt><trkpt lat="45.43528861932437" lon="11.353702470846237"><ele>36.0</ele><time>2026-03-28T17:53:28Z</time></trkpt><trkpt lat="45.43546779995348" lon="11.354118102782444"><ele>36.5</ele><time>2026-03-28T17:53:29Z</time></trkpt><trkpt lat="45.43564761440903" lon="11.354533320903531"><ele>37.0</ele><time>2026-03-28T17:53:30Z</time></trkpt><trkpt lat="45.43582968603118" lon="11.354946920711093"><ele>38.5</ele><time>2026-03-28T17:53:31Z</time></trkpt><trkpt lat="45.43600994726606" lon="11.355361549138813"><ele>40.0</ele><time>2026-03-28T17:53:32Z</time></trkpt><trkpt lat="45.43619067746035" lon="11.355777572120976"><ele>39.0</ele><time>2026-03-28T17:53:33Z</time></trkpt><trkpt lat="45.436368594291054" lon="11.356199152856924"><ele>38.0</ele><time>2026-03-28T17:53:34Z</time></trkpt><trkpt lat="45.43654896236189" lon="11.35661593856035"><ele>38.0</ele><time>2026-03-28T17:53:35Z</time></trkpt><trkpt lat="45.43672575565495" lon="11.357033171365787"><ele>38.0</ele><time>2026-03-28T17:53:36Z</time></trkpt><trkpt lat="45.4369045228668" lon="11.357450329574423"><ele>38.0</ele><time>2026-03-28T17:53:37Z</time></trkpt><trkpt lat="45.4370826005722" lon="11.35786738651948"><ele>38.0</ele><time>2026-03-28T17:53:38Z</time></trkpt><trkpt lat="45.43725969826193" lon="11.358283576150598"><ele>38.0</ele><time>2026-03-28T17:53:39Z</time></trkpt><trkpt lat="45.43743901779677" lon="11.358701175836199"><ele>38.0</ele><time>2026-03-28T17:53:40Z</time></trkpt><trkpt lat="45.43761862805148" lon="11.35911920788179"><ele>38.0</ele><time>2026-03-28T17:53:41Z</time></trkpt><trkpt lat="45.43779811868927" lon="11.359538034000932"><ele>38.0</ele><time>2026-03-28T17:53:42Z</time></trkpt><trkpt lat="45.437977142070395" lon="11.359956037763686"><ele>38.0</ele><time>2026-03-28T17:53:43Z</time></trkpt><trkpt lat="45.43815378169306" lon="11.360373249443663"><ele>38.0</ele><time>2026-03-28T17:53:44Z</time></trkpt><trkpt lat="45.43833283947487" lon="11.360791425045447"><ele>37.5</ele><time>2026-03-28T17:53:45Z</time></trkpt><trkpt lat="45.438513413995835" lon="11.36120800049149"><ele>37.0</ele><time>2026-03-28T17:53:46Z</time></trkpt><trkpt lat="45.43869431704849" lon="11.361623423507309"><ele>37.5</ele><time>2026-03-28T17:53:47Z</time></trkpt><trkpt lat="45.438869397507325" lon="11.362030986798407"><ele>38.0</ele><time>2026-03-28T17:53:48Z</time></trkpt><trkpt lat="45.43903946094443" lon="11.362434805580541"><ele>38.0</ele><time>2026-03-28T17:53:49Z</time></trkpt><trkpt lat="45.439204011367266" lon="11.362837117266603"><ele>38.0</ele><time>2026-03-28T17:53:50Z</time></trkpt><trkpt lat="45.439361985414024" lon="11.363240843878286"><ele>38.0</ele><time>2026-03-28T17:53:51Z</time></trkpt><trkpt lat="45.439515742205884" lon="11.363648811403499"><ele>38.0</ele><time>2026-03-28T17:53:52Z</time></trkpt><trkpt lat="45.43966383167256" lon="11.364064973182998"><ele>39.5</ele><time>2026-03-28T17:53:53Z</time></trkpt><trkpt lat="45.43980646424637" lon="11.364485650758537"><ele>41.0</ele><time>2026-03-28T17:53:54Z</time></trkpt><trkpt lat="45.43994383812782" lon="11.364912995539552"><ele>41.0</ele><time>2026-03-28T17:53:55Z</time></trkpt><trkpt lat="45.44007523512311" lon="11.365344423591228"><ele>41.0</ele><time>2026-03-28T17:53:56Z</time></trkpt><trkpt lat="45.440201777662246" lon="11.365774609708089"><ele>40.5</ele><time>2026-03-28T17:53:57Z</time></trkpt><trkpt lat="45.44032138533427" lon="11.36620922245331"><ele>40.0</ele><time>2026-03-28T17:53:58Z</time></trkpt><trkpt lat="45.44043282781558" lon="11.366640304519054"><ele>41.0</ele><time>2026-03-28T17:53:59Z</time></trkpt><trkpt lat="45.44053782331007" lon="11.367070702209318"><ele>42.0</ele><time>2026-03-28T17:54:00Z</time></trkpt><trkpt lat="45.44064193346816" lon="11.367498289547974"><ele>42.0</ele><time>2026-03-28T17:54:01Z</time></trkpt><trkpt lat="45.440745675675416" lon="11.367924223951634"><ele>42.0</ele><time>2026-03-28T17:54:02Z</time></trkpt><trkpt lat="45.44085324416717" lon="11.368352294866765"><ele>42.0</ele><time>2026-03-28T17:54:03Z</time></trkpt><trkpt lat="45.4409605608694" lon="11.368778321257892"><ele>42.0</ele><time>2026-03-28T17:54:04Z</time></trkpt><trkpt lat="45.441066128804614" lon="11.369203252560876"><ele>41.5</ele><time>2026-03-28T17:54:05Z</time></trkpt><trkpt lat="45.4411733552058" lon="11.36963215754515"><ele>41.0</ele><time>2026-03-28T17:54:06Z</time></trkpt><trkpt lat="45.44128233156892" lon="11.370065575591141"><ele>41.5</ele><time>2026-03-28T17:54:07Z</time></trkpt><trkpt lat="45.44139104107364" lon="11.370499376463599"><ele>42.0</ele><time>2026-03-28T17:54:08Z</time></trkpt><trkpt lat="45.44150463871313" lon="11.370930569560578"><ele>41.5</ele><time>2026-03-28T17:54:09Z</time></trkpt><trkpt lat="45.4416243898913" lon="11.37136183989528"><ele>41.0</ele><time>2026-03-28T17:54:10Z</time></trkpt><trkpt lat="45.44174393894865" lon="11.371787238405803"><ele>40.0</ele><time>2026-03-28T17:54:11Z</time></trkpt><trkpt lat="45.44186440075716" lon="11.372197507613183"><ele>39.0</ele><time>2026-03-28T17:54:12Z</time></trkpt><trkpt lat="45.441982184798455" lon="11.372604318075133"><ele>39.0</ele><time>2026-03-28T17:54:13Z</time></trkpt><trkpt lat="45.44210548737988" lon="11.37300091047355"><ele>39.0</ele><time>2026-03-28T17:54:13.999Z</time></trkpt><trkpt lat="45.44223923297189" lon="11.373399176194079"><ele>41.0</ele><time>2026-03-28T17:54:14.999Z</time></trkpt><trkpt lat="45.44238236506093" lon="11.373797587092152"><ele>43.0</ele><time>2026-03-28T17:54:15.999Z</time></trkpt><trkpt lat="45.44253432657855" lon="11.374200741356997"><ele>43.0</ele><time>2026-03-28T17:54:16.999Z</time></trkpt><trkpt lat="45.442695668432314" lon="11.374602399275753"><ele>43.0</ele><time>2026-03-28T17:54:17.999Z</time></trkpt><trkpt lat="45.442860833439305" lon="11.375001722032115"><ele>43.5</ele><time>2026-03-28T17:54:18.999Z</time></trkpt><trkpt lat="45.443032888691334" lon="11.37540169715729"><ele>44.0</ele><time>2026-03-28T17:54:19.999Z</time></trkpt><trkpt lat="45.44321133818104" lon="11.375796633331385"><ele>44.0</ele><time>2026-03-28T17:54:20.999Z</time></trkpt><trkpt lat="45.44339675749684" lon="11.376184248580971"><ele>44.0</ele><time>2026-03-28T17:54:21.999Z</time></trkpt><trkpt lat="45.44358566477521" lon="11.376566473164617"><ele>44.0</ele><time>2026-03-28T17:54:22.999Z</time></trkpt><trkpt lat="45.44377669381649" lon="11.376945909520648"><ele>44.0</ele><time>2026-03-28T17:54:23.999Z</time></trkpt><trkpt lat="45.443967853049884" lon="11.377322947806524"><ele>44.5</ele><time>2026-03-28T17:54:24.999Z</time></trkpt><trkpt lat="45.444171862129245" lon="11.377693948552322"><ele>45.0</ele><time>2026-03-28T17:54:25.999Z</time></trkpt><trkpt lat="45.444377865625874" lon="11.378062562015183"><ele>45.0</ele><time>2026-03-28T17:54:26.999Z</time></trkpt><trkpt lat="45.44459056621257" lon="11.378422950813308"><ele>45.0</ele><time>2026-03-28T17:54:27.999Z</time></trkpt><trkpt lat="45.44480852726936" lon="11.378780969099815"><ele>44.0</ele><time>2026-03-28T17:54:28.999Z</time></trkpt><trkpt lat="45.445031908547115" lon="11.37913475816149"><ele>43.0</ele><time>2026-03-28T17:54:29.999Z</time></trkpt><trkpt lat="45.44525901963582" lon="11.379480803010557"><ele>44.0</ele><time>2026-03-28T17:54:30.999Z</time></trkpt><trkpt lat="45.44548972270624" lon="11.37981380558891"><ele>45.0</ele><time>2026-03-28T17:54:31.999Z</time></trkpt><trkpt lat="45.44571246182463" lon="11.380126592763009"><ele>45.0</ele><time>2026-03-28T17:54:32.999Z</time></trkpt><trkpt lat="45.44592947624628" lon="11.38043478752058"><ele>45.0</ele><time>2026-03-28T17:54:33.999Z</time></trkpt><trkpt lat="45.446150092912575" lon="11.380745734121538"><ele>45.5</ele><time>2026-03-28T17:54:34.999Z</time></trkpt><trkpt lat="45.44637856038178" lon="11.381056481120606"><ele>46.0</ele><time>2026-03-28T17:54:35.999Z</time></trkpt><trkpt lat="45.44661434085019" lon="11.381369355481848"><ele>46.0</ele><time>2026-03-28T17:54:36.999Z</time></trkpt><trkpt lat="45.44685304919875" lon="11.381684117314046"><ele>46.0</ele><time>2026-03-28T17:54:37.999Z</time></trkpt><trkpt lat="45.447097979803424" lon="11.38199840299803"><ele>46.0</ele><time>2026-03-28T17:54:38.999Z</time></trkpt><trkpt lat="45.44734924917989" lon="11.38230994262806"><ele>46.0</ele><time>2026-03-28T17:54:39.999Z</time></trkpt><trkpt lat="45.447596427188614" lon="11.382618654067945"><ele>46.0</ele><time>2026-03-28T17:54:40.999Z</time></trkpt><trkpt lat="45.44783993510742" lon="11.382921488341353"><ele>46.0</ele><time>2026-03-28T17:54:41.999Z</time></trkpt><trkpt lat="45.448074231843734" lon="11.38322221908336"><ele>46.0</ele><time>2026-03-28T17:54:42.999Z</time></trkpt><trkpt lat="45.448305349414895" lon="11.383514932304738"><ele>46.0</ele><time>2026-03-28T17:54:43.999Z</time></trkpt><trkpt lat="45.448538348782684" lon="11.383802162715629"><ele>45.5</ele><time>2026-03-28T17:54:44.999Z</time></trkpt><trkpt lat="45.44877527720676" lon="11.38409897615289"><ele>45.0</ele><time>2026-03-28T17:54:45.999Z</time></trkpt><trkpt lat="45.44901134681208" lon="11.384402824384047"><ele>44.5</ele><time>2026-03-28T17:54:47Z</time></trkpt><trkpt lat="45.44925215440249" lon="11.384710089717009"><ele>44.0</ele><time>2026-03-28T17:54:48Z</time></trkpt><trkpt lat="45.449492405856425" lon="11.385020618667092"><ele>45.0</ele><time>2026-03-28T17:54:49Z</time></trkpt><trkpt lat="45.449733658111946" lon="11.385337120119003"><ele>46.0</ele><time>2026-03-28T17:54:50Z</time></trkpt><trkpt lat="45.44997915776025" lon="11.38565774599201"><ele>46.5</ele><time>2026-03-28T17:54:51Z</time></trkpt><trkpt lat="45.45022292181702" lon="11.385980050680798"><ele>47.0</ele><time>2026-03-28T17:54:52Z</time></trkpt><trkpt lat="45.450470014546426" lon="11.386305508377852"><ele>47.0</ele><time>2026-03-28T17:54:53Z</time></trkpt><trkpt lat="45.45071772284482" lon="11.38662907432463"><ele>47.0</ele><time>2026-03-28T17:54:54Z</time></trkpt><trkpt lat="45.45096606982427" lon="11.386959074034266"><ele>47.0</ele><time>2026-03-28T17:54:55Z</time></trkpt><trkpt lat="45.45121670731291" lon="11.387299030479276"><ele>47.0</ele><time>2026-03-28T17:54:56Z</time></trkpt><trkpt lat="45.45146161095734" lon="11.387647701712938"><ele>47.0</ele><time>2026-03-28T17:54:57Z</time></trkpt><trkpt lat="45.45170402024657" lon="11.388000347501741"><ele>47.0</ele><time>2026-03-28T17:54:58Z</time></trkpt><trkpt lat="45.451940542493745" lon="11.388359454311761"><ele>48.0</ele><time>2026-03-28T17:54:59Z</time></trkpt><trkpt lat="45.4521710145121" lon="11.388723761763906"><ele>49.0</ele><time>2026-03-28T17:55:00Z</time></trkpt><trkpt lat="45.45239383351113" lon="11.38909429607538"><ele>49.0</ele><time>2026-03-28T17:55:01Z</time></trkpt><trkpt lat="45.45261970358504" lon="11.389469331595615"><ele>49.0</ele><time>2026-03-28T17:55:02Z</time></trkpt><trkpt lat="45.45282988677572" lon="11.389850186624813"><ele>49.5</ele><time>2026-03-28T17:55:03Z</time></trkpt><trkpt lat="45.4530362791665" lon="11.390235569472509"><ele>50.0</ele><time>2026-03-28T17:55:04Z</time></trkpt><trkpt lat="45.45323834826895" lon="11.390626171267254"><ele>50.5</ele><time>2026-03-28T17:55:05Z</time></trkpt><trkpt lat="45.453436317130645" lon="11.391021798896587"><ele>51.0</ele><time>2026-03-28T17:55:06Z</time></trkpt><trkpt lat="45.45362786230401" lon="11.39142116490132"><ele>51.5</ele><time>2026-03-28T17:55:07Z</time></trkpt><trkpt lat="45.453814263812184" lon="11.391830977097106"><ele>52.0</ele><time>2026-03-28T17:55:08Z</time></trkpt><trkpt lat="45.45399384974413" lon="11.392243335275618"><ele>51.0</ele><time>2026-03-28T17:55:09Z</time></trkpt><trkpt lat="45.45416483036761" lon="11.392659556865016"><ele>50.0</ele><time>2026-03-28T17:55:10Z</time></trkpt><trkpt lat="45.45433311056741" lon="11.393080945792418"><ele>50.0</ele><time>2026-03-28T17:55:11Z</time></trkpt><trkpt lat="45.45449930192989" lon="11.393503651982531"><ele>50.0</ele><time>2026-03-28T17:55:12Z</time></trkpt><trkpt lat="45.45466313070652" lon="11.393926720400072"><ele>50.0</ele><time>2026-03-28T17:55:13Z</time></trkpt><trkpt lat="45.454828969960836" lon="11.394350509187912"><ele>50.0</ele><time>2026-03-28T17:55:14Z</time></trkpt><trkpt lat="45.45499822797899" lon="11.394774962067533"><ele>49.5</ele><time>2026-03-28T17:55:15Z</time></trkpt><trkpt lat="45.455168055522265" lon="11.39519570208594"><ele>49.0</ele><time>2026-03-28T17:55:16Z</time></trkpt><trkpt lat="45.455341175035436" lon="11.395613117908223"><ele>51.0</ele><time>2026-03-28T17:55:17Z</time></trkpt><trkpt lat="45.4555248728666" lon="11.396023491383431"><ele>53.0</ele><time>2026-03-28T17:55:18Z</time></trkpt><trkpt lat="45.45571215115517" lon="11.396430294853698"><ele>53.5</ele><time>2026-03-28T17:55:19Z</time></trkpt><trkpt lat="45.455904145402485" lon="11.396834503568906"><ele>54.0</ele><time>2026-03-28T17:55:20Z</time></trkpt><trkpt lat="45.45610186793611" lon="11.397231862452982"><ele>53.5</ele><time>2026-03-28T17:55:21Z</time></trkpt><trkpt lat="45.45630755401131" lon="11.397623358679342"><ele>53.0</ele><time>2026-03-28T17:55:22Z</time></trkpt><trkpt lat="45.45651453612327" lon="11.398010385598772"><ele>53.0</ele><time>2026-03-28T17:55:23Z</time></trkpt><trkpt lat="45.45672864732506" lon="11.398391764757244"><ele>53.0</ele><time>2026-03-28T17:55:24Z</time></trkpt><trkpt lat="45.45694786924445" lon="11.398767665657866"><ele>54.0</ele><time>2026-03-28T17:55:25Z</time></trkpt><trkpt lat="45.45716931117785" lon="11.399135829808866"><ele>55.0</ele><time>2026-03-28T17:55:26Z</time></trkpt><trkpt lat="45.45739770279827" lon="11.399496706736693"><ele>56.0</ele><time>2026-03-28T17:55:27Z</time></trkpt><trkpt lat="45.45763173073212" lon="11.39985359398526"><ele>57.0</ele><time>2026-03-28T17:55:28Z</time></trkpt><trkpt lat="45.457873032855865" lon="11.400205137806436"><ele>58.0</ele><time>2026-03-28T17:55:29Z</time></trkpt><trkpt lat="45.45811851452256" lon="11.400547376791184"><ele>59.0</ele><time>2026-03-28T17:55:30Z</time></trkpt><trkpt lat="45.45837047511373" lon="11.400884490770006"><ele>59.0</ele><time>2026-03-28T17:55:31Z</time></trkpt><trkpt lat="45.45862412262509" lon="11.401217955945608"><ele>59.0</ele><time>2026-03-28T17:55:32Z</time></trkpt><trkpt lat="45.45888245779431" lon="11.401546272497926"><ele>57.5</ele><time>2026-03-28T17:55:33Z</time></trkpt><trkpt lat="45.45914095396001" lon="11.401870668366938"><ele>56.0</ele><time>2026-03-28T17:55:34Z</time></trkpt><trkpt lat="45.45940524571487" lon="11.402185464019121"><ele>56.0</ele><time>2026-03-28T17:55:35Z</time></trkpt><trkpt lat="45.4596700675203" lon="11.402498634108607"><ele>56.0</ele><time>2026-03-28T17:55:36Z</time></trkpt><trkpt lat="45.45993305795632" lon="11.40281272976055"><ele>56.0</ele><time>2026-03-28T17:55:37Z</time></trkpt><trkpt lat="45.46019661270785" lon="11.403125342355615"><ele>56.0</ele><time>2026-03-28T17:55:38Z</time></trkpt><trkpt lat="45.46045909512732" lon="11.403439274937474"><ele>56.0</ele><time>2026-03-28T17:55:39Z</time></trkpt><trkpt lat="45.46072148558908" lon="11.403754908788722"><ele>56.0</ele><time>2026-03-28T17:55:40Z</time></trkpt><trkpt lat="45.460984507636304" lon="11.404071152193898"><ele>56.0</ele><time>2026-03-28T17:55:41Z</time></trkpt><trkpt lat="45.46124892014475" lon="11.404386870883704"><ele>56.0</ele><time>2026-03-28T17:55:42Z</time></trkpt><trkpt lat="45.461511328590305" lon="11.404701282349636"><ele>55.0</ele><time>2026-03-28T17:55:43Z</time></trkpt><trkpt lat="45.46177572109961" lon="11.405015741482426"><ele>54.0</ele><time>2026-03-28T17:55:44Z</time></trkpt><trkpt lat="45.46203649789142" lon="11.405330068919085"><ele>54.0</ele><time>2026-03-28T17:55:45Z</time></trkpt><trkpt lat="45.46229968837107" lon="11.405645388922185"><ele>54.0</ele><time>2026-03-28T17:55:46Z</time></trkpt><trkpt lat="45.46256010949798" lon="11.405962069247446"><ele>54.0</ele><time>2026-03-28T17:55:47Z</time></trkpt><trkpt lat="45.462819265086985" lon="11.406282516343325"><ele>54.0</ele><time>2026-03-28T17:55:48Z</time></trkpt><trkpt lat="45.46307427438248" lon="11.406609131613886"><ele>54.0</ele><time>2026-03-28T17:55:49Z</time></trkpt><trkpt lat="45.46332597985054" lon="11.40694083107903"><ele>54.0</ele><time>2026-03-28T17:55:50Z</time></trkpt><trkpt lat="45.463571793952816" lon="11.40728248743282"><ele>53.0</ele><time>2026-03-28T17:55:51Z</time></trkpt><trkpt lat="45.463813570456864" lon="11.407629164758712"><ele>52.0</ele><time>2026-03-28T17:55:52Z</time></trkpt><trkpt lat="45.46405232138551" lon="11.407976887684566"><ele>52.0</ele><time>2026-03-28T17:55:53Z</time></trkpt><trkpt lat="45.46429124827676" lon="11.408327914249792"><ele>52.0</ele><time>2026-03-28T17:55:54Z</time></trkpt><trkpt lat="45.4645306315932" lon="11.408675654047617"><ele>51.0</ele><time>2026-03-28T17:55:55Z</time></trkpt><trkpt lat="45.46477265968627" lon="11.409022279813676"><ele>50.0</ele><time>2026-03-28T17:55:56Z</time></trkpt><trkpt lat="45.465014576346036" lon="11.409369480432778"><ele>50.0</ele><time>2026-03-28T17:55:57Z</time></trkpt><trkpt lat="45.46525390428854" lon="11.409716965378777"><ele>50.0</ele><time>2026-03-28T17:55:58Z</time></trkpt><trkpt lat="45.46549528979502" lon="11.410064775074282"><ele>50.5</ele><time>2026-03-28T17:55:59Z</time></trkpt><trkpt lat="45.46573313527091" lon="11.41041317105689"><ele>51.0</ele><time>2026-03-28T17:56:00Z</time></trkpt><trkpt lat="45.465970842039965" lon="11.410762376743492"><ele>51.0</ele><time>2026-03-28T17:56:01Z</time></trkpt><trkpt lat="45.46620927485799" lon="11.411110973519223"><ele>51.0</ele><time>2026-03-28T17:56:02Z</time></trkpt><trkpt lat="45.46644957125149" lon="11.411459668279482"><ele>52.0</ele><time>2026-03-28T17:56:03Z</time></trkpt><trkpt lat="45.466689744922775" lon="11.41180771797671"><ele>53.0</ele><time>2026-03-28T17:56:04Z</time></trkpt><trkpt lat="45.466927880497224" lon="11.412155671079503"><ele>51.0</ele><time>2026-03-28T17:56:05Z</time></trkpt><trkpt lat="45.46716647018749" lon="11.412504720692016"><ele>49.0</ele><time>2026-03-28T17:56:06Z</time></trkpt><trkpt lat="45.46740570259483" lon="11.412853777154409"><ele>50.0</ele><time>2026-03-28T17:56:07Z</time></trkpt><trkpt lat="45.467644633404774" lon="11.413202924816064"><ele>51.0</ele><time>2026-03-28T17:56:08Z</time></trkpt><trkpt lat="45.46788193659017" lon="11.413553106921887"><ele>49.5</ele><time>2026-03-28T17:56:09Z</time></trkpt><trkpt lat="45.46812230676249" lon="11.41390192525834"><ele>48.0</ele><time>2026-03-28T17:56:10Z</time></trkpt><trkpt lat="45.46835853561976" lon="11.414250950010773"><ele>48.0</ele><time>2026-03-28T17:56:11Z</time></trkpt><trkpt lat="45.46858604923236" lon="11.414590921999407"><ele>48.0</ele><time>2026-03-28T17:56:12Z</time></trkpt><trkpt lat="45.46880849872848" lon="11.414927245073867"><ele>48.0</ele><time>2026-03-28T17:56:13Z</time></trkpt><trkpt lat="45.46902432100678" lon="11.41525972244198"><ele>48.0</ele><time>2026-03-28T17:56:14Z</time></trkpt><trkpt lat="45.469236698009894" lon="11.415588410685595"><ele>49.0</ele><time>2026-03-28T17:56:15Z</time></trkpt><trkpt lat="45.469442700664985" lon="11.415911345954983"><ele>50.0</ele><time>2026-03-28T17:56:16Z</time></trkpt><trkpt lat="45.46964371246716" lon="11.416227863693631"><ele>50.5</ele><time>2026-03-28T17:56:17Z</time></trkpt><trkpt lat="45.46984071968782" lon="11.416538378678926"><ele>51.0</ele><time>2026-03-28T17:56:18Z</time></trkpt><trkpt lat="45.47003668687647" lon="11.416842081943567"><ele>51.0</ele><time>2026-03-28T17:56:19Z</time></trkpt><trkpt lat="45.47022752779787" lon="11.417139444177318"><ele>51.0</ele><time>2026-03-28T17:56:20Z</time></trkpt><trkpt lat="45.47041220987776" lon="11.417429860667394"><ele>51.5</ele><time>2026-03-28T17:56:20.999Z</time></trkpt><trkpt lat="45.47059277287755" lon="11.417714241559837"><ele>52.0</ele><time>2026-03-28T17:56:21.999Z</time></trkpt><trkpt lat="45.47076975077268" lon="11.417990722822093"><ele>52.5</ele><time>2026-03-28T17:56:22.999Z</time></trkpt><trkpt lat="45.470940999497046" lon="11.418258909511895"><ele>53.0</ele><time>2026-03-28T17:56:23.999Z</time></trkpt><trkpt lat="45.4711030034855" lon="11.418520219912299"><ele>53.0</ele><time>2026-03-28T17:56:24.999Z</time></trkpt><trkpt lat="45.47126218077952" lon="11.418780460851593"><ele>53.0</ele><time>2026-03-28T17:56:25.999Z</time></trkpt><trkpt lat="45.471415972684525" lon="11.419039382384181"><ele>54.5</ele><time>2026-03-28T17:56:26.999Z</time></trkpt><trkpt lat="45.47156855371236" lon="11.419291314001075"><ele>56.0</ele><time>2026-03-28T17:56:27.999Z</time></trkpt><trkpt lat="45.47172125519913" lon="11.419541960917368"><ele>54.5</ele><time>2026-03-28T17:56:28.999Z</time></trkpt><trkpt lat="45.471872918414455" lon="11.419795510653142"><ele>53.0</ele><time>2026-03-28T17:56:29.999Z</time></trkpt><trkpt lat="45.4720237994547" lon="11.420050788217456"><ele>54.0</ele><time>2026-03-28T17:56:30.999Z</time></trkpt><trkpt lat="45.47217604692995" lon="11.420306467124115"><ele>55.0</ele><time>2026-03-28T17:56:31.999Z</time></trkpt><trkpt lat="45.47232857424351" lon="11.420559852340485"><ele>55.5</ele><time>2026-03-28T17:56:32.999Z</time></trkpt><trkpt lat="45.472481241875165" lon="11.420815267765422"><ele>56.0</ele><time>2026-03-28T17:56:33.999Z</time></trkpt><trkpt lat="45.47263577760172" lon="11.421075648054371"><ele>56.0</ele><time>2026-03-28T17:56:34.999Z</time></trkpt><trkpt lat="45.472805789046866" lon="11.42131895878572"><ele>56.0</ele><time>2026-03-28T17:56:35.999Z</time></trkpt><trkpt lat="45.47296641057114" lon="11.421578136447858"><ele>56.0</ele><time>2026-03-28T17:56:36.999Z</time></trkpt><trkpt lat="45.47312721187336" lon="11.421837603666154"><ele>56.0</ele><time>2026-03-28T17:56:37.999Z</time></trkpt><trkpt lat="45.47328679405509" lon="11.422095395751768"><ele>53.0</ele><time>2026-03-28T17:56:38.999Z</time></trkpt><trkpt lat="45.47340107321805" lon="11.422408948703628"><ele>50.0</ele><time>2026-03-28T17:56:39.999Z</time></trkpt><trkpt lat="45.47355238907541" lon="11.422677300530736"><ele>50.0</ele><time>2026-03-28T17:56:40.999Z</time></trkpt><trkpt lat="45.47370268502056" lon="11.422944425039967"><ele>50.0</ele><time>2026-03-28T17:56:41.999Z</time></trkpt><trkpt lat="45.473850383967886" lon="11.423207944675514"><ele>51.5</ele><time>2026-03-28T17:56:42.999Z</time></trkpt><trkpt lat="45.47399522286123" lon="11.423467290826867"><ele>53.0</ele><time>2026-03-28T17:56:43.999Z</time></trkpt><trkpt lat="45.47413529296025" lon="11.423721460278246"><ele>51.66666666666667</ele><time>2026-03-28T17:56:44.999Z</time></trkpt><trkpt lat="45.47426888568155" lon="11.423966417023692"><ele>50.33333333333333</ele><time>2026-03-28T17:56:45.999Z</time></trkpt><trkpt lat="45.47440224874006" lon="11.42420620485802"><ele>49.0</ele><time>2026-03-28T17:56:46.999Z</time></trkpt><trkpt lat="45.47452997757929" lon="11.42444193128217"><ele>50.33333333333333</ele><time>2026-03-28T17:56:47.999Z</time></trkpt><trkpt lat="45.47465407175433" lon="11.424669448387531"><ele>51.66666666666667</ele><time>2026-03-28T17:56:48.999Z</time></trkpt><trkpt lat="45.47477603925219" lon="11.424886099753314"><ele>53.0</ele><time>2026-03-28T17:56:49.999Z</time></trkpt><trkpt lat="45.47489744294198" lon="11.42508408027476"><ele>53.0</ele><time>2026-03-28T17:56:50.999Z</time></trkpt><trkpt lat="45.475024971689535" lon="11.425264432710575"><ele>53.0</ele><time>2026-03-28T17:56:51.999Z</time></trkpt><trkpt lat="45.47515744934313" lon="11.425426942813683"><ele>53.0</ele><time>2026-03-28T17:56:53Z</time></trkpt><trkpt lat="45.47529659524155" lon="11.425570000247788"><ele>54.66666666666667</ele><time>2026-03-28T17:56:54Z</time></trkpt><trkpt lat="45.47544614351211" lon="11.425670557077622"><ele>56.33333333333333</ele><time>2026-03-28T17:56:55Z</time></trkpt><trkpt lat="45.47561411161549" lon="11.425739916219495"><ele>58.0</ele><time>2026-03-28T17:56:56Z</time></trkpt><trkpt lat="45.475781358394634" lon="11.425766021900227"><ele>58.0</ele><time>2026-03-28T17:56:57Z</time></trkpt><trkpt lat="45.475957337961916" lon="11.425751295052882"><ele>58.0</ele><time>2026-03-28T17:56:58Z</time></trkpt><trkpt lat="45.4761374142185" lon="11.425708686194376"><ele>58.0</ele><time>2026-03-28T17:56:59Z</time></trkpt><trkpt lat="45.476325336378785" lon="11.425647264531882"><ele>56.33333333333333</ele><time>2026-03-28T17:57:00Z</time></trkpt><trkpt lat="45.47652359238647" lon="11.42556950333887"><ele>54.66666666666667</ele><time>2026-03-28T17:57:01Z</time></trkpt><trkpt lat="45.47673278455584" lon="11.425486620650716"><ele>53.0</ele><time>2026-03-28T17:57:02Z</time></trkpt><trkpt lat="45.47694198281313" lon="11.425404195125283"><ele>51.333333333333336</ele><time>2026-03-28T17:57:03Z</time></trkpt><trkpt lat="45.47714881367843" lon="11.425322288022745"><ele>49.66666666666667</ele><time>2026-03-28T17:57:04Z</time></trkpt><trkpt lat="45.47735353423144" lon="11.425241557810274"><ele>48.0</ele><time>2026-03-28T17:57:05Z</time></trkpt><trkpt lat="45.477550594777064" lon="11.425162604603539"><ele>48.0</ele><time>2026-03-28T17:57:06Z</time></trkpt><trkpt lat="45.47775446120644" lon="11.425087712578337"><ele>48.0</ele><time>2026-03-28T17:57:07Z</time></trkpt><trkpt lat="45.477954731726165" lon="11.425009313873888"><ele>48.0</ele><time>2026-03-28T17:57:08Z</time></trkpt><trkpt lat="45.47816221877238" lon="11.424935141157713"><ele>48.0</ele><time>2026-03-28T17:57:09Z</time></trkpt><trkpt lat="45.47836876039483" lon="11.424866566215897"><ele>48.0</ele><time>2026-03-28T17:57:10Z</time></trkpt><trkpt lat="45.47857873375254" lon="11.424814956581038"><ele>48.0</ele><time>2026-03-28T17:57:11Z</time></trkpt><trkpt lat="45.478788172853676" lon="11.424790016642735"><ele>48.33333333333333</ele><time>2026-03-28T17:57:12Z</time></trkpt><trkpt lat="45.47900130871439" lon="11.42478500679133"><ele>48.666666666666664</ele><time>2026-03-28T17:57:13Z</time></trkpt><trkpt lat="45.47921793220425" lon="11.42481191560099"><ele>49.0</ele><time>2026-03-28T17:57:14Z</time></trkpt><trkpt lat="45.47943001825389" lon="11.424873205815821"><ele>49.33333333333333</ele><time>2026-03-28T17:57:15Z</time></trkpt><trkpt lat="45.47963765618736" lon="11.424967253853222"><ele>49.66666666666667</ele><time>2026-03-28T17:57:16Z</time></trkpt><trkpt lat="45.47984914642583" lon="11.425093182757385"><ele>50.0</ele><time>2026-03-28T17:57:17Z</time></trkpt><trkpt lat="45.48006420523148" lon="11.425241448216578"><ele>50.0</ele><time>2026-03-28T17:57:18Z</time></trkpt><trkpt lat="45.480285296776124" lon="11.425404836648584"><ele>50.0</ele><time>2026-03-28T17:57:19Z</time></trkpt><trkpt lat="45.48051315015376" lon="11.425582243437601"><ele>51.0</ele><time>2026-03-28T17:57:20Z</time></trkpt><trkpt lat="45.48074605874989" lon="11.425765504466868"><ele>52.0</ele><time>2026-03-28T17:57:21Z</time></trkpt><trkpt lat="45.480984503825375" lon="11.425952673514308"><ele>52.0</ele><time>2026-03-28T17:57:22Z</time></trkpt><trkpt lat="45.48122837952284" lon="11.426142666157668"><ele>52.0</ele><time>2026-03-28T17:57:23Z</time></trkpt><trkpt lat="45.48147654337475" lon="11.426326394735835"><ele>50.0</ele><time>2026-03-28T17:57:24Z</time></trkpt><trkpt lat="45.48172602168217" lon="11.42650018923"><ele>48.0</ele><time>2026-03-28T17:57:25Z</time></trkpt><trkpt lat="45.48197849317935" lon="11.426661119891637"><ele>50.0</ele><time>2026-03-28T17:57:26Z</time></trkpt><trkpt lat="45.482232699061235" lon="11.426797567627242"><ele>52.0</ele><time>2026-03-28T17:57:27Z</time></trkpt><trkpt lat="45.48247665236137" lon="11.426879496980296"><ele>52.0</ele><time>2026-03-28T17:57:28Z</time></trkpt><trkpt lat="45.48272211884904" lon="11.426916609269508"><ele>52.0</ele><time>2026-03-28T17:57:29Z</time></trkpt><trkpt lat="45.48296608572724" lon="11.426916603588854"><ele>51.0</ele><time>2026-03-28T17:57:30Z</time></trkpt><trkpt lat="45.483214256608996" lon="11.426881184016242"><ele>50.0</ele><time>2026-03-28T17:57:31Z</time></trkpt><trkpt lat="45.483457083255296" lon="11.426810718993666"><ele>50.0</ele><time>2026-03-28T17:57:32Z</time></trkpt><trkpt lat="45.483693460605075" lon="11.426702634208844"><ele>50.0</ele><time>2026-03-28T17:57:33Z</time></trkpt><trkpt lat="45.48392524398747" lon="11.426557053832381"><ele>50.0</ele><time>2026-03-28T17:57:34Z</time></trkpt><trkpt lat="45.484150427125904" lon="11.426375103410539"><ele>50.0</ele><time>2026-03-28T17:57:35Z</time></trkpt><trkpt lat="45.48436783101778" lon="11.426164478945141"><ele>50.0</ele><time>2026-03-28T17:57:36Z</time></trkpt><trkpt lat="45.48455564836926" lon="11.425924644419652"><ele>50.0</ele><time>2026-03-28T17:57:37Z</time></trkpt><trkpt lat="45.48472299732964" lon="11.425660520662568"><ele>50.5</ele><time>2026-03-28T17:57:38Z</time></trkpt><trkpt lat="45.484873956643234" lon="11.425357428195769"><ele>51.0</ele><time>2026-03-28T17:57:39Z</time></trkpt><trkpt lat="45.48499660548346" lon="11.425040363962474"><ele>51.0</ele><time>2026-03-28T17:57:40Z</time></trkpt><trkpt lat="45.48512380972257" lon="11.424709542077023"><ele>51.0</ele><time>2026-03-28T17:57:41Z</time></trkpt><trkpt lat="45.48526171982783" lon="11.424369188524944"><ele>50.5</ele><time>2026-03-28T17:57:42Z</time></trkpt><trkpt lat="45.48540981875243" lon="11.424022064423141"><ele>50.0</ele><time>2026-03-28T17:57:43Z</time></trkpt><trkpt lat="45.48556027121353" lon="11.4236538177072"><ele>50.0</ele><time>2026-03-28T17:57:44Z</time></trkpt><trkpt lat="45.48571659481399" lon="11.423295321795791"><ele>50.0</ele><time>2026-03-28T17:57:45Z</time></trkpt><trkpt lat="45.48588216671022" lon="11.42293070313438"><ele>51.5</ele><time>2026-03-28T17:57:46Z</time></trkpt><trkpt lat="45.48605272052414" lon="11.422585230267016"><ele>53.0</ele><time>2026-03-28T17:57:47Z</time></trkpt><trkpt lat="45.48623175861287" lon="11.422230746885706"><ele>54.5</ele><time>2026-03-28T17:57:48Z</time></trkpt><trkpt lat="45.48641908928336" lon="11.421881021900138"><ele>56.0</ele><time>2026-03-28T17:57:49Z</time></trkpt><trkpt lat="45.48661088683025" lon="11.42153124560898"><ele>54.0</ele><time>2026-03-28T17:57:50Z</time></trkpt><trkpt lat="45.486812363329584" lon="11.421188712174844"><ele>52.0</ele><time>2026-03-28T17:57:51Z</time></trkpt><trkpt lat="45.48702220664827" lon="11.420845402054876"><ele>54.0</ele><time>2026-03-28T17:57:52Z</time></trkpt><trkpt lat="45.48723150557182" lon="11.420500732997185"><ele>56.0</ele><time>2026-03-28T17:57:53Z</time></trkpt><trkpt lat="45.4874492111588" lon="11.420169098610215"><ele>56.0</ele><time>2026-03-28T17:57:54Z</time></trkpt><trkpt lat="45.48767015885179" lon="11.419837239654033"><ele>56.0</ele><time>2026-03-28T17:57:55Z</time></trkpt><trkpt lat="45.48789515640282" lon="11.419505052784132"><ele>56.0</ele><time>2026-03-28T17:57:56Z</time></trkpt><trkpt lat="45.48812320652448" lon="11.419170759153271"><ele>56.0</ele><time>2026-03-28T17:57:57Z</time></trkpt><trkpt lat="45.48835636089594" lon="11.418834850781744"><ele>55.5</ele><time>2026-03-28T17:57:58Z</time></trkpt><trkpt lat="45.48859211522155" lon="11.418496648662662"><ele>55.0</ele><time>2026-03-28T17:57:59Z</time></trkpt><trkpt lat="45.48882980185307" lon="11.418158527411391"><ele>57.0</ele><time>2026-03-28T17:58:00Z</time></trkpt><trkpt lat="45.48906725530244" lon="11.417812469419642"><ele>59.0</ele><time>2026-03-28T17:58:01Z</time></trkpt><trkpt lat="45.48930424060435" lon="11.41746635573429"><ele>59.0</ele><time>2026-03-28T17:58:02Z</time></trkpt><trkpt lat="45.48954177307969" lon="11.417121842518444"><ele>59.0</ele><time>2026-03-28T17:58:03Z</time></trkpt><trkpt lat="45.48978046567372" lon="11.416776597195858"><ele>59.0</ele><time>2026-03-28T17:58:04Z</time></trkpt><trkpt lat="45.49002099636594" lon="11.416431580926558"><ele>59.0</ele><time>2026-03-28T17:58:05Z</time></trkpt><trkpt lat="45.49026232504235" lon="11.4160858391523"><ele>58.0</ele><time>2026-03-28T17:58:06Z</time></trkpt><trkpt lat="45.49050492444128" lon="11.415741829369843"><ele>57.0</ele><time>2026-03-28T17:58:07Z</time></trkpt><trkpt lat="45.49074535982949" lon="11.41539463708161"><ele>57.0</ele><time>2026-03-28T17:58:08Z</time></trkpt><trkpt lat="45.490986658127234" lon="11.415050433667922"><ele>57.0</ele><time>2026-03-28T17:58:09Z</time></trkpt><trkpt lat="45.491225789973846" lon="11.414705006307823"><ele>56.5</ele><time>2026-03-28T17:58:10Z</time></trkpt><trkpt lat="45.491464168678384" lon="11.414355067115748"><ele>56.0</ele><time>2026-03-28T17:58:11Z</time></trkpt><trkpt lat="45.49170321746041" lon="11.41400767405295"><ele>56.0</ele><time>2026-03-28T17:58:12Z</time></trkpt><trkpt lat="45.49194422563686" lon="11.413660262497134"><ele>56.0</ele><time>2026-03-28T17:58:13Z</time></trkpt><trkpt lat="45.49218471106131" lon="11.413312280851217"><ele>57.0</ele><time>2026-03-28T17:58:14Z</time></trkpt><trkpt lat="45.4924272896117" lon="11.412966263182863"><ele>58.0</ele><time>2026-03-28T17:58:15Z</time></trkpt><trkpt lat="45.49267101202687" lon="11.412621907174469"><ele>58.0</ele><time>2026-03-28T17:58:16Z</time></trkpt><trkpt lat="45.49291362777168" lon="11.412276004836404"><ele>58.0</ele><time>2026-03-28T17:58:17Z</time></trkpt><trkpt lat="45.49315251482474" lon="11.411926787695332"><ele>58.0</ele><time>2026-03-28T17:58:17.999Z</time></trkpt><trkpt lat="45.4933900932067" lon="11.411574974588735"><ele>58.0</ele><time>2026-03-28T17:58:18.999Z</time></trkpt><trkpt lat="45.49363028914261" lon="11.41122889003693"><ele>58.0</ele><time>2026-03-28T17:58:19.999Z</time></trkpt><trkpt lat="45.4938693962909" lon="11.410878630427726"><ele>58.0</ele><time>2026-03-28T17:58:20.999Z</time></trkpt><trkpt lat="45.494104781338365" lon="11.410532389748136"><ele>58.5</ele><time>2026-03-28T17:58:21.999Z</time></trkpt><trkpt lat="45.49434545987693" lon="11.410183364226722"><ele>59.0</ele><time>2026-03-28T17:58:22.999Z</time></trkpt><trkpt lat="45.49458676922426" lon="11.409832726515305"><ele>60.5</ele><time>2026-03-28T17:58:23.999Z</time></trkpt><trkpt lat="45.49482753478649" lon="11.409485916280753"><ele>62.0</ele><time>2026-03-28T17:58:24.999Z</time></trkpt><trkpt lat="45.49506837248756" lon="11.409137110402906"><ele>61.0</ele><time>2026-03-28T17:58:25.999Z</time></trkpt><trkpt lat="45.495310448274815" lon="11.408789470341963"><ele>60.0</ele><time>2026-03-28T17:58:26.999Z</time></trkpt><trkpt lat="45.49555029781943" lon="11.408439623842067"><ele>60.0</ele><time>2026-03-28T17:58:27.999Z</time></trkpt><trkpt lat="45.49578496998543" lon="11.408082144624563"><ele>60.0</ele><time>2026-03-28T17:58:28.999Z</time></trkpt><trkpt lat="45.496008256738506" lon="11.407709767937066"><ele>59.5</ele><time>2026-03-28T17:58:29.999Z</time></trkpt><trkpt lat="45.49622108459538" lon="11.407328341084657"><ele>59.0</ele><time>2026-03-28T17:58:30.999Z</time></trkpt><trkpt lat="45.4964227947661" lon="11.406937349487963"><ele>60.5</ele><time>2026-03-28T17:58:31.999Z</time></trkpt><trkpt lat="45.496612750887124" lon="11.406532860563662"><ele>62.0</ele><time>2026-03-28T17:58:32.999Z</time></trkpt><trkpt lat="45.49679236400839" lon="11.406114928877512"><ele>62.5</ele><time>2026-03-28T17:58:33.999Z</time></trkpt><trkpt lat="45.496962652052616" lon="11.405693900237338"><ele>63.0</ele><time>2026-03-28T17:58:34.999Z</time></trkpt><trkpt lat="45.49712532808489" lon="11.405267149664839"><ele>63.5</ele><time>2026-03-28T17:58:35.999Z</time></trkpt><trkpt lat="45.497286888094834" lon="11.404838931276975"><ele>64.0</ele><time>2026-03-28T17:58:36.999Z</time></trkpt><trkpt lat="45.4974497953162" lon="11.404409884069187"><ele>66.0</ele><time>2026-03-28T17:58:37.999Z</time></trkpt><trkpt lat="45.49761350865106" lon="11.40398083358804"><ele>68.0</ele><time>2026-03-28T17:58:38.999Z</time></trkpt><trkpt lat="45.49777756309193" lon="11.403554267443614"><ele>68.0</ele><time>2026-03-28T17:58:39.999Z</time></trkpt><trkpt lat="45.49794127852509" lon="11.403125207157276"><ele>68.0</ele><time>2026-03-28T17:58:40.999Z</time></trkpt><trkpt lat="45.49810490002049" lon="11.402697286752877"><ele>67.5</ele><time>2026-03-28T17:58:41.999Z</time></trkpt><trkpt lat="45.49826711253409" lon="11.402266913550918"><ele>67.0</ele><time>2026-03-28T17:58:42.999Z</time></trkpt><trkpt lat="45.498429122131704" lon="11.401835158734864"><ele>67.0</ele><time>2026-03-28T17:58:43.999Z</time></trkpt><trkpt lat="45.49859421029293" lon="11.401407473060187"><ele>67.0</ele><time>2026-03-28T17:58:44.999Z</time></trkpt><trkpt lat="45.49875582225288" lon="11.400978067429673"><ele>66.0</ele><time>2026-03-28T17:58:45.999Z</time></trkpt><trkpt lat="45.498920752952564" lon="11.400549811541316"><ele>65.0</ele><time>2026-03-28T17:58:46.999Z</time></trkpt><trkpt lat="45.49908777794273" lon="11.400122454277478"><ele>65.0</ele><time>2026-03-28T17:58:47.999Z</time></trkpt><trkpt lat="45.49925845589804" lon="11.399697749327084"><ele>65.0</ele><time>2026-03-28T17:58:48.999Z</time></trkpt><trkpt lat="45.499436063007266" lon="11.399278883005184"><ele>65.0</ele><time>2026-03-28T17:58:49.999Z</time></trkpt><trkpt lat="45.49961849363781" lon="11.398863988183713"><ele>65.0</ele><time>2026-03-28T17:58:50.999Z</time></trkpt><trkpt lat="45.499808114501086" lon="11.398454125238365"><ele>64.5</ele><time>2026-03-28T17:58:51.999Z</time></trkpt><trkpt lat="45.50000946183788" lon="11.39805818067572"><ele>64.0</ele><time>2026-03-28T17:58:52.999Z</time></trkpt><trkpt lat="45.50022219065899" lon="11.397676290452978"><ele>65.5</ele><time>2026-03-28T17:58:53.999Z</time></trkpt><trkpt lat="45.50044771871507" lon="11.397310458145583"><ele>67.0</ele><time>2026-03-28T17:58:54.999Z</time></trkpt><trkpt lat="45.500682330695135" lon="11.396956593356661"><ele>67.5</ele><time>2026-03-28T17:58:55.999Z</time></trkpt><trkpt lat="45.500927883200205" lon="11.3966182179593"><ele>68.0</ele><time>2026-03-28T17:58:56.999Z</time></trkpt><trkpt lat="45.5011832920416" lon="11.396291130666153"><ele>69.0</ele><time>2026-03-28T17:58:57.999Z</time></trkpt><trkpt lat="45.50145023366938" lon="11.395980905932449"><ele>70.0</ele><time>2026-03-28T17:58:59Z</time></trkpt><trkpt lat="45.501721424030166" lon="11.39568600292888"><ele>69.5</ele><time>2026-03-28T17:59:00Z</time></trkpt><trkpt lat="45.50199895931393" lon="11.39540640554634"><ele>69.0</ele><time>2026-03-28T17:59:01Z</time></trkpt><trkpt lat="45.502289015976636" lon="11.395142936155631"><ele>69.0</ele><time>2026-03-28T17:59:02Z</time></trkpt><trkpt lat="45.50258139985822" lon="11.394886367782416"><ele>69.0</ele><time>2026-03-28T17:59:03Z</time></trkpt><trkpt lat="45.50287386895457" lon="11.394627518306981"><ele>68.0</ele><time>2026-03-28T17:59:04Z</time></trkpt><trkpt lat="45.50316502006359" lon="11.394369117910554"><ele>67.0</ele><time>2026-03-28T17:59:05Z</time></trkpt><trkpt lat="45.50345664436967" lon="11.394110739497458"><ele>67.5</ele><time>2026-03-28T17:59:06Z</time></trkpt><trkpt lat="45.50374853766454" lon="11.393852095271878"><ele>68.0</ele><time>2026-03-28T17:59:07Z</time></trkpt><trkpt lat="45.504039473573656" lon="11.393592464494029"><ele>68.5</ele><time>2026-03-28T17:59:08Z</time></trkpt><trkpt lat="45.50432998766282" lon="11.393332664100521"><ele>69.0</ele><time>2026-03-28T17:59:09Z</time></trkpt><trkpt lat="45.50462052529023" lon="11.393074562022065"><ele>70.0</ele><time>2026-03-28T17:59:10Z</time></trkpt><trkpt lat="45.504912308154026" lon="11.392816440592926"><ele>71.0</ele><time>2026-03-28T17:59:11Z</time></trkpt><trkpt lat="45.5052056585848" lon="11.39255948873831"><ele>70.5</ele><time>2026-03-28T17:59:12Z</time></trkpt><trkpt lat="45.50549804443466" lon="11.39229875288051"><ele>70.0</ele><time>2026-03-28T17:59:13Z</time></trkpt><trkpt lat="45.50578973217756" lon="11.392040311224475"><ele>70.0</ele><time>2026-03-28T17:59:14Z</time></trkpt><trkpt lat="45.50608114109509" lon="11.391780486319675"><ele>70.0</ele><time>2026-03-28T17:59:15Z</time></trkpt><trkpt lat="45.506372637882414" lon="11.39152259510044"><ele>71.5</ele><time>2026-03-28T17:59:16Z</time></trkpt><trkpt lat="45.50666451169063" lon="11.391262859451167"><ele>73.0</ele><time>2026-03-28T17:59:17Z</time></trkpt><trkpt lat="45.50695658164597" lon="11.391005539107125"><ele>72.5</ele><time>2026-03-28T17:59:18Z</time></trkpt><trkpt lat="45.50724619151208" lon="11.390746995923454"><ele>72.0</ele><time>2026-03-28T17:59:19Z</time></trkpt><trkpt lat="45.50753608304391" lon="11.39048537094936"><ele>73.5</ele><time>2026-03-28T17:59:20Z</time></trkpt><trkpt lat="45.50782742826735" lon="11.390226699046996"><ele>75.0</ele><time>2026-03-28T17:59:21Z</time></trkpt><trkpt lat="45.50812142133074" lon="11.389972602842018"><ele>75.0</ele><time>2026-03-28T17:59:22Z</time></trkpt><trkpt lat="45.50841895015481" lon="11.38972407873757"><ele>75.0</ele><time>2026-03-28T17:59:23Z</time></trkpt><trkpt lat="45.508720836443636" lon="11.389482727369547"><ele>76.0</ele><time>2026-03-28T17:59:24Z</time></trkpt><trkpt lat="45.50902477000243" lon="11.389249589055515"><ele>77.0</ele><time>2026-03-28T17:59:25Z</time></trkpt><trkpt lat="45.50933350224562" lon="11.38902785707739"><ele>78.0</ele><time>2026-03-28T17:59:26Z</time></trkpt><trkpt lat="45.50964578646492" lon="11.388820336257238"><ele>79.0</ele><time>2026-03-28T17:59:27Z</time></trkpt><trkpt lat="45.509965777558534" lon="11.388651877064957"><ele>79.0</ele><time>2026-03-28T17:59:28Z</time></trkpt><trkpt lat="45.51029019402078" lon="11.388498392623731"><ele>79.0</ele><time>2026-03-28T17:59:29Z</time></trkpt><trkpt lat="45.51062110388194" lon="11.388364934546198"><ele>79.5</ele><time>2026-03-28T17:59:30Z</time></trkpt><trkpt lat="45.510952281008635" lon="11.388244776625378"><ele>80.0</ele><time>2026-03-28T17:59:31Z</time></trkpt><trkpt lat="45.51128656606641" lon="11.388137486662439"><ele>80.0</ele><time>2026-03-28T17:59:32Z</time></trkpt><trkpt lat="45.5116232145678" lon="11.388045871985124"><ele>80.0</ele><time>2026-03-28T17:59:33Z</time></trkpt><trkpt lat="45.51196037603121" lon="11.387968784158861"><ele>79.5</ele><time>2026-03-28T17:59:34Z</time></trkpt><trkpt lat="45.51229887048783" lon="11.387896739754728"><ele>79.0</ele><time>2026-03-28T17:59:35Z</time></trkpt><trkpt lat="45.51263670291559" lon="11.387830469107346"><ele>79.0</ele><time>2026-03-28T17:59:36Z</time></trkpt><trkpt lat="45.51297659569553" lon="11.387764404897109"><ele>79.0</ele><time>2026-03-28T17:59:37Z</time></trkpt><trkpt lat="45.513316657592505" lon="11.387703165525105"><ele>79.0</ele><time>2026-03-28T17:59:38Z</time></trkpt><trkpt lat="45.51365968229875" lon="11.38763909169523"><ele>79.0</ele><time>2026-03-28T17:59:39Z</time></trkpt><trkpt lat="45.51399891489034" lon="11.387578057624257"><ele>79.5</ele><time>2026-03-28T17:59:40Z</time></trkpt><trkpt lat="45.51433994799987" lon="11.387514741910497"><ele>80.0</ele><time>2026-03-28T17:59:41Z</time></trkpt><trkpt lat="45.51468022788096" lon="11.387450966374542"><ele>80.0</ele><time>2026-03-28T17:59:42Z</time></trkpt><trkpt lat="45.51502091954892" lon="11.38738642941066"><ele>80.0</ele><time>2026-03-28T17:59:43Z</time></trkpt><trkpt lat="45.515361045568035" lon="11.3873215312523"><ele>81.0</ele><time>2026-03-28T17:59:44Z</time></trkpt><trkpt lat="45.51570132716714" lon="11.387259648592764"><ele>82.0</ele><time>2026-03-28T17:59:45Z</time></trkpt><trkpt lat="45.516043847530604" lon="11.387197859341688"><ele>81.5</ele><time>2026-03-28T17:59:46Z</time></trkpt><trkpt lat="45.51638474719793" lon="11.3871347265679"><ele>81.0</ele><time>2026-03-28T17:59:47Z</time></trkpt><trkpt lat="45.51672457842558" lon="11.387071755380699"><ele>81.0</ele><time>2026-03-28T17:59:48Z</time></trkpt><trkpt lat="45.517065112977825" lon="11.387007551592824"><ele>81.0</ele><time>2026-03-28T17:59:49Z</time></trkpt><trkpt lat="45.51740596549901" lon="11.386943282643854"><ele>81.5</ele><time>2026-03-28T17:59:50Z</time></trkpt><trkpt lat="45.517746243607476" lon="11.38687885298215"><ele>82.0</ele><time>2026-03-28T17:59:51Z</time></trkpt><trkpt lat="45.51808614398719" lon="11.386815239120073"><ele>82.5</ele><time>2026-03-28T17:59:52Z</time></trkpt><trkpt lat="45.5184263512716" lon="11.386751774205935"><ele>83.0</ele><time>2026-03-28T17:59:53Z</time></trkpt><trkpt lat="45.5187657179957" lon="11.386688325296529"><ele>83.0</ele><time>2026-03-28T17:59:54Z</time></trkpt><trkpt lat="45.519104399664876" lon="11.38662889843183"><ele>83.0</ele><time>2026-03-28T17:59:55Z</time></trkpt><trkpt lat="45.51944338620572" lon="11.386563309041401"><ele>83.5</ele><time>2026-03-28T17:59:56Z</time></trkpt><trkpt lat="45.51978033090749" lon="11.38650053242101"><ele>84.0</ele><time>2026-03-28T17:59:57Z</time></trkpt><trkpt lat="45.5201193124137" lon="11.386439518468352"><ele>84.5</ele><time>2026-03-28T17:59:58Z</time></trkpt><trkpt lat="45.5204584443566" lon="11.386379203279793"><ele>85.0</ele><time>2026-03-28T17:59:59Z</time></trkpt><trkpt lat="45.52079698851601" lon="11.386320751623234"><ele>85.0</ele><time>2026-03-28T18:00:00Z</time></trkpt><trkpt lat="45.521136389389504" lon="11.386262660747656"><ele>85.0</ele><time>2026-03-28T18:00:01Z</time></trkpt><trkpt lat="45.52147647868751" lon="11.386201524463978"><ele>86.5</ele><time>2026-03-28T18:00:02Z</time></trkpt><trkpt lat="45.521817014456154" lon="11.386132779939718"><ele>88.0</ele><time>2026-03-28T18:00:03Z</time></trkpt><trkpt lat="45.522156306218605" lon="11.386058133522363"><ele>89.5</ele><time>2026-03-28T18:00:04Z</time></trkpt><trkpt lat="45.5224930114456" lon="11.38597054147434"><ele>91.0</ele><time>2026-03-28T18:00:05Z</time></trkpt><trkpt lat="45.522827554595295" lon="11.385870598558379"><ele>91.5</ele><time>2026-03-28T18:00:06Z</time></trkpt><trkpt lat="45.52316048864014" lon="11.38575710765369"><ele>92.0</ele><time>2026-03-28T18:00:07Z</time></trkpt><trkpt lat="45.523491120768604" lon="11.385627227824914"><ele>91.5</ele><time>2026-03-28T18:00:08Z</time></trkpt><trkpt lat="45.52381871354348" lon="11.385489058708227"><ele>91.0</ele><time>2026-03-28T18:00:09Z</time></trkpt><trkpt lat="45.52414501693001" lon="11.385339823554288"><ele>91.0</ele><time>2026-03-28T18:00:10Z</time></trkpt><trkpt lat="45.52446923670589" lon="11.385180935259005"><ele>91.0</ele><time>2026-03-28T18:00:11Z</time></trkpt><trkpt lat="45.52478996275229" lon="11.385009261214242"><ele>91.5</ele><time>2026-03-28T18:00:12Z</time></trkpt><trkpt lat="45.525109626028296" lon="11.384828437221529"><ele>92.0</ele><time>2026-03-28T18:00:13Z</time></trkpt><trkpt lat="45.52542540598725" lon="11.38463632243577"><ele>91.0</ele><time>2026-03-28T18:00:14Z</time></trkpt><trkpt lat="45.525735987686" lon="11.384428866504447"><ele>90.0</ele><time>2026-03-28T18:00:15Z</time></trkpt><trkpt lat="45.526042752334234" lon="11.384208624708057"><ele>90.0</ele><time>2026-03-28T18:00:16Z</time></trkpt><trkpt lat="45.52634635542887" lon="11.383982668332065"><ele>90.0</ele><time>2026-03-28T18:00:17Z</time></trkpt><trkpt lat="45.526647742435415" lon="11.383745154333846"><ele>88.5</ele><time>2026-03-28T18:00:18Z</time></trkpt><trkpt lat="45.52694613547154" lon="11.383505453438428"><ele>87.0</ele><time>2026-03-28T18:00:19Z</time></trkpt><trkpt lat="45.52724422684797" lon="11.383262288928533"><ele>87.0</ele><time>2026-03-28T18:00:20Z</time></trkpt><trkpt lat="45.52754456578759" lon="11.383020383578332"><ele>87.0</ele><time>2026-03-28T18:00:21Z</time></trkpt><trkpt lat="45.5278471257006" lon="11.382783910218409"><ele>87.5</ele><time>2026-03-28T18:00:21.999Z</time></trkpt><trkpt lat="45.52815316619806" lon="11.382559022984518"><ele>88.0</ele><time>2026-03-28T18:00:22.999Z</time></trkpt><trkpt lat="45.5284613809145" lon="11.382341109754256"><ele>91.5</ele><time>2026-03-28T18:00:23.999Z</time></trkpt><trkpt lat="45.5287722900903" lon="11.382128921667602"><ele>95.0</ele><time>2026-03-28T18:00:24.999Z</time></trkpt><trkpt lat="45.529083699600385" lon="11.381920217461305"><ele>95.0</ele><time>2026-03-28T18:00:25.999Z</time></trkpt><trkpt lat="45.52939774059932" lon="11.381721384698045"><ele>95.0</ele><time>2026-03-28T18:00:26.999Z</time></trkpt><trkpt lat="45.529717508927696" lon="11.381542222007432"><ele>96.5</ele><time>2026-03-28T18:00:27.999Z</time></trkpt><trkpt lat="45.53003908272361" lon="11.381376309237245"><ele>98.0</ele><time>2026-03-28T18:00:28.999Z</time></trkpt><trkpt lat="45.53036546873263" lon="11.381228908706426"><ele>96.5</ele><time>2026-03-28T18:00:29.999Z</time></trkpt><trkpt lat="45.53069516772401" lon="11.381096373487136"><ele>95.0</ele><time>2026-03-28T18:00:30.999Z</time></trkpt><trkpt lat="45.531026969278976" lon="11.380974999719607"><ele>95.5</ele><time>2026-03-28T18:00:31.999Z</time></trkpt><trkpt lat="45.53136184952265" lon="11.380869729057002"><ele>96.0</ele><time>2026-03-28T18:00:32.999Z</time></trkpt><trkpt lat="45.53169869965648" lon="11.380777988008166"><ele>96.0</ele><time>2026-03-28T18:00:33.999Z</time></trkpt><trkpt lat="45.5320378528466" lon="11.380707711950045"><ele>96.0</ele><time>2026-03-28T18:00:34.999Z</time></trkpt><trkpt lat="45.53237864405741" lon="11.380652302471534"><ele>95.5</ele><time>2026-03-28T18:00:35.999Z</time></trkpt><trkpt lat="45.53271904950879" lon="11.38061086869817"><ele>95.0</ele><time>2026-03-28T18:00:36.999Z</time></trkpt><trkpt lat="45.533060538732556" lon="11.38058551760312"><ele>95.0</ele><time>2026-03-28T18:00:37.999Z</time></trkpt><trkpt lat="45.53340447287403" lon="11.38057557038145"><ele>95.0</ele><time>2026-03-28T18:00:38.999Z</time></trkpt><trkpt lat="45.53374773774956" lon="11.38058244684146"><ele>95.5</ele><time>2026-03-28T18:00:39.999Z</time></trkpt><trkpt lat="45.53409202853198" lon="11.380605905856383"><ele>96.0</ele><time>2026-03-28T18:00:40.999Z</time></trkpt><trkpt lat="45.53443604644761" lon="11.380642615334004"><ele>97.5</ele><time>2026-03-28T18:00:41.999Z</time></trkpt><trkpt lat="45.53477851278613" lon="11.380696177343857"><ele>99.0</ele><time>2026-03-28T18:00:42.999Z</time></trkpt><trkpt lat="45.535119815774465" lon="11.380764081123072"><ele>98.5</ele><time>2026-03-28T18:00:43.999Z</time></trkpt><trkpt lat="45.53545846612997" lon="11.380846686764484"><ele>98.0</ele><time>2026-03-28T18:00:44.999Z</time></trkpt><trkpt lat="45.53579459432952" lon="11.380946169948603"><ele>98.0</ele><time>2026-03-28T18:00:45.999Z</time></trkpt><trkpt lat="45.536126102457544" lon="11.38105771760441"><ele>98.0</ele><time>2026-03-28T18:00:46.999Z</time></trkpt><trkpt lat="45.536457657053184" lon="11.381185521668133"><ele>99.5</ele><time>2026-03-28T18:00:47.999Z</time></trkpt><trkpt lat="45.536783581292454" lon="11.381331259413393"><ele>101.0</ele><time>2026-03-28T18:00:48.999Z</time></trkpt><trkpt lat="45.53710457597694" lon="11.381492221473263"><ele>102.0</ele><time>2026-03-28T18:00:49.999Z</time></trkpt><trkpt lat="45.53742292012446" lon="11.381668755966704"><ele>103.0</ele><time>2026-03-28T18:00:50.999Z</time></trkpt><trkpt lat="45.5377392425438" lon="11.381857365440677"><ele>103.0</ele><time>2026-03-28T18:00:51.999Z</time></trkpt><trkpt lat="45.53804982390418" lon="11.38206170583486"><ele>103.0</ele><time>2026-03-28T18:00:52.999Z</time></trkpt><trkpt lat="45.53835526972204" lon="11.382282148826805"><ele>103.0</ele><time>2026-03-28T18:00:53.999Z</time></trkpt><trkpt lat="45.5386554124259" lon="11.382515189110181"><ele>103.0</ele><time>2026-03-28T18:00:54.999Z</time></trkpt><trkpt lat="45.5389534919987" lon="11.382756649730368"><ele>102.5</ele><time>2026-03-28T18:00:55.999Z</time></trkpt><trkpt lat="45.53924283446708" lon="11.383017510754259"><ele>102.0</ele><time>2026-03-28T18:00:56.999Z</time></trkpt><trkpt lat="45.53952588562288" lon="11.383291390333628"><ele>103.0</ele><time>2026-03-28T18:00:57.999Z</time></trkpt><trkpt lat="45.53980121350763" lon="11.383579667368494"><ele>104.0</ele><time>2026-03-28T18:00:58.999Z</time></trkpt><trkpt lat="45.540070618170475" lon="11.383881042974949"><ele>104.0</ele><time>2026-03-28T18:00:59.999Z</time></trkpt><trkpt lat="45.540340442611274" lon="11.38419028282857"><ele>104.0</ele><time>2026-03-28T18:01:00.999Z</time></trkpt><trkpt lat="45.54060414103413" lon="11.38450539763246"><ele>105.5</ele><time>2026-03-28T18:01:01.999Z</time></trkpt><trkpt lat="45.54085539249788" lon="11.38483955483452"><ele>107.0</ele><time>2026-03-28T18:01:02.999Z</time></trkpt><trkpt lat="45.5410977427692" lon="11.385188958253838"><ele>108.0</ele><time>2026-03-28T18:01:03.999Z</time></trkpt><trkpt lat="45.5413304748623" lon="11.385545608314713"><ele>109.0</ele><time>2026-03-28T18:01:05Z</time></trkpt><trkpt lat="45.54156188984283" lon="11.385910340938693"><ele>109.0</ele><time>2026-03-28T18:01:06Z</time></trkpt><trkpt lat="45.54178684561121" lon="11.386278895140892"><ele>109.0</ele><time>2026-03-28T18:01:07Z</time></trkpt><trkpt lat="45.54201190800772" lon="11.3866464605312"><ele>108.5</ele><time>2026-03-28T18:01:08Z</time></trkpt><trkpt lat="45.5422377950757" lon="11.38701600943869"><ele>108.0</ele><time>2026-03-28T18:01:09Z</time></trkpt><trkpt lat="45.542464960726946" lon="11.387383276709011"><ele>108.5</ele><time>2026-03-28T18:01:10Z</time></trkpt><trkpt lat="45.54269644080678" lon="11.387746100954821"><ele>109.0</ele><time>2026-03-28T18:01:11Z</time></trkpt><trkpt lat="45.54293466038154" lon="11.388101018955425"><ele>109.0</ele><time>2026-03-28T18:01:12Z</time></trkpt><trkpt lat="45.543173686470915" lon="11.388451200719299"><ele>109.0</ele><time>2026-03-28T18:01:13Z</time></trkpt><trkpt lat="45.543419995417686" lon="11.388793313458036"><ele>109.5</ele><time>2026-03-28T18:01:14Z</time></trkpt><trkpt lat="45.54366835662202" lon="11.389129770718695"><ele>110.0</ele><time>2026-03-28T18:01:15Z</time></trkpt><trkpt lat="45.54392442962006" lon="11.389453446664248"><ele>110.0</ele><time>2026-03-28T18:01:16Z</time></trkpt><trkpt lat="45.544190595146546" lon="11.389763697701065"><ele>110.0</ele><time>2026-03-28T18:01:17Z</time></trkpt><trkpt lat="45.54445996756534" lon="11.390063058931203"><ele>110.5</ele><time>2026-03-28T18:01:18Z</time></trkpt><trkpt lat="45.54473919751941" lon="11.390351968278894"><ele>111.0</ele><time>2026-03-28T18:01:19Z</time></trkpt><trkpt lat="45.545020761306255" lon="11.390627497092227"><ele>112.0</ele><time>2026-03-28T18:01:20Z</time></trkpt><trkpt lat="45.54530952300365" lon="11.390891860219693"><ele>113.0</ele><time>2026-03-28T18:01:21Z</time></trkpt><trkpt lat="45.54560629795814" lon="11.391144870812363"><ele>113.5</ele><time>2026-03-28T18:01:22Z</time></trkpt><trkpt lat="45.545906561476315" lon="11.391384803410503"><ele>114.0</ele><time>2026-03-28T18:01:23Z</time></trkpt><trkpt lat="45.54620955480379" lon="11.391612174069992"><ele>114.0</ele><time>2026-03-28T18:01:24Z</time></trkpt><trkpt lat="45.546514443014765" lon="11.391829826132794"><ele>114.0</ele><time>2026-03-28T18:01:25Z</time></trkpt><trkpt lat="45.54682372080745" lon="11.392033563846464"><ele>117.5</ele><time>2026-03-28T18:01:26Z</time></trkpt><trkpt lat="45.547138110856416" lon="11.392226729890707"><ele>121.0</ele><time>2026-03-28T18:01:27Z</time></trkpt><trkpt lat="45.547456691492805" lon="11.392406222307327"><ele>121.0</ele><time>2026-03-28T18:01:28Z</time></trkpt><trkpt lat="45.54777870216459" lon="11.392568256528072"><ele>121.0</ele><time>2026-03-28T18:01:29Z</time></trkpt><trkpt lat="45.54810128187801" lon="11.392718743514813"><ele>140.0</ele><time>2026-03-28T18:01:30Z</time></trkpt><trkpt lat="45.54843566951427" lon="11.392861087137973"><ele>159.0</ele><time>2026-03-28T18:01:31.023Z</time></trkpt><trkpt lat="45.54876621397596" lon="11.392986480052596"><ele>185.5</ele><time>2026-03-28T18:01:32.027Z</time></trkpt><trkpt lat="45.54909321482903" lon="11.393098133170291"><ele>212.0</ele><time>2026-03-28T18:01:33.017Z</time></trkpt><trkpt lat="45.54942509344312" lon="11.393200814234943"><ele>231.0</ele><time>2026-03-28T18:01:34.019Z</time></trkpt><trkpt lat="45.54975843821545" lon="11.393297699809043"><ele>250.0</ele><time>2026-03-28T18:01:35.024Z</time></trkpt><trkpt lat="45.56245990101766" lon="11.391812413941501"><ele>186.0</ele><time>2026-03-28T18:02:13Z</time></trkpt><trkpt lat="45.56275492260337" lon="11.391564168407264"><ele>122.0</ele><time>2026-03-28T18:02:14Z</time></trkpt><trkpt lat="45.56301816871759" lon="11.391298463840958"><ele>122.0</ele><time>2026-03-28T18:02:15Z</time></trkpt><trkpt lat="45.56328655081065" lon="11.391017259063512"><ele>122.0</ele><time>2026-03-28T18:02:16Z</time></trkpt><trkpt lat="45.563552791373304" lon="11.390717183597705"><ele>123.5</ele><time>2026-03-28T18:02:17Z</time></trkpt><trkpt lat="45.563813635652295" lon="11.390407970859115"><ele>125.0</ele><time>2026-03-28T18:02:18Z</time></trkpt><trkpt lat="45.56406937763623" lon="11.39007975815009"><ele>125.0</ele><time>2026-03-28T18:02:19Z</time></trkpt><trkpt lat="45.56431781619265" lon="11.389741685705975"><ele>125.0</ele><time>2026-03-28T18:02:20Z</time></trkpt><trkpt lat="45.56455878405527" lon="11.389396736549966"><ele>124.5</ele><time>2026-03-28T18:02:21Z</time></trkpt><trkpt lat="45.56479573864904" lon="11.389046285423623"><ele>124.0</ele><time>2026-03-28T18:02:22Z</time></trkpt><trkpt lat="45.56502878175058" lon="11.388682645823682"><ele>124.0</ele><time>2026-03-28T18:02:23Z</time></trkpt><trkpt lat="45.56525609392486" lon="11.388316238510548"><ele>124.0</ele><time>2026-03-28T18:02:24Z</time></trkpt><trkpt lat="45.565479863710486" lon="11.387947954424773"><ele>124.0</ele><time>2026-03-28T18:02:25Z</time></trkpt><trkpt lat="45.56570222939088" lon="11.387583315939864"><ele>124.0</ele><time>2026-03-28T18:02:26Z</time></trkpt><trkpt lat="45.56592330174042" lon="11.38720769277126"><ele>125.0</ele><time>2026-03-28T18:02:26.999Z</time></trkpt><trkpt lat="45.5661428666481" lon="11.386833416968093"><ele>126.0</ele><time>2026-03-28T18:02:27.999Z</time></trkpt><trkpt lat="45.56636146600806" lon="11.386454781700712"><ele>127.0</ele><time>2026-03-28T18:02:28.999Z</time></trkpt><trkpt lat="45.566582355761234" lon="11.38608024235882"><ele>128.0</ele><time>2026-03-28T18:02:29.999Z</time></trkpt><trkpt lat="45.566808639867766" lon="11.38571233966659"><ele>127.5</ele><time>2026-03-28T18:02:30.999Z</time></trkpt><trkpt lat="45.56704111870976" lon="11.385350070079737"><ele>127.0</ele><time>2026-03-28T18:02:31.999Z</time></trkpt><trkpt lat="45.567278549629044" lon="11.384995061729692"><ele>127.5</ele><time>2026-03-28T18:02:32.999Z</time></trkpt><trkpt lat="45.56752614160595" lon="11.38465520667311"><ele>128.0</ele><time>2026-03-28T18:02:33.999Z</time></trkpt><trkpt lat="45.5677827819005" lon="11.384327086319352"><ele>129.0</ele><time>2026-03-28T18:02:34.999Z</time></trkpt><trkpt lat="45.56804997630398" lon="11.384018603479527"><ele>130.0</ele><time>2026-03-28T18:02:35.999Z</time></trkpt><trkpt lat="45.56832778935368" lon="11.383713546920276"><ele>130.0</ele><time>2026-03-28T18:02:37.018Z</time></trkpt><trkpt lat="45.5686075607551" lon="11.38342602724418"><ele>130.0</ele><time>2026-03-28T18:02:38.02Z</time></trkpt><trkpt lat="45.56888716665908" lon="11.383157037913524"><ele>130.0</ele><time>2026-03-28T18:02:38.999Z</time></trkpt><trkpt lat="45.5691790790805" lon="11.382918614395505"><ele>130.0</ele><time>2026-03-28T18:02:39.999Z</time></trkpt><trkpt lat="45.5694799348891" lon="11.38268729860367"><ele>131.5</ele><time>2026-03-28T18:02:40.999Z</time></trkpt><trkpt lat="45.56978761416125" lon="11.382477692191017"><ele>133.0</ele><time>2026-03-28T18:02:41.999Z</time></trkpt><trkpt lat="45.57010006368022" lon="11.382286647815825"><ele>133.0</ele><time>2026-03-28T18:02:42.999Z</time></trkpt><trkpt lat="45.57041784554307" lon="11.382112128137473"><ele>133.0</ele><time>2026-03-28T18:02:43.999Z</time></trkpt><trkpt lat="45.57074022168043" lon="11.381948961103591"><ele>133.0</ele><time>2026-03-28T18:02:44.999Z</time></trkpt><trkpt lat="45.571066379267734" lon="11.38180564869614"><ele>133.0</ele><time>2026-03-28T18:02:45.999Z</time></trkpt><trkpt lat="45.571394353137414" lon="11.381681419079502"><ele>134.0</ele><time>2026-03-28T18:02:46.999Z</time></trkpt><trkpt lat="45.571726455342244" lon="11.381572801588089"><ele>135.0</ele><time>2026-03-28T18:02:47.999Z</time></trkpt><trkpt lat="45.572060433550405" lon="11.381483167459532"><ele>135.0</ele><time>2026-03-28T18:02:48.999Z</time></trkpt><trkpt lat="45.57239915639125" lon="11.381409673567612"><ele>135.0</ele><time>2026-03-28T18:02:49.999Z</time></trkpt><trkpt lat="45.57274073518261" lon="11.381361096834087"><ele>134.0</ele><time>2026-03-28T18:02:50.999Z</time></trkpt><trkpt lat="45.57308356291041" lon="11.381329419443519"><ele>133.0</ele><time>2026-03-28T18:02:51.999Z</time></trkpt><trkpt lat="45.573427309412125" lon="11.381309472398657"><ele>134.0</ele><time>2026-03-28T18:02:52.999Z</time></trkpt><trkpt lat="45.5737716331946" lon="11.38129718687976"><ele>135.0</ele><time>2026-03-28T18:02:53.999Z</time></trkpt><trkpt lat="45.574117037582305" lon="11.381289710712919"><ele>135.0</ele><time>2026-03-28T18:02:54.999Z</time></trkpt><trkpt lat="45.57446206588064" lon="11.381279039985557"><ele>135.0</ele><time>2026-03-28T18:02:55.999Z</time></trkpt><trkpt lat="45.57480638016742" lon="11.381264944256845"><ele>136.0</ele><time>2026-03-28T18:02:56.999Z</time></trkpt><trkpt lat="45.57514928029066" lon="11.381237362224622"><ele>137.0</ele><time>2026-03-28T18:02:57.999Z</time></trkpt><trkpt lat="45.57549340753061" lon="11.381193857479898"><ele>137.0</ele><time>2026-03-28T18:02:58.999Z</time></trkpt><trkpt lat="45.57583282862148" lon="11.381137472084122"><ele>137.0</ele><time>2026-03-28T18:02:59.999Z</time></trkpt><trkpt lat="45.576171587749265" lon="11.381056450649805"><ele>137.5</ele><time>2026-03-28T18:03:00.999Z</time></trkpt><trkpt lat="45.57650543297893" lon="11.380954590871802"><ele>138.0</ele><time>2026-03-28T18:03:01.999Z</time></trkpt><trkpt lat="45.57683949159271" lon="11.380836853999158"><ele>139.0</ele><time>2026-03-28T18:03:02.999Z</time></trkpt><trkpt lat="45.57717062127734" lon="11.380709045281874"><ele>140.0</ele><time>2026-03-28T18:03:03.999Z</time></trkpt><trkpt lat="45.57749645771822" lon="11.380557966351141"><ele>139.5</ele><time>2026-03-28T18:03:04.999Z</time></trkpt><trkpt lat="45.57781919672369" lon="11.38038873854234"><ele>139.0</ele><time>2026-03-28T18:03:05.999Z</time></trkpt><trkpt lat="45.578134475756144" lon="11.380199382421331"><ele>139.0</ele><time>2026-03-28T18:03:06.999Z</time></trkpt><trkpt lat="45.578440829580295" lon="11.379986058932342"><ele>139.0</ele><time>2026-03-28T18:03:07.999Z</time></trkpt><trkpt lat="45.57873933841979" lon="11.379773887799658"><ele>139.0</ele><time>2026-03-28T18:03:08.999Z</time></trkpt><trkpt lat="45.579030777241464" lon="11.37956464392284"><ele>139.0</ele><time>2026-03-28T18:03:09.999Z</time></trkpt><trkpt lat="45.5793170643847" lon="11.379355931600903"><ele>141.0</ele><time>2026-03-28T18:03:11Z</time></trkpt><trkpt lat="45.579603625298446" lon="11.379161995844504"><ele>143.0</ele><time>2026-03-28T18:03:12Z</time></trkpt><trkpt lat="45.57989409325433" lon="11.378979423919915"><ele>143.0</ele><time>2026-03-28T18:03:13Z</time></trkpt><trkpt lat="45.580186135005654" lon="11.378799712689478"><ele>143.0</ele><time>2026-03-28T18:03:14Z</time></trkpt><trkpt lat="45.58048274163188" lon="11.378632090117598"><ele>143.0</ele><time>2026-03-28T18:03:15Z</time></trkpt><trkpt lat="45.58078502990304" lon="11.378477725237259"><ele>143.0</ele><time>2026-03-28T18:03:16Z</time></trkpt><trkpt lat="45.58108637156626" lon="11.378337691659778"><ele>143.0</ele><time>2026-03-28T18:03:17Z</time></trkpt><trkpt lat="45.581379364805564" lon="11.378221442564627"><ele>143.0</ele><time>2026-03-28T18:03:18Z</time></trkpt><trkpt lat="45.5816690311933" lon="11.378125573725532"><ele>143.0</ele><time>2026-03-28T18:03:19Z</time></trkpt><trkpt lat="45.58195165732006" lon="11.378056894869685"><ele>143.0</ele><time>2026-03-28T18:03:20Z</time></trkpt><trkpt lat="45.582229019993875" lon="11.378004933321728"><ele>144.5</ele><time>2026-03-28T18:03:21Z</time></trkpt><trkpt lat="45.58249898799978" lon="11.377958970758433"><ele>146.0</ele><time>2026-03-28T18:03:22Z</time></trkpt><trkpt lat="45.58276374604434" lon="11.377914377157117"><ele>145.5</ele><time>2026-03-28T18:03:23Z</time></trkpt><trkpt lat="45.583020408707846" lon="11.377883430380114"><ele>145.0</ele><time>2026-03-28T18:03:24Z</time></trkpt><trkpt lat="45.58327375906342" lon="11.37786556196874"><ele>145.0</ele><time>2026-03-28T18:03:25Z</time></trkpt><trkpt lat="45.58352139594452" lon="11.377850885192627"><ele>145.0</ele><time>2026-03-28T18:03:26Z</time></trkpt><trkpt lat="45.58376394096906" lon="11.377842624625796"><ele>144.5</ele><time>2026-03-28T18:03:27Z</time></trkpt><trkpt lat="45.58399772396118" lon="11.377834696505523"><ele>144.0</ele><time>2026-03-28T18:03:28Z</time></trkpt><trkpt lat="45.58422222073573" lon="11.377828856252176"><ele>144.0</ele><time>2026-03-28T18:03:29Z</time></trkpt><trkpt lat="45.584438682513415" lon="11.37782529032687"><ele>144.0</ele><time>2026-03-28T18:03:30Z</time></trkpt><trkpt lat="45.584650908641386" lon="11.377817231802027"><ele>144.0</ele><time>2026-03-28T18:03:31Z</time></trkpt><trkpt lat="45.58486183691998" lon="11.377812889021316"><ele>144.66666666666666</ele><time>2026-03-28T18:03:32Z</time></trkpt><trkpt lat="45.58507086899494" lon="11.377807672021206"><ele>145.33333333333331</ele><time>2026-03-28T18:03:33Z</time></trkpt><trkpt lat="45.58527670032667" lon="11.377801161029177"><ele>146.0</ele><time>2026-03-28T18:03:34Z</time></trkpt><trkpt lat="45.585476678158734" lon="11.377801119583859"><ele>147.0</ele><time>2026-03-28T18:03:35Z</time></trkpt><trkpt lat="45.58567497224757" lon="11.377803298134157"><ele>148.0</ele><time>2026-03-28T18:03:36Z</time></trkpt><trkpt lat="45.58586814477382" lon="11.377802711154015"><ele>149.0</ele><time>2026-03-28T18:03:37Z</time></trkpt><trkpt lat="45.58605829146612" lon="11.3778013935213"><ele>150.0</ele><time>2026-03-28T18:03:38.02Z</time></trkpt><trkpt lat="45.58623913119254" lon="11.377799039057182"><ele>151.0</ele><time>2026-03-28T18:03:39.023Z</time></trkpt><trkpt lat="45.586412680767666" lon="11.377796157849906"><ele>152.0</ele><time>2026-03-28T18:03:40.023Z</time></trkpt><trkpt lat="45.586585322178806" lon="11.377792036910206"><ele>152.0</ele><time>2026-03-28T18:03:41.015Z</time></trkpt><trkpt lat="45.58676354821437" lon="11.377788828458039"><ele>152.0</ele><time>2026-03-28T18:03:42.02Z</time></trkpt><trkpt lat="45.586964227301614" lon="11.377810277055369"><ele>152.0</ele><time>2026-03-28T18:03:43Z</time></trkpt><trkpt lat="45.58713992800277" lon="11.377807206015248"><ele>151.0</ele><time>2026-03-28T18:03:44Z</time></trkpt><trkpt lat="45.58730640251474" lon="11.377791612222207"><ele>150.0</ele><time>2026-03-28T18:03:45Z</time></trkpt><trkpt lat="45.587446622334895" lon="11.377774357502423"><ele>149.0</ele><time>2026-03-28T18:03:46Z</time></trkpt><trkpt lat="45.58757908252574" lon="11.377781610946522"><ele>148.0</ele><time>2026-03-28T18:03:47Z</time></trkpt><trkpt lat="45.58767016721461" lon="11.377814700792998"><ele>148.0</ele><time>2026-03-28T18:03:48Z</time></trkpt><trkpt lat="45.587771428290104" lon="11.377897762521714"><ele>148.0</ele><time>2026-03-28T18:03:49Z</time></trkpt><trkpt lat="45.58785669281077" lon="11.378015390204567"><ele>148.0</ele><time>2026-03-28T18:03:50Z</time></trkpt><trkpt lat="45.58791160335543" lon="11.378167027061572"><ele>148.0</ele><time>2026-03-28T18:03:51Z</time></trkpt><trkpt lat="45.587939144538154" lon="11.378321402746726"><ele>148.25</ele><time>2026-03-28T18:03:52Z</time></trkpt><trkpt lat="45.58793683166774" lon="11.378485846717842"><ele>148.5</ele><time>2026-03-28T18:03:53Z</time></trkpt><trkpt lat="45.58790632889913" lon="11.378648339449976"><ele>148.75</ele><time>2026-03-28T18:03:54Z</time></trkpt><trkpt lat="45.587885866651796" lon="11.378802209083892"><ele>149.0</ele><time>2026-03-28T18:03:55Z</time></trkpt><trkpt lat="45.58775308729642" lon="11.378906398150159"><ele>149.0</ele><time>2026-03-28T18:03:56Z</time></trkpt><trkpt lat="45.587645004591096" lon="11.378981830379825"><ele>149.0</ele><time>2026-03-28T18:03:57Z</time></trkpt><trkpt lat="45.587523602879585" lon="11.379019912210016"><ele>149.0</ele><time>2026-03-28T18:03:58Z</time></trkpt><trkpt lat="45.58741212618816" lon="11.379004421629574"><ele>149.0</ele><time>2026-03-28T18:03:59Z</time></trkpt><trkpt lat="45.587316039470934" lon="11.378932711755994"><ele>148.8</ele><time>2026-03-28T18:04:00Z</time></trkpt><trkpt lat="45.5872323222204" lon="11.378850289600084"><ele>148.60000000000002</ele><time>2026-03-28T18:04:01Z</time></trkpt><trkpt lat="45.58715338872409" lon="11.378745403963146"><ele>148.4</ele><time>2026-03-28T18:04:02Z</time></trkpt><trkpt lat="45.58709865570795" lon="11.37860832651999"><ele>148.20000000000002</ele><time>2026-03-28T18:04:03Z</time></trkpt><trkpt lat="45.58705702897172" lon="11.378447655501146"><ele>148.0</ele><time>2026-03-28T18:04:04Z</time></trkpt><trkpt lat="45.5870404988031" lon="11.378284540802317"><ele>148.0</ele><time>2026-03-28T18:04:05Z</time></trkpt><trkpt lat="45.58705007577782" lon="11.37812477874888"><ele>148.0</ele><time>2026-03-28T18:04:06Z</time></trkpt><trkpt lat="45.58707349308025" lon="11.377968329629855"><ele>148.0</ele><time>2026-03-28T18:04:07Z</time></trkpt><trkpt lat="45.587107578801565" lon="11.377814608703487"><ele>148.0</ele><time>2026-03-28T18:04:08Z</time></trkpt><trkpt lat="45.58715586628986" lon="11.37764288209787"><ele>148.0</ele><time>2026-03-28T18:04:09Z</time></trkpt><trkpt lat="45.5872080205933" lon="11.377475424213968"><ele>148.0</ele><time>2026-03-28T18:04:10Z</time></trkpt><trkpt lat="45.587283562508496" lon="11.377330372043147"><ele>148.0</ele><time>2026-03-28T18:04:11Z</time></trkpt><trkpt lat="45.58736143483702" lon="11.377193339904071"><ele>148.0</ele><time>2026-03-28T18:04:12Z</time></trkpt><trkpt lat="45.58744491515148" lon="11.377062613619906"><ele>148.0</ele><time>2026-03-28T18:04:13Z</time></trkpt><trkpt lat="45.58752898911188" lon="11.376926008622384"><ele>148.0</ele><time>2026-03-28T18:04:14Z</time></trkpt><trkpt lat="45.58761413413915" lon="11.37679021022589"><ele>148.0</ele><time>2026-03-28T18:04:15Z</time></trkpt><trkpt lat="45.58769926130511" lon="11.376645762627884"><ele>148.0</ele><time>2026-03-28T18:04:16Z</time></trkpt><trkpt lat="45.58780521929107" lon="11.376524772004604"><ele>148.0</ele><time>2026-03-28T18:04:17Z</time></trkpt><trkpt lat="45.587907632329376" lon="11.376391403358461"><ele>148.0</ele><time>2026-03-28T18:04:18Z</time></trkpt><trkpt lat="45.58801819424459" lon="11.376267722789779"><ele>148.0</ele><time>2026-03-28T18:04:19Z</time></trkpt><trkpt lat="45.58813196273367" lon="11.376153179443778"><ele>148.0</ele><time>2026-03-28T18:04:20Z</time></trkpt><trkpt lat="45.588256606925746" lon="11.376100366586355"><ele>149.0</ele><time>2026-03-28T18:04:21Z</time></trkpt><trkpt lat="45.588378331241216" lon="11.37609008107075"><ele>150.0</ele><time>2026-03-28T18:04:22Z</time></trkpt><trkpt lat="45.58849531538702" lon="11.37612520469531"><ele>151.0</ele><time>2026-03-28T18:04:23Z</time></trkpt><trkpt lat="45.588608283993075" lon="11.376198582231208"><ele>152.0</ele><time>2026-03-28T18:04:24Z</time></trkpt><trkpt lat="45.5887023139802" lon="11.376304130918335"><ele>151.6</ele><time>2026-03-28T18:04:25Z</time></trkpt><trkpt lat="45.588782019803915" lon="11.376436174416186"><ele>151.2</ele><time>2026-03-28T18:04:26Z</time></trkpt><trkpt lat="45.58888493866542" lon="11.376514011623579"><ele>150.8</ele><time>2026-03-28T18:04:27Z</time></trkpt><trkpt lat="45.58896868208775" lon="11.37659607599636"><ele>150.4</ele><time>2026-03-28T18:04:28Z</time></trkpt><trkpt lat="45.58905758928521" lon="11.376673640284022"><ele>150.0</ele><time>2026-03-28T18:04:28.999Z</time></trkpt><trkpt lat="45.58915205399578" lon="11.376738661935283"><ele>150.0</ele><time>2026-03-28T18:04:29.999Z</time></trkpt><trkpt lat="45.58925143685881" lon="11.376786279546916"><ele>150.0</ele><time>2026-03-28T18:04:30.999Z</time></trkpt><trkpt lat="45.58935464553464" lon="11.376806893708721"><ele>150.0</ele><time>2026-03-28T18:04:31.999Z</time></trkpt><trkpt lat="45.589461252917275" lon="11.376815986541205"><ele>150.0</ele><time>2026-03-28T18:04:32.999Z</time></trkpt><trkpt lat="45.589576888297294" lon="11.37682946773767"><ele>150.0</ele><time>2026-03-28T18:04:33.999Z</time></trkpt><trkpt lat="45.58969352204226" lon="11.376814248186113"><ele>149.8</ele><time>2026-03-28T18:04:34.999Z</time></trkpt><trkpt lat="45.589794761963795" lon="11.376804045870877"><ele>149.6</ele><time>2026-03-28T18:04:35.999Z</time></trkpt><trkpt lat="45.58988934661645" lon="11.376799224423733"><ele>149.4</ele><time>2026-03-28T18:04:36.999Z</time></trkpt><trkpt lat="45.58997622014792" lon="11.376794777473645"><ele>149.2</ele><time>2026-03-28T18:04:37.999Z</time></trkpt><trkpt lat="45.5900538130758" lon="11.376803130404713"><ele>149.0</ele><time>2026-03-28T18:04:38.999Z</time></trkpt><trkpt lat="45.5901458419964" lon="11.376790463248389"><ele>149.0</ele><time>2026-03-28T18:04:39.999Z</time></trkpt><trkpt lat="45.59023987337322" lon="11.37678524705717"><ele>149.0</ele><time>2026-03-28T18:04:40.999Z</time></trkpt><trkpt lat="45.5903380076877" lon="11.376778994127463"><ele>149.0</ele><time>2026-03-28T18:04:41.999Z</time></trkpt><trkpt lat="45.59044250268839" lon="11.376773506520863"><ele>149.0</ele><time>2026-03-28T18:04:42.999Z</time></trkpt><trkpt lat="45.590550475417174" lon="11.376740196953783"><ele>149.0</ele><time>2026-03-28T18:04:43.999Z</time></trkpt><trkpt lat="45.590657607136485" lon="11.37671164891029"><ele>149.4</ele><time>2026-03-28T18:04:44.999Z</time></trkpt><trkpt lat="45.590759836331" lon="11.376658391934678"><ele>149.8</ele><time>2026-03-28T18:04:45.999Z</time></trkpt><trkpt lat="45.59086328472447" lon="11.37659748450119"><ele>150.2</ele><time>2026-03-28T18:04:46.999Z</time></trkpt><trkpt lat="45.59096158945483" lon="11.376527631240048"><ele>150.6</ele><time>2026-03-28T18:04:47.999Z</time></trkpt><trkpt lat="45.591052980847685" lon="11.37646135401787"><ele>151.0</ele><time>2026-03-28T18:04:48.999Z</time></trkpt><trkpt lat="45.59113671583298" lon="11.37639994528906"><ele>151.6</ele><time>2026-03-28T18:04:49.999Z</time></trkpt><trkpt lat="45.591212354857035" lon="11.37634447466918"><ele>152.2</ele><time>2026-03-28T18:04:50.999Z</time></trkpt><trkpt lat="45.59131377041652" lon="11.376378427311826"><ele>152.8</ele><time>2026-03-28T18:04:51.999Z</time></trkpt><trkpt lat="45.59140149344451" lon="11.376387081789543"><ele>153.4</ele><time>2026-03-28T18:04:52.999Z</time></trkpt><trkpt lat="45.59147476598055" lon="11.376506381331355"><ele>154.0</ele><time>2026-03-28T18:04:53.999Z</time></trkpt><trkpt lat="45.59155004777636" lon="11.376571716013983"><ele>154.2</ele><time>2026-03-28T18:04:54.999Z</time></trkpt><trkpt lat="45.591636876000365" lon="11.37660163673963"><ele>154.4</ele><time>2026-03-28T18:04:55.999Z</time></trkpt><trkpt lat="45.5917258881677" lon="11.376596997715595"><ele>154.6</ele><time>2026-03-28T18:04:56.999Z</time></trkpt><trkpt lat="45.59181313424579" lon="11.376558617771451"><ele>154.8</ele><time>2026-03-28T18:04:57.999Z</time></trkpt><trkpt lat="45.59189341677135" lon="11.376484188494638"><ele>155.0</ele><time>2026-03-28T18:04:58.999Z</time></trkpt><trkpt lat="45.591961916391796" lon="11.376382787672696"><ele>155.0</ele><time>2026-03-28T18:04:59.999Z</time></trkpt><trkpt lat="45.59200714675112" lon="11.376245890876291"><ele>155.0</ele><time>2026-03-28T18:05:00.999Z</time></trkpt><trkpt lat="45.59205009457507" lon="11.376115275046"><ele>155.0</ele><time>2026-03-28T18:05:01.999Z</time></trkpt><trkpt lat="45.59210880907811" lon="11.375989981049155"><ele>155.0</ele><time>2026-03-28T18:05:02.999Z</time></trkpt><trkpt lat="45.59220567108178" lon="11.37588557561665"><ele>155.0</ele><time>2026-03-28T18:05:03.999Z</time></trkpt><trkpt lat="45.59231878209377" lon="11.375795979818557"><ele>155.0</ele><time>2026-03-28T18:05:04.999Z</time></trkpt><trkpt lat="45.59243920665041" lon="11.37569963665862"><ele>155.0</ele><time>2026-03-28T18:05:05.999Z</time></trkpt><trkpt lat="45.59256269242414" lon="11.375590110784216"><ele>155.0</ele><time>2026-03-28T18:05:06.999Z</time></trkpt><trkpt lat="45.5926765690395" lon="11.375462326167877"><ele>155.0</ele><time>2026-03-28T18:05:07.999Z</time></trkpt><trkpt lat="45.59279653107378" lon="11.375320379371068"><ele>156.0</ele><time>2026-03-28T18:05:08.999Z</time></trkpt><trkpt lat="45.59292523264258" lon="11.375185759118173"><ele>157.0</ele><time>2026-03-28T18:05:09.999Z</time></trkpt><trkpt lat="45.593057245925756" lon="11.375040992967117"><ele>158.0</ele><time>2026-03-28T18:05:10.999Z</time></trkpt><trkpt lat="45.59317996233821" lon="11.374901390015026"><ele>158.0</ele><time>2026-03-28T18:05:11.999Z</time></trkpt><trkpt lat="45.593289549673905" lon="11.374775865355536"><ele>158.0</ele><time>2026-03-28T18:05:12.999Z</time></trkpt><trkpt lat="45.59338790600629" lon="11.374659450438951"><ele>158.0</ele><time>2026-03-28T18:05:13.999Z</time></trkpt><trkpt lat="45.5934794982243" lon="11.374537729643084"><ele>158.0</ele><time>2026-03-28T18:05:14.999Z</time></trkpt><trkpt lat="45.5935728539515" lon="11.374423549744172"><ele>158.25</ele><time>2026-03-28T18:05:15.999Z</time></trkpt><trkpt lat="45.593666485072674" lon="11.374310809901012"><ele>158.5</ele><time>2026-03-28T18:05:17Z</time></trkpt><trkpt lat="45.59375841365447" lon="11.374193716445028"><ele>158.75</ele><time>2026-03-28T18:05:18Z</time></trkpt><trkpt lat="45.5938495202016" lon="11.374087463864496"><ele>159.0</ele><time>2026-03-28T18:05:19Z</time></trkpt><trkpt lat="45.593933151223766" lon="11.373989437542411"><ele>159.0</ele><time>2026-03-28T18:05:20Z</time></trkpt><trkpt lat="45.59401860113264" lon="11.373879472550698"><ele>159.0</ele><time>2026-03-28T18:05:21Z</time></trkpt><trkpt lat="45.59410856739743" lon="11.37375902600543"><ele>159.0</ele><time>2026-03-28T18:05:22Z</time></trkpt><trkpt lat="45.59420407724731" lon="11.373640069094286"><ele>159.0</ele><time>2026-03-28T18:05:23Z</time></trkpt><trkpt lat="45.594299142667175" lon="11.373522763582042"><ele>159.0</ele><time>2026-03-28T18:05:24Z</time></trkpt><trkpt lat="45.59439163543321" lon="11.3734108875088"><ele>159.0</ele><time>2026-03-28T18:05:25Z</time></trkpt><trkpt lat="45.59448680141012" lon="11.373287588074461"><ele>159.0</ele><time>2026-03-28T18:05:26Z</time></trkpt><trkpt lat="45.5945764319359" lon="11.373164415650349"><ele>159.0</ele><time>2026-03-28T18:05:27Z</time></trkpt><trkpt lat="45.594660555840804" lon="11.373047301888283"><ele>159.0</ele><time>2026-03-28T18:05:28Z</time></trkpt><trkpt lat="45.594741378993206" lon="11.372934721113435"><ele>159.0</ele><time>2026-03-28T18:05:29Z</time></trkpt><trkpt lat="45.59482379262394" lon="11.372825234183809"><ele>159.0</ele><time>2026-03-28T18:05:30Z</time></trkpt><trkpt lat="45.59490923348796" lon="11.372713481812072"><ele>159.0</ele><time>2026-03-28T18:05:31Z</time></trkpt><trkpt lat="45.594987364033734" lon="11.372601184018839"><ele>159.0</ele><time>2026-03-28T18:05:32Z</time></trkpt><trkpt lat="45.595062913549135" lon="11.372492993862508"><ele>159.0</ele><time>2026-03-28T18:05:33Z</time></trkpt><trkpt lat="45.595146915569124" lon="11.372375669213366"><ele>159.0</ele><time>2026-03-28T18:05:34Z</time></trkpt><trkpt lat="45.595234365580275" lon="11.372255398875897"><ele>159.0</ele><time>2026-03-28T18:05:35Z</time></trkpt><trkpt lat="45.595324946486514" lon="11.37213137769753"><ele>159.25</ele><time>2026-03-28T18:05:36Z</time></trkpt><trkpt lat="45.59541635209759" lon="11.372005592755835"><ele>159.5</ele><time>2026-03-28T18:05:37Z</time></trkpt><trkpt lat="45.595507208070416" lon="11.371873829764544"><ele>159.75</ele><time>2026-03-28T18:05:38Z</time></trkpt><trkpt lat="45.59560240268322" lon="11.371746004038668"><ele>160.0</ele><time>2026-03-28T18:05:39Z</time></trkpt><trkpt lat="45.595689802177695" lon="11.371611894294547"><ele>160.0</ele><time>2026-03-28T18:05:40Z</time></trkpt><trkpt lat="45.59577552070916" lon="11.371491795489595"><ele>160.0</ele><time>2026-03-28T18:05:41Z</time></trkpt><trkpt lat="45.59585813669509" lon="11.371380300735922"><ele>160.0</ele><time>2026-03-28T18:05:42Z</time></trkpt><trkpt lat="45.5959425712854" lon="11.37126077518219"><ele>160.0</ele><time>2026-03-28T18:05:43Z</time></trkpt><trkpt lat="45.59602598769888" lon="11.371129811248991"><ele>160.0</ele><time>2026-03-28T18:05:44Z</time></trkpt><trkpt lat="45.59611076502998" lon="11.370994382416132"><ele>160.0</ele><time>2026-03-28T18:05:45Z</time></trkpt><trkpt lat="45.596194467358956" lon="11.370842758692133"><ele>160.0</ele><time>2026-03-28T18:05:46Z</time></trkpt><trkpt lat="45.59630889315795" lon="11.37069254242096"><ele>160.0</ele><time>2026-03-28T18:05:47Z</time></trkpt><trkpt lat="45.596417726621034" lon="11.370515868209841"><ele>160.66666666666669</ele><time>2026-03-28T18:05:48Z</time></trkpt><trkpt lat="45.596531996559285" lon="11.370330368755367"><ele>161.33333333333334</ele><time>2026-03-28T18:05:49Z</time></trkpt><trkpt lat="45.59661755075792" lon="11.370136787731125"><ele>162.0</ele><time>2026-03-28T18:05:50Z</time></trkpt><trkpt lat="45.59672236821461" lon="11.369978171702718"><ele>162.0</ele><time>2026-03-28T18:05:51Z</time></trkpt><trkpt lat="45.59681709212327" lon="11.369835566631185"><ele>162.0</ele><time>2026-03-28T18:05:52Z</time></trkpt><trkpt lat="45.596898319685174" lon="11.369709499036457"><ele>162.0</ele><time>2026-03-28T18:05:53Z</time></trkpt><trkpt lat="45.5969763526357" lon="11.36958519745937"><ele>162.0</ele><time>2026-03-28T18:05:54Z</time></trkpt><trkpt lat="45.59705390005691" lon="11.369453663805132"><ele>162.25</ele><time>2026-03-28T18:05:55Z</time></trkpt><trkpt lat="45.597125209798904" lon="11.36930964874497"><ele>162.5</ele><time>2026-03-28T18:05:56Z</time></trkpt><trkpt lat="45.59719829246046" lon="11.369162545280803"><ele>162.75</ele><time>2026-03-28T18:05:57Z</time></trkpt><trkpt lat="45.597274954257706" lon="11.369017610111571"><ele>163.0</ele><time>2026-03-28T18:05:58Z</time></trkpt><trkpt lat="45.59734960975673" lon="11.368862672287554"><ele>163.5</ele><time>2026-03-28T18:05:59Z</time></trkpt><trkpt lat="45.597422188892324" lon="11.368703234176591"><ele>164.0</ele><time>2026-03-28T18:06:00Z</time></trkpt><trkpt lat="45.597491842741306" lon="11.368550120143164"><ele>164.5</ele><time>2026-03-28T18:06:01Z</time></trkpt><trkpt lat="45.597556111643584" lon="11.368405255470469"><ele>165.0</ele><time>2026-03-28T18:06:02Z</time></trkpt><trkpt lat="45.59761890100886" lon="11.36826566143696"><ele>165.0</ele><time>2026-03-28T18:06:03Z</time></trkpt><trkpt lat="45.59769806549225" lon="11.368138146591216"><ele>165.0</ele><time>2026-03-28T18:06:04Z</time></trkpt><trkpt lat="45.59774556882686" lon="11.367983110029641"><ele>165.0</ele><time>2026-03-28T18:06:05Z</time></trkpt><trkpt lat="45.59780886456115" lon="11.367849065085089"><ele>165.0</ele><time>2026-03-28T18:06:06Z</time></trkpt><trkpt lat="45.59787031399776" lon="11.367715957214388"><ele>165.25</ele><time>2026-03-28T18:06:07Z</time></trkpt><trkpt lat="45.59793138303026" lon="11.367582337221075"><ele>165.5</ele><time>2026-03-28T18:06:08Z</time></trkpt><trkpt lat="45.598008916755816" lon="11.367454965195146"><ele>165.75</ele><time>2026-03-28T18:06:09Z</time></trkpt><trkpt lat="45.59807613856466" lon="11.367308017848702"><ele>166.0</ele><time>2026-03-28T18:06:10Z</time></trkpt><trkpt lat="45.5981315439975" lon="11.367120071076181"><ele>166.0</ele><time>2026-03-28T18:06:11Z</time></trkpt><trkpt lat="45.59820690215117" lon="11.36693555166082"><ele>166.0</ele><time>2026-03-28T18:06:12Z</time></trkpt><trkpt lat="45.59829015592048" lon="11.366753433162382"><ele>166.0</ele><time>2026-03-28T18:06:13Z</time></trkpt><trkpt lat="45.59837511428441" lon="11.366592256978697"><ele>166.0</ele><time>2026-03-28T18:06:14Z</time></trkpt><trkpt lat="45.59845607929577" lon="11.366446070097483"><ele>166.0</ele><time>2026-03-28T18:06:15Z</time></trkpt><trkpt lat="45.5985234183056" lon="11.36630227099582"><ele>166.0</ele><time>2026-03-28T18:06:16Z</time></trkpt><trkpt lat="45.59858413456878" lon="11.366169767282775"><ele>166.0</ele><time>2026-03-28T18:06:17Z</time></trkpt><trkpt lat="45.59863888984645" lon="11.366038800526933"><ele>166.0</ele><time>2026-03-28T18:06:18Z</time></trkpt><trkpt lat="45.5986909917247" lon="11.36593737712703"><ele>166.0</ele><time>2026-03-28T18:06:19Z</time></trkpt><trkpt lat="45.598745381499576" lon="11.36585715469977"><ele>166.0</ele><time>2026-03-28T18:06:20Z</time></trkpt><trkpt lat="45.598816014645664" lon="11.365813203500393"><ele>166.0</ele><time>2026-03-28T18:06:21Z</time></trkpt><trkpt lat="45.5988899025743" lon="11.365802695430304"><ele>166.0</ele><time>2026-03-28T18:06:22Z</time></trkpt><trkpt lat="45.598945345854005" lon="11.365754829437842"><ele>166.0</ele><time>2026-03-28T18:06:23Z</time></trkpt><trkpt lat="45.59898329399819" lon="11.365570150357632"><ele>166.0</ele><time>2026-03-28T18:06:25Z</time></trkpt><trkpt lat="45.5989791646202" lon="11.365455364962282"><ele>166.0</ele><time>2026-03-28T18:06:26Z</time></trkpt><trkpt lat="45.59898908700021" lon="11.365339036908285"><ele>165.60000000000002</ele><time>2026-03-28T18:06:27Z</time></trkpt><trkpt lat="45.599023716682474" lon="11.365217262685007"><ele>165.2</ele><time>2026-03-28T18:06:28Z</time></trkpt><trkpt lat="45.59908532817061" lon="11.365105062104746"><ele>164.8</ele><time>2026-03-28T18:06:29Z</time></trkpt><trkpt lat="45.59913268349254" lon="11.364985406195387"><ele>164.39999999999998</ele><time>2026-03-28T18:06:30Z</time></trkpt><trkpt lat="45.59917977456682" lon="11.364869572726008"><ele>164.0</ele><time>2026-03-28T18:06:31Z</time></trkpt><trkpt lat="45.59921913736871" lon="11.364729810007878"><ele>164.25</ele><time>2026-03-28T18:06:32Z</time></trkpt><trkpt lat="45.59928102076148" lon="11.364581033882462"><ele>164.5</ele><time>2026-03-28T18:06:33Z</time></trkpt><trkpt lat="45.59936430754894" lon="11.36442407222289"><ele>164.75</ele><time>2026-03-28T18:06:34Z</time></trkpt><trkpt lat="45.5994140319336" lon="11.364245373894624"><ele>165.0</ele><time>2026-03-28T18:06:35Z</time></trkpt><trkpt lat="45.59948861733893" lon="11.364073169043781"><ele>165.66666666666666</ele><time>2026-03-28T18:06:36Z</time></trkpt><trkpt lat="45.599569668057704" lon="11.363888371701341"><ele>166.33333333333331</ele><time>2026-03-28T18:06:37Z</time></trkpt><trkpt lat="45.59965237946479" lon="11.363684494572773"><ele>167.0</ele><time>2026-03-28T18:06:38Z</time></trkpt><trkpt lat="45.59973823189484" lon="11.363480263196562"><ele>167.33333333333331</ele><time>2026-03-28T18:06:39Z</time></trkpt><trkpt lat="45.59982272184528" lon="11.36327724967465"><ele>167.66666666666666</ele><time>2026-03-28T18:06:40Z</time></trkpt><trkpt lat="45.599908724956045" lon="11.363085362674124"><ele>168.0</ele><time>2026-03-28T18:06:40.999Z</time></trkpt><trkpt lat="45.5999877749041" lon="11.36288535429421"><ele>168.0</ele><time>2026-03-28T18:06:41.999Z</time></trkpt><trkpt lat="45.600060919550735" lon="11.36270305953546"><ele>168.0</ele><time>2026-03-28T18:06:42.999Z</time></trkpt><trkpt lat="45.60012573520611" lon="11.362543160160138"><ele>168.0</ele><time>2026-03-28T18:06:43.999Z</time></trkpt><trkpt lat="45.60018050636333" lon="11.362404691045759"><ele>168.0</ele><time>2026-03-28T18:06:44.999Z</time></trkpt><trkpt lat="45.60021327209292" lon="11.362263914016415"><ele>168.0</ele><time>2026-03-28T18:06:45.999Z</time></trkpt><trkpt lat="45.600209863663196" lon="11.36211938234465"><ele>168.0</ele><time>2026-03-28T18:06:46.999Z</time></trkpt><trkpt lat="45.60018384854018" lon="11.361982164312089"><ele>168.0</ele><time>2026-03-28T18:06:47.999Z</time></trkpt><trkpt lat="45.60015770097926" lon="11.361852768695341"><ele>168.0</ele><time>2026-03-28T18:06:48.999Z</time></trkpt><trkpt lat="45.60016390717058" lon="11.361730311926406"><ele>168.0</ele><time>2026-03-28T18:06:49.999Z</time></trkpt><trkpt lat="45.60017980978256" lon="11.36160419816317"><ele>168.0</ele><time>2026-03-28T18:06:50.999Z</time></trkpt><trkpt lat="45.60017630547453" lon="11.361487834232012"><ele>168.0</ele><time>2026-03-28T18:06:51.999Z</time></trkpt><trkpt lat="45.60013600929266" lon="11.361374314512359"><ele>168.0</ele><time>2026-03-28T18:06:52.999Z</time></trkpt><trkpt lat="45.600074594915796" lon="11.361296872440718"><ele>168.0</ele><time>2026-03-28T18:06:53.999Z</time></trkpt><trkpt lat="45.600000442123964" lon="11.361247906344511"><ele>168.0</ele><time>2026-03-28T18:06:54.999Z</time></trkpt><trkpt lat="45.59992371824712" lon="11.361219827788538"><ele>168.0</ele><time>2026-03-28T18:06:55.999Z</time></trkpt><trkpt lat="45.59984261197741" lon="11.36119751827762"><ele>168.0</ele><time>2026-03-28T18:06:56.999Z</time></trkpt><trkpt lat="45.59975441217935" lon="11.361170475760463"><ele>168.0</ele><time>2026-03-28T18:06:57.999Z</time></trkpt><trkpt lat="45.59966346557316" lon="11.36112432505256"><ele>168.0</ele><time>2026-03-28T18:06:58.999Z</time></trkpt><trkpt lat="45.59957369983507" lon="11.361066929269164"><ele>168.0</ele><time>2026-03-28T18:06:59.999Z</time></trkpt><trkpt lat="45.599487755926724" lon="11.361004388632404"><ele>168.0</ele><time>2026-03-28T18:07:00.999Z</time></trkpt><trkpt lat="45.599398614355195" lon="11.360944916095956"><ele>167.8</ele><time>2026-03-28T18:07:01.999Z</time></trkpt><trkpt lat="45.59930966348677" lon="11.360886024650881"><ele>167.60000000000002</ele><time>2026-03-28T18:07:02.999Z</time></trkpt><trkpt lat="45.5992253367409" lon="11.360824523256323"><ele>167.39999999999998</ele><time>2026-03-28T18:07:03.999Z</time></trkpt><trkpt lat="45.59914409024173" lon="11.360753243542833"><ele>167.2</ele><time>2026-03-28T18:07:04.999Z</time></trkpt><trkpt lat="45.59907357701775" lon="11.360663441414454"><ele>167.0</ele><time>2026-03-28T18:07:05.999Z</time></trkpt><trkpt lat="45.5990246075205" lon="11.360542244248428"><ele>166.8</ele><time>2026-03-28T18:07:06.999Z</time></trkpt><trkpt lat="45.5989900730259" lon="11.360410606678073"><ele>166.6</ele><time>2026-03-28T18:07:07.999Z</time></trkpt><trkpt lat="45.598970633673375" lon="11.360274099013594"><ele>166.4</ele><time>2026-03-28T18:07:08.999Z</time></trkpt><trkpt lat="45.59896809370726" lon="11.360126212828765"><ele>166.20000000000002</ele><time>2026-03-28T18:07:09.999Z</time></trkpt><trkpt lat="45.59897813744363" lon="11.359970335164865"><ele>166.0</ele><time>2026-03-28T18:07:10.999Z</time></trkpt><trkpt lat="45.59899853613732" lon="11.359815962036851"><ele>166.75</ele><time>2026-03-28T18:07:11.999Z</time></trkpt><trkpt lat="45.59903161317018" lon="11.359662989980153"><ele>167.5</ele><time>2026-03-28T18:07:12.999Z</time></trkpt><trkpt lat="45.5990897449259" lon="11.359520584773396"><ele>168.25</ele><time>2026-03-28T18:07:13.999Z</time></trkpt><trkpt lat="45.599166204575376" lon="11.359391805040953"><ele>169.0</ele><time>2026-03-28T18:07:14.999Z</time></trkpt><trkpt lat="45.59925247547286" lon="11.359285173457517"><ele>169.0</ele><time>2026-03-28T18:07:15.999Z</time></trkpt><trkpt lat="45.599330416445575" lon="11.359183493207544"><ele>169.0</ele><time>2026-03-28T18:07:16.999Z</time></trkpt><trkpt lat="45.59946702539045" lon="11.35915317938318"><ele>169.0</ele><time>2026-03-28T18:07:17.999Z</time></trkpt><trkpt lat="45.59958252363227" lon="11.3591059813173"><ele>169.0</ele><time>2026-03-28T18:07:18.999Z</time></trkpt><trkpt lat="45.59968886607215" lon="11.359045927834456"><ele>169.0</ele><time>2026-03-28T18:07:19.999Z</time></trkpt><trkpt lat="45.59978546706215" lon="11.358965052562885"><ele>169.0</ele><time>2026-03-28T18:07:20.999Z</time></trkpt><trkpt lat="45.59987740800338" lon="11.358865964689997"><ele>169.0</ele><time>2026-03-28T18:07:21.999Z</time></trkpt><trkpt lat="45.59996571660923" lon="11.358757548221417"><ele>169.0</ele><time>2026-03-28T18:07:23Z</time></trkpt><trkpt lat="45.60005643461733" lon="11.35863063974482"><ele>169.0</ele><time>2026-03-28T18:07:24Z</time></trkpt><trkpt lat="45.60014556788307" lon="11.358506476022418"><ele>169.0</ele><time>2026-03-28T18:07:25Z</time></trkpt><trkpt lat="45.600230079036265" lon="11.358371785927078"><ele>169.0</ele><time>2026-03-28T18:07:26Z</time></trkpt><trkpt lat="45.600329007893414" lon="11.358249885312997"><ele>169.0</ele><time>2026-03-28T18:07:27Z</time></trkpt><trkpt lat="45.600424260987445" lon="11.35810583532123"><ele>170.0</ele><time>2026-03-28T18:07:28Z</time></trkpt><trkpt lat="45.60051718845615" lon="11.35796530231546"><ele>171.0</ele><time>2026-03-28T18:07:29Z</time></trkpt><trkpt lat="45.60060142473705" lon="11.357837912902054"><ele>172.0</ele><time>2026-03-28T18:07:30Z</time></trkpt><trkpt lat="45.60068826585333" lon="11.357706584217032"><ele>173.0</ele><time>2026-03-28T18:07:31Z</time></trkpt><trkpt lat="45.60078449284652" lon="11.357561061419736"><ele>173.0</ele><time>2026-03-28T18:07:32Z</time></trkpt><trkpt lat="45.60089026180629" lon="11.357401108400131"><ele>173.0</ele><time>2026-03-28T18:07:33Z</time></trkpt><trkpt lat="45.6010083430835" lon="11.357222535624183"><ele>173.0</ele><time>2026-03-28T18:07:34Z</time></trkpt><trkpt lat="45.601135607462446" lon="11.357030075364985"><ele>173.0</ele><time>2026-03-28T18:07:35Z</time></trkpt><trkpt lat="45.60126889302299" lon="11.356828509359449"><ele>173.0</ele><time>2026-03-28T18:07:36Z</time></trkpt><trkpt lat="45.60139786432832" lon="11.35663295408044"><ele>173.0</ele><time>2026-03-28T18:07:37Z</time></trkpt><trkpt lat="45.60153188290243" lon="11.356429357112827"><ele>173.0</ele><time>2026-03-28T18:07:38Z</time></trkpt><trkpt lat="45.60165587879121" lon="11.356208458949274"><ele>173.0</ele><time>2026-03-28T18:07:39Z</time></trkpt><trkpt lat="45.60179245084898" lon="11.356003163294334"><ele>173.0</ele><time>2026-03-28T18:07:40Z</time></trkpt><trkpt lat="45.60192886068102" lon="11.355794811198125"><ele>173.66666666666666</ele><time>2026-03-28T18:07:41Z</time></trkpt><trkpt lat="45.60206597812887" lon="11.35558534217902"><ele>174.33333333333334</ele><time>2026-03-28T18:07:42Z</time></trkpt><trkpt lat="45.60220053717089" lon="11.355383810569085"><ele>175.0</ele><time>2026-03-28T18:07:43Z</time></trkpt><trkpt lat="45.602331934734806" lon="11.355187010299483"><ele>175.0</ele><time>2026-03-28T18:07:44Z</time></trkpt><trkpt lat="45.60247704209123" lon="11.354993500025842"><ele>175.0</ele><time>2026-03-28T18:07:45Z</time></trkpt><trkpt lat="45.602618173914955" lon="11.354785367267374"><ele>175.0</ele><time>2026-03-28T18:07:46Z</time></trkpt><trkpt lat="45.60274626503105" lon="11.354587637439398"><ele>175.0</ele><time>2026-03-28T18:07:47Z</time></trkpt><trkpt lat="45.60285787349971" lon="11.354402042604885"><ele>175.0</ele><time>2026-03-28T18:07:48Z</time></trkpt><trkpt lat="45.60295895906877" lon="11.354203085585176"><ele>175.0</ele><time>2026-03-28T18:07:49Z</time></trkpt><trkpt lat="45.60307035648437" lon="11.354007611469351"><ele>175.0</ele><time>2026-03-28T18:07:50Z</time></trkpt><trkpt lat="45.60318506180438" lon="11.35379951547058"><ele>175.0</ele><time>2026-03-28T18:07:51Z</time></trkpt><trkpt lat="45.6033048558951" lon="11.353598501970438"><ele>175.0</ele><time>2026-03-28T18:07:52Z</time></trkpt><trkpt lat="45.60341689308839" lon="11.35338790299867"><ele>175.0</ele><time>2026-03-28T18:07:53Z</time></trkpt><trkpt lat="45.603540784111864" lon="11.353194585660958"><ele>175.0</ele><time>2026-03-28T18:07:54Z</time></trkpt><trkpt lat="45.6036483440881" lon="11.352988146990738"><ele>175.0</ele><time>2026-03-28T18:07:55Z</time></trkpt><trkpt lat="45.603755883845274" lon="11.352781551541996"><ele>175.33333333333334</ele><time>2026-03-28T18:07:56Z</time></trkpt><trkpt lat="45.60386687234334" lon="11.352568486061068"><ele>175.66666666666666</ele><time>2026-03-28T18:07:57Z</time></trkpt><trkpt lat="45.60397980871729" lon="11.352352052865262"><ele>176.0</ele><time>2026-03-28T18:07:58Z</time></trkpt><trkpt lat="45.60408442287101" lon="11.352122845886601"><ele>176.0</ele><time>2026-03-28T18:07:59Z</time></trkpt><trkpt lat="45.60420416305135" lon="11.351901013901005"><ele>176.0</ele><time>2026-03-28T18:08:00Z</time></trkpt><trkpt lat="45.60432214086699" lon="11.351668130278442"><ele>176.0</ele><time>2026-03-28T18:08:01Z</time></trkpt><trkpt lat="45.60444431273964" lon="11.351433592318548"><ele>177.33333333333331</ele><time>2026-03-28T18:08:02Z</time></trkpt><trkpt lat="45.60458483553924" lon="11.351208411412383"><ele>178.66666666666666</ele><time>2026-03-28T18:08:03Z</time></trkpt><trkpt lat="45.604709677847474" lon="11.350973548485575"><ele>180.0</ele><time>2026-03-28T18:08:04Z</time></trkpt><trkpt lat="45.604829577036064" lon="11.35074728396383"><ele>179.66666666666666</ele><time>2026-03-28T18:08:05Z</time></trkpt><trkpt lat="45.604947858331386" lon="11.35052370382903"><ele>179.33333333333331</ele><time>2026-03-28T18:08:06Z</time></trkpt><trkpt lat="45.60506637312664" lon="11.350299682155885"><ele>179.0</ele><time>2026-03-28T18:08:07Z</time></trkpt><trkpt lat="45.605186519652754" lon="11.350072576378734"><ele>179.0</ele><time>2026-03-28T18:08:08Z</time></trkpt><trkpt lat="45.605307222104194" lon="11.349844844382305"><ele>179.0</ele><time>2026-03-28T18:08:09Z</time></trkpt><trkpt lat="45.6054291160642" lon="11.349615027020228"><ele>179.0</ele><time>2026-03-28T18:08:10Z</time></trkpt><trkpt lat="45.60555608317369" lon="11.349375865249932"><ele>179.0</ele><time>2026-03-28T18:08:11Z</time></trkpt><trkpt lat="45.605693133678315" lon="11.349119846245504"><ele>179.0</ele><time>2026-03-28T18:08:12Z</time></trkpt><trkpt lat="45.60584016900588" lon="11.348843968871211"><ele>179.0</ele><time>2026-03-28T18:08:13Z</time></trkpt><trkpt lat="45.60599219535713" lon="11.348552542548953"><ele>179.0</ele><time>2026-03-28T18:08:14Z</time></trkpt><trkpt lat="45.60615010650207" lon="11.34825008817577"><ele>180.0</ele><time>2026-03-28T18:08:15Z</time></trkpt><trkpt lat="45.606315266775184" lon="11.347939372969444"><ele>181.0</ele><time>2026-03-28T18:08:16Z</time></trkpt><trkpt lat="45.60648511477596" lon="11.347618929528396"><ele>181.0</ele><time>2026-03-28T18:08:17Z</time></trkpt><trkpt lat="45.6066509208297" lon="11.347306927916238"><ele>181.0</ele><time>2026-03-28T18:08:18Z</time></trkpt><trkpt lat="45.606816792162505" lon="11.34699361395628"><ele>181.0</ele><time>2026-03-28T18:08:19Z</time></trkpt><trkpt lat="45.60697065150626" lon="11.34666624698656"><ele>181.0</ele><time>2026-03-28T18:08:20Z</time></trkpt><trkpt lat="45.60714768918663" lon="11.346368324531044"><ele>181.0</ele><time>2026-03-28T18:08:21Z</time></trkpt><trkpt lat="45.60731175250276" lon="11.34605508065268"><ele>181.0</ele><time>2026-03-28T18:08:22Z</time></trkpt><trkpt lat="45.607476353041626" lon="11.345741183442657"><ele>181.0</ele><time>2026-03-28T18:08:23Z</time></trkpt><trkpt lat="45.60764502799926" lon="11.345421541844196"><ele>181.0</ele><time>2026-03-28T18:08:24Z</time></trkpt><trkpt lat="45.60781436409051" lon="11.3451048381598"><ele>183.0</ele><time>2026-03-28T18:08:25Z</time></trkpt><trkpt lat="45.60798133991511" lon="11.344791532581787"><ele>185.0</ele><time>2026-03-28T18:08:26Z</time></trkpt><trkpt lat="45.60813770235348" lon="11.344468976004103"><ele>185.0</ele><time>2026-03-28T18:08:27.022Z</time></trkpt><trkpt lat="45.60829907121872" lon="11.344178829281573"><ele>185.0</ele><time>2026-03-28T18:08:28.016Z</time></trkpt><trkpt lat="45.60845792693503" lon="11.343893671383647"><ele>185.0</ele><time>2026-03-28T18:08:29.019Z</time></trkpt><trkpt lat="45.60861321275699" lon="11.343619210342519"><ele>185.0</ele><time>2026-03-28T18:08:30.021Z</time></trkpt><trkpt lat="45.60876916012912" lon="11.343347834357465"><ele>189.0</ele><time>2026-03-28T18:08:31.024Z</time></trkpt><trkpt lat="45.61031644519319" lon="11.339987890617802"><ele>191.0</ele><time>2026-03-28T18:08:35.056Z</time></trkpt><trkpt lat="45.6105378" lon="11.3392118"><ele>191.0</ele><time>2026-03-28T18:08:36.056Z</time></trkpt><trkpt lat="45.610760366586604" lon="11.338566038768121"><ele>191.0</ele><time>2026-03-28T18:08:46.999Z</time></trkpt><trkpt lat="45.610866658068446" lon="11.33823538905484"><ele>191.0</ele><time>2026-03-28T18:08:47.999Z</time></trkpt><trkpt lat="45.61101573244686" lon="11.337805623583304"><ele>190.5</ele><time>2026-03-28T18:08:48.999Z</time></trkpt><trkpt lat="45.611125100057045" lon="11.337483113241609"><ele>190.0</ele><time>2026-03-28T18:08:49.999Z</time></trkpt><trkpt lat="45.61122558101754" lon="11.337185470667329"><ele>191.0</ele><time>2026-03-28T18:08:50.999Z</time></trkpt><trkpt lat="45.6113260213867" lon="11.336889372746995"><ele>192.0</ele><time>2026-03-28T18:08:51.999Z</time></trkpt><trkpt lat="45.61143189709444" lon="11.336615365808543"><ele>193.0</ele><time>2026-03-28T18:08:52.999Z</time></trkpt><trkpt lat="45.61154795941303" lon="11.336342672562006"><ele>193.0</ele><time>2026-03-28T18:08:53.999Z</time></trkpt><trkpt lat="45.61166928897451" lon="11.336066335845741"><ele>193.0</ele><time>2026-03-28T18:08:54.999Z</time></trkpt><trkpt lat="45.61178938163238" lon="11.335806845153847"><ele>193.0</ele><time>2026-03-28T18:08:55.999Z</time></trkpt><trkpt lat="45.61191001722943" lon="11.335554302796258"><ele>193.33333333333331</ele><time>2026-03-28T18:08:56.999Z</time></trkpt><trkpt lat="45.612029733355435" lon="11.335307051531942"><ele>193.66666666666669</ele><time>2026-03-28T18:08:57.999Z</time></trkpt><trkpt lat="45.61214905227367" lon="11.335060621861327"><ele>194.0</ele><time>2026-03-28T18:08:58.999Z</time></trkpt><trkpt lat="45.61226763613761" lon="11.334815978014182"><ele>194.66666666666669</ele><time>2026-03-28T18:08:59.999Z</time></trkpt><trkpt lat="45.6123831767287" lon="11.334577612286449"><ele>195.33333333333331</ele><time>2026-03-28T18:09:00.999Z</time></trkpt><trkpt lat="45.6124919481722" lon="11.334353211328962"><ele>196.0</ele><time>2026-03-28T18:09:01.999Z</time></trkpt><trkpt lat="45.61259968795431" lon="11.334128549956366"><ele>196.0</ele><time>2026-03-28T18:09:02.999Z</time></trkpt><trkpt lat="45.61270782857007" lon="11.333902801360075"><ele>196.0</ele><time>2026-03-28T18:09:03.999Z</time></trkpt><trkpt lat="45.612815072063434" lon="11.33367892517641"><ele>196.0</ele><time>2026-03-28T18:09:04.999Z</time></trkpt><trkpt lat="45.61292199548506" lon="11.333455716958165"><ele>196.33333333333331</ele><time>2026-03-28T18:09:05.999Z</time></trkpt><trkpt lat="45.61303178888353" lon="11.33323059017745"><ele>196.66666666666669</ele><time>2026-03-28T18:09:06.999Z</time></trkpt><trkpt lat="45.61313811985494" lon="11.33301132309264"><ele>197.0</ele><time>2026-03-28T18:09:07.999Z</time></trkpt><trkpt lat="45.61323579166989" lon="11.332799302101057"><ele>196.66666666666669</ele><time>2026-03-28T18:09:08.999Z</time></trkpt><trkpt lat="45.61332468168326" lon="11.332591534241185"><ele>196.33333333333331</ele><time>2026-03-28T18:09:09.999Z</time></trkpt><trkpt lat="45.61340526517827" lon="11.332387560289037"><ele>196.0</ele><time>2026-03-28T18:09:10.999Z</time></trkpt><trkpt lat="45.61347808981489" lon="11.332189075362923"><ele>196.0</ele><time>2026-03-28T18:09:11.999Z</time></trkpt><trkpt lat="45.61354170327185" lon="11.331997762845836"><ele>196.0</ele><time>2026-03-28T18:09:12.999Z</time></trkpt><trkpt lat="45.613598274842204" lon="11.33181570630718"><ele>196.0</ele><time>2026-03-28T18:09:13.999Z</time></trkpt><trkpt lat="45.61364941537433" lon="11.331646955448067"><ele>196.0</ele><time>2026-03-28T18:09:14.999Z</time></trkpt><trkpt lat="45.61369704787166" lon="11.331489780153586"><ele>196.0</ele><time>2026-03-28T18:09:15.999Z</time></trkpt><trkpt lat="45.613740490539385" lon="11.331343340094264"><ele>196.0</ele><time>2026-03-28T18:09:16.999Z</time></trkpt><trkpt lat="45.61376626594773" lon="11.331220983225492"><ele>196.0</ele><time>2026-03-28T18:09:17.999Z</time></trkpt><trkpt lat="45.61383100892019" lon="11.331122896921986"><ele>196.0</ele><time>2026-03-28T18:09:18.999Z</time></trkpt><trkpt lat="45.61390481931827" lon="11.331039579527545"><ele>196.0</ele><time>2026-03-28T18:09:19.999Z</time></trkpt><trkpt lat="45.61398516924263" lon="11.330958397710999"><ele>196.0</ele><time>2026-03-28T18:09:20.999Z</time></trkpt><trkpt lat="45.61406897334911" lon="11.330877473362996"><ele>196.0</ele><time>2026-03-28T18:09:21.999Z</time></trkpt><trkpt lat="45.61416089386558" lon="11.330827126434999"><ele>196.0</ele><time>2026-03-28T18:09:22.999Z</time></trkpt><trkpt lat="45.61423622893619" lon="11.330737617934398"><ele>196.0</ele><time>2026-03-28T18:09:23.999Z</time></trkpt><trkpt lat="45.6142870469025" lon="11.330640032928267"><ele>196.0</ele><time>2026-03-28T18:09:24.999Z</time></trkpt><trkpt lat="45.61431745567465" lon="11.330524358129752"><ele>196.25</ele><time>2026-03-28T18:09:25.999Z</time></trkpt><trkpt lat="45.614385425903" lon="11.330415119828677"><ele>196.5</ele><time>2026-03-28T18:09:26.999Z</time></trkpt><trkpt lat="45.61447406814683" lon="11.33031203635385"><ele>196.75</ele><time>2026-03-28T18:09:27.999Z</time></trkpt><trkpt lat="45.614582917584094" lon="11.330213668028696"><ele>197.0</ele><time>2026-03-28T18:09:29Z</time></trkpt><trkpt lat="45.614713820998055" lon="11.330136209496079"><ele>197.25</ele><time>2026-03-28T18:09:30Z</time></trkpt><trkpt lat="45.61484723774871" lon="11.33007291840551"><ele>197.5</ele><time>2026-03-28T18:09:31Z</time></trkpt><trkpt lat="45.61497520347413" lon="11.330014015866679"><ele>197.75</ele><time>2026-03-28T18:09:32Z</time></trkpt><trkpt lat="45.615090898778796" lon="11.329954241300822"><ele>198.0</ele><time>2026-03-28T18:09:33Z</time></trkpt><trkpt lat="45.61519565721747" lon="11.329913293869106"><ele>198.0</ele><time>2026-03-28T18:09:34Z</time></trkpt><trkpt lat="45.61528811667253" lon="11.329912260846818"><ele>198.0</ele><time>2026-03-28T18:09:35Z</time></trkpt><trkpt lat="45.6153733995832" lon="11.329959230114218"><ele>198.0</ele><time>2026-03-28T18:09:36Z</time></trkpt><trkpt lat="45.615457502669436" lon="11.330006333473023"><ele>198.0</ele><time>2026-03-28T18:09:37Z</time></trkpt><trkpt lat="45.61554228929507" lon="11.330007160405955"><ele>198.0</ele><time>2026-03-28T18:09:38Z</time></trkpt><trkpt lat="45.61562209227417" lon="11.329955576934685"><ele>198.0</ele><time>2026-03-28T18:09:39Z</time></trkpt><trkpt lat="45.6156999237763" lon="11.32987945002408"><ele>198.25</ele><time>2026-03-28T18:09:40Z</time></trkpt><trkpt lat="45.61573827855898" lon="11.329727923525544"><ele>198.5</ele><time>2026-03-28T18:09:41Z</time></trkpt><trkpt lat="45.61578322231494" lon="11.32957125723082"><ele>198.75</ele><time>2026-03-28T18:09:42Z</time></trkpt><trkpt lat="45.61584683698538" lon="11.32940789406899"><ele>199.0</ele><time>2026-03-28T18:09:43Z</time></trkpt><trkpt lat="45.615938692406026" lon="11.329265473876488"><ele>199.5</ele><time>2026-03-28T18:09:44Z</time></trkpt><trkpt lat="45.61603854750702" lon="11.329138966745887"><ele>200.0</ele><time>2026-03-28T18:09:45Z</time></trkpt><trkpt lat="45.61614304908481" lon="11.328995651771207"><ele>200.5</ele><time>2026-03-28T18:09:46Z</time></trkpt><trkpt lat="45.61624918801606" lon="11.32882703859397"><ele>201.0</ele><time>2026-03-28T18:09:47Z</time></trkpt><trkpt lat="45.616352205930966" lon="11.328634670453063"><ele>201.66666666666669</ele><time>2026-03-28T18:09:48Z</time></trkpt><trkpt lat="45.616456289308346" lon="11.32842390491384"><ele>202.33333333333334</ele><time>2026-03-28T18:09:49Z</time></trkpt><trkpt lat="45.61656152694196" lon="11.328200726488612"><ele>203.0</ele><time>2026-03-28T18:09:50Z</time></trkpt><trkpt lat="45.61666352334848" lon="11.327984969119228"><ele>203.0</ele><time>2026-03-28T18:09:51Z</time></trkpt><trkpt lat="45.61677528003266" lon="11.327755320868619"><ele>203.0</ele><time>2026-03-28T18:09:52Z</time></trkpt><trkpt lat="45.616895021310654" lon="11.327521232913275"><ele>203.0</ele><time>2026-03-28T18:09:53Z</time></trkpt><trkpt lat="45.617011540805414" lon="11.327288272201367"><ele>204.66666666666669</ele><time>2026-03-28T18:09:54Z</time></trkpt><trkpt lat="45.61712199784549" lon="11.32706225235303"><ele>206.33333333333331</ele><time>2026-03-28T18:09:55Z</time></trkpt><trkpt lat="45.61724461861184" lon="11.32685304745993"><ele>208.0</ele><time>2026-03-28T18:09:56Z</time></trkpt><trkpt lat="45.61735441597712" lon="11.326629708024464"><ele>208.0</ele><time>2026-03-28T18:09:57Z</time></trkpt><trkpt lat="45.61745412222039" lon="11.326392459927398"><ele>208.0</ele><time>2026-03-28T18:09:58Z</time></trkpt><trkpt lat="45.61756985591774" lon="11.326172459052922"><ele>208.0</ele><time>2026-03-28T18:09:59Z</time></trkpt><trkpt lat="45.61768143985072" lon="11.325951621221854"><ele>208.0</ele><time>2026-03-28T18:10:00Z</time></trkpt><trkpt lat="45.61778980080457" lon="11.325731163083349"><ele>208.0</ele><time>2026-03-28T18:10:01Z</time></trkpt><trkpt lat="45.617890785425175" lon="11.325519447510015"><ele>208.0</ele><time>2026-03-28T18:10:02Z</time></trkpt><trkpt lat="45.61798701348625" lon="11.325317585639384"><ele>208.33333333333331</ele><time>2026-03-28T18:10:03Z</time></trkpt><trkpt lat="45.618081505662424" lon="11.325122643423905"><ele>208.66666666666669</ele><time>2026-03-28T18:10:04Z</time></trkpt><trkpt lat="45.61817221276667" lon="11.324936396033042"><ele>209.0</ele><time>2026-03-28T18:10:05Z</time></trkpt><trkpt lat="45.61825619524988" lon="11.324751802407865"><ele>208.75</ele><time>2026-03-28T18:10:06Z</time></trkpt><trkpt lat="45.618342290138884" lon="11.32457352835739"><ele>208.5</ele><time>2026-03-28T18:10:07Z</time></trkpt><trkpt lat="45.618440140261214" lon="11.324422070010929"><ele>208.25</ele><time>2026-03-28T18:10:08Z</time></trkpt><trkpt lat="45.61852120446378" lon="11.324263236449312"><ele>208.0</ele><time>2026-03-28T18:10:09Z</time></trkpt><trkpt lat="45.61859652943587" lon="11.32411421547615"><ele>208.5</ele><time>2026-03-28T18:10:10Z</time></trkpt><trkpt lat="45.61865616176194" lon="11.323954032257205"><ele>209.0</ele><time>2026-03-28T18:10:11Z</time></trkpt><trkpt lat="45.61872388917095" lon="11.323815405335807"><ele>209.5</ele><time>2026-03-28T18:10:12Z</time></trkpt><trkpt lat="45.61878965894659" lon="11.32368582559843"><ele>210.0</ele><time>2026-03-28T18:10:13Z</time></trkpt><trkpt lat="45.61885467134294" lon="11.323556088562768"><ele>210.25</ele><time>2026-03-28T18:10:14Z</time></trkpt><trkpt lat="45.61891932629421" lon="11.32342237391555"><ele>210.5</ele><time>2026-03-28T18:10:15Z</time></trkpt><trkpt lat="45.61898515327671" lon="11.323291103906666"><ele>210.75</ele><time>2026-03-28T18:10:16Z</time></trkpt><trkpt lat="45.619049677557115" lon="11.323155260222364"><ele>211.0</ele><time>2026-03-28T18:10:17Z</time></trkpt><trkpt lat="45.61911164081494" lon="11.323028391216905"><ele>210.60000000000002</ele><time>2026-03-28T18:10:18Z</time></trkpt><trkpt lat="45.619171999167094" lon="11.322906731885631"><ele>210.2</ele><time>2026-03-28T18:10:19Z</time></trkpt><trkpt lat="45.61922903501605" lon="11.322787961361623"><ele>209.8</ele><time>2026-03-28T18:10:20Z</time></trkpt><trkpt lat="45.619283224745104" lon="11.322677941303894"><ele>209.39999999999998</ele><time>2026-03-28T18:10:21Z</time></trkpt><trkpt lat="45.619335914456215" lon="11.322573592824236"><ele>209.0</ele><time>2026-03-28T18:10:22Z</time></trkpt><trkpt lat="45.61938388156127" lon="11.32247678257012"><ele>209.00000000000003</ele><time>2026-03-28T18:10:23Z</time></trkpt><trkpt lat="45.61942902512229" lon="11.322380735401454"><ele>209.0</ele><time>2026-03-28T18:10:24Z</time></trkpt><trkpt lat="45.61946936512082" lon="11.322276384052216"><ele>209.0</ele><time>2026-03-28T18:10:25Z</time></trkpt><trkpt lat="45.61951060456607" lon="11.322171588153797"><ele>209.0</ele><time>2026-03-28T18:10:26Z</time></trkpt><trkpt lat="45.619554744445196" lon="11.322066409319483"><ele>209.00000000000003</ele><time>2026-03-28T18:10:27Z</time></trkpt><trkpt lat="45.61960454732361" lon="11.321963632282205"><ele>209.0</ele><time>2026-03-28T18:10:28Z</time></trkpt><trkpt lat="45.61965752438684" lon="11.32186637989574"><ele>209.2</ele><time>2026-03-28T18:10:29Z</time></trkpt><trkpt lat="45.61971347216577" lon="11.321769939662362"><ele>209.39999999999998</ele><time>2026-03-28T18:10:30Z</time></trkpt><trkpt lat="45.61977045074136" lon="11.32167430265436"><ele>209.6</ele><time>2026-03-28T18:10:31Z</time></trkpt><trkpt lat="45.619826940882746" lon="11.321571173048008"><ele>209.8</ele><time>2026-03-28T18:10:32Z</time></trkpt><trkpt lat="45.61987894827154" lon="11.321464069682158"><ele>210.0</ele><time>2026-03-28T18:10:33Z</time></trkpt><trkpt lat="45.619932894245636" lon="11.321355933899444"><ele>210.0</ele><time>2026-03-28T18:10:34Z</time></trkpt><trkpt lat="45.619987100882575" lon="11.321253036778042"><ele>210.0</ele><time>2026-03-28T18:10:35Z</time></trkpt><trkpt lat="45.62004423829489" lon="11.321150071224675"><ele>210.0</ele><time>2026-03-28T18:10:36Z</time></trkpt><trkpt lat="45.62010295776039" lon="11.321042563689785"><ele>210.0</ele><time>2026-03-28T18:10:37Z</time></trkpt><trkpt lat="45.62016064330462" lon="11.320935032228022"><ele>210.0</ele><time>2026-03-28T18:10:38Z</time></trkpt><trkpt lat="45.62021378854785" lon="11.32081885927213"><ele>210.0</ele><time>2026-03-28T18:10:39Z</time></trkpt><trkpt lat="45.62026879072211" lon="11.320701561674715"><ele>210.0</ele><time>2026-03-28T18:10:40Z</time></trkpt><trkpt lat="45.620327712783194" lon="11.320580368639531"><ele>210.0</ele><time>2026-03-28T18:10:41Z</time></trkpt><trkpt lat="45.62039447245961" lon="11.320453783741995"><ele>210.0</ele><time>2026-03-28T18:10:42Z</time></trkpt><trkpt lat="45.620468235157325" lon="11.320320393596203"><ele>210.0</ele><time>2026-03-28T18:10:43Z</time></trkpt><trkpt lat="45.62054466226296" lon="11.320188452343546"><ele>210.5</ele><time>2026-03-28T18:10:44Z</time></trkpt><trkpt lat="45.620623516702906" lon="11.32006328796208"><ele>211.0</ele><time>2026-03-28T18:10:45Z</time></trkpt><trkpt lat="45.62070215355658" lon="11.319938735797828"><ele>211.5</ele><time>2026-03-28T18:10:46Z</time></trkpt><trkpt lat="45.62078776102046" lon="11.319820799587927"><ele>212.0</ele><time>2026-03-28T18:10:47Z</time></trkpt><trkpt lat="45.620875755885294" lon="11.319705998902842"><ele>212.25</ele><time>2026-03-28T18:10:48Z</time></trkpt><trkpt lat="45.6209531825033" lon="11.319590614605639"><ele>212.5</ele><time>2026-03-28T18:10:49Z</time></trkpt><trkpt lat="45.621038456138685" lon="11.319484876081447"><ele>212.75</ele><time>2026-03-28T18:10:50Z</time></trkpt><trkpt lat="45.62112688070502" lon="11.319380523562456"><ele>213.0</ele><time>2026-03-28T18:10:51Z</time></trkpt><trkpt lat="45.621205788892446" lon="11.319255638057557"><ele>213.0</ele><time>2026-03-28T18:10:52Z</time></trkpt><trkpt lat="45.62129295319596" lon="11.319145986857588"><ele>213.0</ele><time>2026-03-28T18:10:53Z</time></trkpt><trkpt lat="45.621378386757726" lon="11.319032365591273"><ele>213.0</ele><time>2026-03-28T18:10:53.999Z</time></trkpt><trkpt lat="45.62146280532956" lon="11.318917778890937"><ele>213.0</ele><time>2026-03-28T18:10:54.999Z</time></trkpt><trkpt lat="45.621548307370716" lon="11.318813257561153"><ele>213.0</ele><time>2026-03-28T18:10:55.999Z</time></trkpt><trkpt lat="45.62162665487898" lon="11.318698753797953"><ele>213.0</ele><time>2026-03-28T18:10:56.999Z</time></trkpt><trkpt lat="45.6217028563972" lon="11.318587658131804"><ele>213.0</ele><time>2026-03-28T18:10:57.999Z</time></trkpt><trkpt lat="45.62178082482766" lon="11.318476899304843"><ele>213.0</ele><time>2026-03-28T18:10:58.999Z</time></trkpt><trkpt lat="45.62186160948022" lon="11.318372834132802"><ele>213.0</ele><time>2026-03-28T18:10:59.999Z</time></trkpt><trkpt lat="45.62194027661786" lon="11.318262243411805"><ele>213.0</ele><time>2026-03-28T18:11:00.999Z</time></trkpt><trkpt lat="45.622020005973134" lon="11.318155684955705"><ele>213.0</ele><time>2026-03-28T18:11:01.999Z</time></trkpt><trkpt lat="45.622093969342494" lon="11.318049758089229"><ele>213.0</ele><time>2026-03-28T18:11:02.999Z</time></trkpt><trkpt lat="45.62216510515883" lon="11.31795432370016"><ele>213.0</ele><time>2026-03-28T18:11:03.999Z</time></trkpt><trkpt lat="45.62223640154898" lon="11.317870208311758"><ele>213.0</ele><time>2026-03-28T18:11:04.999Z</time></trkpt><trkpt lat="45.62230631989477" lon="11.317785953669429"><ele>213.2</ele><time>2026-03-28T18:11:05.999Z</time></trkpt><trkpt lat="45.62237260244755" lon="11.317698983348544"><ele>213.4</ele><time>2026-03-28T18:11:06.999Z</time></trkpt><trkpt lat="45.62244326912249" lon="11.317625379318923"><ele>213.59999999999997</ele><time>2026-03-28T18:11:07.999Z</time></trkpt><trkpt lat="45.622515300341746" lon="11.31755452897257"><ele>213.79999999999998</ele><time>2026-03-28T18:11:08.999Z</time></trkpt><trkpt lat="45.62258426866817" lon="11.31746874842224"><ele>214.0</ele><time>2026-03-28T18:11:09.999Z</time></trkpt><trkpt lat="45.62264974550162" lon="11.317346478137114"><ele>214.25</ele><time>2026-03-28T18:11:10.999Z</time></trkpt><trkpt lat="45.622723050974535" lon="11.31722564495676"><ele>214.5</ele><time>2026-03-28T18:11:11.999Z</time></trkpt><trkpt lat="45.622804813224356" lon="11.317115305415182"><ele>214.75</ele><time>2026-03-28T18:11:12.999Z</time></trkpt><trkpt lat="45.62290256161509" lon="11.317005045881277"><ele>215.0</ele><time>2026-03-28T18:11:13.999Z</time></trkpt><trkpt lat="45.62298929689955" lon="11.316832200936462"><ele>215.0</ele><time>2026-03-28T18:11:14.999Z</time></trkpt><trkpt lat="45.62310806477762" lon="11.316671154013548"><ele>215.0</ele><time>2026-03-28T18:11:15.999Z</time></trkpt><trkpt lat="45.62324877119677" lon="11.316494152976114"><ele>215.0</ele><time>2026-03-28T18:11:16.999Z</time></trkpt><trkpt lat="45.623382204678116" lon="11.316343954274185"><ele>215.66666666666669</ele><time>2026-03-28T18:11:17.999Z</time></trkpt><trkpt lat="45.62351611230136" lon="11.316168547978021"><ele>216.33333333333331</ele><time>2026-03-28T18:11:18.999Z</time></trkpt><trkpt lat="45.623652873566584" lon="11.315983231173593"><ele>217.0</ele><time>2026-03-28T18:11:19.999Z</time></trkpt><trkpt lat="45.623790480405866" lon="11.31579711315803"><ele>217.0</ele><time>2026-03-28T18:11:20.999Z</time></trkpt><trkpt lat="45.62392781016225" lon="11.315602945093595"><ele>217.0</ele><time>2026-03-28T18:11:21.999Z</time></trkpt><trkpt lat="45.62406865803834" lon="11.315401321660465"><ele>217.0</ele><time>2026-03-28T18:11:22.999Z</time></trkpt><trkpt lat="45.62421138621276" lon="11.315198322732668"><ele>216.66666666666666</ele><time>2026-03-28T18:11:23.999Z</time></trkpt><trkpt lat="45.624359111915346" lon="11.314986073413289"><ele>216.33333333333331</ele><time>2026-03-28T18:11:24.999Z</time></trkpt><trkpt lat="45.624514655976654" lon="11.314766543236606"><ele>216.0</ele><time>2026-03-28T18:11:25.999Z</time></trkpt><trkpt lat="45.62470849772142" lon="11.314593177446284"><ele>216.0</ele><time>2026-03-28T18:11:26.999Z</time></trkpt><trkpt lat="45.62488283206194" lon="11.314384876003187"><ele>216.0</ele><time>2026-03-28T18:11:27.999Z</time></trkpt><trkpt lat="45.625058766466104" lon="11.314183720378134"><ele>216.0</ele><time>2026-03-28T18:11:28.999Z</time></trkpt><trkpt lat="45.625234097543924" lon="11.313993913546389"><ele>216.0</ele><time>2026-03-28T18:11:29.999Z</time></trkpt><trkpt lat="45.62539688663571" lon="11.313795367220264"><ele>216.0</ele><time>2026-03-28T18:11:30.999Z</time></trkpt><trkpt lat="45.625569386441605" lon="11.313626076384702"><ele>217.0</ele><time>2026-03-28T18:11:31.999Z</time></trkpt><trkpt lat="45.625731377678676" lon="11.3134591979242"><ele>218.0</ele><time>2026-03-28T18:11:32.999Z</time></trkpt><trkpt lat="45.62588989874588" lon="11.313288161750439"><ele>219.0</ele><time>2026-03-28T18:11:33.999Z</time></trkpt><trkpt lat="45.62604875066863" lon="11.31311994190371"><ele>220.33333333333331</ele><time>2026-03-28T18:11:35Z</time></trkpt><trkpt lat="45.626209760023954" lon="11.312946146397922"><ele>221.66666666666666</ele><time>2026-03-28T18:11:36Z</time></trkpt><trkpt lat="45.62637112262583" lon="11.31277400147661"><ele>223.0</ele><time>2026-03-28T18:11:37Z</time></trkpt><trkpt lat="45.626534902182456" lon="11.312605337153258"><ele>223.0</ele><time>2026-03-28T18:11:38Z</time></trkpt><trkpt lat="45.62670445258656" lon="11.312439117828939"><ele>223.0</ele><time>2026-03-28T18:11:39Z</time></trkpt><trkpt lat="45.62687959852823" lon="11.312272455368358"><ele>223.0</ele><time>2026-03-28T18:11:40Z</time></trkpt><trkpt lat="45.62706207484476" lon="11.312115151362168"><ele>223.0</ele><time>2026-03-28T18:11:41Z</time></trkpt><trkpt lat="45.62724823063686" lon="11.31196154217316"><ele>223.0</ele><time>2026-03-28T18:11:42Z</time></trkpt><trkpt lat="45.62743733030745" lon="11.311817189410663"><ele>223.0</ele><time>2026-03-28T18:11:43Z</time></trkpt><trkpt lat="45.62762469001054" lon="11.311684131370571"><ele>223.33333333333331</ele><time>2026-03-28T18:11:44Z</time></trkpt><trkpt lat="45.627811700768525" lon="11.311562775410893"><ele>223.66666666666669</ele><time>2026-03-28T18:11:45Z</time></trkpt><trkpt lat="45.62799279954913" lon="11.311448062158362"><ele>224.0</ele><time>2026-03-28T18:11:46Z</time></trkpt><trkpt lat="45.6281707892729" lon="11.31133393547609"><ele>224.0</ele><time>2026-03-28T18:11:47Z</time></trkpt><trkpt lat="45.62834839985123" lon="11.311220973912098"><ele>224.0</ele><time>2026-03-28T18:11:48Z</time></trkpt><trkpt lat="45.6285267653313" lon="11.31110769004219"><ele>224.0</ele><time>2026-03-28T18:11:49Z</time></trkpt><trkpt lat="45.62869845631518" lon="11.310999124833943"><ele>225.0</ele><time>2026-03-28T18:11:50Z</time></trkpt><trkpt lat="45.62886315743208" lon="11.310892480443236"><ele>226.0</ele><time>2026-03-28T18:11:51Z</time></trkpt><trkpt lat="45.62901955594982" lon="11.310795343130568"><ele>227.0</ele><time>2026-03-28T18:11:52Z</time></trkpt><trkpt lat="45.62916944984212" lon="11.31070163928662"><ele>227.0</ele><time>2026-03-28T18:11:53Z</time></trkpt><trkpt lat="45.62931566350263" lon="11.310613795246573"><ele>227.0</ele><time>2026-03-28T18:11:54Z</time></trkpt><trkpt lat="45.629459713143945" lon="11.310523133702691"><ele>227.0</ele><time>2026-03-28T18:11:55Z</time></trkpt><trkpt lat="45.62960477947964" lon="11.310435457540859"><ele>227.5</ele><time>2026-03-28T18:11:56Z</time></trkpt><trkpt lat="45.629746985924996" lon="11.310346008592255"><ele>228.0</ele><time>2026-03-28T18:11:57Z</time></trkpt><trkpt lat="45.629879276762786" lon="11.310261022393664"><ele>228.5</ele><time>2026-03-28T18:11:58Z</time></trkpt><trkpt lat="45.630015394771334" lon="11.310174652060045"><ele>229.0</ele><time>2026-03-28T18:11:59Z</time></trkpt><trkpt lat="45.6301541842121" lon="11.31008305700716"><ele>229.0</ele><time>2026-03-28T18:12:00Z</time></trkpt><trkpt lat="45.63029351056256" lon="11.309990518634583"><ele>229.0</ele><time>2026-03-28T18:12:01Z</time></trkpt><trkpt lat="45.630433311713794" lon="11.309897420521215"><ele>229.0</ele><time>2026-03-28T18:12:02Z</time></trkpt><trkpt lat="45.63056433957696" lon="11.309813937792685"><ele>229.0</ele><time>2026-03-28T18:12:03Z</time></trkpt><trkpt lat="45.630687267881775" lon="11.309736759016225"><ele>229.0</ele><time>2026-03-28T18:12:04Z</time></trkpt><trkpt lat="45.63080323653532" lon="11.309652695259906"><ele>229.0</ele><time>2026-03-28T18:12:05Z</time></trkpt><trkpt lat="45.630917377055624" lon="11.309567366884798"><ele>229.0</ele><time>2026-03-28T18:12:06Z</time></trkpt><trkpt lat="45.63102713123492" lon="11.30947367461356"><ele>229.0</ele><time>2026-03-28T18:12:07Z</time></trkpt><trkpt lat="45.63112879140795" lon="11.309383112481322"><ele>229.0</ele><time>2026-03-28T18:12:08Z</time></trkpt><trkpt lat="45.63122471212381" lon="11.30929321359857"><ele>229.0</ele><time>2026-03-28T18:12:09Z</time></trkpt><trkpt lat="45.63131723610475" lon="11.309201604015922"><ele>229.0</ele><time>2026-03-28T18:12:10Z</time></trkpt><trkpt lat="45.631402357022466" lon="11.309107124349001"><ele>229.0</ele><time>2026-03-28T18:12:11Z</time></trkpt><trkpt lat="45.63148451435287" lon="11.309007579012963"><ele>228.99999999999997</ele><time>2026-03-28T18:12:12Z</time></trkpt><trkpt lat="45.631550062190364" lon="11.308896879333076"><ele>228.99999999999997</ele><time>2026-03-28T18:12:13Z</time></trkpt><trkpt lat="45.631617683890326" lon="11.308793466335398"><ele>229.0</ele><time>2026-03-28T18:12:14Z</time></trkpt><trkpt lat="45.63164639510632" lon="11.308636291327307"><ele>229.0</ele><time>2026-03-28T18:12:15Z</time></trkpt><trkpt lat="45.631634604963274" lon="11.30847541718243"><ele>228.2</ele><time>2026-03-28T18:12:16Z</time></trkpt><trkpt lat="45.63163263926223" lon="11.30832236581656"><ele>227.39999999999998</ele><time>2026-03-28T18:12:17Z</time></trkpt><trkpt lat="45.63161881429217" lon="11.308180839043855"><ele>226.6</ele><time>2026-03-28T18:12:18Z</time></trkpt><trkpt lat="45.63162068208349" lon="11.308047703705405"><ele>225.8</ele><time>2026-03-28T18:12:19Z</time></trkpt><trkpt lat="45.6316092745558" lon="11.307922899972725"><ele>225.0</ele><time>2026-03-28T18:12:20Z</time></trkpt><trkpt lat="45.63160173524898" lon="11.307809618011797"><ele>225.0</ele><time>2026-03-28T18:12:21Z</time></trkpt><trkpt lat="45.63160835302752" lon="11.307705105309925"><ele>225.0</ele><time>2026-03-28T18:12:22Z</time></trkpt><trkpt lat="45.631618699537285" lon="11.307602123969774"><ele>225.0</ele><time>2026-03-28T18:12:23Z</time></trkpt><trkpt lat="45.63166638373494" lon="11.307521406478608"><ele>225.0</ele><time>2026-03-28T18:12:24Z</time></trkpt><trkpt lat="45.631734717162786" lon="11.307463237801734"><ele>225.0</ele><time>2026-03-28T18:12:25Z</time></trkpt><trkpt lat="45.63182237534914" lon="11.307438212632187"><ele>225.0</ele><time>2026-03-28T18:12:26Z</time></trkpt><trkpt lat="45.631910939059246" lon="11.30742441571546"><ele>225.8</ele><time>2026-03-28T18:12:27Z</time></trkpt><trkpt lat="45.63200163290548" lon="11.307407158917114"><ele>226.6</ele><time>2026-03-28T18:12:28Z</time></trkpt><trkpt lat="45.63209732467465" lon="11.307373860289552"><ele>227.39999999999998</ele><time>2026-03-28T18:12:29Z</time></trkpt><trkpt lat="45.632185725258" lon="11.307314121858981"><ele>228.2</ele><time>2026-03-28T18:12:30Z</time></trkpt><trkpt lat="45.632271022290226" lon="11.307247879829145"><ele>229.0</ele><time>2026-03-28T18:12:31Z</time></trkpt><trkpt lat="45.63235355640634" lon="11.30718965988539"><ele>229.0</ele><time>2026-03-28T18:12:32Z</time></trkpt><trkpt lat="45.63244265724543" lon="11.307170758518337"><ele>228.99999999999997</ele><time>2026-03-28T18:12:33Z</time></trkpt><trkpt lat="45.632534051121254" lon="11.30718649468549"><ele>228.99999999999997</ele><time>2026-03-28T18:12:34Z</time></trkpt><trkpt lat="45.63262251007713" lon="11.30722274246627"><ele>229.0</ele><time>2026-03-28T18:12:35Z</time></trkpt><trkpt lat="45.632717800315795" lon="11.307255674035236"><ele>229.0</ele><time>2026-03-28T18:12:36Z</time></trkpt><trkpt lat="45.632820030643025" lon="11.307247360276833"><ele>229.75</ele><time>2026-03-28T18:12:37Z</time></trkpt><trkpt lat="45.632919271320226" lon="11.307201421711454"><ele>230.5</ele><time>2026-03-28T18:12:38Z</time></trkpt><trkpt lat="45.633022247182105" lon="11.307126690621248"><ele>231.25</ele><time>2026-03-28T18:12:39Z</time></trkpt><trkpt lat="45.6331345018587" lon="11.307032718037856"><ele>232.0</ele><time>2026-03-28T18:12:40Z</time></trkpt><trkpt lat="45.63325753524457" lon="11.306955413422372"><ele>232.0</ele><time>2026-03-28T18:12:41Z</time></trkpt><trkpt lat="45.63339170662471" lon="11.306900830880595"><ele>232.0</ele><time>2026-03-28T18:12:42Z</time></trkpt><trkpt lat="45.63352426654473" lon="11.306856342309231"><ele>232.0</ele><time>2026-03-28T18:12:43Z</time></trkpt><trkpt lat="45.633655518001724" lon="11.30682231551053"><ele>232.0</ele><time>2026-03-28T18:12:44Z</time></trkpt><trkpt lat="45.633784754957766" lon="11.30679932345504"><ele>232.5</ele><time>2026-03-28T18:12:45Z</time></trkpt><trkpt lat="45.63390828901671" lon="11.30678172838517"><ele>233.0</ele><time>2026-03-28T18:12:46Z</time></trkpt><trkpt lat="45.63403700447502" lon="11.306764822928265"><ele>233.5</ele><time>2026-03-28T18:12:47Z</time></trkpt><trkpt lat="45.634170113736076" lon="11.306773832477328"><ele>234.0</ele><time>2026-03-28T18:12:48Z</time></trkpt><trkpt lat="45.63431105122973" lon="11.306764377779887"><ele>234.0</ele><time>2026-03-28T18:12:49Z</time></trkpt><trkpt lat="45.634443316980075" lon="11.30675553916875"><ele>234.0</ele><time>2026-03-28T18:12:50Z</time></trkpt><trkpt lat="45.634573199178" lon="11.30674685982794"><ele>234.0</ele><time>2026-03-28T18:12:51Z</time></trkpt><trkpt lat="45.63470718471667" lon="11.306737198690188"><ele>234.0</ele><time>2026-03-28T18:12:52Z</time></trkpt><trkpt lat="45.634864343375426" lon="11.30672576671715"><ele>234.0</ele><time>2026-03-28T18:12:53Z</time></trkpt><trkpt lat="45.63502135531109" lon="11.30669089210346"><ele>234.0</ele><time>2026-03-28T18:12:54Z</time></trkpt><trkpt lat="45.63517244422345" lon="11.306689035237246"><ele>234.0</ele><time>2026-03-28T18:12:55Z</time></trkpt><trkpt lat="45.635312970717166" lon="11.306674667558314"><ele>234.0</ele><time>2026-03-28T18:12:56Z</time></trkpt><trkpt lat="45.63543908387987" lon="11.306662336768154"><ele>234.0</ele><time>2026-03-28T18:12:57Z</time></trkpt><trkpt lat="45.635565134582784" lon="11.306646853165525"><ele>234.0</ele><time>2026-03-28T18:12:58Z</time></trkpt><trkpt lat="45.635693084640856" lon="11.30662273491953"><ele>234.0</ele><time>2026-03-28T18:12:58.999Z</time></trkpt><trkpt lat="45.6358203602058" lon="11.306582567032347"><ele>234.0</ele><time>2026-03-28T18:12:59.999Z</time></trkpt><trkpt lat="45.63594766500566" lon="11.306525537310895"><ele>234.0</ele><time>2026-03-28T18:13:00.999Z</time></trkpt><trkpt lat="45.636073083004916" lon="11.30645787416366"><ele>234.0</ele><time>2026-03-28T18:13:01.999Z</time></trkpt><trkpt lat="45.63620793854969" lon="11.306394888347961"><ele>234.0</ele><time>2026-03-28T18:13:02.999Z</time></trkpt><trkpt lat="45.63633709161076" lon="11.30633982038004"><ele>235.25</ele><time>2026-03-28T18:13:03.999Z</time></trkpt><trkpt lat="45.63645561262546" lon="11.306277149234054"><ele>236.5</ele><time>2026-03-28T18:13:04.999Z</time></trkpt><trkpt lat="45.636575763430706" lon="11.30622904788535"><ele>237.75</ele><time>2026-03-28T18:13:05.999Z</time></trkpt><trkpt lat="45.63668808903645" lon="11.30617416515036"><ele>239.0</ele><time>2026-03-28T18:13:06.999Z</time></trkpt><trkpt lat="45.636798572364214" lon="11.306115651468312"><ele>239.0</ele><time>2026-03-28T18:13:07.999Z</time></trkpt><trkpt lat="45.63690690952654" lon="11.306074282259054"><ele>238.99999999999997</ele><time>2026-03-28T18:13:08.999Z</time></trkpt><trkpt lat="45.63700931785553" lon="11.306026072544023"><ele>238.99999999999997</ele><time>2026-03-28T18:13:09.999Z</time></trkpt><trkpt lat="45.63711430032786" lon="11.305973784272526"><ele>239.0</ele><time>2026-03-28T18:13:10.999Z</time></trkpt><trkpt lat="45.63721867135651" lon="11.305922825624963"><ele>239.0</ele><time>2026-03-28T18:13:11.999Z</time></trkpt><trkpt lat="45.63732516874089" lon="11.305874668801653"><ele>239.0</ele><time>2026-03-28T18:13:12.999Z</time></trkpt><trkpt lat="45.63744079544052" lon="11.305823936882312"><ele>239.0</ele><time>2026-03-28T18:13:13.999Z</time></trkpt><trkpt lat="45.637561935632675" lon="11.305765547792797"><ele>239.0</ele><time>2026-03-28T18:13:14.999Z</time></trkpt><trkpt lat="45.63769081792468" lon="11.305700983055136"><ele>239.0</ele><time>2026-03-28T18:13:15.999Z</time></trkpt><trkpt lat="45.637826013032424" lon="11.305632354338568"><ele>239.33333333333334</ele><time>2026-03-28T18:13:16.999Z</time></trkpt><trkpt lat="45.63796958891546" lon="11.305584181598219"><ele>239.66666666666669</ele><time>2026-03-28T18:13:17.999Z</time></trkpt><trkpt lat="45.638112489008584" lon="11.305517221220327"><ele>240.0</ele><time>2026-03-28T18:13:18.999Z</time></trkpt><trkpt lat="45.638261281632865" lon="11.305448155750133"><ele>240.33333333333331</ele><time>2026-03-28T18:13:19.999Z</time></trkpt><trkpt lat="45.63841185469785" lon="11.305378263859119"><ele>240.66666666666666</ele><time>2026-03-28T18:13:20.999Z</time></trkpt><trkpt lat="45.63856231616326" lon="11.305308423793777"><ele>241.0</ele><time>2026-03-28T18:13:21.999Z</time></trkpt><trkpt lat="45.63870804002607" lon="11.305221243559359"><ele>241.33333333333331</ele><time>2026-03-28T18:13:22.999Z</time></trkpt><trkpt lat="45.63885641896274" lon="11.305165648166364"><ele>241.66666666666669</ele><time>2026-03-28T18:13:23.999Z</time></trkpt><trkpt lat="45.639005327688075" lon="11.305098048573647"><ele>242.0</ele><time>2026-03-28T18:13:24.999Z</time></trkpt><trkpt lat="45.639155884557056" lon="11.305029691501781"><ele>242.0</ele><time>2026-03-28T18:13:25.999Z</time></trkpt><trkpt lat="45.639303016659426" lon="11.304956792777626"><ele>242.0</ele><time>2026-03-28T18:13:26.999Z</time></trkpt><trkpt lat="45.639457675838315" lon="11.304888745976738"><ele>242.0</ele><time>2026-03-28T18:13:27.999Z</time></trkpt><trkpt lat="45.63960876208899" lon="11.304819581330158"><ele>242.0</ele><time>2026-03-28T18:13:28.999Z</time></trkpt><trkpt lat="45.63976387874911" lon="11.30474711294131"><ele>242.0</ele><time>2026-03-28T18:13:29.999Z</time></trkpt><trkpt lat="45.63992313519747" lon="11.30467314181599"><ele>242.0</ele><time>2026-03-28T18:13:30.999Z</time></trkpt><trkpt lat="45.64008397720414" lon="11.304597359105681"><ele>242.33333333333334</ele><time>2026-03-28T18:13:31.999Z</time></trkpt><trkpt lat="45.640238584697244" lon="11.304522487299453"><ele>242.66666666666669</ele><time>2026-03-28T18:13:32.999Z</time></trkpt><trkpt lat="45.64038683969604" lon="11.304456374581727"><ele>243.0</ele><time>2026-03-28T18:13:33.999Z</time></trkpt><trkpt lat="45.64052519671903" lon="11.304389226449516"><ele>243.5</ele><time>2026-03-28T18:13:34.999Z</time></trkpt><trkpt lat="45.640657704322784" lon="11.304323750888646"><ele>244.0</ele><time>2026-03-28T18:13:35.999Z</time></trkpt><trkpt lat="45.64078326334202" lon="11.30425963092091"><ele>244.5</ele><time>2026-03-28T18:13:36.999Z</time></trkpt><trkpt lat="45.64089596474048" lon="11.304206083749035"><ele>245.0</ele><time>2026-03-28T18:13:37.999Z</time></trkpt><trkpt lat="45.64099895820734" lon="11.304157131597131"><ele>245.0</ele><time>2026-03-28T18:13:38.999Z</time></trkpt><trkpt lat="45.641099815901185" lon="11.304111404162724"><ele>245.0</ele><time>2026-03-28T18:13:39.999Z</time></trkpt><trkpt lat="45.64119830096648" lon="11.304088659676022"><ele>245.0</ele><time>2026-03-28T18:13:41Z</time></trkpt><trkpt lat="45.64128553048907" lon="11.304027535167304"><ele>245.0</ele><time>2026-03-28T18:13:42Z</time></trkpt><trkpt lat="45.64135853138298" lon="11.304001854380802"><ele>245.0</ele><time>2026-03-28T18:13:43Z</time></trkpt><trkpt lat="45.64143888133602" lon="11.30397422548487"><ele>245.00000000000003</ele><time>2026-03-28T18:13:45Z</time></trkpt><trkpt lat="45.64150527090549" lon="11.303940396465679"><ele>245.0</ele><time>2026-03-28T18:13:50Z</time></trkpt><trkpt lat="45.641602921386585" lon="11.303910320948436"><ele>245.0</ele><time>2026-03-28T18:13:53Z</time></trkpt><trkpt lat="45.64167490724736" lon="11.303844501154122"><ele>245.0</ele><time>2026-03-28T18:13:55Z</time></trkpt><trkpt lat="45.641767124354" lon="11.303779537175691"><ele>245.00000000000003</ele><time>2026-03-28T18:13:57Z</time></trkpt><trkpt lat="45.641830100347455" lon="11.30374584241133"><ele>245.0</ele><time>2026-03-28T18:13:58Z</time></trkpt><trkpt lat="45.641942365665805" lon="11.30367073591498"><ele>245.66666666666669</ele><time>2026-03-28T18:14:00Z</time></trkpt><trkpt lat="45.642004354920395" lon="11.303633142834778"><ele>246.33333333333334</ele><time>2026-03-28T18:14:01Z</time></trkpt><trkpt lat="45.64207238097201" lon="11.303596107602123"><ele>247.0</ele><time>2026-03-28T18:14:02Z</time></trkpt><trkpt lat="45.64214761696551" lon="11.303562659689687"><ele>247.66666666666669</ele><time>2026-03-28T18:14:03Z</time></trkpt><trkpt lat="45.64223280260567" lon="11.303539115101735"><ele>248.33333333333334</ele><time>2026-03-28T18:14:04Z</time></trkpt><trkpt lat="45.642318412658035" lon="11.303510362568497"><ele>249.0</ele><time>2026-03-28T18:14:05Z</time></trkpt><trkpt lat="45.642393509933896" lon="11.303478480171268"><ele>249.0</ele><time>2026-03-28T18:14:06Z</time></trkpt><trkpt lat="45.64246227767478" lon="11.303448099645854"><ele>248.99999999999997</ele><time>2026-03-28T18:14:07Z</time></trkpt><trkpt lat="45.64253060923348" lon="11.303415765653503"><ele>249.0</ele><time>2026-03-28T18:14:08Z</time></trkpt><trkpt lat="45.64260848494803" lon="11.303414082517893"><ele>249.0</ele><time>2026-03-28T18:14:09Z</time></trkpt><trkpt lat="45.64267814961727" lon="11.303378257870154"><ele>248.99999999999997</ele><time>2026-03-28T18:14:10Z</time></trkpt><trkpt lat="45.642748876284735" lon="11.303341887084473"><ele>249.0</ele><time>2026-03-28T18:14:11Z</time></trkpt><trkpt lat="45.642812238636644" lon="11.303309303402514"><ele>249.0</ele><time>2026-03-28T18:14:12Z</time></trkpt><trkpt lat="45.642880211975054" lon="11.303274348511048"><ele>249.0</ele><time>2026-03-28T18:14:13Z</time></trkpt><trkpt lat="45.642939960067835" lon="11.303243623474561"><ele>249.0</ele><time>2026-03-28T18:14:14Z</time></trkpt><trkpt lat="45.643035060272844" lon="11.30317297253567"><ele>249.0</ele><time>2026-03-28T18:14:16Z</time></trkpt><trkpt lat="45.64309590913576" lon="11.30314440510716"><ele>249.0</ele><time>2026-03-28T18:14:17Z</time></trkpt><trkpt lat="45.6432196944943" lon="11.303100164107553"><ele>249.0</ele><time>2026-03-28T18:14:19Z</time></trkpt><trkpt lat="45.64328851135886" lon="11.303064764010902"><ele>249.0</ele><time>2026-03-28T18:14:20Z</time></trkpt><trkpt lat="45.643353768225516" lon="11.303030993544716"><ele>249.14285714285714</ele><time>2026-03-28T18:14:21Z</time></trkpt><trkpt lat="45.643417575727916" lon="11.302997973074591"><ele>249.28571428571428</ele><time>2026-03-28T18:14:22Z</time></trkpt><trkpt lat="45.6434799383354" lon="11.30296570038329"><ele>249.42857142857142</ele><time>2026-03-28T18:14:23Z</time></trkpt><trkpt lat="45.643543998640816" lon="11.30293254907871"><ele>249.57142857142856</ele><time>2026-03-28T18:14:24Z</time></trkpt><trkpt lat="45.643608607621466" lon="11.302899112833664"><ele>249.71428571428572</ele><time>2026-03-28T18:14:25Z</time></trkpt><trkpt lat="45.643671295719855" lon="11.302866670095497"><ele>249.85714285714283</ele><time>2026-03-28T18:14:26Z</time></trkpt><trkpt lat="45.643763437398796" lon="11.302821579330557"><ele>250.0</ele><time>2026-03-28T18:14:28Z</time></trkpt><trkpt lat="45.64386927879283" lon="11.302768130333243"><ele>250.4</ele><time>2026-03-28T18:14:30Z</time></trkpt><trkpt lat="45.64394085832639" lon="11.302731983299463"><ele>250.8</ele><time>2026-03-28T18:14:31Z</time></trkpt><trkpt lat="45.64402541276699" lon="11.302689825449125"><ele>251.2</ele><time>2026-03-28T18:14:32Z</time></trkpt><trkpt lat="45.64412401197367" lon="11.302642146013469"><ele>251.6</ele><time>2026-03-28T18:14:33Z</time></trkpt><trkpt lat="45.64423837845603" lon="11.30259239697399"><ele>252.0</ele><time>2026-03-28T18:14:34Z</time></trkpt><trkpt lat="45.64433548367614" lon="11.302552944221004"><ele>252.0</ele><time>2026-03-28T18:14:35Z</time></trkpt><trkpt lat="45.64442867170755" lon="11.302517278540051"><ele>252.0</ele><time>2026-03-28T18:14:37Z</time></trkpt><trkpt lat="45.64450070461966" lon="11.30248970952208"><ele>252.0</ele><time>2026-03-28T18:14:40Z</time></trkpt><trkpt lat="45.64457200447201" lon="11.302462420998875"><ele>252.0</ele><time>2026-03-28T18:14:45Z</time></trkpt><trkpt lat="45.64464176694865" lon="11.302435720933653"><ele>252.0</ele><time>2026-03-28T18:14:54Z</time></trkpt><trkpt lat="45.64470671270454" lon="11.302388057932248"><ele>252.0</ele><time>2026-03-28T18:14:58Z</time></trkpt><trkpt lat="45.64478678014161" lon="11.302380963017047"><ele>252.0</ele><time>2026-03-28T18:15:00Z</time></trkpt><trkpt lat="45.64487245340194" lon="11.302335124802894"><ele>252.0</ele><time>2026-03-28T18:15:01.999Z</time></trkpt><trkpt lat="45.645003372342195" lon="11.30229952192263"><ele>252.0</ele><time>2026-03-28T18:15:03.999Z</time></trkpt><trkpt lat="45.64508856662772" lon="11.302269927783549"><ele>252.0</ele><time>2026-03-28T18:15:04.999Z</time></trkpt><trkpt lat="45.64518251627638" lon="11.302236269389095"><ele>252.0</ele><time>2026-03-28T18:15:05.999Z</time></trkpt><trkpt lat="45.64526967305618" lon="11.302205857801608"><ele>252.0</ele><time>2026-03-28T18:15:06.999Z</time></trkpt><trkpt lat="45.64536741475973" lon="11.302170728678432"><ele>252.0</ele><time>2026-03-28T18:15:07.999Z</time></trkpt><trkpt lat="45.645472230900666" lon="11.302127248029581"><ele>252.0</ele><time>2026-03-28T18:15:08.999Z</time></trkpt><trkpt lat="45.645566902536224" lon="11.30207963724277"><ele>252.0</ele><time>2026-03-28T18:15:09.999Z</time></trkpt><trkpt lat="45.64567599012338" lon="11.302039061600398"><ele>252.0</ele><time>2026-03-28T18:15:10.999Z</time></trkpt><trkpt lat="45.64579379465965" lon="11.302017908856522"><ele>252.0</ele><time>2026-03-28T18:15:11.999Z</time></trkpt><trkpt lat="45.64591235112978" lon="11.30197841371377"><ele>252.0</ele><time>2026-03-28T18:15:12.999Z</time></trkpt><trkpt lat="45.64603004947053" lon="11.30194486995038"><ele>252.0</ele><time>2026-03-28T18:15:13.999Z</time></trkpt><trkpt lat="45.64613680635771" lon="11.301901706220386"><ele>252.0</ele><time>2026-03-28T18:15:14.999Z</time></trkpt><trkpt lat="45.64624777645355" lon="11.30185650073707"><ele>251.39999999999998</ele><time>2026-03-28T18:15:15.999Z</time></trkpt><trkpt lat="45.64635378687471" lon="11.301810849544532"><ele>250.79999999999998</ele><time>2026-03-28T18:15:16.999Z</time></trkpt><trkpt lat="45.64645861623588" lon="11.301768963250192"><ele>250.2</ele><time>2026-03-28T18:15:17.999Z</time></trkpt><trkpt lat="45.64655834287063" lon="11.301736722890583"><ele>249.6</ele><time>2026-03-28T18:15:18.999Z</time></trkpt><trkpt lat="45.646657059553085" lon="11.301715854460422"><ele>249.0</ele><time>2026-03-28T18:15:19.999Z</time></trkpt><trkpt lat="45.646743606952455" lon="11.301689933353622"><ele>249.0</ele><time>2026-03-28T18:15:20.999Z</time></trkpt><trkpt lat="45.64682885279226" lon="11.301664182052237"><ele>248.99999999999997</ele><time>2026-03-28T18:15:21.999Z</time></trkpt><trkpt lat="45.64690033885841" lon="11.301645605650048"><ele>249.0</ele><time>2026-03-28T18:15:22.999Z</time></trkpt><trkpt lat="45.646969873884764" lon="11.301617872870562"><ele>249.0</ele><time>2026-03-28T18:15:23.999Z</time></trkpt><trkpt lat="45.64703751763117" lon="11.301592573966461"><ele>248.99999999999997</ele><time>2026-03-28T18:15:24.999Z</time></trkpt><trkpt lat="45.647102686071406" lon="11.301566942243703"><ele>249.0</ele><time>2026-03-28T18:15:25.999Z</time></trkpt><trkpt lat="45.64716521152446" lon="11.301535788599464"><ele>249.0</ele><time>2026-03-28T18:15:26.999Z</time></trkpt><trkpt lat="45.64723039041592" lon="11.301510042989248"><ele>249.83333333333334</ele><time>2026-03-28T18:15:27.999Z</time></trkpt><trkpt lat="45.64733401495671" lon="11.301465023565166"><ele>250.66666666666669</ele><time>2026-03-28T18:15:29.999Z</time></trkpt><trkpt lat="45.64744028580759" lon="11.301416470525233"><ele>251.5</ele><time>2026-03-28T18:15:31.999Z</time></trkpt><trkpt lat="45.64750545023941" lon="11.301413934714796"><ele>252.33333333333334</ele><time>2026-03-28T18:15:32.999Z</time></trkpt><trkpt lat="45.647572407316666" lon="11.301391591708319"><ele>253.16666666666669</ele><time>2026-03-28T18:15:33.999Z</time></trkpt><trkpt lat="45.6476479794354" lon="11.301356688334135"><ele>254.0</ele><time>2026-03-28T18:15:34.999Z</time></trkpt><trkpt lat="45.647724490333" lon="11.30131532983934"><ele>254.50000000000003</ele><time>2026-03-28T18:15:35.999Z</time></trkpt><trkpt lat="45.647798601990374" lon="11.301305016695466"><ele>255.0</ele><time>2026-03-28T18:15:36.999Z</time></trkpt><trkpt lat="45.64786790847695" lon="11.301281313583955"><ele>255.5</ele><time>2026-03-28T18:15:37.999Z</time></trkpt><trkpt lat="45.647941782914174" lon="11.301258924842084"><ele>256.0</ele><time>2026-03-28T18:15:38.999Z</time></trkpt><trkpt lat="45.64801024419301" lon="11.301241048055502"><ele>256.5</ele><time>2026-03-28T18:15:39.999Z</time></trkpt><trkpt lat="45.64809902390501" lon="11.301222256640175"><ele>257.0</ele><time>2026-03-28T18:15:41.999Z</time></trkpt><trkpt lat="45.6480853530742" lon="11.300991012423603"><ele>257.0</ele><time>2026-03-28T18:15:43.999Z</time></trkpt><trkpt lat="45.648077462642085" lon="11.300848823956587"><ele>257.0</ele><time>2026-03-28T18:15:45.999Z</time></trkpt><trkpt lat="45.648034526648836" lon="11.300692702085227"><ele>257.0</ele><time>2026-03-28T18:15:48Z</time></trkpt><trkpt lat="45.648017074511515" lon="11.300517247424379"><ele>257.0</ele><time>2026-03-28T18:15:50Z</time></trkpt><trkpt lat="45.64798791978944" lon="11.30035696665356"><ele>258.2</ele><time>2026-03-28T18:15:52Z</time></trkpt><trkpt lat="45.64796144150513" lon="11.300212287620939"><ele>259.4</ele><time>2026-03-28T18:15:54Z</time></trkpt><trkpt lat="45.64782589315666" lon="11.300217167586585"><ele>260.6</ele><time>2026-03-28T18:15:56Z</time></trkpt><trkpt lat="45.647753222176185" lon="11.300236020763055"><ele>261.8</ele><time>2026-03-28T18:15:57Z</time></trkpt><trkpt lat="45.647673847216666" lon="11.300267480498302"><ele>263.0</ele><time>2026-03-28T18:15:58Z</time></trkpt><trkpt lat="45.647599563167965" lon="11.300301004216145"><ele>263.5</ele><time>2026-03-28T18:15:59Z</time></trkpt><trkpt lat="45.647537738330975" lon="11.300324323681728"><ele>264.0</ele><time>2026-03-28T18:16:00Z</time></trkpt><trkpt lat="45.64743855198658" lon="11.300324675033917"><ele>264.5</ele><time>2026-03-28T18:16:02Z</time></trkpt><trkpt lat="45.64735836072071" lon="11.300350258697225"><ele>265.0</ele><time>2026-03-28T18:16:04Z</time></trkpt><trkpt lat="45.647242353490384" lon="11.300384571451826"><ele>265.5</ele><time>2026-03-28T18:16:06Z</time></trkpt><trkpt lat="45.64717642328478" lon="11.300385987732708"><ele>266.0</ele><time>2026-03-28T18:16:07Z</time></trkpt><trkpt lat="45.64711221503666" lon="11.300384084084174"><ele>266.0</ele><time>2026-03-28T18:16:08Z</time></trkpt><trkpt lat="45.64700416428928" lon="11.300327489567035"><ele>266.0</ele><time>2026-03-28T18:16:10Z</time></trkpt><trkpt lat="45.646889614985696" lon="11.300282533867042"><ele>266.0</ele><time>2026-03-28T18:16:12Z</time></trkpt><trkpt lat="45.64682494962872" lon="11.300260776084748"><ele>266.0</ele><time>2026-03-28T18:16:13Z</time></trkpt><trkpt lat="45.646755096386705" lon="11.300238667252106"><ele>266.0</ele><time>2026-03-28T18:16:14Z</time></trkpt><trkpt lat="45.64667842468848" lon="11.300227538868143"><ele>266.0</ele><time>2026-03-28T18:16:15Z</time></trkpt><trkpt lat="45.64660714296159" lon="11.300212070219317"><ele>266.33333333333337</ele><time>2026-03-28T18:16:16Z</time></trkpt><trkpt lat="45.646490493945585" lon="11.300163857725819"><ele>266.6666666666667</ele><time>2026-03-28T18:16:18Z</time></trkpt><trkpt lat="45.646427526011415" lon="11.300138362506628"><ele>267.0</ele><time>2026-03-28T18:16:19Z</time></trkpt><trkpt lat="45.64636679167937" lon="11.300113772107462"><ele>267.3333333333333</ele><time>2026-03-28T18:16:20Z</time></trkpt><trkpt lat="45.64626707177811" lon="11.300073396101507"><ele>267.66666666666663</ele><time>2026-03-28T18:16:22Z</time></trkpt><trkpt lat="45.646175870318885" lon="11.30004077777662"><ele>268.0</ele><time>2026-03-28T18:16:24Z</time></trkpt><trkpt lat="45.64609354675766" lon="11.300013009216897"><ele>268.0</ele><time>2026-03-28T18:16:26Z</time></trkpt><trkpt lat="45.646084743854225" lon="11.299852436888402"><ele>268.0</ele><time>2026-03-28T18:16:29Z</time></trkpt><trkpt lat="45.646093520850634" lon="11.299690193136662"><ele>268.0</ele><time>2026-03-28T18:16:31Z</time></trkpt><trkpt lat="45.646100265847565" lon="11.299523180110565"><ele>268.0</ele><time>2026-03-28T18:16:33Z</time></trkpt><trkpt lat="45.64608857496963" lon="11.299430793634235"><ele>268.0</ele><time>2026-03-28T18:16:34Z</time></trkpt><trkpt lat="45.646102253497396" lon="11.299282218838039"><ele>268.3333333333333</ele><time>2026-03-28T18:16:36Z</time></trkpt><trkpt lat="45.6461159128586" lon="11.29914187526092"><ele>268.66666666666663</ele><time>2026-03-28T18:16:38Z</time></trkpt><trkpt lat="45.646151704455114" lon="11.299033577071171"><ele>269.0</ele><time>2026-03-28T18:16:40Z</time></trkpt><trkpt lat="45.64615202104315" lon="11.298932813317794"><ele>269.3333333333333</ele><time>2026-03-28T18:16:44Z</time></trkpt><trkpt lat="45.64615936671008" lon="11.298825243931873"><ele>269.6666666666667</ele><time>2026-03-28T18:16:50Z</time></trkpt><trkpt lat="45.64617794519664" lon="11.298922638892087"><ele>270.0</ele><time>2026-03-28T18:16:52Z</time></trkpt><trkpt lat="45.64625467843537" lon="11.2989296207749"><ele>270.0</ele><time>2026-03-28T18:16:54Z</time></trkpt><trkpt lat="45.64640273158114" lon="11.298934229195496"><ele>270.0</ele><time>2026-03-28T18:16:56Z</time></trkpt><trkpt lat="45.64651009510637" lon="11.298935175135775"><ele>270.0</ele><time>2026-03-28T18:16:58.018Z</time></trkpt><trkpt lat="45.646633626989576" lon="11.298894186269854"><ele>270.0</ele><time>2026-03-28T18:17:00.026Z</time></trkpt><trkpt lat="45.64670215186424" lon="11.298892604427957"><ele>280.0</ele><time>2026-03-28T18:17:01.023Z</time></trkpt><trkpt lat="45.64680890460439" lon="11.298939206193246"><ele>270.0</ele><time>2026-03-28T18:17:03.023Z</time></trkpt></trkseg></trk></gpx>